<?xml version="1.0" encoding="UTF-8" standalone="no" ?>
<gpx xmlns="http://www.topografix.com/GPX/1/1" xmlns:xsi="http://www.w3.org/2001/XMLSchema-instance" xsi:schemaLocation="http://www.topografix.com/GPX/1/1 http://www.topografix.com/GPX/1/1/gpx.xsd" version="1.1" creator="VisuGPX - https://www.visugpx.com">
  <metadata>
    <name>VTT rando Flize 2022</name>
  </metadata>
  <trk>
    <name><![CDATA[VTT rando Flize 2022_1]]></name>
    <trkseg>
      <trkpt lat="49.69669" lon="4.77759">
        <ele>184</ele>
        <time>2022-04-03T06:00:14.000Z</time>
      </trkpt>
      <trkpt lat="49.69669" lon="4.7776">
        <ele>184</ele>
        <time>2022-04-03T06:00:15.000Z</time>
      </trkpt>
      <trkpt lat="49.69669" lon="4.77762">
        <ele>184</ele>
        <time>2022-04-03T06:00:16.000Z</time>
      </trkpt>
      <trkpt lat="49.69668" lon="4.77764">
        <ele>183</ele>
        <time>2022-04-03T06:00:17.000Z</time>
      </trkpt>
      <trkpt lat="49.69667" lon="4.77765">
        <ele>183</ele>
        <time>2022-04-03T06:00:18.000Z</time>
      </trkpt>
      <trkpt lat="49.69666" lon="4.77768">
        <ele>183</ele>
        <time>2022-04-03T06:00:19.000Z</time>
      </trkpt>
      <trkpt lat="49.69666" lon="4.7777">
        <ele>183</ele>
        <time>2022-04-03T06:00:20.000Z</time>
      </trkpt>
      <trkpt lat="49.69665" lon="4.77773">
        <ele>183</ele>
        <time>2022-04-03T06:00:21.000Z</time>
      </trkpt>
      <trkpt lat="49.69665" lon="4.77775">
        <ele>183</ele>
        <time>2022-04-03T06:00:22.000Z</time>
      </trkpt>
      <trkpt lat="49.69666" lon="4.77778">
        <ele>183</ele>
        <time>2022-04-03T06:00:23.000Z</time>
      </trkpt>
      <trkpt lat="49.69667" lon="4.77781">
        <ele>183</ele>
        <time>2022-04-03T06:00:24.000Z</time>
      </trkpt>
      <trkpt lat="49.69667" lon="4.77785">
        <ele>183</ele>
        <time>2022-04-03T06:00:25.000Z</time>
      </trkpt>
      <trkpt lat="49.69669" lon="4.7779">
        <ele>183</ele>
        <time>2022-04-03T06:00:26.000Z</time>
      </trkpt>
      <trkpt lat="49.6967" lon="4.77795">
        <ele>183</ele>
        <time>2022-04-03T06:00:27.000Z</time>
      </trkpt>
      <trkpt lat="49.69671" lon="4.778">
        <ele>183</ele>
        <time>2022-04-03T06:00:28.000Z</time>
      </trkpt>
      <trkpt lat="49.6967" lon="4.77805">
        <ele>183</ele>
        <time>2022-04-03T06:00:29.000Z</time>
      </trkpt>
      <trkpt lat="49.69669" lon="4.77808">
        <ele>184</ele>
        <time>2022-04-03T06:00:30.000Z</time>
      </trkpt>
      <trkpt lat="49.69667" lon="4.7781">
        <ele>183</ele>
        <time>2022-04-03T06:00:31.000Z</time>
      </trkpt>
      <trkpt lat="49.69664" lon="4.77812">
        <ele>183</ele>
        <time>2022-04-03T06:00:32.000Z</time>
      </trkpt>
      <trkpt lat="49.69661" lon="4.77814">
        <ele>183</ele>
        <time>2022-04-03T06:00:33.000Z</time>
      </trkpt>
      <trkpt lat="49.69659" lon="4.77816">
        <ele>183</ele>
        <time>2022-04-03T06:00:34.000Z</time>
      </trkpt>
      <trkpt lat="49.69656" lon="4.77817">
        <ele>183</ele>
        <time>2022-04-03T06:00:35.000Z</time>
      </trkpt>
      <trkpt lat="49.69653" lon="4.77819">
        <ele>182</ele>
        <time>2022-04-03T06:00:36.000Z</time>
      </trkpt>
      <trkpt lat="49.69651" lon="4.77822">
        <ele>182</ele>
        <time>2022-04-03T06:00:37.000Z</time>
      </trkpt>
      <trkpt lat="49.69648" lon="4.77824">
        <ele>182</ele>
        <time>2022-04-03T06:00:38.000Z</time>
      </trkpt>
      <trkpt lat="49.69646" lon="4.77826">
        <ele>182</ele>
        <time>2022-04-03T06:00:39.000Z</time>
      </trkpt>
      <trkpt lat="49.69643" lon="4.77829">
        <ele>181</ele>
        <time>2022-04-03T06:00:40.000Z</time>
      </trkpt>
      <trkpt lat="49.69641" lon="4.77832">
        <ele>181</ele>
        <time>2022-04-03T06:00:41.000Z</time>
      </trkpt>
      <trkpt lat="49.69638" lon="4.77835">
        <ele>181</ele>
        <time>2022-04-03T06:00:42.000Z</time>
      </trkpt>
      <trkpt lat="49.69635" lon="4.77837">
        <ele>180</ele>
        <time>2022-04-03T06:00:43.000Z</time>
      </trkpt>
      <trkpt lat="49.69633" lon="4.77841">
        <ele>180</ele>
        <time>2022-04-03T06:00:44.000Z</time>
      </trkpt>
      <trkpt lat="49.6963" lon="4.77844">
        <ele>180</ele>
        <time>2022-04-03T06:00:45.000Z</time>
      </trkpt>
      <trkpt lat="49.69627" lon="4.77848">
        <ele>180</ele>
        <time>2022-04-03T06:00:46.000Z</time>
      </trkpt>
      <trkpt lat="49.69625" lon="4.77851">
        <ele>179</ele>
        <time>2022-04-03T06:00:47.000Z</time>
      </trkpt>
      <trkpt lat="49.69622" lon="4.77854">
        <ele>179</ele>
        <time>2022-04-03T06:00:48.000Z</time>
      </trkpt>
      <trkpt lat="49.69619" lon="4.77857">
        <ele>179</ele>
        <time>2022-04-03T06:00:49.000Z</time>
      </trkpt>
      <trkpt lat="49.69616" lon="4.7786">
        <ele>179</ele>
        <time>2022-04-03T06:00:50.000Z</time>
      </trkpt>
      <trkpt lat="49.69614" lon="4.77862">
        <ele>179</ele>
        <time>2022-04-03T06:00:51.000Z</time>
      </trkpt>
      <trkpt lat="49.69611" lon="4.77865">
        <ele>179</ele>
        <time>2022-04-03T06:00:52.000Z</time>
      </trkpt>
      <trkpt lat="49.69609" lon="4.77868">
        <ele>179</ele>
        <time>2022-04-03T06:00:53.000Z</time>
      </trkpt>
      <trkpt lat="49.69606" lon="4.77871">
        <ele>179</ele>
        <time>2022-04-03T06:00:54.000Z</time>
      </trkpt>
      <trkpt lat="49.69606" lon="4.77871">
        <ele>179</ele>
        <time>2022-04-03T06:00:55.000Z</time>
      </trkpt>
      <trkpt lat="49.69601" lon="4.77877">
        <ele>179</ele>
        <time>2022-04-03T06:00:56.000Z</time>
      </trkpt>
      <trkpt lat="49.69598" lon="4.77881">
        <ele>179</ele>
        <time>2022-04-03T06:00:57.000Z</time>
      </trkpt>
      <trkpt lat="49.69596" lon="4.77885">
        <ele>179</ele>
        <time>2022-04-03T06:00:58.000Z</time>
      </trkpt>
      <trkpt lat="49.69593" lon="4.77888">
        <ele>179</ele>
        <time>2022-04-03T06:00:59.000Z</time>
      </trkpt>
      <trkpt lat="49.69591" lon="4.77892">
        <ele>179</ele>
        <time>2022-04-03T06:01:00.000Z</time>
      </trkpt>
      <trkpt lat="49.69588" lon="4.77895">
        <ele>179</ele>
        <time>2022-04-03T06:01:01.000Z</time>
      </trkpt>
      <trkpt lat="49.69586" lon="4.77898">
        <ele>179</ele>
        <time>2022-04-03T06:01:02.000Z</time>
      </trkpt>
      <trkpt lat="49.69583" lon="4.77901">
        <ele>179</ele>
        <time>2022-04-03T06:01:03.000Z</time>
      </trkpt>
      <trkpt lat="49.6958" lon="4.77904">
        <ele>179</ele>
        <time>2022-04-03T06:01:04.000Z</time>
      </trkpt>
      <trkpt lat="49.69578" lon="4.77906">
        <ele>179</ele>
        <time>2022-04-03T06:01:05.000Z</time>
      </trkpt>
      <trkpt lat="49.69576" lon="4.77909">
        <ele>179</ele>
        <time>2022-04-03T06:01:06.000Z</time>
      </trkpt>
      <trkpt lat="49.69573" lon="4.77912">
        <ele>179</ele>
        <time>2022-04-03T06:01:07.000Z</time>
      </trkpt>
      <trkpt lat="49.69571" lon="4.77914">
        <ele>178</ele>
        <time>2022-04-03T06:01:08.000Z</time>
      </trkpt>
      <trkpt lat="49.69569" lon="4.77917">
        <ele>178</ele>
        <time>2022-04-03T06:01:09.000Z</time>
      </trkpt>
      <trkpt lat="49.69567" lon="4.77919">
        <ele>178</ele>
        <time>2022-04-03T06:01:10.000Z</time>
      </trkpt>
      <trkpt lat="49.69564" lon="4.77922">
        <ele>178</ele>
        <time>2022-04-03T06:01:11.000Z</time>
      </trkpt>
      <trkpt lat="49.69563" lon="4.77925">
        <ele>178</ele>
        <time>2022-04-03T06:01:12.000Z</time>
      </trkpt>
      <trkpt lat="49.69561" lon="4.77928">
        <ele>178</ele>
        <time>2022-04-03T06:01:13.000Z</time>
      </trkpt>
      <trkpt lat="49.69559" lon="4.77932">
        <ele>179</ele>
        <time>2022-04-03T06:01:14.000Z</time>
      </trkpt>
      <trkpt lat="49.69556" lon="4.77935">
        <ele>179</ele>
        <time>2022-04-03T06:01:15.000Z</time>
      </trkpt>
      <trkpt lat="49.69554" lon="4.77938">
        <ele>179</ele>
        <time>2022-04-03T06:01:16.000Z</time>
      </trkpt>
      <trkpt lat="49.69552" lon="4.77941">
        <ele>179</ele>
        <time>2022-04-03T06:01:17.000Z</time>
      </trkpt>
      <trkpt lat="49.6955" lon="4.77944">
        <ele>179</ele>
        <time>2022-04-03T06:01:18.000Z</time>
      </trkpt>
      <trkpt lat="49.69549" lon="4.77947">
        <ele>179</ele>
        <time>2022-04-03T06:01:19.000Z</time>
      </trkpt>
      <trkpt lat="49.69547" lon="4.7795">
        <ele>179</ele>
        <time>2022-04-03T06:01:20.000Z</time>
      </trkpt>
      <trkpt lat="49.69545" lon="4.77953">
        <ele>179</ele>
        <time>2022-04-03T06:01:21.000Z</time>
      </trkpt>
      <trkpt lat="49.69543" lon="4.77956">
        <ele>180</ele>
        <time>2022-04-03T06:01:22.000Z</time>
      </trkpt>
      <trkpt lat="49.69541" lon="4.77958">
        <ele>180</ele>
        <time>2022-04-03T06:01:23.000Z</time>
      </trkpt>
      <trkpt lat="49.69538" lon="4.77961">
        <ele>180</ele>
        <time>2022-04-03T06:01:24.000Z</time>
      </trkpt>
      <trkpt lat="49.69536" lon="4.77963">
        <ele>180</ele>
        <time>2022-04-03T06:01:25.000Z</time>
      </trkpt>
      <trkpt lat="49.69534" lon="4.77967">
        <ele>180</ele>
        <time>2022-04-03T06:01:26.000Z</time>
      </trkpt>
      <trkpt lat="49.69531" lon="4.7797">
        <ele>180</ele>
        <time>2022-04-03T06:01:27.000Z</time>
      </trkpt>
      <trkpt lat="49.69529" lon="4.77973">
        <ele>180</ele>
        <time>2022-04-03T06:01:28.000Z</time>
      </trkpt>
      <trkpt lat="49.69526" lon="4.77976">
        <ele>180</ele>
        <time>2022-04-03T06:01:29.000Z</time>
      </trkpt>
      <trkpt lat="49.69524" lon="4.7798">
        <ele>180</ele>
        <time>2022-04-03T06:01:30.000Z</time>
      </trkpt>
      <trkpt lat="49.69524" lon="4.7798">
        <ele>180</ele>
        <time>2022-04-03T06:01:31.000Z</time>
      </trkpt>
      <trkpt lat="49.69519" lon="4.77987">
        <ele>180</ele>
        <time>2022-04-03T06:01:32.000Z</time>
      </trkpt>
      <trkpt lat="49.69516" lon="4.77991">
        <ele>180</ele>
        <time>2022-04-03T06:01:33.000Z</time>
      </trkpt>
      <trkpt lat="49.69513" lon="4.77994">
        <ele>180</ele>
        <time>2022-04-03T06:01:34.000Z</time>
      </trkpt>
      <trkpt lat="49.6951" lon="4.77996">
        <ele>180</ele>
        <time>2022-04-03T06:01:35.000Z</time>
      </trkpt>
      <trkpt lat="49.69507" lon="4.77997">
        <ele>180</ele>
        <time>2022-04-03T06:01:36.000Z</time>
      </trkpt>
      <trkpt lat="49.69504" lon="4.77998">
        <ele>180</ele>
        <time>2022-04-03T06:01:37.000Z</time>
      </trkpt>
      <trkpt lat="49.69501" lon="4.77998">
        <ele>180</ele>
        <time>2022-04-03T06:01:38.000Z</time>
      </trkpt>
      <trkpt lat="49.69497" lon="4.77999">
        <ele>180</ele>
        <time>2022-04-03T06:01:39.000Z</time>
      </trkpt>
      <trkpt lat="49.69494" lon="4.78">
        <ele>180</ele>
        <time>2022-04-03T06:01:40.000Z</time>
      </trkpt>
      <trkpt lat="49.6949" lon="4.78">
        <ele>180</ele>
        <time>2022-04-03T06:01:41.000Z</time>
      </trkpt>
      <trkpt lat="49.69487" lon="4.78">
        <ele>180</ele>
        <time>2022-04-03T06:01:42.000Z</time>
      </trkpt>
      <trkpt lat="49.69483" lon="4.78">
        <ele>180</ele>
        <time>2022-04-03T06:01:43.000Z</time>
      </trkpt>
      <trkpt lat="49.6948" lon="4.78001">
        <ele>180</ele>
        <time>2022-04-03T06:01:44.000Z</time>
      </trkpt>
      <trkpt lat="49.69476" lon="4.78001">
        <ele>180</ele>
        <time>2022-04-03T06:01:45.000Z</time>
      </trkpt>
      <trkpt lat="49.69473" lon="4.78001">
        <ele>180</ele>
        <time>2022-04-03T06:01:46.000Z</time>
      </trkpt>
      <trkpt lat="49.69469" lon="4.78001">
        <ele>180</ele>
        <time>2022-04-03T06:01:47.000Z</time>
      </trkpt>
      <trkpt lat="49.69466" lon="4.78002">
        <ele>180</ele>
        <time>2022-04-03T06:01:48.000Z</time>
      </trkpt>
      <trkpt lat="49.69466" lon="4.78002">
        <ele>180</ele>
        <time>2022-04-03T06:01:49.000Z</time>
      </trkpt>
      <trkpt lat="49.69459" lon="4.78003">
        <ele>180</ele>
        <time>2022-04-03T06:01:50.000Z</time>
      </trkpt>
      <trkpt lat="49.69456" lon="4.78004">
        <ele>180</ele>
        <time>2022-04-03T06:01:51.000Z</time>
      </trkpt>
      <trkpt lat="49.69453" lon="4.78004">
        <ele>180</ele>
        <time>2022-04-03T06:01:52.000Z</time>
      </trkpt>
      <trkpt lat="49.69449" lon="4.78004">
        <ele>180</ele>
        <time>2022-04-03T06:01:53.000Z</time>
      </trkpt>
      <trkpt lat="49.69446" lon="4.78004">
        <ele>180</ele>
        <time>2022-04-03T06:01:54.000Z</time>
      </trkpt>
      <trkpt lat="49.69446" lon="4.78004">
        <ele>180</ele>
        <time>2022-04-03T06:01:55.000Z</time>
      </trkpt>
      <trkpt lat="49.69439" lon="4.78005">
        <ele>180</ele>
        <time>2022-04-03T06:01:56.000Z</time>
      </trkpt>
      <trkpt lat="49.69435" lon="4.78005">
        <ele>180</ele>
        <time>2022-04-03T06:01:57.000Z</time>
      </trkpt>
      <trkpt lat="49.69432" lon="4.78006">
        <ele>180</ele>
        <time>2022-04-03T06:01:58.000Z</time>
      </trkpt>
      <trkpt lat="49.69428" lon="4.78006">
        <ele>180</ele>
        <time>2022-04-03T06:01:59.000Z</time>
      </trkpt>
      <trkpt lat="49.69424" lon="4.78006">
        <ele>181</ele>
        <time>2022-04-03T06:02:00.000Z</time>
      </trkpt>
      <trkpt lat="49.69421" lon="4.78006">
        <ele>181</ele>
        <time>2022-04-03T06:02:01.000Z</time>
      </trkpt>
      <trkpt lat="49.69418" lon="4.78007">
        <ele>181</ele>
        <time>2022-04-03T06:02:02.000Z</time>
      </trkpt>
      <trkpt lat="49.69414" lon="4.78007">
        <ele>181</ele>
        <time>2022-04-03T06:02:03.000Z</time>
      </trkpt>
      <trkpt lat="49.69411" lon="4.78008">
        <ele>181</ele>
        <time>2022-04-03T06:02:04.000Z</time>
      </trkpt>
      <trkpt lat="49.69408" lon="4.78008">
        <ele>181</ele>
        <time>2022-04-03T06:02:05.000Z</time>
      </trkpt>
      <trkpt lat="49.69404" lon="4.78008">
        <ele>181</ele>
        <time>2022-04-03T06:02:06.000Z</time>
      </trkpt>
      <trkpt lat="49.69401" lon="4.78009">
        <ele>181</ele>
        <time>2022-04-03T06:02:07.000Z</time>
      </trkpt>
      <trkpt lat="49.69397" lon="4.78009">
        <ele>181</ele>
        <time>2022-04-03T06:02:08.000Z</time>
      </trkpt>
      <trkpt lat="49.69394" lon="4.78009">
        <ele>181</ele>
        <time>2022-04-03T06:02:09.000Z</time>
      </trkpt>
      <trkpt lat="49.69391" lon="4.7801">
        <ele>181</ele>
        <time>2022-04-03T06:02:10.000Z</time>
      </trkpt>
      <trkpt lat="49.69387" lon="4.7801">
        <ele>181</ele>
        <time>2022-04-03T06:02:11.000Z</time>
      </trkpt>
      <trkpt lat="49.69384" lon="4.7801">
        <ele>181</ele>
        <time>2022-04-03T06:02:12.000Z</time>
      </trkpt>
      <trkpt lat="49.6938" lon="4.7801">
        <ele>181</ele>
        <time>2022-04-03T06:02:13.000Z</time>
      </trkpt>
      <trkpt lat="49.69377" lon="4.78011">
        <ele>181</ele>
        <time>2022-04-03T06:02:14.000Z</time>
      </trkpt>
      <trkpt lat="49.69374" lon="4.78011">
        <ele>181</ele>
        <time>2022-04-03T06:02:15.000Z</time>
      </trkpt>
      <trkpt lat="49.6937" lon="4.78011">
        <ele>181</ele>
        <time>2022-04-03T06:02:16.000Z</time>
      </trkpt>
      <trkpt lat="49.69366" lon="4.78011">
        <ele>182</ele>
        <time>2022-04-03T06:02:17.000Z</time>
      </trkpt>
      <trkpt lat="49.69362" lon="4.78012">
        <ele>182</ele>
        <time>2022-04-03T06:02:18.000Z</time>
      </trkpt>
      <trkpt lat="49.69359" lon="4.78012">
        <ele>182</ele>
        <time>2022-04-03T06:02:19.000Z</time>
      </trkpt>
      <trkpt lat="49.69356" lon="4.78012">
        <ele>182</ele>
        <time>2022-04-03T06:02:20.000Z</time>
      </trkpt>
      <trkpt lat="49.69352" lon="4.78013">
        <ele>182</ele>
        <time>2022-04-03T06:02:21.000Z</time>
      </trkpt>
      <trkpt lat="49.69349" lon="4.78013">
        <ele>182</ele>
        <time>2022-04-03T06:02:22.000Z</time>
      </trkpt>
      <trkpt lat="49.69345" lon="4.78013">
        <ele>182</ele>
        <time>2022-04-03T06:02:23.000Z</time>
      </trkpt>
      <trkpt lat="49.69342" lon="4.78013">
        <ele>182</ele>
        <time>2022-04-03T06:02:24.000Z</time>
      </trkpt>
      <trkpt lat="49.69338" lon="4.78014">
        <ele>183</ele>
        <time>2022-04-03T06:02:25.000Z</time>
      </trkpt>
      <trkpt lat="49.69335" lon="4.78015">
        <ele>183</ele>
        <time>2022-04-03T06:02:26.000Z</time>
      </trkpt>
      <trkpt lat="49.69331" lon="4.78016">
        <ele>183</ele>
        <time>2022-04-03T06:02:27.000Z</time>
      </trkpt>
      <trkpt lat="49.69327" lon="4.78016">
        <ele>183</ele>
        <time>2022-04-03T06:02:28.000Z</time>
      </trkpt>
      <trkpt lat="49.69324" lon="4.78018">
        <ele>183</ele>
        <time>2022-04-03T06:02:29.000Z</time>
      </trkpt>
      <trkpt lat="49.6932" lon="4.78019">
        <ele>183</ele>
        <time>2022-04-03T06:02:30.000Z</time>
      </trkpt>
      <trkpt lat="49.69317" lon="4.7802">
        <ele>183</ele>
        <time>2022-04-03T06:02:31.000Z</time>
      </trkpt>
      <trkpt lat="49.69313" lon="4.78021">
        <ele>184</ele>
        <time>2022-04-03T06:02:32.000Z</time>
      </trkpt>
      <trkpt lat="49.6931" lon="4.78023">
        <ele>184</ele>
        <time>2022-04-03T06:02:33.000Z</time>
      </trkpt>
      <trkpt lat="49.69307" lon="4.78024">
        <ele>184</ele>
        <time>2022-04-03T06:02:34.000Z</time>
      </trkpt>
      <trkpt lat="49.69303" lon="4.78026">
        <ele>184</ele>
        <time>2022-04-03T06:02:35.000Z</time>
      </trkpt>
      <trkpt lat="49.693" lon="4.78027">
        <ele>185</ele>
        <time>2022-04-03T06:02:36.000Z</time>
      </trkpt>
      <trkpt lat="49.69297" lon="4.78029">
        <ele>185</ele>
        <time>2022-04-03T06:02:37.000Z</time>
      </trkpt>
      <trkpt lat="49.69293" lon="4.7803">
        <ele>185</ele>
        <time>2022-04-03T06:02:38.000Z</time>
      </trkpt>
      <trkpt lat="49.6929" lon="4.78032">
        <ele>185</ele>
        <time>2022-04-03T06:02:39.000Z</time>
      </trkpt>
      <trkpt lat="49.69287" lon="4.78034">
        <ele>185</ele>
        <time>2022-04-03T06:02:40.000Z</time>
      </trkpt>
      <trkpt lat="49.69284" lon="4.78035">
        <ele>185</ele>
        <time>2022-04-03T06:02:41.000Z</time>
      </trkpt>
      <trkpt lat="49.6928" lon="4.78037">
        <ele>186</ele>
        <time>2022-04-03T06:02:42.000Z</time>
      </trkpt>
      <trkpt lat="49.69277" lon="4.78039">
        <ele>186</ele>
        <time>2022-04-03T06:02:43.000Z</time>
      </trkpt>
      <trkpt lat="49.69274" lon="4.7804">
        <ele>186</ele>
        <time>2022-04-03T06:02:44.000Z</time>
      </trkpt>
      <trkpt lat="49.69271" lon="4.78043">
        <ele>186</ele>
        <time>2022-04-03T06:02:45.000Z</time>
      </trkpt>
      <trkpt lat="49.69268" lon="4.78045">
        <ele>187</ele>
        <time>2022-04-03T06:02:46.000Z</time>
      </trkpt>
      <trkpt lat="49.69264" lon="4.78047">
        <ele>187</ele>
        <time>2022-04-03T06:02:47.000Z</time>
      </trkpt>
      <trkpt lat="49.69261" lon="4.78049">
        <ele>187</ele>
        <time>2022-04-03T06:02:48.000Z</time>
      </trkpt>
      <trkpt lat="49.69258" lon="4.78051">
        <ele>187</ele>
        <time>2022-04-03T06:02:49.000Z</time>
      </trkpt>
      <trkpt lat="49.69255" lon="4.78052">
        <ele>187</ele>
        <time>2022-04-03T06:02:50.000Z</time>
      </trkpt>
      <trkpt lat="49.69252" lon="4.78054">
        <ele>187</ele>
        <time>2022-04-03T06:02:51.000Z</time>
      </trkpt>
      <trkpt lat="49.69249" lon="4.78056">
        <ele>188</ele>
        <time>2022-04-03T06:02:52.000Z</time>
      </trkpt>
      <trkpt lat="49.69246" lon="4.78058">
        <ele>188</ele>
        <time>2022-04-03T06:02:53.000Z</time>
      </trkpt>
      <trkpt lat="49.69243" lon="4.7806">
        <ele>188</ele>
        <time>2022-04-03T06:02:54.000Z</time>
      </trkpt>
      <trkpt lat="49.6924" lon="4.78062">
        <ele>188</ele>
        <time>2022-04-03T06:02:55.000Z</time>
      </trkpt>
      <trkpt lat="49.69237" lon="4.78064">
        <ele>189</ele>
        <time>2022-04-03T06:02:56.000Z</time>
      </trkpt>
      <trkpt lat="49.69233" lon="4.78066">
        <ele>189</ele>
        <time>2022-04-03T06:02:57.000Z</time>
      </trkpt>
      <trkpt lat="49.6923" lon="4.78067">
        <ele>189</ele>
        <time>2022-04-03T06:02:58.000Z</time>
      </trkpt>
      <trkpt lat="49.69227" lon="4.78069">
        <ele>189</ele>
        <time>2022-04-03T06:02:59.000Z</time>
      </trkpt>
      <trkpt lat="49.69224" lon="4.78071">
        <ele>190</ele>
        <time>2022-04-03T06:03:00.000Z</time>
      </trkpt>
      <trkpt lat="49.69221" lon="4.78073">
        <ele>190</ele>
        <time>2022-04-03T06:03:01.000Z</time>
      </trkpt>
      <trkpt lat="49.69218" lon="4.78074">
        <ele>190</ele>
        <time>2022-04-03T06:03:02.000Z</time>
      </trkpt>
      <trkpt lat="49.69215" lon="4.78077">
        <ele>190</ele>
        <time>2022-04-03T06:03:03.000Z</time>
      </trkpt>
      <trkpt lat="49.69212" lon="4.78079">
        <ele>191</ele>
        <time>2022-04-03T06:03:04.000Z</time>
      </trkpt>
      <trkpt lat="49.69209" lon="4.7808">
        <ele>191</ele>
        <time>2022-04-03T06:03:05.000Z</time>
      </trkpt>
      <trkpt lat="49.69206" lon="4.78082">
        <ele>191</ele>
        <time>2022-04-03T06:03:06.000Z</time>
      </trkpt>
      <trkpt lat="49.69203" lon="4.78084">
        <ele>191</ele>
        <time>2022-04-03T06:03:07.000Z</time>
      </trkpt>
      <trkpt lat="49.692" lon="4.78086">
        <ele>191</ele>
        <time>2022-04-03T06:03:08.000Z</time>
      </trkpt>
      <trkpt lat="49.69197" lon="4.78088">
        <ele>191</ele>
        <time>2022-04-03T06:03:09.000Z</time>
      </trkpt>
      <trkpt lat="49.69193" lon="4.7809">
        <ele>192</ele>
        <time>2022-04-03T06:03:10.000Z</time>
      </trkpt>
      <trkpt lat="49.6919" lon="4.78091">
        <ele>192</ele>
        <time>2022-04-03T06:03:11.000Z</time>
      </trkpt>
      <trkpt lat="49.69187" lon="4.78094">
        <ele>192</ele>
        <time>2022-04-03T06:03:12.000Z</time>
      </trkpt>
      <trkpt lat="49.69184" lon="4.78095">
        <ele>192</ele>
        <time>2022-04-03T06:03:13.000Z</time>
      </trkpt>
      <trkpt lat="49.69182" lon="4.78097">
        <ele>192</ele>
        <time>2022-04-03T06:03:14.000Z</time>
      </trkpt>
      <trkpt lat="49.69179" lon="4.78098">
        <ele>193</ele>
        <time>2022-04-03T06:03:15.000Z</time>
      </trkpt>
      <trkpt lat="49.69176" lon="4.781">
        <ele>193</ele>
        <time>2022-04-03T06:03:16.000Z</time>
      </trkpt>
      <trkpt lat="49.69174" lon="4.78101">
        <ele>193</ele>
        <time>2022-04-03T06:03:17.000Z</time>
      </trkpt>
      <trkpt lat="49.69173" lon="4.78102">
        <ele>193</ele>
        <time>2022-04-03T06:03:18.000Z</time>
      </trkpt>
      <trkpt lat="49.69172" lon="4.78105">
        <ele>193</ele>
        <time>2022-04-03T06:03:19.000Z</time>
      </trkpt>
      <trkpt lat="49.69171" lon="4.78108">
        <ele>194</ele>
        <time>2022-04-03T06:03:20.000Z</time>
      </trkpt>
      <trkpt lat="49.6917" lon="4.78111">
        <ele>194</ele>
        <time>2022-04-03T06:03:21.000Z</time>
      </trkpt>
      <trkpt lat="49.69169" lon="4.78114">
        <ele>194</ele>
        <time>2022-04-03T06:03:22.000Z</time>
      </trkpt>
      <trkpt lat="49.69168" lon="4.78117">
        <ele>194</ele>
        <time>2022-04-03T06:03:23.000Z</time>
      </trkpt>
      <trkpt lat="49.69168" lon="4.78121">
        <ele>194</ele>
        <time>2022-04-03T06:03:24.000Z</time>
      </trkpt>
      <trkpt lat="49.69167" lon="4.78124">
        <ele>194</ele>
        <time>2022-04-03T06:03:25.000Z</time>
      </trkpt>
      <trkpt lat="49.69167" lon="4.78128">
        <ele>194</ele>
        <time>2022-04-03T06:03:26.000Z</time>
      </trkpt>
      <trkpt lat="49.69167" lon="4.78131">
        <ele>195</ele>
        <time>2022-04-03T06:03:27.000Z</time>
      </trkpt>
      <trkpt lat="49.69166" lon="4.78135">
        <ele>195</ele>
        <time>2022-04-03T06:03:28.000Z</time>
      </trkpt>
      <trkpt lat="49.69165" lon="4.78139">
        <ele>195</ele>
        <time>2022-04-03T06:03:29.000Z</time>
      </trkpt>
      <trkpt lat="49.69165" lon="4.78142">
        <ele>195</ele>
        <time>2022-04-03T06:03:30.000Z</time>
      </trkpt>
      <trkpt lat="49.69164" lon="4.78146">
        <ele>195</ele>
        <time>2022-04-03T06:03:31.000Z</time>
      </trkpt>
      <trkpt lat="49.69163" lon="4.78151">
        <ele>196</ele>
        <time>2022-04-03T06:03:32.000Z</time>
      </trkpt>
      <trkpt lat="49.69163" lon="4.78155">
        <ele>196</ele>
        <time>2022-04-03T06:03:33.000Z</time>
      </trkpt>
      <trkpt lat="49.69162" lon="4.7816">
        <ele>196</ele>
        <time>2022-04-03T06:03:34.000Z</time>
      </trkpt>
      <trkpt lat="49.69162" lon="4.78165">
        <ele>197</ele>
        <time>2022-04-03T06:03:35.000Z</time>
      </trkpt>
      <trkpt lat="49.69162" lon="4.7817">
        <ele>197</ele>
        <time>2022-04-03T06:03:36.000Z</time>
      </trkpt>
      <trkpt lat="49.69163" lon="4.78175">
        <ele>198</ele>
        <time>2022-04-03T06:03:37.000Z</time>
      </trkpt>
      <trkpt lat="49.69163" lon="4.7818">
        <ele>198</ele>
        <time>2022-04-03T06:03:38.000Z</time>
      </trkpt>
      <trkpt lat="49.69163" lon="4.78184">
        <ele>198</ele>
        <time>2022-04-03T06:03:39.000Z</time>
      </trkpt>
      <trkpt lat="49.69163" lon="4.78189">
        <ele>199</ele>
        <time>2022-04-03T06:03:40.000Z</time>
      </trkpt>
      <trkpt lat="49.69163" lon="4.78193">
        <ele>199</ele>
        <time>2022-04-03T06:03:41.000Z</time>
      </trkpt>
      <trkpt lat="49.69163" lon="4.78198">
        <ele>200</ele>
        <time>2022-04-03T06:03:42.000Z</time>
      </trkpt>
      <trkpt lat="49.69163" lon="4.78203">
        <ele>200</ele>
        <time>2022-04-03T06:03:43.000Z</time>
      </trkpt>
      <trkpt lat="49.69163" lon="4.78208">
        <ele>201</ele>
        <time>2022-04-03T06:03:44.000Z</time>
      </trkpt>
      <trkpt lat="49.69163" lon="4.78213">
        <ele>201</ele>
        <time>2022-04-03T06:03:45.000Z</time>
      </trkpt>
      <trkpt lat="49.69162" lon="4.78218">
        <ele>201</ele>
        <time>2022-04-03T06:03:46.000Z</time>
      </trkpt>
      <trkpt lat="49.69162" lon="4.78224">
        <ele>202</ele>
        <time>2022-04-03T06:03:47.000Z</time>
      </trkpt>
      <trkpt lat="49.69162" lon="4.78229">
        <ele>202</ele>
        <time>2022-04-03T06:03:48.000Z</time>
      </trkpt>
      <trkpt lat="49.69162" lon="4.78234">
        <ele>202</ele>
        <time>2022-04-03T06:03:49.000Z</time>
      </trkpt>
      <trkpt lat="49.69162" lon="4.78239">
        <ele>202</ele>
        <time>2022-04-03T06:03:50.000Z</time>
      </trkpt>
      <trkpt lat="49.69161" lon="4.78243">
        <ele>203</ele>
        <time>2022-04-03T06:03:51.000Z</time>
      </trkpt>
      <trkpt lat="49.69161" lon="4.78247">
        <ele>203</ele>
        <time>2022-04-03T06:03:52.000Z</time>
      </trkpt>
      <trkpt lat="49.69161" lon="4.78251">
        <ele>203</ele>
        <time>2022-04-03T06:03:53.000Z</time>
      </trkpt>
      <trkpt lat="49.69161" lon="4.78255">
        <ele>203</ele>
        <time>2022-04-03T06:03:54.000Z</time>
      </trkpt>
      <trkpt lat="49.6916" lon="4.78259">
        <ele>204</ele>
        <time>2022-04-03T06:03:55.000Z</time>
      </trkpt>
      <trkpt lat="49.6916" lon="4.78263">
        <ele>204</ele>
        <time>2022-04-03T06:03:56.000Z</time>
      </trkpt>
      <trkpt lat="49.6916" lon="4.78267">
        <ele>204</ele>
        <time>2022-04-03T06:03:57.000Z</time>
      </trkpt>
      <trkpt lat="49.6916" lon="4.78272">
        <ele>204</ele>
        <time>2022-04-03T06:03:58.000Z</time>
      </trkpt>
      <trkpt lat="49.6916" lon="4.78276">
        <ele>204</ele>
        <time>2022-04-03T06:03:59.000Z</time>
      </trkpt>
      <trkpt lat="49.6916" lon="4.78281">
        <ele>205</ele>
        <time>2022-04-03T06:04:00.000Z</time>
      </trkpt>
      <trkpt lat="49.6916" lon="4.78286">
        <ele>205</ele>
        <time>2022-04-03T06:04:01.000Z</time>
      </trkpt>
      <trkpt lat="49.6916" lon="4.7829">
        <ele>205</ele>
        <time>2022-04-03T06:04:02.000Z</time>
      </trkpt>
      <trkpt lat="49.69159" lon="4.78295">
        <ele>205</ele>
        <time>2022-04-03T06:04:03.000Z</time>
      </trkpt>
      <trkpt lat="49.69159" lon="4.783">
        <ele>205</ele>
        <time>2022-04-03T06:04:04.000Z</time>
      </trkpt>
      <trkpt lat="49.6916" lon="4.78304">
        <ele>205</ele>
        <time>2022-04-03T06:04:05.000Z</time>
      </trkpt>
      <trkpt lat="49.6916" lon="4.78309">
        <ele>205</ele>
        <time>2022-04-03T06:04:06.000Z</time>
      </trkpt>
      <trkpt lat="49.6916" lon="4.78314">
        <ele>205</ele>
        <time>2022-04-03T06:04:07.000Z</time>
      </trkpt>
      <trkpt lat="49.69161" lon="4.78319">
        <ele>205</ele>
        <time>2022-04-03T06:04:08.000Z</time>
      </trkpt>
      <trkpt lat="49.69161" lon="4.78323">
        <ele>206</ele>
        <time>2022-04-03T06:04:09.000Z</time>
      </trkpt>
      <trkpt lat="49.69161" lon="4.78328">
        <ele>206</ele>
        <time>2022-04-03T06:04:10.000Z</time>
      </trkpt>
      <trkpt lat="49.69161" lon="4.78333">
        <ele>206</ele>
        <time>2022-04-03T06:04:11.000Z</time>
      </trkpt>
      <trkpt lat="49.69162" lon="4.78338">
        <ele>207</ele>
        <time>2022-04-03T06:04:12.000Z</time>
      </trkpt>
      <trkpt lat="49.69162" lon="4.78343">
        <ele>207</ele>
        <time>2022-04-03T06:04:13.000Z</time>
      </trkpt>
      <trkpt lat="49.69163" lon="4.78348">
        <ele>207</ele>
        <time>2022-04-03T06:04:14.000Z</time>
      </trkpt>
      <trkpt lat="49.69163" lon="4.78353">
        <ele>207</ele>
        <time>2022-04-03T06:04:15.000Z</time>
      </trkpt>
      <trkpt lat="49.69164" lon="4.78358">
        <ele>208</ele>
        <time>2022-04-03T06:04:16.000Z</time>
      </trkpt>
      <trkpt lat="49.69164" lon="4.78363">
        <ele>208</ele>
        <time>2022-04-03T06:04:17.000Z</time>
      </trkpt>
      <trkpt lat="49.69165" lon="4.78367">
        <ele>208</ele>
        <time>2022-04-03T06:04:18.000Z</time>
      </trkpt>
      <trkpt lat="49.69165" lon="4.78372">
        <ele>209</ele>
        <time>2022-04-03T06:04:19.000Z</time>
      </trkpt>
      <trkpt lat="49.69165" lon="4.78376">
        <ele>209</ele>
        <time>2022-04-03T06:04:20.000Z</time>
      </trkpt>
      <trkpt lat="49.69165" lon="4.7838">
        <ele>209</ele>
        <time>2022-04-03T06:04:21.000Z</time>
      </trkpt>
      <trkpt lat="49.69165" lon="4.78384">
        <ele>209</ele>
        <time>2022-04-03T06:04:22.000Z</time>
      </trkpt>
      <trkpt lat="49.69165" lon="4.78389">
        <ele>209</ele>
        <time>2022-04-03T06:04:23.000Z</time>
      </trkpt>
      <trkpt lat="49.69165" lon="4.78393">
        <ele>210</ele>
        <time>2022-04-03T06:04:24.000Z</time>
      </trkpt>
      <trkpt lat="49.69165" lon="4.78397">
        <ele>210</ele>
        <time>2022-04-03T06:04:25.000Z</time>
      </trkpt>
      <trkpt lat="49.69166" lon="4.78402">
        <ele>210</ele>
        <time>2022-04-03T06:04:26.000Z</time>
      </trkpt>
      <trkpt lat="49.69166" lon="4.78406">
        <ele>211</ele>
        <time>2022-04-03T06:04:27.000Z</time>
      </trkpt>
      <trkpt lat="49.69166" lon="4.78411">
        <ele>211</ele>
        <time>2022-04-03T06:04:28.000Z</time>
      </trkpt>
      <trkpt lat="49.69166" lon="4.78415">
        <ele>211</ele>
        <time>2022-04-03T06:04:29.000Z</time>
      </trkpt>
      <trkpt lat="49.69167" lon="4.78419">
        <ele>212</ele>
        <time>2022-04-03T06:04:30.000Z</time>
      </trkpt>
      <trkpt lat="49.69167" lon="4.78424">
        <ele>212</ele>
        <time>2022-04-03T06:04:31.000Z</time>
      </trkpt>
      <trkpt lat="49.69167" lon="4.78428">
        <ele>212</ele>
        <time>2022-04-03T06:04:32.000Z</time>
      </trkpt>
      <trkpt lat="49.69167" lon="4.78432">
        <ele>212</ele>
        <time>2022-04-03T06:04:33.000Z</time>
      </trkpt>
      <trkpt lat="49.69167" lon="4.78437">
        <ele>213</ele>
        <time>2022-04-03T06:04:34.000Z</time>
      </trkpt>
      <trkpt lat="49.69167" lon="4.78441">
        <ele>213</ele>
        <time>2022-04-03T06:04:35.000Z</time>
      </trkpt>
      <trkpt lat="49.69168" lon="4.78446">
        <ele>213</ele>
        <time>2022-04-03T06:04:36.000Z</time>
      </trkpt>
      <trkpt lat="49.69168" lon="4.7845">
        <ele>213</ele>
        <time>2022-04-03T06:04:37.000Z</time>
      </trkpt>
      <trkpt lat="49.69168" lon="4.78454">
        <ele>214</ele>
        <time>2022-04-03T06:04:38.000Z</time>
      </trkpt>
      <trkpt lat="49.69168" lon="4.78458">
        <ele>214</ele>
        <time>2022-04-03T06:04:39.000Z</time>
      </trkpt>
      <trkpt lat="49.69168" lon="4.78463">
        <ele>214</ele>
        <time>2022-04-03T06:04:40.000Z</time>
      </trkpt>
      <trkpt lat="49.69168" lon="4.78467">
        <ele>214</ele>
        <time>2022-04-03T06:04:41.000Z</time>
      </trkpt>
      <trkpt lat="49.69168" lon="4.78472">
        <ele>214</ele>
        <time>2022-04-03T06:04:42.000Z</time>
      </trkpt>
      <trkpt lat="49.69168" lon="4.78476">
        <ele>215</ele>
        <time>2022-04-03T06:04:43.000Z</time>
      </trkpt>
      <trkpt lat="49.69168" lon="4.78481">
        <ele>215</ele>
        <time>2022-04-03T06:04:44.000Z</time>
      </trkpt>
      <trkpt lat="49.69168" lon="4.78486">
        <ele>215</ele>
        <time>2022-04-03T06:04:45.000Z</time>
      </trkpt>
      <trkpt lat="49.69168" lon="4.78491">
        <ele>215</ele>
        <time>2022-04-03T06:04:46.000Z</time>
      </trkpt>
      <trkpt lat="49.69168" lon="4.78495">
        <ele>215</ele>
        <time>2022-04-03T06:04:47.000Z</time>
      </trkpt>
      <trkpt lat="49.69168" lon="4.785">
        <ele>216</ele>
        <time>2022-04-03T06:04:48.000Z</time>
      </trkpt>
      <trkpt lat="49.69168" lon="4.78505">
        <ele>216</ele>
        <time>2022-04-03T06:04:49.000Z</time>
      </trkpt>
      <trkpt lat="49.69168" lon="4.78509">
        <ele>216</ele>
        <time>2022-04-03T06:04:50.000Z</time>
      </trkpt>
      <trkpt lat="49.69167" lon="4.78514">
        <ele>216</ele>
        <time>2022-04-03T06:04:51.000Z</time>
      </trkpt>
      <trkpt lat="49.69166" lon="4.78518">
        <ele>217</ele>
        <time>2022-04-03T06:04:52.000Z</time>
      </trkpt>
      <trkpt lat="49.69165" lon="4.78521">
        <ele>217</ele>
        <time>2022-04-03T06:04:53.000Z</time>
      </trkpt>
      <trkpt lat="49.69164" lon="4.78525">
        <ele>217</ele>
        <time>2022-04-03T06:04:54.000Z</time>
      </trkpt>
      <trkpt lat="49.69163" lon="4.78528">
        <ele>217</ele>
        <time>2022-04-03T06:04:55.000Z</time>
      </trkpt>
      <trkpt lat="49.69162" lon="4.78531">
        <ele>217</ele>
        <time>2022-04-03T06:04:56.000Z</time>
      </trkpt>
      <trkpt lat="49.69161" lon="4.78535">
        <ele>217</ele>
        <time>2022-04-03T06:04:57.000Z</time>
      </trkpt>
      <trkpt lat="49.69159" lon="4.78538">
        <ele>217</ele>
        <time>2022-04-03T06:04:58.000Z</time>
      </trkpt>
      <trkpt lat="49.69159" lon="4.78541">
        <ele>218</ele>
        <time>2022-04-03T06:04:59.000Z</time>
      </trkpt>
      <trkpt lat="49.69158" lon="4.78544">
        <ele>218</ele>
        <time>2022-04-03T06:05:00.000Z</time>
      </trkpt>
      <trkpt lat="49.69157" lon="4.78547">
        <ele>218</ele>
        <time>2022-04-03T06:05:01.000Z</time>
      </trkpt>
      <trkpt lat="49.69156" lon="4.78549">
        <ele>218</ele>
        <time>2022-04-03T06:05:02.000Z</time>
      </trkpt>
      <trkpt lat="49.69154" lon="4.78552">
        <ele>218</ele>
        <time>2022-04-03T06:05:03.000Z</time>
      </trkpt>
      <trkpt lat="49.69153" lon="4.78554">
        <ele>218</ele>
        <time>2022-04-03T06:05:04.000Z</time>
      </trkpt>
      <trkpt lat="49.69151" lon="4.78556">
        <ele>218</ele>
        <time>2022-04-03T06:05:05.000Z</time>
      </trkpt>
      <trkpt lat="49.69149" lon="4.78558">
        <ele>218</ele>
        <time>2022-04-03T06:05:06.000Z</time>
      </trkpt>
      <trkpt lat="49.69147" lon="4.78559">
        <ele>218</ele>
        <time>2022-04-03T06:05:07.000Z</time>
      </trkpt>
      <trkpt lat="49.69145" lon="4.78561">
        <ele>219</ele>
        <time>2022-04-03T06:05:08.000Z</time>
      </trkpt>
      <trkpt lat="49.69144" lon="4.78562">
        <ele>219</ele>
        <time>2022-04-03T06:05:09.000Z</time>
      </trkpt>
      <trkpt lat="49.69142" lon="4.78564">
        <ele>219</ele>
        <time>2022-04-03T06:05:10.000Z</time>
      </trkpt>
      <trkpt lat="49.6914" lon="4.78565">
        <ele>219</ele>
        <time>2022-04-03T06:05:11.000Z</time>
      </trkpt>
      <trkpt lat="49.69138" lon="4.78566">
        <ele>219</ele>
        <time>2022-04-03T06:05:12.000Z</time>
      </trkpt>
      <trkpt lat="49.69135" lon="4.78567">
        <ele>219</ele>
        <time>2022-04-03T06:05:13.000Z</time>
      </trkpt>
      <trkpt lat="49.69133" lon="4.78568">
        <ele>219</ele>
        <time>2022-04-03T06:05:14.000Z</time>
      </trkpt>
      <trkpt lat="49.69132" lon="4.78568">
        <ele>220</ele>
        <time>2022-04-03T06:05:15.000Z</time>
      </trkpt>
      <trkpt lat="49.6913" lon="4.78569">
        <ele>220</ele>
        <time>2022-04-03T06:05:16.000Z</time>
      </trkpt>
      <trkpt lat="49.69128" lon="4.7857">
        <ele>220</ele>
        <time>2022-04-03T06:05:17.000Z</time>
      </trkpt>
      <trkpt lat="49.69127" lon="4.78572">
        <ele>220</ele>
        <time>2022-04-03T06:05:18.000Z</time>
      </trkpt>
      <trkpt lat="49.69125" lon="4.78573">
        <ele>220</ele>
        <time>2022-04-03T06:05:19.000Z</time>
      </trkpt>
      <trkpt lat="49.69123" lon="4.78574">
        <ele>220</ele>
        <time>2022-04-03T06:05:20.000Z</time>
      </trkpt>
      <trkpt lat="49.69121" lon="4.78574">
        <ele>220</ele>
        <time>2022-04-03T06:05:21.000Z</time>
      </trkpt>
      <trkpt lat="49.69119" lon="4.78575">
        <ele>220</ele>
        <time>2022-04-03T06:05:22.000Z</time>
      </trkpt>
      <trkpt lat="49.69118" lon="4.78575">
        <ele>220</ele>
        <time>2022-04-03T06:05:23.000Z</time>
      </trkpt>
      <trkpt lat="49.69116" lon="4.78576">
        <ele>221</ele>
        <time>2022-04-03T06:05:24.000Z</time>
      </trkpt>
      <trkpt lat="49.69115" lon="4.78577">
        <ele>221</ele>
        <time>2022-04-03T06:05:25.000Z</time>
      </trkpt>
      <trkpt lat="49.69114" lon="4.78577">
        <ele>221</ele>
        <time>2022-04-03T06:05:26.000Z</time>
      </trkpt>
      <trkpt lat="49.69113" lon="4.78577">
        <ele>221</ele>
        <time>2022-04-03T06:05:27.000Z</time>
      </trkpt>
      <trkpt lat="49.69111" lon="4.78577">
        <ele>221</ele>
        <time>2022-04-03T06:05:28.000Z</time>
      </trkpt>
      <trkpt lat="49.69109" lon="4.78578">
        <ele>222</ele>
        <time>2022-04-03T06:05:29.000Z</time>
      </trkpt>
      <trkpt lat="49.69107" lon="4.78579">
        <ele>222</ele>
        <time>2022-04-03T06:05:30.000Z</time>
      </trkpt>
      <trkpt lat="49.69106" lon="4.7858">
        <ele>222</ele>
        <time>2022-04-03T06:05:31.000Z</time>
      </trkpt>
      <trkpt lat="49.69105" lon="4.78581">
        <ele>222</ele>
        <time>2022-04-03T06:05:32.000Z</time>
      </trkpt>
      <trkpt lat="49.69103" lon="4.78582">
        <ele>223</ele>
        <time>2022-04-03T06:05:33.000Z</time>
      </trkpt>
      <trkpt lat="49.69102" lon="4.78583">
        <ele>223</ele>
        <time>2022-04-03T06:05:34.000Z</time>
      </trkpt>
      <trkpt lat="49.691" lon="4.78584">
        <ele>223</ele>
        <time>2022-04-03T06:05:35.000Z</time>
      </trkpt>
      <trkpt lat="49.69099" lon="4.78584">
        <ele>223</ele>
        <time>2022-04-03T06:05:36.000Z</time>
      </trkpt>
      <trkpt lat="49.69097" lon="4.78585">
        <ele>224</ele>
        <time>2022-04-03T06:05:37.000Z</time>
      </trkpt>
      <trkpt lat="49.69095" lon="4.78586">
        <ele>224</ele>
        <time>2022-04-03T06:05:38.000Z</time>
      </trkpt>
      <trkpt lat="49.69093" lon="4.78586">
        <ele>224</ele>
        <time>2022-04-03T06:05:39.000Z</time>
      </trkpt>
      <trkpt lat="49.69091" lon="4.78586">
        <ele>224</ele>
        <time>2022-04-03T06:05:40.000Z</time>
      </trkpt>
      <trkpt lat="49.6909" lon="4.78586">
        <ele>225</ele>
        <time>2022-04-03T06:05:41.000Z</time>
      </trkpt>
      <trkpt lat="49.69088" lon="4.78587">
        <ele>225</ele>
        <time>2022-04-03T06:05:42.000Z</time>
      </trkpt>
      <trkpt lat="49.69086" lon="4.78587">
        <ele>225</ele>
        <time>2022-04-03T06:05:43.000Z</time>
      </trkpt>
      <trkpt lat="49.69085" lon="4.78587">
        <ele>225</ele>
        <time>2022-04-03T06:05:44.000Z</time>
      </trkpt>
      <trkpt lat="49.69083" lon="4.78587">
        <ele>226</ele>
        <time>2022-04-03T06:05:45.000Z</time>
      </trkpt>
      <trkpt lat="49.69082" lon="4.78587">
        <ele>226</ele>
        <time>2022-04-03T06:05:46.000Z</time>
      </trkpt>
      <trkpt lat="49.69081" lon="4.78588">
        <ele>226</ele>
        <time>2022-04-03T06:05:47.000Z</time>
      </trkpt>
      <trkpt lat="49.6908" lon="4.78589">
        <ele>227</ele>
        <time>2022-04-03T06:05:48.000Z</time>
      </trkpt>
      <trkpt lat="49.69078" lon="4.78589">
        <ele>227</ele>
        <time>2022-04-03T06:05:49.000Z</time>
      </trkpt>
      <trkpt lat="49.69077" lon="4.7859">
        <ele>227</ele>
        <time>2022-04-03T06:05:50.000Z</time>
      </trkpt>
      <trkpt lat="49.69075" lon="4.78591">
        <ele>228</ele>
        <time>2022-04-03T06:05:51.000Z</time>
      </trkpt>
      <trkpt lat="49.69074" lon="4.78591">
        <ele>228</ele>
        <time>2022-04-03T06:05:52.000Z</time>
      </trkpt>
      <trkpt lat="49.69072" lon="4.78592">
        <ele>228</ele>
        <time>2022-04-03T06:05:53.000Z</time>
      </trkpt>
      <trkpt lat="49.69071" lon="4.78592">
        <ele>228</ele>
        <time>2022-04-03T06:05:54.000Z</time>
      </trkpt>
      <trkpt lat="49.6907" lon="4.78593">
        <ele>229</ele>
        <time>2022-04-03T06:05:55.000Z</time>
      </trkpt>
      <trkpt lat="49.69068" lon="4.78594">
        <ele>229</ele>
        <time>2022-04-03T06:05:56.000Z</time>
      </trkpt>
      <trkpt lat="49.69067" lon="4.78595">
        <ele>229</ele>
        <time>2022-04-03T06:05:57.000Z</time>
      </trkpt>
      <trkpt lat="49.69065" lon="4.78596">
        <ele>230</ele>
        <time>2022-04-03T06:05:58.000Z</time>
      </trkpt>
      <trkpt lat="49.69064" lon="4.78596">
        <ele>230</ele>
        <time>2022-04-03T06:05:59.000Z</time>
      </trkpt>
      <trkpt lat="49.69062" lon="4.78597">
        <ele>230</ele>
        <time>2022-04-03T06:06:00.000Z</time>
      </trkpt>
      <trkpt lat="49.69061" lon="4.78597">
        <ele>231</ele>
        <time>2022-04-03T06:06:01.000Z</time>
      </trkpt>
      <trkpt lat="49.69059" lon="4.78598">
        <ele>231</ele>
        <time>2022-04-03T06:06:02.000Z</time>
      </trkpt>
      <trkpt lat="49.69058" lon="4.78598">
        <ele>231</ele>
        <time>2022-04-03T06:06:03.000Z</time>
      </trkpt>
      <trkpt lat="49.69057" lon="4.78598">
        <ele>232</ele>
        <time>2022-04-03T06:06:04.000Z</time>
      </trkpt>
      <trkpt lat="49.69055" lon="4.78598">
        <ele>232</ele>
        <time>2022-04-03T06:06:05.000Z</time>
      </trkpt>
      <trkpt lat="49.69055" lon="4.78598">
        <ele>232</ele>
        <time>2022-04-03T06:06:06.000Z</time>
      </trkpt>
      <trkpt lat="49.69055" lon="4.78599">
        <ele>232</ele>
        <time>2022-04-03T06:06:07.000Z</time>
      </trkpt>
      <trkpt lat="49.69054" lon="4.78599">
        <ele>232</ele>
        <time>2022-04-03T06:06:08.000Z</time>
      </trkpt>
      <trkpt lat="49.69054" lon="4.78599">
        <ele>233</ele>
        <time>2022-04-03T06:06:09.000Z</time>
      </trkpt>
      <trkpt lat="49.69053" lon="4.78599">
        <ele>233</ele>
        <time>2022-04-03T06:06:10.000Z</time>
      </trkpt>
      <trkpt lat="49.69052" lon="4.78599">
        <ele>233</ele>
        <time>2022-04-03T06:06:11.000Z</time>
      </trkpt>
      <trkpt lat="49.69051" lon="4.78599">
        <ele>233</ele>
        <time>2022-04-03T06:06:12.000Z</time>
      </trkpt>
      <trkpt lat="49.6905" lon="4.78599">
        <ele>233</ele>
        <time>2022-04-03T06:06:13.000Z</time>
      </trkpt>
      <trkpt lat="49.69048" lon="4.786">
        <ele>234</ele>
        <time>2022-04-03T06:06:14.000Z</time>
      </trkpt>
      <trkpt lat="49.69047" lon="4.78601">
        <ele>234</ele>
        <time>2022-04-03T06:06:15.000Z</time>
      </trkpt>
      <trkpt lat="49.69046" lon="4.78601">
        <ele>234</ele>
        <time>2022-04-03T06:06:16.000Z</time>
      </trkpt>
      <trkpt lat="49.69045" lon="4.78601">
        <ele>234</ele>
        <time>2022-04-03T06:06:17.000Z</time>
      </trkpt>
      <trkpt lat="49.69045" lon="4.78601">
        <ele>235</ele>
        <time>2022-04-03T06:06:18.000Z</time>
      </trkpt>
      <trkpt lat="49.69044" lon="4.78602">
        <ele>235</ele>
        <time>2022-04-03T06:06:19.000Z</time>
      </trkpt>
      <trkpt lat="49.69043" lon="4.78602">
        <ele>235</ele>
        <time>2022-04-03T06:06:20.000Z</time>
      </trkpt>
      <trkpt lat="49.69042" lon="4.78603">
        <ele>235</ele>
        <time>2022-04-03T06:06:21.000Z</time>
      </trkpt>
      <trkpt lat="49.69041" lon="4.78603">
        <ele>236</ele>
        <time>2022-04-03T06:06:22.000Z</time>
      </trkpt>
      <trkpt lat="49.6904" lon="4.78603">
        <ele>236</ele>
        <time>2022-04-03T06:06:23.000Z</time>
      </trkpt>
      <trkpt lat="49.69039" lon="4.78604">
        <ele>236</ele>
        <time>2022-04-03T06:06:24.000Z</time>
      </trkpt>
      <trkpt lat="49.69038" lon="4.78604">
        <ele>236</ele>
        <time>2022-04-03T06:06:25.000Z</time>
      </trkpt>
      <trkpt lat="49.69037" lon="4.78604">
        <ele>237</ele>
        <time>2022-04-03T06:06:26.000Z</time>
      </trkpt>
      <trkpt lat="49.69035" lon="4.78604">
        <ele>237</ele>
        <time>2022-04-03T06:06:27.000Z</time>
      </trkpt>
      <trkpt lat="49.69034" lon="4.78605">
        <ele>237</ele>
        <time>2022-04-03T06:06:28.000Z</time>
      </trkpt>
      <trkpt lat="49.69033" lon="4.78605">
        <ele>238</ele>
        <time>2022-04-03T06:06:29.000Z</time>
      </trkpt>
      <trkpt lat="49.69032" lon="4.78605">
        <ele>238</ele>
        <time>2022-04-03T06:06:30.000Z</time>
      </trkpt>
      <trkpt lat="49.6903" lon="4.78606">
        <ele>239</ele>
        <time>2022-04-03T06:06:31.000Z</time>
      </trkpt>
      <trkpt lat="49.69029" lon="4.78606">
        <ele>239</ele>
        <time>2022-04-03T06:06:32.000Z</time>
      </trkpt>
      <trkpt lat="49.69028" lon="4.78606">
        <ele>239</ele>
        <time>2022-04-03T06:06:33.000Z</time>
      </trkpt>
      <trkpt lat="49.69026" lon="4.78606">
        <ele>240</ele>
        <time>2022-04-03T06:06:34.000Z</time>
      </trkpt>
      <trkpt lat="49.69024" lon="4.78607">
        <ele>240</ele>
        <time>2022-04-03T06:06:35.000Z</time>
      </trkpt>
      <trkpt lat="49.69023" lon="4.78607">
        <ele>241</ele>
        <time>2022-04-03T06:06:36.000Z</time>
      </trkpt>
      <trkpt lat="49.69022" lon="4.78608">
        <ele>241</ele>
        <time>2022-04-03T06:06:37.000Z</time>
      </trkpt>
      <trkpt lat="49.6902" lon="4.78609">
        <ele>241</ele>
        <time>2022-04-03T06:06:38.000Z</time>
      </trkpt>
      <trkpt lat="49.69018" lon="4.7861">
        <ele>242</ele>
        <time>2022-04-03T06:06:39.000Z</time>
      </trkpt>
      <trkpt lat="49.69017" lon="4.7861">
        <ele>242</ele>
        <time>2022-04-03T06:06:40.000Z</time>
      </trkpt>
      <trkpt lat="49.69015" lon="4.7861">
        <ele>243</ele>
        <time>2022-04-03T06:06:41.000Z</time>
      </trkpt>
      <trkpt lat="49.69013" lon="4.78611">
        <ele>243</ele>
        <time>2022-04-03T06:06:42.000Z</time>
      </trkpt>
      <trkpt lat="49.69012" lon="4.78612">
        <ele>243</ele>
        <time>2022-04-03T06:06:43.000Z</time>
      </trkpt>
      <trkpt lat="49.6901" lon="4.78612">
        <ele>244</ele>
        <time>2022-04-03T06:06:44.000Z</time>
      </trkpt>
      <trkpt lat="49.69009" lon="4.78613">
        <ele>244</ele>
        <time>2022-04-03T06:06:45.000Z</time>
      </trkpt>
      <trkpt lat="49.69007" lon="4.78613">
        <ele>245</ele>
        <time>2022-04-03T06:06:46.000Z</time>
      </trkpt>
      <trkpt lat="49.69006" lon="4.78614">
        <ele>245</ele>
        <time>2022-04-03T06:06:47.000Z</time>
      </trkpt>
      <trkpt lat="49.69004" lon="4.78615">
        <ele>246</ele>
        <time>2022-04-03T06:06:48.000Z</time>
      </trkpt>
      <trkpt lat="49.69003" lon="4.78615">
        <ele>246</ele>
        <time>2022-04-03T06:06:49.000Z</time>
      </trkpt>
      <trkpt lat="49.69001" lon="4.78616">
        <ele>246</ele>
        <time>2022-04-03T06:06:50.000Z</time>
      </trkpt>
      <trkpt lat="49.69" lon="4.78617">
        <ele>247</ele>
        <time>2022-04-03T06:06:51.000Z</time>
      </trkpt>
      <trkpt lat="49.68999" lon="4.78618">
        <ele>247</ele>
        <time>2022-04-03T06:06:52.000Z</time>
      </trkpt>
      <trkpt lat="49.68997" lon="4.78619">
        <ele>248</ele>
        <time>2022-04-03T06:06:53.000Z</time>
      </trkpt>
      <trkpt lat="49.68996" lon="4.7862">
        <ele>248</ele>
        <time>2022-04-03T06:06:54.000Z</time>
      </trkpt>
      <trkpt lat="49.68994" lon="4.78621">
        <ele>248</ele>
        <time>2022-04-03T06:06:55.000Z</time>
      </trkpt>
      <trkpt lat="49.68993" lon="4.78621">
        <ele>249</ele>
        <time>2022-04-03T06:06:56.000Z</time>
      </trkpt>
      <trkpt lat="49.68991" lon="4.78622">
        <ele>249</ele>
        <time>2022-04-03T06:06:57.000Z</time>
      </trkpt>
      <trkpt lat="49.6899" lon="4.78623">
        <ele>249</ele>
        <time>2022-04-03T06:06:58.000Z</time>
      </trkpt>
      <trkpt lat="49.68989" lon="4.78624">
        <ele>250</ele>
        <time>2022-04-03T06:06:59.000Z</time>
      </trkpt>
      <trkpt lat="49.68987" lon="4.78625">
        <ele>250</ele>
        <time>2022-04-03T06:07:00.000Z</time>
      </trkpt>
      <trkpt lat="49.68986" lon="4.78625">
        <ele>251</ele>
        <time>2022-04-03T06:07:01.000Z</time>
      </trkpt>
      <trkpt lat="49.68985" lon="4.78625">
        <ele>251</ele>
        <time>2022-04-03T06:07:02.000Z</time>
      </trkpt>
      <trkpt lat="49.68983" lon="4.78626">
        <ele>251</ele>
        <time>2022-04-03T06:07:03.000Z</time>
      </trkpt>
      <trkpt lat="49.68982" lon="4.78626">
        <ele>252</ele>
        <time>2022-04-03T06:07:04.000Z</time>
      </trkpt>
      <trkpt lat="49.68981" lon="4.78627">
        <ele>252</ele>
        <time>2022-04-03T06:07:05.000Z</time>
      </trkpt>
      <trkpt lat="49.68979" lon="4.78628">
        <ele>253</ele>
        <time>2022-04-03T06:07:06.000Z</time>
      </trkpt>
      <trkpt lat="49.68977" lon="4.7863">
        <ele>253</ele>
        <time>2022-04-03T06:07:07.000Z</time>
      </trkpt>
      <trkpt lat="49.68975" lon="4.78631">
        <ele>254</ele>
        <time>2022-04-03T06:07:08.000Z</time>
      </trkpt>
      <trkpt lat="49.68974" lon="4.78632">
        <ele>254</ele>
        <time>2022-04-03T06:07:09.000Z</time>
      </trkpt>
      <trkpt lat="49.68972" lon="4.78633">
        <ele>254</ele>
        <time>2022-04-03T06:07:10.000Z</time>
      </trkpt>
      <trkpt lat="49.68971" lon="4.78634">
        <ele>255</ele>
        <time>2022-04-03T06:07:11.000Z</time>
      </trkpt>
      <trkpt lat="49.68969" lon="4.78635">
        <ele>255</ele>
        <time>2022-04-03T06:07:12.000Z</time>
      </trkpt>
      <trkpt lat="49.68968" lon="4.78636">
        <ele>256</ele>
        <time>2022-04-03T06:07:13.000Z</time>
      </trkpt>
      <trkpt lat="49.68966" lon="4.78637">
        <ele>256</ele>
        <time>2022-04-03T06:07:14.000Z</time>
      </trkpt>
      <trkpt lat="49.68965" lon="4.78639">
        <ele>256</ele>
        <time>2022-04-03T06:07:15.000Z</time>
      </trkpt>
      <trkpt lat="49.68963" lon="4.7864">
        <ele>257</ele>
        <time>2022-04-03T06:07:16.000Z</time>
      </trkpt>
      <trkpt lat="49.68962" lon="4.78642">
        <ele>257</ele>
        <time>2022-04-03T06:07:17.000Z</time>
      </trkpt>
      <trkpt lat="49.6896" lon="4.78643">
        <ele>258</ele>
        <time>2022-04-03T06:07:18.000Z</time>
      </trkpt>
      <trkpt lat="49.68959" lon="4.78644">
        <ele>258</ele>
        <time>2022-04-03T06:07:19.000Z</time>
      </trkpt>
      <trkpt lat="49.68958" lon="4.78645">
        <ele>258</ele>
        <time>2022-04-03T06:07:20.000Z</time>
      </trkpt>
      <trkpt lat="49.68956" lon="4.78647">
        <ele>258</ele>
        <time>2022-04-03T06:07:21.000Z</time>
      </trkpt>
      <trkpt lat="49.68955" lon="4.78648">
        <ele>259</ele>
        <time>2022-04-03T06:07:22.000Z</time>
      </trkpt>
      <trkpt lat="49.68954" lon="4.78649">
        <ele>259</ele>
        <time>2022-04-03T06:07:23.000Z</time>
      </trkpt>
      <trkpt lat="49.68953" lon="4.78651">
        <ele>259</ele>
        <time>2022-04-03T06:07:24.000Z</time>
      </trkpt>
      <trkpt lat="49.68952" lon="4.78653">
        <ele>259</ele>
        <time>2022-04-03T06:07:25.000Z</time>
      </trkpt>
      <trkpt lat="49.68951" lon="4.78654">
        <ele>259</ele>
        <time>2022-04-03T06:07:26.000Z</time>
      </trkpt>
      <trkpt lat="49.68949" lon="4.78656">
        <ele>259</ele>
        <time>2022-04-03T06:07:27.000Z</time>
      </trkpt>
      <trkpt lat="49.68948" lon="4.78658">
        <ele>259</ele>
        <time>2022-04-03T06:07:28.000Z</time>
      </trkpt>
      <trkpt lat="49.68947" lon="4.7866">
        <ele>260</ele>
        <time>2022-04-03T06:07:29.000Z</time>
      </trkpt>
      <trkpt lat="49.68946" lon="4.78662">
        <ele>260</ele>
        <time>2022-04-03T06:07:30.000Z</time>
      </trkpt>
      <trkpt lat="49.68944" lon="4.78664">
        <ele>260</ele>
        <time>2022-04-03T06:07:31.000Z</time>
      </trkpt>
      <trkpt lat="49.68943" lon="4.78666">
        <ele>260</ele>
        <time>2022-04-03T06:07:32.000Z</time>
      </trkpt>
      <trkpt lat="49.68942" lon="4.78669">
        <ele>260</ele>
        <time>2022-04-03T06:07:33.000Z</time>
      </trkpt>
      <trkpt lat="49.6894" lon="4.78671">
        <ele>260</ele>
        <time>2022-04-03T06:07:34.000Z</time>
      </trkpt>
      <trkpt lat="49.68939" lon="4.78674">
        <ele>260</ele>
        <time>2022-04-03T06:07:35.000Z</time>
      </trkpt>
      <trkpt lat="49.68937" lon="4.78677">
        <ele>260</ele>
        <time>2022-04-03T06:07:36.000Z</time>
      </trkpt>
      <trkpt lat="49.68936" lon="4.78679">
        <ele>260</ele>
        <time>2022-04-03T06:07:37.000Z</time>
      </trkpt>
      <trkpt lat="49.68935" lon="4.78682">
        <ele>260</ele>
        <time>2022-04-03T06:07:38.000Z</time>
      </trkpt>
      <trkpt lat="49.68933" lon="4.78685">
        <ele>261</ele>
        <time>2022-04-03T06:07:39.000Z</time>
      </trkpt>
      <trkpt lat="49.68931" lon="4.78687">
        <ele>261</ele>
        <time>2022-04-03T06:07:40.000Z</time>
      </trkpt>
      <trkpt lat="49.6893" lon="4.78689">
        <ele>261</ele>
        <time>2022-04-03T06:07:41.000Z</time>
      </trkpt>
      <trkpt lat="49.68928" lon="4.78692">
        <ele>261</ele>
        <time>2022-04-03T06:07:42.000Z</time>
      </trkpt>
      <trkpt lat="49.68927" lon="4.78694">
        <ele>261</ele>
        <time>2022-04-03T06:07:43.000Z</time>
      </trkpt>
      <trkpt lat="49.68925" lon="4.78697">
        <ele>261</ele>
        <time>2022-04-03T06:07:44.000Z</time>
      </trkpt>
      <trkpt lat="49.68924" lon="4.787">
        <ele>261</ele>
        <time>2022-04-03T06:07:45.000Z</time>
      </trkpt>
      <trkpt lat="49.68922" lon="4.78703">
        <ele>261</ele>
        <time>2022-04-03T06:07:46.000Z</time>
      </trkpt>
      <trkpt lat="49.6892" lon="4.78706">
        <ele>261</ele>
        <time>2022-04-03T06:07:47.000Z</time>
      </trkpt>
      <trkpt lat="49.68919" lon="4.78709">
        <ele>262</ele>
        <time>2022-04-03T06:07:48.000Z</time>
      </trkpt>
      <trkpt lat="49.68917" lon="4.78712">
        <ele>262</ele>
        <time>2022-04-03T06:07:49.000Z</time>
      </trkpt>
      <trkpt lat="49.68915" lon="4.78715">
        <ele>262</ele>
        <time>2022-04-03T06:07:50.000Z</time>
      </trkpt>
      <trkpt lat="49.68913" lon="4.78719">
        <ele>262</ele>
        <time>2022-04-03T06:07:51.000Z</time>
      </trkpt>
      <trkpt lat="49.68912" lon="4.78722">
        <ele>263</ele>
        <time>2022-04-03T06:07:52.000Z</time>
      </trkpt>
      <trkpt lat="49.6891" lon="4.78725">
        <ele>263</ele>
        <time>2022-04-03T06:07:53.000Z</time>
      </trkpt>
      <trkpt lat="49.68908" lon="4.78728">
        <ele>263</ele>
        <time>2022-04-03T06:07:54.000Z</time>
      </trkpt>
      <trkpt lat="49.68906" lon="4.78732">
        <ele>263</ele>
        <time>2022-04-03T06:07:55.000Z</time>
      </trkpt>
      <trkpt lat="49.68904" lon="4.78735">
        <ele>263</ele>
        <time>2022-04-03T06:07:56.000Z</time>
      </trkpt>
      <trkpt lat="49.68902" lon="4.78738">
        <ele>264</ele>
        <time>2022-04-03T06:07:57.000Z</time>
      </trkpt>
      <trkpt lat="49.689" lon="4.78741">
        <ele>264</ele>
        <time>2022-04-03T06:07:58.000Z</time>
      </trkpt>
      <trkpt lat="49.68898" lon="4.78745">
        <ele>264</ele>
        <time>2022-04-03T06:07:59.000Z</time>
      </trkpt>
      <trkpt lat="49.68896" lon="4.78749">
        <ele>264</ele>
        <time>2022-04-03T06:08:00.000Z</time>
      </trkpt>
      <trkpt lat="49.68894" lon="4.78752">
        <ele>265</ele>
        <time>2022-04-03T06:08:01.000Z</time>
      </trkpt>
      <trkpt lat="49.68892" lon="4.78756">
        <ele>265</ele>
        <time>2022-04-03T06:08:02.000Z</time>
      </trkpt>
      <trkpt lat="49.6889" lon="4.7876">
        <ele>265</ele>
        <time>2022-04-03T06:08:03.000Z</time>
      </trkpt>
      <trkpt lat="49.68888" lon="4.78764">
        <ele>266</ele>
        <time>2022-04-03T06:08:04.000Z</time>
      </trkpt>
      <trkpt lat="49.68886" lon="4.78768">
        <ele>266</ele>
        <time>2022-04-03T06:08:05.000Z</time>
      </trkpt>
      <trkpt lat="49.68884" lon="4.78771">
        <ele>266</ele>
        <time>2022-04-03T06:08:06.000Z</time>
      </trkpt>
      <trkpt lat="49.68882" lon="4.78775">
        <ele>266</ele>
        <time>2022-04-03T06:08:07.000Z</time>
      </trkpt>
      <trkpt lat="49.6888" lon="4.78779">
        <ele>266</ele>
        <time>2022-04-03T06:08:08.000Z</time>
      </trkpt>
      <trkpt lat="49.68878" lon="4.78783">
        <ele>266</ele>
        <time>2022-04-03T06:08:09.000Z</time>
      </trkpt>
      <trkpt lat="49.68876" lon="4.78787">
        <ele>267</ele>
        <time>2022-04-03T06:08:10.000Z</time>
      </trkpt>
      <trkpt lat="49.68874" lon="4.78791">
        <ele>267</ele>
        <time>2022-04-03T06:08:11.000Z</time>
      </trkpt>
      <trkpt lat="49.68872" lon="4.78795">
        <ele>267</ele>
        <time>2022-04-03T06:08:12.000Z</time>
      </trkpt>
      <trkpt lat="49.6887" lon="4.788">
        <ele>267</ele>
        <time>2022-04-03T06:08:13.000Z</time>
      </trkpt>
      <trkpt lat="49.68867" lon="4.78805">
        <ele>268</ele>
        <time>2022-04-03T06:08:14.000Z</time>
      </trkpt>
      <trkpt lat="49.68865" lon="4.78809">
        <ele>268</ele>
        <time>2022-04-03T06:08:15.000Z</time>
      </trkpt>
      <trkpt lat="49.68863" lon="4.78815">
        <ele>268</ele>
        <time>2022-04-03T06:08:16.000Z</time>
      </trkpt>
      <trkpt lat="49.68861" lon="4.7882">
        <ele>269</ele>
        <time>2022-04-03T06:08:17.000Z</time>
      </trkpt>
      <trkpt lat="49.68858" lon="4.78825">
        <ele>269</ele>
        <time>2022-04-03T06:08:18.000Z</time>
      </trkpt>
      <trkpt lat="49.68856" lon="4.7883">
        <ele>269</ele>
        <time>2022-04-03T06:08:19.000Z</time>
      </trkpt>
      <trkpt lat="49.68854" lon="4.78836">
        <ele>269</ele>
        <time>2022-04-03T06:08:20.000Z</time>
      </trkpt>
      <trkpt lat="49.68852" lon="4.78841">
        <ele>269</ele>
        <time>2022-04-03T06:08:21.000Z</time>
      </trkpt>
      <trkpt lat="49.6885" lon="4.78846">
        <ele>270</ele>
        <time>2022-04-03T06:08:22.000Z</time>
      </trkpt>
      <trkpt lat="49.68847" lon="4.78852">
        <ele>270</ele>
        <time>2022-04-03T06:08:23.000Z</time>
      </trkpt>
      <trkpt lat="49.68845" lon="4.78857">
        <ele>270</ele>
        <time>2022-04-03T06:08:24.000Z</time>
      </trkpt>
      <trkpt lat="49.68845" lon="4.78857">
        <ele>270</ele>
        <time>2022-04-03T06:08:25.000Z</time>
      </trkpt>
      <trkpt lat="49.6884" lon="4.78868">
        <ele>270</ele>
        <time>2022-04-03T06:08:26.000Z</time>
      </trkpt>
      <trkpt lat="49.68838" lon="4.78873">
        <ele>270</ele>
        <time>2022-04-03T06:08:27.000Z</time>
      </trkpt>
      <trkpt lat="49.68835" lon="4.78878">
        <ele>270</ele>
        <time>2022-04-03T06:08:28.000Z</time>
      </trkpt>
      <trkpt lat="49.68832" lon="4.78883">
        <ele>271</ele>
        <time>2022-04-03T06:08:29.000Z</time>
      </trkpt>
      <trkpt lat="49.6883" lon="4.78888">
        <ele>271</ele>
        <time>2022-04-03T06:08:30.000Z</time>
      </trkpt>
      <trkpt lat="49.68827" lon="4.78893">
        <ele>271</ele>
        <time>2022-04-03T06:08:31.000Z</time>
      </trkpt>
      <trkpt lat="49.68824" lon="4.78898">
        <ele>271</ele>
        <time>2022-04-03T06:08:32.000Z</time>
      </trkpt>
      <trkpt lat="49.68821" lon="4.78902">
        <ele>271</ele>
        <time>2022-04-03T06:08:33.000Z</time>
      </trkpt>
      <trkpt lat="49.68818" lon="4.78907">
        <ele>271</ele>
        <time>2022-04-03T06:08:34.000Z</time>
      </trkpt>
      <trkpt lat="49.68815" lon="4.78912">
        <ele>271</ele>
        <time>2022-04-03T06:08:35.000Z</time>
      </trkpt>
      <trkpt lat="49.68813" lon="4.78917">
        <ele>271</ele>
        <time>2022-04-03T06:08:36.000Z</time>
      </trkpt>
      <trkpt lat="49.6881" lon="4.78922">
        <ele>271</ele>
        <time>2022-04-03T06:08:37.000Z</time>
      </trkpt>
      <trkpt lat="49.68807" lon="4.78927">
        <ele>272</ele>
        <time>2022-04-03T06:08:38.000Z</time>
      </trkpt>
      <trkpt lat="49.68804" lon="4.78932">
        <ele>272</ele>
        <time>2022-04-03T06:08:39.000Z</time>
      </trkpt>
      <trkpt lat="49.68802" lon="4.78937">
        <ele>272</ele>
        <time>2022-04-03T06:08:40.000Z</time>
      </trkpt>
      <trkpt lat="49.68799" lon="4.78942">
        <ele>272</ele>
        <time>2022-04-03T06:08:41.000Z</time>
      </trkpt>
      <trkpt lat="49.68796" lon="4.78947">
        <ele>272</ele>
        <time>2022-04-03T06:08:42.000Z</time>
      </trkpt>
      <trkpt lat="49.68794" lon="4.78952">
        <ele>272</ele>
        <time>2022-04-03T06:08:43.000Z</time>
      </trkpt>
      <trkpt lat="49.68791" lon="4.78957">
        <ele>273</ele>
        <time>2022-04-03T06:08:44.000Z</time>
      </trkpt>
      <trkpt lat="49.68788" lon="4.78963">
        <ele>273</ele>
        <time>2022-04-03T06:08:45.000Z</time>
      </trkpt>
      <trkpt lat="49.68786" lon="4.78969">
        <ele>273</ele>
        <time>2022-04-03T06:08:46.000Z</time>
      </trkpt>
      <trkpt lat="49.68784" lon="4.78975">
        <ele>273</ele>
        <time>2022-04-03T06:08:47.000Z</time>
      </trkpt>
      <trkpt lat="49.68782" lon="4.78981">
        <ele>273</ele>
        <time>2022-04-03T06:08:48.000Z</time>
      </trkpt>
      <trkpt lat="49.6878" lon="4.78988">
        <ele>273</ele>
        <time>2022-04-03T06:08:49.000Z</time>
      </trkpt>
      <trkpt lat="49.68778" lon="4.78994">
        <ele>273</ele>
        <time>2022-04-03T06:08:50.000Z</time>
      </trkpt>
      <trkpt lat="49.68776" lon="4.79">
        <ele>273</ele>
        <time>2022-04-03T06:08:51.000Z</time>
      </trkpt>
      <trkpt lat="49.68773" lon="4.79006">
        <ele>273</ele>
        <time>2022-04-03T06:08:52.000Z</time>
      </trkpt>
      <trkpt lat="49.68771" lon="4.79013">
        <ele>273</ele>
        <time>2022-04-03T06:08:53.000Z</time>
      </trkpt>
      <trkpt lat="49.68768" lon="4.79019">
        <ele>273</ele>
        <time>2022-04-03T06:08:54.000Z</time>
      </trkpt>
      <trkpt lat="49.68766" lon="4.79027">
        <ele>272</ele>
        <time>2022-04-03T06:08:55.000Z</time>
      </trkpt>
      <trkpt lat="49.68764" lon="4.79034">
        <ele>272</ele>
        <time>2022-04-03T06:08:56.000Z</time>
      </trkpt>
      <trkpt lat="49.68763" lon="4.79042">
        <ele>272</ele>
        <time>2022-04-03T06:08:57.000Z</time>
      </trkpt>
      <trkpt lat="49.68761" lon="4.7905">
        <ele>272</ele>
        <time>2022-04-03T06:08:58.000Z</time>
      </trkpt>
      <trkpt lat="49.68759" lon="4.79058">
        <ele>272</ele>
        <time>2022-04-03T06:08:59.000Z</time>
      </trkpt>
      <trkpt lat="49.68757" lon="4.79067">
        <ele>271</ele>
        <time>2022-04-03T06:09:00.000Z</time>
      </trkpt>
      <trkpt lat="49.68754" lon="4.79075">
        <ele>271</ele>
        <time>2022-04-03T06:09:01.000Z</time>
      </trkpt>
      <trkpt lat="49.68752" lon="4.79083">
        <ele>271</ele>
        <time>2022-04-03T06:09:02.000Z</time>
      </trkpt>
      <trkpt lat="49.6875" lon="4.79091">
        <ele>271</ele>
        <time>2022-04-03T06:09:03.000Z</time>
      </trkpt>
      <trkpt lat="49.68747" lon="4.79099">
        <ele>271</ele>
        <time>2022-04-03T06:09:04.000Z</time>
      </trkpt>
      <trkpt lat="49.68745" lon="4.79106">
        <ele>271</ele>
        <time>2022-04-03T06:09:05.000Z</time>
      </trkpt>
      <trkpt lat="49.68743" lon="4.79114">
        <ele>271</ele>
        <time>2022-04-03T06:09:06.000Z</time>
      </trkpt>
      <trkpt lat="49.6874" lon="4.79121">
        <ele>271</ele>
        <time>2022-04-03T06:09:07.000Z</time>
      </trkpt>
      <trkpt lat="49.68738" lon="4.79127">
        <ele>271</ele>
        <time>2022-04-03T06:09:08.000Z</time>
      </trkpt>
      <trkpt lat="49.68736" lon="4.79134">
        <ele>271</ele>
        <time>2022-04-03T06:09:09.000Z</time>
      </trkpt>
      <trkpt lat="49.68734" lon="4.79139">
        <ele>271</ele>
        <time>2022-04-03T06:09:10.000Z</time>
      </trkpt>
      <trkpt lat="49.68732" lon="4.79143">
        <ele>271</ele>
        <time>2022-04-03T06:09:11.000Z</time>
      </trkpt>
      <trkpt lat="49.6873" lon="4.79146">
        <ele>272</ele>
        <time>2022-04-03T06:09:12.000Z</time>
      </trkpt>
      <trkpt lat="49.68728" lon="4.79146">
        <ele>272</ele>
        <time>2022-04-03T06:09:13.000Z</time>
      </trkpt>
      <trkpt lat="49.68727" lon="4.79142">
        <ele>272</ele>
        <time>2022-04-03T06:09:14.000Z</time>
      </trkpt>
      <trkpt lat="49.68725" lon="4.79139">
        <ele>272</ele>
        <time>2022-04-03T06:09:15.000Z</time>
      </trkpt>
      <trkpt lat="49.68724" lon="4.79134">
        <ele>272</ele>
        <time>2022-04-03T06:09:16.000Z</time>
      </trkpt>
      <trkpt lat="49.68722" lon="4.79129">
        <ele>272</ele>
        <time>2022-04-03T06:09:17.000Z</time>
      </trkpt>
      <trkpt lat="49.6872" lon="4.79123">
        <ele>273</ele>
        <time>2022-04-03T06:09:18.000Z</time>
      </trkpt>
      <trkpt lat="49.68718" lon="4.79119">
        <ele>273</ele>
        <time>2022-04-03T06:09:19.000Z</time>
      </trkpt>
      <trkpt lat="49.68716" lon="4.79114">
        <ele>273</ele>
        <time>2022-04-03T06:09:20.000Z</time>
      </trkpt>
      <trkpt lat="49.68713" lon="4.7911">
        <ele>273</ele>
        <time>2022-04-03T06:09:21.000Z</time>
      </trkpt>
      <trkpt lat="49.68711" lon="4.79107">
        <ele>273</ele>
        <time>2022-04-03T06:09:22.000Z</time>
      </trkpt>
      <trkpt lat="49.68708" lon="4.79103">
        <ele>273</ele>
        <time>2022-04-03T06:09:23.000Z</time>
      </trkpt>
      <trkpt lat="49.68705" lon="4.791">
        <ele>273</ele>
        <time>2022-04-03T06:09:24.000Z</time>
      </trkpt>
      <trkpt lat="49.68702" lon="4.79098">
        <ele>273</ele>
        <time>2022-04-03T06:09:25.000Z</time>
      </trkpt>
      <trkpt lat="49.68698" lon="4.79095">
        <ele>273</ele>
        <time>2022-04-03T06:09:26.000Z</time>
      </trkpt>
      <trkpt lat="49.68694" lon="4.79093">
        <ele>273</ele>
        <time>2022-04-03T06:09:27.000Z</time>
      </trkpt>
      <trkpt lat="49.6869" lon="4.7909">
        <ele>273</ele>
        <time>2022-04-03T06:09:28.000Z</time>
      </trkpt>
      <trkpt lat="49.68686" lon="4.79088">
        <ele>273</ele>
        <time>2022-04-03T06:09:29.000Z</time>
      </trkpt>
      <trkpt lat="49.68682" lon="4.79086">
        <ele>273</ele>
        <time>2022-04-03T06:09:30.000Z</time>
      </trkpt>
      <trkpt lat="49.68678" lon="4.79083">
        <ele>273</ele>
        <time>2022-04-03T06:09:31.000Z</time>
      </trkpt>
      <trkpt lat="49.68673" lon="4.79081">
        <ele>273</ele>
        <time>2022-04-03T06:09:32.000Z</time>
      </trkpt>
      <trkpt lat="49.68669" lon="4.79079">
        <ele>273</ele>
        <time>2022-04-03T06:09:33.000Z</time>
      </trkpt>
      <trkpt lat="49.68664" lon="4.79077">
        <ele>273</ele>
        <time>2022-04-03T06:09:34.000Z</time>
      </trkpt>
      <trkpt lat="49.68659" lon="4.79075">
        <ele>273</ele>
        <time>2022-04-03T06:09:35.000Z</time>
      </trkpt>
      <trkpt lat="49.68654" lon="4.79073">
        <ele>273</ele>
        <time>2022-04-03T06:09:36.000Z</time>
      </trkpt>
      <trkpt lat="49.68649" lon="4.7907">
        <ele>273</ele>
        <time>2022-04-03T06:09:37.000Z</time>
      </trkpt>
      <trkpt lat="49.68644" lon="4.79068">
        <ele>273</ele>
        <time>2022-04-03T06:09:38.000Z</time>
      </trkpt>
      <trkpt lat="49.68639" lon="4.79065">
        <ele>273</ele>
        <time>2022-04-03T06:09:39.000Z</time>
      </trkpt>
      <trkpt lat="49.68634" lon="4.79062">
        <ele>273</ele>
        <time>2022-04-03T06:09:40.000Z</time>
      </trkpt>
      <trkpt lat="49.6863" lon="4.79059">
        <ele>273</ele>
        <time>2022-04-03T06:09:41.000Z</time>
      </trkpt>
      <trkpt lat="49.68625" lon="4.79056">
        <ele>273</ele>
        <time>2022-04-03T06:09:42.000Z</time>
      </trkpt>
      <trkpt lat="49.6862" lon="4.79053">
        <ele>274</ele>
        <time>2022-04-03T06:09:43.000Z</time>
      </trkpt>
      <trkpt lat="49.68616" lon="4.7905">
        <ele>274</ele>
        <time>2022-04-03T06:09:44.000Z</time>
      </trkpt>
      <trkpt lat="49.68611" lon="4.79047">
        <ele>274</ele>
        <time>2022-04-03T06:09:45.000Z</time>
      </trkpt>
      <trkpt lat="49.68606" lon="4.79044">
        <ele>274</ele>
        <time>2022-04-03T06:09:46.000Z</time>
      </trkpt>
      <trkpt lat="49.68601" lon="4.79042">
        <ele>274</ele>
        <time>2022-04-03T06:09:47.000Z</time>
      </trkpt>
      <trkpt lat="49.68597" lon="4.7904">
        <ele>274</ele>
        <time>2022-04-03T06:09:48.000Z</time>
      </trkpt>
      <trkpt lat="49.68592" lon="4.79037">
        <ele>274</ele>
        <time>2022-04-03T06:09:49.000Z</time>
      </trkpt>
      <trkpt lat="49.68587" lon="4.79034">
        <ele>274</ele>
        <time>2022-04-03T06:09:50.000Z</time>
      </trkpt>
      <trkpt lat="49.68581" lon="4.79032">
        <ele>274</ele>
        <time>2022-04-03T06:09:51.000Z</time>
      </trkpt>
      <trkpt lat="49.68576" lon="4.79029">
        <ele>274</ele>
        <time>2022-04-03T06:09:52.000Z</time>
      </trkpt>
      <trkpt lat="49.68571" lon="4.79026">
        <ele>274</ele>
        <time>2022-04-03T06:09:53.000Z</time>
      </trkpt>
      <trkpt lat="49.68565" lon="4.79024">
        <ele>274</ele>
        <time>2022-04-03T06:09:54.000Z</time>
      </trkpt>
      <trkpt lat="49.6856" lon="4.79021">
        <ele>274</ele>
        <time>2022-04-03T06:09:55.000Z</time>
      </trkpt>
      <trkpt lat="49.68555" lon="4.79019">
        <ele>274</ele>
        <time>2022-04-03T06:09:56.000Z</time>
      </trkpt>
      <trkpt lat="49.68549" lon="4.79017">
        <ele>274</ele>
        <time>2022-04-03T06:09:57.000Z</time>
      </trkpt>
      <trkpt lat="49.68544" lon="4.79014">
        <ele>274</ele>
        <time>2022-04-03T06:09:58.000Z</time>
      </trkpt>
      <trkpt lat="49.68539" lon="4.79012">
        <ele>273</ele>
        <time>2022-04-03T06:09:59.000Z</time>
      </trkpt>
      <trkpt lat="49.68534" lon="4.7901">
        <ele>273</ele>
        <time>2022-04-03T06:10:00.000Z</time>
      </trkpt>
      <trkpt lat="49.68528" lon="4.79007">
        <ele>273</ele>
        <time>2022-04-03T06:10:01.000Z</time>
      </trkpt>
      <trkpt lat="49.68523" lon="4.79004">
        <ele>273</ele>
        <time>2022-04-03T06:10:02.000Z</time>
      </trkpt>
      <trkpt lat="49.68517" lon="4.79001">
        <ele>273</ele>
        <time>2022-04-03T06:10:03.000Z</time>
      </trkpt>
      <trkpt lat="49.68511" lon="4.78999">
        <ele>273</ele>
        <time>2022-04-03T06:10:04.000Z</time>
      </trkpt>
      <trkpt lat="49.68506" lon="4.78996">
        <ele>273</ele>
        <time>2022-04-03T06:10:05.000Z</time>
      </trkpt>
      <trkpt lat="49.685" lon="4.78993">
        <ele>273</ele>
        <time>2022-04-03T06:10:06.000Z</time>
      </trkpt>
      <trkpt lat="49.68494" lon="4.78991">
        <ele>273</ele>
        <time>2022-04-03T06:10:07.000Z</time>
      </trkpt>
      <trkpt lat="49.68488" lon="4.78988">
        <ele>273</ele>
        <time>2022-04-03T06:10:08.000Z</time>
      </trkpt>
      <trkpt lat="49.68482" lon="4.78985">
        <ele>273</ele>
        <time>2022-04-03T06:10:09.000Z</time>
      </trkpt>
      <trkpt lat="49.68475" lon="4.78982">
        <ele>273</ele>
        <time>2022-04-03T06:10:10.000Z</time>
      </trkpt>
      <trkpt lat="49.68469" lon="4.78979">
        <ele>273</ele>
        <time>2022-04-03T06:10:11.000Z</time>
      </trkpt>
      <trkpt lat="49.68463" lon="4.78977">
        <ele>273</ele>
        <time>2022-04-03T06:10:12.000Z</time>
      </trkpt>
      <trkpt lat="49.68457" lon="4.78974">
        <ele>273</ele>
        <time>2022-04-03T06:10:13.000Z</time>
      </trkpt>
      <trkpt lat="49.68457" lon="4.78974">
        <ele>273</ele>
        <time>2022-04-03T06:10:14.000Z</time>
      </trkpt>
      <trkpt lat="49.68446" lon="4.78969">
        <ele>273</ele>
        <time>2022-04-03T06:10:15.000Z</time>
      </trkpt>
      <trkpt lat="49.68441" lon="4.78966">
        <ele>272</ele>
        <time>2022-04-03T06:10:16.000Z</time>
      </trkpt>
      <trkpt lat="49.68435" lon="4.78963">
        <ele>272</ele>
        <time>2022-04-03T06:10:17.000Z</time>
      </trkpt>
      <trkpt lat="49.68429" lon="4.7896">
        <ele>272</ele>
        <time>2022-04-03T06:10:18.000Z</time>
      </trkpt>
      <trkpt lat="49.68424" lon="4.78957">
        <ele>272</ele>
        <time>2022-04-03T06:10:19.000Z</time>
      </trkpt>
      <trkpt lat="49.68418" lon="4.78954">
        <ele>272</ele>
        <time>2022-04-03T06:10:20.000Z</time>
      </trkpt>
      <trkpt lat="49.68412" lon="4.7895">
        <ele>272</ele>
        <time>2022-04-03T06:10:21.000Z</time>
      </trkpt>
      <trkpt lat="49.68406" lon="4.78947">
        <ele>272</ele>
        <time>2022-04-03T06:10:22.000Z</time>
      </trkpt>
      <trkpt lat="49.684" lon="4.78944">
        <ele>272</ele>
        <time>2022-04-03T06:10:23.000Z</time>
      </trkpt>
      <trkpt lat="49.68394" lon="4.78941">
        <ele>272</ele>
        <time>2022-04-03T06:10:24.000Z</time>
      </trkpt>
      <trkpt lat="49.68388" lon="4.78938">
        <ele>272</ele>
        <time>2022-04-03T06:10:25.000Z</time>
      </trkpt>
      <trkpt lat="49.68382" lon="4.78934">
        <ele>271</ele>
        <time>2022-04-03T06:10:26.000Z</time>
      </trkpt>
      <trkpt lat="49.68376" lon="4.7893">
        <ele>271</ele>
        <time>2022-04-03T06:10:27.000Z</time>
      </trkpt>
      <trkpt lat="49.68371" lon="4.78925">
        <ele>271</ele>
        <time>2022-04-03T06:10:28.000Z</time>
      </trkpt>
      <trkpt lat="49.68366" lon="4.7892">
        <ele>271</ele>
        <time>2022-04-03T06:10:29.000Z</time>
      </trkpt>
      <trkpt lat="49.68361" lon="4.78914">
        <ele>271</ele>
        <time>2022-04-03T06:10:30.000Z</time>
      </trkpt>
      <trkpt lat="49.68357" lon="4.78907">
        <ele>271</ele>
        <time>2022-04-03T06:10:31.000Z</time>
      </trkpt>
      <trkpt lat="49.68353" lon="4.789">
        <ele>270</ele>
        <time>2022-04-03T06:10:32.000Z</time>
      </trkpt>
      <trkpt lat="49.68349" lon="4.78893">
        <ele>270</ele>
        <time>2022-04-03T06:10:33.000Z</time>
      </trkpt>
      <trkpt lat="49.68345" lon="4.78885">
        <ele>270</ele>
        <time>2022-04-03T06:10:34.000Z</time>
      </trkpt>
      <trkpt lat="49.6834" lon="4.78877">
        <ele>269</ele>
        <time>2022-04-03T06:10:35.000Z</time>
      </trkpt>
      <trkpt lat="49.68336" lon="4.7887">
        <ele>269</ele>
        <time>2022-04-03T06:10:36.000Z</time>
      </trkpt>
      <trkpt lat="49.68331" lon="4.78862">
        <ele>269</ele>
        <time>2022-04-03T06:10:37.000Z</time>
      </trkpt>
      <trkpt lat="49.68326" lon="4.78854">
        <ele>268</ele>
        <time>2022-04-03T06:10:38.000Z</time>
      </trkpt>
      <trkpt lat="49.6832" lon="4.78846">
        <ele>268</ele>
        <time>2022-04-03T06:10:39.000Z</time>
      </trkpt>
      <trkpt lat="49.68315" lon="4.78839">
        <ele>268</ele>
        <time>2022-04-03T06:10:40.000Z</time>
      </trkpt>
      <trkpt lat="49.68309" lon="4.78832">
        <ele>268</ele>
        <time>2022-04-03T06:10:41.000Z</time>
      </trkpt>
      <trkpt lat="49.68303" lon="4.78826">
        <ele>267</ele>
        <time>2022-04-03T06:10:42.000Z</time>
      </trkpt>
      <trkpt lat="49.68296" lon="4.7882">
        <ele>267</ele>
        <time>2022-04-03T06:10:43.000Z</time>
      </trkpt>
      <trkpt lat="49.68289" lon="4.78814">
        <ele>267</ele>
        <time>2022-04-03T06:10:44.000Z</time>
      </trkpt>
      <trkpt lat="49.68282" lon="4.7881">
        <ele>267</ele>
        <time>2022-04-03T06:10:45.000Z</time>
      </trkpt>
      <trkpt lat="49.68275" lon="4.78804">
        <ele>266</ele>
        <time>2022-04-03T06:10:46.000Z</time>
      </trkpt>
      <trkpt lat="49.68269" lon="4.78797">
        <ele>266</ele>
        <time>2022-04-03T06:10:47.000Z</time>
      </trkpt>
      <trkpt lat="49.68263" lon="4.78791">
        <ele>266</ele>
        <time>2022-04-03T06:10:48.000Z</time>
      </trkpt>
      <trkpt lat="49.68258" lon="4.78787">
        <ele>265</ele>
        <time>2022-04-03T06:10:49.000Z</time>
      </trkpt>
      <trkpt lat="49.68253" lon="4.78785">
        <ele>265</ele>
        <time>2022-04-03T06:10:50.000Z</time>
      </trkpt>
      <trkpt lat="49.68248" lon="4.78785">
        <ele>265</ele>
        <time>2022-04-03T06:10:51.000Z</time>
      </trkpt>
      <trkpt lat="49.68244" lon="4.78784">
        <ele>265</ele>
        <time>2022-04-03T06:10:52.000Z</time>
      </trkpt>
      <trkpt lat="49.6824" lon="4.78782">
        <ele>264</ele>
        <time>2022-04-03T06:10:53.000Z</time>
      </trkpt>
      <trkpt lat="49.68236" lon="4.7878">
        <ele>264</ele>
        <time>2022-04-03T06:10:54.000Z</time>
      </trkpt>
      <trkpt lat="49.68232" lon="4.78778">
        <ele>264</ele>
        <time>2022-04-03T06:10:55.000Z</time>
      </trkpt>
      <trkpt lat="49.68227" lon="4.78777">
        <ele>264</ele>
        <time>2022-04-03T06:10:56.000Z</time>
      </trkpt>
      <trkpt lat="49.68222" lon="4.78774">
        <ele>264</ele>
        <time>2022-04-03T06:10:57.000Z</time>
      </trkpt>
      <trkpt lat="49.68217" lon="4.78771">
        <ele>264</ele>
        <time>2022-04-03T06:10:58.000Z</time>
      </trkpt>
      <trkpt lat="49.68212" lon="4.78768">
        <ele>264</ele>
        <time>2022-04-03T06:10:59.000Z</time>
      </trkpt>
      <trkpt lat="49.68207" lon="4.78764">
        <ele>263</ele>
        <time>2022-04-03T06:11:00.000Z</time>
      </trkpt>
      <trkpt lat="49.68201" lon="4.78761">
        <ele>263</ele>
        <time>2022-04-03T06:11:01.000Z</time>
      </trkpt>
      <trkpt lat="49.68196" lon="4.78759">
        <ele>263</ele>
        <time>2022-04-03T06:11:02.000Z</time>
      </trkpt>
      <trkpt lat="49.68191" lon="4.78757">
        <ele>263</ele>
        <time>2022-04-03T06:11:03.000Z</time>
      </trkpt>
      <trkpt lat="49.68186" lon="4.78753">
        <ele>263</ele>
        <time>2022-04-03T06:11:04.000Z</time>
      </trkpt>
      <trkpt lat="49.68181" lon="4.78749">
        <ele>263</ele>
        <time>2022-04-03T06:11:05.000Z</time>
      </trkpt>
      <trkpt lat="49.68177" lon="4.78743">
        <ele>264</ele>
        <time>2022-04-03T06:11:06.000Z</time>
      </trkpt>
      <trkpt lat="49.68173" lon="4.78738">
        <ele>264</ele>
        <time>2022-04-03T06:11:07.000Z</time>
      </trkpt>
      <trkpt lat="49.6817" lon="4.78733">
        <ele>264</ele>
        <time>2022-04-03T06:11:08.000Z</time>
      </trkpt>
      <trkpt lat="49.68167" lon="4.78727">
        <ele>264</ele>
        <time>2022-04-03T06:11:09.000Z</time>
      </trkpt>
      <trkpt lat="49.68164" lon="4.78721">
        <ele>264</ele>
        <time>2022-04-03T06:11:10.000Z</time>
      </trkpt>
      <trkpt lat="49.68161" lon="4.78715">
        <ele>264</ele>
        <time>2022-04-03T06:11:11.000Z</time>
      </trkpt>
      <trkpt lat="49.68157" lon="4.78709">
        <ele>263</ele>
        <time>2022-04-03T06:11:12.000Z</time>
      </trkpt>
      <trkpt lat="49.68154" lon="4.78703">
        <ele>263</ele>
        <time>2022-04-03T06:11:13.000Z</time>
      </trkpt>
      <trkpt lat="49.68151" lon="4.78696">
        <ele>263</ele>
        <time>2022-04-03T06:11:14.000Z</time>
      </trkpt>
      <trkpt lat="49.68148" lon="4.7869">
        <ele>263</ele>
        <time>2022-04-03T06:11:15.000Z</time>
      </trkpt>
      <trkpt lat="49.68145" lon="4.78683">
        <ele>263</ele>
        <time>2022-04-03T06:11:16.000Z</time>
      </trkpt>
      <trkpt lat="49.68142" lon="4.78677">
        <ele>263</ele>
        <time>2022-04-03T06:11:17.000Z</time>
      </trkpt>
      <trkpt lat="49.6814" lon="4.7867">
        <ele>262</ele>
        <time>2022-04-03T06:11:18.000Z</time>
      </trkpt>
      <trkpt lat="49.68137" lon="4.78663">
        <ele>262</ele>
        <time>2022-04-03T06:11:19.000Z</time>
      </trkpt>
      <trkpt lat="49.68134" lon="4.78655">
        <ele>262</ele>
        <time>2022-04-03T06:11:20.000Z</time>
      </trkpt>
      <trkpt lat="49.68131" lon="4.78648">
        <ele>262</ele>
        <time>2022-04-03T06:11:21.000Z</time>
      </trkpt>
      <trkpt lat="49.68128" lon="4.7864">
        <ele>262</ele>
        <time>2022-04-03T06:11:22.000Z</time>
      </trkpt>
      <trkpt lat="49.68125" lon="4.78633">
        <ele>262</ele>
        <time>2022-04-03T06:11:23.000Z</time>
      </trkpt>
      <trkpt lat="49.68122" lon="4.78625">
        <ele>262</ele>
        <time>2022-04-03T06:11:24.000Z</time>
      </trkpt>
      <trkpt lat="49.68122" lon="4.78625">
        <ele>262</ele>
        <time>2022-04-03T06:11:25.000Z</time>
      </trkpt>
      <trkpt lat="49.68115" lon="4.78609">
        <ele>261</ele>
        <time>2022-04-03T06:11:26.000Z</time>
      </trkpt>
      <trkpt lat="49.68111" lon="4.78601">
        <ele>261</ele>
        <time>2022-04-03T06:11:27.000Z</time>
      </trkpt>
      <trkpt lat="49.68108" lon="4.78592">
        <ele>260</ele>
        <time>2022-04-03T06:11:28.000Z</time>
      </trkpt>
      <trkpt lat="49.68104" lon="4.78584">
        <ele>260</ele>
        <time>2022-04-03T06:11:29.000Z</time>
      </trkpt>
      <trkpt lat="49.68101" lon="4.78576">
        <ele>260</ele>
        <time>2022-04-03T06:11:30.000Z</time>
      </trkpt>
      <trkpt lat="49.68101" lon="4.78576">
        <ele>260</ele>
        <time>2022-04-03T06:11:31.000Z</time>
      </trkpt>
      <trkpt lat="49.68097" lon="4.78568">
        <ele>259</ele>
        <time>2022-04-03T06:11:32.000Z</time>
      </trkpt>
      <trkpt lat="49.6809" lon="4.78551">
        <ele>259</ele>
        <time>2022-04-03T06:11:33.000Z</time>
      </trkpt>
      <trkpt lat="49.6809" lon="4.78551">
        <ele>259</ele>
        <time>2022-04-03T06:11:34.000Z</time>
      </trkpt>
      <trkpt lat="49.68086" lon="4.78543">
        <ele>258</ele>
        <time>2022-04-03T06:11:35.000Z</time>
      </trkpt>
      <trkpt lat="49.68078" lon="4.78528">
        <ele>258</ele>
        <time>2022-04-03T06:11:36.000Z</time>
      </trkpt>
      <trkpt lat="49.68078" lon="4.78528">
        <ele>258</ele>
        <time>2022-04-03T06:11:37.000Z</time>
      </trkpt>
      <trkpt lat="49.68074" lon="4.78521">
        <ele>258</ele>
        <time>2022-04-03T06:11:38.000Z</time>
      </trkpt>
      <trkpt lat="49.6807" lon="4.78514">
        <ele>257</ele>
        <time>2022-04-03T06:11:39.000Z</time>
      </trkpt>
      <trkpt lat="49.68063" lon="4.78499">
        <ele>257</ele>
        <time>2022-04-03T06:11:40.000Z</time>
      </trkpt>
      <trkpt lat="49.68063" lon="4.78499">
        <ele>257</ele>
        <time>2022-04-03T06:11:41.000Z</time>
      </trkpt>
      <trkpt lat="49.68055" lon="4.78485">
        <ele>257</ele>
        <time>2022-04-03T06:11:42.000Z</time>
      </trkpt>
      <trkpt lat="49.68055" lon="4.78485">
        <ele>257</ele>
        <time>2022-04-03T06:11:43.000Z</time>
      </trkpt>
      <trkpt lat="49.6805" lon="4.78479">
        <ele>256</ele>
        <time>2022-04-03T06:11:44.000Z</time>
      </trkpt>
      <trkpt lat="49.68045" lon="4.78472">
        <ele>256</ele>
        <time>2022-04-03T06:11:45.000Z</time>
      </trkpt>
      <trkpt lat="49.68041" lon="4.78465">
        <ele>256</ele>
        <time>2022-04-03T06:11:46.000Z</time>
      </trkpt>
      <trkpt lat="49.68036" lon="4.78458">
        <ele>256</ele>
        <time>2022-04-03T06:11:47.000Z</time>
      </trkpt>
      <trkpt lat="49.68028" lon="4.78443">
        <ele>255</ele>
        <time>2022-04-03T06:11:48.000Z</time>
      </trkpt>
      <trkpt lat="49.68028" lon="4.78443">
        <ele>255</ele>
        <time>2022-04-03T06:11:49.000Z</time>
      </trkpt>
      <trkpt lat="49.68019" lon="4.78429">
        <ele>255</ele>
        <time>2022-04-03T06:11:50.000Z</time>
      </trkpt>
      <trkpt lat="49.68015" lon="4.78423">
        <ele>255</ele>
        <time>2022-04-03T06:11:51.000Z</time>
      </trkpt>
      <trkpt lat="49.68011" lon="4.78418">
        <ele>255</ele>
        <time>2022-04-03T06:11:52.000Z</time>
      </trkpt>
      <trkpt lat="49.68007" lon="4.78411">
        <ele>255</ele>
        <time>2022-04-03T06:11:53.000Z</time>
      </trkpt>
      <trkpt lat="49.68003" lon="4.78404">
        <ele>255</ele>
        <time>2022-04-03T06:11:54.000Z</time>
      </trkpt>
      <trkpt lat="49.67999" lon="4.78397">
        <ele>255</ele>
        <time>2022-04-03T06:11:55.000Z</time>
      </trkpt>
      <trkpt lat="49.67995" lon="4.7839">
        <ele>255</ele>
        <time>2022-04-03T06:11:56.000Z</time>
      </trkpt>
      <trkpt lat="49.67991" lon="4.78383">
        <ele>255</ele>
        <time>2022-04-03T06:11:57.000Z</time>
      </trkpt>
      <trkpt lat="49.67986" lon="4.78376">
        <ele>255</ele>
        <time>2022-04-03T06:11:58.000Z</time>
      </trkpt>
      <trkpt lat="49.67983" lon="4.78367">
        <ele>254</ele>
        <time>2022-04-03T06:11:59.000Z</time>
      </trkpt>
      <trkpt lat="49.67983" lon="4.78367">
        <ele>254</ele>
        <time>2022-04-03T06:12:00.000Z</time>
      </trkpt>
      <trkpt lat="49.67979" lon="4.78346">
        <ele>254</ele>
        <time>2022-04-03T06:12:01.000Z</time>
      </trkpt>
      <trkpt lat="49.67978" lon="4.78336">
        <ele>254</ele>
        <time>2022-04-03T06:12:02.000Z</time>
      </trkpt>
      <trkpt lat="49.67976" lon="4.78326">
        <ele>254</ele>
        <time>2022-04-03T06:12:03.000Z</time>
      </trkpt>
      <trkpt lat="49.67976" lon="4.78315">
        <ele>253</ele>
        <time>2022-04-03T06:12:04.000Z</time>
      </trkpt>
      <trkpt lat="49.67974" lon="4.78303">
        <ele>253</ele>
        <time>2022-04-03T06:12:05.000Z</time>
      </trkpt>
      <trkpt lat="49.67973" lon="4.78292">
        <ele>253</ele>
        <time>2022-04-03T06:12:06.000Z</time>
      </trkpt>
      <trkpt lat="49.67971" lon="4.78281">
        <ele>253</ele>
        <time>2022-04-03T06:12:07.000Z</time>
      </trkpt>
      <trkpt lat="49.67968" lon="4.7827">
        <ele>252</ele>
        <time>2022-04-03T06:12:08.000Z</time>
      </trkpt>
      <trkpt lat="49.67964" lon="4.7826">
        <ele>252</ele>
        <time>2022-04-03T06:12:09.000Z</time>
      </trkpt>
      <trkpt lat="49.67959" lon="4.7825">
        <ele>252</ele>
        <time>2022-04-03T06:12:10.000Z</time>
      </trkpt>
      <trkpt lat="49.67954" lon="4.78242">
        <ele>252</ele>
        <time>2022-04-03T06:12:11.000Z</time>
      </trkpt>
      <trkpt lat="49.67948" lon="4.78235">
        <ele>251</ele>
        <time>2022-04-03T06:12:12.000Z</time>
      </trkpt>
      <trkpt lat="49.67941" lon="4.78228">
        <ele>251</ele>
        <time>2022-04-03T06:12:13.000Z</time>
      </trkpt>
      <trkpt lat="49.67935" lon="4.78222">
        <ele>251</ele>
        <time>2022-04-03T06:12:14.000Z</time>
      </trkpt>
      <trkpt lat="49.67928" lon="4.78216">
        <ele>251</ele>
        <time>2022-04-03T06:12:15.000Z</time>
      </trkpt>
      <trkpt lat="49.67921" lon="4.78211">
        <ele>251</ele>
        <time>2022-04-03T06:12:16.000Z</time>
      </trkpt>
      <trkpt lat="49.67921" lon="4.78211">
        <ele>251</ele>
        <time>2022-04-03T06:12:17.000Z</time>
      </trkpt>
      <trkpt lat="49.67907" lon="4.78202">
        <ele>250</ele>
        <time>2022-04-03T06:12:18.000Z</time>
      </trkpt>
      <trkpt lat="49.679" lon="4.78197">
        <ele>250</ele>
        <time>2022-04-03T06:12:19.000Z</time>
      </trkpt>
      <trkpt lat="49.679" lon="4.78197">
        <ele>250</ele>
        <time>2022-04-03T06:12:20.000Z</time>
      </trkpt>
      <trkpt lat="49.67893" lon="4.78191">
        <ele>250</ele>
        <time>2022-04-03T06:12:21.000Z</time>
      </trkpt>
      <trkpt lat="49.67886" lon="4.78188">
        <ele>250</ele>
        <time>2022-04-03T06:12:22.000Z</time>
      </trkpt>
      <trkpt lat="49.67872" lon="4.78179">
        <ele>250</ele>
        <time>2022-04-03T06:12:23.000Z</time>
      </trkpt>
      <trkpt lat="49.67865" lon="4.78174">
        <ele>250</ele>
        <time>2022-04-03T06:12:24.000Z</time>
      </trkpt>
      <trkpt lat="49.67865" lon="4.78174">
        <ele>250</ele>
        <time>2022-04-03T06:12:25.000Z</time>
      </trkpt>
      <trkpt lat="49.67859" lon="4.7817">
        <ele>249</ele>
        <time>2022-04-03T06:12:26.000Z</time>
      </trkpt>
      <trkpt lat="49.67846" lon="4.78162">
        <ele>249</ele>
        <time>2022-04-03T06:12:27.000Z</time>
      </trkpt>
      <trkpt lat="49.67839" lon="4.78157">
        <ele>249</ele>
        <time>2022-04-03T06:12:28.000Z</time>
      </trkpt>
      <trkpt lat="49.67839" lon="4.78157">
        <ele>249</ele>
        <time>2022-04-03T06:12:29.000Z</time>
      </trkpt>
      <trkpt lat="49.67828" lon="4.78148">
        <ele>249</ele>
        <time>2022-04-03T06:12:30.000Z</time>
      </trkpt>
      <trkpt lat="49.67828" lon="4.78148">
        <ele>249</ele>
        <time>2022-04-03T06:12:31.000Z</time>
      </trkpt>
      <trkpt lat="49.67816" lon="4.78142">
        <ele>248</ele>
        <time>2022-04-03T06:12:32.000Z</time>
      </trkpt>
      <trkpt lat="49.6781" lon="4.78139">
        <ele>248</ele>
        <time>2022-04-03T06:12:33.000Z</time>
      </trkpt>
      <trkpt lat="49.67804" lon="4.78135">
        <ele>247</ele>
        <time>2022-04-03T06:12:34.000Z</time>
      </trkpt>
      <trkpt lat="49.67804" lon="4.78135">
        <ele>247</ele>
        <time>2022-04-03T06:12:35.000Z</time>
      </trkpt>
      <trkpt lat="49.67792" lon="4.78128">
        <ele>247</ele>
        <time>2022-04-03T06:12:36.000Z</time>
      </trkpt>
      <trkpt lat="49.67792" lon="4.78128">
        <ele>247</ele>
        <time>2022-04-03T06:12:37.000Z</time>
      </trkpt>
      <trkpt lat="49.67781" lon="4.78118">
        <ele>246</ele>
        <time>2022-04-03T06:12:38.000Z</time>
      </trkpt>
      <trkpt lat="49.67781" lon="4.78118">
        <ele>246</ele>
        <time>2022-04-03T06:12:39.000Z</time>
      </trkpt>
      <trkpt lat="49.67775" lon="4.78115">
        <ele>246</ele>
        <time>2022-04-03T06:12:40.000Z</time>
      </trkpt>
      <trkpt lat="49.6777" lon="4.78111">
        <ele>246</ele>
        <time>2022-04-03T06:12:41.000Z</time>
      </trkpt>
      <trkpt lat="49.67765" lon="4.78107">
        <ele>245</ele>
        <time>2022-04-03T06:12:42.000Z</time>
      </trkpt>
      <trkpt lat="49.6776" lon="4.78103">
        <ele>245</ele>
        <time>2022-04-03T06:12:43.000Z</time>
      </trkpt>
      <trkpt lat="49.67756" lon="4.781">
        <ele>245</ele>
        <time>2022-04-03T06:12:44.000Z</time>
      </trkpt>
      <trkpt lat="49.67753" lon="4.78098">
        <ele>245</ele>
        <time>2022-04-03T06:12:45.000Z</time>
      </trkpt>
      <trkpt lat="49.6775" lon="4.78097">
        <ele>245</ele>
        <time>2022-04-03T06:12:46.000Z</time>
      </trkpt>
      <trkpt lat="49.67747" lon="4.78096">
        <ele>245</ele>
        <time>2022-04-03T06:12:47.000Z</time>
      </trkpt>
      <trkpt lat="49.67744" lon="4.78095">
        <ele>245</ele>
        <time>2022-04-03T06:12:48.000Z</time>
      </trkpt>
      <trkpt lat="49.6774" lon="4.78094">
        <ele>245</ele>
        <time>2022-04-03T06:12:49.000Z</time>
      </trkpt>
      <trkpt lat="49.67737" lon="4.78093">
        <ele>245</ele>
        <time>2022-04-03T06:12:50.000Z</time>
      </trkpt>
      <trkpt lat="49.67733" lon="4.78092">
        <ele>245</ele>
        <time>2022-04-03T06:12:51.000Z</time>
      </trkpt>
      <trkpt lat="49.67728" lon="4.78091">
        <ele>245</ele>
        <time>2022-04-03T06:12:52.000Z</time>
      </trkpt>
      <trkpt lat="49.67724" lon="4.7809">
        <ele>245</ele>
        <time>2022-04-03T06:12:53.000Z</time>
      </trkpt>
      <trkpt lat="49.6772" lon="4.78088">
        <ele>245</ele>
        <time>2022-04-03T06:12:54.000Z</time>
      </trkpt>
      <trkpt lat="49.67716" lon="4.78087">
        <ele>245</ele>
        <time>2022-04-03T06:12:55.000Z</time>
      </trkpt>
      <trkpt lat="49.67712" lon="4.78085">
        <ele>245</ele>
        <time>2022-04-03T06:12:56.000Z</time>
      </trkpt>
      <trkpt lat="49.67708" lon="4.78084">
        <ele>245</ele>
        <time>2022-04-03T06:12:57.000Z</time>
      </trkpt>
      <trkpt lat="49.67703" lon="4.78084">
        <ele>245</ele>
        <time>2022-04-03T06:12:58.000Z</time>
      </trkpt>
      <trkpt lat="49.677" lon="4.78083">
        <ele>246</ele>
        <time>2022-04-03T06:12:59.000Z</time>
      </trkpt>
      <trkpt lat="49.67696" lon="4.78082">
        <ele>246</ele>
        <time>2022-04-03T06:13:00.000Z</time>
      </trkpt>
      <trkpt lat="49.67691" lon="4.78082">
        <ele>246</ele>
        <time>2022-04-03T06:13:01.000Z</time>
      </trkpt>
      <trkpt lat="49.67687" lon="4.78081">
        <ele>246</ele>
        <time>2022-04-03T06:13:02.000Z</time>
      </trkpt>
      <trkpt lat="49.67683" lon="4.78081">
        <ele>247</ele>
        <time>2022-04-03T06:13:03.000Z</time>
      </trkpt>
      <trkpt lat="49.67679" lon="4.7808">
        <ele>247</ele>
        <time>2022-04-03T06:13:04.000Z</time>
      </trkpt>
      <trkpt lat="49.67676" lon="4.78081">
        <ele>247</ele>
        <time>2022-04-03T06:13:05.000Z</time>
      </trkpt>
      <trkpt lat="49.67672" lon="4.78081">
        <ele>247</ele>
        <time>2022-04-03T06:13:06.000Z</time>
      </trkpt>
      <trkpt lat="49.67668" lon="4.78082">
        <ele>248</ele>
        <time>2022-04-03T06:13:07.000Z</time>
      </trkpt>
      <trkpt lat="49.67664" lon="4.78083">
        <ele>248</ele>
        <time>2022-04-03T06:13:08.000Z</time>
      </trkpt>
      <trkpt lat="49.6766" lon="4.78084">
        <ele>248</ele>
        <time>2022-04-03T06:13:09.000Z</time>
      </trkpt>
      <trkpt lat="49.67656" lon="4.78084">
        <ele>248</ele>
        <time>2022-04-03T06:13:10.000Z</time>
      </trkpt>
      <trkpt lat="49.67653" lon="4.78086">
        <ele>249</ele>
        <time>2022-04-03T06:13:11.000Z</time>
      </trkpt>
      <trkpt lat="49.67649" lon="4.78087">
        <ele>249</ele>
        <time>2022-04-03T06:13:12.000Z</time>
      </trkpt>
      <trkpt lat="49.67645" lon="4.78088">
        <ele>249</ele>
        <time>2022-04-03T06:13:13.000Z</time>
      </trkpt>
      <trkpt lat="49.67641" lon="4.7809">
        <ele>249</ele>
        <time>2022-04-03T06:13:14.000Z</time>
      </trkpt>
      <trkpt lat="49.67638" lon="4.78091">
        <ele>250</ele>
        <time>2022-04-03T06:13:15.000Z</time>
      </trkpt>
      <trkpt lat="49.67633" lon="4.78092">
        <ele>250</ele>
        <time>2022-04-03T06:13:16.000Z</time>
      </trkpt>
      <trkpt lat="49.67629" lon="4.78094">
        <ele>250</ele>
        <time>2022-04-03T06:13:17.000Z</time>
      </trkpt>
      <trkpt lat="49.67625" lon="4.78095">
        <ele>250</ele>
        <time>2022-04-03T06:13:18.000Z</time>
      </trkpt>
      <trkpt lat="49.67621" lon="4.78096">
        <ele>251</ele>
        <time>2022-04-03T06:13:19.000Z</time>
      </trkpt>
      <trkpt lat="49.67618" lon="4.78097">
        <ele>251</ele>
        <time>2022-04-03T06:13:20.000Z</time>
      </trkpt>
      <trkpt lat="49.67614" lon="4.78099">
        <ele>251</ele>
        <time>2022-04-03T06:13:21.000Z</time>
      </trkpt>
      <trkpt lat="49.6761" lon="4.78101">
        <ele>251</ele>
        <time>2022-04-03T06:13:22.000Z</time>
      </trkpt>
      <trkpt lat="49.67606" lon="4.78102">
        <ele>252</ele>
        <time>2022-04-03T06:13:23.000Z</time>
      </trkpt>
      <trkpt lat="49.67602" lon="4.78104">
        <ele>252</ele>
        <time>2022-04-03T06:13:24.000Z</time>
      </trkpt>
      <trkpt lat="49.67599" lon="4.78105">
        <ele>252</ele>
        <time>2022-04-03T06:13:25.000Z</time>
      </trkpt>
      <trkpt lat="49.67595" lon="4.78107">
        <ele>252</ele>
        <time>2022-04-03T06:13:26.000Z</time>
      </trkpt>
      <trkpt lat="49.67591" lon="4.78109">
        <ele>253</ele>
        <time>2022-04-03T06:13:27.000Z</time>
      </trkpt>
      <trkpt lat="49.67587" lon="4.78109">
        <ele>253</ele>
        <time>2022-04-03T06:13:28.000Z</time>
      </trkpt>
      <trkpt lat="49.67584" lon="4.78111">
        <ele>253</ele>
        <time>2022-04-03T06:13:29.000Z</time>
      </trkpt>
      <trkpt lat="49.6758" lon="4.78114">
        <ele>253</ele>
        <time>2022-04-03T06:13:30.000Z</time>
      </trkpt>
      <trkpt lat="49.67576" lon="4.78116">
        <ele>253</ele>
        <time>2022-04-03T06:13:31.000Z</time>
      </trkpt>
      <trkpt lat="49.67572" lon="4.78118">
        <ele>253</ele>
        <time>2022-04-03T06:13:32.000Z</time>
      </trkpt>
      <trkpt lat="49.67568" lon="4.78121">
        <ele>253</ele>
        <time>2022-04-03T06:13:33.000Z</time>
      </trkpt>
      <trkpt lat="49.67563" lon="4.78123">
        <ele>253</ele>
        <time>2022-04-03T06:13:34.000Z</time>
      </trkpt>
      <trkpt lat="49.67559" lon="4.78126">
        <ele>254</ele>
        <time>2022-04-03T06:13:35.000Z</time>
      </trkpt>
      <trkpt lat="49.67551" lon="4.78131">
        <ele>254</ele>
        <time>2022-04-03T06:13:36.000Z</time>
      </trkpt>
      <trkpt lat="49.67551" lon="4.78131">
        <ele>254</ele>
        <time>2022-04-03T06:13:37.000Z</time>
      </trkpt>
      <trkpt lat="49.67547" lon="4.78135">
        <ele>254</ele>
        <time>2022-04-03T06:13:38.000Z</time>
      </trkpt>
      <trkpt lat="49.67542" lon="4.78137">
        <ele>255</ele>
        <time>2022-04-03T06:13:39.000Z</time>
      </trkpt>
      <trkpt lat="49.67534" lon="4.78143">
        <ele>255</ele>
        <time>2022-04-03T06:13:40.000Z</time>
      </trkpt>
      <trkpt lat="49.67534" lon="4.78143">
        <ele>255</ele>
        <time>2022-04-03T06:13:41.000Z</time>
      </trkpt>
      <trkpt lat="49.67531" lon="4.78145">
        <ele>255</ele>
        <time>2022-04-03T06:13:42.000Z</time>
      </trkpt>
      <trkpt lat="49.67527" lon="4.78149">
        <ele>255</ele>
        <time>2022-04-03T06:13:43.000Z</time>
      </trkpt>
      <trkpt lat="49.67519" lon="4.78155">
        <ele>256</ele>
        <time>2022-04-03T06:13:44.000Z</time>
      </trkpt>
      <trkpt lat="49.67519" lon="4.78155">
        <ele>256</ele>
        <time>2022-04-03T06:13:45.000Z</time>
      </trkpt>
      <trkpt lat="49.67515" lon="4.78158">
        <ele>256</ele>
        <time>2022-04-03T06:13:46.000Z</time>
      </trkpt>
      <trkpt lat="49.67511" lon="4.78161">
        <ele>257</ele>
        <time>2022-04-03T06:13:47.000Z</time>
      </trkpt>
      <trkpt lat="49.67507" lon="4.78165">
        <ele>257</ele>
        <time>2022-04-03T06:13:48.000Z</time>
      </trkpt>
      <trkpt lat="49.67503" lon="4.78168">
        <ele>257</ele>
        <time>2022-04-03T06:13:49.000Z</time>
      </trkpt>
      <trkpt lat="49.67499" lon="4.78171">
        <ele>257</ele>
        <time>2022-04-03T06:13:50.000Z</time>
      </trkpt>
      <trkpt lat="49.67495" lon="4.78175">
        <ele>257</ele>
        <time>2022-04-03T06:13:51.000Z</time>
      </trkpt>
      <trkpt lat="49.67491" lon="4.78178">
        <ele>258</ele>
        <time>2022-04-03T06:13:52.000Z</time>
      </trkpt>
      <trkpt lat="49.67487" lon="4.78181">
        <ele>258</ele>
        <time>2022-04-03T06:13:53.000Z</time>
      </trkpt>
      <trkpt lat="49.67483" lon="4.78184">
        <ele>258</ele>
        <time>2022-04-03T06:13:54.000Z</time>
      </trkpt>
      <trkpt lat="49.67476" lon="4.7819">
        <ele>259</ele>
        <time>2022-04-03T06:13:55.000Z</time>
      </trkpt>
      <trkpt lat="49.67476" lon="4.7819">
        <ele>259</ele>
        <time>2022-04-03T06:13:56.000Z</time>
      </trkpt>
      <trkpt lat="49.67472" lon="4.78193">
        <ele>259</ele>
        <time>2022-04-03T06:13:57.000Z</time>
      </trkpt>
      <trkpt lat="49.67468" lon="4.78196">
        <ele>259</ele>
        <time>2022-04-03T06:13:58.000Z</time>
      </trkpt>
      <trkpt lat="49.67465" lon="4.78198">
        <ele>259</ele>
        <time>2022-04-03T06:13:59.000Z</time>
      </trkpt>
      <trkpt lat="49.67461" lon="4.78202">
        <ele>260</ele>
        <time>2022-04-03T06:14:00.000Z</time>
      </trkpt>
      <trkpt lat="49.67454" lon="4.78209">
        <ele>260</ele>
        <time>2022-04-03T06:14:01.000Z</time>
      </trkpt>
      <trkpt lat="49.67454" lon="4.78209">
        <ele>260</ele>
        <time>2022-04-03T06:14:02.000Z</time>
      </trkpt>
      <trkpt lat="49.67451" lon="4.78211">
        <ele>260</ele>
        <time>2022-04-03T06:14:03.000Z</time>
      </trkpt>
      <trkpt lat="49.67447" lon="4.78214">
        <ele>261</ele>
        <time>2022-04-03T06:14:04.000Z</time>
      </trkpt>
      <trkpt lat="49.67443" lon="4.78216">
        <ele>261</ele>
        <time>2022-04-03T06:14:05.000Z</time>
      </trkpt>
      <trkpt lat="49.67441" lon="4.78219">
        <ele>261</ele>
        <time>2022-04-03T06:14:06.000Z</time>
      </trkpt>
      <trkpt lat="49.67433" lon="4.78224">
        <ele>262</ele>
        <time>2022-04-03T06:14:07.000Z</time>
      </trkpt>
      <trkpt lat="49.6743" lon="4.78227">
        <ele>262</ele>
        <time>2022-04-03T06:14:08.000Z</time>
      </trkpt>
      <trkpt lat="49.67426" lon="4.7823">
        <ele>262</ele>
        <time>2022-04-03T06:14:09.000Z</time>
      </trkpt>
      <trkpt lat="49.67422" lon="4.78233">
        <ele>263</ele>
        <time>2022-04-03T06:14:10.000Z</time>
      </trkpt>
      <trkpt lat="49.67422" lon="4.78233">
        <ele>263</ele>
        <time>2022-04-03T06:14:11.000Z</time>
      </trkpt>
      <trkpt lat="49.67418" lon="4.78237">
        <ele>263</ele>
        <time>2022-04-03T06:14:12.000Z</time>
      </trkpt>
      <trkpt lat="49.67415" lon="4.7824">
        <ele>263</ele>
        <time>2022-04-03T06:14:13.000Z</time>
      </trkpt>
      <trkpt lat="49.67411" lon="4.78244">
        <ele>264</ele>
        <time>2022-04-03T06:14:14.000Z</time>
      </trkpt>
      <trkpt lat="49.67407" lon="4.78249">
        <ele>264</ele>
        <time>2022-04-03T06:14:15.000Z</time>
      </trkpt>
      <trkpt lat="49.67403" lon="4.78253">
        <ele>264</ele>
        <time>2022-04-03T06:14:16.000Z</time>
      </trkpt>
      <trkpt lat="49.674" lon="4.78257">
        <ele>264</ele>
        <time>2022-04-03T06:14:17.000Z</time>
      </trkpt>
      <trkpt lat="49.67396" lon="4.7826">
        <ele>264</ele>
        <time>2022-04-03T06:14:18.000Z</time>
      </trkpt>
      <trkpt lat="49.67387" lon="4.78264">
        <ele>264</ele>
        <time>2022-04-03T06:14:19.000Z</time>
      </trkpt>
      <trkpt lat="49.67383" lon="4.78266">
        <ele>264</ele>
        <time>2022-04-03T06:14:20.000Z</time>
      </trkpt>
      <trkpt lat="49.67378" lon="4.78267">
        <ele>264</ele>
        <time>2022-04-03T06:14:21.000Z</time>
      </trkpt>
      <trkpt lat="49.67373" lon="4.78269">
        <ele>265</ele>
        <time>2022-04-03T06:14:22.000Z</time>
      </trkpt>
      <trkpt lat="49.67373" lon="4.78269">
        <ele>265</ele>
        <time>2022-04-03T06:14:23.000Z</time>
      </trkpt>
      <trkpt lat="49.67364" lon="4.78272">
        <ele>265</ele>
        <time>2022-04-03T06:14:24.000Z</time>
      </trkpt>
      <trkpt lat="49.67359" lon="4.78275">
        <ele>265</ele>
        <time>2022-04-03T06:14:25.000Z</time>
      </trkpt>
      <trkpt lat="49.67354" lon="4.78278">
        <ele>265</ele>
        <time>2022-04-03T06:14:26.000Z</time>
      </trkpt>
      <trkpt lat="49.67349" lon="4.78281">
        <ele>265</ele>
        <time>2022-04-03T06:14:27.000Z</time>
      </trkpt>
      <trkpt lat="49.67344" lon="4.78284">
        <ele>266</ele>
        <time>2022-04-03T06:14:28.000Z</time>
      </trkpt>
      <trkpt lat="49.6734" lon="4.78286">
        <ele>266</ele>
        <time>2022-04-03T06:14:29.000Z</time>
      </trkpt>
      <trkpt lat="49.6734" lon="4.78286">
        <ele>266</ele>
        <time>2022-04-03T06:14:30.000Z</time>
      </trkpt>
      <trkpt lat="49.67332" lon="4.78289">
        <ele>266</ele>
        <time>2022-04-03T06:14:31.000Z</time>
      </trkpt>
      <trkpt lat="49.67327" lon="4.7829">
        <ele>266</ele>
        <time>2022-04-03T06:14:32.000Z</time>
      </trkpt>
      <trkpt lat="49.67327" lon="4.7829">
        <ele>266</ele>
        <time>2022-04-03T06:14:33.000Z</time>
      </trkpt>
      <trkpt lat="49.67318" lon="4.78293">
        <ele>267</ele>
        <time>2022-04-03T06:14:34.000Z</time>
      </trkpt>
      <trkpt lat="49.67318" lon="4.78293">
        <ele>267</ele>
        <time>2022-04-03T06:14:35.000Z</time>
      </trkpt>
      <trkpt lat="49.67314" lon="4.78294">
        <ele>267</ele>
        <time>2022-04-03T06:14:36.000Z</time>
      </trkpt>
      <trkpt lat="49.67309" lon="4.78296">
        <ele>267</ele>
        <time>2022-04-03T06:14:37.000Z</time>
      </trkpt>
      <trkpt lat="49.67304" lon="4.78298">
        <ele>267</ele>
        <time>2022-04-03T06:14:38.000Z</time>
      </trkpt>
      <trkpt lat="49.67299" lon="4.78301">
        <ele>267</ele>
        <time>2022-04-03T06:14:39.000Z</time>
      </trkpt>
      <trkpt lat="49.67295" lon="4.78302">
        <ele>267</ele>
        <time>2022-04-03T06:14:40.000Z</time>
      </trkpt>
      <trkpt lat="49.67291" lon="4.78305">
        <ele>267</ele>
        <time>2022-04-03T06:14:41.000Z</time>
      </trkpt>
      <trkpt lat="49.67286" lon="4.78307">
        <ele>267</ele>
        <time>2022-04-03T06:14:42.000Z</time>
      </trkpt>
      <trkpt lat="49.67282" lon="4.78309">
        <ele>268</ele>
        <time>2022-04-03T06:14:43.000Z</time>
      </trkpt>
      <trkpt lat="49.67278" lon="4.78311">
        <ele>268</ele>
        <time>2022-04-03T06:14:44.000Z</time>
      </trkpt>
      <trkpt lat="49.67273" lon="4.78312">
        <ele>268</ele>
        <time>2022-04-03T06:14:45.000Z</time>
      </trkpt>
      <trkpt lat="49.67269" lon="4.78313">
        <ele>268</ele>
        <time>2022-04-03T06:14:46.000Z</time>
      </trkpt>
      <trkpt lat="49.67265" lon="4.78314">
        <ele>268</ele>
        <time>2022-04-03T06:14:47.000Z</time>
      </trkpt>
      <trkpt lat="49.67261" lon="4.78315">
        <ele>268</ele>
        <time>2022-04-03T06:14:48.000Z</time>
      </trkpt>
      <trkpt lat="49.67257" lon="4.78315">
        <ele>269</ele>
        <time>2022-04-03T06:14:49.000Z</time>
      </trkpt>
      <trkpt lat="49.67249" lon="4.78315">
        <ele>269</ele>
        <time>2022-04-03T06:14:50.000Z</time>
      </trkpt>
      <trkpt lat="49.67245" lon="4.78316">
        <ele>270</ele>
        <time>2022-04-03T06:14:51.000Z</time>
      </trkpt>
      <trkpt lat="49.67241" lon="4.78317">
        <ele>270</ele>
        <time>2022-04-03T06:14:52.000Z</time>
      </trkpt>
      <trkpt lat="49.67238" lon="4.78317">
        <ele>270</ele>
        <time>2022-04-03T06:14:53.000Z</time>
      </trkpt>
      <trkpt lat="49.67235" lon="4.78318">
        <ele>271</ele>
        <time>2022-04-03T06:14:54.000Z</time>
      </trkpt>
      <trkpt lat="49.67235" lon="4.78318">
        <ele>271</ele>
        <time>2022-04-03T06:14:55.000Z</time>
      </trkpt>
      <trkpt lat="49.67232" lon="4.78319">
        <ele>271</ele>
        <time>2022-04-03T06:14:56.000Z</time>
      </trkpt>
      <trkpt lat="49.67226" lon="4.78323">
        <ele>271</ele>
        <time>2022-04-03T06:14:57.000Z</time>
      </trkpt>
      <trkpt lat="49.67226" lon="4.78323">
        <ele>271</ele>
        <time>2022-04-03T06:14:58.000Z</time>
      </trkpt>
      <trkpt lat="49.67223" lon="4.78325">
        <ele>272</ele>
        <time>2022-04-03T06:14:59.000Z</time>
      </trkpt>
      <trkpt lat="49.6722" lon="4.78327">
        <ele>272</ele>
        <time>2022-04-03T06:15:00.000Z</time>
      </trkpt>
      <trkpt lat="49.67214" lon="4.78333">
        <ele>272</ele>
        <time>2022-04-03T06:15:01.000Z</time>
      </trkpt>
      <trkpt lat="49.67212" lon="4.78335">
        <ele>273</ele>
        <time>2022-04-03T06:15:02.000Z</time>
      </trkpt>
      <trkpt lat="49.67212" lon="4.78335">
        <ele>273</ele>
        <time>2022-04-03T06:15:03.000Z</time>
      </trkpt>
      <trkpt lat="49.6721" lon="4.78338">
        <ele>273</ele>
        <time>2022-04-03T06:15:04.000Z</time>
      </trkpt>
      <trkpt lat="49.67208" lon="4.7834">
        <ele>273</ele>
        <time>2022-04-03T06:15:05.000Z</time>
      </trkpt>
      <trkpt lat="49.67206" lon="4.78343">
        <ele>273</ele>
        <time>2022-04-03T06:15:06.000Z</time>
      </trkpt>
      <trkpt lat="49.67204" lon="4.78345">
        <ele>273</ele>
        <time>2022-04-03T06:15:07.000Z</time>
      </trkpt>
      <trkpt lat="49.67199" lon="4.78349">
        <ele>273</ele>
        <time>2022-04-03T06:15:08.000Z</time>
      </trkpt>
      <trkpt lat="49.67199" lon="4.78349">
        <ele>273</ele>
        <time>2022-04-03T06:15:09.000Z</time>
      </trkpt>
      <trkpt lat="49.67197" lon="4.78351">
        <ele>274</ele>
        <time>2022-04-03T06:15:10.000Z</time>
      </trkpt>
      <trkpt lat="49.67194" lon="4.78353">
        <ele>274</ele>
        <time>2022-04-03T06:15:11.000Z</time>
      </trkpt>
      <trkpt lat="49.67192" lon="4.78355">
        <ele>274</ele>
        <time>2022-04-03T06:15:12.000Z</time>
      </trkpt>
      <trkpt lat="49.67186" lon="4.78358">
        <ele>274</ele>
        <time>2022-04-03T06:15:13.000Z</time>
      </trkpt>
      <trkpt lat="49.67186" lon="4.78358">
        <ele>274</ele>
        <time>2022-04-03T06:15:14.000Z</time>
      </trkpt>
      <trkpt lat="49.67183" lon="4.78361">
        <ele>274</ele>
        <time>2022-04-03T06:15:15.000Z</time>
      </trkpt>
      <trkpt lat="49.67179" lon="4.78363">
        <ele>274</ele>
        <time>2022-04-03T06:15:16.000Z</time>
      </trkpt>
      <trkpt lat="49.67176" lon="4.78365">
        <ele>274</ele>
        <time>2022-04-03T06:15:17.000Z</time>
      </trkpt>
      <trkpt lat="49.67173" lon="4.78367">
        <ele>275</ele>
        <time>2022-04-03T06:15:18.000Z</time>
      </trkpt>
      <trkpt lat="49.67169" lon="4.78369">
        <ele>275</ele>
        <time>2022-04-03T06:15:19.000Z</time>
      </trkpt>
      <trkpt lat="49.67165" lon="4.78371">
        <ele>275</ele>
        <time>2022-04-03T06:15:20.000Z</time>
      </trkpt>
      <trkpt lat="49.67162" lon="4.78373">
        <ele>275</ele>
        <time>2022-04-03T06:15:21.000Z</time>
      </trkpt>
      <trkpt lat="49.67158" lon="4.78375">
        <ele>275</ele>
        <time>2022-04-03T06:15:22.000Z</time>
      </trkpt>
      <trkpt lat="49.67155" lon="4.78376">
        <ele>275</ele>
        <time>2022-04-03T06:15:23.000Z</time>
      </trkpt>
      <trkpt lat="49.67151" lon="4.78378">
        <ele>275</ele>
        <time>2022-04-03T06:15:24.000Z</time>
      </trkpt>
      <trkpt lat="49.67144" lon="4.78381">
        <ele>275</ele>
        <time>2022-04-03T06:15:25.000Z</time>
      </trkpt>
      <trkpt lat="49.67144" lon="4.78381">
        <ele>275</ele>
        <time>2022-04-03T06:15:26.000Z</time>
      </trkpt>
      <trkpt lat="49.67141" lon="4.78382">
        <ele>276</ele>
        <time>2022-04-03T06:15:27.000Z</time>
      </trkpt>
      <trkpt lat="49.67138" lon="4.78384">
        <ele>276</ele>
        <time>2022-04-03T06:15:28.000Z</time>
      </trkpt>
      <trkpt lat="49.67135" lon="4.78385">
        <ele>276</ele>
        <time>2022-04-03T06:15:29.000Z</time>
      </trkpt>
      <trkpt lat="49.67132" lon="4.78387">
        <ele>276</ele>
        <time>2022-04-03T06:15:30.000Z</time>
      </trkpt>
      <trkpt lat="49.67128" lon="4.78388">
        <ele>276</ele>
        <time>2022-04-03T06:15:31.000Z</time>
      </trkpt>
      <trkpt lat="49.67125" lon="4.7839">
        <ele>276</ele>
        <time>2022-04-03T06:15:32.000Z</time>
      </trkpt>
      <trkpt lat="49.67121" lon="4.78392">
        <ele>276</ele>
        <time>2022-04-03T06:15:33.000Z</time>
      </trkpt>
      <trkpt lat="49.67118" lon="4.78394">
        <ele>277</ele>
        <time>2022-04-03T06:15:34.000Z</time>
      </trkpt>
      <trkpt lat="49.67114" lon="4.78395">
        <ele>277</ele>
        <time>2022-04-03T06:15:35.000Z</time>
      </trkpt>
      <trkpt lat="49.67111" lon="4.78397">
        <ele>277</ele>
        <time>2022-04-03T06:15:36.000Z</time>
      </trkpt>
      <trkpt lat="49.67107" lon="4.78398">
        <ele>278</ele>
        <time>2022-04-03T06:15:37.000Z</time>
      </trkpt>
      <trkpt lat="49.67104" lon="4.784">
        <ele>278</ele>
        <time>2022-04-03T06:15:38.000Z</time>
      </trkpt>
      <trkpt lat="49.671" lon="4.78402">
        <ele>278</ele>
        <time>2022-04-03T06:15:39.000Z</time>
      </trkpt>
      <trkpt lat="49.67096" lon="4.78403">
        <ele>278</ele>
        <time>2022-04-03T06:15:40.000Z</time>
      </trkpt>
      <trkpt lat="49.67093" lon="4.78405">
        <ele>278</ele>
        <time>2022-04-03T06:15:41.000Z</time>
      </trkpt>
      <trkpt lat="49.67089" lon="4.78407">
        <ele>279</ele>
        <time>2022-04-03T06:15:42.000Z</time>
      </trkpt>
      <trkpt lat="49.67086" lon="4.78408">
        <ele>279</ele>
        <time>2022-04-03T06:15:43.000Z</time>
      </trkpt>
      <trkpt lat="49.67083" lon="4.78409">
        <ele>279</ele>
        <time>2022-04-03T06:15:44.000Z</time>
      </trkpt>
      <trkpt lat="49.67079" lon="4.78411">
        <ele>279</ele>
        <time>2022-04-03T06:15:45.000Z</time>
      </trkpt>
      <trkpt lat="49.67076" lon="4.78412">
        <ele>279</ele>
        <time>2022-04-03T06:15:46.000Z</time>
      </trkpt>
      <trkpt lat="49.67072" lon="4.78414">
        <ele>279</ele>
        <time>2022-04-03T06:15:47.000Z</time>
      </trkpt>
      <trkpt lat="49.67069" lon="4.78416">
        <ele>280</ele>
        <time>2022-04-03T06:15:48.000Z</time>
      </trkpt>
      <trkpt lat="49.67066" lon="4.78417">
        <ele>280</ele>
        <time>2022-04-03T06:15:49.000Z</time>
      </trkpt>
      <trkpt lat="49.67062" lon="4.78419">
        <ele>280</ele>
        <time>2022-04-03T06:15:50.000Z</time>
      </trkpt>
      <trkpt lat="49.67059" lon="4.7842">
        <ele>281</ele>
        <time>2022-04-03T06:15:51.000Z</time>
      </trkpt>
      <trkpt lat="49.67056" lon="4.78422">
        <ele>281</ele>
        <time>2022-04-03T06:15:52.000Z</time>
      </trkpt>
      <trkpt lat="49.67052" lon="4.78423">
        <ele>281</ele>
        <time>2022-04-03T06:15:53.000Z</time>
      </trkpt>
      <trkpt lat="49.67049" lon="4.78425">
        <ele>282</ele>
        <time>2022-04-03T06:15:54.000Z</time>
      </trkpt>
      <trkpt lat="49.67046" lon="4.78426">
        <ele>282</ele>
        <time>2022-04-03T06:15:55.000Z</time>
      </trkpt>
      <trkpt lat="49.67042" lon="4.78427">
        <ele>283</ele>
        <time>2022-04-03T06:15:56.000Z</time>
      </trkpt>
      <trkpt lat="49.67039" lon="4.78428">
        <ele>283</ele>
        <time>2022-04-03T06:15:57.000Z</time>
      </trkpt>
      <trkpt lat="49.67035" lon="4.7843">
        <ele>283</ele>
        <time>2022-04-03T06:15:58.000Z</time>
      </trkpt>
      <trkpt lat="49.67031" lon="4.7843">
        <ele>283</ele>
        <time>2022-04-03T06:15:59.000Z</time>
      </trkpt>
      <trkpt lat="49.67028" lon="4.78431">
        <ele>284</ele>
        <time>2022-04-03T06:16:00.000Z</time>
      </trkpt>
      <trkpt lat="49.67024" lon="4.78432">
        <ele>284</ele>
        <time>2022-04-03T06:16:01.000Z</time>
      </trkpt>
      <trkpt lat="49.6702" lon="4.78433">
        <ele>284</ele>
        <time>2022-04-03T06:16:02.000Z</time>
      </trkpt>
      <trkpt lat="49.67017" lon="4.78433">
        <ele>284</ele>
        <time>2022-04-03T06:16:03.000Z</time>
      </trkpt>
      <trkpt lat="49.67014" lon="4.78434">
        <ele>285</ele>
        <time>2022-04-03T06:16:04.000Z</time>
      </trkpt>
      <trkpt lat="49.6701" lon="4.78434">
        <ele>285</ele>
        <time>2022-04-03T06:16:05.000Z</time>
      </trkpt>
      <trkpt lat="49.67007" lon="4.78435">
        <ele>285</ele>
        <time>2022-04-03T06:16:06.000Z</time>
      </trkpt>
      <trkpt lat="49.67004" lon="4.78435">
        <ele>285</ele>
        <time>2022-04-03T06:16:07.000Z</time>
      </trkpt>
      <trkpt lat="49.67" lon="4.78436">
        <ele>286</ele>
        <time>2022-04-03T06:16:08.000Z</time>
      </trkpt>
      <trkpt lat="49.66997" lon="4.78436">
        <ele>286</ele>
        <time>2022-04-03T06:16:09.000Z</time>
      </trkpt>
      <trkpt lat="49.66995" lon="4.78436">
        <ele>286</ele>
        <time>2022-04-03T06:16:10.000Z</time>
      </trkpt>
      <trkpt lat="49.66992" lon="4.78436">
        <ele>286</ele>
        <time>2022-04-03T06:16:11.000Z</time>
      </trkpt>
      <trkpt lat="49.66988" lon="4.78437">
        <ele>287</ele>
        <time>2022-04-03T06:16:12.000Z</time>
      </trkpt>
      <trkpt lat="49.66986" lon="4.78437">
        <ele>287</ele>
        <time>2022-04-03T06:16:13.000Z</time>
      </trkpt>
      <trkpt lat="49.66984" lon="4.78437">
        <ele>287</ele>
        <time>2022-04-03T06:16:14.000Z</time>
      </trkpt>
      <trkpt lat="49.66981" lon="4.78437">
        <ele>288</ele>
        <time>2022-04-03T06:16:15.000Z</time>
      </trkpt>
      <trkpt lat="49.66978" lon="4.78438">
        <ele>288</ele>
        <time>2022-04-03T06:16:16.000Z</time>
      </trkpt>
      <trkpt lat="49.66975" lon="4.78439">
        <ele>288</ele>
        <time>2022-04-03T06:16:17.000Z</time>
      </trkpt>
      <trkpt lat="49.66973" lon="4.78439">
        <ele>288</ele>
        <time>2022-04-03T06:16:18.000Z</time>
      </trkpt>
      <trkpt lat="49.6697" lon="4.78439">
        <ele>288</ele>
        <time>2022-04-03T06:16:19.000Z</time>
      </trkpt>
      <trkpt lat="49.66967" lon="4.78439">
        <ele>288</ele>
        <time>2022-04-03T06:16:20.000Z</time>
      </trkpt>
      <trkpt lat="49.66964" lon="4.7844">
        <ele>289</ele>
        <time>2022-04-03T06:16:21.000Z</time>
      </trkpt>
      <trkpt lat="49.66961" lon="4.78441">
        <ele>289</ele>
        <time>2022-04-03T06:16:22.000Z</time>
      </trkpt>
      <trkpt lat="49.66959" lon="4.78441">
        <ele>289</ele>
        <time>2022-04-03T06:16:23.000Z</time>
      </trkpt>
      <trkpt lat="49.66956" lon="4.78441">
        <ele>289</ele>
        <time>2022-04-03T06:16:24.000Z</time>
      </trkpt>
      <trkpt lat="49.66953" lon="4.78442">
        <ele>289</ele>
        <time>2022-04-03T06:16:25.000Z</time>
      </trkpt>
      <trkpt lat="49.6695" lon="4.78444">
        <ele>289</ele>
        <time>2022-04-03T06:16:26.000Z</time>
      </trkpt>
      <trkpt lat="49.66945" lon="4.78444">
        <ele>289</ele>
        <time>2022-04-03T06:16:27.000Z</time>
      </trkpt>
      <trkpt lat="49.66945" lon="4.78444">
        <ele>289</ele>
        <time>2022-04-03T06:16:28.000Z</time>
      </trkpt>
      <trkpt lat="49.66942" lon="4.78444">
        <ele>289</ele>
        <time>2022-04-03T06:16:29.000Z</time>
      </trkpt>
      <trkpt lat="49.66939" lon="4.78445">
        <ele>289</ele>
        <time>2022-04-03T06:16:30.000Z</time>
      </trkpt>
      <trkpt lat="49.66935" lon="4.78445">
        <ele>289</ele>
        <time>2022-04-03T06:16:31.000Z</time>
      </trkpt>
      <trkpt lat="49.66932" lon="4.78446">
        <ele>290</ele>
        <time>2022-04-03T06:16:32.000Z</time>
      </trkpt>
      <trkpt lat="49.66928" lon="4.78447">
        <ele>290</ele>
        <time>2022-04-03T06:16:33.000Z</time>
      </trkpt>
      <trkpt lat="49.66925" lon="4.78447">
        <ele>290</ele>
        <time>2022-04-03T06:16:34.000Z</time>
      </trkpt>
      <trkpt lat="49.66922" lon="4.78448">
        <ele>291</ele>
        <time>2022-04-03T06:16:35.000Z</time>
      </trkpt>
      <trkpt lat="49.66919" lon="4.78448">
        <ele>291</ele>
        <time>2022-04-03T06:16:36.000Z</time>
      </trkpt>
      <trkpt lat="49.66915" lon="4.78449">
        <ele>291</ele>
        <time>2022-04-03T06:16:37.000Z</time>
      </trkpt>
      <trkpt lat="49.66912" lon="4.78449">
        <ele>292</ele>
        <time>2022-04-03T06:16:38.000Z</time>
      </trkpt>
      <trkpt lat="49.66909" lon="4.7845">
        <ele>292</ele>
        <time>2022-04-03T06:16:39.000Z</time>
      </trkpt>
      <trkpt lat="49.66905" lon="4.7845">
        <ele>292</ele>
        <time>2022-04-03T06:16:40.000Z</time>
      </trkpt>
      <trkpt lat="49.66902" lon="4.78451">
        <ele>293</ele>
        <time>2022-04-03T06:16:41.000Z</time>
      </trkpt>
      <trkpt lat="49.66898" lon="4.78452">
        <ele>293</ele>
        <time>2022-04-03T06:16:42.000Z</time>
      </trkpt>
      <trkpt lat="49.66895" lon="4.78453">
        <ele>294</ele>
        <time>2022-04-03T06:16:43.000Z</time>
      </trkpt>
      <trkpt lat="49.66891" lon="4.78453">
        <ele>294</ele>
        <time>2022-04-03T06:16:44.000Z</time>
      </trkpt>
      <trkpt lat="49.66888" lon="4.78454">
        <ele>295</ele>
        <time>2022-04-03T06:16:45.000Z</time>
      </trkpt>
      <trkpt lat="49.66884" lon="4.78455">
        <ele>295</ele>
        <time>2022-04-03T06:16:46.000Z</time>
      </trkpt>
      <trkpt lat="49.66881" lon="4.78456">
        <ele>295</ele>
        <time>2022-04-03T06:16:47.000Z</time>
      </trkpt>
      <trkpt lat="49.66878" lon="4.78456">
        <ele>296</ele>
        <time>2022-04-03T06:16:48.000Z</time>
      </trkpt>
      <trkpt lat="49.66874" lon="4.78458">
        <ele>296</ele>
        <time>2022-04-03T06:16:49.000Z</time>
      </trkpt>
      <trkpt lat="49.66871" lon="4.78459">
        <ele>296</ele>
        <time>2022-04-03T06:16:50.000Z</time>
      </trkpt>
      <trkpt lat="49.66867" lon="4.78459">
        <ele>296</ele>
        <time>2022-04-03T06:16:51.000Z</time>
      </trkpt>
      <trkpt lat="49.66864" lon="4.7846">
        <ele>297</ele>
        <time>2022-04-03T06:16:52.000Z</time>
      </trkpt>
      <trkpt lat="49.66857" lon="4.7846">
        <ele>297</ele>
        <time>2022-04-03T06:16:53.000Z</time>
      </trkpt>
      <trkpt lat="49.66853" lon="4.78461">
        <ele>297</ele>
        <time>2022-04-03T06:16:54.000Z</time>
      </trkpt>
      <trkpt lat="49.6685" lon="4.78461">
        <ele>298</ele>
        <time>2022-04-03T06:16:55.000Z</time>
      </trkpt>
      <trkpt lat="49.66846" lon="4.78461">
        <ele>298</ele>
        <time>2022-04-03T06:16:56.000Z</time>
      </trkpt>
      <trkpt lat="49.66842" lon="4.78461">
        <ele>298</ele>
        <time>2022-04-03T06:16:57.000Z</time>
      </trkpt>
      <trkpt lat="49.66838" lon="4.78461">
        <ele>298</ele>
        <time>2022-04-03T06:16:58.000Z</time>
      </trkpt>
      <trkpt lat="49.66834" lon="4.7846">
        <ele>298</ele>
        <time>2022-04-03T06:16:59.000Z</time>
      </trkpt>
      <trkpt lat="49.6683" lon="4.78459">
        <ele>299</ele>
        <time>2022-04-03T06:17:00.000Z</time>
      </trkpt>
      <trkpt lat="49.66825" lon="4.78457">
        <ele>299</ele>
        <time>2022-04-03T06:17:01.000Z</time>
      </trkpt>
      <trkpt lat="49.66825" lon="4.78457">
        <ele>299</ele>
        <time>2022-04-03T06:17:02.000Z</time>
      </trkpt>
      <trkpt lat="49.66821" lon="4.78456">
        <ele>299</ele>
        <time>2022-04-03T06:17:03.000Z</time>
      </trkpt>
      <trkpt lat="49.66818" lon="4.78454">
        <ele>299</ele>
        <time>2022-04-03T06:17:04.000Z</time>
      </trkpt>
      <trkpt lat="49.66814" lon="4.78453">
        <ele>299</ele>
        <time>2022-04-03T06:17:05.000Z</time>
      </trkpt>
      <trkpt lat="49.66809" lon="4.78451">
        <ele>300</ele>
        <time>2022-04-03T06:17:06.000Z</time>
      </trkpt>
      <trkpt lat="49.66805" lon="4.7845">
        <ele>300</ele>
        <time>2022-04-03T06:17:07.000Z</time>
      </trkpt>
      <trkpt lat="49.66801" lon="4.78448">
        <ele>300</ele>
        <time>2022-04-03T06:17:08.000Z</time>
      </trkpt>
      <trkpt lat="49.66797" lon="4.78446">
        <ele>300</ele>
        <time>2022-04-03T06:17:09.000Z</time>
      </trkpt>
      <trkpt lat="49.66793" lon="4.78444">
        <ele>300</ele>
        <time>2022-04-03T06:17:10.000Z</time>
      </trkpt>
      <trkpt lat="49.66788" lon="4.78443">
        <ele>300</ele>
        <time>2022-04-03T06:17:11.000Z</time>
      </trkpt>
      <trkpt lat="49.66784" lon="4.78441">
        <ele>300</ele>
        <time>2022-04-03T06:17:12.000Z</time>
      </trkpt>
      <trkpt lat="49.66779" lon="4.7844">
        <ele>300</ele>
        <time>2022-04-03T06:17:13.000Z</time>
      </trkpt>
      <trkpt lat="49.66775" lon="4.78438">
        <ele>300</ele>
        <time>2022-04-03T06:17:14.000Z</time>
      </trkpt>
      <trkpt lat="49.66771" lon="4.78436">
        <ele>300</ele>
        <time>2022-04-03T06:17:15.000Z</time>
      </trkpt>
      <trkpt lat="49.66766" lon="4.78435">
        <ele>300</ele>
        <time>2022-04-03T06:17:16.000Z</time>
      </trkpt>
      <trkpt lat="49.66761" lon="4.78433">
        <ele>300</ele>
        <time>2022-04-03T06:17:17.000Z</time>
      </trkpt>
      <trkpt lat="49.66757" lon="4.78431">
        <ele>300</ele>
        <time>2022-04-03T06:17:18.000Z</time>
      </trkpt>
      <trkpt lat="49.66752" lon="4.7843">
        <ele>300</ele>
        <time>2022-04-03T06:17:19.000Z</time>
      </trkpt>
      <trkpt lat="49.66747" lon="4.78428">
        <ele>300</ele>
        <time>2022-04-03T06:17:20.000Z</time>
      </trkpt>
      <trkpt lat="49.66743" lon="4.78427">
        <ele>300</ele>
        <time>2022-04-03T06:17:21.000Z</time>
      </trkpt>
      <trkpt lat="49.66738" lon="4.78425">
        <ele>300</ele>
        <time>2022-04-03T06:17:22.000Z</time>
      </trkpt>
      <trkpt lat="49.66732" lon="4.78423">
        <ele>300</ele>
        <time>2022-04-03T06:17:23.000Z</time>
      </trkpt>
      <trkpt lat="49.66727" lon="4.78422">
        <ele>300</ele>
        <time>2022-04-03T06:17:24.000Z</time>
      </trkpt>
      <trkpt lat="49.66722" lon="4.7842">
        <ele>300</ele>
        <time>2022-04-03T06:17:25.000Z</time>
      </trkpt>
      <trkpt lat="49.66717" lon="4.78419">
        <ele>300</ele>
        <time>2022-04-03T06:17:26.000Z</time>
      </trkpt>
      <trkpt lat="49.66712" lon="4.78418">
        <ele>300</ele>
        <time>2022-04-03T06:17:27.000Z</time>
      </trkpt>
      <trkpt lat="49.66706" lon="4.78417">
        <ele>300</ele>
        <time>2022-04-03T06:17:28.000Z</time>
      </trkpt>
      <trkpt lat="49.667" lon="4.78417">
        <ele>300</ele>
        <time>2022-04-03T06:17:29.000Z</time>
      </trkpt>
      <trkpt lat="49.66695" lon="4.78416">
        <ele>300</ele>
        <time>2022-04-03T06:17:30.000Z</time>
      </trkpt>
      <trkpt lat="49.6669" lon="4.78415">
        <ele>300</ele>
        <time>2022-04-03T06:17:31.000Z</time>
      </trkpt>
      <trkpt lat="49.66684" lon="4.78415">
        <ele>300</ele>
        <time>2022-04-03T06:17:32.000Z</time>
      </trkpt>
      <trkpt lat="49.66673" lon="4.78413">
        <ele>300</ele>
        <time>2022-04-03T06:17:33.000Z</time>
      </trkpt>
      <trkpt lat="49.66667" lon="4.78412">
        <ele>300</ele>
        <time>2022-04-03T06:17:34.000Z</time>
      </trkpt>
      <trkpt lat="49.66662" lon="4.78411">
        <ele>300</ele>
        <time>2022-04-03T06:17:35.000Z</time>
      </trkpt>
      <trkpt lat="49.66656" lon="4.7841">
        <ele>300</ele>
        <time>2022-04-03T06:17:36.000Z</time>
      </trkpt>
      <trkpt lat="49.66651" lon="4.78408">
        <ele>300</ele>
        <time>2022-04-03T06:17:37.000Z</time>
      </trkpt>
      <trkpt lat="49.66646" lon="4.78407">
        <ele>300</ele>
        <time>2022-04-03T06:17:38.000Z</time>
      </trkpt>
      <trkpt lat="49.6664" lon="4.78404">
        <ele>300</ele>
        <time>2022-04-03T06:17:39.000Z</time>
      </trkpt>
      <trkpt lat="49.66635" lon="4.78403">
        <ele>300</ele>
        <time>2022-04-03T06:17:40.000Z</time>
      </trkpt>
      <trkpt lat="49.66629" lon="4.78401">
        <ele>300</ele>
        <time>2022-04-03T06:17:41.000Z</time>
      </trkpt>
      <trkpt lat="49.66624" lon="4.784">
        <ele>300</ele>
        <time>2022-04-03T06:17:42.000Z</time>
      </trkpt>
      <trkpt lat="49.66618" lon="4.78399">
        <ele>300</ele>
        <time>2022-04-03T06:17:43.000Z</time>
      </trkpt>
      <trkpt lat="49.66618" lon="4.78399">
        <ele>300</ele>
        <time>2022-04-03T06:17:44.000Z</time>
      </trkpt>
      <trkpt lat="49.66607" lon="4.78396">
        <ele>300</ele>
        <time>2022-04-03T06:17:45.000Z</time>
      </trkpt>
      <trkpt lat="49.66602" lon="4.78395">
        <ele>300</ele>
        <time>2022-04-03T06:17:46.000Z</time>
      </trkpt>
      <trkpt lat="49.66596" lon="4.78393">
        <ele>300</ele>
        <time>2022-04-03T06:17:47.000Z</time>
      </trkpt>
      <trkpt lat="49.6659" lon="4.78392">
        <ele>300</ele>
        <time>2022-04-03T06:17:48.000Z</time>
      </trkpt>
      <trkpt lat="49.66585" lon="4.7839">
        <ele>301</ele>
        <time>2022-04-03T06:17:49.000Z</time>
      </trkpt>
      <trkpt lat="49.66585" lon="4.7839">
        <ele>301</ele>
        <time>2022-04-03T06:17:50.000Z</time>
      </trkpt>
      <trkpt lat="49.6658" lon="4.78389">
        <ele>301</ele>
        <time>2022-04-03T06:17:51.000Z</time>
      </trkpt>
      <trkpt lat="49.66574" lon="4.78387">
        <ele>300</ele>
        <time>2022-04-03T06:17:52.000Z</time>
      </trkpt>
      <trkpt lat="49.66569" lon="4.78385">
        <ele>300</ele>
        <time>2022-04-03T06:17:53.000Z</time>
      </trkpt>
      <trkpt lat="49.66564" lon="4.78382">
        <ele>300</ele>
        <time>2022-04-03T06:17:54.000Z</time>
      </trkpt>
      <trkpt lat="49.66559" lon="4.7838">
        <ele>300</ele>
        <time>2022-04-03T06:17:55.000Z</time>
      </trkpt>
      <trkpt lat="49.66554" lon="4.78376">
        <ele>300</ele>
        <time>2022-04-03T06:17:56.000Z</time>
      </trkpt>
      <trkpt lat="49.66548" lon="4.78373">
        <ele>300</ele>
        <time>2022-04-03T06:17:57.000Z</time>
      </trkpt>
      <trkpt lat="49.66544" lon="4.78369">
        <ele>300</ele>
        <time>2022-04-03T06:17:58.000Z</time>
      </trkpt>
      <trkpt lat="49.66539" lon="4.78365">
        <ele>300</ele>
        <time>2022-04-03T06:17:59.000Z</time>
      </trkpt>
      <trkpt lat="49.66534" lon="4.7836">
        <ele>300</ele>
        <time>2022-04-03T06:18:00.000Z</time>
      </trkpt>
      <trkpt lat="49.66529" lon="4.78356">
        <ele>300</ele>
        <time>2022-04-03T06:18:01.000Z</time>
      </trkpt>
      <trkpt lat="49.66525" lon="4.7835">
        <ele>299</ele>
        <time>2022-04-03T06:18:02.000Z</time>
      </trkpt>
      <trkpt lat="49.6652" lon="4.78345">
        <ele>299</ele>
        <time>2022-04-03T06:18:03.000Z</time>
      </trkpt>
      <trkpt lat="49.66516" lon="4.78339">
        <ele>299</ele>
        <time>2022-04-03T06:18:04.000Z</time>
      </trkpt>
      <trkpt lat="49.66512" lon="4.78333">
        <ele>299</ele>
        <time>2022-04-03T06:18:05.000Z</time>
      </trkpt>
      <trkpt lat="49.66508" lon="4.78326">
        <ele>299</ele>
        <time>2022-04-03T06:18:06.000Z</time>
      </trkpt>
      <trkpt lat="49.66504" lon="4.7832">
        <ele>299</ele>
        <time>2022-04-03T06:18:07.000Z</time>
      </trkpt>
      <trkpt lat="49.665" lon="4.78313">
        <ele>299</ele>
        <time>2022-04-03T06:18:08.000Z</time>
      </trkpt>
      <trkpt lat="49.66497" lon="4.78306">
        <ele>299</ele>
        <time>2022-04-03T06:18:09.000Z</time>
      </trkpt>
      <trkpt lat="49.66493" lon="4.78299">
        <ele>298</ele>
        <time>2022-04-03T06:18:10.000Z</time>
      </trkpt>
      <trkpt lat="49.66489" lon="4.78293">
        <ele>298</ele>
        <time>2022-04-03T06:18:11.000Z</time>
      </trkpt>
      <trkpt lat="49.66486" lon="4.78286">
        <ele>298</ele>
        <time>2022-04-03T06:18:12.000Z</time>
      </trkpt>
      <trkpt lat="49.66482" lon="4.78279">
        <ele>298</ele>
        <time>2022-04-03T06:18:13.000Z</time>
      </trkpt>
      <trkpt lat="49.66478" lon="4.78272">
        <ele>298</ele>
        <time>2022-04-03T06:18:14.000Z</time>
      </trkpt>
      <trkpt lat="49.66475" lon="4.78266">
        <ele>298</ele>
        <time>2022-04-03T06:18:15.000Z</time>
      </trkpt>
      <trkpt lat="49.66471" lon="4.78259">
        <ele>298</ele>
        <time>2022-04-03T06:18:16.000Z</time>
      </trkpt>
      <trkpt lat="49.66467" lon="4.78251">
        <ele>297</ele>
        <time>2022-04-03T06:18:17.000Z</time>
      </trkpt>
      <trkpt lat="49.66465" lon="4.78244">
        <ele>297</ele>
        <time>2022-04-03T06:18:18.000Z</time>
      </trkpt>
      <trkpt lat="49.66462" lon="4.78236">
        <ele>297</ele>
        <time>2022-04-03T06:18:19.000Z</time>
      </trkpt>
      <trkpt lat="49.6646" lon="4.78228">
        <ele>297</ele>
        <time>2022-04-03T06:18:20.000Z</time>
      </trkpt>
      <trkpt lat="49.66458" lon="4.78215">
        <ele>297</ele>
        <time>2022-04-03T06:18:21.000Z</time>
      </trkpt>
      <trkpt lat="49.66457" lon="4.7821">
        <ele>297</ele>
        <time>2022-04-03T06:18:22.000Z</time>
      </trkpt>
      <trkpt lat="49.66456" lon="4.78206">
        <ele>297</ele>
        <time>2022-04-03T06:18:23.000Z</time>
      </trkpt>
      <trkpt lat="49.66456" lon="4.78203">
        <ele>297</ele>
        <time>2022-04-03T06:18:24.000Z</time>
      </trkpt>
      <trkpt lat="49.66456" lon="4.78201">
        <ele>297</ele>
        <time>2022-04-03T06:18:25.000Z</time>
      </trkpt>
      <trkpt lat="49.66456" lon="4.78199">
        <ele>297</ele>
        <time>2022-04-03T06:18:26.000Z</time>
      </trkpt>
      <trkpt lat="49.66456" lon="4.78199">
        <ele>297</ele>
        <time>2022-04-03T06:18:27.000Z</time>
      </trkpt>
      <trkpt lat="49.66454" lon="4.78194">
        <ele>297</ele>
        <time>2022-04-03T06:18:28.000Z</time>
      </trkpt>
      <trkpt lat="49.66454" lon="4.78194">
        <ele>297</ele>
        <time>2022-04-03T06:18:29.000Z</time>
      </trkpt>
      <trkpt lat="49.66454" lon="4.78189">
        <ele>297</ele>
        <time>2022-04-03T06:18:30.000Z</time>
      </trkpt>
      <trkpt lat="49.66454" lon="4.78183">
        <ele>297</ele>
        <time>2022-04-03T06:18:31.000Z</time>
      </trkpt>
      <trkpt lat="49.66454" lon="4.7818">
        <ele>297</ele>
        <time>2022-04-03T06:18:32.000Z</time>
      </trkpt>
      <trkpt lat="49.66454" lon="4.78179">
        <ele>297</ele>
        <time>2022-04-03T06:18:33.000Z</time>
      </trkpt>
      <trkpt lat="49.66454" lon="4.78179">
        <ele>297</ele>
        <time>2022-04-03T06:18:34.000Z</time>
      </trkpt>
      <trkpt lat="49.66455" lon="4.78178">
        <ele>297</ele>
        <time>2022-04-03T06:18:35.000Z</time>
      </trkpt>
      <trkpt lat="49.66456" lon="4.78176">
        <ele>297</ele>
        <time>2022-04-03T06:18:36.000Z</time>
      </trkpt>
      <trkpt lat="49.66458" lon="4.78176">
        <ele>297</ele>
        <time>2022-04-03T06:18:37.000Z</time>
      </trkpt>
      <trkpt lat="49.6646" lon="4.78176">
        <ele>297</ele>
        <time>2022-04-03T06:18:38.000Z</time>
      </trkpt>
      <trkpt lat="49.66463" lon="4.78177">
        <ele>297</ele>
        <time>2022-04-03T06:18:39.000Z</time>
      </trkpt>
      <trkpt lat="49.66465" lon="4.78177">
        <ele>297</ele>
        <time>2022-04-03T06:18:40.000Z</time>
      </trkpt>
      <trkpt lat="49.66467" lon="4.78178">
        <ele>297</ele>
        <time>2022-04-03T06:18:41.000Z</time>
      </trkpt>
      <trkpt lat="49.66467" lon="4.78178">
        <ele>297</ele>
        <time>2022-04-03T06:18:42.000Z</time>
      </trkpt>
      <trkpt lat="49.66467" lon="4.78178">
        <ele>297</ele>
        <time>2022-04-03T06:18:43.000Z</time>
      </trkpt>
      <trkpt lat="49.66467" lon="4.78178">
        <ele>297</ele>
        <time>2022-04-03T06:18:44.000Z</time>
      </trkpt>
      <trkpt lat="49.66468" lon="4.78178">
        <ele>297</ele>
        <time>2022-04-03T06:18:45.000Z</time>
      </trkpt>
      <trkpt lat="49.6647" lon="4.78178">
        <ele>297</ele>
        <time>2022-04-03T06:18:46.000Z</time>
      </trkpt>
      <trkpt lat="49.66472" lon="4.78178">
        <ele>297</ele>
        <time>2022-04-03T06:18:47.000Z</time>
      </trkpt>
      <trkpt lat="49.66473" lon="4.78178">
        <ele>297</ele>
        <time>2022-04-03T06:18:48.000Z</time>
      </trkpt>
      <trkpt lat="49.66475" lon="4.78178">
        <ele>297</ele>
        <time>2022-04-03T06:18:49.000Z</time>
      </trkpt>
      <trkpt lat="49.66476" lon="4.78178">
        <ele>297</ele>
        <time>2022-04-03T06:18:50.000Z</time>
      </trkpt>
      <trkpt lat="49.66479" lon="4.78177">
        <ele>297</ele>
        <time>2022-04-03T06:18:51.000Z</time>
      </trkpt>
      <trkpt lat="49.66481" lon="4.78176">
        <ele>297</ele>
        <time>2022-04-03T06:18:52.000Z</time>
      </trkpt>
      <trkpt lat="49.66484" lon="4.78173">
        <ele>297</ele>
        <time>2022-04-03T06:18:53.000Z</time>
      </trkpt>
      <trkpt lat="49.66487" lon="4.78168">
        <ele>297</ele>
        <time>2022-04-03T06:18:54.000Z</time>
      </trkpt>
      <trkpt lat="49.6649" lon="4.78163">
        <ele>297</ele>
        <time>2022-04-03T06:18:55.000Z</time>
      </trkpt>
      <trkpt lat="49.66493" lon="4.78158">
        <ele>297</ele>
        <time>2022-04-03T06:18:56.000Z</time>
      </trkpt>
      <trkpt lat="49.66496" lon="4.78151">
        <ele>296</ele>
        <time>2022-04-03T06:18:57.000Z</time>
      </trkpt>
      <trkpt lat="49.665" lon="4.78145">
        <ele>296</ele>
        <time>2022-04-03T06:18:58.000Z</time>
      </trkpt>
      <trkpt lat="49.66503" lon="4.78138">
        <ele>296</ele>
        <time>2022-04-03T06:18:59.000Z</time>
      </trkpt>
      <trkpt lat="49.66507" lon="4.78131">
        <ele>296</ele>
        <time>2022-04-03T06:19:00.000Z</time>
      </trkpt>
      <trkpt lat="49.66511" lon="4.78124">
        <ele>296</ele>
        <time>2022-04-03T06:19:01.000Z</time>
      </trkpt>
      <trkpt lat="49.66513" lon="4.78116">
        <ele>295</ele>
        <time>2022-04-03T06:19:02.000Z</time>
      </trkpt>
      <trkpt lat="49.66516" lon="4.78109">
        <ele>295</ele>
        <time>2022-04-03T06:19:03.000Z</time>
      </trkpt>
      <trkpt lat="49.66519" lon="4.78101">
        <ele>295</ele>
        <time>2022-04-03T06:19:04.000Z</time>
      </trkpt>
      <trkpt lat="49.66522" lon="4.78093">
        <ele>295</ele>
        <time>2022-04-03T06:19:05.000Z</time>
      </trkpt>
      <trkpt lat="49.66524" lon="4.78084">
        <ele>295</ele>
        <time>2022-04-03T06:19:06.000Z</time>
      </trkpt>
      <trkpt lat="49.66527" lon="4.78075">
        <ele>294</ele>
        <time>2022-04-03T06:19:07.000Z</time>
      </trkpt>
      <trkpt lat="49.66529" lon="4.78067">
        <ele>294</ele>
        <time>2022-04-03T06:19:08.000Z</time>
      </trkpt>
      <trkpt lat="49.66531" lon="4.7806">
        <ele>294</ele>
        <time>2022-04-03T06:19:09.000Z</time>
      </trkpt>
      <trkpt lat="49.66533" lon="4.78054">
        <ele>294</ele>
        <time>2022-04-03T06:19:10.000Z</time>
      </trkpt>
      <trkpt lat="49.66533" lon="4.78047">
        <ele>294</ele>
        <time>2022-04-03T06:19:11.000Z</time>
      </trkpt>
      <trkpt lat="49.66532" lon="4.78039">
        <ele>293</ele>
        <time>2022-04-03T06:19:12.000Z</time>
      </trkpt>
      <trkpt lat="49.6653" lon="4.78029">
        <ele>293</ele>
        <time>2022-04-03T06:19:13.000Z</time>
      </trkpt>
      <trkpt lat="49.66529" lon="4.78019">
        <ele>293</ele>
        <time>2022-04-03T06:19:14.000Z</time>
      </trkpt>
      <trkpt lat="49.66528" lon="4.7801">
        <ele>293</ele>
        <time>2022-04-03T06:19:15.000Z</time>
      </trkpt>
      <trkpt lat="49.66526" lon="4.78">
        <ele>293</ele>
        <time>2022-04-03T06:19:16.000Z</time>
      </trkpt>
      <trkpt lat="49.66525" lon="4.77991">
        <ele>292</ele>
        <time>2022-04-03T06:19:17.000Z</time>
      </trkpt>
      <trkpt lat="49.66524" lon="4.77984">
        <ele>292</ele>
        <time>2022-04-03T06:19:18.000Z</time>
      </trkpt>
      <trkpt lat="49.66523" lon="4.77976">
        <ele>292</ele>
        <time>2022-04-03T06:19:19.000Z</time>
      </trkpt>
      <trkpt lat="49.66521" lon="4.77968">
        <ele>292</ele>
        <time>2022-04-03T06:19:20.000Z</time>
      </trkpt>
      <trkpt lat="49.6652" lon="4.7796">
        <ele>292</ele>
        <time>2022-04-03T06:19:21.000Z</time>
      </trkpt>
      <trkpt lat="49.66518" lon="4.77952">
        <ele>292</ele>
        <time>2022-04-03T06:19:22.000Z</time>
      </trkpt>
      <trkpt lat="49.66517" lon="4.77944">
        <ele>292</ele>
        <time>2022-04-03T06:19:23.000Z</time>
      </trkpt>
      <trkpt lat="49.66517" lon="4.77936">
        <ele>292</ele>
        <time>2022-04-03T06:19:24.000Z</time>
      </trkpt>
      <trkpt lat="49.66516" lon="4.77929">
        <ele>292</ele>
        <time>2022-04-03T06:19:25.000Z</time>
      </trkpt>
      <trkpt lat="49.66516" lon="4.77921">
        <ele>291</ele>
        <time>2022-04-03T06:19:26.000Z</time>
      </trkpt>
      <trkpt lat="49.66516" lon="4.77912">
        <ele>291</ele>
        <time>2022-04-03T06:19:27.000Z</time>
      </trkpt>
      <trkpt lat="49.66516" lon="4.77903">
        <ele>291</ele>
        <time>2022-04-03T06:19:28.000Z</time>
      </trkpt>
      <trkpt lat="49.66516" lon="4.77894">
        <ele>291</ele>
        <time>2022-04-03T06:19:29.000Z</time>
      </trkpt>
      <trkpt lat="49.66515" lon="4.77884">
        <ele>291</ele>
        <time>2022-04-03T06:19:30.000Z</time>
      </trkpt>
      <trkpt lat="49.66515" lon="4.77874">
        <ele>291</ele>
        <time>2022-04-03T06:19:31.000Z</time>
      </trkpt>
      <trkpt lat="49.66516" lon="4.77865">
        <ele>290</ele>
        <time>2022-04-03T06:19:32.000Z</time>
      </trkpt>
      <trkpt lat="49.66516" lon="4.77856">
        <ele>290</ele>
        <time>2022-04-03T06:19:33.000Z</time>
      </trkpt>
      <trkpt lat="49.66518" lon="4.77848">
        <ele>290</ele>
        <time>2022-04-03T06:19:34.000Z</time>
      </trkpt>
      <trkpt lat="49.66518" lon="4.7784">
        <ele>290</ele>
        <time>2022-04-03T06:19:35.000Z</time>
      </trkpt>
      <trkpt lat="49.66519" lon="4.77833">
        <ele>290</ele>
        <time>2022-04-03T06:19:36.000Z</time>
      </trkpt>
      <trkpt lat="49.66519" lon="4.77825">
        <ele>290</ele>
        <time>2022-04-03T06:19:37.000Z</time>
      </trkpt>
      <trkpt lat="49.6652" lon="4.77817">
        <ele>289</ele>
        <time>2022-04-03T06:19:38.000Z</time>
      </trkpt>
      <trkpt lat="49.66521" lon="4.7781">
        <ele>289</ele>
        <time>2022-04-03T06:19:39.000Z</time>
      </trkpt>
      <trkpt lat="49.66523" lon="4.77802">
        <ele>289</ele>
        <time>2022-04-03T06:19:40.000Z</time>
      </trkpt>
      <trkpt lat="49.66525" lon="4.77795">
        <ele>289</ele>
        <time>2022-04-03T06:19:41.000Z</time>
      </trkpt>
      <trkpt lat="49.66526" lon="4.77787">
        <ele>289</ele>
        <time>2022-04-03T06:19:42.000Z</time>
      </trkpt>
      <trkpt lat="49.66528" lon="4.77779">
        <ele>289</ele>
        <time>2022-04-03T06:19:43.000Z</time>
      </trkpt>
      <trkpt lat="49.6653" lon="4.77772">
        <ele>289</ele>
        <time>2022-04-03T06:19:44.000Z</time>
      </trkpt>
      <trkpt lat="49.66533" lon="4.77765">
        <ele>289</ele>
        <time>2022-04-03T06:19:45.000Z</time>
      </trkpt>
      <trkpt lat="49.66535" lon="4.77757">
        <ele>289</ele>
        <time>2022-04-03T06:19:46.000Z</time>
      </trkpt>
      <trkpt lat="49.66537" lon="4.7775">
        <ele>289</ele>
        <time>2022-04-03T06:19:47.000Z</time>
      </trkpt>
      <trkpt lat="49.66539" lon="4.77743">
        <ele>288</ele>
        <time>2022-04-03T06:19:48.000Z</time>
      </trkpt>
      <trkpt lat="49.66541" lon="4.77736">
        <ele>288</ele>
        <time>2022-04-03T06:19:49.000Z</time>
      </trkpt>
      <trkpt lat="49.66544" lon="4.77729">
        <ele>288</ele>
        <time>2022-04-03T06:19:50.000Z</time>
      </trkpt>
      <trkpt lat="49.66547" lon="4.77721">
        <ele>288</ele>
        <time>2022-04-03T06:19:51.000Z</time>
      </trkpt>
      <trkpt lat="49.66551" lon="4.77714">
        <ele>288</ele>
        <time>2022-04-03T06:19:52.000Z</time>
      </trkpt>
      <trkpt lat="49.66555" lon="4.77708">
        <ele>288</ele>
        <time>2022-04-03T06:19:53.000Z</time>
      </trkpt>
      <trkpt lat="49.66559" lon="4.77702">
        <ele>287</ele>
        <time>2022-04-03T06:19:54.000Z</time>
      </trkpt>
      <trkpt lat="49.66562" lon="4.77695">
        <ele>287</ele>
        <time>2022-04-03T06:19:55.000Z</time>
      </trkpt>
      <trkpt lat="49.66564" lon="4.77689">
        <ele>287</ele>
        <time>2022-04-03T06:19:56.000Z</time>
      </trkpt>
      <trkpt lat="49.66566" lon="4.77682">
        <ele>287</ele>
        <time>2022-04-03T06:19:57.000Z</time>
      </trkpt>
      <trkpt lat="49.66568" lon="4.77674">
        <ele>286</ele>
        <time>2022-04-03T06:19:58.000Z</time>
      </trkpt>
      <trkpt lat="49.6657" lon="4.77666">
        <ele>286</ele>
        <time>2022-04-03T06:19:59.000Z</time>
      </trkpt>
      <trkpt lat="49.66573" lon="4.77658">
        <ele>286</ele>
        <time>2022-04-03T06:20:00.000Z</time>
      </trkpt>
      <trkpt lat="49.66576" lon="4.77651">
        <ele>286</ele>
        <time>2022-04-03T06:20:01.000Z</time>
      </trkpt>
      <trkpt lat="49.6658" lon="4.77644">
        <ele>285</ele>
        <time>2022-04-03T06:20:02.000Z</time>
      </trkpt>
      <trkpt lat="49.66584" lon="4.77637">
        <ele>285</ele>
        <time>2022-04-03T06:20:03.000Z</time>
      </trkpt>
      <trkpt lat="49.66588" lon="4.77631">
        <ele>285</ele>
        <time>2022-04-03T06:20:04.000Z</time>
      </trkpt>
      <trkpt lat="49.66592" lon="4.77624">
        <ele>285</ele>
        <time>2022-04-03T06:20:05.000Z</time>
      </trkpt>
      <trkpt lat="49.66596" lon="4.77617">
        <ele>284</ele>
        <time>2022-04-03T06:20:06.000Z</time>
      </trkpt>
      <trkpt lat="49.666" lon="4.7761">
        <ele>284</ele>
        <time>2022-04-03T06:20:07.000Z</time>
      </trkpt>
      <trkpt lat="49.66604" lon="4.77603">
        <ele>284</ele>
        <time>2022-04-03T06:20:08.000Z</time>
      </trkpt>
      <trkpt lat="49.66608" lon="4.77595">
        <ele>284</ele>
        <time>2022-04-03T06:20:09.000Z</time>
      </trkpt>
      <trkpt lat="49.66611" lon="4.77588">
        <ele>284</ele>
        <time>2022-04-03T06:20:10.000Z</time>
      </trkpt>
      <trkpt lat="49.66615" lon="4.7758">
        <ele>283</ele>
        <time>2022-04-03T06:20:11.000Z</time>
      </trkpt>
      <trkpt lat="49.66618" lon="4.77572">
        <ele>283</ele>
        <time>2022-04-03T06:20:12.000Z</time>
      </trkpt>
      <trkpt lat="49.66622" lon="4.77565">
        <ele>282</ele>
        <time>2022-04-03T06:20:13.000Z</time>
      </trkpt>
      <trkpt lat="49.66626" lon="4.77558">
        <ele>282</ele>
        <time>2022-04-03T06:20:14.000Z</time>
      </trkpt>
      <trkpt lat="49.6663" lon="4.77551">
        <ele>281</ele>
        <time>2022-04-03T06:20:15.000Z</time>
      </trkpt>
      <trkpt lat="49.66633" lon="4.77544">
        <ele>281</ele>
        <time>2022-04-03T06:20:16.000Z</time>
      </trkpt>
      <trkpt lat="49.66637" lon="4.77537">
        <ele>281</ele>
        <time>2022-04-03T06:20:17.000Z</time>
      </trkpt>
      <trkpt lat="49.66641" lon="4.77531">
        <ele>281</ele>
        <time>2022-04-03T06:20:18.000Z</time>
      </trkpt>
      <trkpt lat="49.66645" lon="4.77525">
        <ele>280</ele>
        <time>2022-04-03T06:20:19.000Z</time>
      </trkpt>
      <trkpt lat="49.66648" lon="4.77518">
        <ele>280</ele>
        <time>2022-04-03T06:20:20.000Z</time>
      </trkpt>
      <trkpt lat="49.66652" lon="4.77512">
        <ele>280</ele>
        <time>2022-04-03T06:20:21.000Z</time>
      </trkpt>
      <trkpt lat="49.66657" lon="4.77505">
        <ele>280</ele>
        <time>2022-04-03T06:20:22.000Z</time>
      </trkpt>
      <trkpt lat="49.6666" lon="4.77499">
        <ele>280</ele>
        <time>2022-04-03T06:20:23.000Z</time>
      </trkpt>
      <trkpt lat="49.66662" lon="4.77493">
        <ele>280</ele>
        <time>2022-04-03T06:20:24.000Z</time>
      </trkpt>
      <trkpt lat="49.66664" lon="4.77486">
        <ele>279</ele>
        <time>2022-04-03T06:20:25.000Z</time>
      </trkpt>
      <trkpt lat="49.66666" lon="4.7748">
        <ele>279</ele>
        <time>2022-04-03T06:20:26.000Z</time>
      </trkpt>
      <trkpt lat="49.66668" lon="4.77473">
        <ele>279</ele>
        <time>2022-04-03T06:20:27.000Z</time>
      </trkpt>
      <trkpt lat="49.6667" lon="4.77467">
        <ele>279</ele>
        <time>2022-04-03T06:20:28.000Z</time>
      </trkpt>
      <trkpt lat="49.66671" lon="4.7746">
        <ele>279</ele>
        <time>2022-04-03T06:20:29.000Z</time>
      </trkpt>
      <trkpt lat="49.66674" lon="4.77453">
        <ele>278</ele>
        <time>2022-04-03T06:20:30.000Z</time>
      </trkpt>
      <trkpt lat="49.66676" lon="4.77447">
        <ele>278</ele>
        <time>2022-04-03T06:20:31.000Z</time>
      </trkpt>
      <trkpt lat="49.66679" lon="4.77441">
        <ele>278</ele>
        <time>2022-04-03T06:20:32.000Z</time>
      </trkpt>
      <trkpt lat="49.66681" lon="4.77435">
        <ele>278</ele>
        <time>2022-04-03T06:20:33.000Z</time>
      </trkpt>
      <trkpt lat="49.66684" lon="4.77428">
        <ele>278</ele>
        <time>2022-04-03T06:20:34.000Z</time>
      </trkpt>
      <trkpt lat="49.66687" lon="4.77421">
        <ele>278</ele>
        <time>2022-04-03T06:20:35.000Z</time>
      </trkpt>
      <trkpt lat="49.6669" lon="4.77415">
        <ele>277</ele>
        <time>2022-04-03T06:20:36.000Z</time>
      </trkpt>
      <trkpt lat="49.66694" lon="4.77408">
        <ele>277</ele>
        <time>2022-04-03T06:20:37.000Z</time>
      </trkpt>
      <trkpt lat="49.66697" lon="4.77401">
        <ele>277</ele>
        <time>2022-04-03T06:20:38.000Z</time>
      </trkpt>
      <trkpt lat="49.667" lon="4.77395">
        <ele>277</ele>
        <time>2022-04-03T06:20:39.000Z</time>
      </trkpt>
      <trkpt lat="49.66702" lon="4.77388">
        <ele>277</ele>
        <time>2022-04-03T06:20:40.000Z</time>
      </trkpt>
      <trkpt lat="49.66705" lon="4.77381">
        <ele>277</ele>
        <time>2022-04-03T06:20:41.000Z</time>
      </trkpt>
      <trkpt lat="49.66707" lon="4.77373">
        <ele>276</ele>
        <time>2022-04-03T06:20:42.000Z</time>
      </trkpt>
      <trkpt lat="49.6671" lon="4.77365">
        <ele>276</ele>
        <time>2022-04-03T06:20:43.000Z</time>
      </trkpt>
      <trkpt lat="49.66713" lon="4.77358">
        <ele>276</ele>
        <time>2022-04-03T06:20:44.000Z</time>
      </trkpt>
      <trkpt lat="49.66716" lon="4.7735">
        <ele>276</ele>
        <time>2022-04-03T06:20:45.000Z</time>
      </trkpt>
      <trkpt lat="49.66719" lon="4.77343">
        <ele>276</ele>
        <time>2022-04-03T06:20:46.000Z</time>
      </trkpt>
      <trkpt lat="49.66722" lon="4.77336">
        <ele>276</ele>
        <time>2022-04-03T06:20:47.000Z</time>
      </trkpt>
      <trkpt lat="49.66725" lon="4.77329">
        <ele>276</ele>
        <time>2022-04-03T06:20:48.000Z</time>
      </trkpt>
      <trkpt lat="49.66728" lon="4.77322">
        <ele>276</ele>
        <time>2022-04-03T06:20:49.000Z</time>
      </trkpt>
      <trkpt lat="49.66731" lon="4.77314">
        <ele>276</ele>
        <time>2022-04-03T06:20:50.000Z</time>
      </trkpt>
      <trkpt lat="49.66734" lon="4.77307">
        <ele>276</ele>
        <time>2022-04-03T06:20:51.000Z</time>
      </trkpt>
      <trkpt lat="49.66737" lon="4.773">
        <ele>276</ele>
        <time>2022-04-03T06:20:52.000Z</time>
      </trkpt>
      <trkpt lat="49.66739" lon="4.77294">
        <ele>276</ele>
        <time>2022-04-03T06:20:53.000Z</time>
      </trkpt>
      <trkpt lat="49.66741" lon="4.77287">
        <ele>276</ele>
        <time>2022-04-03T06:20:54.000Z</time>
      </trkpt>
      <trkpt lat="49.66744" lon="4.77281">
        <ele>276</ele>
        <time>2022-04-03T06:20:55.000Z</time>
      </trkpt>
      <trkpt lat="49.66747" lon="4.77274">
        <ele>276</ele>
        <time>2022-04-03T06:20:56.000Z</time>
      </trkpt>
      <trkpt lat="49.66749" lon="4.77268">
        <ele>276</ele>
        <time>2022-04-03T06:20:57.000Z</time>
      </trkpt>
      <trkpt lat="49.66751" lon="4.77261">
        <ele>276</ele>
        <time>2022-04-03T06:20:58.000Z</time>
      </trkpt>
      <trkpt lat="49.66753" lon="4.77253">
        <ele>275</ele>
        <time>2022-04-03T06:20:59.000Z</time>
      </trkpt>
      <trkpt lat="49.66755" lon="4.77246">
        <ele>275</ele>
        <time>2022-04-03T06:21:00.000Z</time>
      </trkpt>
      <trkpt lat="49.66757" lon="4.77239">
        <ele>275</ele>
        <time>2022-04-03T06:21:01.000Z</time>
      </trkpt>
      <trkpt lat="49.66758" lon="4.77231">
        <ele>275</ele>
        <time>2022-04-03T06:21:02.000Z</time>
      </trkpt>
      <trkpt lat="49.6676" lon="4.77224">
        <ele>275</ele>
        <time>2022-04-03T06:21:03.000Z</time>
      </trkpt>
      <trkpt lat="49.66761" lon="4.77217">
        <ele>275</ele>
        <time>2022-04-03T06:21:04.000Z</time>
      </trkpt>
      <trkpt lat="49.66763" lon="4.7721">
        <ele>274</ele>
        <time>2022-04-03T06:21:05.000Z</time>
      </trkpt>
      <trkpt lat="49.66764" lon="4.77203">
        <ele>274</ele>
        <time>2022-04-03T06:21:06.000Z</time>
      </trkpt>
      <trkpt lat="49.66766" lon="4.77196">
        <ele>274</ele>
        <time>2022-04-03T06:21:07.000Z</time>
      </trkpt>
      <trkpt lat="49.66767" lon="4.77189">
        <ele>274</ele>
        <time>2022-04-03T06:21:08.000Z</time>
      </trkpt>
      <trkpt lat="49.66769" lon="4.77182">
        <ele>273</ele>
        <time>2022-04-03T06:21:09.000Z</time>
      </trkpt>
      <trkpt lat="49.66771" lon="4.77175">
        <ele>273</ele>
        <time>2022-04-03T06:21:10.000Z</time>
      </trkpt>
      <trkpt lat="49.66773" lon="4.77168">
        <ele>273</ele>
        <time>2022-04-03T06:21:11.000Z</time>
      </trkpt>
      <trkpt lat="49.66775" lon="4.77161">
        <ele>273</ele>
        <time>2022-04-03T06:21:12.000Z</time>
      </trkpt>
      <trkpt lat="49.66776" lon="4.77153">
        <ele>273</ele>
        <time>2022-04-03T06:21:13.000Z</time>
      </trkpt>
      <trkpt lat="49.66778" lon="4.77147">
        <ele>272</ele>
        <time>2022-04-03T06:21:14.000Z</time>
      </trkpt>
      <trkpt lat="49.66778" lon="4.77139">
        <ele>272</ele>
        <time>2022-04-03T06:21:15.000Z</time>
      </trkpt>
      <trkpt lat="49.66779" lon="4.77132">
        <ele>272</ele>
        <time>2022-04-03T06:21:16.000Z</time>
      </trkpt>
      <trkpt lat="49.66779" lon="4.77126">
        <ele>271</ele>
        <time>2022-04-03T06:21:17.000Z</time>
      </trkpt>
      <trkpt lat="49.6678" lon="4.7712">
        <ele>271</ele>
        <time>2022-04-03T06:21:18.000Z</time>
      </trkpt>
      <trkpt lat="49.6678" lon="4.77114">
        <ele>271</ele>
        <time>2022-04-03T06:21:19.000Z</time>
      </trkpt>
      <trkpt lat="49.6678" lon="4.77107">
        <ele>271</ele>
        <time>2022-04-03T06:21:20.000Z</time>
      </trkpt>
      <trkpt lat="49.66781" lon="4.77101">
        <ele>271</ele>
        <time>2022-04-03T06:21:21.000Z</time>
      </trkpt>
      <trkpt lat="49.66781" lon="4.77096">
        <ele>271</ele>
        <time>2022-04-03T06:21:22.000Z</time>
      </trkpt>
      <trkpt lat="49.66781" lon="4.77091">
        <ele>270</ele>
        <time>2022-04-03T06:21:23.000Z</time>
      </trkpt>
      <trkpt lat="49.66781" lon="4.77087">
        <ele>270</ele>
        <time>2022-04-03T06:21:24.000Z</time>
      </trkpt>
      <trkpt lat="49.66782" lon="4.77081">
        <ele>270</ele>
        <time>2022-04-03T06:21:25.000Z</time>
      </trkpt>
      <trkpt lat="49.66783" lon="4.77076">
        <ele>270</ele>
        <time>2022-04-03T06:21:26.000Z</time>
      </trkpt>
      <trkpt lat="49.66783" lon="4.7707">
        <ele>270</ele>
        <time>2022-04-03T06:21:27.000Z</time>
      </trkpt>
      <trkpt lat="49.66784" lon="4.77064">
        <ele>270</ele>
        <time>2022-04-03T06:21:28.000Z</time>
      </trkpt>
      <trkpt lat="49.66785" lon="4.77057">
        <ele>270</ele>
        <time>2022-04-03T06:21:29.000Z</time>
      </trkpt>
      <trkpt lat="49.66787" lon="4.77052">
        <ele>270</ele>
        <time>2022-04-03T06:21:30.000Z</time>
      </trkpt>
      <trkpt lat="49.66788" lon="4.77046">
        <ele>270</ele>
        <time>2022-04-03T06:21:31.000Z</time>
      </trkpt>
      <trkpt lat="49.66789" lon="4.77041">
        <ele>270</ele>
        <time>2022-04-03T06:21:32.000Z</time>
      </trkpt>
      <trkpt lat="49.66791" lon="4.77035">
        <ele>269</ele>
        <time>2022-04-03T06:21:33.000Z</time>
      </trkpt>
      <trkpt lat="49.66791" lon="4.77029">
        <ele>269</ele>
        <time>2022-04-03T06:21:34.000Z</time>
      </trkpt>
      <trkpt lat="49.66792" lon="4.77023">
        <ele>269</ele>
        <time>2022-04-03T06:21:35.000Z</time>
      </trkpt>
      <trkpt lat="49.66794" lon="4.77016">
        <ele>269</ele>
        <time>2022-04-03T06:21:36.000Z</time>
      </trkpt>
      <trkpt lat="49.66796" lon="4.7701">
        <ele>269</ele>
        <time>2022-04-03T06:21:37.000Z</time>
      </trkpt>
      <trkpt lat="49.66797" lon="4.77003">
        <ele>269</ele>
        <time>2022-04-03T06:21:38.000Z</time>
      </trkpt>
      <trkpt lat="49.66798" lon="4.76997">
        <ele>269</ele>
        <time>2022-04-03T06:21:39.000Z</time>
      </trkpt>
      <trkpt lat="49.66799" lon="4.76992">
        <ele>269</ele>
        <time>2022-04-03T06:21:40.000Z</time>
      </trkpt>
      <trkpt lat="49.668" lon="4.76987">
        <ele>269</ele>
        <time>2022-04-03T06:21:41.000Z</time>
      </trkpt>
      <trkpt lat="49.668" lon="4.76982">
        <ele>269</ele>
        <time>2022-04-03T06:21:42.000Z</time>
      </trkpt>
      <trkpt lat="49.66801" lon="4.76977">
        <ele>268</ele>
        <time>2022-04-03T06:21:43.000Z</time>
      </trkpt>
      <trkpt lat="49.66801" lon="4.76972">
        <ele>268</ele>
        <time>2022-04-03T06:21:44.000Z</time>
      </trkpt>
      <trkpt lat="49.66802" lon="4.76968">
        <ele>268</ele>
        <time>2022-04-03T06:21:45.000Z</time>
      </trkpt>
      <trkpt lat="49.66803" lon="4.76963">
        <ele>268</ele>
        <time>2022-04-03T06:21:46.000Z</time>
      </trkpt>
      <trkpt lat="49.66805" lon="4.76958">
        <ele>268</ele>
        <time>2022-04-03T06:21:47.000Z</time>
      </trkpt>
      <trkpt lat="49.66806" lon="4.76952">
        <ele>268</ele>
        <time>2022-04-03T06:21:48.000Z</time>
      </trkpt>
      <trkpt lat="49.66807" lon="4.76946">
        <ele>268</ele>
        <time>2022-04-03T06:21:49.000Z</time>
      </trkpt>
      <trkpt lat="49.66807" lon="4.7694">
        <ele>268</ele>
        <time>2022-04-03T06:21:50.000Z</time>
      </trkpt>
      <trkpt lat="49.66808" lon="4.76935">
        <ele>268</ele>
        <time>2022-04-03T06:21:51.000Z</time>
      </trkpt>
      <trkpt lat="49.66809" lon="4.76931">
        <ele>268</ele>
        <time>2022-04-03T06:21:52.000Z</time>
      </trkpt>
      <trkpt lat="49.66809" lon="4.76925">
        <ele>268</ele>
        <time>2022-04-03T06:21:53.000Z</time>
      </trkpt>
      <trkpt lat="49.66811" lon="4.76919">
        <ele>268</ele>
        <time>2022-04-03T06:21:54.000Z</time>
      </trkpt>
      <trkpt lat="49.66813" lon="4.76912">
        <ele>268</ele>
        <time>2022-04-03T06:21:55.000Z</time>
      </trkpt>
      <trkpt lat="49.66816" lon="4.76906">
        <ele>268</ele>
        <time>2022-04-03T06:21:56.000Z</time>
      </trkpt>
      <trkpt lat="49.66818" lon="4.76899">
        <ele>268</ele>
        <time>2022-04-03T06:21:57.000Z</time>
      </trkpt>
      <trkpt lat="49.66822" lon="4.76893">
        <ele>267</ele>
        <time>2022-04-03T06:21:58.000Z</time>
      </trkpt>
      <trkpt lat="49.66825" lon="4.76888">
        <ele>267</ele>
        <time>2022-04-03T06:21:59.000Z</time>
      </trkpt>
      <trkpt lat="49.66828" lon="4.76882">
        <ele>267</ele>
        <time>2022-04-03T06:22:00.000Z</time>
      </trkpt>
      <trkpt lat="49.66832" lon="4.76876">
        <ele>267</ele>
        <time>2022-04-03T06:22:01.000Z</time>
      </trkpt>
      <trkpt lat="49.66836" lon="4.7687">
        <ele>267</ele>
        <time>2022-04-03T06:22:02.000Z</time>
      </trkpt>
      <trkpt lat="49.6684" lon="4.76866">
        <ele>267</ele>
        <time>2022-04-03T06:22:03.000Z</time>
      </trkpt>
      <trkpt lat="49.66844" lon="4.76862">
        <ele>267</ele>
        <time>2022-04-03T06:22:04.000Z</time>
      </trkpt>
      <trkpt lat="49.66847" lon="4.76858">
        <ele>267</ele>
        <time>2022-04-03T06:22:05.000Z</time>
      </trkpt>
      <trkpt lat="49.6685" lon="4.76855">
        <ele>267</ele>
        <time>2022-04-03T06:22:06.000Z</time>
      </trkpt>
      <trkpt lat="49.66855" lon="4.76851">
        <ele>267</ele>
        <time>2022-04-03T06:22:07.000Z</time>
      </trkpt>
      <trkpt lat="49.66859" lon="4.76846">
        <ele>267</ele>
        <time>2022-04-03T06:22:08.000Z</time>
      </trkpt>
      <trkpt lat="49.66863" lon="4.7684">
        <ele>268</ele>
        <time>2022-04-03T06:22:09.000Z</time>
      </trkpt>
      <trkpt lat="49.66867" lon="4.76835">
        <ele>268</ele>
        <time>2022-04-03T06:22:10.000Z</time>
      </trkpt>
      <trkpt lat="49.66871" lon="4.76831">
        <ele>268</ele>
        <time>2022-04-03T06:22:11.000Z</time>
      </trkpt>
      <trkpt lat="49.66874" lon="4.76828">
        <ele>268</ele>
        <time>2022-04-03T06:22:12.000Z</time>
      </trkpt>
      <trkpt lat="49.66877" lon="4.76825">
        <ele>268</ele>
        <time>2022-04-03T06:22:13.000Z</time>
      </trkpt>
      <trkpt lat="49.6688" lon="4.76821">
        <ele>268</ele>
        <time>2022-04-03T06:22:14.000Z</time>
      </trkpt>
      <trkpt lat="49.66882" lon="4.76817">
        <ele>268</ele>
        <time>2022-04-03T06:22:15.000Z</time>
      </trkpt>
      <trkpt lat="49.66884" lon="4.76814">
        <ele>268</ele>
        <time>2022-04-03T06:22:16.000Z</time>
      </trkpt>
      <trkpt lat="49.66887" lon="4.76811">
        <ele>268</ele>
        <time>2022-04-03T06:22:17.000Z</time>
      </trkpt>
      <trkpt lat="49.66891" lon="4.76807">
        <ele>268</ele>
        <time>2022-04-03T06:22:18.000Z</time>
      </trkpt>
      <trkpt lat="49.66895" lon="4.76804">
        <ele>268</ele>
        <time>2022-04-03T06:22:19.000Z</time>
      </trkpt>
      <trkpt lat="49.66899" lon="4.768">
        <ele>268</ele>
        <time>2022-04-03T06:22:20.000Z</time>
      </trkpt>
      <trkpt lat="49.66903" lon="4.76796">
        <ele>268</ele>
        <time>2022-04-03T06:22:21.000Z</time>
      </trkpt>
      <trkpt lat="49.66906" lon="4.76792">
        <ele>268</ele>
        <time>2022-04-03T06:22:22.000Z</time>
      </trkpt>
      <trkpt lat="49.66911" lon="4.76789">
        <ele>268</ele>
        <time>2022-04-03T06:22:23.000Z</time>
      </trkpt>
      <trkpt lat="49.66915" lon="4.76784">
        <ele>268</ele>
        <time>2022-04-03T06:22:24.000Z</time>
      </trkpt>
      <trkpt lat="49.66918" lon="4.7678">
        <ele>268</ele>
        <time>2022-04-03T06:22:25.000Z</time>
      </trkpt>
      <trkpt lat="49.66922" lon="4.76776">
        <ele>268</ele>
        <time>2022-04-03T06:22:26.000Z</time>
      </trkpt>
      <trkpt lat="49.66926" lon="4.76772">
        <ele>268</ele>
        <time>2022-04-03T06:22:27.000Z</time>
      </trkpt>
      <trkpt lat="49.66929" lon="4.76767">
        <ele>268</ele>
        <time>2022-04-03T06:22:28.000Z</time>
      </trkpt>
      <trkpt lat="49.66933" lon="4.76764">
        <ele>268</ele>
        <time>2022-04-03T06:22:29.000Z</time>
      </trkpt>
      <trkpt lat="49.66936" lon="4.7676">
        <ele>268</ele>
        <time>2022-04-03T06:22:30.000Z</time>
      </trkpt>
      <trkpt lat="49.6694" lon="4.76757">
        <ele>268</ele>
        <time>2022-04-03T06:22:31.000Z</time>
      </trkpt>
      <trkpt lat="49.66943" lon="4.76754">
        <ele>268</ele>
        <time>2022-04-03T06:22:32.000Z</time>
      </trkpt>
      <trkpt lat="49.66947" lon="4.7675">
        <ele>268</ele>
        <time>2022-04-03T06:22:33.000Z</time>
      </trkpt>
      <trkpt lat="49.66951" lon="4.76748">
        <ele>267</ele>
        <time>2022-04-03T06:22:34.000Z</time>
      </trkpt>
      <trkpt lat="49.66956" lon="4.76745">
        <ele>267</ele>
        <time>2022-04-03T06:22:35.000Z</time>
      </trkpt>
      <trkpt lat="49.66961" lon="4.76742">
        <ele>267</ele>
        <time>2022-04-03T06:22:36.000Z</time>
      </trkpt>
      <trkpt lat="49.66966" lon="4.7674">
        <ele>267</ele>
        <time>2022-04-03T06:22:37.000Z</time>
      </trkpt>
      <trkpt lat="49.66971" lon="4.76738">
        <ele>267</ele>
        <time>2022-04-03T06:22:38.000Z</time>
      </trkpt>
      <trkpt lat="49.66976" lon="4.76736">
        <ele>267</ele>
        <time>2022-04-03T06:22:39.000Z</time>
      </trkpt>
      <trkpt lat="49.66981" lon="4.76735">
        <ele>266</ele>
        <time>2022-04-03T06:22:40.000Z</time>
      </trkpt>
      <trkpt lat="49.66985" lon="4.76734">
        <ele>266</ele>
        <time>2022-04-03T06:22:41.000Z</time>
      </trkpt>
      <trkpt lat="49.66989" lon="4.76733">
        <ele>266</ele>
        <time>2022-04-03T06:22:42.000Z</time>
      </trkpt>
      <trkpt lat="49.66992" lon="4.76733">
        <ele>266</ele>
        <time>2022-04-03T06:22:43.000Z</time>
      </trkpt>
      <trkpt lat="49.66996" lon="4.76732">
        <ele>265</ele>
        <time>2022-04-03T06:22:44.000Z</time>
      </trkpt>
      <trkpt lat="49.67" lon="4.76732">
        <ele>265</ele>
        <time>2022-04-03T06:22:45.000Z</time>
      </trkpt>
      <trkpt lat="49.67004" lon="4.76731">
        <ele>265</ele>
        <time>2022-04-03T06:22:46.000Z</time>
      </trkpt>
      <trkpt lat="49.67007" lon="4.7673">
        <ele>264</ele>
        <time>2022-04-03T06:22:47.000Z</time>
      </trkpt>
      <trkpt lat="49.67011" lon="4.76728">
        <ele>264</ele>
        <time>2022-04-03T06:22:48.000Z</time>
      </trkpt>
      <trkpt lat="49.67016" lon="4.76726">
        <ele>264</ele>
        <time>2022-04-03T06:22:49.000Z</time>
      </trkpt>
      <trkpt lat="49.6702" lon="4.76724">
        <ele>264</ele>
        <time>2022-04-03T06:22:50.000Z</time>
      </trkpt>
      <trkpt lat="49.67023" lon="4.76723">
        <ele>263</ele>
        <time>2022-04-03T06:22:51.000Z</time>
      </trkpt>
      <trkpt lat="49.67027" lon="4.76721">
        <ele>263</ele>
        <time>2022-04-03T06:22:52.000Z</time>
      </trkpt>
      <trkpt lat="49.6703" lon="4.7672">
        <ele>263</ele>
        <time>2022-04-03T06:22:53.000Z</time>
      </trkpt>
      <trkpt lat="49.67034" lon="4.76717">
        <ele>263</ele>
        <time>2022-04-03T06:22:54.000Z</time>
      </trkpt>
      <trkpt lat="49.67038" lon="4.76715">
        <ele>263</ele>
        <time>2022-04-03T06:22:55.000Z</time>
      </trkpt>
      <trkpt lat="49.67043" lon="4.76712">
        <ele>263</ele>
        <time>2022-04-03T06:22:56.000Z</time>
      </trkpt>
      <trkpt lat="49.67047" lon="4.76711">
        <ele>263</ele>
        <time>2022-04-03T06:22:57.000Z</time>
      </trkpt>
      <trkpt lat="49.67052" lon="4.76708">
        <ele>263</ele>
        <time>2022-04-03T06:22:58.000Z</time>
      </trkpt>
      <trkpt lat="49.67057" lon="4.76706">
        <ele>263</ele>
        <time>2022-04-03T06:22:59.000Z</time>
      </trkpt>
      <trkpt lat="49.67061" lon="4.76703">
        <ele>263</ele>
        <time>2022-04-03T06:23:00.000Z</time>
      </trkpt>
      <trkpt lat="49.67065" lon="4.76702">
        <ele>263</ele>
        <time>2022-04-03T06:23:01.000Z</time>
      </trkpt>
      <trkpt lat="49.67068" lon="4.76699">
        <ele>263</ele>
        <time>2022-04-03T06:23:02.000Z</time>
      </trkpt>
      <trkpt lat="49.67072" lon="4.76698">
        <ele>263</ele>
        <time>2022-04-03T06:23:03.000Z</time>
      </trkpt>
      <trkpt lat="49.67075" lon="4.76696">
        <ele>263</ele>
        <time>2022-04-03T06:23:04.000Z</time>
      </trkpt>
      <trkpt lat="49.67078" lon="4.76694">
        <ele>263</ele>
        <time>2022-04-03T06:23:05.000Z</time>
      </trkpt>
      <trkpt lat="49.67082" lon="4.76694">
        <ele>263</ele>
        <time>2022-04-03T06:23:06.000Z</time>
      </trkpt>
      <trkpt lat="49.67086" lon="4.76693">
        <ele>262</ele>
        <time>2022-04-03T06:23:07.000Z</time>
      </trkpt>
      <trkpt lat="49.6709" lon="4.76693">
        <ele>262</ele>
        <time>2022-04-03T06:23:08.000Z</time>
      </trkpt>
      <trkpt lat="49.67095" lon="4.76692">
        <ele>262</ele>
        <time>2022-04-03T06:23:09.000Z</time>
      </trkpt>
      <trkpt lat="49.67099" lon="4.76692">
        <ele>262</ele>
        <time>2022-04-03T06:23:10.000Z</time>
      </trkpt>
      <trkpt lat="49.67103" lon="4.76691">
        <ele>261</ele>
        <time>2022-04-03T06:23:11.000Z</time>
      </trkpt>
      <trkpt lat="49.67107" lon="4.76691">
        <ele>261</ele>
        <time>2022-04-03T06:23:12.000Z</time>
      </trkpt>
      <trkpt lat="49.67111" lon="4.7669">
        <ele>261</ele>
        <time>2022-04-03T06:23:13.000Z</time>
      </trkpt>
      <trkpt lat="49.67115" lon="4.7669">
        <ele>260</ele>
        <time>2022-04-03T06:23:14.000Z</time>
      </trkpt>
      <trkpt lat="49.67119" lon="4.7669">
        <ele>260</ele>
        <time>2022-04-03T06:23:15.000Z</time>
      </trkpt>
      <trkpt lat="49.67123" lon="4.7669">
        <ele>260</ele>
        <time>2022-04-03T06:23:16.000Z</time>
      </trkpt>
      <trkpt lat="49.67127" lon="4.7669">
        <ele>259</ele>
        <time>2022-04-03T06:23:17.000Z</time>
      </trkpt>
      <trkpt lat="49.6713" lon="4.76691">
        <ele>259</ele>
        <time>2022-04-03T06:23:18.000Z</time>
      </trkpt>
      <trkpt lat="49.67133" lon="4.7669">
        <ele>259</ele>
        <time>2022-04-03T06:23:19.000Z</time>
      </trkpt>
      <trkpt lat="49.67136" lon="4.76688">
        <ele>259</ele>
        <time>2022-04-03T06:23:20.000Z</time>
      </trkpt>
      <trkpt lat="49.6714" lon="4.76687">
        <ele>259</ele>
        <time>2022-04-03T06:23:21.000Z</time>
      </trkpt>
      <trkpt lat="49.67143" lon="4.76686">
        <ele>259</ele>
        <time>2022-04-03T06:23:22.000Z</time>
      </trkpt>
      <trkpt lat="49.67146" lon="4.76684">
        <ele>259</ele>
        <time>2022-04-03T06:23:23.000Z</time>
      </trkpt>
      <trkpt lat="49.67151" lon="4.76683">
        <ele>258</ele>
        <time>2022-04-03T06:23:24.000Z</time>
      </trkpt>
      <trkpt lat="49.67154" lon="4.76682">
        <ele>258</ele>
        <time>2022-04-03T06:23:25.000Z</time>
      </trkpt>
      <trkpt lat="49.67157" lon="4.76679">
        <ele>258</ele>
        <time>2022-04-03T06:23:26.000Z</time>
      </trkpt>
      <trkpt lat="49.67161" lon="4.76677">
        <ele>258</ele>
        <time>2022-04-03T06:23:27.000Z</time>
      </trkpt>
      <trkpt lat="49.67163" lon="4.76675">
        <ele>258</ele>
        <time>2022-04-03T06:23:28.000Z</time>
      </trkpt>
      <trkpt lat="49.67167" lon="4.76673">
        <ele>258</ele>
        <time>2022-04-03T06:23:29.000Z</time>
      </trkpt>
      <trkpt lat="49.6717" lon="4.76669">
        <ele>258</ele>
        <time>2022-04-03T06:23:30.000Z</time>
      </trkpt>
      <trkpt lat="49.67173" lon="4.76666">
        <ele>258</ele>
        <time>2022-04-03T06:23:31.000Z</time>
      </trkpt>
      <trkpt lat="49.67176" lon="4.76663">
        <ele>258</ele>
        <time>2022-04-03T06:23:32.000Z</time>
      </trkpt>
      <trkpt lat="49.67179" lon="4.76659">
        <ele>258</ele>
        <time>2022-04-03T06:23:33.000Z</time>
      </trkpt>
      <trkpt lat="49.67183" lon="4.76655">
        <ele>258</ele>
        <time>2022-04-03T06:23:34.000Z</time>
      </trkpt>
      <trkpt lat="49.67187" lon="4.76652">
        <ele>258</ele>
        <time>2022-04-03T06:23:35.000Z</time>
      </trkpt>
      <trkpt lat="49.67191" lon="4.76647">
        <ele>258</ele>
        <time>2022-04-03T06:23:36.000Z</time>
      </trkpt>
      <trkpt lat="49.67196" lon="4.76644">
        <ele>258</ele>
        <time>2022-04-03T06:23:37.000Z</time>
      </trkpt>
      <trkpt lat="49.672" lon="4.76639">
        <ele>258</ele>
        <time>2022-04-03T06:23:38.000Z</time>
      </trkpt>
      <trkpt lat="49.67205" lon="4.76635">
        <ele>257</ele>
        <time>2022-04-03T06:23:39.000Z</time>
      </trkpt>
      <trkpt lat="49.6721" lon="4.7663">
        <ele>258</ele>
        <time>2022-04-03T06:23:40.000Z</time>
      </trkpt>
      <trkpt lat="49.67215" lon="4.76627">
        <ele>258</ele>
        <time>2022-04-03T06:23:41.000Z</time>
      </trkpt>
      <trkpt lat="49.67219" lon="4.76623">
        <ele>257</ele>
        <time>2022-04-03T06:23:42.000Z</time>
      </trkpt>
      <trkpt lat="49.67224" lon="4.76618">
        <ele>257</ele>
        <time>2022-04-03T06:23:43.000Z</time>
      </trkpt>
      <trkpt lat="49.67228" lon="4.76614">
        <ele>257</ele>
        <time>2022-04-03T06:23:44.000Z</time>
      </trkpt>
      <trkpt lat="49.67231" lon="4.76611">
        <ele>257</ele>
        <time>2022-04-03T06:23:45.000Z</time>
      </trkpt>
      <trkpt lat="49.67233" lon="4.76612">
        <ele>257</ele>
        <time>2022-04-03T06:23:46.000Z</time>
      </trkpt>
      <trkpt lat="49.67235" lon="4.76613">
        <ele>257</ele>
        <time>2022-04-03T06:23:47.000Z</time>
      </trkpt>
      <trkpt lat="49.67237" lon="4.76612">
        <ele>257</ele>
        <time>2022-04-03T06:23:48.000Z</time>
      </trkpt>
      <trkpt lat="49.67238" lon="4.76611">
        <ele>257</ele>
        <time>2022-04-03T06:23:49.000Z</time>
      </trkpt>
      <trkpt lat="49.67238" lon="4.76608">
        <ele>257</ele>
        <time>2022-04-03T06:23:50.000Z</time>
      </trkpt>
      <trkpt lat="49.67239" lon="4.76607">
        <ele>257</ele>
        <time>2022-04-03T06:23:51.000Z</time>
      </trkpt>
      <trkpt lat="49.67239" lon="4.76606">
        <ele>256</ele>
        <time>2022-04-03T06:23:52.000Z</time>
      </trkpt>
      <trkpt lat="49.67239" lon="4.76606">
        <ele>256</ele>
        <time>2022-04-03T06:23:53.000Z</time>
      </trkpt>
      <trkpt lat="49.67239" lon="4.76606">
        <ele>256</ele>
        <time>2022-04-03T06:23:54.000Z</time>
      </trkpt>
      <trkpt lat="49.6724" lon="4.76606">
        <ele>256</ele>
        <time>2022-04-03T06:23:55.000Z</time>
      </trkpt>
      <trkpt lat="49.6724" lon="4.76605">
        <ele>256</ele>
        <time>2022-04-03T06:23:56.000Z</time>
      </trkpt>
      <trkpt lat="49.6724" lon="4.76605">
        <ele>256</ele>
        <time>2022-04-03T06:23:57.000Z</time>
      </trkpt>
      <trkpt lat="49.6724" lon="4.76605">
        <ele>256</ele>
        <time>2022-04-03T06:23:58.000Z</time>
      </trkpt>
      <trkpt lat="49.6724" lon="4.76605">
        <ele>256</ele>
        <time>2022-04-03T06:23:59.000Z</time>
      </trkpt>
      <trkpt lat="49.6724" lon="4.76604">
        <ele>256</ele>
        <time>2022-04-03T06:24:00.000Z</time>
      </trkpt>
      <trkpt lat="49.67241" lon="4.76604">
        <ele>256</ele>
        <time>2022-04-03T06:24:01.000Z</time>
      </trkpt>
      <trkpt lat="49.67241" lon="4.76603">
        <ele>256</ele>
        <time>2022-04-03T06:24:02.000Z</time>
      </trkpt>
      <trkpt lat="49.67243" lon="4.76602">
        <ele>256</ele>
        <time>2022-04-03T06:24:03.000Z</time>
      </trkpt>
      <trkpt lat="49.67246" lon="4.766">
        <ele>256</ele>
        <time>2022-04-03T06:24:04.000Z</time>
      </trkpt>
      <trkpt lat="49.67249" lon="4.76597">
        <ele>256</ele>
        <time>2022-04-03T06:24:05.000Z</time>
      </trkpt>
      <trkpt lat="49.67253" lon="4.76593">
        <ele>256</ele>
        <time>2022-04-03T06:24:06.000Z</time>
      </trkpt>
      <trkpt lat="49.67256" lon="4.76589">
        <ele>256</ele>
        <time>2022-04-03T06:24:07.000Z</time>
      </trkpt>
      <trkpt lat="49.67261" lon="4.76586">
        <ele>256</ele>
        <time>2022-04-03T06:24:08.000Z</time>
      </trkpt>
      <trkpt lat="49.67266" lon="4.76582">
        <ele>256</ele>
        <time>2022-04-03T06:24:09.000Z</time>
      </trkpt>
      <trkpt lat="49.67272" lon="4.76577">
        <ele>256</ele>
        <time>2022-04-03T06:24:10.000Z</time>
      </trkpt>
      <trkpt lat="49.67277" lon="4.76573">
        <ele>256</ele>
        <time>2022-04-03T06:24:11.000Z</time>
      </trkpt>
      <trkpt lat="49.67282" lon="4.76567">
        <ele>256</ele>
        <time>2022-04-03T06:24:12.000Z</time>
      </trkpt>
      <trkpt lat="49.67288" lon="4.76562">
        <ele>256</ele>
        <time>2022-04-03T06:24:13.000Z</time>
      </trkpt>
      <trkpt lat="49.67293" lon="4.76557">
        <ele>256</ele>
        <time>2022-04-03T06:24:14.000Z</time>
      </trkpt>
      <trkpt lat="49.67299" lon="4.76553">
        <ele>256</ele>
        <time>2022-04-03T06:24:15.000Z</time>
      </trkpt>
      <trkpt lat="49.67304" lon="4.76549">
        <ele>255</ele>
        <time>2022-04-03T06:24:16.000Z</time>
      </trkpt>
      <trkpt lat="49.67309" lon="4.76545">
        <ele>255</ele>
        <time>2022-04-03T06:24:17.000Z</time>
      </trkpt>
      <trkpt lat="49.67315" lon="4.76539">
        <ele>255</ele>
        <time>2022-04-03T06:24:18.000Z</time>
      </trkpt>
      <trkpt lat="49.6732" lon="4.76534">
        <ele>255</ele>
        <time>2022-04-03T06:24:19.000Z</time>
      </trkpt>
      <trkpt lat="49.67326" lon="4.7653">
        <ele>255</ele>
        <time>2022-04-03T06:24:20.000Z</time>
      </trkpt>
      <trkpt lat="49.67331" lon="4.76527">
        <ele>255</ele>
        <time>2022-04-03T06:24:21.000Z</time>
      </trkpt>
      <trkpt lat="49.67336" lon="4.76524">
        <ele>255</ele>
        <time>2022-04-03T06:24:22.000Z</time>
      </trkpt>
      <trkpt lat="49.67342" lon="4.7652">
        <ele>255</ele>
        <time>2022-04-03T06:24:23.000Z</time>
      </trkpt>
      <trkpt lat="49.67347" lon="4.76516">
        <ele>254</ele>
        <time>2022-04-03T06:24:24.000Z</time>
      </trkpt>
      <trkpt lat="49.67351" lon="4.76511">
        <ele>254</ele>
        <time>2022-04-03T06:24:25.000Z</time>
      </trkpt>
      <trkpt lat="49.67356" lon="4.76505">
        <ele>254</ele>
        <time>2022-04-03T06:24:26.000Z</time>
      </trkpt>
      <trkpt lat="49.67363" lon="4.765">
        <ele>253</ele>
        <time>2022-04-03T06:24:27.000Z</time>
      </trkpt>
      <trkpt lat="49.67369" lon="4.76495">
        <ele>253</ele>
        <time>2022-04-03T06:24:28.000Z</time>
      </trkpt>
      <trkpt lat="49.67375" lon="4.7649">
        <ele>253</ele>
        <time>2022-04-03T06:24:29.000Z</time>
      </trkpt>
      <trkpt lat="49.6738" lon="4.76485">
        <ele>252</ele>
        <time>2022-04-03T06:24:30.000Z</time>
      </trkpt>
      <trkpt lat="49.67382" lon="4.76481">
        <ele>252</ele>
        <time>2022-04-03T06:24:31.000Z</time>
      </trkpt>
      <trkpt lat="49.67383" lon="4.76478">
        <ele>251</ele>
        <time>2022-04-03T06:24:32.000Z</time>
      </trkpt>
      <trkpt lat="49.67383" lon="4.76476">
        <ele>251</ele>
        <time>2022-04-03T06:24:33.000Z</time>
      </trkpt>
      <trkpt lat="49.6738" lon="4.76475">
        <ele>250</ele>
        <time>2022-04-03T06:24:34.000Z</time>
      </trkpt>
      <trkpt lat="49.67377" lon="4.76472">
        <ele>249</ele>
        <time>2022-04-03T06:24:35.000Z</time>
      </trkpt>
      <trkpt lat="49.67373" lon="4.7647">
        <ele>248</ele>
        <time>2022-04-03T06:24:36.000Z</time>
      </trkpt>
      <trkpt lat="49.67369" lon="4.76467">
        <ele>247</ele>
        <time>2022-04-03T06:24:37.000Z</time>
      </trkpt>
      <trkpt lat="49.67365" lon="4.76465">
        <ele>247</ele>
        <time>2022-04-03T06:24:38.000Z</time>
      </trkpt>
      <trkpt lat="49.67361" lon="4.76463">
        <ele>246</ele>
        <time>2022-04-03T06:24:39.000Z</time>
      </trkpt>
      <trkpt lat="49.67357" lon="4.7646">
        <ele>245</ele>
        <time>2022-04-03T06:24:40.000Z</time>
      </trkpt>
      <trkpt lat="49.67353" lon="4.76457">
        <ele>244</ele>
        <time>2022-04-03T06:24:41.000Z</time>
      </trkpt>
      <trkpt lat="49.67349" lon="4.76454">
        <ele>243</ele>
        <time>2022-04-03T06:24:42.000Z</time>
      </trkpt>
      <trkpt lat="49.67345" lon="4.76452">
        <ele>243</ele>
        <time>2022-04-03T06:24:43.000Z</time>
      </trkpt>
      <trkpt lat="49.67341" lon="4.76449">
        <ele>242</ele>
        <time>2022-04-03T06:24:44.000Z</time>
      </trkpt>
      <trkpt lat="49.67336" lon="4.76446">
        <ele>242</ele>
        <time>2022-04-03T06:24:45.000Z</time>
      </trkpt>
      <trkpt lat="49.67332" lon="4.76443">
        <ele>241</ele>
        <time>2022-04-03T06:24:46.000Z</time>
      </trkpt>
      <trkpt lat="49.67327" lon="4.76441">
        <ele>240</ele>
        <time>2022-04-03T06:24:47.000Z</time>
      </trkpt>
      <trkpt lat="49.67323" lon="4.76438">
        <ele>240</ele>
        <time>2022-04-03T06:24:48.000Z</time>
      </trkpt>
      <trkpt lat="49.67318" lon="4.76436">
        <ele>239</ele>
        <time>2022-04-03T06:24:49.000Z</time>
      </trkpt>
      <trkpt lat="49.67315" lon="4.76435">
        <ele>238</ele>
        <time>2022-04-03T06:24:50.000Z</time>
      </trkpt>
      <trkpt lat="49.6731" lon="4.76433">
        <ele>238</ele>
        <time>2022-04-03T06:24:51.000Z</time>
      </trkpt>
      <trkpt lat="49.67306" lon="4.76432">
        <ele>237</ele>
        <time>2022-04-03T06:24:52.000Z</time>
      </trkpt>
      <trkpt lat="49.67302" lon="4.7643">
        <ele>237</ele>
        <time>2022-04-03T06:24:53.000Z</time>
      </trkpt>
      <trkpt lat="49.67298" lon="4.76429">
        <ele>236</ele>
        <time>2022-04-03T06:24:54.000Z</time>
      </trkpt>
      <trkpt lat="49.67293" lon="4.76428">
        <ele>236</ele>
        <time>2022-04-03T06:24:55.000Z</time>
      </trkpt>
      <trkpt lat="49.67289" lon="4.76427">
        <ele>235</ele>
        <time>2022-04-03T06:24:56.000Z</time>
      </trkpt>
      <trkpt lat="49.67285" lon="4.76425">
        <ele>235</ele>
        <time>2022-04-03T06:24:57.000Z</time>
      </trkpt>
      <trkpt lat="49.67281" lon="4.76424">
        <ele>234</ele>
        <time>2022-04-03T06:24:58.000Z</time>
      </trkpt>
      <trkpt lat="49.67277" lon="4.76423">
        <ele>234</ele>
        <time>2022-04-03T06:24:59.000Z</time>
      </trkpt>
      <trkpt lat="49.67273" lon="4.76422">
        <ele>234</ele>
        <time>2022-04-03T06:25:00.000Z</time>
      </trkpt>
      <trkpt lat="49.67269" lon="4.76422">
        <ele>233</ele>
        <time>2022-04-03T06:25:01.000Z</time>
      </trkpt>
      <trkpt lat="49.67264" lon="4.76423">
        <ele>233</ele>
        <time>2022-04-03T06:25:02.000Z</time>
      </trkpt>
      <trkpt lat="49.6726" lon="4.76423">
        <ele>233</ele>
        <time>2022-04-03T06:25:03.000Z</time>
      </trkpt>
      <trkpt lat="49.67257" lon="4.76425">
        <ele>233</ele>
        <time>2022-04-03T06:25:04.000Z</time>
      </trkpt>
      <trkpt lat="49.67253" lon="4.76425">
        <ele>233</ele>
        <time>2022-04-03T06:25:05.000Z</time>
      </trkpt>
      <trkpt lat="49.6725" lon="4.76426">
        <ele>233</ele>
        <time>2022-04-03T06:25:06.000Z</time>
      </trkpt>
      <trkpt lat="49.67247" lon="4.76426">
        <ele>233</ele>
        <time>2022-04-03T06:25:07.000Z</time>
      </trkpt>
      <trkpt lat="49.67244" lon="4.76425">
        <ele>233</ele>
        <time>2022-04-03T06:25:08.000Z</time>
      </trkpt>
      <trkpt lat="49.67241" lon="4.76424">
        <ele>233</ele>
        <time>2022-04-03T06:25:09.000Z</time>
      </trkpt>
      <trkpt lat="49.67241" lon="4.76424">
        <ele>233</ele>
        <time>2022-04-03T06:25:10.000Z</time>
      </trkpt>
      <trkpt lat="49.6724" lon="4.76424">
        <ele>233</ele>
        <time>2022-04-03T06:25:11.000Z</time>
      </trkpt>
      <trkpt lat="49.67239" lon="4.76424">
        <ele>233</ele>
        <time>2022-04-03T06:25:12.000Z</time>
      </trkpt>
      <trkpt lat="49.67237" lon="4.76424">
        <ele>233</ele>
        <time>2022-04-03T06:25:13.000Z</time>
      </trkpt>
      <trkpt lat="49.67236" lon="4.76423">
        <ele>233</ele>
        <time>2022-04-03T06:25:14.000Z</time>
      </trkpt>
      <trkpt lat="49.67233" lon="4.76421">
        <ele>233</ele>
        <time>2022-04-03T06:25:15.000Z</time>
      </trkpt>
      <trkpt lat="49.6723" lon="4.7642">
        <ele>233</ele>
        <time>2022-04-03T06:25:16.000Z</time>
      </trkpt>
      <trkpt lat="49.67226" lon="4.76419">
        <ele>233</ele>
        <time>2022-04-03T06:25:17.000Z</time>
      </trkpt>
      <trkpt lat="49.67222" lon="4.76418">
        <ele>233</ele>
        <time>2022-04-03T06:25:18.000Z</time>
      </trkpt>
      <trkpt lat="49.67218" lon="4.76416">
        <ele>233</ele>
        <time>2022-04-03T06:25:19.000Z</time>
      </trkpt>
      <trkpt lat="49.67215" lon="4.76415">
        <ele>234</ele>
        <time>2022-04-03T06:25:20.000Z</time>
      </trkpt>
      <trkpt lat="49.67211" lon="4.76414">
        <ele>234</ele>
        <time>2022-04-03T06:25:21.000Z</time>
      </trkpt>
      <trkpt lat="49.67207" lon="4.76414">
        <ele>234</ele>
        <time>2022-04-03T06:25:22.000Z</time>
      </trkpt>
      <trkpt lat="49.67203" lon="4.76413">
        <ele>234</ele>
        <time>2022-04-03T06:25:23.000Z</time>
      </trkpt>
      <trkpt lat="49.67199" lon="4.76412">
        <ele>234</ele>
        <time>2022-04-03T06:25:24.000Z</time>
      </trkpt>
      <trkpt lat="49.67196" lon="4.76411">
        <ele>234</ele>
        <time>2022-04-03T06:25:25.000Z</time>
      </trkpt>
      <trkpt lat="49.67191" lon="4.76409">
        <ele>234</ele>
        <time>2022-04-03T06:25:26.000Z</time>
      </trkpt>
      <trkpt lat="49.67186" lon="4.76407">
        <ele>234</ele>
        <time>2022-04-03T06:25:27.000Z</time>
      </trkpt>
      <trkpt lat="49.67181" lon="4.76404">
        <ele>235</ele>
        <time>2022-04-03T06:25:28.000Z</time>
      </trkpt>
      <trkpt lat="49.67176" lon="4.76402">
        <ele>235</ele>
        <time>2022-04-03T06:25:29.000Z</time>
      </trkpt>
      <trkpt lat="49.6717" lon="4.764">
        <ele>235</ele>
        <time>2022-04-03T06:25:30.000Z</time>
      </trkpt>
      <trkpt lat="49.67166" lon="4.76398">
        <ele>235</ele>
        <time>2022-04-03T06:25:31.000Z</time>
      </trkpt>
      <trkpt lat="49.67161" lon="4.76396">
        <ele>235</ele>
        <time>2022-04-03T06:25:32.000Z</time>
      </trkpt>
      <trkpt lat="49.67157" lon="4.76394">
        <ele>235</ele>
        <time>2022-04-03T06:25:33.000Z</time>
      </trkpt>
      <trkpt lat="49.67153" lon="4.76392">
        <ele>235</ele>
        <time>2022-04-03T06:25:34.000Z</time>
      </trkpt>
      <trkpt lat="49.67149" lon="4.76389">
        <ele>235</ele>
        <time>2022-04-03T06:25:35.000Z</time>
      </trkpt>
      <trkpt lat="49.67144" lon="4.76387">
        <ele>235</ele>
        <time>2022-04-03T06:25:36.000Z</time>
      </trkpt>
      <trkpt lat="49.6714" lon="4.76385">
        <ele>235</ele>
        <time>2022-04-03T06:25:37.000Z</time>
      </trkpt>
      <trkpt lat="49.67136" lon="4.76383">
        <ele>235</ele>
        <time>2022-04-03T06:25:38.000Z</time>
      </trkpt>
      <trkpt lat="49.67131" lon="4.76381">
        <ele>235</ele>
        <time>2022-04-03T06:25:39.000Z</time>
      </trkpt>
      <trkpt lat="49.67128" lon="4.76379">
        <ele>235</ele>
        <time>2022-04-03T06:25:40.000Z</time>
      </trkpt>
      <trkpt lat="49.67123" lon="4.76377">
        <ele>235</ele>
        <time>2022-04-03T06:25:41.000Z</time>
      </trkpt>
      <trkpt lat="49.67119" lon="4.76374">
        <ele>235</ele>
        <time>2022-04-03T06:25:42.000Z</time>
      </trkpt>
      <trkpt lat="49.67115" lon="4.76372">
        <ele>235</ele>
        <time>2022-04-03T06:25:43.000Z</time>
      </trkpt>
      <trkpt lat="49.67111" lon="4.76369">
        <ele>235</ele>
        <time>2022-04-03T06:25:44.000Z</time>
      </trkpt>
      <trkpt lat="49.67107" lon="4.76366">
        <ele>234</ele>
        <time>2022-04-03T06:25:45.000Z</time>
      </trkpt>
      <trkpt lat="49.67103" lon="4.76364">
        <ele>234</ele>
        <time>2022-04-03T06:25:46.000Z</time>
      </trkpt>
      <trkpt lat="49.67099" lon="4.76361">
        <ele>234</ele>
        <time>2022-04-03T06:25:47.000Z</time>
      </trkpt>
      <trkpt lat="49.67095" lon="4.76359">
        <ele>234</ele>
        <time>2022-04-03T06:25:48.000Z</time>
      </trkpt>
      <trkpt lat="49.67091" lon="4.76357">
        <ele>234</ele>
        <time>2022-04-03T06:25:49.000Z</time>
      </trkpt>
      <trkpt lat="49.67087" lon="4.76355">
        <ele>234</ele>
        <time>2022-04-03T06:25:50.000Z</time>
      </trkpt>
      <trkpt lat="49.67083" lon="4.76354">
        <ele>234</ele>
        <time>2022-04-03T06:25:51.000Z</time>
      </trkpt>
      <trkpt lat="49.6708" lon="4.76354">
        <ele>234</ele>
        <time>2022-04-03T06:25:52.000Z</time>
      </trkpt>
      <trkpt lat="49.67078" lon="4.76354">
        <ele>234</ele>
        <time>2022-04-03T06:25:53.000Z</time>
      </trkpt>
      <trkpt lat="49.67077" lon="4.76354">
        <ele>234</ele>
        <time>2022-04-03T06:25:54.000Z</time>
      </trkpt>
      <trkpt lat="49.67076" lon="4.76354">
        <ele>234</ele>
        <time>2022-04-03T06:25:55.000Z</time>
      </trkpt>
      <trkpt lat="49.67075" lon="4.76355">
        <ele>234</ele>
        <time>2022-04-03T06:25:56.000Z</time>
      </trkpt>
      <trkpt lat="49.67074" lon="4.76356">
        <ele>235</ele>
        <time>2022-04-03T06:25:57.000Z</time>
      </trkpt>
      <trkpt lat="49.67074" lon="4.76357">
        <ele>235</ele>
        <time>2022-04-03T06:25:58.000Z</time>
      </trkpt>
      <trkpt lat="49.67072" lon="4.76359">
        <ele>235</ele>
        <time>2022-04-03T06:25:59.000Z</time>
      </trkpt>
      <trkpt lat="49.67071" lon="4.7636">
        <ele>235</ele>
        <time>2022-04-03T06:26:00.000Z</time>
      </trkpt>
      <trkpt lat="49.67069" lon="4.76361">
        <ele>236</ele>
        <time>2022-04-03T06:26:01.000Z</time>
      </trkpt>
      <trkpt lat="49.67067" lon="4.76363">
        <ele>236</ele>
        <time>2022-04-03T06:26:02.000Z</time>
      </trkpt>
      <trkpt lat="49.67064" lon="4.76364">
        <ele>236</ele>
        <time>2022-04-03T06:26:03.000Z</time>
      </trkpt>
      <trkpt lat="49.67062" lon="4.76364">
        <ele>236</ele>
        <time>2022-04-03T06:26:04.000Z</time>
      </trkpt>
      <trkpt lat="49.6706" lon="4.76364">
        <ele>236</ele>
        <time>2022-04-03T06:26:05.000Z</time>
      </trkpt>
      <trkpt lat="49.67057" lon="4.76364">
        <ele>236</ele>
        <time>2022-04-03T06:26:06.000Z</time>
      </trkpt>
      <trkpt lat="49.67055" lon="4.76363">
        <ele>237</ele>
        <time>2022-04-03T06:26:07.000Z</time>
      </trkpt>
      <trkpt lat="49.67051" lon="4.76362">
        <ele>237</ele>
        <time>2022-04-03T06:26:08.000Z</time>
      </trkpt>
      <trkpt lat="49.67047" lon="4.7636">
        <ele>237</ele>
        <time>2022-04-03T06:26:09.000Z</time>
      </trkpt>
      <trkpt lat="49.67043" lon="4.76359">
        <ele>237</ele>
        <time>2022-04-03T06:26:10.000Z</time>
      </trkpt>
      <trkpt lat="49.6704" lon="4.76359">
        <ele>237</ele>
        <time>2022-04-03T06:26:11.000Z</time>
      </trkpt>
      <trkpt lat="49.67036" lon="4.76357">
        <ele>237</ele>
        <time>2022-04-03T06:26:12.000Z</time>
      </trkpt>
      <trkpt lat="49.67032" lon="4.76356">
        <ele>237</ele>
        <time>2022-04-03T06:26:13.000Z</time>
      </trkpt>
      <trkpt lat="49.67028" lon="4.76355">
        <ele>237</ele>
        <time>2022-04-03T06:26:14.000Z</time>
      </trkpt>
      <trkpt lat="49.67024" lon="4.76353">
        <ele>237</ele>
        <time>2022-04-03T06:26:15.000Z</time>
      </trkpt>
      <trkpt lat="49.6702" lon="4.76352">
        <ele>237</ele>
        <time>2022-04-03T06:26:16.000Z</time>
      </trkpt>
      <trkpt lat="49.67016" lon="4.76351">
        <ele>237</ele>
        <time>2022-04-03T06:26:17.000Z</time>
      </trkpt>
      <trkpt lat="49.67012" lon="4.76349">
        <ele>238</ele>
        <time>2022-04-03T06:26:18.000Z</time>
      </trkpt>
      <trkpt lat="49.67007" lon="4.76347">
        <ele>238</ele>
        <time>2022-04-03T06:26:19.000Z</time>
      </trkpt>
      <trkpt lat="49.67003" lon="4.76346">
        <ele>238</ele>
        <time>2022-04-03T06:26:20.000Z</time>
      </trkpt>
      <trkpt lat="49.66998" lon="4.76345">
        <ele>239</ele>
        <time>2022-04-03T06:26:21.000Z</time>
      </trkpt>
      <trkpt lat="49.66993" lon="4.76344">
        <ele>239</ele>
        <time>2022-04-03T06:26:22.000Z</time>
      </trkpt>
      <trkpt lat="49.66988" lon="4.76343">
        <ele>239</ele>
        <time>2022-04-03T06:26:23.000Z</time>
      </trkpt>
      <trkpt lat="49.66984" lon="4.76342">
        <ele>240</ele>
        <time>2022-04-03T06:26:24.000Z</time>
      </trkpt>
      <trkpt lat="49.66979" lon="4.76342">
        <ele>240</ele>
        <time>2022-04-03T06:26:25.000Z</time>
      </trkpt>
      <trkpt lat="49.66975" lon="4.76341">
        <ele>240</ele>
        <time>2022-04-03T06:26:26.000Z</time>
      </trkpt>
      <trkpt lat="49.66971" lon="4.7634">
        <ele>241</ele>
        <time>2022-04-03T06:26:27.000Z</time>
      </trkpt>
      <trkpt lat="49.66968" lon="4.76339">
        <ele>241</ele>
        <time>2022-04-03T06:26:28.000Z</time>
      </trkpt>
      <trkpt lat="49.66964" lon="4.76338">
        <ele>242</ele>
        <time>2022-04-03T06:26:29.000Z</time>
      </trkpt>
      <trkpt lat="49.6696" lon="4.76337">
        <ele>242</ele>
        <time>2022-04-03T06:26:30.000Z</time>
      </trkpt>
      <trkpt lat="49.66956" lon="4.76335">
        <ele>242</ele>
        <time>2022-04-03T06:26:31.000Z</time>
      </trkpt>
      <trkpt lat="49.66951" lon="4.76334">
        <ele>242</ele>
        <time>2022-04-03T06:26:32.000Z</time>
      </trkpt>
      <trkpt lat="49.66947" lon="4.76332">
        <ele>243</ele>
        <time>2022-04-03T06:26:33.000Z</time>
      </trkpt>
      <trkpt lat="49.66944" lon="4.7633">
        <ele>243</ele>
        <time>2022-04-03T06:26:34.000Z</time>
      </trkpt>
      <trkpt lat="49.66939" lon="4.76328">
        <ele>243</ele>
        <time>2022-04-03T06:26:35.000Z</time>
      </trkpt>
      <trkpt lat="49.66936" lon="4.76327">
        <ele>244</ele>
        <time>2022-04-03T06:26:36.000Z</time>
      </trkpt>
      <trkpt lat="49.66931" lon="4.76326">
        <ele>244</ele>
        <time>2022-04-03T06:26:37.000Z</time>
      </trkpt>
      <trkpt lat="49.66927" lon="4.76326">
        <ele>244</ele>
        <time>2022-04-03T06:26:38.000Z</time>
      </trkpt>
      <trkpt lat="49.66923" lon="4.76326">
        <ele>244</ele>
        <time>2022-04-03T06:26:39.000Z</time>
      </trkpt>
      <trkpt lat="49.66919" lon="4.76325">
        <ele>245</ele>
        <time>2022-04-03T06:26:40.000Z</time>
      </trkpt>
      <trkpt lat="49.66916" lon="4.76324">
        <ele>245</ele>
        <time>2022-04-03T06:26:41.000Z</time>
      </trkpt>
      <trkpt lat="49.66912" lon="4.76324">
        <ele>245</ele>
        <time>2022-04-03T06:26:42.000Z</time>
      </trkpt>
      <trkpt lat="49.66909" lon="4.76323">
        <ele>245</ele>
        <time>2022-04-03T06:26:43.000Z</time>
      </trkpt>
      <trkpt lat="49.66905" lon="4.76322">
        <ele>245</ele>
        <time>2022-04-03T06:26:44.000Z</time>
      </trkpt>
      <trkpt lat="49.66901" lon="4.76321">
        <ele>245</ele>
        <time>2022-04-03T06:26:45.000Z</time>
      </trkpt>
      <trkpt lat="49.66897" lon="4.7632">
        <ele>245</ele>
        <time>2022-04-03T06:26:46.000Z</time>
      </trkpt>
      <trkpt lat="49.66892" lon="4.76318">
        <ele>246</ele>
        <time>2022-04-03T06:26:47.000Z</time>
      </trkpt>
      <trkpt lat="49.66886" lon="4.76317">
        <ele>246</ele>
        <time>2022-04-03T06:26:48.000Z</time>
      </trkpt>
      <trkpt lat="49.66881" lon="4.76316">
        <ele>246</ele>
        <time>2022-04-03T06:26:49.000Z</time>
      </trkpt>
      <trkpt lat="49.66876" lon="4.76315">
        <ele>246</ele>
        <time>2022-04-03T06:26:50.000Z</time>
      </trkpt>
      <trkpt lat="49.66872" lon="4.76313">
        <ele>246</ele>
        <time>2022-04-03T06:26:51.000Z</time>
      </trkpt>
      <trkpt lat="49.66868" lon="4.76312">
        <ele>246</ele>
        <time>2022-04-03T06:26:52.000Z</time>
      </trkpt>
      <trkpt lat="49.66863" lon="4.7631">
        <ele>247</ele>
        <time>2022-04-03T06:26:53.000Z</time>
      </trkpt>
      <trkpt lat="49.66858" lon="4.76309">
        <ele>247</ele>
        <time>2022-04-03T06:26:54.000Z</time>
      </trkpt>
      <trkpt lat="49.66853" lon="4.76308">
        <ele>247</ele>
        <time>2022-04-03T06:26:55.000Z</time>
      </trkpt>
      <trkpt lat="49.66848" lon="4.76308">
        <ele>247</ele>
        <time>2022-04-03T06:26:56.000Z</time>
      </trkpt>
      <trkpt lat="49.66845" lon="4.76307">
        <ele>248</ele>
        <time>2022-04-03T06:26:57.000Z</time>
      </trkpt>
      <trkpt lat="49.66841" lon="4.76307">
        <ele>248</ele>
        <time>2022-04-03T06:26:58.000Z</time>
      </trkpt>
      <trkpt lat="49.66838" lon="4.76306">
        <ele>248</ele>
        <time>2022-04-03T06:26:59.000Z</time>
      </trkpt>
      <trkpt lat="49.66834" lon="4.76306">
        <ele>248</ele>
        <time>2022-04-03T06:27:00.000Z</time>
      </trkpt>
      <trkpt lat="49.6683" lon="4.76305">
        <ele>249</ele>
        <time>2022-04-03T06:27:01.000Z</time>
      </trkpt>
      <trkpt lat="49.66826" lon="4.76304">
        <ele>249</ele>
        <time>2022-04-03T06:27:02.000Z</time>
      </trkpt>
      <trkpt lat="49.66821" lon="4.76302">
        <ele>249</ele>
        <time>2022-04-03T06:27:03.000Z</time>
      </trkpt>
      <trkpt lat="49.66814" lon="4.763">
        <ele>249</ele>
        <time>2022-04-03T06:27:04.000Z</time>
      </trkpt>
      <trkpt lat="49.66809" lon="4.76298">
        <ele>248</ele>
        <time>2022-04-03T06:27:05.000Z</time>
      </trkpt>
      <trkpt lat="49.66803" lon="4.76296">
        <ele>248</ele>
        <time>2022-04-03T06:27:06.000Z</time>
      </trkpt>
      <trkpt lat="49.66798" lon="4.76295">
        <ele>248</ele>
        <time>2022-04-03T06:27:07.000Z</time>
      </trkpt>
      <trkpt lat="49.66794" lon="4.76293">
        <ele>248</ele>
        <time>2022-04-03T06:27:08.000Z</time>
      </trkpt>
      <trkpt lat="49.6679" lon="4.76292">
        <ele>248</ele>
        <time>2022-04-03T06:27:09.000Z</time>
      </trkpt>
      <trkpt lat="49.66785" lon="4.76291">
        <ele>248</ele>
        <time>2022-04-03T06:27:10.000Z</time>
      </trkpt>
      <trkpt lat="49.66781" lon="4.76289">
        <ele>248</ele>
        <time>2022-04-03T06:27:11.000Z</time>
      </trkpt>
      <trkpt lat="49.66776" lon="4.76287">
        <ele>248</ele>
        <time>2022-04-03T06:27:12.000Z</time>
      </trkpt>
      <trkpt lat="49.66771" lon="4.76285">
        <ele>249</ele>
        <time>2022-04-03T06:27:13.000Z</time>
      </trkpt>
      <trkpt lat="49.66765" lon="4.76284">
        <ele>249</ele>
        <time>2022-04-03T06:27:14.000Z</time>
      </trkpt>
      <trkpt lat="49.6676" lon="4.76282">
        <ele>249</ele>
        <time>2022-04-03T06:27:15.000Z</time>
      </trkpt>
      <trkpt lat="49.66754" lon="4.7628">
        <ele>249</ele>
        <time>2022-04-03T06:27:16.000Z</time>
      </trkpt>
      <trkpt lat="49.66748" lon="4.76279">
        <ele>249</ele>
        <time>2022-04-03T06:27:17.000Z</time>
      </trkpt>
      <trkpt lat="49.66743" lon="4.76277">
        <ele>249</ele>
        <time>2022-04-03T06:27:18.000Z</time>
      </trkpt>
      <trkpt lat="49.66738" lon="4.76276">
        <ele>249</ele>
        <time>2022-04-03T06:27:19.000Z</time>
      </trkpt>
      <trkpt lat="49.66732" lon="4.76274">
        <ele>249</ele>
        <time>2022-04-03T06:27:20.000Z</time>
      </trkpt>
      <trkpt lat="49.66727" lon="4.76273">
        <ele>249</ele>
        <time>2022-04-03T06:27:21.000Z</time>
      </trkpt>
      <trkpt lat="49.66722" lon="4.76271">
        <ele>248</ele>
        <time>2022-04-03T06:27:22.000Z</time>
      </trkpt>
      <trkpt lat="49.66716" lon="4.7627">
        <ele>248</ele>
        <time>2022-04-03T06:27:23.000Z</time>
      </trkpt>
      <trkpt lat="49.66711" lon="4.76268">
        <ele>248</ele>
        <time>2022-04-03T06:27:24.000Z</time>
      </trkpt>
      <trkpt lat="49.66707" lon="4.76267">
        <ele>248</ele>
        <time>2022-04-03T06:27:25.000Z</time>
      </trkpt>
      <trkpt lat="49.66701" lon="4.76266">
        <ele>248</ele>
        <time>2022-04-03T06:27:26.000Z</time>
      </trkpt>
      <trkpt lat="49.66697" lon="4.76265">
        <ele>248</ele>
        <time>2022-04-03T06:27:27.000Z</time>
      </trkpt>
      <trkpt lat="49.66691" lon="4.76265">
        <ele>248</ele>
        <time>2022-04-03T06:27:28.000Z</time>
      </trkpt>
      <trkpt lat="49.66686" lon="4.76265">
        <ele>248</ele>
        <time>2022-04-03T06:27:29.000Z</time>
      </trkpt>
      <trkpt lat="49.6668" lon="4.76265">
        <ele>248</ele>
        <time>2022-04-03T06:27:30.000Z</time>
      </trkpt>
      <trkpt lat="49.66675" lon="4.76266">
        <ele>248</ele>
        <time>2022-04-03T06:27:31.000Z</time>
      </trkpt>
      <trkpt lat="49.6667" lon="4.76267">
        <ele>248</ele>
        <time>2022-04-03T06:27:32.000Z</time>
      </trkpt>
      <trkpt lat="49.66665" lon="4.76268">
        <ele>248</ele>
        <time>2022-04-03T06:27:33.000Z</time>
      </trkpt>
      <trkpt lat="49.6666" lon="4.76269">
        <ele>248</ele>
        <time>2022-04-03T06:27:34.000Z</time>
      </trkpt>
      <trkpt lat="49.66655" lon="4.76271">
        <ele>248</ele>
        <time>2022-04-03T06:27:35.000Z</time>
      </trkpt>
      <trkpt lat="49.6665" lon="4.76272">
        <ele>248</ele>
        <time>2022-04-03T06:27:36.000Z</time>
      </trkpt>
      <trkpt lat="49.66645" lon="4.76273">
        <ele>248</ele>
        <time>2022-04-03T06:27:37.000Z</time>
      </trkpt>
      <trkpt lat="49.66641" lon="4.76275">
        <ele>248</ele>
        <time>2022-04-03T06:27:38.000Z</time>
      </trkpt>
      <trkpt lat="49.66637" lon="4.76277">
        <ele>248</ele>
        <time>2022-04-03T06:27:39.000Z</time>
      </trkpt>
      <trkpt lat="49.66632" lon="4.76279">
        <ele>248</ele>
        <time>2022-04-03T06:27:40.000Z</time>
      </trkpt>
      <trkpt lat="49.66627" lon="4.76281">
        <ele>248</ele>
        <time>2022-04-03T06:27:41.000Z</time>
      </trkpt>
      <trkpt lat="49.66622" lon="4.76283">
        <ele>248</ele>
        <time>2022-04-03T06:27:42.000Z</time>
      </trkpt>
      <trkpt lat="49.66618" lon="4.76286">
        <ele>248</ele>
        <time>2022-04-03T06:27:43.000Z</time>
      </trkpt>
      <trkpt lat="49.66614" lon="4.76289">
        <ele>248</ele>
        <time>2022-04-03T06:27:44.000Z</time>
      </trkpt>
      <trkpt lat="49.66609" lon="4.76293">
        <ele>249</ele>
        <time>2022-04-03T06:27:45.000Z</time>
      </trkpt>
      <trkpt lat="49.66605" lon="4.76297">
        <ele>249</ele>
        <time>2022-04-03T06:27:46.000Z</time>
      </trkpt>
      <trkpt lat="49.66601" lon="4.76301">
        <ele>249</ele>
        <time>2022-04-03T06:27:47.000Z</time>
      </trkpt>
      <trkpt lat="49.66597" lon="4.76306">
        <ele>249</ele>
        <time>2022-04-03T06:27:48.000Z</time>
      </trkpt>
      <trkpt lat="49.66594" lon="4.7631">
        <ele>249</ele>
        <time>2022-04-03T06:27:49.000Z</time>
      </trkpt>
      <trkpt lat="49.6659" lon="4.76315">
        <ele>250</ele>
        <time>2022-04-03T06:27:50.000Z</time>
      </trkpt>
      <trkpt lat="49.66586" lon="4.76319">
        <ele>250</ele>
        <time>2022-04-03T06:27:51.000Z</time>
      </trkpt>
      <trkpt lat="49.66582" lon="4.76324">
        <ele>250</ele>
        <time>2022-04-03T06:27:52.000Z</time>
      </trkpt>
      <trkpt lat="49.66579" lon="4.76329">
        <ele>250</ele>
        <time>2022-04-03T06:27:53.000Z</time>
      </trkpt>
      <trkpt lat="49.66575" lon="4.76334">
        <ele>250</ele>
        <time>2022-04-03T06:27:54.000Z</time>
      </trkpt>
      <trkpt lat="49.66571" lon="4.76339">
        <ele>250</ele>
        <time>2022-04-03T06:27:55.000Z</time>
      </trkpt>
      <trkpt lat="49.66567" lon="4.76343">
        <ele>249</ele>
        <time>2022-04-03T06:27:56.000Z</time>
      </trkpt>
      <trkpt lat="49.66563" lon="4.76348">
        <ele>249</ele>
        <time>2022-04-03T06:27:57.000Z</time>
      </trkpt>
      <trkpt lat="49.66559" lon="4.76354">
        <ele>249</ele>
        <time>2022-04-03T06:27:58.000Z</time>
      </trkpt>
      <trkpt lat="49.66555" lon="4.76359">
        <ele>249</ele>
        <time>2022-04-03T06:27:59.000Z</time>
      </trkpt>
      <trkpt lat="49.6655" lon="4.76365">
        <ele>249</ele>
        <time>2022-04-03T06:28:00.000Z</time>
      </trkpt>
      <trkpt lat="49.66546" lon="4.76371">
        <ele>249</ele>
        <time>2022-04-03T06:28:01.000Z</time>
      </trkpt>
      <trkpt lat="49.66541" lon="4.76378">
        <ele>249</ele>
        <time>2022-04-03T06:28:02.000Z</time>
      </trkpt>
      <trkpt lat="49.66537" lon="4.76385">
        <ele>249</ele>
        <time>2022-04-03T06:28:03.000Z</time>
      </trkpt>
      <trkpt lat="49.66532" lon="4.76393">
        <ele>248</ele>
        <time>2022-04-03T06:28:04.000Z</time>
      </trkpt>
      <trkpt lat="49.66528" lon="4.76402">
        <ele>248</ele>
        <time>2022-04-03T06:28:05.000Z</time>
      </trkpt>
      <trkpt lat="49.66523" lon="4.7641">
        <ele>248</ele>
        <time>2022-04-03T06:28:06.000Z</time>
      </trkpt>
      <trkpt lat="49.66518" lon="4.76419">
        <ele>248</ele>
        <time>2022-04-03T06:28:07.000Z</time>
      </trkpt>
      <trkpt lat="49.66513" lon="4.76429">
        <ele>247</ele>
        <time>2022-04-03T06:28:08.000Z</time>
      </trkpt>
      <trkpt lat="49.66508" lon="4.76439">
        <ele>247</ele>
        <time>2022-04-03T06:28:09.000Z</time>
      </trkpt>
      <trkpt lat="49.66503" lon="4.7645">
        <ele>246</ele>
        <time>2022-04-03T06:28:10.000Z</time>
      </trkpt>
      <trkpt lat="49.66499" lon="4.76461">
        <ele>246</ele>
        <time>2022-04-03T06:28:11.000Z</time>
      </trkpt>
      <trkpt lat="49.66494" lon="4.76473">
        <ele>245</ele>
        <time>2022-04-03T06:28:12.000Z</time>
      </trkpt>
      <trkpt lat="49.6649" lon="4.76485">
        <ele>245</ele>
        <time>2022-04-03T06:28:13.000Z</time>
      </trkpt>
      <trkpt lat="49.66486" lon="4.76498">
        <ele>244</ele>
        <time>2022-04-03T06:28:14.000Z</time>
      </trkpt>
      <trkpt lat="49.66481" lon="4.76511">
        <ele>243</ele>
        <time>2022-04-03T06:28:15.000Z</time>
      </trkpt>
      <trkpt lat="49.66476" lon="4.76524">
        <ele>242</ele>
        <time>2022-04-03T06:28:16.000Z</time>
      </trkpt>
      <trkpt lat="49.66471" lon="4.76537">
        <ele>242</ele>
        <time>2022-04-03T06:28:17.000Z</time>
      </trkpt>
      <trkpt lat="49.66466" lon="4.7655">
        <ele>241</ele>
        <time>2022-04-03T06:28:18.000Z</time>
      </trkpt>
      <trkpt lat="49.66462" lon="4.76563">
        <ele>240</ele>
        <time>2022-04-03T06:28:19.000Z</time>
      </trkpt>
      <trkpt lat="49.66457" lon="4.76575">
        <ele>240</ele>
        <time>2022-04-03T06:28:20.000Z</time>
      </trkpt>
      <trkpt lat="49.66452" lon="4.76587">
        <ele>239</ele>
        <time>2022-04-03T06:28:21.000Z</time>
      </trkpt>
      <trkpt lat="49.66447" lon="4.766">
        <ele>239</ele>
        <time>2022-04-03T06:28:22.000Z</time>
      </trkpt>
      <trkpt lat="49.66443" lon="4.76611">
        <ele>238</ele>
        <time>2022-04-03T06:28:23.000Z</time>
      </trkpt>
      <trkpt lat="49.6644" lon="4.76621">
        <ele>238</ele>
        <time>2022-04-03T06:28:24.000Z</time>
      </trkpt>
      <trkpt lat="49.66437" lon="4.76629">
        <ele>237</ele>
        <time>2022-04-03T06:28:25.000Z</time>
      </trkpt>
      <trkpt lat="49.66436" lon="4.76636">
        <ele>237</ele>
        <time>2022-04-03T06:28:26.000Z</time>
      </trkpt>
      <trkpt lat="49.66434" lon="4.76643">
        <ele>237</ele>
        <time>2022-04-03T06:28:27.000Z</time>
      </trkpt>
      <trkpt lat="49.66432" lon="4.7665">
        <ele>236</ele>
        <time>2022-04-03T06:28:28.000Z</time>
      </trkpt>
      <trkpt lat="49.66431" lon="4.76655">
        <ele>236</ele>
        <time>2022-04-03T06:28:29.000Z</time>
      </trkpt>
      <trkpt lat="49.66429" lon="4.76658">
        <ele>236</ele>
        <time>2022-04-03T06:28:30.000Z</time>
      </trkpt>
      <trkpt lat="49.66427" lon="4.76659">
        <ele>236</ele>
        <time>2022-04-03T06:28:31.000Z</time>
      </trkpt>
      <trkpt lat="49.66425" lon="4.76659">
        <ele>236</ele>
        <time>2022-04-03T06:28:32.000Z</time>
      </trkpt>
      <trkpt lat="49.66424" lon="4.7666">
        <ele>236</ele>
        <time>2022-04-03T06:28:33.000Z</time>
      </trkpt>
      <trkpt lat="49.66423" lon="4.76659">
        <ele>236</ele>
        <time>2022-04-03T06:28:34.000Z</time>
      </trkpt>
      <trkpt lat="49.66423" lon="4.76657">
        <ele>236</ele>
        <time>2022-04-03T06:28:35.000Z</time>
      </trkpt>
      <trkpt lat="49.66423" lon="4.76654">
        <ele>236</ele>
        <time>2022-04-03T06:28:36.000Z</time>
      </trkpt>
      <trkpt lat="49.66423" lon="4.76652">
        <ele>236</ele>
        <time>2022-04-03T06:28:37.000Z</time>
      </trkpt>
      <trkpt lat="49.66424" lon="4.7665">
        <ele>236</ele>
        <time>2022-04-03T06:28:38.000Z</time>
      </trkpt>
      <trkpt lat="49.66424" lon="4.76648">
        <ele>236</ele>
        <time>2022-04-03T06:28:39.000Z</time>
      </trkpt>
      <trkpt lat="49.66424" lon="4.76648">
        <ele>236</ele>
        <time>2022-04-03T06:28:40.000Z</time>
      </trkpt>
      <trkpt lat="49.66422" lon="4.76649">
        <ele>236</ele>
        <time>2022-04-03T06:28:41.000Z</time>
      </trkpt>
      <trkpt lat="49.6642" lon="4.7665">
        <ele>236</ele>
        <time>2022-04-03T06:28:42.000Z</time>
      </trkpt>
      <trkpt lat="49.66417" lon="4.76652">
        <ele>237</ele>
        <time>2022-04-03T06:28:43.000Z</time>
      </trkpt>
      <trkpt lat="49.66414" lon="4.76654">
        <ele>237</ele>
        <time>2022-04-03T06:28:44.000Z</time>
      </trkpt>
      <trkpt lat="49.6641" lon="4.76655">
        <ele>237</ele>
        <time>2022-04-03T06:28:45.000Z</time>
      </trkpt>
      <trkpt lat="49.66408" lon="4.76654">
        <ele>237</ele>
        <time>2022-04-03T06:28:46.000Z</time>
      </trkpt>
      <trkpt lat="49.66405" lon="4.76654">
        <ele>237</ele>
        <time>2022-04-03T06:28:47.000Z</time>
      </trkpt>
      <trkpt lat="49.66403" lon="4.76654">
        <ele>237</ele>
        <time>2022-04-03T06:28:48.000Z</time>
      </trkpt>
      <trkpt lat="49.66401" lon="4.76655">
        <ele>237</ele>
        <time>2022-04-03T06:28:49.000Z</time>
      </trkpt>
      <trkpt lat="49.66398" lon="4.76657">
        <ele>237</ele>
        <time>2022-04-03T06:28:50.000Z</time>
      </trkpt>
      <trkpt lat="49.66396" lon="4.76658">
        <ele>238</ele>
        <time>2022-04-03T06:28:51.000Z</time>
      </trkpt>
      <trkpt lat="49.66395" lon="4.76659">
        <ele>238</ele>
        <time>2022-04-03T06:28:52.000Z</time>
      </trkpt>
      <trkpt lat="49.66393" lon="4.76659">
        <ele>238</ele>
        <time>2022-04-03T06:28:53.000Z</time>
      </trkpt>
      <trkpt lat="49.66393" lon="4.76659">
        <ele>238</ele>
        <time>2022-04-03T06:28:54.000Z</time>
      </trkpt>
      <trkpt lat="49.66392" lon="4.7666">
        <ele>238</ele>
        <time>2022-04-03T06:28:55.000Z</time>
      </trkpt>
      <trkpt lat="49.66391" lon="4.76661">
        <ele>238</ele>
        <time>2022-04-03T06:28:56.000Z</time>
      </trkpt>
      <trkpt lat="49.6639" lon="4.76662">
        <ele>238</ele>
        <time>2022-04-03T06:28:57.000Z</time>
      </trkpt>
      <trkpt lat="49.66389" lon="4.76663">
        <ele>239</ele>
        <time>2022-04-03T06:28:58.000Z</time>
      </trkpt>
      <trkpt lat="49.66388" lon="4.76663">
        <ele>239</ele>
        <time>2022-04-03T06:28:59.000Z</time>
      </trkpt>
      <trkpt lat="49.66387" lon="4.76664">
        <ele>239</ele>
        <time>2022-04-03T06:29:00.000Z</time>
      </trkpt>
      <trkpt lat="49.66387" lon="4.76664">
        <ele>239</ele>
        <time>2022-04-03T06:29:01.000Z</time>
      </trkpt>
      <trkpt lat="49.66387" lon="4.76665">
        <ele>239</ele>
        <time>2022-04-03T06:29:02.000Z</time>
      </trkpt>
      <trkpt lat="49.66386" lon="4.76666">
        <ele>239</ele>
        <time>2022-04-03T06:29:03.000Z</time>
      </trkpt>
      <trkpt lat="49.66386" lon="4.76668">
        <ele>239</ele>
        <time>2022-04-03T06:29:04.000Z</time>
      </trkpt>
      <trkpt lat="49.66386" lon="4.7667">
        <ele>239</ele>
        <time>2022-04-03T06:29:05.000Z</time>
      </trkpt>
      <trkpt lat="49.66386" lon="4.76672">
        <ele>239</ele>
        <time>2022-04-03T06:29:06.000Z</time>
      </trkpt>
      <trkpt lat="49.66385" lon="4.76675">
        <ele>239</ele>
        <time>2022-04-03T06:29:07.000Z</time>
      </trkpt>
      <trkpt lat="49.66385" lon="4.76678">
        <ele>240</ele>
        <time>2022-04-03T06:29:08.000Z</time>
      </trkpt>
      <trkpt lat="49.66386" lon="4.76681">
        <ele>240</ele>
        <time>2022-04-03T06:29:09.000Z</time>
      </trkpt>
      <trkpt lat="49.66386" lon="4.76684">
        <ele>240</ele>
        <time>2022-04-03T06:29:10.000Z</time>
      </trkpt>
      <trkpt lat="49.66386" lon="4.76686">
        <ele>240</ele>
        <time>2022-04-03T06:29:11.000Z</time>
      </trkpt>
      <trkpt lat="49.66387" lon="4.76688">
        <ele>240</ele>
        <time>2022-04-03T06:29:12.000Z</time>
      </trkpt>
      <trkpt lat="49.66386" lon="4.7669">
        <ele>240</ele>
        <time>2022-04-03T06:29:13.000Z</time>
      </trkpt>
      <trkpt lat="49.66386" lon="4.76693">
        <ele>240</ele>
        <time>2022-04-03T06:29:14.000Z</time>
      </trkpt>
      <trkpt lat="49.66386" lon="4.76696">
        <ele>240</ele>
        <time>2022-04-03T06:29:15.000Z</time>
      </trkpt>
      <trkpt lat="49.66387" lon="4.76699">
        <ele>240</ele>
        <time>2022-04-03T06:29:16.000Z</time>
      </trkpt>
      <trkpt lat="49.66388" lon="4.76701">
        <ele>240</ele>
        <time>2022-04-03T06:29:17.000Z</time>
      </trkpt>
      <trkpt lat="49.66388" lon="4.76704">
        <ele>240</ele>
        <time>2022-04-03T06:29:18.000Z</time>
      </trkpt>
      <trkpt lat="49.66389" lon="4.76708">
        <ele>240</ele>
        <time>2022-04-03T06:29:19.000Z</time>
      </trkpt>
      <trkpt lat="49.66389" lon="4.76712">
        <ele>240</ele>
        <time>2022-04-03T06:29:20.000Z</time>
      </trkpt>
      <trkpt lat="49.6639" lon="4.76716">
        <ele>240</ele>
        <time>2022-04-03T06:29:21.000Z</time>
      </trkpt>
      <trkpt lat="49.66391" lon="4.76721">
        <ele>240</ele>
        <time>2022-04-03T06:29:22.000Z</time>
      </trkpt>
      <trkpt lat="49.66391" lon="4.76725">
        <ele>241</ele>
        <time>2022-04-03T06:29:23.000Z</time>
      </trkpt>
      <trkpt lat="49.66391" lon="4.76729">
        <ele>241</ele>
        <time>2022-04-03T06:29:24.000Z</time>
      </trkpt>
      <trkpt lat="49.66391" lon="4.76733">
        <ele>241</ele>
        <time>2022-04-03T06:29:25.000Z</time>
      </trkpt>
      <trkpt lat="49.66392" lon="4.76738">
        <ele>241</ele>
        <time>2022-04-03T06:29:26.000Z</time>
      </trkpt>
      <trkpt lat="49.66392" lon="4.76742">
        <ele>241</ele>
        <time>2022-04-03T06:29:27.000Z</time>
      </trkpt>
      <trkpt lat="49.66392" lon="4.76745">
        <ele>241</ele>
        <time>2022-04-03T06:29:28.000Z</time>
      </trkpt>
      <trkpt lat="49.66392" lon="4.76749">
        <ele>241</ele>
        <time>2022-04-03T06:29:29.000Z</time>
      </trkpt>
      <trkpt lat="49.66392" lon="4.76753">
        <ele>241</ele>
        <time>2022-04-03T06:29:30.000Z</time>
      </trkpt>
      <trkpt lat="49.66392" lon="4.76757">
        <ele>242</ele>
        <time>2022-04-03T06:29:31.000Z</time>
      </trkpt>
      <trkpt lat="49.66392" lon="4.76761">
        <ele>242</ele>
        <time>2022-04-03T06:29:32.000Z</time>
      </trkpt>
      <trkpt lat="49.66391" lon="4.76764">
        <ele>242</ele>
        <time>2022-04-03T06:29:33.000Z</time>
      </trkpt>
      <trkpt lat="49.66391" lon="4.76767">
        <ele>242</ele>
        <time>2022-04-03T06:29:34.000Z</time>
      </trkpt>
      <trkpt lat="49.66392" lon="4.76771">
        <ele>242</ele>
        <time>2022-04-03T06:29:35.000Z</time>
      </trkpt>
      <trkpt lat="49.66392" lon="4.76775">
        <ele>242</ele>
        <time>2022-04-03T06:29:36.000Z</time>
      </trkpt>
      <trkpt lat="49.66392" lon="4.76779">
        <ele>242</ele>
        <time>2022-04-03T06:29:37.000Z</time>
      </trkpt>
      <trkpt lat="49.66392" lon="4.76783">
        <ele>242</ele>
        <time>2022-04-03T06:29:38.000Z</time>
      </trkpt>
      <trkpt lat="49.66392" lon="4.76787">
        <ele>242</ele>
        <time>2022-04-03T06:29:39.000Z</time>
      </trkpt>
      <trkpt lat="49.66392" lon="4.76791">
        <ele>242</ele>
        <time>2022-04-03T06:29:40.000Z</time>
      </trkpt>
      <trkpt lat="49.66392" lon="4.76795">
        <ele>242</ele>
        <time>2022-04-03T06:29:41.000Z</time>
      </trkpt>
      <trkpt lat="49.66392" lon="4.76799">
        <ele>242</ele>
        <time>2022-04-03T06:29:42.000Z</time>
      </trkpt>
      <trkpt lat="49.66392" lon="4.76803">
        <ele>242</ele>
        <time>2022-04-03T06:29:43.000Z</time>
      </trkpt>
      <trkpt lat="49.66392" lon="4.76807">
        <ele>242</ele>
        <time>2022-04-03T06:29:44.000Z</time>
      </trkpt>
      <trkpt lat="49.66392" lon="4.7681">
        <ele>242</ele>
        <time>2022-04-03T06:29:45.000Z</time>
      </trkpt>
      <trkpt lat="49.66392" lon="4.76814">
        <ele>242</ele>
        <time>2022-04-03T06:29:46.000Z</time>
      </trkpt>
      <trkpt lat="49.66392" lon="4.76817">
        <ele>242</ele>
        <time>2022-04-03T06:29:47.000Z</time>
      </trkpt>
      <trkpt lat="49.66392" lon="4.7682">
        <ele>243</ele>
        <time>2022-04-03T06:29:48.000Z</time>
      </trkpt>
      <trkpt lat="49.66392" lon="4.76824">
        <ele>243</ele>
        <time>2022-04-03T06:29:49.000Z</time>
      </trkpt>
      <trkpt lat="49.66391" lon="4.76827">
        <ele>243</ele>
        <time>2022-04-03T06:29:50.000Z</time>
      </trkpt>
      <trkpt lat="49.66391" lon="4.7683">
        <ele>243</ele>
        <time>2022-04-03T06:29:51.000Z</time>
      </trkpt>
      <trkpt lat="49.6639" lon="4.76833">
        <ele>243</ele>
        <time>2022-04-03T06:29:52.000Z</time>
      </trkpt>
      <trkpt lat="49.66389" lon="4.76837">
        <ele>243</ele>
        <time>2022-04-03T06:29:53.000Z</time>
      </trkpt>
      <trkpt lat="49.66389" lon="4.7684">
        <ele>243</ele>
        <time>2022-04-03T06:29:54.000Z</time>
      </trkpt>
      <trkpt lat="49.66389" lon="4.76843">
        <ele>243</ele>
        <time>2022-04-03T06:29:55.000Z</time>
      </trkpt>
      <trkpt lat="49.66388" lon="4.76846">
        <ele>243</ele>
        <time>2022-04-03T06:29:56.000Z</time>
      </trkpt>
      <trkpt lat="49.66387" lon="4.76849">
        <ele>244</ele>
        <time>2022-04-03T06:29:57.000Z</time>
      </trkpt>
      <trkpt lat="49.66386" lon="4.76851">
        <ele>244</ele>
        <time>2022-04-03T06:29:58.000Z</time>
      </trkpt>
      <trkpt lat="49.66385" lon="4.76854">
        <ele>244</ele>
        <time>2022-04-03T06:29:59.000Z</time>
      </trkpt>
      <trkpt lat="49.66385" lon="4.76856">
        <ele>244</ele>
        <time>2022-04-03T06:30:00.000Z</time>
      </trkpt>
      <trkpt lat="49.66384" lon="4.76858">
        <ele>244</ele>
        <time>2022-04-03T06:30:01.000Z</time>
      </trkpt>
      <trkpt lat="49.66384" lon="4.76861">
        <ele>244</ele>
        <time>2022-04-03T06:30:02.000Z</time>
      </trkpt>
      <trkpt lat="49.66384" lon="4.76863">
        <ele>244</ele>
        <time>2022-04-03T06:30:03.000Z</time>
      </trkpt>
      <trkpt lat="49.66384" lon="4.76866">
        <ele>244</ele>
        <time>2022-04-03T06:30:04.000Z</time>
      </trkpt>
      <trkpt lat="49.66384" lon="4.76868">
        <ele>245</ele>
        <time>2022-04-03T06:30:05.000Z</time>
      </trkpt>
      <trkpt lat="49.66383" lon="4.76871">
        <ele>245</ele>
        <time>2022-04-03T06:30:06.000Z</time>
      </trkpt>
      <trkpt lat="49.66383" lon="4.76873">
        <ele>245</ele>
        <time>2022-04-03T06:30:07.000Z</time>
      </trkpt>
      <trkpt lat="49.66383" lon="4.76876">
        <ele>245</ele>
        <time>2022-04-03T06:30:08.000Z</time>
      </trkpt>
      <trkpt lat="49.66383" lon="4.76878">
        <ele>245</ele>
        <time>2022-04-03T06:30:09.000Z</time>
      </trkpt>
      <trkpt lat="49.66382" lon="4.76881">
        <ele>245</ele>
        <time>2022-04-03T06:30:10.000Z</time>
      </trkpt>
      <trkpt lat="49.66382" lon="4.76883">
        <ele>245</ele>
        <time>2022-04-03T06:30:11.000Z</time>
      </trkpt>
      <trkpt lat="49.66381" lon="4.76885">
        <ele>244</ele>
        <time>2022-04-03T06:30:12.000Z</time>
      </trkpt>
      <trkpt lat="49.66381" lon="4.76887">
        <ele>244</ele>
        <time>2022-04-03T06:30:13.000Z</time>
      </trkpt>
      <trkpt lat="49.6638" lon="4.7689">
        <ele>244</ele>
        <time>2022-04-03T06:30:14.000Z</time>
      </trkpt>
      <trkpt lat="49.6638" lon="4.76893">
        <ele>244</ele>
        <time>2022-04-03T06:30:15.000Z</time>
      </trkpt>
      <trkpt lat="49.66379" lon="4.76896">
        <ele>244</ele>
        <time>2022-04-03T06:30:16.000Z</time>
      </trkpt>
      <trkpt lat="49.66378" lon="4.76898">
        <ele>244</ele>
        <time>2022-04-03T06:30:17.000Z</time>
      </trkpt>
      <trkpt lat="49.66377" lon="4.76901">
        <ele>244</ele>
        <time>2022-04-03T06:30:18.000Z</time>
      </trkpt>
      <trkpt lat="49.66376" lon="4.76903">
        <ele>244</ele>
        <time>2022-04-03T06:30:19.000Z</time>
      </trkpt>
      <trkpt lat="49.66375" lon="4.76906">
        <ele>244</ele>
        <time>2022-04-03T06:30:20.000Z</time>
      </trkpt>
      <trkpt lat="49.66374" lon="4.76908">
        <ele>244</ele>
        <time>2022-04-03T06:30:21.000Z</time>
      </trkpt>
      <trkpt lat="49.66373" lon="4.7691">
        <ele>244</ele>
        <time>2022-04-03T06:30:22.000Z</time>
      </trkpt>
      <trkpt lat="49.66372" lon="4.76913">
        <ele>243</ele>
        <time>2022-04-03T06:30:23.000Z</time>
      </trkpt>
      <trkpt lat="49.66371" lon="4.76916">
        <ele>243</ele>
        <time>2022-04-03T06:30:24.000Z</time>
      </trkpt>
      <trkpt lat="49.66371" lon="4.76918">
        <ele>243</ele>
        <time>2022-04-03T06:30:25.000Z</time>
      </trkpt>
      <trkpt lat="49.6637" lon="4.76921">
        <ele>243</ele>
        <time>2022-04-03T06:30:26.000Z</time>
      </trkpt>
      <trkpt lat="49.6637" lon="4.76923">
        <ele>244</ele>
        <time>2022-04-03T06:30:27.000Z</time>
      </trkpt>
      <trkpt lat="49.6637" lon="4.76926">
        <ele>244</ele>
        <time>2022-04-03T06:30:28.000Z</time>
      </trkpt>
      <trkpt lat="49.6637" lon="4.76928">
        <ele>244</ele>
        <time>2022-04-03T06:30:29.000Z</time>
      </trkpt>
      <trkpt lat="49.6637" lon="4.7693">
        <ele>244</ele>
        <time>2022-04-03T06:30:30.000Z</time>
      </trkpt>
      <trkpt lat="49.66369" lon="4.76933">
        <ele>244</ele>
        <time>2022-04-03T06:30:31.000Z</time>
      </trkpt>
      <trkpt lat="49.66369" lon="4.76935">
        <ele>244</ele>
        <time>2022-04-03T06:30:32.000Z</time>
      </trkpt>
      <trkpt lat="49.66368" lon="4.76938">
        <ele>244</ele>
        <time>2022-04-03T06:30:33.000Z</time>
      </trkpt>
      <trkpt lat="49.66368" lon="4.76941">
        <ele>244</ele>
        <time>2022-04-03T06:30:34.000Z</time>
      </trkpt>
      <trkpt lat="49.66367" lon="4.76943">
        <ele>244</ele>
        <time>2022-04-03T06:30:35.000Z</time>
      </trkpt>
      <trkpt lat="49.66366" lon="4.76945">
        <ele>244</ele>
        <time>2022-04-03T06:30:36.000Z</time>
      </trkpt>
      <trkpt lat="49.66366" lon="4.76948">
        <ele>244</ele>
        <time>2022-04-03T06:30:37.000Z</time>
      </trkpt>
      <trkpt lat="49.66365" lon="4.76951">
        <ele>244</ele>
        <time>2022-04-03T06:30:38.000Z</time>
      </trkpt>
      <trkpt lat="49.66364" lon="4.76953">
        <ele>244</ele>
        <time>2022-04-03T06:30:39.000Z</time>
      </trkpt>
      <trkpt lat="49.66362" lon="4.76955">
        <ele>244</ele>
        <time>2022-04-03T06:30:40.000Z</time>
      </trkpt>
      <trkpt lat="49.66361" lon="4.76957">
        <ele>245</ele>
        <time>2022-04-03T06:30:41.000Z</time>
      </trkpt>
      <trkpt lat="49.66361" lon="4.76959">
        <ele>245</ele>
        <time>2022-04-03T06:30:42.000Z</time>
      </trkpt>
      <trkpt lat="49.6636" lon="4.76962">
        <ele>245</ele>
        <time>2022-04-03T06:30:43.000Z</time>
      </trkpt>
      <trkpt lat="49.66359" lon="4.76964">
        <ele>246</ele>
        <time>2022-04-03T06:30:44.000Z</time>
      </trkpt>
      <trkpt lat="49.66358" lon="4.76967">
        <ele>246</ele>
        <time>2022-04-03T06:30:45.000Z</time>
      </trkpt>
      <trkpt lat="49.66357" lon="4.76969">
        <ele>246</ele>
        <time>2022-04-03T06:30:46.000Z</time>
      </trkpt>
      <trkpt lat="49.66356" lon="4.76971">
        <ele>247</ele>
        <time>2022-04-03T06:30:47.000Z</time>
      </trkpt>
      <trkpt lat="49.66355" lon="4.76973">
        <ele>247</ele>
        <time>2022-04-03T06:30:48.000Z</time>
      </trkpt>
      <trkpt lat="49.66354" lon="4.76976">
        <ele>247</ele>
        <time>2022-04-03T06:30:49.000Z</time>
      </trkpt>
      <trkpt lat="49.66353" lon="4.76978">
        <ele>248</ele>
        <time>2022-04-03T06:30:50.000Z</time>
      </trkpt>
      <trkpt lat="49.66353" lon="4.76981">
        <ele>248</ele>
        <time>2022-04-03T06:30:51.000Z</time>
      </trkpt>
      <trkpt lat="49.66352" lon="4.76983">
        <ele>248</ele>
        <time>2022-04-03T06:30:52.000Z</time>
      </trkpt>
      <trkpt lat="49.66351" lon="4.76985">
        <ele>249</ele>
        <time>2022-04-03T06:30:53.000Z</time>
      </trkpt>
      <trkpt lat="49.6635" lon="4.76987">
        <ele>249</ele>
        <time>2022-04-03T06:30:54.000Z</time>
      </trkpt>
      <trkpt lat="49.6635" lon="4.76989">
        <ele>249</ele>
        <time>2022-04-03T06:30:55.000Z</time>
      </trkpt>
      <trkpt lat="49.66349" lon="4.76992">
        <ele>249</ele>
        <time>2022-04-03T06:30:56.000Z</time>
      </trkpt>
      <trkpt lat="49.66348" lon="4.76994">
        <ele>250</ele>
        <time>2022-04-03T06:30:57.000Z</time>
      </trkpt>
      <trkpt lat="49.66347" lon="4.76996">
        <ele>250</ele>
        <time>2022-04-03T06:30:58.000Z</time>
      </trkpt>
      <trkpt lat="49.66346" lon="4.76998">
        <ele>250</ele>
        <time>2022-04-03T06:30:59.000Z</time>
      </trkpt>
      <trkpt lat="49.66345" lon="4.77">
        <ele>251</ele>
        <time>2022-04-03T06:31:00.000Z</time>
      </trkpt>
      <trkpt lat="49.66344" lon="4.77002">
        <ele>251</ele>
        <time>2022-04-03T06:31:01.000Z</time>
      </trkpt>
      <trkpt lat="49.66343" lon="4.77005">
        <ele>251</ele>
        <time>2022-04-03T06:31:02.000Z</time>
      </trkpt>
      <trkpt lat="49.66342" lon="4.77008">
        <ele>252</ele>
        <time>2022-04-03T06:31:03.000Z</time>
      </trkpt>
      <trkpt lat="49.66341" lon="4.77011">
        <ele>252</ele>
        <time>2022-04-03T06:31:04.000Z</time>
      </trkpt>
      <trkpt lat="49.6634" lon="4.77014">
        <ele>252</ele>
        <time>2022-04-03T06:31:05.000Z</time>
      </trkpt>
      <trkpt lat="49.66339" lon="4.77017">
        <ele>253</ele>
        <time>2022-04-03T06:31:06.000Z</time>
      </trkpt>
      <trkpt lat="49.66338" lon="4.77019">
        <ele>253</ele>
        <time>2022-04-03T06:31:07.000Z</time>
      </trkpt>
      <trkpt lat="49.66336" lon="4.77022">
        <ele>253</ele>
        <time>2022-04-03T06:31:08.000Z</time>
      </trkpt>
      <trkpt lat="49.66335" lon="4.77024">
        <ele>253</ele>
        <time>2022-04-03T06:31:09.000Z</time>
      </trkpt>
      <trkpt lat="49.66334" lon="4.77026">
        <ele>254</ele>
        <time>2022-04-03T06:31:10.000Z</time>
      </trkpt>
      <trkpt lat="49.66333" lon="4.77029">
        <ele>254</ele>
        <time>2022-04-03T06:31:11.000Z</time>
      </trkpt>
      <trkpt lat="49.66332" lon="4.77032">
        <ele>254</ele>
        <time>2022-04-03T06:31:12.000Z</time>
      </trkpt>
      <trkpt lat="49.66332" lon="4.77034">
        <ele>254</ele>
        <time>2022-04-03T06:31:13.000Z</time>
      </trkpt>
      <trkpt lat="49.6633" lon="4.77037">
        <ele>254</ele>
        <time>2022-04-03T06:31:14.000Z</time>
      </trkpt>
      <trkpt lat="49.66329" lon="4.7704">
        <ele>254</ele>
        <time>2022-04-03T06:31:15.000Z</time>
      </trkpt>
      <trkpt lat="49.66328" lon="4.77043">
        <ele>254</ele>
        <time>2022-04-03T06:31:16.000Z</time>
      </trkpt>
      <trkpt lat="49.66326" lon="4.77046">
        <ele>254</ele>
        <time>2022-04-03T06:31:17.000Z</time>
      </trkpt>
      <trkpt lat="49.66325" lon="4.77049">
        <ele>255</ele>
        <time>2022-04-03T06:31:18.000Z</time>
      </trkpt>
      <trkpt lat="49.66324" lon="4.77052">
        <ele>255</ele>
        <time>2022-04-03T06:31:19.000Z</time>
      </trkpt>
      <trkpt lat="49.66323" lon="4.77055">
        <ele>255</ele>
        <time>2022-04-03T06:31:20.000Z</time>
      </trkpt>
      <trkpt lat="49.66321" lon="4.77058">
        <ele>255</ele>
        <time>2022-04-03T06:31:21.000Z</time>
      </trkpt>
      <trkpt lat="49.6632" lon="4.77061">
        <ele>255</ele>
        <time>2022-04-03T06:31:22.000Z</time>
      </trkpt>
      <trkpt lat="49.6632" lon="4.77064">
        <ele>255</ele>
        <time>2022-04-03T06:31:23.000Z</time>
      </trkpt>
      <trkpt lat="49.66319" lon="4.77067">
        <ele>255</ele>
        <time>2022-04-03T06:31:24.000Z</time>
      </trkpt>
      <trkpt lat="49.66318" lon="4.7707">
        <ele>255</ele>
        <time>2022-04-03T06:31:25.000Z</time>
      </trkpt>
      <trkpt lat="49.66317" lon="4.77073">
        <ele>255</ele>
        <time>2022-04-03T06:31:26.000Z</time>
      </trkpt>
      <trkpt lat="49.66316" lon="4.77075">
        <ele>255</ele>
        <time>2022-04-03T06:31:27.000Z</time>
      </trkpt>
      <trkpt lat="49.66315" lon="4.77078">
        <ele>255</ele>
        <time>2022-04-03T06:31:28.000Z</time>
      </trkpt>
      <trkpt lat="49.66314" lon="4.77081">
        <ele>255</ele>
        <time>2022-04-03T06:31:29.000Z</time>
      </trkpt>
      <trkpt lat="49.66313" lon="4.77084">
        <ele>255</ele>
        <time>2022-04-03T06:31:30.000Z</time>
      </trkpt>
      <trkpt lat="49.66312" lon="4.77087">
        <ele>255</ele>
        <time>2022-04-03T06:31:31.000Z</time>
      </trkpt>
      <trkpt lat="49.66311" lon="4.7709">
        <ele>256</ele>
        <time>2022-04-03T06:31:32.000Z</time>
      </trkpt>
      <trkpt lat="49.6631" lon="4.77094">
        <ele>256</ele>
        <time>2022-04-03T06:31:33.000Z</time>
      </trkpt>
      <trkpt lat="49.66308" lon="4.77097">
        <ele>256</ele>
        <time>2022-04-03T06:31:34.000Z</time>
      </trkpt>
      <trkpt lat="49.66307" lon="4.77101">
        <ele>256</ele>
        <time>2022-04-03T06:31:35.000Z</time>
      </trkpt>
      <trkpt lat="49.66307" lon="4.77104">
        <ele>256</ele>
        <time>2022-04-03T06:31:36.000Z</time>
      </trkpt>
      <trkpt lat="49.66306" lon="4.77108">
        <ele>256</ele>
        <time>2022-04-03T06:31:37.000Z</time>
      </trkpt>
      <trkpt lat="49.66305" lon="4.77111">
        <ele>256</ele>
        <time>2022-04-03T06:31:38.000Z</time>
      </trkpt>
      <trkpt lat="49.66304" lon="4.77114">
        <ele>256</ele>
        <time>2022-04-03T06:31:39.000Z</time>
      </trkpt>
      <trkpt lat="49.66304" lon="4.77118">
        <ele>256</ele>
        <time>2022-04-03T06:31:40.000Z</time>
      </trkpt>
      <trkpt lat="49.66303" lon="4.77121">
        <ele>256</ele>
        <time>2022-04-03T06:31:41.000Z</time>
      </trkpt>
      <trkpt lat="49.66301" lon="4.77124">
        <ele>256</ele>
        <time>2022-04-03T06:31:42.000Z</time>
      </trkpt>
      <trkpt lat="49.663" lon="4.77127">
        <ele>256</ele>
        <time>2022-04-03T06:31:43.000Z</time>
      </trkpt>
      <trkpt lat="49.66299" lon="4.7713">
        <ele>257</ele>
        <time>2022-04-03T06:31:44.000Z</time>
      </trkpt>
      <trkpt lat="49.66298" lon="4.77133">
        <ele>257</ele>
        <time>2022-04-03T06:31:45.000Z</time>
      </trkpt>
      <trkpt lat="49.66297" lon="4.77135">
        <ele>257</ele>
        <time>2022-04-03T06:31:46.000Z</time>
      </trkpt>
      <trkpt lat="49.66296" lon="4.77138">
        <ele>257</ele>
        <time>2022-04-03T06:31:47.000Z</time>
      </trkpt>
      <trkpt lat="49.66295" lon="4.77142">
        <ele>257</ele>
        <time>2022-04-03T06:31:48.000Z</time>
      </trkpt>
      <trkpt lat="49.66293" lon="4.77145">
        <ele>257</ele>
        <time>2022-04-03T06:31:49.000Z</time>
      </trkpt>
      <trkpt lat="49.66292" lon="4.77147">
        <ele>257</ele>
        <time>2022-04-03T06:31:50.000Z</time>
      </trkpt>
      <trkpt lat="49.66291" lon="4.77151">
        <ele>257</ele>
        <time>2022-04-03T06:31:51.000Z</time>
      </trkpt>
      <trkpt lat="49.66291" lon="4.77154">
        <ele>257</ele>
        <time>2022-04-03T06:31:52.000Z</time>
      </trkpt>
      <trkpt lat="49.6629" lon="4.77158">
        <ele>257</ele>
        <time>2022-04-03T06:31:53.000Z</time>
      </trkpt>
      <trkpt lat="49.66289" lon="4.77162">
        <ele>257</ele>
        <time>2022-04-03T06:31:54.000Z</time>
      </trkpt>
      <trkpt lat="49.66289" lon="4.77166">
        <ele>257</ele>
        <time>2022-04-03T06:31:55.000Z</time>
      </trkpt>
      <trkpt lat="49.66289" lon="4.7717">
        <ele>257</ele>
        <time>2022-04-03T06:31:56.000Z</time>
      </trkpt>
      <trkpt lat="49.66289" lon="4.77174">
        <ele>257</ele>
        <time>2022-04-03T06:31:57.000Z</time>
      </trkpt>
      <trkpt lat="49.6629" lon="4.77179">
        <ele>257</ele>
        <time>2022-04-03T06:31:58.000Z</time>
      </trkpt>
      <trkpt lat="49.66289" lon="4.77184">
        <ele>257</ele>
        <time>2022-04-03T06:31:59.000Z</time>
      </trkpt>
      <trkpt lat="49.66288" lon="4.77188">
        <ele>257</ele>
        <time>2022-04-03T06:32:00.000Z</time>
      </trkpt>
      <trkpt lat="49.66287" lon="4.77192">
        <ele>257</ele>
        <time>2022-04-03T06:32:01.000Z</time>
      </trkpt>
      <trkpt lat="49.66285" lon="4.77195">
        <ele>257</ele>
        <time>2022-04-03T06:32:02.000Z</time>
      </trkpt>
      <trkpt lat="49.66285" lon="4.77195">
        <ele>258</ele>
        <time>2022-04-03T06:32:03.000Z</time>
      </trkpt>
      <trkpt lat="49.66285" lon="4.77195">
        <ele>258</ele>
        <time>2022-04-03T06:32:04.000Z</time>
      </trkpt>
      <trkpt lat="49.66285" lon="4.77195">
        <ele>258</ele>
        <time>2022-04-03T06:32:05.000Z</time>
      </trkpt>
      <trkpt lat="49.66285" lon="4.77196">
        <ele>258</ele>
        <time>2022-04-03T06:32:06.000Z</time>
      </trkpt>
      <trkpt lat="49.66285" lon="4.77196">
        <ele>258</ele>
        <time>2022-04-03T06:32:07.000Z</time>
      </trkpt>
      <trkpt lat="49.66284" lon="4.77196">
        <ele>259</ele>
        <time>2022-04-03T06:32:08.000Z</time>
      </trkpt>
      <trkpt lat="49.66284" lon="4.77197">
        <ele>259</ele>
        <time>2022-04-03T06:32:09.000Z</time>
      </trkpt>
      <trkpt lat="49.66284" lon="4.77197">
        <ele>258</ele>
        <time>2022-04-03T06:32:10.000Z</time>
      </trkpt>
      <trkpt lat="49.66284" lon="4.77197">
        <ele>258</ele>
        <time>2022-04-03T06:32:11.000Z</time>
      </trkpt>
      <trkpt lat="49.66284" lon="4.77197">
        <ele>258</ele>
        <time>2022-04-03T06:32:12.000Z</time>
      </trkpt>
      <trkpt lat="49.66284" lon="4.77197">
        <ele>258</ele>
        <time>2022-04-03T06:32:13.000Z</time>
      </trkpt>
      <trkpt lat="49.66283" lon="4.77197">
        <ele>258</ele>
        <time>2022-04-03T06:32:14.000Z</time>
      </trkpt>
      <trkpt lat="49.66283" lon="4.77197">
        <ele>258</ele>
        <time>2022-04-03T06:32:15.000Z</time>
      </trkpt>
      <trkpt lat="49.66283" lon="4.77197">
        <ele>258</ele>
        <time>2022-04-03T06:32:16.000Z</time>
      </trkpt>
      <trkpt lat="49.66283" lon="4.77197">
        <ele>258</ele>
        <time>2022-04-03T06:32:17.000Z</time>
      </trkpt>
      <trkpt lat="49.66283" lon="4.77197">
        <ele>258</ele>
        <time>2022-04-03T06:32:18.000Z</time>
      </trkpt>
      <trkpt lat="49.66283" lon="4.77197">
        <ele>258</ele>
        <time>2022-04-03T06:32:19.000Z</time>
      </trkpt>
      <trkpt lat="49.66283" lon="4.77197">
        <ele>258</ele>
        <time>2022-04-03T06:32:20.000Z</time>
      </trkpt>
      <trkpt lat="49.66283" lon="4.77197">
        <ele>258</ele>
        <time>2022-04-03T06:32:21.000Z</time>
      </trkpt>
      <trkpt lat="49.66283" lon="4.77197">
        <ele>258</ele>
        <time>2022-04-03T06:32:22.000Z</time>
      </trkpt>
      <trkpt lat="49.66283" lon="4.77197">
        <ele>258</ele>
        <time>2022-04-03T06:32:23.000Z</time>
      </trkpt>
      <trkpt lat="49.66283" lon="4.77198">
        <ele>258</ele>
        <time>2022-04-03T06:32:24.000Z</time>
      </trkpt>
      <trkpt lat="49.66283" lon="4.77198">
        <ele>258</ele>
        <time>2022-04-03T06:32:25.000Z</time>
      </trkpt>
      <trkpt lat="49.66283" lon="4.77198">
        <ele>258</ele>
        <time>2022-04-03T06:32:26.000Z</time>
      </trkpt>
      <trkpt lat="49.66282" lon="4.77198">
        <ele>258</ele>
        <time>2022-04-03T06:32:27.000Z</time>
      </trkpt>
      <trkpt lat="49.66282" lon="4.77198">
        <ele>258</ele>
        <time>2022-04-03T06:32:28.000Z</time>
      </trkpt>
      <trkpt lat="49.66282" lon="4.77198">
        <ele>258</ele>
        <time>2022-04-03T06:32:29.000Z</time>
      </trkpt>
      <trkpt lat="49.66282" lon="4.77198">
        <ele>258</ele>
        <time>2022-04-03T06:32:30.000Z</time>
      </trkpt>
      <trkpt lat="49.66282" lon="4.77198">
        <ele>258</ele>
        <time>2022-04-03T06:32:31.000Z</time>
      </trkpt>
      <trkpt lat="49.66282" lon="4.77198">
        <ele>258</ele>
        <time>2022-04-03T06:32:32.000Z</time>
      </trkpt>
      <trkpt lat="49.66282" lon="4.77198">
        <ele>258</ele>
        <time>2022-04-03T06:32:33.000Z</time>
      </trkpt>
      <trkpt lat="49.66282" lon="4.77198">
        <ele>258</ele>
        <time>2022-04-03T06:32:34.000Z</time>
      </trkpt>
      <trkpt lat="49.66282" lon="4.77198">
        <ele>258</ele>
        <time>2022-04-03T06:32:35.000Z</time>
      </trkpt>
      <trkpt lat="49.66282" lon="4.77198">
        <ele>258</ele>
        <time>2022-04-03T06:32:36.000Z</time>
      </trkpt>
      <trkpt lat="49.66282" lon="4.77198">
        <ele>258</ele>
        <time>2022-04-03T06:32:37.000Z</time>
      </trkpt>
      <trkpt lat="49.66282" lon="4.77198">
        <ele>258</ele>
        <time>2022-04-03T06:32:38.000Z</time>
      </trkpt>
      <trkpt lat="49.66282" lon="4.77198">
        <ele>258</ele>
        <time>2022-04-03T06:32:39.000Z</time>
      </trkpt>
      <trkpt lat="49.66282" lon="4.77198">
        <ele>258</ele>
        <time>2022-04-03T06:32:40.000Z</time>
      </trkpt>
      <trkpt lat="49.66282" lon="4.77198">
        <ele>258</ele>
        <time>2022-04-03T06:32:41.000Z</time>
      </trkpt>
      <trkpt lat="49.66282" lon="4.77199">
        <ele>258</ele>
        <time>2022-04-03T06:32:42.000Z</time>
      </trkpt>
      <trkpt lat="49.66281" lon="4.772">
        <ele>258</ele>
        <time>2022-04-03T06:32:43.000Z</time>
      </trkpt>
      <trkpt lat="49.6628" lon="4.77201">
        <ele>259</ele>
        <time>2022-04-03T06:32:44.000Z</time>
      </trkpt>
      <trkpt lat="49.66278" lon="4.77204">
        <ele>259</ele>
        <time>2022-04-03T06:32:45.000Z</time>
      </trkpt>
      <trkpt lat="49.66275" lon="4.77206">
        <ele>259</ele>
        <time>2022-04-03T06:32:46.000Z</time>
      </trkpt>
      <trkpt lat="49.66273" lon="4.77209">
        <ele>259</ele>
        <time>2022-04-03T06:32:47.000Z</time>
      </trkpt>
      <trkpt lat="49.66271" lon="4.77212">
        <ele>259</ele>
        <time>2022-04-03T06:32:48.000Z</time>
      </trkpt>
      <trkpt lat="49.66268" lon="4.77215">
        <ele>259</ele>
        <time>2022-04-03T06:32:49.000Z</time>
      </trkpt>
      <trkpt lat="49.66265" lon="4.77219">
        <ele>259</ele>
        <time>2022-04-03T06:32:50.000Z</time>
      </trkpt>
      <trkpt lat="49.66262" lon="4.77222">
        <ele>259</ele>
        <time>2022-04-03T06:32:51.000Z</time>
      </trkpt>
      <trkpt lat="49.66258" lon="4.77226">
        <ele>259</ele>
        <time>2022-04-03T06:32:52.000Z</time>
      </trkpt>
      <trkpt lat="49.66256" lon="4.7723">
        <ele>260</ele>
        <time>2022-04-03T06:32:53.000Z</time>
      </trkpt>
      <trkpt lat="49.66253" lon="4.77235">
        <ele>259</ele>
        <time>2022-04-03T06:32:54.000Z</time>
      </trkpt>
      <trkpt lat="49.6625" lon="4.77241">
        <ele>259</ele>
        <time>2022-04-03T06:32:55.000Z</time>
      </trkpt>
      <trkpt lat="49.66248" lon="4.77247">
        <ele>259</ele>
        <time>2022-04-03T06:32:56.000Z</time>
      </trkpt>
      <trkpt lat="49.66246" lon="4.77253">
        <ele>259</ele>
        <time>2022-04-03T06:32:57.000Z</time>
      </trkpt>
      <trkpt lat="49.66243" lon="4.77258">
        <ele>259</ele>
        <time>2022-04-03T06:32:58.000Z</time>
      </trkpt>
      <trkpt lat="49.66241" lon="4.77263">
        <ele>259</ele>
        <time>2022-04-03T06:32:59.000Z</time>
      </trkpt>
      <trkpt lat="49.66239" lon="4.77269">
        <ele>258</ele>
        <time>2022-04-03T06:33:00.000Z</time>
      </trkpt>
      <trkpt lat="49.66237" lon="4.77275">
        <ele>258</ele>
        <time>2022-04-03T06:33:01.000Z</time>
      </trkpt>
      <trkpt lat="49.66235" lon="4.7728">
        <ele>258</ele>
        <time>2022-04-03T06:33:02.000Z</time>
      </trkpt>
      <trkpt lat="49.66233" lon="4.77286">
        <ele>258</ele>
        <time>2022-04-03T06:33:03.000Z</time>
      </trkpt>
      <trkpt lat="49.66231" lon="4.77291">
        <ele>258</ele>
        <time>2022-04-03T06:33:04.000Z</time>
      </trkpt>
      <trkpt lat="49.66229" lon="4.77297">
        <ele>258</ele>
        <time>2022-04-03T06:33:05.000Z</time>
      </trkpt>
      <trkpt lat="49.66228" lon="4.77303">
        <ele>258</ele>
        <time>2022-04-03T06:33:06.000Z</time>
      </trkpt>
      <trkpt lat="49.66226" lon="4.77309">
        <ele>258</ele>
        <time>2022-04-03T06:33:07.000Z</time>
      </trkpt>
      <trkpt lat="49.66223" lon="4.77314">
        <ele>258</ele>
        <time>2022-04-03T06:33:08.000Z</time>
      </trkpt>
      <trkpt lat="49.66221" lon="4.77318">
        <ele>258</ele>
        <time>2022-04-03T06:33:09.000Z</time>
      </trkpt>
      <trkpt lat="49.6622" lon="4.77321">
        <ele>257</ele>
        <time>2022-04-03T06:33:10.000Z</time>
      </trkpt>
      <trkpt lat="49.66218" lon="4.77323">
        <ele>257</ele>
        <time>2022-04-03T06:33:11.000Z</time>
      </trkpt>
      <trkpt lat="49.66217" lon="4.77326">
        <ele>258</ele>
        <time>2022-04-03T06:33:12.000Z</time>
      </trkpt>
      <trkpt lat="49.66216" lon="4.77327">
        <ele>258</ele>
        <time>2022-04-03T06:33:13.000Z</time>
      </trkpt>
      <trkpt lat="49.66214" lon="4.7733">
        <ele>258</ele>
        <time>2022-04-03T06:33:14.000Z</time>
      </trkpt>
      <trkpt lat="49.66212" lon="4.77331">
        <ele>258</ele>
        <time>2022-04-03T06:33:15.000Z</time>
      </trkpt>
      <trkpt lat="49.66209" lon="4.77333">
        <ele>258</ele>
        <time>2022-04-03T06:33:16.000Z</time>
      </trkpt>
      <trkpt lat="49.66207" lon="4.77334">
        <ele>258</ele>
        <time>2022-04-03T06:33:17.000Z</time>
      </trkpt>
      <trkpt lat="49.66205" lon="4.77335">
        <ele>258</ele>
        <time>2022-04-03T06:33:18.000Z</time>
      </trkpt>
      <trkpt lat="49.66203" lon="4.77335">
        <ele>258</ele>
        <time>2022-04-03T06:33:19.000Z</time>
      </trkpt>
      <trkpt lat="49.66201" lon="4.77335">
        <ele>259</ele>
        <time>2022-04-03T06:33:20.000Z</time>
      </trkpt>
      <trkpt lat="49.662" lon="4.77335">
        <ele>259</ele>
        <time>2022-04-03T06:33:21.000Z</time>
      </trkpt>
      <trkpt lat="49.662" lon="4.77336">
        <ele>259</ele>
        <time>2022-04-03T06:33:22.000Z</time>
      </trkpt>
      <trkpt lat="49.662" lon="4.77336">
        <ele>259</ele>
        <time>2022-04-03T06:33:23.000Z</time>
      </trkpt>
      <trkpt lat="49.66201" lon="4.77336">
        <ele>259</ele>
        <time>2022-04-03T06:33:24.000Z</time>
      </trkpt>
      <trkpt lat="49.66203" lon="4.77334">
        <ele>260</ele>
        <time>2022-04-03T06:33:25.000Z</time>
      </trkpt>
      <trkpt lat="49.66204" lon="4.77331">
        <ele>260</ele>
        <time>2022-04-03T06:33:26.000Z</time>
      </trkpt>
      <trkpt lat="49.66205" lon="4.77328">
        <ele>260</ele>
        <time>2022-04-03T06:33:27.000Z</time>
      </trkpt>
      <trkpt lat="49.66204" lon="4.77324">
        <ele>260</ele>
        <time>2022-04-03T06:33:28.000Z</time>
      </trkpt>
      <trkpt lat="49.66203" lon="4.7732">
        <ele>260</ele>
        <time>2022-04-03T06:33:29.000Z</time>
      </trkpt>
      <trkpt lat="49.66202" lon="4.77317">
        <ele>260</ele>
        <time>2022-04-03T06:33:30.000Z</time>
      </trkpt>
      <trkpt lat="49.66202" lon="4.77314">
        <ele>260</ele>
        <time>2022-04-03T06:33:31.000Z</time>
      </trkpt>
      <trkpt lat="49.66201" lon="4.7731">
        <ele>260</ele>
        <time>2022-04-03T06:33:32.000Z</time>
      </trkpt>
      <trkpt lat="49.662" lon="4.77305">
        <ele>260</ele>
        <time>2022-04-03T06:33:33.000Z</time>
      </trkpt>
      <trkpt lat="49.66199" lon="4.773">
        <ele>260</ele>
        <time>2022-04-03T06:33:34.000Z</time>
      </trkpt>
      <trkpt lat="49.66198" lon="4.77295">
        <ele>260</ele>
        <time>2022-04-03T06:33:35.000Z</time>
      </trkpt>
      <trkpt lat="49.66197" lon="4.77289">
        <ele>260</ele>
        <time>2022-04-03T06:33:36.000Z</time>
      </trkpt>
      <trkpt lat="49.66196" lon="4.77285">
        <ele>261</ele>
        <time>2022-04-03T06:33:37.000Z</time>
      </trkpt>
      <trkpt lat="49.66195" lon="4.77281">
        <ele>261</ele>
        <time>2022-04-03T06:33:38.000Z</time>
      </trkpt>
      <trkpt lat="49.66194" lon="4.77277">
        <ele>261</ele>
        <time>2022-04-03T06:33:39.000Z</time>
      </trkpt>
      <trkpt lat="49.66193" lon="4.77273">
        <ele>261</ele>
        <time>2022-04-03T06:33:40.000Z</time>
      </trkpt>
      <trkpt lat="49.66193" lon="4.77273">
        <ele>261</ele>
        <time>2022-04-03T06:33:41.000Z</time>
      </trkpt>
      <trkpt lat="49.66191" lon="4.77269">
        <ele>261</ele>
        <time>2022-04-03T06:33:42.000Z</time>
      </trkpt>
      <trkpt lat="49.6619" lon="4.77265">
        <ele>261</ele>
        <time>2022-04-03T06:33:43.000Z</time>
      </trkpt>
      <trkpt lat="49.66189" lon="4.77261">
        <ele>261</ele>
        <time>2022-04-03T06:33:44.000Z</time>
      </trkpt>
      <trkpt lat="49.66187" lon="4.77257">
        <ele>261</ele>
        <time>2022-04-03T06:33:45.000Z</time>
      </trkpt>
      <trkpt lat="49.66186" lon="4.77253">
        <ele>261</ele>
        <time>2022-04-03T06:33:46.000Z</time>
      </trkpt>
      <trkpt lat="49.66185" lon="4.77249">
        <ele>261</ele>
        <time>2022-04-03T06:33:47.000Z</time>
      </trkpt>
      <trkpt lat="49.66185" lon="4.77246">
        <ele>261</ele>
        <time>2022-04-03T06:33:48.000Z</time>
      </trkpt>
      <trkpt lat="49.66184" lon="4.77242">
        <ele>261</ele>
        <time>2022-04-03T06:33:49.000Z</time>
      </trkpt>
      <trkpt lat="49.66183" lon="4.77239">
        <ele>261</ele>
        <time>2022-04-03T06:33:50.000Z</time>
      </trkpt>
      <trkpt lat="49.66183" lon="4.77236">
        <ele>261</ele>
        <time>2022-04-03T06:33:51.000Z</time>
      </trkpt>
      <trkpt lat="49.66182" lon="4.77232">
        <ele>262</ele>
        <time>2022-04-03T06:33:52.000Z</time>
      </trkpt>
      <trkpt lat="49.66182" lon="4.77229">
        <ele>262</ele>
        <time>2022-04-03T06:33:53.000Z</time>
      </trkpt>
      <trkpt lat="49.66181" lon="4.77225">
        <ele>262</ele>
        <time>2022-04-03T06:33:54.000Z</time>
      </trkpt>
      <trkpt lat="49.66181" lon="4.77222">
        <ele>262</ele>
        <time>2022-04-03T06:33:55.000Z</time>
      </trkpt>
      <trkpt lat="49.66181" lon="4.7722">
        <ele>262</ele>
        <time>2022-04-03T06:33:56.000Z</time>
      </trkpt>
      <trkpt lat="49.6618" lon="4.77217">
        <ele>262</ele>
        <time>2022-04-03T06:33:57.000Z</time>
      </trkpt>
      <trkpt lat="49.6618" lon="4.77214">
        <ele>262</ele>
        <time>2022-04-03T06:33:58.000Z</time>
      </trkpt>
      <trkpt lat="49.6618" lon="4.77211">
        <ele>262</ele>
        <time>2022-04-03T06:33:59.000Z</time>
      </trkpt>
      <trkpt lat="49.66179" lon="4.77208">
        <ele>263</ele>
        <time>2022-04-03T06:34:00.000Z</time>
      </trkpt>
      <trkpt lat="49.66179" lon="4.77205">
        <ele>263</ele>
        <time>2022-04-03T06:34:01.000Z</time>
      </trkpt>
      <trkpt lat="49.66179" lon="4.77202">
        <ele>263</ele>
        <time>2022-04-03T06:34:02.000Z</time>
      </trkpt>
      <trkpt lat="49.66178" lon="4.77199">
        <ele>263</ele>
        <time>2022-04-03T06:34:03.000Z</time>
      </trkpt>
      <trkpt lat="49.66178" lon="4.77196">
        <ele>263</ele>
        <time>2022-04-03T06:34:04.000Z</time>
      </trkpt>
      <trkpt lat="49.66177" lon="4.77192">
        <ele>263</ele>
        <time>2022-04-03T06:34:05.000Z</time>
      </trkpt>
      <trkpt lat="49.66177" lon="4.77189">
        <ele>264</ele>
        <time>2022-04-03T06:34:06.000Z</time>
      </trkpt>
      <trkpt lat="49.66176" lon="4.77185">
        <ele>264</ele>
        <time>2022-04-03T06:34:07.000Z</time>
      </trkpt>
      <trkpt lat="49.66175" lon="4.77181">
        <ele>264</ele>
        <time>2022-04-03T06:34:08.000Z</time>
      </trkpt>
      <trkpt lat="49.66175" lon="4.77178">
        <ele>264</ele>
        <time>2022-04-03T06:34:09.000Z</time>
      </trkpt>
      <trkpt lat="49.66175" lon="4.77175">
        <ele>264</ele>
        <time>2022-04-03T06:34:10.000Z</time>
      </trkpt>
      <trkpt lat="49.66175" lon="4.77171">
        <ele>264</ele>
        <time>2022-04-03T06:34:11.000Z</time>
      </trkpt>
      <trkpt lat="49.66174" lon="4.77168">
        <ele>264</ele>
        <time>2022-04-03T06:34:12.000Z</time>
      </trkpt>
      <trkpt lat="49.66173" lon="4.77163">
        <ele>264</ele>
        <time>2022-04-03T06:34:13.000Z</time>
      </trkpt>
      <trkpt lat="49.66173" lon="4.77159">
        <ele>264</ele>
        <time>2022-04-03T06:34:14.000Z</time>
      </trkpt>
      <trkpt lat="49.66172" lon="4.77156">
        <ele>264</ele>
        <time>2022-04-03T06:34:15.000Z</time>
      </trkpt>
      <trkpt lat="49.66171" lon="4.77152">
        <ele>265</ele>
        <time>2022-04-03T06:34:16.000Z</time>
      </trkpt>
      <trkpt lat="49.66169" lon="4.77149">
        <ele>265</ele>
        <time>2022-04-03T06:34:17.000Z</time>
      </trkpt>
      <trkpt lat="49.66168" lon="4.77146">
        <ele>265</ele>
        <time>2022-04-03T06:34:18.000Z</time>
      </trkpt>
      <trkpt lat="49.66168" lon="4.77142">
        <ele>265</ele>
        <time>2022-04-03T06:34:19.000Z</time>
      </trkpt>
      <trkpt lat="49.66167" lon="4.77137">
        <ele>266</ele>
        <time>2022-04-03T06:34:20.000Z</time>
      </trkpt>
      <trkpt lat="49.66165" lon="4.77133">
        <ele>266</ele>
        <time>2022-04-03T06:34:21.000Z</time>
      </trkpt>
      <trkpt lat="49.66165" lon="4.77129">
        <ele>266</ele>
        <time>2022-04-03T06:34:22.000Z</time>
      </trkpt>
      <trkpt lat="49.66164" lon="4.77124">
        <ele>266</ele>
        <time>2022-04-03T06:34:23.000Z</time>
      </trkpt>
      <trkpt lat="49.66164" lon="4.77121">
        <ele>266</ele>
        <time>2022-04-03T06:34:24.000Z</time>
      </trkpt>
      <trkpt lat="49.66163" lon="4.77117">
        <ele>267</ele>
        <time>2022-04-03T06:34:25.000Z</time>
      </trkpt>
      <trkpt lat="49.66162" lon="4.7711">
        <ele>267</ele>
        <time>2022-04-03T06:34:26.000Z</time>
      </trkpt>
      <trkpt lat="49.66162" lon="4.77106">
        <ele>267</ele>
        <time>2022-04-03T06:34:27.000Z</time>
      </trkpt>
      <trkpt lat="49.66162" lon="4.77106">
        <ele>267</ele>
        <time>2022-04-03T06:34:28.000Z</time>
      </trkpt>
      <trkpt lat="49.66162" lon="4.77101">
        <ele>268</ele>
        <time>2022-04-03T06:34:29.000Z</time>
      </trkpt>
      <trkpt lat="49.66161" lon="4.77097">
        <ele>268</ele>
        <time>2022-04-03T06:34:30.000Z</time>
      </trkpt>
      <trkpt lat="49.6616" lon="4.77093">
        <ele>268</ele>
        <time>2022-04-03T06:34:31.000Z</time>
      </trkpt>
      <trkpt lat="49.66159" lon="4.77088">
        <ele>268</ele>
        <time>2022-04-03T06:34:32.000Z</time>
      </trkpt>
      <trkpt lat="49.66158" lon="4.77083">
        <ele>268</ele>
        <time>2022-04-03T06:34:33.000Z</time>
      </trkpt>
      <trkpt lat="49.66158" lon="4.77079">
        <ele>268</ele>
        <time>2022-04-03T06:34:34.000Z</time>
      </trkpt>
      <trkpt lat="49.66158" lon="4.77075">
        <ele>269</ele>
        <time>2022-04-03T06:34:35.000Z</time>
      </trkpt>
      <trkpt lat="49.66157" lon="4.77071">
        <ele>269</ele>
        <time>2022-04-03T06:34:36.000Z</time>
      </trkpt>
      <trkpt lat="49.66156" lon="4.77066">
        <ele>269</ele>
        <time>2022-04-03T06:34:37.000Z</time>
      </trkpt>
      <trkpt lat="49.66155" lon="4.77061">
        <ele>269</ele>
        <time>2022-04-03T06:34:38.000Z</time>
      </trkpt>
      <trkpt lat="49.66153" lon="4.77057">
        <ele>269</ele>
        <time>2022-04-03T06:34:39.000Z</time>
      </trkpt>
      <trkpt lat="49.66151" lon="4.77047">
        <ele>270</ele>
        <time>2022-04-03T06:34:40.000Z</time>
      </trkpt>
      <trkpt lat="49.6615" lon="4.77042">
        <ele>270</ele>
        <time>2022-04-03T06:34:41.000Z</time>
      </trkpt>
      <trkpt lat="49.6615" lon="4.77042">
        <ele>270</ele>
        <time>2022-04-03T06:34:42.000Z</time>
      </trkpt>
      <trkpt lat="49.66149" lon="4.77037">
        <ele>270</ele>
        <time>2022-04-03T06:34:43.000Z</time>
      </trkpt>
      <trkpt lat="49.66148" lon="4.77027">
        <ele>270</ele>
        <time>2022-04-03T06:34:44.000Z</time>
      </trkpt>
      <trkpt lat="49.66148" lon="4.77027">
        <ele>270</ele>
        <time>2022-04-03T06:34:45.000Z</time>
      </trkpt>
      <trkpt lat="49.66148" lon="4.77022">
        <ele>271</ele>
        <time>2022-04-03T06:34:46.000Z</time>
      </trkpt>
      <trkpt lat="49.66147" lon="4.77018">
        <ele>271</ele>
        <time>2022-04-03T06:34:47.000Z</time>
      </trkpt>
      <trkpt lat="49.66146" lon="4.77013">
        <ele>271</ele>
        <time>2022-04-03T06:34:48.000Z</time>
      </trkpt>
      <trkpt lat="49.66145" lon="4.77008">
        <ele>271</ele>
        <time>2022-04-03T06:34:49.000Z</time>
      </trkpt>
      <trkpt lat="49.66144" lon="4.77003">
        <ele>272</ele>
        <time>2022-04-03T06:34:50.000Z</time>
      </trkpt>
      <trkpt lat="49.66143" lon="4.76998">
        <ele>272</ele>
        <time>2022-04-03T06:34:51.000Z</time>
      </trkpt>
      <trkpt lat="49.66143" lon="4.76993">
        <ele>272</ele>
        <time>2022-04-03T06:34:52.000Z</time>
      </trkpt>
      <trkpt lat="49.66142" lon="4.76987">
        <ele>272</ele>
        <time>2022-04-03T06:34:53.000Z</time>
      </trkpt>
      <trkpt lat="49.66141" lon="4.76982">
        <ele>272</ele>
        <time>2022-04-03T06:34:54.000Z</time>
      </trkpt>
      <trkpt lat="49.6614" lon="4.76977">
        <ele>272</ele>
        <time>2022-04-03T06:34:55.000Z</time>
      </trkpt>
      <trkpt lat="49.66138" lon="4.76973">
        <ele>272</ele>
        <time>2022-04-03T06:34:56.000Z</time>
      </trkpt>
      <trkpt lat="49.66136" lon="4.76968">
        <ele>272</ele>
        <time>2022-04-03T06:34:57.000Z</time>
      </trkpt>
      <trkpt lat="49.66135" lon="4.76964">
        <ele>273</ele>
        <time>2022-04-03T06:34:58.000Z</time>
      </trkpt>
      <trkpt lat="49.66135" lon="4.76959">
        <ele>273</ele>
        <time>2022-04-03T06:34:59.000Z</time>
      </trkpt>
      <trkpt lat="49.66132" lon="4.76951">
        <ele>273</ele>
        <time>2022-04-03T06:35:00.000Z</time>
      </trkpt>
      <trkpt lat="49.66132" lon="4.76951">
        <ele>273</ele>
        <time>2022-04-03T06:35:01.000Z</time>
      </trkpt>
      <trkpt lat="49.6613" lon="4.76942">
        <ele>273</ele>
        <time>2022-04-03T06:35:02.000Z</time>
      </trkpt>
      <trkpt lat="49.66129" lon="4.76937">
        <ele>273</ele>
        <time>2022-04-03T06:35:03.000Z</time>
      </trkpt>
      <trkpt lat="49.66128" lon="4.76932">
        <ele>273</ele>
        <time>2022-04-03T06:35:04.000Z</time>
      </trkpt>
      <trkpt lat="49.66127" lon="4.76926">
        <ele>273</ele>
        <time>2022-04-03T06:35:05.000Z</time>
      </trkpt>
      <trkpt lat="49.66126" lon="4.76921">
        <ele>273</ele>
        <time>2022-04-03T06:35:06.000Z</time>
      </trkpt>
      <trkpt lat="49.66126" lon="4.76921">
        <ele>273</ele>
        <time>2022-04-03T06:35:07.000Z</time>
      </trkpt>
      <trkpt lat="49.66123" lon="4.76911">
        <ele>274</ele>
        <time>2022-04-03T06:35:08.000Z</time>
      </trkpt>
      <trkpt lat="49.66122" lon="4.76907">
        <ele>274</ele>
        <time>2022-04-03T06:35:09.000Z</time>
      </trkpt>
      <trkpt lat="49.66122" lon="4.76907">
        <ele>274</ele>
        <time>2022-04-03T06:35:10.000Z</time>
      </trkpt>
      <trkpt lat="49.66121" lon="4.76902">
        <ele>274</ele>
        <time>2022-04-03T06:35:11.000Z</time>
      </trkpt>
      <trkpt lat="49.6612" lon="4.76897">
        <ele>274</ele>
        <time>2022-04-03T06:35:12.000Z</time>
      </trkpt>
      <trkpt lat="49.66119" lon="4.76888">
        <ele>275</ele>
        <time>2022-04-03T06:35:13.000Z</time>
      </trkpt>
      <trkpt lat="49.66119" lon="4.76882">
        <ele>275</ele>
        <time>2022-04-03T06:35:14.000Z</time>
      </trkpt>
      <trkpt lat="49.66118" lon="4.76877">
        <ele>275</ele>
        <time>2022-04-03T06:35:15.000Z</time>
      </trkpt>
      <trkpt lat="49.66117" lon="4.76872">
        <ele>275</ele>
        <time>2022-04-03T06:35:16.000Z</time>
      </trkpt>
      <trkpt lat="49.66117" lon="4.76872">
        <ele>275</ele>
        <time>2022-04-03T06:35:17.000Z</time>
      </trkpt>
      <trkpt lat="49.66116" lon="4.76867">
        <ele>276</ele>
        <time>2022-04-03T06:35:18.000Z</time>
      </trkpt>
      <trkpt lat="49.66116" lon="4.76861">
        <ele>276</ele>
        <time>2022-04-03T06:35:19.000Z</time>
      </trkpt>
      <trkpt lat="49.66115" lon="4.76856">
        <ele>276</ele>
        <time>2022-04-03T06:35:20.000Z</time>
      </trkpt>
      <trkpt lat="49.66114" lon="4.7685">
        <ele>276</ele>
        <time>2022-04-03T06:35:21.000Z</time>
      </trkpt>
      <trkpt lat="49.66113" lon="4.76845">
        <ele>276</ele>
        <time>2022-04-03T06:35:22.000Z</time>
      </trkpt>
      <trkpt lat="49.66112" lon="4.7684">
        <ele>276</ele>
        <time>2022-04-03T06:35:23.000Z</time>
      </trkpt>
      <trkpt lat="49.66112" lon="4.76835">
        <ele>277</ele>
        <time>2022-04-03T06:35:24.000Z</time>
      </trkpt>
      <trkpt lat="49.66111" lon="4.7683">
        <ele>277</ele>
        <time>2022-04-03T06:35:25.000Z</time>
      </trkpt>
      <trkpt lat="49.6611" lon="4.76824">
        <ele>277</ele>
        <time>2022-04-03T06:35:26.000Z</time>
      </trkpt>
      <trkpt lat="49.66108" lon="4.76818">
        <ele>277</ele>
        <time>2022-04-03T06:35:27.000Z</time>
      </trkpt>
      <trkpt lat="49.66107" lon="4.76812">
        <ele>277</ele>
        <time>2022-04-03T06:35:28.000Z</time>
      </trkpt>
      <trkpt lat="49.66106" lon="4.76806">
        <ele>277</ele>
        <time>2022-04-03T06:35:29.000Z</time>
      </trkpt>
      <trkpt lat="49.66104" lon="4.76801">
        <ele>277</ele>
        <time>2022-04-03T06:35:30.000Z</time>
      </trkpt>
      <trkpt lat="49.66104" lon="4.76795">
        <ele>277</ele>
        <time>2022-04-03T06:35:31.000Z</time>
      </trkpt>
      <trkpt lat="49.66103" lon="4.76789">
        <ele>278</ele>
        <time>2022-04-03T06:35:32.000Z</time>
      </trkpt>
      <trkpt lat="49.66102" lon="4.76783">
        <ele>278</ele>
        <time>2022-04-03T06:35:33.000Z</time>
      </trkpt>
      <trkpt lat="49.66101" lon="4.76778">
        <ele>278</ele>
        <time>2022-04-03T06:35:34.000Z</time>
      </trkpt>
      <trkpt lat="49.661" lon="4.76771">
        <ele>278</ele>
        <time>2022-04-03T06:35:35.000Z</time>
      </trkpt>
      <trkpt lat="49.66099" lon="4.76765">
        <ele>278</ele>
        <time>2022-04-03T06:35:36.000Z</time>
      </trkpt>
      <trkpt lat="49.66098" lon="4.7676">
        <ele>278</ele>
        <time>2022-04-03T06:35:37.000Z</time>
      </trkpt>
      <trkpt lat="49.66097" lon="4.76754">
        <ele>278</ele>
        <time>2022-04-03T06:35:38.000Z</time>
      </trkpt>
      <trkpt lat="49.66097" lon="4.76748">
        <ele>278</ele>
        <time>2022-04-03T06:35:39.000Z</time>
      </trkpt>
      <trkpt lat="49.66096" lon="4.76742">
        <ele>278</ele>
        <time>2022-04-03T06:35:40.000Z</time>
      </trkpt>
      <trkpt lat="49.66095" lon="4.76735">
        <ele>278</ele>
        <time>2022-04-03T06:35:41.000Z</time>
      </trkpt>
      <trkpt lat="49.66094" lon="4.76728">
        <ele>278</ele>
        <time>2022-04-03T06:35:42.000Z</time>
      </trkpt>
      <trkpt lat="49.66093" lon="4.76721">
        <ele>279</ele>
        <time>2022-04-03T06:35:43.000Z</time>
      </trkpt>
      <trkpt lat="49.66092" lon="4.76713">
        <ele>279</ele>
        <time>2022-04-03T06:35:44.000Z</time>
      </trkpt>
      <trkpt lat="49.6609" lon="4.76706">
        <ele>279</ele>
        <time>2022-04-03T06:35:45.000Z</time>
      </trkpt>
      <trkpt lat="49.6609" lon="4.767">
        <ele>279</ele>
        <time>2022-04-03T06:35:46.000Z</time>
      </trkpt>
      <trkpt lat="49.66089" lon="4.76693">
        <ele>279</ele>
        <time>2022-04-03T06:35:47.000Z</time>
      </trkpt>
      <trkpt lat="49.66089" lon="4.76687">
        <ele>279</ele>
        <time>2022-04-03T06:35:48.000Z</time>
      </trkpt>
      <trkpt lat="49.66088" lon="4.7668">
        <ele>279</ele>
        <time>2022-04-03T06:35:49.000Z</time>
      </trkpt>
      <trkpt lat="49.66087" lon="4.76672">
        <ele>279</ele>
        <time>2022-04-03T06:35:50.000Z</time>
      </trkpt>
      <trkpt lat="49.66085" lon="4.76657">
        <ele>279</ele>
        <time>2022-04-03T06:35:51.000Z</time>
      </trkpt>
      <trkpt lat="49.66085" lon="4.76657">
        <ele>279</ele>
        <time>2022-04-03T06:35:52.000Z</time>
      </trkpt>
      <trkpt lat="49.66083" lon="4.76649">
        <ele>278</ele>
        <time>2022-04-03T06:35:53.000Z</time>
      </trkpt>
      <trkpt lat="49.66082" lon="4.76642">
        <ele>278</ele>
        <time>2022-04-03T06:35:54.000Z</time>
      </trkpt>
      <trkpt lat="49.66078" lon="4.76628">
        <ele>278</ele>
        <time>2022-04-03T06:35:55.000Z</time>
      </trkpt>
      <trkpt lat="49.66078" lon="4.76628">
        <ele>278</ele>
        <time>2022-04-03T06:35:56.000Z</time>
      </trkpt>
      <trkpt lat="49.66075" lon="4.76624">
        <ele>278</ele>
        <time>2022-04-03T06:35:57.000Z</time>
      </trkpt>
      <trkpt lat="49.66072" lon="4.76621">
        <ele>278</ele>
        <time>2022-04-03T06:35:58.000Z</time>
      </trkpt>
      <trkpt lat="49.66066" lon="4.7662">
        <ele>277</ele>
        <time>2022-04-03T06:35:59.000Z</time>
      </trkpt>
      <trkpt lat="49.66063" lon="4.76621">
        <ele>277</ele>
        <time>2022-04-03T06:36:00.000Z</time>
      </trkpt>
      <trkpt lat="49.66063" lon="4.76621">
        <ele>277</ele>
        <time>2022-04-03T06:36:01.000Z</time>
      </trkpt>
      <trkpt lat="49.66061" lon="4.76621">
        <ele>277</ele>
        <time>2022-04-03T06:36:02.000Z</time>
      </trkpt>
      <trkpt lat="49.66058" lon="4.76622">
        <ele>277</ele>
        <time>2022-04-03T06:36:03.000Z</time>
      </trkpt>
      <trkpt lat="49.66055" lon="4.76622">
        <ele>277</ele>
        <time>2022-04-03T06:36:04.000Z</time>
      </trkpt>
      <trkpt lat="49.66052" lon="4.7662">
        <ele>277</ele>
        <time>2022-04-03T06:36:05.000Z</time>
      </trkpt>
      <trkpt lat="49.6605" lon="4.76618">
        <ele>277</ele>
        <time>2022-04-03T06:36:06.000Z</time>
      </trkpt>
      <trkpt lat="49.66049" lon="4.76614">
        <ele>276</ele>
        <time>2022-04-03T06:36:07.000Z</time>
      </trkpt>
      <trkpt lat="49.6605" lon="4.76609">
        <ele>276</ele>
        <time>2022-04-03T06:36:08.000Z</time>
      </trkpt>
      <trkpt lat="49.6605" lon="4.76603">
        <ele>276</ele>
        <time>2022-04-03T06:36:09.000Z</time>
      </trkpt>
      <trkpt lat="49.6605" lon="4.76596">
        <ele>276</ele>
        <time>2022-04-03T06:36:10.000Z</time>
      </trkpt>
      <trkpt lat="49.6605" lon="4.76588">
        <ele>275</ele>
        <time>2022-04-03T06:36:11.000Z</time>
      </trkpt>
      <trkpt lat="49.66051" lon="4.7658">
        <ele>275</ele>
        <time>2022-04-03T06:36:12.000Z</time>
      </trkpt>
      <trkpt lat="49.66051" lon="4.7657">
        <ele>275</ele>
        <time>2022-04-03T06:36:13.000Z</time>
      </trkpt>
      <trkpt lat="49.66051" lon="4.76561">
        <ele>274</ele>
        <time>2022-04-03T06:36:14.000Z</time>
      </trkpt>
      <trkpt lat="49.66051" lon="4.76553">
        <ele>274</ele>
        <time>2022-04-03T06:36:15.000Z</time>
      </trkpt>
      <trkpt lat="49.6605" lon="4.76545">
        <ele>274</ele>
        <time>2022-04-03T06:36:16.000Z</time>
      </trkpt>
      <trkpt lat="49.66049" lon="4.76537">
        <ele>273</ele>
        <time>2022-04-03T06:36:17.000Z</time>
      </trkpt>
      <trkpt lat="49.66048" lon="4.76531">
        <ele>273</ele>
        <time>2022-04-03T06:36:18.000Z</time>
      </trkpt>
      <trkpt lat="49.66045" lon="4.76519">
        <ele>273</ele>
        <time>2022-04-03T06:36:19.000Z</time>
      </trkpt>
      <trkpt lat="49.66045" lon="4.76519">
        <ele>273</ele>
        <time>2022-04-03T06:36:20.000Z</time>
      </trkpt>
      <trkpt lat="49.66041" lon="4.76505">
        <ele>272</ele>
        <time>2022-04-03T06:36:21.000Z</time>
      </trkpt>
      <trkpt lat="49.66039" lon="4.76498">
        <ele>272</ele>
        <time>2022-04-03T06:36:22.000Z</time>
      </trkpt>
      <trkpt lat="49.66037" lon="4.7649">
        <ele>271</ele>
        <time>2022-04-03T06:36:23.000Z</time>
      </trkpt>
      <trkpt lat="49.66037" lon="4.7649">
        <ele>271</ele>
        <time>2022-04-03T06:36:24.000Z</time>
      </trkpt>
      <trkpt lat="49.66033" lon="4.76473">
        <ele>271</ele>
        <time>2022-04-03T06:36:25.000Z</time>
      </trkpt>
      <trkpt lat="49.66033" lon="4.76473">
        <ele>271</ele>
        <time>2022-04-03T06:36:26.000Z</time>
      </trkpt>
      <trkpt lat="49.66031" lon="4.76463">
        <ele>270</ele>
        <time>2022-04-03T06:36:27.000Z</time>
      </trkpt>
      <trkpt lat="49.6603" lon="4.76454">
        <ele>270</ele>
        <time>2022-04-03T06:36:28.000Z</time>
      </trkpt>
      <trkpt lat="49.66028" lon="4.76445">
        <ele>269</ele>
        <time>2022-04-03T06:36:29.000Z</time>
      </trkpt>
      <trkpt lat="49.66026" lon="4.76436">
        <ele>269</ele>
        <time>2022-04-03T06:36:30.000Z</time>
      </trkpt>
      <trkpt lat="49.66024" lon="4.76427">
        <ele>269</ele>
        <time>2022-04-03T06:36:31.000Z</time>
      </trkpt>
      <trkpt lat="49.66022" lon="4.76418">
        <ele>268</ele>
        <time>2022-04-03T06:36:32.000Z</time>
      </trkpt>
      <trkpt lat="49.66019" lon="4.76409">
        <ele>268</ele>
        <time>2022-04-03T06:36:33.000Z</time>
      </trkpt>
      <trkpt lat="49.66016" lon="4.76401">
        <ele>267</ele>
        <time>2022-04-03T06:36:34.000Z</time>
      </trkpt>
      <trkpt lat="49.66013" lon="4.76393">
        <ele>267</ele>
        <time>2022-04-03T06:36:35.000Z</time>
      </trkpt>
      <trkpt lat="49.6601" lon="4.76385">
        <ele>267</ele>
        <time>2022-04-03T06:36:36.000Z</time>
      </trkpt>
      <trkpt lat="49.66007" lon="4.76377">
        <ele>266</ele>
        <time>2022-04-03T06:36:37.000Z</time>
      </trkpt>
      <trkpt lat="49.66003" lon="4.7637">
        <ele>266</ele>
        <time>2022-04-03T06:36:38.000Z</time>
      </trkpt>
      <trkpt lat="49.65998" lon="4.76358">
        <ele>265</ele>
        <time>2022-04-03T06:36:39.000Z</time>
      </trkpt>
      <trkpt lat="49.65998" lon="4.76358">
        <ele>265</ele>
        <time>2022-04-03T06:36:40.000Z</time>
      </trkpt>
      <trkpt lat="49.65997" lon="4.76354">
        <ele>264</ele>
        <time>2022-04-03T06:36:41.000Z</time>
      </trkpt>
      <trkpt lat="49.65996" lon="4.7635">
        <ele>264</ele>
        <time>2022-04-03T06:36:42.000Z</time>
      </trkpt>
      <trkpt lat="49.65996" lon="4.76343">
        <ele>263</ele>
        <time>2022-04-03T06:36:43.000Z</time>
      </trkpt>
      <trkpt lat="49.65996" lon="4.76343">
        <ele>263</ele>
        <time>2022-04-03T06:36:44.000Z</time>
      </trkpt>
      <trkpt lat="49.65996" lon="4.76338">
        <ele>262</ele>
        <time>2022-04-03T06:36:45.000Z</time>
      </trkpt>
      <trkpt lat="49.65996" lon="4.76334">
        <ele>262</ele>
        <time>2022-04-03T06:36:46.000Z</time>
      </trkpt>
      <trkpt lat="49.65998" lon="4.76326">
        <ele>261</ele>
        <time>2022-04-03T06:36:47.000Z</time>
      </trkpt>
      <trkpt lat="49.65998" lon="4.76326">
        <ele>261</ele>
        <time>2022-04-03T06:36:48.000Z</time>
      </trkpt>
      <trkpt lat="49.65998" lon="4.76321">
        <ele>261</ele>
        <time>2022-04-03T06:36:49.000Z</time>
      </trkpt>
      <trkpt lat="49.65998" lon="4.76315">
        <ele>260</ele>
        <time>2022-04-03T06:36:50.000Z</time>
      </trkpt>
      <trkpt lat="49.65998" lon="4.76309">
        <ele>260</ele>
        <time>2022-04-03T06:36:51.000Z</time>
      </trkpt>
      <trkpt lat="49.65999" lon="4.76297">
        <ele>259</ele>
        <time>2022-04-03T06:36:52.000Z</time>
      </trkpt>
      <trkpt lat="49.66" lon="4.76291">
        <ele>259</ele>
        <time>2022-04-03T06:36:53.000Z</time>
      </trkpt>
      <trkpt lat="49.66" lon="4.76291">
        <ele>259</ele>
        <time>2022-04-03T06:36:54.000Z</time>
      </trkpt>
      <trkpt lat="49.66001" lon="4.76285">
        <ele>258</ele>
        <time>2022-04-03T06:36:55.000Z</time>
      </trkpt>
      <trkpt lat="49.66003" lon="4.76271">
        <ele>258</ele>
        <time>2022-04-03T06:36:56.000Z</time>
      </trkpt>
      <trkpt lat="49.66003" lon="4.76271">
        <ele>258</ele>
        <time>2022-04-03T06:36:57.000Z</time>
      </trkpt>
      <trkpt lat="49.66004" lon="4.76264">
        <ele>257</ele>
        <time>2022-04-03T06:36:58.000Z</time>
      </trkpt>
      <trkpt lat="49.66005" lon="4.76257">
        <ele>257</ele>
        <time>2022-04-03T06:36:59.000Z</time>
      </trkpt>
      <trkpt lat="49.66007" lon="4.7625">
        <ele>256</ele>
        <time>2022-04-03T06:37:00.000Z</time>
      </trkpt>
      <trkpt lat="49.66011" lon="4.76238">
        <ele>255</ele>
        <time>2022-04-03T06:37:01.000Z</time>
      </trkpt>
      <trkpt lat="49.66011" lon="4.76238">
        <ele>255</ele>
        <time>2022-04-03T06:37:02.000Z</time>
      </trkpt>
      <trkpt lat="49.66014" lon="4.76225">
        <ele>255</ele>
        <time>2022-04-03T06:37:03.000Z</time>
      </trkpt>
      <trkpt lat="49.66015" lon="4.76218">
        <ele>254</ele>
        <time>2022-04-03T06:37:04.000Z</time>
      </trkpt>
      <trkpt lat="49.66015" lon="4.76218">
        <ele>254</ele>
        <time>2022-04-03T06:37:05.000Z</time>
      </trkpt>
      <trkpt lat="49.6602" lon="4.76204">
        <ele>253</ele>
        <time>2022-04-03T06:37:06.000Z</time>
      </trkpt>
      <trkpt lat="49.6602" lon="4.76204">
        <ele>253</ele>
        <time>2022-04-03T06:37:07.000Z</time>
      </trkpt>
      <trkpt lat="49.66023" lon="4.76197">
        <ele>253</ele>
        <time>2022-04-03T06:37:08.000Z</time>
      </trkpt>
      <trkpt lat="49.66026" lon="4.7619">
        <ele>253</ele>
        <time>2022-04-03T06:37:09.000Z</time>
      </trkpt>
      <trkpt lat="49.66028" lon="4.76184">
        <ele>252</ele>
        <time>2022-04-03T06:37:10.000Z</time>
      </trkpt>
      <trkpt lat="49.66031" lon="4.76178">
        <ele>252</ele>
        <time>2022-04-03T06:37:11.000Z</time>
      </trkpt>
      <trkpt lat="49.66034" lon="4.76172">
        <ele>252</ele>
        <time>2022-04-03T06:37:12.000Z</time>
      </trkpt>
      <trkpt lat="49.66038" lon="4.76167">
        <ele>251</ele>
        <time>2022-04-03T06:37:13.000Z</time>
      </trkpt>
      <trkpt lat="49.66044" lon="4.7616">
        <ele>251</ele>
        <time>2022-04-03T06:37:14.000Z</time>
      </trkpt>
      <trkpt lat="49.66044" lon="4.7616">
        <ele>251</ele>
        <time>2022-04-03T06:37:15.000Z</time>
      </trkpt>
      <trkpt lat="49.66048" lon="4.76156">
        <ele>251</ele>
        <time>2022-04-03T06:37:16.000Z</time>
      </trkpt>
      <trkpt lat="49.66054" lon="4.76147">
        <ele>251</ele>
        <time>2022-04-03T06:37:17.000Z</time>
      </trkpt>
      <trkpt lat="49.66054" lon="4.76147">
        <ele>251</ele>
        <time>2022-04-03T06:37:18.000Z</time>
      </trkpt>
      <trkpt lat="49.66055" lon="4.7614">
        <ele>250</ele>
        <time>2022-04-03T06:37:19.000Z</time>
      </trkpt>
      <trkpt lat="49.66056" lon="4.76134">
        <ele>250</ele>
        <time>2022-04-03T06:37:20.000Z</time>
      </trkpt>
      <trkpt lat="49.66055" lon="4.76127">
        <ele>250</ele>
        <time>2022-04-03T06:37:21.000Z</time>
      </trkpt>
      <trkpt lat="49.66055" lon="4.76121">
        <ele>250</ele>
        <time>2022-04-03T06:37:22.000Z</time>
      </trkpt>
      <trkpt lat="49.66056" lon="4.76109">
        <ele>250</ele>
        <time>2022-04-03T06:37:23.000Z</time>
      </trkpt>
      <trkpt lat="49.66058" lon="4.76104">
        <ele>249</ele>
        <time>2022-04-03T06:37:24.000Z</time>
      </trkpt>
      <trkpt lat="49.66058" lon="4.76104">
        <ele>249</ele>
        <time>2022-04-03T06:37:25.000Z</time>
      </trkpt>
      <trkpt lat="49.66064" lon="4.76092">
        <ele>249</ele>
        <time>2022-04-03T06:37:26.000Z</time>
      </trkpt>
      <trkpt lat="49.66068" lon="4.76085">
        <ele>249</ele>
        <time>2022-04-03T06:37:27.000Z</time>
      </trkpt>
      <trkpt lat="49.66072" lon="4.76079">
        <ele>249</ele>
        <time>2022-04-03T06:37:28.000Z</time>
      </trkpt>
      <trkpt lat="49.66076" lon="4.76072">
        <ele>249</ele>
        <time>2022-04-03T06:37:29.000Z</time>
      </trkpt>
      <trkpt lat="49.66076" lon="4.76072">
        <ele>249</ele>
        <time>2022-04-03T06:37:30.000Z</time>
      </trkpt>
      <trkpt lat="49.66079" lon="4.76067">
        <ele>248</ele>
        <time>2022-04-03T06:37:31.000Z</time>
      </trkpt>
      <trkpt lat="49.66083" lon="4.76061">
        <ele>248</ele>
        <time>2022-04-03T06:37:32.000Z</time>
      </trkpt>
      <trkpt lat="49.66087" lon="4.76057">
        <ele>248</ele>
        <time>2022-04-03T06:37:33.000Z</time>
      </trkpt>
      <trkpt lat="49.66091" lon="4.76055">
        <ele>247</ele>
        <time>2022-04-03T06:37:34.000Z</time>
      </trkpt>
      <trkpt lat="49.66095" lon="4.76052">
        <ele>247</ele>
        <time>2022-04-03T06:37:35.000Z</time>
      </trkpt>
      <trkpt lat="49.66099" lon="4.76049">
        <ele>246</ele>
        <time>2022-04-03T06:37:36.000Z</time>
      </trkpt>
      <trkpt lat="49.66102" lon="4.76047">
        <ele>246</ele>
        <time>2022-04-03T06:37:37.000Z</time>
      </trkpt>
      <trkpt lat="49.66105" lon="4.76045">
        <ele>246</ele>
        <time>2022-04-03T06:37:38.000Z</time>
      </trkpt>
      <trkpt lat="49.66109" lon="4.76044">
        <ele>245</ele>
        <time>2022-04-03T06:37:39.000Z</time>
      </trkpt>
      <trkpt lat="49.66112" lon="4.76043">
        <ele>245</ele>
        <time>2022-04-03T06:37:40.000Z</time>
      </trkpt>
      <trkpt lat="49.6612" lon="4.76037">
        <ele>244</ele>
        <time>2022-04-03T06:37:41.000Z</time>
      </trkpt>
      <trkpt lat="49.66124" lon="4.76034">
        <ele>244</ele>
        <time>2022-04-03T06:37:42.000Z</time>
      </trkpt>
      <trkpt lat="49.66124" lon="4.76034">
        <ele>244</ele>
        <time>2022-04-03T06:37:43.000Z</time>
      </trkpt>
      <trkpt lat="49.66134" lon="4.76032">
        <ele>243</ele>
        <time>2022-04-03T06:37:44.000Z</time>
      </trkpt>
      <trkpt lat="49.66138" lon="4.76031">
        <ele>243</ele>
        <time>2022-04-03T06:37:45.000Z</time>
      </trkpt>
      <trkpt lat="49.66142" lon="4.76029">
        <ele>243</ele>
        <time>2022-04-03T06:37:46.000Z</time>
      </trkpt>
      <trkpt lat="49.66144" lon="4.76028">
        <ele>243</ele>
        <time>2022-04-03T06:37:47.000Z</time>
      </trkpt>
      <trkpt lat="49.66146" lon="4.76025">
        <ele>242</ele>
        <time>2022-04-03T06:37:48.000Z</time>
      </trkpt>
      <trkpt lat="49.66146" lon="4.76025">
        <ele>242</ele>
        <time>2022-04-03T06:37:49.000Z</time>
      </trkpt>
      <trkpt lat="49.66148" lon="4.76022">
        <ele>242</ele>
        <time>2022-04-03T06:37:50.000Z</time>
      </trkpt>
      <trkpt lat="49.66151" lon="4.76019">
        <ele>242</ele>
        <time>2022-04-03T06:37:51.000Z</time>
      </trkpt>
      <trkpt lat="49.66153" lon="4.76017">
        <ele>242</ele>
        <time>2022-04-03T06:37:52.000Z</time>
      </trkpt>
      <trkpt lat="49.66157" lon="4.76012">
        <ele>242</ele>
        <time>2022-04-03T06:37:53.000Z</time>
      </trkpt>
      <trkpt lat="49.66157" lon="4.76012">
        <ele>242</ele>
        <time>2022-04-03T06:37:54.000Z</time>
      </trkpt>
      <trkpt lat="49.66159" lon="4.76009">
        <ele>242</ele>
        <time>2022-04-03T06:37:55.000Z</time>
      </trkpt>
      <trkpt lat="49.66161" lon="4.76006">
        <ele>242</ele>
        <time>2022-04-03T06:37:56.000Z</time>
      </trkpt>
      <trkpt lat="49.66165" lon="4.76002">
        <ele>241</ele>
        <time>2022-04-03T06:37:57.000Z</time>
      </trkpt>
      <trkpt lat="49.66165" lon="4.76002">
        <ele>241</ele>
        <time>2022-04-03T06:37:58.000Z</time>
      </trkpt>
      <trkpt lat="49.66168" lon="4.76001">
        <ele>241</ele>
        <time>2022-04-03T06:37:59.000Z</time>
      </trkpt>
      <trkpt lat="49.66173" lon="4.75997">
        <ele>241</ele>
        <time>2022-04-03T06:38:00.000Z</time>
      </trkpt>
      <trkpt lat="49.66175" lon="4.75994">
        <ele>241</ele>
        <time>2022-04-03T06:38:01.000Z</time>
      </trkpt>
      <trkpt lat="49.66177" lon="4.75991">
        <ele>240</ele>
        <time>2022-04-03T06:38:02.000Z</time>
      </trkpt>
      <trkpt lat="49.6618" lon="4.75989">
        <ele>240</ele>
        <time>2022-04-03T06:38:03.000Z</time>
      </trkpt>
      <trkpt lat="49.66182" lon="4.75988">
        <ele>240</ele>
        <time>2022-04-03T06:38:04.000Z</time>
      </trkpt>
      <trkpt lat="49.66182" lon="4.75988">
        <ele>240</ele>
        <time>2022-04-03T06:38:05.000Z</time>
      </trkpt>
      <trkpt lat="49.66183" lon="4.75986">
        <ele>240</ele>
        <time>2022-04-03T06:38:06.000Z</time>
      </trkpt>
      <trkpt lat="49.66183" lon="4.75984">
        <ele>239</ele>
        <time>2022-04-03T06:38:07.000Z</time>
      </trkpt>
      <trkpt lat="49.66182" lon="4.75981">
        <ele>239</ele>
        <time>2022-04-03T06:38:08.000Z</time>
      </trkpt>
      <trkpt lat="49.66182" lon="4.75972">
        <ele>238</ele>
        <time>2022-04-03T06:38:09.000Z</time>
      </trkpt>
      <trkpt lat="49.66183" lon="4.7597">
        <ele>237</ele>
        <time>2022-04-03T06:38:10.000Z</time>
      </trkpt>
      <trkpt lat="49.66183" lon="4.75967">
        <ele>237</ele>
        <time>2022-04-03T06:38:11.000Z</time>
      </trkpt>
      <trkpt lat="49.66182" lon="4.75965">
        <ele>236</ele>
        <time>2022-04-03T06:38:12.000Z</time>
      </trkpt>
      <trkpt lat="49.66182" lon="4.75965">
        <ele>236</ele>
        <time>2022-04-03T06:38:13.000Z</time>
      </trkpt>
      <trkpt lat="49.66181" lon="4.75962">
        <ele>236</ele>
        <time>2022-04-03T06:38:14.000Z</time>
      </trkpt>
      <trkpt lat="49.66177" lon="4.75954">
        <ele>235</ele>
        <time>2022-04-03T06:38:15.000Z</time>
      </trkpt>
      <trkpt lat="49.66177" lon="4.75954">
        <ele>235</ele>
        <time>2022-04-03T06:38:16.000Z</time>
      </trkpt>
      <trkpt lat="49.66175" lon="4.75951">
        <ele>235</ele>
        <time>2022-04-03T06:38:17.000Z</time>
      </trkpt>
      <trkpt lat="49.66173" lon="4.75947">
        <ele>234</ele>
        <time>2022-04-03T06:38:18.000Z</time>
      </trkpt>
      <trkpt lat="49.66169" lon="4.75943">
        <ele>234</ele>
        <time>2022-04-03T06:38:19.000Z</time>
      </trkpt>
      <trkpt lat="49.66166" lon="4.75939">
        <ele>234</ele>
        <time>2022-04-03T06:38:20.000Z</time>
      </trkpt>
      <trkpt lat="49.66162" lon="4.75935">
        <ele>233</ele>
        <time>2022-04-03T06:38:21.000Z</time>
      </trkpt>
      <trkpt lat="49.66154" lon="4.75928">
        <ele>232</ele>
        <time>2022-04-03T06:38:22.000Z</time>
      </trkpt>
      <trkpt lat="49.6615" lon="4.75926">
        <ele>232</ele>
        <time>2022-04-03T06:38:23.000Z</time>
      </trkpt>
      <trkpt lat="49.66146" lon="4.75923">
        <ele>231</ele>
        <time>2022-04-03T06:38:24.000Z</time>
      </trkpt>
      <trkpt lat="49.66142" lon="4.75921">
        <ele>230</ele>
        <time>2022-04-03T06:38:25.000Z</time>
      </trkpt>
      <trkpt lat="49.66138" lon="4.75918">
        <ele>230</ele>
        <time>2022-04-03T06:38:26.000Z</time>
      </trkpt>
      <trkpt lat="49.66138" lon="4.75918">
        <ele>230</ele>
        <time>2022-04-03T06:38:27.000Z</time>
      </trkpt>
      <trkpt lat="49.6613" lon="4.75915">
        <ele>229</ele>
        <time>2022-04-03T06:38:28.000Z</time>
      </trkpt>
      <trkpt lat="49.66126" lon="4.75914">
        <ele>229</ele>
        <time>2022-04-03T06:38:29.000Z</time>
      </trkpt>
      <trkpt lat="49.66126" lon="4.75914">
        <ele>229</ele>
        <time>2022-04-03T06:38:30.000Z</time>
      </trkpt>
      <trkpt lat="49.66122" lon="4.75912">
        <ele>228</ele>
        <time>2022-04-03T06:38:31.000Z</time>
      </trkpt>
      <trkpt lat="49.66117" lon="4.7591">
        <ele>228</ele>
        <time>2022-04-03T06:38:32.000Z</time>
      </trkpt>
      <trkpt lat="49.66109" lon="4.75906">
        <ele>227</ele>
        <time>2022-04-03T06:38:33.000Z</time>
      </trkpt>
      <trkpt lat="49.66109" lon="4.75906">
        <ele>227</ele>
        <time>2022-04-03T06:38:34.000Z</time>
      </trkpt>
      <trkpt lat="49.66104" lon="4.75904">
        <ele>227</ele>
        <time>2022-04-03T06:38:35.000Z</time>
      </trkpt>
      <trkpt lat="49.66099" lon="4.75902">
        <ele>226</ele>
        <time>2022-04-03T06:38:36.000Z</time>
      </trkpt>
      <trkpt lat="49.6609" lon="4.759">
        <ele>226</ele>
        <time>2022-04-03T06:38:37.000Z</time>
      </trkpt>
      <trkpt lat="49.6609" lon="4.759">
        <ele>226</ele>
        <time>2022-04-03T06:38:38.000Z</time>
      </trkpt>
      <trkpt lat="49.66086" lon="4.759">
        <ele>225</ele>
        <time>2022-04-03T06:38:39.000Z</time>
      </trkpt>
      <trkpt lat="49.66081" lon="4.759">
        <ele>225</ele>
        <time>2022-04-03T06:38:40.000Z</time>
      </trkpt>
      <trkpt lat="49.66076" lon="4.759">
        <ele>225</ele>
        <time>2022-04-03T06:38:41.000Z</time>
      </trkpt>
      <trkpt lat="49.66072" lon="4.75901">
        <ele>225</ele>
        <time>2022-04-03T06:38:42.000Z</time>
      </trkpt>
      <trkpt lat="49.66068" lon="4.75901">
        <ele>224</ele>
        <time>2022-04-03T06:38:43.000Z</time>
      </trkpt>
      <trkpt lat="49.66065" lon="4.75902">
        <ele>224</ele>
        <time>2022-04-03T06:38:44.000Z</time>
      </trkpt>
      <trkpt lat="49.66061" lon="4.75902">
        <ele>224</ele>
        <time>2022-04-03T06:38:45.000Z</time>
      </trkpt>
      <trkpt lat="49.66058" lon="4.75903">
        <ele>224</ele>
        <time>2022-04-03T06:38:46.000Z</time>
      </trkpt>
      <trkpt lat="49.66049" lon="4.75903">
        <ele>224</ele>
        <time>2022-04-03T06:38:47.000Z</time>
      </trkpt>
      <trkpt lat="49.66049" lon="4.75903">
        <ele>224</ele>
        <time>2022-04-03T06:38:48.000Z</time>
      </trkpt>
      <trkpt lat="49.66045" lon="4.75903">
        <ele>224</ele>
        <time>2022-04-03T06:38:49.000Z</time>
      </trkpt>
      <trkpt lat="49.6604" lon="4.75904">
        <ele>224</ele>
        <time>2022-04-03T06:38:50.000Z</time>
      </trkpt>
      <trkpt lat="49.66031" lon="4.75906">
        <ele>224</ele>
        <time>2022-04-03T06:38:51.000Z</time>
      </trkpt>
      <trkpt lat="49.66027" lon="4.75907">
        <ele>224</ele>
        <time>2022-04-03T06:38:52.000Z</time>
      </trkpt>
      <trkpt lat="49.66022" lon="4.75908">
        <ele>224</ele>
        <time>2022-04-03T06:38:53.000Z</time>
      </trkpt>
      <trkpt lat="49.66019" lon="4.75909">
        <ele>223</ele>
        <time>2022-04-03T06:38:54.000Z</time>
      </trkpt>
      <trkpt lat="49.66016" lon="4.7591">
        <ele>223</ele>
        <time>2022-04-03T06:38:55.000Z</time>
      </trkpt>
      <trkpt lat="49.66012" lon="4.7591">
        <ele>223</ele>
        <time>2022-04-03T06:38:56.000Z</time>
      </trkpt>
      <trkpt lat="49.66008" lon="4.75911">
        <ele>223</ele>
        <time>2022-04-03T06:38:57.000Z</time>
      </trkpt>
      <trkpt lat="49.66008" lon="4.75911">
        <ele>223</ele>
        <time>2022-04-03T06:38:58.000Z</time>
      </trkpt>
      <trkpt lat="49.66" lon="4.75914">
        <ele>223</ele>
        <time>2022-04-03T06:38:59.000Z</time>
      </trkpt>
      <trkpt lat="49.65996" lon="4.75915">
        <ele>223</ele>
        <time>2022-04-03T06:39:00.000Z</time>
      </trkpt>
      <trkpt lat="49.65992" lon="4.75917">
        <ele>223</ele>
        <time>2022-04-03T06:39:01.000Z</time>
      </trkpt>
      <trkpt lat="49.65992" lon="4.75917">
        <ele>223</ele>
        <time>2022-04-03T06:39:02.000Z</time>
      </trkpt>
      <trkpt lat="49.65985" lon="4.75922">
        <ele>223</ele>
        <time>2022-04-03T06:39:03.000Z</time>
      </trkpt>
      <trkpt lat="49.65982" lon="4.75925">
        <ele>223</ele>
        <time>2022-04-03T06:39:04.000Z</time>
      </trkpt>
      <trkpt lat="49.6598" lon="4.75927">
        <ele>223</ele>
        <time>2022-04-03T06:39:05.000Z</time>
      </trkpt>
      <trkpt lat="49.65976" lon="4.7593">
        <ele>223</ele>
        <time>2022-04-03T06:39:06.000Z</time>
      </trkpt>
      <trkpt lat="49.65973" lon="4.75931">
        <ele>223</ele>
        <time>2022-04-03T06:39:07.000Z</time>
      </trkpt>
      <trkpt lat="49.6597" lon="4.75934">
        <ele>223</ele>
        <time>2022-04-03T06:39:08.000Z</time>
      </trkpt>
      <trkpt lat="49.65967" lon="4.75936">
        <ele>223</ele>
        <time>2022-04-03T06:39:09.000Z</time>
      </trkpt>
      <trkpt lat="49.65964" lon="4.75938">
        <ele>223</ele>
        <time>2022-04-03T06:39:10.000Z</time>
      </trkpt>
      <trkpt lat="49.65961" lon="4.7594">
        <ele>223</ele>
        <time>2022-04-03T06:39:11.000Z</time>
      </trkpt>
      <trkpt lat="49.65958" lon="4.75942">
        <ele>223</ele>
        <time>2022-04-03T06:39:12.000Z</time>
      </trkpt>
      <trkpt lat="49.65955" lon="4.75943">
        <ele>223</ele>
        <time>2022-04-03T06:39:13.000Z</time>
      </trkpt>
      <trkpt lat="49.65952" lon="4.75944">
        <ele>222</ele>
        <time>2022-04-03T06:39:14.000Z</time>
      </trkpt>
      <trkpt lat="49.65948" lon="4.75946">
        <ele>222</ele>
        <time>2022-04-03T06:39:15.000Z</time>
      </trkpt>
      <trkpt lat="49.65944" lon="4.75948">
        <ele>222</ele>
        <time>2022-04-03T06:39:16.000Z</time>
      </trkpt>
      <trkpt lat="49.65941" lon="4.7595">
        <ele>222</ele>
        <time>2022-04-03T06:39:17.000Z</time>
      </trkpt>
      <trkpt lat="49.65938" lon="4.75953">
        <ele>222</ele>
        <time>2022-04-03T06:39:18.000Z</time>
      </trkpt>
      <trkpt lat="49.65935" lon="4.75955">
        <ele>222</ele>
        <time>2022-04-03T06:39:19.000Z</time>
      </trkpt>
      <trkpt lat="49.65933" lon="4.75958">
        <ele>221</ele>
        <time>2022-04-03T06:39:20.000Z</time>
      </trkpt>
      <trkpt lat="49.6593" lon="4.75962">
        <ele>221</ele>
        <time>2022-04-03T06:39:21.000Z</time>
      </trkpt>
      <trkpt lat="49.65927" lon="4.75966">
        <ele>221</ele>
        <time>2022-04-03T06:39:22.000Z</time>
      </trkpt>
      <trkpt lat="49.65924" lon="4.7597">
        <ele>222</ele>
        <time>2022-04-03T06:39:23.000Z</time>
      </trkpt>
      <trkpt lat="49.65921" lon="4.75974">
        <ele>222</ele>
        <time>2022-04-03T06:39:24.000Z</time>
      </trkpt>
      <trkpt lat="49.65918" lon="4.75979">
        <ele>222</ele>
        <time>2022-04-03T06:39:25.000Z</time>
      </trkpt>
      <trkpt lat="49.65914" lon="4.75982">
        <ele>222</ele>
        <time>2022-04-03T06:39:26.000Z</time>
      </trkpt>
      <trkpt lat="49.65912" lon="4.75985">
        <ele>222</ele>
        <time>2022-04-03T06:39:27.000Z</time>
      </trkpt>
      <trkpt lat="49.6591" lon="4.75987">
        <ele>222</ele>
        <time>2022-04-03T06:39:28.000Z</time>
      </trkpt>
      <trkpt lat="49.65908" lon="4.75989">
        <ele>222</ele>
        <time>2022-04-03T06:39:29.000Z</time>
      </trkpt>
      <trkpt lat="49.65906" lon="4.75992">
        <ele>223</ele>
        <time>2022-04-03T06:39:30.000Z</time>
      </trkpt>
      <trkpt lat="49.65904" lon="4.75993">
        <ele>223</ele>
        <time>2022-04-03T06:39:31.000Z</time>
      </trkpt>
      <trkpt lat="49.65903" lon="4.75995">
        <ele>223</ele>
        <time>2022-04-03T06:39:32.000Z</time>
      </trkpt>
      <trkpt lat="49.65901" lon="4.75997">
        <ele>223</ele>
        <time>2022-04-03T06:39:33.000Z</time>
      </trkpt>
      <trkpt lat="49.659" lon="4.75999">
        <ele>223</ele>
        <time>2022-04-03T06:39:34.000Z</time>
      </trkpt>
      <trkpt lat="49.65899" lon="4.76003">
        <ele>223</ele>
        <time>2022-04-03T06:39:35.000Z</time>
      </trkpt>
      <trkpt lat="49.65898" lon="4.76006">
        <ele>223</ele>
        <time>2022-04-03T06:39:36.000Z</time>
      </trkpt>
      <trkpt lat="49.65898" lon="4.76006">
        <ele>223</ele>
        <time>2022-04-03T06:39:37.000Z</time>
      </trkpt>
      <trkpt lat="49.65896" lon="4.76011">
        <ele>223</ele>
        <time>2022-04-03T06:39:38.000Z</time>
      </trkpt>
      <trkpt lat="49.65896" lon="4.76014">
        <ele>223</ele>
        <time>2022-04-03T06:39:39.000Z</time>
      </trkpt>
      <trkpt lat="49.65896" lon="4.76017">
        <ele>223</ele>
        <time>2022-04-03T06:39:40.000Z</time>
      </trkpt>
      <trkpt lat="49.65896" lon="4.76017">
        <ele>223</ele>
        <time>2022-04-03T06:39:41.000Z</time>
      </trkpt>
      <trkpt lat="49.65894" lon="4.76024">
        <ele>223</ele>
        <time>2022-04-03T06:39:42.000Z</time>
      </trkpt>
      <trkpt lat="49.65892" lon="4.76027">
        <ele>223</ele>
        <time>2022-04-03T06:39:43.000Z</time>
      </trkpt>
      <trkpt lat="49.65892" lon="4.76031">
        <ele>223</ele>
        <time>2022-04-03T06:39:44.000Z</time>
      </trkpt>
      <trkpt lat="49.65891" lon="4.76034">
        <ele>223</ele>
        <time>2022-04-03T06:39:45.000Z</time>
      </trkpt>
      <trkpt lat="49.6589" lon="4.76038">
        <ele>223</ele>
        <time>2022-04-03T06:39:46.000Z</time>
      </trkpt>
      <trkpt lat="49.6589" lon="4.76041">
        <ele>223</ele>
        <time>2022-04-03T06:39:47.000Z</time>
      </trkpt>
      <trkpt lat="49.6589" lon="4.76044">
        <ele>223</ele>
        <time>2022-04-03T06:39:48.000Z</time>
      </trkpt>
      <trkpt lat="49.65889" lon="4.76047">
        <ele>223</ele>
        <time>2022-04-03T06:39:49.000Z</time>
      </trkpt>
      <trkpt lat="49.65889" lon="4.76047">
        <ele>223</ele>
        <time>2022-04-03T06:39:50.000Z</time>
      </trkpt>
      <trkpt lat="49.65889" lon="4.7605">
        <ele>223</ele>
        <time>2022-04-03T06:39:51.000Z</time>
      </trkpt>
      <trkpt lat="49.65889" lon="4.76053">
        <ele>223</ele>
        <time>2022-04-03T06:39:52.000Z</time>
      </trkpt>
      <trkpt lat="49.65889" lon="4.76056">
        <ele>223</ele>
        <time>2022-04-03T06:39:53.000Z</time>
      </trkpt>
      <trkpt lat="49.65888" lon="4.76059">
        <ele>223</ele>
        <time>2022-04-03T06:39:54.000Z</time>
      </trkpt>
      <trkpt lat="49.65887" lon="4.76066">
        <ele>224</ele>
        <time>2022-04-03T06:39:55.000Z</time>
      </trkpt>
      <trkpt lat="49.65887" lon="4.76069">
        <ele>224</ele>
        <time>2022-04-03T06:39:56.000Z</time>
      </trkpt>
      <trkpt lat="49.65887" lon="4.76069">
        <ele>224</ele>
        <time>2022-04-03T06:39:57.000Z</time>
      </trkpt>
      <trkpt lat="49.65887" lon="4.76074">
        <ele>224</ele>
        <time>2022-04-03T06:39:58.000Z</time>
      </trkpt>
      <trkpt lat="49.65887" lon="4.76077">
        <ele>224</ele>
        <time>2022-04-03T06:39:59.000Z</time>
      </trkpt>
      <trkpt lat="49.65886" lon="4.7608">
        <ele>224</ele>
        <time>2022-04-03T06:40:00.000Z</time>
      </trkpt>
      <trkpt lat="49.65886" lon="4.76083">
        <ele>224</ele>
        <time>2022-04-03T06:40:01.000Z</time>
      </trkpt>
      <trkpt lat="49.65886" lon="4.76086">
        <ele>224</ele>
        <time>2022-04-03T06:40:02.000Z</time>
      </trkpt>
      <trkpt lat="49.65886" lon="4.76089">
        <ele>224</ele>
        <time>2022-04-03T06:40:03.000Z</time>
      </trkpt>
      <trkpt lat="49.65886" lon="4.76092">
        <ele>224</ele>
        <time>2022-04-03T06:40:04.000Z</time>
      </trkpt>
      <trkpt lat="49.65886" lon="4.76095">
        <ele>225</ele>
        <time>2022-04-03T06:40:05.000Z</time>
      </trkpt>
      <trkpt lat="49.65886" lon="4.76095">
        <ele>225</ele>
        <time>2022-04-03T06:40:06.000Z</time>
      </trkpt>
      <trkpt lat="49.65887" lon="4.76101">
        <ele>225</ele>
        <time>2022-04-03T06:40:07.000Z</time>
      </trkpt>
      <trkpt lat="49.65887" lon="4.76104">
        <ele>225</ele>
        <time>2022-04-03T06:40:08.000Z</time>
      </trkpt>
      <trkpt lat="49.65887" lon="4.76106">
        <ele>225</ele>
        <time>2022-04-03T06:40:09.000Z</time>
      </trkpt>
      <trkpt lat="49.65887" lon="4.76109">
        <ele>226</ele>
        <time>2022-04-03T06:40:10.000Z</time>
      </trkpt>
      <trkpt lat="49.65887" lon="4.76112">
        <ele>226</ele>
        <time>2022-04-03T06:40:11.000Z</time>
      </trkpt>
      <trkpt lat="49.65887" lon="4.76114">
        <ele>226</ele>
        <time>2022-04-03T06:40:12.000Z</time>
      </trkpt>
      <trkpt lat="49.65887" lon="4.76116">
        <ele>226</ele>
        <time>2022-04-03T06:40:13.000Z</time>
      </trkpt>
      <trkpt lat="49.65887" lon="4.76118">
        <ele>227</ele>
        <time>2022-04-03T06:40:14.000Z</time>
      </trkpt>
      <trkpt lat="49.65887" lon="4.7612">
        <ele>227</ele>
        <time>2022-04-03T06:40:15.000Z</time>
      </trkpt>
      <trkpt lat="49.65886" lon="4.76122">
        <ele>227</ele>
        <time>2022-04-03T06:40:16.000Z</time>
      </trkpt>
      <trkpt lat="49.65886" lon="4.76125">
        <ele>227</ele>
        <time>2022-04-03T06:40:17.000Z</time>
      </trkpt>
      <trkpt lat="49.65886" lon="4.76127">
        <ele>227</ele>
        <time>2022-04-03T06:40:18.000Z</time>
      </trkpt>
      <trkpt lat="49.65886" lon="4.76127">
        <ele>227</ele>
        <time>2022-04-03T06:40:19.000Z</time>
      </trkpt>
      <trkpt lat="49.65885" lon="4.7613">
        <ele>227</ele>
        <time>2022-04-03T06:40:20.000Z</time>
      </trkpt>
      <trkpt lat="49.65886" lon="4.76132">
        <ele>227</ele>
        <time>2022-04-03T06:40:21.000Z</time>
      </trkpt>
      <trkpt lat="49.65886" lon="4.76135">
        <ele>227</ele>
        <time>2022-04-03T06:40:22.000Z</time>
      </trkpt>
      <trkpt lat="49.65884" lon="4.7614">
        <ele>228</ele>
        <time>2022-04-03T06:40:23.000Z</time>
      </trkpt>
      <trkpt lat="49.65884" lon="4.7614">
        <ele>228</ele>
        <time>2022-04-03T06:40:24.000Z</time>
      </trkpt>
      <trkpt lat="49.65884" lon="4.76144">
        <ele>228</ele>
        <time>2022-04-03T06:40:25.000Z</time>
      </trkpt>
      <trkpt lat="49.65884" lon="4.76147">
        <ele>228</ele>
        <time>2022-04-03T06:40:26.000Z</time>
      </trkpt>
      <trkpt lat="49.65884" lon="4.7615">
        <ele>228</ele>
        <time>2022-04-03T06:40:27.000Z</time>
      </trkpt>
      <trkpt lat="49.65884" lon="4.76153">
        <ele>228</ele>
        <time>2022-04-03T06:40:28.000Z</time>
      </trkpt>
      <trkpt lat="49.65885" lon="4.76156">
        <ele>229</ele>
        <time>2022-04-03T06:40:29.000Z</time>
      </trkpt>
      <trkpt lat="49.65885" lon="4.76156">
        <ele>229</ele>
        <time>2022-04-03T06:40:30.000Z</time>
      </trkpt>
      <trkpt lat="49.65885" lon="4.76163">
        <ele>229</ele>
        <time>2022-04-03T06:40:31.000Z</time>
      </trkpt>
      <trkpt lat="49.65885" lon="4.76166">
        <ele>229</ele>
        <time>2022-04-03T06:40:32.000Z</time>
      </trkpt>
      <trkpt lat="49.65885" lon="4.76166">
        <ele>229</ele>
        <time>2022-04-03T06:40:33.000Z</time>
      </trkpt>
      <trkpt lat="49.65885" lon="4.7617">
        <ele>229</ele>
        <time>2022-04-03T06:40:34.000Z</time>
      </trkpt>
      <trkpt lat="49.65884" lon="4.76176">
        <ele>229</ele>
        <time>2022-04-03T06:40:35.000Z</time>
      </trkpt>
      <trkpt lat="49.65884" lon="4.76176">
        <ele>229</ele>
        <time>2022-04-03T06:40:36.000Z</time>
      </trkpt>
      <trkpt lat="49.65884" lon="4.76182">
        <ele>230</ele>
        <time>2022-04-03T06:40:37.000Z</time>
      </trkpt>
      <trkpt lat="49.65884" lon="4.76185">
        <ele>230</ele>
        <time>2022-04-03T06:40:38.000Z</time>
      </trkpt>
      <trkpt lat="49.65884" lon="4.76188">
        <ele>230</ele>
        <time>2022-04-03T06:40:39.000Z</time>
      </trkpt>
      <trkpt lat="49.65884" lon="4.76191">
        <ele>230</ele>
        <time>2022-04-03T06:40:40.000Z</time>
      </trkpt>
      <trkpt lat="49.65884" lon="4.76194">
        <ele>230</ele>
        <time>2022-04-03T06:40:41.000Z</time>
      </trkpt>
      <trkpt lat="49.65884" lon="4.76197">
        <ele>230</ele>
        <time>2022-04-03T06:40:42.000Z</time>
      </trkpt>
      <trkpt lat="49.65884" lon="4.76201">
        <ele>230</ele>
        <time>2022-04-03T06:40:43.000Z</time>
      </trkpt>
      <trkpt lat="49.65884" lon="4.76204">
        <ele>230</ele>
        <time>2022-04-03T06:40:44.000Z</time>
      </trkpt>
      <trkpt lat="49.65884" lon="4.76207">
        <ele>230</ele>
        <time>2022-04-03T06:40:45.000Z</time>
      </trkpt>
      <trkpt lat="49.65883" lon="4.76209">
        <ele>230</ele>
        <time>2022-04-03T06:40:46.000Z</time>
      </trkpt>
      <trkpt lat="49.65883" lon="4.76212">
        <ele>231</ele>
        <time>2022-04-03T06:40:47.000Z</time>
      </trkpt>
      <trkpt lat="49.65882" lon="4.76215">
        <ele>231</ele>
        <time>2022-04-03T06:40:48.000Z</time>
      </trkpt>
      <trkpt lat="49.65882" lon="4.76215">
        <ele>231</ele>
        <time>2022-04-03T06:40:49.000Z</time>
      </trkpt>
      <trkpt lat="49.65882" lon="4.76219">
        <ele>231</ele>
        <time>2022-04-03T06:40:50.000Z</time>
      </trkpt>
      <trkpt lat="49.65882" lon="4.76223">
        <ele>231</ele>
        <time>2022-04-03T06:40:51.000Z</time>
      </trkpt>
      <trkpt lat="49.65882" lon="4.76231">
        <ele>232</ele>
        <time>2022-04-03T06:40:52.000Z</time>
      </trkpt>
      <trkpt lat="49.65881" lon="4.76234">
        <ele>232</ele>
        <time>2022-04-03T06:40:53.000Z</time>
      </trkpt>
      <trkpt lat="49.6588" lon="4.76237">
        <ele>232</ele>
        <time>2022-04-03T06:40:54.000Z</time>
      </trkpt>
      <trkpt lat="49.6588" lon="4.76242">
        <ele>232</ele>
        <time>2022-04-03T06:40:55.000Z</time>
      </trkpt>
      <trkpt lat="49.6588" lon="4.76242">
        <ele>232</ele>
        <time>2022-04-03T06:40:56.000Z</time>
      </trkpt>
      <trkpt lat="49.6588" lon="4.76247">
        <ele>233</ele>
        <time>2022-04-03T06:40:57.000Z</time>
      </trkpt>
      <trkpt lat="49.6588" lon="4.76252">
        <ele>233</ele>
        <time>2022-04-03T06:40:58.000Z</time>
      </trkpt>
      <trkpt lat="49.65878" lon="4.76262">
        <ele>233</ele>
        <time>2022-04-03T06:40:59.000Z</time>
      </trkpt>
      <trkpt lat="49.65878" lon="4.76262">
        <ele>233</ele>
        <time>2022-04-03T06:41:00.000Z</time>
      </trkpt>
      <trkpt lat="49.65877" lon="4.76272">
        <ele>233</ele>
        <time>2022-04-03T06:41:01.000Z</time>
      </trkpt>
      <trkpt lat="49.65876" lon="4.76277">
        <ele>233</ele>
        <time>2022-04-03T06:41:02.000Z</time>
      </trkpt>
      <trkpt lat="49.65875" lon="4.76281">
        <ele>233</ele>
        <time>2022-04-03T06:41:03.000Z</time>
      </trkpt>
      <trkpt lat="49.65874" lon="4.76285">
        <ele>233</ele>
        <time>2022-04-03T06:41:04.000Z</time>
      </trkpt>
      <trkpt lat="49.65873" lon="4.76289">
        <ele>233</ele>
        <time>2022-04-03T06:41:05.000Z</time>
      </trkpt>
      <trkpt lat="49.65872" lon="4.76294">
        <ele>234</ele>
        <time>2022-04-03T06:41:06.000Z</time>
      </trkpt>
      <trkpt lat="49.65871" lon="4.76298">
        <ele>234</ele>
        <time>2022-04-03T06:41:07.000Z</time>
      </trkpt>
      <trkpt lat="49.6587" lon="4.76303">
        <ele>234</ele>
        <time>2022-04-03T06:41:08.000Z</time>
      </trkpt>
      <trkpt lat="49.65869" lon="4.76307">
        <ele>234</ele>
        <time>2022-04-03T06:41:09.000Z</time>
      </trkpt>
      <trkpt lat="49.65868" lon="4.76312">
        <ele>234</ele>
        <time>2022-04-03T06:41:10.000Z</time>
      </trkpt>
      <trkpt lat="49.65867" lon="4.76316">
        <ele>234</ele>
        <time>2022-04-03T06:41:11.000Z</time>
      </trkpt>
      <trkpt lat="49.65866" lon="4.7632">
        <ele>234</ele>
        <time>2022-04-03T06:41:12.000Z</time>
      </trkpt>
      <trkpt lat="49.65866" lon="4.76324">
        <ele>234</ele>
        <time>2022-04-03T06:41:13.000Z</time>
      </trkpt>
      <trkpt lat="49.65865" lon="4.76328">
        <ele>234</ele>
        <time>2022-04-03T06:41:14.000Z</time>
      </trkpt>
      <trkpt lat="49.65864" lon="4.76332">
        <ele>234</ele>
        <time>2022-04-03T06:41:15.000Z</time>
      </trkpt>
      <trkpt lat="49.65862" lon="4.76335">
        <ele>234</ele>
        <time>2022-04-03T06:41:16.000Z</time>
      </trkpt>
      <trkpt lat="49.6586" lon="4.76339">
        <ele>234</ele>
        <time>2022-04-03T06:41:17.000Z</time>
      </trkpt>
      <trkpt lat="49.65858" lon="4.76343">
        <ele>235</ele>
        <time>2022-04-03T06:41:18.000Z</time>
      </trkpt>
      <trkpt lat="49.65857" lon="4.76348">
        <ele>235</ele>
        <time>2022-04-03T06:41:19.000Z</time>
      </trkpt>
      <trkpt lat="49.65855" lon="4.76352">
        <ele>235</ele>
        <time>2022-04-03T06:41:20.000Z</time>
      </trkpt>
      <trkpt lat="49.65853" lon="4.76356">
        <ele>235</ele>
        <time>2022-04-03T06:41:21.000Z</time>
      </trkpt>
      <trkpt lat="49.65851" lon="4.76359">
        <ele>235</ele>
        <time>2022-04-03T06:41:22.000Z</time>
      </trkpt>
      <trkpt lat="49.65849" lon="4.76363">
        <ele>236</ele>
        <time>2022-04-03T06:41:23.000Z</time>
      </trkpt>
      <trkpt lat="49.65847" lon="4.76366">
        <ele>236</ele>
        <time>2022-04-03T06:41:24.000Z</time>
      </trkpt>
      <trkpt lat="49.65845" lon="4.76369">
        <ele>236</ele>
        <time>2022-04-03T06:41:25.000Z</time>
      </trkpt>
      <trkpt lat="49.65842" lon="4.76373">
        <ele>237</ele>
        <time>2022-04-03T06:41:26.000Z</time>
      </trkpt>
      <trkpt lat="49.6584" lon="4.76377">
        <ele>237</ele>
        <time>2022-04-03T06:41:27.000Z</time>
      </trkpt>
      <trkpt lat="49.65839" lon="4.7638">
        <ele>237</ele>
        <time>2022-04-03T06:41:28.000Z</time>
      </trkpt>
      <trkpt lat="49.65836" lon="4.76384">
        <ele>237</ele>
        <time>2022-04-03T06:41:29.000Z</time>
      </trkpt>
      <trkpt lat="49.65834" lon="4.76388">
        <ele>238</ele>
        <time>2022-04-03T06:41:30.000Z</time>
      </trkpt>
      <trkpt lat="49.65833" lon="4.76391">
        <ele>238</ele>
        <time>2022-04-03T06:41:31.000Z</time>
      </trkpt>
      <trkpt lat="49.65831" lon="4.76395">
        <ele>238</ele>
        <time>2022-04-03T06:41:32.000Z</time>
      </trkpt>
      <trkpt lat="49.65831" lon="4.76395">
        <ele>238</ele>
        <time>2022-04-03T06:41:33.000Z</time>
      </trkpt>
      <trkpt lat="49.65827" lon="4.76404">
        <ele>238</ele>
        <time>2022-04-03T06:41:34.000Z</time>
      </trkpt>
      <trkpt lat="49.65825" lon="4.76408">
        <ele>238</ele>
        <time>2022-04-03T06:41:35.000Z</time>
      </trkpt>
      <trkpt lat="49.65823" lon="4.76412">
        <ele>238</ele>
        <time>2022-04-03T06:41:36.000Z</time>
      </trkpt>
      <trkpt lat="49.65821" lon="4.76416">
        <ele>238</ele>
        <time>2022-04-03T06:41:37.000Z</time>
      </trkpt>
      <trkpt lat="49.6582" lon="4.76419">
        <ele>239</ele>
        <time>2022-04-03T06:41:38.000Z</time>
      </trkpt>
      <trkpt lat="49.65819" lon="4.76421">
        <ele>239</ele>
        <time>2022-04-03T06:41:39.000Z</time>
      </trkpt>
      <trkpt lat="49.65818" lon="4.76423">
        <ele>239</ele>
        <time>2022-04-03T06:41:40.000Z</time>
      </trkpt>
      <trkpt lat="49.65818" lon="4.76423">
        <ele>239</ele>
        <time>2022-04-03T06:41:41.000Z</time>
      </trkpt>
      <trkpt lat="49.65818" lon="4.76425">
        <ele>239</ele>
        <time>2022-04-03T06:41:42.000Z</time>
      </trkpt>
      <trkpt lat="49.65816" lon="4.76427">
        <ele>239</ele>
        <time>2022-04-03T06:41:43.000Z</time>
      </trkpt>
      <trkpt lat="49.65815" lon="4.7643">
        <ele>239</ele>
        <time>2022-04-03T06:41:44.000Z</time>
      </trkpt>
      <trkpt lat="49.65815" lon="4.76433">
        <ele>239</ele>
        <time>2022-04-03T06:41:45.000Z</time>
      </trkpt>
      <trkpt lat="49.65814" lon="4.76436">
        <ele>239</ele>
        <time>2022-04-03T06:41:46.000Z</time>
      </trkpt>
      <trkpt lat="49.65813" lon="4.76441">
        <ele>239</ele>
        <time>2022-04-03T06:41:47.000Z</time>
      </trkpt>
      <trkpt lat="49.65812" lon="4.76444">
        <ele>239</ele>
        <time>2022-04-03T06:41:48.000Z</time>
      </trkpt>
      <trkpt lat="49.65811" lon="4.76447">
        <ele>239</ele>
        <time>2022-04-03T06:41:49.000Z</time>
      </trkpt>
      <trkpt lat="49.65809" lon="4.7645">
        <ele>239</ele>
        <time>2022-04-03T06:41:50.000Z</time>
      </trkpt>
      <trkpt lat="49.65807" lon="4.76454">
        <ele>238</ele>
        <time>2022-04-03T06:41:51.000Z</time>
      </trkpt>
      <trkpt lat="49.65806" lon="4.76457">
        <ele>239</ele>
        <time>2022-04-03T06:41:52.000Z</time>
      </trkpt>
      <trkpt lat="49.65804" lon="4.76461">
        <ele>238</ele>
        <time>2022-04-03T06:41:53.000Z</time>
      </trkpt>
      <trkpt lat="49.65802" lon="4.76464">
        <ele>238</ele>
        <time>2022-04-03T06:41:54.000Z</time>
      </trkpt>
      <trkpt lat="49.658" lon="4.76468">
        <ele>238</ele>
        <time>2022-04-03T06:41:55.000Z</time>
      </trkpt>
      <trkpt lat="49.65798" lon="4.76471">
        <ele>238</ele>
        <time>2022-04-03T06:41:56.000Z</time>
      </trkpt>
      <trkpt lat="49.65793" lon="4.76478">
        <ele>238</ele>
        <time>2022-04-03T06:41:57.000Z</time>
      </trkpt>
      <trkpt lat="49.65791" lon="4.76481">
        <ele>238</ele>
        <time>2022-04-03T06:41:58.000Z</time>
      </trkpt>
      <trkpt lat="49.65789" lon="4.76485">
        <ele>239</ele>
        <time>2022-04-03T06:41:59.000Z</time>
      </trkpt>
      <trkpt lat="49.65787" lon="4.76489">
        <ele>239</ele>
        <time>2022-04-03T06:42:00.000Z</time>
      </trkpt>
      <trkpt lat="49.65785" lon="4.76493">
        <ele>239</ele>
        <time>2022-04-03T06:42:01.000Z</time>
      </trkpt>
      <trkpt lat="49.65785" lon="4.76493">
        <ele>239</ele>
        <time>2022-04-03T06:42:02.000Z</time>
      </trkpt>
      <trkpt lat="49.65783" lon="4.76497">
        <ele>239</ele>
        <time>2022-04-03T06:42:03.000Z</time>
      </trkpt>
      <trkpt lat="49.65779" lon="4.76504">
        <ele>239</ele>
        <time>2022-04-03T06:42:04.000Z</time>
      </trkpt>
      <trkpt lat="49.65777" lon="4.76508">
        <ele>239</ele>
        <time>2022-04-03T06:42:05.000Z</time>
      </trkpt>
      <trkpt lat="49.65776" lon="4.76512">
        <ele>239</ele>
        <time>2022-04-03T06:42:06.000Z</time>
      </trkpt>
      <trkpt lat="49.65774" lon="4.76516">
        <ele>239</ele>
        <time>2022-04-03T06:42:07.000Z</time>
      </trkpt>
      <trkpt lat="49.65772" lon="4.76519">
        <ele>240</ele>
        <time>2022-04-03T06:42:08.000Z</time>
      </trkpt>
      <trkpt lat="49.6577" lon="4.76523">
        <ele>240</ele>
        <time>2022-04-03T06:42:09.000Z</time>
      </trkpt>
      <trkpt lat="49.65769" lon="4.76527">
        <ele>240</ele>
        <time>2022-04-03T06:42:10.000Z</time>
      </trkpt>
      <trkpt lat="49.65767" lon="4.7653">
        <ele>240</ele>
        <time>2022-04-03T06:42:11.000Z</time>
      </trkpt>
      <trkpt lat="49.65765" lon="4.76534">
        <ele>240</ele>
        <time>2022-04-03T06:42:12.000Z</time>
      </trkpt>
      <trkpt lat="49.65763" lon="4.76537">
        <ele>240</ele>
        <time>2022-04-03T06:42:13.000Z</time>
      </trkpt>
      <trkpt lat="49.65761" lon="4.76541">
        <ele>240</ele>
        <time>2022-04-03T06:42:14.000Z</time>
      </trkpt>
      <trkpt lat="49.6576" lon="4.76546">
        <ele>240</ele>
        <time>2022-04-03T06:42:15.000Z</time>
      </trkpt>
      <trkpt lat="49.65758" lon="4.7655">
        <ele>240</ele>
        <time>2022-04-03T06:42:16.000Z</time>
      </trkpt>
      <trkpt lat="49.65758" lon="4.7655">
        <ele>240</ele>
        <time>2022-04-03T06:42:17.000Z</time>
      </trkpt>
      <trkpt lat="49.65754" lon="4.76559">
        <ele>240</ele>
        <time>2022-04-03T06:42:18.000Z</time>
      </trkpt>
      <trkpt lat="49.65752" lon="4.76563">
        <ele>240</ele>
        <time>2022-04-03T06:42:19.000Z</time>
      </trkpt>
      <trkpt lat="49.6575" lon="4.76567">
        <ele>240</ele>
        <time>2022-04-03T06:42:20.000Z</time>
      </trkpt>
      <trkpt lat="49.65748" lon="4.76571">
        <ele>240</ele>
        <time>2022-04-03T06:42:21.000Z</time>
      </trkpt>
      <trkpt lat="49.65746" lon="4.76576">
        <ele>241</ele>
        <time>2022-04-03T06:42:22.000Z</time>
      </trkpt>
      <trkpt lat="49.65745" lon="4.7658">
        <ele>241</ele>
        <time>2022-04-03T06:42:23.000Z</time>
      </trkpt>
      <trkpt lat="49.65743" lon="4.76584">
        <ele>241</ele>
        <time>2022-04-03T06:42:24.000Z</time>
      </trkpt>
      <trkpt lat="49.65743" lon="4.76584">
        <ele>241</ele>
        <time>2022-04-03T06:42:25.000Z</time>
      </trkpt>
      <trkpt lat="49.65741" lon="4.76588">
        <ele>241</ele>
        <time>2022-04-03T06:42:26.000Z</time>
      </trkpt>
      <trkpt lat="49.65739" lon="4.76592">
        <ele>241</ele>
        <time>2022-04-03T06:42:27.000Z</time>
      </trkpt>
      <trkpt lat="49.65736" lon="4.766">
        <ele>241</ele>
        <time>2022-04-03T06:42:28.000Z</time>
      </trkpt>
      <trkpt lat="49.65736" lon="4.766">
        <ele>241</ele>
        <time>2022-04-03T06:42:29.000Z</time>
      </trkpt>
      <trkpt lat="49.65734" lon="4.76604">
        <ele>241</ele>
        <time>2022-04-03T06:42:30.000Z</time>
      </trkpt>
      <trkpt lat="49.65731" lon="4.76612">
        <ele>241</ele>
        <time>2022-04-03T06:42:31.000Z</time>
      </trkpt>
      <trkpt lat="49.65731" lon="4.76612">
        <ele>241</ele>
        <time>2022-04-03T06:42:32.000Z</time>
      </trkpt>
      <trkpt lat="49.65727" lon="4.76619">
        <ele>241</ele>
        <time>2022-04-03T06:42:33.000Z</time>
      </trkpt>
      <trkpt lat="49.65726" lon="4.76622">
        <ele>241</ele>
        <time>2022-04-03T06:42:34.000Z</time>
      </trkpt>
      <trkpt lat="49.65725" lon="4.76626">
        <ele>241</ele>
        <time>2022-04-03T06:42:35.000Z</time>
      </trkpt>
      <trkpt lat="49.65723" lon="4.76629">
        <ele>241</ele>
        <time>2022-04-03T06:42:36.000Z</time>
      </trkpt>
      <trkpt lat="49.65722" lon="4.76633">
        <ele>241</ele>
        <time>2022-04-03T06:42:37.000Z</time>
      </trkpt>
      <trkpt lat="49.6572" lon="4.76637">
        <ele>241</ele>
        <time>2022-04-03T06:42:38.000Z</time>
      </trkpt>
      <trkpt lat="49.6572" lon="4.76637">
        <ele>241</ele>
        <time>2022-04-03T06:42:39.000Z</time>
      </trkpt>
      <trkpt lat="49.6572" lon="4.76639">
        <ele>241</ele>
        <time>2022-04-03T06:42:40.000Z</time>
      </trkpt>
      <trkpt lat="49.65718" lon="4.76646">
        <ele>242</ele>
        <time>2022-04-03T06:42:41.000Z</time>
      </trkpt>
      <trkpt lat="49.65718" lon="4.76646">
        <ele>242</ele>
        <time>2022-04-03T06:42:42.000Z</time>
      </trkpt>
      <trkpt lat="49.65716" lon="4.76651">
        <ele>242</ele>
        <time>2022-04-03T06:42:43.000Z</time>
      </trkpt>
      <trkpt lat="49.65715" lon="4.76655">
        <ele>242</ele>
        <time>2022-04-03T06:42:44.000Z</time>
      </trkpt>
      <trkpt lat="49.65714" lon="4.7666">
        <ele>242</ele>
        <time>2022-04-03T06:42:45.000Z</time>
      </trkpt>
      <trkpt lat="49.65712" lon="4.76664">
        <ele>242</ele>
        <time>2022-04-03T06:42:46.000Z</time>
      </trkpt>
      <trkpt lat="49.6571" lon="4.76673">
        <ele>242</ele>
        <time>2022-04-03T06:42:47.000Z</time>
      </trkpt>
      <trkpt lat="49.6571" lon="4.76673">
        <ele>242</ele>
        <time>2022-04-03T06:42:48.000Z</time>
      </trkpt>
      <trkpt lat="49.65707" lon="4.76682">
        <ele>243</ele>
        <time>2022-04-03T06:42:49.000Z</time>
      </trkpt>
      <trkpt lat="49.65707" lon="4.76686">
        <ele>243</ele>
        <time>2022-04-03T06:42:50.000Z</time>
      </trkpt>
      <trkpt lat="49.65705" lon="4.76691">
        <ele>243</ele>
        <time>2022-04-03T06:42:51.000Z</time>
      </trkpt>
      <trkpt lat="49.65704" lon="4.76695">
        <ele>243</ele>
        <time>2022-04-03T06:42:52.000Z</time>
      </trkpt>
      <trkpt lat="49.65703" lon="4.767">
        <ele>243</ele>
        <time>2022-04-03T06:42:53.000Z</time>
      </trkpt>
      <trkpt lat="49.65703" lon="4.767">
        <ele>243</ele>
        <time>2022-04-03T06:42:54.000Z</time>
      </trkpt>
      <trkpt lat="49.65701" lon="4.76705">
        <ele>243</ele>
        <time>2022-04-03T06:42:55.000Z</time>
      </trkpt>
      <trkpt lat="49.65699" lon="4.76714">
        <ele>244</ele>
        <time>2022-04-03T06:42:56.000Z</time>
      </trkpt>
      <trkpt lat="49.65699" lon="4.76714">
        <ele>244</ele>
        <time>2022-04-03T06:42:57.000Z</time>
      </trkpt>
      <trkpt lat="49.65698" lon="4.76718">
        <ele>244</ele>
        <time>2022-04-03T06:42:58.000Z</time>
      </trkpt>
      <trkpt lat="49.65697" lon="4.76722">
        <ele>244</ele>
        <time>2022-04-03T06:42:59.000Z</time>
      </trkpt>
      <trkpt lat="49.65697" lon="4.76727">
        <ele>244</ele>
        <time>2022-04-03T06:43:00.000Z</time>
      </trkpt>
      <trkpt lat="49.65694" lon="4.76737">
        <ele>245</ele>
        <time>2022-04-03T06:43:01.000Z</time>
      </trkpt>
      <trkpt lat="49.65693" lon="4.76741">
        <ele>245</ele>
        <time>2022-04-03T06:43:02.000Z</time>
      </trkpt>
      <trkpt lat="49.65692" lon="4.76746">
        <ele>245</ele>
        <time>2022-04-03T06:43:03.000Z</time>
      </trkpt>
      <trkpt lat="49.65691" lon="4.7675">
        <ele>245</ele>
        <time>2022-04-03T06:43:04.000Z</time>
      </trkpt>
      <trkpt lat="49.65691" lon="4.76754">
        <ele>245</ele>
        <time>2022-04-03T06:43:05.000Z</time>
      </trkpt>
      <trkpt lat="49.65691" lon="4.76758">
        <ele>246</ele>
        <time>2022-04-03T06:43:06.000Z</time>
      </trkpt>
      <trkpt lat="49.65692" lon="4.76762">
        <ele>246</ele>
        <time>2022-04-03T06:43:07.000Z</time>
      </trkpt>
      <trkpt lat="49.65693" lon="4.76766">
        <ele>246</ele>
        <time>2022-04-03T06:43:08.000Z</time>
      </trkpt>
      <trkpt lat="49.65695" lon="4.76768">
        <ele>247</ele>
        <time>2022-04-03T06:43:09.000Z</time>
      </trkpt>
      <trkpt lat="49.65697" lon="4.7677">
        <ele>247</ele>
        <time>2022-04-03T06:43:10.000Z</time>
      </trkpt>
      <trkpt lat="49.65699" lon="4.76771">
        <ele>247</ele>
        <time>2022-04-03T06:43:11.000Z</time>
      </trkpt>
      <trkpt lat="49.65701" lon="4.76771">
        <ele>247</ele>
        <time>2022-04-03T06:43:12.000Z</time>
      </trkpt>
      <trkpt lat="49.65703" lon="4.7677">
        <ele>248</ele>
        <time>2022-04-03T06:43:13.000Z</time>
      </trkpt>
      <trkpt lat="49.65705" lon="4.76769">
        <ele>248</ele>
        <time>2022-04-03T06:43:14.000Z</time>
      </trkpt>
      <trkpt lat="49.65706" lon="4.76769">
        <ele>248</ele>
        <time>2022-04-03T06:43:15.000Z</time>
      </trkpt>
      <trkpt lat="49.65708" lon="4.76769">
        <ele>248</ele>
        <time>2022-04-03T06:43:16.000Z</time>
      </trkpt>
      <trkpt lat="49.6571" lon="4.76768">
        <ele>248</ele>
        <time>2022-04-03T06:43:17.000Z</time>
      </trkpt>
      <trkpt lat="49.65712" lon="4.76768">
        <ele>248</ele>
        <time>2022-04-03T06:43:18.000Z</time>
      </trkpt>
      <trkpt lat="49.65714" lon="4.76768">
        <ele>248</ele>
        <time>2022-04-03T06:43:19.000Z</time>
      </trkpt>
      <trkpt lat="49.65716" lon="4.76767">
        <ele>249</ele>
        <time>2022-04-03T06:43:20.000Z</time>
      </trkpt>
      <trkpt lat="49.65718" lon="4.76766">
        <ele>249</ele>
        <time>2022-04-03T06:43:21.000Z</time>
      </trkpt>
      <trkpt lat="49.6572" lon="4.76765">
        <ele>249</ele>
        <time>2022-04-03T06:43:22.000Z</time>
      </trkpt>
      <trkpt lat="49.65722" lon="4.76763">
        <ele>249</ele>
        <time>2022-04-03T06:43:23.000Z</time>
      </trkpt>
      <trkpt lat="49.65725" lon="4.76762">
        <ele>249</ele>
        <time>2022-04-03T06:43:24.000Z</time>
      </trkpt>
      <trkpt lat="49.65728" lon="4.76761">
        <ele>250</ele>
        <time>2022-04-03T06:43:25.000Z</time>
      </trkpt>
      <trkpt lat="49.65731" lon="4.76759">
        <ele>250</ele>
        <time>2022-04-03T06:43:26.000Z</time>
      </trkpt>
      <trkpt lat="49.65734" lon="4.76758">
        <ele>250</ele>
        <time>2022-04-03T06:43:27.000Z</time>
      </trkpt>
      <trkpt lat="49.65738" lon="4.76757">
        <ele>250</ele>
        <time>2022-04-03T06:43:28.000Z</time>
      </trkpt>
      <trkpt lat="49.65741" lon="4.76755">
        <ele>250</ele>
        <time>2022-04-03T06:43:29.000Z</time>
      </trkpt>
      <trkpt lat="49.65744" lon="4.76753">
        <ele>250</ele>
        <time>2022-04-03T06:43:30.000Z</time>
      </trkpt>
      <trkpt lat="49.65747" lon="4.76751">
        <ele>251</ele>
        <time>2022-04-03T06:43:31.000Z</time>
      </trkpt>
      <trkpt lat="49.6575" lon="4.76749">
        <ele>251</ele>
        <time>2022-04-03T06:43:32.000Z</time>
      </trkpt>
      <trkpt lat="49.65753" lon="4.76748">
        <ele>251</ele>
        <time>2022-04-03T06:43:33.000Z</time>
      </trkpt>
      <trkpt lat="49.65756" lon="4.76746">
        <ele>251</ele>
        <time>2022-04-03T06:43:34.000Z</time>
      </trkpt>
      <trkpt lat="49.65759" lon="4.76745">
        <ele>251</ele>
        <time>2022-04-03T06:43:35.000Z</time>
      </trkpt>
      <trkpt lat="49.65762" lon="4.76743">
        <ele>251</ele>
        <time>2022-04-03T06:43:36.000Z</time>
      </trkpt>
      <trkpt lat="49.65765" lon="4.76742">
        <ele>251</ele>
        <time>2022-04-03T06:43:37.000Z</time>
      </trkpt>
      <trkpt lat="49.65768" lon="4.76741">
        <ele>251</ele>
        <time>2022-04-03T06:43:38.000Z</time>
      </trkpt>
      <trkpt lat="49.65771" lon="4.76739">
        <ele>251</ele>
        <time>2022-04-03T06:43:39.000Z</time>
      </trkpt>
      <trkpt lat="49.65771" lon="4.76739">
        <ele>251</ele>
        <time>2022-04-03T06:43:40.000Z</time>
      </trkpt>
      <trkpt lat="49.65774" lon="4.76737">
        <ele>251</ele>
        <time>2022-04-03T06:43:41.000Z</time>
      </trkpt>
      <trkpt lat="49.65777" lon="4.76736">
        <ele>251</ele>
        <time>2022-04-03T06:43:42.000Z</time>
      </trkpt>
      <trkpt lat="49.65783" lon="4.76732">
        <ele>251</ele>
        <time>2022-04-03T06:43:43.000Z</time>
      </trkpt>
      <trkpt lat="49.65788" lon="4.76731">
        <ele>252</ele>
        <time>2022-04-03T06:43:44.000Z</time>
      </trkpt>
      <trkpt lat="49.65792" lon="4.76729">
        <ele>252</ele>
        <time>2022-04-03T06:43:45.000Z</time>
      </trkpt>
      <trkpt lat="49.65795" lon="4.76727">
        <ele>252</ele>
        <time>2022-04-03T06:43:46.000Z</time>
      </trkpt>
      <trkpt lat="49.65799" lon="4.76726">
        <ele>252</ele>
        <time>2022-04-03T06:43:47.000Z</time>
      </trkpt>
      <trkpt lat="49.65802" lon="4.76725">
        <ele>252</ele>
        <time>2022-04-03T06:43:48.000Z</time>
      </trkpt>
      <trkpt lat="49.65807" lon="4.76724">
        <ele>252</ele>
        <time>2022-04-03T06:43:49.000Z</time>
      </trkpt>
      <trkpt lat="49.65811" lon="4.76723">
        <ele>252</ele>
        <time>2022-04-03T06:43:50.000Z</time>
      </trkpt>
      <trkpt lat="49.65815" lon="4.76721">
        <ele>252</ele>
        <time>2022-04-03T06:43:51.000Z</time>
      </trkpt>
      <trkpt lat="49.65818" lon="4.7672">
        <ele>252</ele>
        <time>2022-04-03T06:43:52.000Z</time>
      </trkpt>
      <trkpt lat="49.65821" lon="4.7672">
        <ele>252</ele>
        <time>2022-04-03T06:43:53.000Z</time>
      </trkpt>
      <trkpt lat="49.65823" lon="4.76719">
        <ele>252</ele>
        <time>2022-04-03T06:43:54.000Z</time>
      </trkpt>
      <trkpt lat="49.65825" lon="4.76719">
        <ele>252</ele>
        <time>2022-04-03T06:43:55.000Z</time>
      </trkpt>
      <trkpt lat="49.65828" lon="4.76718">
        <ele>252</ele>
        <time>2022-04-03T06:43:56.000Z</time>
      </trkpt>
      <trkpt lat="49.65829" lon="4.76718">
        <ele>252</ele>
        <time>2022-04-03T06:43:57.000Z</time>
      </trkpt>
      <trkpt lat="49.65831" lon="4.76719">
        <ele>252</ele>
        <time>2022-04-03T06:43:58.000Z</time>
      </trkpt>
      <trkpt lat="49.65831" lon="4.76719">
        <ele>252</ele>
        <time>2022-04-03T06:43:59.000Z</time>
      </trkpt>
      <trkpt lat="49.65833" lon="4.76719">
        <ele>252</ele>
        <time>2022-04-03T06:44:00.000Z</time>
      </trkpt>
      <trkpt lat="49.65835" lon="4.7672">
        <ele>252</ele>
        <time>2022-04-03T06:44:01.000Z</time>
      </trkpt>
      <trkpt lat="49.65837" lon="4.76721">
        <ele>252</ele>
        <time>2022-04-03T06:44:02.000Z</time>
      </trkpt>
      <trkpt lat="49.65838" lon="4.76722">
        <ele>252</ele>
        <time>2022-04-03T06:44:03.000Z</time>
      </trkpt>
      <trkpt lat="49.65839" lon="4.76724">
        <ele>252</ele>
        <time>2022-04-03T06:44:04.000Z</time>
      </trkpt>
      <trkpt lat="49.65839" lon="4.76727">
        <ele>252</ele>
        <time>2022-04-03T06:44:05.000Z</time>
      </trkpt>
      <trkpt lat="49.65839" lon="4.7673">
        <ele>252</ele>
        <time>2022-04-03T06:44:06.000Z</time>
      </trkpt>
      <trkpt lat="49.65839" lon="4.76732">
        <ele>252</ele>
        <time>2022-04-03T06:44:07.000Z</time>
      </trkpt>
      <trkpt lat="49.6584" lon="4.76735">
        <ele>253</ele>
        <time>2022-04-03T06:44:08.000Z</time>
      </trkpt>
      <trkpt lat="49.65841" lon="4.76741">
        <ele>253</ele>
        <time>2022-04-03T06:44:09.000Z</time>
      </trkpt>
      <trkpt lat="49.65842" lon="4.76745">
        <ele>253</ele>
        <time>2022-04-03T06:44:10.000Z</time>
      </trkpt>
      <trkpt lat="49.65842" lon="4.76748">
        <ele>253</ele>
        <time>2022-04-03T06:44:11.000Z</time>
      </trkpt>
      <trkpt lat="49.65843" lon="4.76751">
        <ele>253</ele>
        <time>2022-04-03T06:44:12.000Z</time>
      </trkpt>
      <trkpt lat="49.65843" lon="4.76754">
        <ele>253</ele>
        <time>2022-04-03T06:44:13.000Z</time>
      </trkpt>
      <trkpt lat="49.65844" lon="4.76758">
        <ele>254</ele>
        <time>2022-04-03T06:44:14.000Z</time>
      </trkpt>
      <trkpt lat="49.65845" lon="4.76761">
        <ele>254</ele>
        <time>2022-04-03T06:44:15.000Z</time>
      </trkpt>
      <trkpt lat="49.65845" lon="4.76761">
        <ele>254</ele>
        <time>2022-04-03T06:44:16.000Z</time>
      </trkpt>
      <trkpt lat="49.65847" lon="4.76768">
        <ele>254</ele>
        <time>2022-04-03T06:44:17.000Z</time>
      </trkpt>
      <trkpt lat="49.65848" lon="4.76771">
        <ele>255</ele>
        <time>2022-04-03T06:44:18.000Z</time>
      </trkpt>
      <trkpt lat="49.65849" lon="4.76775">
        <ele>255</ele>
        <time>2022-04-03T06:44:19.000Z</time>
      </trkpt>
      <trkpt lat="49.65849" lon="4.76775">
        <ele>255</ele>
        <time>2022-04-03T06:44:20.000Z</time>
      </trkpt>
      <trkpt lat="49.65849" lon="4.76782">
        <ele>255</ele>
        <time>2022-04-03T06:44:21.000Z</time>
      </trkpt>
      <trkpt lat="49.6585" lon="4.76785">
        <ele>256</ele>
        <time>2022-04-03T06:44:22.000Z</time>
      </trkpt>
      <trkpt lat="49.6585" lon="4.76789">
        <ele>256</ele>
        <time>2022-04-03T06:44:23.000Z</time>
      </trkpt>
      <trkpt lat="49.6585" lon="4.76789">
        <ele>256</ele>
        <time>2022-04-03T06:44:24.000Z</time>
      </trkpt>
      <trkpt lat="49.65851" lon="4.76795">
        <ele>256</ele>
        <time>2022-04-03T06:44:25.000Z</time>
      </trkpt>
      <trkpt lat="49.65852" lon="4.76798">
        <ele>256</ele>
        <time>2022-04-03T06:44:26.000Z</time>
      </trkpt>
      <trkpt lat="49.65853" lon="4.76801">
        <ele>257</ele>
        <time>2022-04-03T06:44:27.000Z</time>
      </trkpt>
      <trkpt lat="49.65853" lon="4.76804">
        <ele>257</ele>
        <time>2022-04-03T06:44:28.000Z</time>
      </trkpt>
      <trkpt lat="49.65854" lon="4.76807">
        <ele>257</ele>
        <time>2022-04-03T06:44:29.000Z</time>
      </trkpt>
      <trkpt lat="49.65855" lon="4.7681">
        <ele>257</ele>
        <time>2022-04-03T06:44:30.000Z</time>
      </trkpt>
      <trkpt lat="49.65856" lon="4.76813">
        <ele>258</ele>
        <time>2022-04-03T06:44:31.000Z</time>
      </trkpt>
      <trkpt lat="49.65857" lon="4.76815">
        <ele>258</ele>
        <time>2022-04-03T06:44:32.000Z</time>
      </trkpt>
      <trkpt lat="49.65858" lon="4.76818">
        <ele>258</ele>
        <time>2022-04-03T06:44:33.000Z</time>
      </trkpt>
      <trkpt lat="49.65858" lon="4.76821">
        <ele>258</ele>
        <time>2022-04-03T06:44:34.000Z</time>
      </trkpt>
      <trkpt lat="49.65859" lon="4.76824">
        <ele>259</ele>
        <time>2022-04-03T06:44:35.000Z</time>
      </trkpt>
      <trkpt lat="49.65859" lon="4.76824">
        <ele>259</ele>
        <time>2022-04-03T06:44:36.000Z</time>
      </trkpt>
      <trkpt lat="49.6586" lon="4.7683">
        <ele>259</ele>
        <time>2022-04-03T06:44:37.000Z</time>
      </trkpt>
      <trkpt lat="49.6586" lon="4.7683">
        <ele>259</ele>
        <time>2022-04-03T06:44:38.000Z</time>
      </trkpt>
      <trkpt lat="49.65861" lon="4.76836">
        <ele>260</ele>
        <time>2022-04-03T06:44:39.000Z</time>
      </trkpt>
      <trkpt lat="49.65861" lon="4.76836">
        <ele>260</ele>
        <time>2022-04-03T06:44:40.000Z</time>
      </trkpt>
      <trkpt lat="49.65862" lon="4.76838">
        <ele>260</ele>
        <time>2022-04-03T06:44:41.000Z</time>
      </trkpt>
      <trkpt lat="49.65863" lon="4.76841">
        <ele>261</ele>
        <time>2022-04-03T06:44:42.000Z</time>
      </trkpt>
      <trkpt lat="49.65863" lon="4.76843">
        <ele>261</ele>
        <time>2022-04-03T06:44:43.000Z</time>
      </trkpt>
      <trkpt lat="49.65863" lon="4.76846">
        <ele>261</ele>
        <time>2022-04-03T06:44:44.000Z</time>
      </trkpt>
      <trkpt lat="49.65865" lon="4.76852">
        <ele>262</ele>
        <time>2022-04-03T06:44:45.000Z</time>
      </trkpt>
      <trkpt lat="49.65865" lon="4.76854">
        <ele>262</ele>
        <time>2022-04-03T06:44:46.000Z</time>
      </trkpt>
      <trkpt lat="49.65865" lon="4.76857">
        <ele>262</ele>
        <time>2022-04-03T06:44:47.000Z</time>
      </trkpt>
      <trkpt lat="49.65866" lon="4.7686">
        <ele>262</ele>
        <time>2022-04-03T06:44:48.000Z</time>
      </trkpt>
      <trkpt lat="49.65867" lon="4.76862">
        <ele>262</ele>
        <time>2022-04-03T06:44:49.000Z</time>
      </trkpt>
      <trkpt lat="49.65868" lon="4.76865">
        <ele>263</ele>
        <time>2022-04-03T06:44:50.000Z</time>
      </trkpt>
      <trkpt lat="49.65868" lon="4.76867">
        <ele>263</ele>
        <time>2022-04-03T06:44:51.000Z</time>
      </trkpt>
      <trkpt lat="49.65868" lon="4.7687">
        <ele>263</ele>
        <time>2022-04-03T06:44:52.000Z</time>
      </trkpt>
      <trkpt lat="49.65869" lon="4.76872">
        <ele>263</ele>
        <time>2022-04-03T06:44:53.000Z</time>
      </trkpt>
      <trkpt lat="49.6587" lon="4.76875">
        <ele>263</ele>
        <time>2022-04-03T06:44:54.000Z</time>
      </trkpt>
      <trkpt lat="49.6587" lon="4.76878">
        <ele>263</ele>
        <time>2022-04-03T06:44:55.000Z</time>
      </trkpt>
      <trkpt lat="49.65871" lon="4.76881">
        <ele>264</ele>
        <time>2022-04-03T06:44:56.000Z</time>
      </trkpt>
      <trkpt lat="49.65871" lon="4.76881">
        <ele>264</ele>
        <time>2022-04-03T06:44:57.000Z</time>
      </trkpt>
      <trkpt lat="49.65871" lon="4.76885">
        <ele>264</ele>
        <time>2022-04-03T06:44:58.000Z</time>
      </trkpt>
      <trkpt lat="49.65871" lon="4.76891">
        <ele>264</ele>
        <time>2022-04-03T06:44:59.000Z</time>
      </trkpt>
      <trkpt lat="49.65871" lon="4.76894">
        <ele>264</ele>
        <time>2022-04-03T06:45:00.000Z</time>
      </trkpt>
      <trkpt lat="49.65871" lon="4.76898">
        <ele>265</ele>
        <time>2022-04-03T06:45:01.000Z</time>
      </trkpt>
      <trkpt lat="49.65872" lon="4.76901">
        <ele>265</ele>
        <time>2022-04-03T06:45:02.000Z</time>
      </trkpt>
      <trkpt lat="49.65872" lon="4.76901">
        <ele>265</ele>
        <time>2022-04-03T06:45:03.000Z</time>
      </trkpt>
      <trkpt lat="49.65873" lon="4.76906">
        <ele>266</ele>
        <time>2022-04-03T06:45:04.000Z</time>
      </trkpt>
      <trkpt lat="49.65874" lon="4.76909">
        <ele>266</ele>
        <time>2022-04-03T06:45:05.000Z</time>
      </trkpt>
      <trkpt lat="49.65875" lon="4.76912">
        <ele>267</ele>
        <time>2022-04-03T06:45:06.000Z</time>
      </trkpt>
      <trkpt lat="49.65876" lon="4.76915">
        <ele>267</ele>
        <time>2022-04-03T06:45:07.000Z</time>
      </trkpt>
      <trkpt lat="49.65877" lon="4.76919">
        <ele>268</ele>
        <time>2022-04-03T06:45:08.000Z</time>
      </trkpt>
      <trkpt lat="49.65877" lon="4.76922">
        <ele>268</ele>
        <time>2022-04-03T06:45:09.000Z</time>
      </trkpt>
      <trkpt lat="49.65877" lon="4.76925">
        <ele>268</ele>
        <time>2022-04-03T06:45:10.000Z</time>
      </trkpt>
      <trkpt lat="49.65877" lon="4.76925">
        <ele>268</ele>
        <time>2022-04-03T06:45:11.000Z</time>
      </trkpt>
      <trkpt lat="49.65878" lon="4.76928">
        <ele>269</ele>
        <time>2022-04-03T06:45:12.000Z</time>
      </trkpt>
      <trkpt lat="49.65879" lon="4.76935">
        <ele>269</ele>
        <time>2022-04-03T06:45:13.000Z</time>
      </trkpt>
      <trkpt lat="49.6588" lon="4.76939">
        <ele>270</ele>
        <time>2022-04-03T06:45:14.000Z</time>
      </trkpt>
      <trkpt lat="49.6588" lon="4.76942">
        <ele>270</ele>
        <time>2022-04-03T06:45:15.000Z</time>
      </trkpt>
      <trkpt lat="49.65881" lon="4.76945">
        <ele>270</ele>
        <time>2022-04-03T06:45:16.000Z</time>
      </trkpt>
      <trkpt lat="49.65881" lon="4.76948">
        <ele>271</ele>
        <time>2022-04-03T06:45:17.000Z</time>
      </trkpt>
      <trkpt lat="49.65881" lon="4.76951">
        <ele>271</ele>
        <time>2022-04-03T06:45:18.000Z</time>
      </trkpt>
      <trkpt lat="49.65882" lon="4.76953">
        <ele>271</ele>
        <time>2022-04-03T06:45:19.000Z</time>
      </trkpt>
      <trkpt lat="49.65882" lon="4.76953">
        <ele>271</ele>
        <time>2022-04-03T06:45:20.000Z</time>
      </trkpt>
      <trkpt lat="49.65882" lon="4.76956">
        <ele>271</ele>
        <time>2022-04-03T06:45:21.000Z</time>
      </trkpt>
      <trkpt lat="49.65883" lon="4.76963">
        <ele>272</ele>
        <time>2022-04-03T06:45:22.000Z</time>
      </trkpt>
      <trkpt lat="49.65883" lon="4.76966">
        <ele>272</ele>
        <time>2022-04-03T06:45:23.000Z</time>
      </trkpt>
      <trkpt lat="49.65883" lon="4.76969">
        <ele>272</ele>
        <time>2022-04-03T06:45:24.000Z</time>
      </trkpt>
      <trkpt lat="49.65884" lon="4.76972">
        <ele>273</ele>
        <time>2022-04-03T06:45:25.000Z</time>
      </trkpt>
      <trkpt lat="49.65884" lon="4.76975">
        <ele>273</ele>
        <time>2022-04-03T06:45:26.000Z</time>
      </trkpt>
      <trkpt lat="49.65885" lon="4.76979">
        <ele>273</ele>
        <time>2022-04-03T06:45:27.000Z</time>
      </trkpt>
      <trkpt lat="49.65885" lon="4.76979">
        <ele>273</ele>
        <time>2022-04-03T06:45:28.000Z</time>
      </trkpt>
      <trkpt lat="49.65886" lon="4.76986">
        <ele>274</ele>
        <time>2022-04-03T06:45:29.000Z</time>
      </trkpt>
      <trkpt lat="49.65887" lon="4.76989">
        <ele>274</ele>
        <time>2022-04-03T06:45:30.000Z</time>
      </trkpt>
      <trkpt lat="49.65887" lon="4.76989">
        <ele>274</ele>
        <time>2022-04-03T06:45:31.000Z</time>
      </trkpt>
      <trkpt lat="49.65889" lon="4.76996">
        <ele>274</ele>
        <time>2022-04-03T06:45:32.000Z</time>
      </trkpt>
      <trkpt lat="49.6589" lon="4.76999">
        <ele>275</ele>
        <time>2022-04-03T06:45:33.000Z</time>
      </trkpt>
      <trkpt lat="49.6589" lon="4.76999">
        <ele>275</ele>
        <time>2022-04-03T06:45:34.000Z</time>
      </trkpt>
      <trkpt lat="49.65892" lon="4.77007">
        <ele>275</ele>
        <time>2022-04-03T06:45:35.000Z</time>
      </trkpt>
      <trkpt lat="49.65893" lon="4.7701">
        <ele>275</ele>
        <time>2022-04-03T06:45:36.000Z</time>
      </trkpt>
      <trkpt lat="49.65893" lon="4.77014">
        <ele>276</ele>
        <time>2022-04-03T06:45:37.000Z</time>
      </trkpt>
      <trkpt lat="49.65894" lon="4.77017">
        <ele>276</ele>
        <time>2022-04-03T06:45:38.000Z</time>
      </trkpt>
      <trkpt lat="49.65894" lon="4.77017">
        <ele>276</ele>
        <time>2022-04-03T06:45:39.000Z</time>
      </trkpt>
      <trkpt lat="49.65896" lon="4.77026">
        <ele>276</ele>
        <time>2022-04-03T06:45:40.000Z</time>
      </trkpt>
      <trkpt lat="49.65896" lon="4.77031">
        <ele>276</ele>
        <time>2022-04-03T06:45:41.000Z</time>
      </trkpt>
      <trkpt lat="49.65898" lon="4.77035">
        <ele>276</ele>
        <time>2022-04-03T06:45:42.000Z</time>
      </trkpt>
      <trkpt lat="49.65898" lon="4.7704">
        <ele>276</ele>
        <time>2022-04-03T06:45:43.000Z</time>
      </trkpt>
      <trkpt lat="49.65899" lon="4.77044">
        <ele>277</ele>
        <time>2022-04-03T06:45:44.000Z</time>
      </trkpt>
      <trkpt lat="49.659" lon="4.77049">
        <ele>277</ele>
        <time>2022-04-03T06:45:45.000Z</time>
      </trkpt>
      <trkpt lat="49.659" lon="4.77053">
        <ele>277</ele>
        <time>2022-04-03T06:45:46.000Z</time>
      </trkpt>
      <trkpt lat="49.65901" lon="4.77059">
        <ele>277</ele>
        <time>2022-04-03T06:45:47.000Z</time>
      </trkpt>
      <trkpt lat="49.65901" lon="4.77059">
        <ele>277</ele>
        <time>2022-04-03T06:45:48.000Z</time>
      </trkpt>
      <trkpt lat="49.65903" lon="4.77069">
        <ele>278</ele>
        <time>2022-04-03T06:45:49.000Z</time>
      </trkpt>
      <trkpt lat="49.65903" lon="4.77069">
        <ele>278</ele>
        <time>2022-04-03T06:45:50.000Z</time>
      </trkpt>
      <trkpt lat="49.65906" lon="4.77078">
        <ele>278</ele>
        <time>2022-04-03T06:45:51.000Z</time>
      </trkpt>
      <trkpt lat="49.65907" lon="4.77084">
        <ele>278</ele>
        <time>2022-04-03T06:45:52.000Z</time>
      </trkpt>
      <trkpt lat="49.65908" lon="4.77089">
        <ele>279</ele>
        <time>2022-04-03T06:45:53.000Z</time>
      </trkpt>
      <trkpt lat="49.65909" lon="4.77094">
        <ele>279</ele>
        <time>2022-04-03T06:45:54.000Z</time>
      </trkpt>
      <trkpt lat="49.65909" lon="4.77094">
        <ele>279</ele>
        <time>2022-04-03T06:45:55.000Z</time>
      </trkpt>
      <trkpt lat="49.6591" lon="4.77099">
        <ele>279</ele>
        <time>2022-04-03T06:45:56.000Z</time>
      </trkpt>
      <trkpt lat="49.65912" lon="4.77108">
        <ele>279</ele>
        <time>2022-04-03T06:45:57.000Z</time>
      </trkpt>
      <trkpt lat="49.65913" lon="4.77113">
        <ele>279</ele>
        <time>2022-04-03T06:45:58.000Z</time>
      </trkpt>
      <trkpt lat="49.65914" lon="4.77118">
        <ele>279</ele>
        <time>2022-04-03T06:45:59.000Z</time>
      </trkpt>
      <trkpt lat="49.65916" lon="4.77124">
        <ele>279</ele>
        <time>2022-04-03T06:46:00.000Z</time>
      </trkpt>
      <trkpt lat="49.65917" lon="4.7713">
        <ele>279</ele>
        <time>2022-04-03T06:46:01.000Z</time>
      </trkpt>
      <trkpt lat="49.65917" lon="4.7713">
        <ele>279</ele>
        <time>2022-04-03T06:46:02.000Z</time>
      </trkpt>
      <trkpt lat="49.65918" lon="4.77142">
        <ele>280</ele>
        <time>2022-04-03T06:46:03.000Z</time>
      </trkpt>
      <trkpt lat="49.65918" lon="4.77142">
        <ele>280</ele>
        <time>2022-04-03T06:46:04.000Z</time>
      </trkpt>
      <trkpt lat="49.65919" lon="4.77147">
        <ele>280</ele>
        <time>2022-04-03T06:46:05.000Z</time>
      </trkpt>
      <trkpt lat="49.6592" lon="4.77153">
        <ele>280</ele>
        <time>2022-04-03T06:46:06.000Z</time>
      </trkpt>
      <trkpt lat="49.65922" lon="4.77159">
        <ele>280</ele>
        <time>2022-04-03T06:46:07.000Z</time>
      </trkpt>
      <trkpt lat="49.65923" lon="4.77165">
        <ele>281</ele>
        <time>2022-04-03T06:46:08.000Z</time>
      </trkpt>
      <trkpt lat="49.65925" lon="4.77172">
        <ele>281</ele>
        <time>2022-04-03T06:46:09.000Z</time>
      </trkpt>
      <trkpt lat="49.65926" lon="4.77179">
        <ele>281</ele>
        <time>2022-04-03T06:46:10.000Z</time>
      </trkpt>
      <trkpt lat="49.65927" lon="4.77185">
        <ele>282</ele>
        <time>2022-04-03T06:46:11.000Z</time>
      </trkpt>
      <trkpt lat="49.65928" lon="4.77192">
        <ele>282</ele>
        <time>2022-04-03T06:46:12.000Z</time>
      </trkpt>
      <trkpt lat="49.65931" lon="4.77207">
        <ele>282</ele>
        <time>2022-04-03T06:46:13.000Z</time>
      </trkpt>
      <trkpt lat="49.65932" lon="4.77214">
        <ele>283</ele>
        <time>2022-04-03T06:46:14.000Z</time>
      </trkpt>
      <trkpt lat="49.65934" lon="4.77221">
        <ele>283</ele>
        <time>2022-04-03T06:46:15.000Z</time>
      </trkpt>
      <trkpt lat="49.65936" lon="4.77228">
        <ele>283</ele>
        <time>2022-04-03T06:46:16.000Z</time>
      </trkpt>
      <trkpt lat="49.65938" lon="4.77236">
        <ele>284</ele>
        <time>2022-04-03T06:46:17.000Z</time>
      </trkpt>
      <trkpt lat="49.6594" lon="4.77244">
        <ele>284</ele>
        <time>2022-04-03T06:46:18.000Z</time>
      </trkpt>
      <trkpt lat="49.65942" lon="4.77252">
        <ele>284</ele>
        <time>2022-04-03T06:46:19.000Z</time>
      </trkpt>
      <trkpt lat="49.65942" lon="4.77252">
        <ele>284</ele>
        <time>2022-04-03T06:46:20.000Z</time>
      </trkpt>
      <trkpt lat="49.65944" lon="4.77261">
        <ele>284</ele>
        <time>2022-04-03T06:46:21.000Z</time>
      </trkpt>
      <trkpt lat="49.65946" lon="4.7727">
        <ele>284</ele>
        <time>2022-04-03T06:46:22.000Z</time>
      </trkpt>
      <trkpt lat="49.65947" lon="4.7728">
        <ele>284</ele>
        <time>2022-04-03T06:46:23.000Z</time>
      </trkpt>
      <trkpt lat="49.65949" lon="4.77291">
        <ele>284</ele>
        <time>2022-04-03T06:46:24.000Z</time>
      </trkpt>
      <trkpt lat="49.65951" lon="4.77302">
        <ele>285</ele>
        <time>2022-04-03T06:46:25.000Z</time>
      </trkpt>
      <trkpt lat="49.65954" lon="4.77313">
        <ele>285</ele>
        <time>2022-04-03T06:46:26.000Z</time>
      </trkpt>
      <trkpt lat="49.65956" lon="4.77325">
        <ele>285</ele>
        <time>2022-04-03T06:46:27.000Z</time>
      </trkpt>
      <trkpt lat="49.6596" lon="4.77348">
        <ele>284</ele>
        <time>2022-04-03T06:46:28.000Z</time>
      </trkpt>
      <trkpt lat="49.65962" lon="4.77359">
        <ele>284</ele>
        <time>2022-04-03T06:46:29.000Z</time>
      </trkpt>
      <trkpt lat="49.65964" lon="4.7737">
        <ele>284</ele>
        <time>2022-04-03T06:46:30.000Z</time>
      </trkpt>
      <trkpt lat="49.65966" lon="4.7738">
        <ele>284</ele>
        <time>2022-04-03T06:46:31.000Z</time>
      </trkpt>
      <trkpt lat="49.65967" lon="4.77389">
        <ele>284</ele>
        <time>2022-04-03T06:46:32.000Z</time>
      </trkpt>
      <trkpt lat="49.65968" lon="4.77398">
        <ele>284</ele>
        <time>2022-04-03T06:46:33.000Z</time>
      </trkpt>
      <trkpt lat="49.65968" lon="4.77398">
        <ele>284</ele>
        <time>2022-04-03T06:46:34.000Z</time>
      </trkpt>
      <trkpt lat="49.65969" lon="4.77406">
        <ele>283</ele>
        <time>2022-04-03T06:46:35.000Z</time>
      </trkpt>
      <trkpt lat="49.6597" lon="4.77414">
        <ele>283</ele>
        <time>2022-04-03T06:46:36.000Z</time>
      </trkpt>
      <trkpt lat="49.65971" lon="4.77423">
        <ele>283</ele>
        <time>2022-04-03T06:46:37.000Z</time>
      </trkpt>
      <trkpt lat="49.65972" lon="4.7743">
        <ele>283</ele>
        <time>2022-04-03T06:46:38.000Z</time>
      </trkpt>
      <trkpt lat="49.65973" lon="4.77438">
        <ele>283</ele>
        <time>2022-04-03T06:46:39.000Z</time>
      </trkpt>
      <trkpt lat="49.65975" lon="4.77452">
        <ele>283</ele>
        <time>2022-04-03T06:46:40.000Z</time>
      </trkpt>
      <trkpt lat="49.65975" lon="4.77457">
        <ele>282</ele>
        <time>2022-04-03T06:46:41.000Z</time>
      </trkpt>
      <trkpt lat="49.65976" lon="4.77462">
        <ele>282</ele>
        <time>2022-04-03T06:46:42.000Z</time>
      </trkpt>
      <trkpt lat="49.65977" lon="4.77466">
        <ele>282</ele>
        <time>2022-04-03T06:46:43.000Z</time>
      </trkpt>
      <trkpt lat="49.65977" lon="4.7747">
        <ele>282</ele>
        <time>2022-04-03T06:46:44.000Z</time>
      </trkpt>
      <trkpt lat="49.65978" lon="4.77475">
        <ele>282</ele>
        <time>2022-04-03T06:46:45.000Z</time>
      </trkpt>
      <trkpt lat="49.65978" lon="4.7748">
        <ele>282</ele>
        <time>2022-04-03T06:46:46.000Z</time>
      </trkpt>
      <trkpt lat="49.65979" lon="4.77485">
        <ele>282</ele>
        <time>2022-04-03T06:46:47.000Z</time>
      </trkpt>
      <trkpt lat="49.65979" lon="4.77485">
        <ele>282</ele>
        <time>2022-04-03T06:46:48.000Z</time>
      </trkpt>
      <trkpt lat="49.6598" lon="4.7749">
        <ele>282</ele>
        <time>2022-04-03T06:46:49.000Z</time>
      </trkpt>
      <trkpt lat="49.65982" lon="4.77498">
        <ele>283</ele>
        <time>2022-04-03T06:46:50.000Z</time>
      </trkpt>
      <trkpt lat="49.65982" lon="4.77502">
        <ele>283</ele>
        <time>2022-04-03T06:46:51.000Z</time>
      </trkpt>
      <trkpt lat="49.65983" lon="4.77506">
        <ele>283</ele>
        <time>2022-04-03T06:46:52.000Z</time>
      </trkpt>
      <trkpt lat="49.65983" lon="4.77506">
        <ele>283</ele>
        <time>2022-04-03T06:46:53.000Z</time>
      </trkpt>
      <trkpt lat="49.65983" lon="4.7751">
        <ele>283</ele>
        <time>2022-04-03T06:46:54.000Z</time>
      </trkpt>
      <trkpt lat="49.65986" lon="4.77517">
        <ele>283</ele>
        <time>2022-04-03T06:46:55.000Z</time>
      </trkpt>
      <trkpt lat="49.65987" lon="4.77521">
        <ele>283</ele>
        <time>2022-04-03T06:46:56.000Z</time>
      </trkpt>
      <trkpt lat="49.65988" lon="4.77524">
        <ele>283</ele>
        <time>2022-04-03T06:46:57.000Z</time>
      </trkpt>
      <trkpt lat="49.65988" lon="4.77527">
        <ele>283</ele>
        <time>2022-04-03T06:46:58.000Z</time>
      </trkpt>
      <trkpt lat="49.65988" lon="4.77527">
        <ele>283</ele>
        <time>2022-04-03T06:46:59.000Z</time>
      </trkpt>
      <trkpt lat="49.6599" lon="4.77534">
        <ele>283</ele>
        <time>2022-04-03T06:47:00.000Z</time>
      </trkpt>
      <trkpt lat="49.6599" lon="4.77534">
        <ele>283</ele>
        <time>2022-04-03T06:47:01.000Z</time>
      </trkpt>
      <trkpt lat="49.6599" lon="4.77538">
        <ele>283</ele>
        <time>2022-04-03T06:47:02.000Z</time>
      </trkpt>
      <trkpt lat="49.65991" lon="4.77541">
        <ele>283</ele>
        <time>2022-04-03T06:47:03.000Z</time>
      </trkpt>
      <trkpt lat="49.65992" lon="4.77545">
        <ele>284</ele>
        <time>2022-04-03T06:47:04.000Z</time>
      </trkpt>
      <trkpt lat="49.65993" lon="4.77549">
        <ele>284</ele>
        <time>2022-04-03T06:47:05.000Z</time>
      </trkpt>
      <trkpt lat="49.65993" lon="4.77552">
        <ele>284</ele>
        <time>2022-04-03T06:47:06.000Z</time>
      </trkpt>
      <trkpt lat="49.65993" lon="4.77556">
        <ele>284</ele>
        <time>2022-04-03T06:47:07.000Z</time>
      </trkpt>
      <trkpt lat="49.65993" lon="4.77562">
        <ele>284</ele>
        <time>2022-04-03T06:47:08.000Z</time>
      </trkpt>
      <trkpt lat="49.65993" lon="4.77565">
        <ele>284</ele>
        <time>2022-04-03T06:47:09.000Z</time>
      </trkpt>
      <trkpt lat="49.65993" lon="4.77565">
        <ele>284</ele>
        <time>2022-04-03T06:47:10.000Z</time>
      </trkpt>
      <trkpt lat="49.65994" lon="4.77572">
        <ele>285</ele>
        <time>2022-04-03T06:47:11.000Z</time>
      </trkpt>
      <trkpt lat="49.65994" lon="4.77572">
        <ele>285</ele>
        <time>2022-04-03T06:47:12.000Z</time>
      </trkpt>
      <trkpt lat="49.65995" lon="4.77579">
        <ele>285</ele>
        <time>2022-04-03T06:47:13.000Z</time>
      </trkpt>
      <trkpt lat="49.65996" lon="4.77582">
        <ele>285</ele>
        <time>2022-04-03T06:47:14.000Z</time>
      </trkpt>
      <trkpt lat="49.65996" lon="4.77585">
        <ele>285</ele>
        <time>2022-04-03T06:47:15.000Z</time>
      </trkpt>
      <trkpt lat="49.65996" lon="4.77588">
        <ele>285</ele>
        <time>2022-04-03T06:47:16.000Z</time>
      </trkpt>
      <trkpt lat="49.65996" lon="4.77588">
        <ele>285</ele>
        <time>2022-04-03T06:47:17.000Z</time>
      </trkpt>
      <trkpt lat="49.65997" lon="4.77591">
        <ele>286</ele>
        <time>2022-04-03T06:47:18.000Z</time>
      </trkpt>
      <trkpt lat="49.65997" lon="4.77595">
        <ele>286</ele>
        <time>2022-04-03T06:47:19.000Z</time>
      </trkpt>
      <trkpt lat="49.65998" lon="4.77598">
        <ele>286</ele>
        <time>2022-04-03T06:47:20.000Z</time>
      </trkpt>
      <trkpt lat="49.65999" lon="4.77605">
        <ele>286</ele>
        <time>2022-04-03T06:47:21.000Z</time>
      </trkpt>
      <trkpt lat="49.65999" lon="4.77608">
        <ele>286</ele>
        <time>2022-04-03T06:47:22.000Z</time>
      </trkpt>
      <trkpt lat="49.66" lon="4.77612">
        <ele>286</ele>
        <time>2022-04-03T06:47:23.000Z</time>
      </trkpt>
      <trkpt lat="49.66001" lon="4.77615">
        <ele>286</ele>
        <time>2022-04-03T06:47:24.000Z</time>
      </trkpt>
      <trkpt lat="49.66002" lon="4.77618">
        <ele>286</ele>
        <time>2022-04-03T06:47:25.000Z</time>
      </trkpt>
      <trkpt lat="49.66002" lon="4.77622">
        <ele>286</ele>
        <time>2022-04-03T06:47:26.000Z</time>
      </trkpt>
      <trkpt lat="49.66003" lon="4.77626">
        <ele>286</ele>
        <time>2022-04-03T06:47:27.000Z</time>
      </trkpt>
      <trkpt lat="49.66003" lon="4.77629">
        <ele>287</ele>
        <time>2022-04-03T06:47:28.000Z</time>
      </trkpt>
      <trkpt lat="49.66003" lon="4.77629">
        <ele>287</ele>
        <time>2022-04-03T06:47:29.000Z</time>
      </trkpt>
      <trkpt lat="49.66004" lon="4.77632">
        <ele>287</ele>
        <time>2022-04-03T06:47:30.000Z</time>
      </trkpt>
      <trkpt lat="49.66004" lon="4.77635">
        <ele>287</ele>
        <time>2022-04-03T06:47:31.000Z</time>
      </trkpt>
      <trkpt lat="49.66004" lon="4.77639">
        <ele>287</ele>
        <time>2022-04-03T06:47:32.000Z</time>
      </trkpt>
      <trkpt lat="49.66005" lon="4.77642">
        <ele>287</ele>
        <time>2022-04-03T06:47:33.000Z</time>
      </trkpt>
      <trkpt lat="49.66005" lon="4.77645">
        <ele>287</ele>
        <time>2022-04-03T06:47:34.000Z</time>
      </trkpt>
      <trkpt lat="49.66006" lon="4.77648">
        <ele>287</ele>
        <time>2022-04-03T06:47:35.000Z</time>
      </trkpt>
      <trkpt lat="49.66006" lon="4.77654">
        <ele>287</ele>
        <time>2022-04-03T06:47:36.000Z</time>
      </trkpt>
      <trkpt lat="49.66006" lon="4.77656">
        <ele>287</ele>
        <time>2022-04-03T06:47:37.000Z</time>
      </trkpt>
      <trkpt lat="49.66007" lon="4.77659">
        <ele>287</ele>
        <time>2022-04-03T06:47:38.000Z</time>
      </trkpt>
      <trkpt lat="49.66007" lon="4.77662">
        <ele>287</ele>
        <time>2022-04-03T06:47:39.000Z</time>
      </trkpt>
      <trkpt lat="49.66008" lon="4.77666">
        <ele>288</ele>
        <time>2022-04-03T06:47:40.000Z</time>
      </trkpt>
      <trkpt lat="49.66009" lon="4.7767">
        <ele>288</ele>
        <time>2022-04-03T06:47:41.000Z</time>
      </trkpt>
      <trkpt lat="49.66009" lon="4.7767">
        <ele>288</ele>
        <time>2022-04-03T06:47:42.000Z</time>
      </trkpt>
      <trkpt lat="49.6601" lon="4.77673">
        <ele>288</ele>
        <time>2022-04-03T06:47:43.000Z</time>
      </trkpt>
      <trkpt lat="49.66011" lon="4.77676">
        <ele>288</ele>
        <time>2022-04-03T06:47:44.000Z</time>
      </trkpt>
      <trkpt lat="49.66012" lon="4.77683">
        <ele>288</ele>
        <time>2022-04-03T06:47:45.000Z</time>
      </trkpt>
      <trkpt lat="49.66012" lon="4.77683">
        <ele>288</ele>
        <time>2022-04-03T06:47:46.000Z</time>
      </trkpt>
      <trkpt lat="49.66012" lon="4.77688">
        <ele>289</ele>
        <time>2022-04-03T06:47:47.000Z</time>
      </trkpt>
      <trkpt lat="49.66013" lon="4.77691">
        <ele>289</ele>
        <time>2022-04-03T06:47:48.000Z</time>
      </trkpt>
      <trkpt lat="49.66013" lon="4.77694">
        <ele>289</ele>
        <time>2022-04-03T06:47:49.000Z</time>
      </trkpt>
      <trkpt lat="49.66014" lon="4.77698">
        <ele>289</ele>
        <time>2022-04-03T06:47:50.000Z</time>
      </trkpt>
      <trkpt lat="49.66015" lon="4.77701">
        <ele>289</ele>
        <time>2022-04-03T06:47:51.000Z</time>
      </trkpt>
      <trkpt lat="49.66016" lon="4.77705">
        <ele>289</ele>
        <time>2022-04-03T06:47:52.000Z</time>
      </trkpt>
      <trkpt lat="49.66017" lon="4.77709">
        <ele>289</ele>
        <time>2022-04-03T06:47:53.000Z</time>
      </trkpt>
      <trkpt lat="49.66018" lon="4.77712">
        <ele>289</ele>
        <time>2022-04-03T06:47:54.000Z</time>
      </trkpt>
      <trkpt lat="49.66018" lon="4.77716">
        <ele>290</ele>
        <time>2022-04-03T06:47:55.000Z</time>
      </trkpt>
      <trkpt lat="49.66019" lon="4.77719">
        <ele>290</ele>
        <time>2022-04-03T06:47:56.000Z</time>
      </trkpt>
      <trkpt lat="49.66019" lon="4.77723">
        <ele>290</ele>
        <time>2022-04-03T06:47:57.000Z</time>
      </trkpt>
      <trkpt lat="49.66019" lon="4.77723">
        <ele>290</ele>
        <time>2022-04-03T06:47:58.000Z</time>
      </trkpt>
      <trkpt lat="49.6602" lon="4.77727">
        <ele>290</ele>
        <time>2022-04-03T06:47:59.000Z</time>
      </trkpt>
      <trkpt lat="49.66021" lon="4.77731">
        <ele>290</ele>
        <time>2022-04-03T06:48:00.000Z</time>
      </trkpt>
      <trkpt lat="49.66022" lon="4.77734">
        <ele>291</ele>
        <time>2022-04-03T06:48:01.000Z</time>
      </trkpt>
      <trkpt lat="49.66023" lon="4.77738">
        <ele>291</ele>
        <time>2022-04-03T06:48:02.000Z</time>
      </trkpt>
      <trkpt lat="49.66024" lon="4.77741">
        <ele>291</ele>
        <time>2022-04-03T06:48:03.000Z</time>
      </trkpt>
      <trkpt lat="49.66025" lon="4.77748">
        <ele>291</ele>
        <time>2022-04-03T06:48:04.000Z</time>
      </trkpt>
      <trkpt lat="49.66024" lon="4.77751">
        <ele>292</ele>
        <time>2022-04-03T06:48:05.000Z</time>
      </trkpt>
      <trkpt lat="49.66025" lon="4.77754">
        <ele>292</ele>
        <time>2022-04-03T06:48:06.000Z</time>
      </trkpt>
      <trkpt lat="49.66025" lon="4.77757">
        <ele>292</ele>
        <time>2022-04-03T06:48:07.000Z</time>
      </trkpt>
      <trkpt lat="49.66026" lon="4.7776">
        <ele>292</ele>
        <time>2022-04-03T06:48:08.000Z</time>
      </trkpt>
      <trkpt lat="49.66026" lon="4.77763">
        <ele>293</ele>
        <time>2022-04-03T06:48:09.000Z</time>
      </trkpt>
      <trkpt lat="49.66026" lon="4.77763">
        <ele>293</ele>
        <time>2022-04-03T06:48:10.000Z</time>
      </trkpt>
      <trkpt lat="49.66028" lon="4.7777">
        <ele>293</ele>
        <time>2022-04-03T06:48:11.000Z</time>
      </trkpt>
      <trkpt lat="49.66028" lon="4.7777">
        <ele>293</ele>
        <time>2022-04-03T06:48:12.000Z</time>
      </trkpt>
      <trkpt lat="49.66028" lon="4.77774">
        <ele>293</ele>
        <time>2022-04-03T06:48:13.000Z</time>
      </trkpt>
      <trkpt lat="49.66028" lon="4.77777">
        <ele>294</ele>
        <time>2022-04-03T06:48:14.000Z</time>
      </trkpt>
      <trkpt lat="49.66029" lon="4.77783">
        <ele>294</ele>
        <time>2022-04-03T06:48:15.000Z</time>
      </trkpt>
      <trkpt lat="49.6603" lon="4.77786">
        <ele>294</ele>
        <time>2022-04-03T06:48:16.000Z</time>
      </trkpt>
      <trkpt lat="49.6603" lon="4.77789">
        <ele>294</ele>
        <time>2022-04-03T06:48:17.000Z</time>
      </trkpt>
      <trkpt lat="49.66031" lon="4.77792">
        <ele>294</ele>
        <time>2022-04-03T06:48:18.000Z</time>
      </trkpt>
      <trkpt lat="49.66032" lon="4.77796">
        <ele>294</ele>
        <time>2022-04-03T06:48:19.000Z</time>
      </trkpt>
      <trkpt lat="49.66032" lon="4.77799">
        <ele>294</ele>
        <time>2022-04-03T06:48:20.000Z</time>
      </trkpt>
      <trkpt lat="49.66032" lon="4.77803">
        <ele>295</ele>
        <time>2022-04-03T06:48:21.000Z</time>
      </trkpt>
      <trkpt lat="49.66032" lon="4.77806">
        <ele>295</ele>
        <time>2022-04-03T06:48:22.000Z</time>
      </trkpt>
      <trkpt lat="49.66033" lon="4.77809">
        <ele>295</ele>
        <time>2022-04-03T06:48:23.000Z</time>
      </trkpt>
      <trkpt lat="49.66033" lon="4.77809">
        <ele>295</ele>
        <time>2022-04-03T06:48:24.000Z</time>
      </trkpt>
      <trkpt lat="49.66035" lon="4.77813">
        <ele>295</ele>
        <time>2022-04-03T06:48:25.000Z</time>
      </trkpt>
      <trkpt lat="49.66036" lon="4.77817">
        <ele>295</ele>
        <time>2022-04-03T06:48:26.000Z</time>
      </trkpt>
      <trkpt lat="49.66037" lon="4.77822">
        <ele>295</ele>
        <time>2022-04-03T06:48:27.000Z</time>
      </trkpt>
      <trkpt lat="49.66039" lon="4.77826">
        <ele>296</ele>
        <time>2022-04-03T06:48:28.000Z</time>
      </trkpt>
      <trkpt lat="49.6604" lon="4.7783">
        <ele>296</ele>
        <time>2022-04-03T06:48:29.000Z</time>
      </trkpt>
      <trkpt lat="49.66041" lon="4.77834">
        <ele>296</ele>
        <time>2022-04-03T06:48:30.000Z</time>
      </trkpt>
      <trkpt lat="49.66044" lon="4.77842">
        <ele>297</ele>
        <time>2022-04-03T06:48:31.000Z</time>
      </trkpt>
      <trkpt lat="49.66045" lon="4.77846">
        <ele>297</ele>
        <time>2022-04-03T06:48:32.000Z</time>
      </trkpt>
      <trkpt lat="49.66046" lon="4.7785">
        <ele>297</ele>
        <time>2022-04-03T06:48:33.000Z</time>
      </trkpt>
      <trkpt lat="49.66047" lon="4.77854">
        <ele>297</ele>
        <time>2022-04-03T06:48:34.000Z</time>
      </trkpt>
      <trkpt lat="49.66048" lon="4.77858">
        <ele>297</ele>
        <time>2022-04-03T06:48:35.000Z</time>
      </trkpt>
      <trkpt lat="49.66047" lon="4.7786">
        <ele>298</ele>
        <time>2022-04-03T06:48:36.000Z</time>
      </trkpt>
      <trkpt lat="49.66046" lon="4.7786">
        <ele>298</ele>
        <time>2022-04-03T06:48:37.000Z</time>
      </trkpt>
      <trkpt lat="49.66046" lon="4.7786">
        <ele>298</ele>
        <time>2022-04-03T06:48:38.000Z</time>
      </trkpt>
      <trkpt lat="49.66044" lon="4.7786">
        <ele>298</ele>
        <time>2022-04-03T06:48:39.000Z</time>
      </trkpt>
      <trkpt lat="49.66042" lon="4.77859">
        <ele>298</ele>
        <time>2022-04-03T06:48:40.000Z</time>
      </trkpt>
      <trkpt lat="49.66039" lon="4.77858">
        <ele>298</ele>
        <time>2022-04-03T06:48:41.000Z</time>
      </trkpt>
      <trkpt lat="49.66037" lon="4.77857">
        <ele>298</ele>
        <time>2022-04-03T06:48:42.000Z</time>
      </trkpt>
      <trkpt lat="49.66034" lon="4.77857">
        <ele>298</ele>
        <time>2022-04-03T06:48:43.000Z</time>
      </trkpt>
      <trkpt lat="49.66029" lon="4.77854">
        <ele>298</ele>
        <time>2022-04-03T06:48:44.000Z</time>
      </trkpt>
      <trkpt lat="49.66026" lon="4.77852">
        <ele>298</ele>
        <time>2022-04-03T06:48:45.000Z</time>
      </trkpt>
      <trkpt lat="49.66023" lon="4.77851">
        <ele>298</ele>
        <time>2022-04-03T06:48:46.000Z</time>
      </trkpt>
      <trkpt lat="49.66019" lon="4.7785">
        <ele>298</ele>
        <time>2022-04-03T06:48:47.000Z</time>
      </trkpt>
      <trkpt lat="49.66016" lon="4.77848">
        <ele>298</ele>
        <time>2022-04-03T06:48:48.000Z</time>
      </trkpt>
      <trkpt lat="49.66013" lon="4.77847">
        <ele>299</ele>
        <time>2022-04-03T06:48:49.000Z</time>
      </trkpt>
      <trkpt lat="49.6601" lon="4.77846">
        <ele>299</ele>
        <time>2022-04-03T06:48:50.000Z</time>
      </trkpt>
      <trkpt lat="49.66007" lon="4.77844">
        <ele>299</ele>
        <time>2022-04-03T06:48:51.000Z</time>
      </trkpt>
      <trkpt lat="49.66004" lon="4.77844">
        <ele>299</ele>
        <time>2022-04-03T06:48:52.000Z</time>
      </trkpt>
      <trkpt lat="49.66001" lon="4.77842">
        <ele>299</ele>
        <time>2022-04-03T06:48:53.000Z</time>
      </trkpt>
      <trkpt lat="49.66001" lon="4.77842">
        <ele>299</ele>
        <time>2022-04-03T06:48:54.000Z</time>
      </trkpt>
      <trkpt lat="49.65998" lon="4.77841">
        <ele>299</ele>
        <time>2022-04-03T06:48:55.000Z</time>
      </trkpt>
      <trkpt lat="49.65996" lon="4.7784">
        <ele>299</ele>
        <time>2022-04-03T06:48:56.000Z</time>
      </trkpt>
      <trkpt lat="49.65994" lon="4.77839">
        <ele>299</ele>
        <time>2022-04-03T06:48:57.000Z</time>
      </trkpt>
      <trkpt lat="49.65993" lon="4.77838">
        <ele>299</ele>
        <time>2022-04-03T06:48:58.000Z</time>
      </trkpt>
      <trkpt lat="49.65992" lon="4.77838">
        <ele>299</ele>
        <time>2022-04-03T06:48:59.000Z</time>
      </trkpt>
      <trkpt lat="49.65991" lon="4.77837">
        <ele>299</ele>
        <time>2022-04-03T06:49:00.000Z</time>
      </trkpt>
      <trkpt lat="49.65991" lon="4.77836">
        <ele>299</ele>
        <time>2022-04-03T06:49:01.000Z</time>
      </trkpt>
      <trkpt lat="49.6599" lon="4.77836">
        <ele>298</ele>
        <time>2022-04-03T06:49:02.000Z</time>
      </trkpt>
      <trkpt lat="49.65988" lon="4.77836">
        <ele>299</ele>
        <time>2022-04-03T06:49:03.000Z</time>
      </trkpt>
      <trkpt lat="49.65986" lon="4.77835">
        <ele>299</ele>
        <time>2022-04-03T06:49:04.000Z</time>
      </trkpt>
      <trkpt lat="49.65984" lon="4.77834">
        <ele>299</ele>
        <time>2022-04-03T06:49:05.000Z</time>
      </trkpt>
      <trkpt lat="49.65981" lon="4.77833">
        <ele>299</ele>
        <time>2022-04-03T06:49:06.000Z</time>
      </trkpt>
      <trkpt lat="49.65979" lon="4.77832">
        <ele>299</ele>
        <time>2022-04-03T06:49:07.000Z</time>
      </trkpt>
      <trkpt lat="49.65976" lon="4.77831">
        <ele>298</ele>
        <time>2022-04-03T06:49:08.000Z</time>
      </trkpt>
      <trkpt lat="49.65971" lon="4.77828">
        <ele>298</ele>
        <time>2022-04-03T06:49:09.000Z</time>
      </trkpt>
      <trkpt lat="49.65971" lon="4.77828">
        <ele>298</ele>
        <time>2022-04-03T06:49:10.000Z</time>
      </trkpt>
      <trkpt lat="49.65966" lon="4.77825">
        <ele>298</ele>
        <time>2022-04-03T06:49:11.000Z</time>
      </trkpt>
      <trkpt lat="49.65962" lon="4.77822">
        <ele>298</ele>
        <time>2022-04-03T06:49:12.000Z</time>
      </trkpt>
      <trkpt lat="49.65956" lon="4.7782">
        <ele>298</ele>
        <time>2022-04-03T06:49:13.000Z</time>
      </trkpt>
      <trkpt lat="49.65951" lon="4.77818">
        <ele>298</ele>
        <time>2022-04-03T06:49:14.000Z</time>
      </trkpt>
      <trkpt lat="49.65943" lon="4.77818">
        <ele>298</ele>
        <time>2022-04-03T06:49:15.000Z</time>
      </trkpt>
      <trkpt lat="49.65938" lon="4.77817">
        <ele>297</ele>
        <time>2022-04-03T06:49:16.000Z</time>
      </trkpt>
      <trkpt lat="49.65933" lon="4.77816">
        <ele>297</ele>
        <time>2022-04-03T06:49:17.000Z</time>
      </trkpt>
      <trkpt lat="49.65927" lon="4.77816">
        <ele>297</ele>
        <time>2022-04-03T06:49:18.000Z</time>
      </trkpt>
      <trkpt lat="49.65922" lon="4.77815">
        <ele>297</ele>
        <time>2022-04-03T06:49:19.000Z</time>
      </trkpt>
      <trkpt lat="49.65917" lon="4.77817">
        <ele>297</ele>
        <time>2022-04-03T06:49:20.000Z</time>
      </trkpt>
      <trkpt lat="49.65912" lon="4.77819">
        <ele>297</ele>
        <time>2022-04-03T06:49:21.000Z</time>
      </trkpt>
      <trkpt lat="49.65907" lon="4.77822">
        <ele>297</ele>
        <time>2022-04-03T06:49:22.000Z</time>
      </trkpt>
      <trkpt lat="49.65902" lon="4.77824">
        <ele>297</ele>
        <time>2022-04-03T06:49:23.000Z</time>
      </trkpt>
      <trkpt lat="49.65896" lon="4.77827">
        <ele>297</ele>
        <time>2022-04-03T06:49:24.000Z</time>
      </trkpt>
      <trkpt lat="49.65891" lon="4.77832">
        <ele>297</ele>
        <time>2022-04-03T06:49:25.000Z</time>
      </trkpt>
      <trkpt lat="49.65886" lon="4.77837">
        <ele>297</ele>
        <time>2022-04-03T06:49:26.000Z</time>
      </trkpt>
      <trkpt lat="49.65882" lon="4.77841">
        <ele>297</ele>
        <time>2022-04-03T06:49:27.000Z</time>
      </trkpt>
      <trkpt lat="49.65877" lon="4.77845">
        <ele>297</ele>
        <time>2022-04-03T06:49:28.000Z</time>
      </trkpt>
      <trkpt lat="49.65873" lon="4.77849">
        <ele>297</ele>
        <time>2022-04-03T06:49:29.000Z</time>
      </trkpt>
      <trkpt lat="49.65868" lon="4.77853">
        <ele>297</ele>
        <time>2022-04-03T06:49:30.000Z</time>
      </trkpt>
      <trkpt lat="49.65864" lon="4.77859">
        <ele>297</ele>
        <time>2022-04-03T06:49:31.000Z</time>
      </trkpt>
      <trkpt lat="49.65859" lon="4.77864">
        <ele>297</ele>
        <time>2022-04-03T06:49:32.000Z</time>
      </trkpt>
      <trkpt lat="49.65854" lon="4.77869">
        <ele>297</ele>
        <time>2022-04-03T06:49:33.000Z</time>
      </trkpt>
      <trkpt lat="49.65847" lon="4.77873">
        <ele>296</ele>
        <time>2022-04-03T06:49:34.000Z</time>
      </trkpt>
      <trkpt lat="49.6584" lon="4.77877">
        <ele>296</ele>
        <time>2022-04-03T06:49:35.000Z</time>
      </trkpt>
      <trkpt lat="49.65833" lon="4.77881">
        <ele>296</ele>
        <time>2022-04-03T06:49:36.000Z</time>
      </trkpt>
      <trkpt lat="49.65826" lon="4.77885">
        <ele>296</ele>
        <time>2022-04-03T06:49:37.000Z</time>
      </trkpt>
      <trkpt lat="49.6582" lon="4.77891">
        <ele>295</ele>
        <time>2022-04-03T06:49:38.000Z</time>
      </trkpt>
      <trkpt lat="49.65813" lon="4.77896">
        <ele>295</ele>
        <time>2022-04-03T06:49:39.000Z</time>
      </trkpt>
      <trkpt lat="49.65807" lon="4.77901">
        <ele>295</ele>
        <time>2022-04-03T06:49:40.000Z</time>
      </trkpt>
      <trkpt lat="49.658" lon="4.77905">
        <ele>294</ele>
        <time>2022-04-03T06:49:41.000Z</time>
      </trkpt>
      <trkpt lat="49.65793" lon="4.77907">
        <ele>294</ele>
        <time>2022-04-03T06:49:42.000Z</time>
      </trkpt>
      <trkpt lat="49.65787" lon="4.77909">
        <ele>294</ele>
        <time>2022-04-03T06:49:43.000Z</time>
      </trkpt>
      <trkpt lat="49.65782" lon="4.77911">
        <ele>293</ele>
        <time>2022-04-03T06:49:44.000Z</time>
      </trkpt>
      <trkpt lat="49.65777" lon="4.77913">
        <ele>293</ele>
        <time>2022-04-03T06:49:45.000Z</time>
      </trkpt>
      <trkpt lat="49.65772" lon="4.77914">
        <ele>293</ele>
        <time>2022-04-03T06:49:46.000Z</time>
      </trkpt>
      <trkpt lat="49.65767" lon="4.77913">
        <ele>292</ele>
        <time>2022-04-03T06:49:47.000Z</time>
      </trkpt>
      <trkpt lat="49.65767" lon="4.77913">
        <ele>292</ele>
        <time>2022-04-03T06:49:48.000Z</time>
      </trkpt>
      <trkpt lat="49.65757" lon="4.77912">
        <ele>291</ele>
        <time>2022-04-03T06:49:49.000Z</time>
      </trkpt>
      <trkpt lat="49.65752" lon="4.77914">
        <ele>291</ele>
        <time>2022-04-03T06:49:50.000Z</time>
      </trkpt>
      <trkpt lat="49.65746" lon="4.77915">
        <ele>290</ele>
        <time>2022-04-03T06:49:51.000Z</time>
      </trkpt>
      <trkpt lat="49.65746" lon="4.77915">
        <ele>290</ele>
        <time>2022-04-03T06:49:52.000Z</time>
      </trkpt>
      <trkpt lat="49.65742" lon="4.77917">
        <ele>290</ele>
        <time>2022-04-03T06:49:53.000Z</time>
      </trkpt>
      <trkpt lat="49.65733" lon="4.77918">
        <ele>289</ele>
        <time>2022-04-03T06:49:54.000Z</time>
      </trkpt>
      <trkpt lat="49.65727" lon="4.7792">
        <ele>289</ele>
        <time>2022-04-03T06:49:55.000Z</time>
      </trkpt>
      <trkpt lat="49.65722" lon="4.7792">
        <ele>288</ele>
        <time>2022-04-03T06:49:56.000Z</time>
      </trkpt>
      <trkpt lat="49.65722" lon="4.7792">
        <ele>288</ele>
        <time>2022-04-03T06:49:57.000Z</time>
      </trkpt>
      <trkpt lat="49.65717" lon="4.77918">
        <ele>288</ele>
        <time>2022-04-03T06:49:58.000Z</time>
      </trkpt>
      <trkpt lat="49.65712" lon="4.77918">
        <ele>287</ele>
        <time>2022-04-03T06:49:59.000Z</time>
      </trkpt>
      <trkpt lat="49.65706" lon="4.77917">
        <ele>287</ele>
        <time>2022-04-03T06:50:00.000Z</time>
      </trkpt>
      <trkpt lat="49.65702" lon="4.77916">
        <ele>287</ele>
        <time>2022-04-03T06:50:01.000Z</time>
      </trkpt>
      <trkpt lat="49.65696" lon="4.77917">
        <ele>286</ele>
        <time>2022-04-03T06:50:02.000Z</time>
      </trkpt>
      <trkpt lat="49.65691" lon="4.77916">
        <ele>286</ele>
        <time>2022-04-03T06:50:03.000Z</time>
      </trkpt>
      <trkpt lat="49.65683" lon="4.77909">
        <ele>285</ele>
        <time>2022-04-03T06:50:04.000Z</time>
      </trkpt>
      <trkpt lat="49.65683" lon="4.77909">
        <ele>285</ele>
        <time>2022-04-03T06:50:05.000Z</time>
      </trkpt>
      <trkpt lat="49.65681" lon="4.77903">
        <ele>284</ele>
        <time>2022-04-03T06:50:06.000Z</time>
      </trkpt>
      <trkpt lat="49.6568" lon="4.77895">
        <ele>284</ele>
        <time>2022-04-03T06:50:07.000Z</time>
      </trkpt>
      <trkpt lat="49.6568" lon="4.77878">
        <ele>283</ele>
        <time>2022-04-03T06:50:08.000Z</time>
      </trkpt>
      <trkpt lat="49.65679" lon="4.77869">
        <ele>283</ele>
        <time>2022-04-03T06:50:09.000Z</time>
      </trkpt>
      <trkpt lat="49.65678" lon="4.7786">
        <ele>283</ele>
        <time>2022-04-03T06:50:10.000Z</time>
      </trkpt>
      <trkpt lat="49.65676" lon="4.77851">
        <ele>282</ele>
        <time>2022-04-03T06:50:11.000Z</time>
      </trkpt>
      <trkpt lat="49.65674" lon="4.77842">
        <ele>282</ele>
        <time>2022-04-03T06:50:12.000Z</time>
      </trkpt>
      <trkpt lat="49.65671" lon="4.77834">
        <ele>281</ele>
        <time>2022-04-03T06:50:13.000Z</time>
      </trkpt>
      <trkpt lat="49.65668" lon="4.77826">
        <ele>281</ele>
        <time>2022-04-03T06:50:14.000Z</time>
      </trkpt>
      <trkpt lat="49.65668" lon="4.77826">
        <ele>281</ele>
        <time>2022-04-03T06:50:15.000Z</time>
      </trkpt>
      <trkpt lat="49.65659" lon="4.7781">
        <ele>280</ele>
        <time>2022-04-03T06:50:16.000Z</time>
      </trkpt>
      <trkpt lat="49.65655" lon="4.77802">
        <ele>280</ele>
        <time>2022-04-03T06:50:17.000Z</time>
      </trkpt>
      <trkpt lat="49.65655" lon="4.77802">
        <ele>280</ele>
        <time>2022-04-03T06:50:18.000Z</time>
      </trkpt>
      <trkpt lat="49.65648" lon="4.77785">
        <ele>279</ele>
        <time>2022-04-03T06:50:19.000Z</time>
      </trkpt>
      <trkpt lat="49.65645" lon="4.77776">
        <ele>278</ele>
        <time>2022-04-03T06:50:20.000Z</time>
      </trkpt>
      <trkpt lat="49.65641" lon="4.77768">
        <ele>278</ele>
        <time>2022-04-03T06:50:21.000Z</time>
      </trkpt>
      <trkpt lat="49.65638" lon="4.77759">
        <ele>277</ele>
        <time>2022-04-03T06:50:22.000Z</time>
      </trkpt>
      <trkpt lat="49.65635" lon="4.77751">
        <ele>277</ele>
        <time>2022-04-03T06:50:23.000Z</time>
      </trkpt>
      <trkpt lat="49.65632" lon="4.77742">
        <ele>277</ele>
        <time>2022-04-03T06:50:24.000Z</time>
      </trkpt>
      <trkpt lat="49.65629" lon="4.77734">
        <ele>276</ele>
        <time>2022-04-03T06:50:25.000Z</time>
      </trkpt>
      <trkpt lat="49.65627" lon="4.77726">
        <ele>276</ele>
        <time>2022-04-03T06:50:26.000Z</time>
      </trkpt>
      <trkpt lat="49.65623" lon="4.77718">
        <ele>276</ele>
        <time>2022-04-03T06:50:27.000Z</time>
      </trkpt>
      <trkpt lat="49.65621" lon="4.77711">
        <ele>276</ele>
        <time>2022-04-03T06:50:28.000Z</time>
      </trkpt>
      <trkpt lat="49.65619" lon="4.77703">
        <ele>276</ele>
        <time>2022-04-03T06:50:29.000Z</time>
      </trkpt>
      <trkpt lat="49.65617" lon="4.77696">
        <ele>275</ele>
        <time>2022-04-03T06:50:30.000Z</time>
      </trkpt>
      <trkpt lat="49.65616" lon="4.77689">
        <ele>275</ele>
        <time>2022-04-03T06:50:31.000Z</time>
      </trkpt>
      <trkpt lat="49.65613" lon="4.77682">
        <ele>275</ele>
        <time>2022-04-03T06:50:32.000Z</time>
      </trkpt>
      <trkpt lat="49.6561" lon="4.77675">
        <ele>275</ele>
        <time>2022-04-03T06:50:33.000Z</time>
      </trkpt>
      <trkpt lat="49.65606" lon="4.77669">
        <ele>275</ele>
        <time>2022-04-03T06:50:34.000Z</time>
      </trkpt>
      <trkpt lat="49.65603" lon="4.77663">
        <ele>275</ele>
        <time>2022-04-03T06:50:35.000Z</time>
      </trkpt>
      <trkpt lat="49.656" lon="4.77657">
        <ele>275</ele>
        <time>2022-04-03T06:50:36.000Z</time>
      </trkpt>
      <trkpt lat="49.65597" lon="4.77652">
        <ele>275</ele>
        <time>2022-04-03T06:50:37.000Z</time>
      </trkpt>
      <trkpt lat="49.65594" lon="4.77647">
        <ele>274</ele>
        <time>2022-04-03T06:50:38.000Z</time>
      </trkpt>
      <trkpt lat="49.65591" lon="4.77642">
        <ele>274</ele>
        <time>2022-04-03T06:50:39.000Z</time>
      </trkpt>
      <trkpt lat="49.65589" lon="4.77637">
        <ele>274</ele>
        <time>2022-04-03T06:50:40.000Z</time>
      </trkpt>
      <trkpt lat="49.65586" lon="4.77633">
        <ele>274</ele>
        <time>2022-04-03T06:50:41.000Z</time>
      </trkpt>
      <trkpt lat="49.65584" lon="4.77629">
        <ele>274</ele>
        <time>2022-04-03T06:50:42.000Z</time>
      </trkpt>
      <trkpt lat="49.65581" lon="4.77625">
        <ele>274</ele>
        <time>2022-04-03T06:50:43.000Z</time>
      </trkpt>
      <trkpt lat="49.65579" lon="4.77622">
        <ele>274</ele>
        <time>2022-04-03T06:50:44.000Z</time>
      </trkpt>
      <trkpt lat="49.65577" lon="4.77618">
        <ele>274</ele>
        <time>2022-04-03T06:50:45.000Z</time>
      </trkpt>
      <trkpt lat="49.65577" lon="4.77618">
        <ele>274</ele>
        <time>2022-04-03T06:50:46.000Z</time>
      </trkpt>
      <trkpt lat="49.65576" lon="4.77615">
        <ele>275</ele>
        <time>2022-04-03T06:50:47.000Z</time>
      </trkpt>
      <trkpt lat="49.65572" lon="4.77613">
        <ele>275</ele>
        <time>2022-04-03T06:50:48.000Z</time>
      </trkpt>
      <trkpt lat="49.65572" lon="4.77613">
        <ele>275</ele>
        <time>2022-04-03T06:50:49.000Z</time>
      </trkpt>
      <trkpt lat="49.65569" lon="4.77609">
        <ele>275</ele>
        <time>2022-04-03T06:50:50.000Z</time>
      </trkpt>
      <trkpt lat="49.65569" lon="4.77609">
        <ele>275</ele>
        <time>2022-04-03T06:50:51.000Z</time>
      </trkpt>
      <trkpt lat="49.65568" lon="4.77606">
        <ele>275</ele>
        <time>2022-04-03T06:50:52.000Z</time>
      </trkpt>
      <trkpt lat="49.65567" lon="4.77603">
        <ele>275</ele>
        <time>2022-04-03T06:50:53.000Z</time>
      </trkpt>
      <trkpt lat="49.65566" lon="4.77599">
        <ele>275</ele>
        <time>2022-04-03T06:50:54.000Z</time>
      </trkpt>
      <trkpt lat="49.65565" lon="4.77595">
        <ele>275</ele>
        <time>2022-04-03T06:50:55.000Z</time>
      </trkpt>
      <trkpt lat="49.65563" lon="4.77591">
        <ele>275</ele>
        <time>2022-04-03T06:50:56.000Z</time>
      </trkpt>
      <trkpt lat="49.65561" lon="4.77586">
        <ele>275</ele>
        <time>2022-04-03T06:50:57.000Z</time>
      </trkpt>
      <trkpt lat="49.65559" lon="4.77582">
        <ele>275</ele>
        <time>2022-04-03T06:50:58.000Z</time>
      </trkpt>
      <trkpt lat="49.65555" lon="4.77573">
        <ele>275</ele>
        <time>2022-04-03T06:50:59.000Z</time>
      </trkpt>
      <trkpt lat="49.65555" lon="4.77573">
        <ele>275</ele>
        <time>2022-04-03T06:51:00.000Z</time>
      </trkpt>
      <trkpt lat="49.65553" lon="4.77569">
        <ele>275</ele>
        <time>2022-04-03T06:51:01.000Z</time>
      </trkpt>
      <trkpt lat="49.65551" lon="4.77564">
        <ele>275</ele>
        <time>2022-04-03T06:51:02.000Z</time>
      </trkpt>
      <trkpt lat="49.65547" lon="4.77556">
        <ele>275</ele>
        <time>2022-04-03T06:51:03.000Z</time>
      </trkpt>
      <trkpt lat="49.65544" lon="4.77553">
        <ele>275</ele>
        <time>2022-04-03T06:51:04.000Z</time>
      </trkpt>
      <trkpt lat="49.65542" lon="4.77549">
        <ele>275</ele>
        <time>2022-04-03T06:51:05.000Z</time>
      </trkpt>
      <trkpt lat="49.65542" lon="4.77549">
        <ele>275</ele>
        <time>2022-04-03T06:51:06.000Z</time>
      </trkpt>
      <trkpt lat="49.65537" lon="4.77542">
        <ele>275</ele>
        <time>2022-04-03T06:51:07.000Z</time>
      </trkpt>
      <trkpt lat="49.65535" lon="4.77538">
        <ele>275</ele>
        <time>2022-04-03T06:51:08.000Z</time>
      </trkpt>
      <trkpt lat="49.65532" lon="4.77534">
        <ele>275</ele>
        <time>2022-04-03T06:51:09.000Z</time>
      </trkpt>
      <trkpt lat="49.6553" lon="4.7753">
        <ele>275</ele>
        <time>2022-04-03T06:51:10.000Z</time>
      </trkpt>
      <trkpt lat="49.65527" lon="4.77526">
        <ele>275</ele>
        <time>2022-04-03T06:51:11.000Z</time>
      </trkpt>
      <trkpt lat="49.65524" lon="4.77521">
        <ele>275</ele>
        <time>2022-04-03T06:51:12.000Z</time>
      </trkpt>
      <trkpt lat="49.65524" lon="4.77521">
        <ele>275</ele>
        <time>2022-04-03T06:51:13.000Z</time>
      </trkpt>
      <trkpt lat="49.6552" lon="4.77517">
        <ele>275</ele>
        <time>2022-04-03T06:51:14.000Z</time>
      </trkpt>
      <trkpt lat="49.65518" lon="4.77514">
        <ele>274</ele>
        <time>2022-04-03T06:51:15.000Z</time>
      </trkpt>
      <trkpt lat="49.65515" lon="4.77512">
        <ele>274</ele>
        <time>2022-04-03T06:51:16.000Z</time>
      </trkpt>
      <trkpt lat="49.65511" lon="4.77509">
        <ele>274</ele>
        <time>2022-04-03T06:51:17.000Z</time>
      </trkpt>
      <trkpt lat="49.65508" lon="4.77505">
        <ele>274</ele>
        <time>2022-04-03T06:51:18.000Z</time>
      </trkpt>
      <trkpt lat="49.65504" lon="4.77501">
        <ele>273</ele>
        <time>2022-04-03T06:51:19.000Z</time>
      </trkpt>
      <trkpt lat="49.655" lon="4.77498">
        <ele>273</ele>
        <time>2022-04-03T06:51:20.000Z</time>
      </trkpt>
      <trkpt lat="49.65496" lon="4.77496">
        <ele>273</ele>
        <time>2022-04-03T06:51:21.000Z</time>
      </trkpt>
      <trkpt lat="49.65493" lon="4.77493">
        <ele>273</ele>
        <time>2022-04-03T06:51:22.000Z</time>
      </trkpt>
      <trkpt lat="49.65485" lon="4.77486">
        <ele>273</ele>
        <time>2022-04-03T06:51:23.000Z</time>
      </trkpt>
      <trkpt lat="49.65481" lon="4.77483">
        <ele>273</ele>
        <time>2022-04-03T06:51:24.000Z</time>
      </trkpt>
      <trkpt lat="49.65478" lon="4.7748">
        <ele>273</ele>
        <time>2022-04-03T06:51:25.000Z</time>
      </trkpt>
      <trkpt lat="49.65474" lon="4.77478">
        <ele>273</ele>
        <time>2022-04-03T06:51:26.000Z</time>
      </trkpt>
      <trkpt lat="49.6547" lon="4.77475">
        <ele>272</ele>
        <time>2022-04-03T06:51:27.000Z</time>
      </trkpt>
      <trkpt lat="49.65466" lon="4.77473">
        <ele>272</ele>
        <time>2022-04-03T06:51:28.000Z</time>
      </trkpt>
      <trkpt lat="49.65463" lon="4.7747">
        <ele>272</ele>
        <time>2022-04-03T06:51:29.000Z</time>
      </trkpt>
      <trkpt lat="49.65463" lon="4.7747">
        <ele>272</ele>
        <time>2022-04-03T06:51:30.000Z</time>
      </trkpt>
      <trkpt lat="49.65459" lon="4.77467">
        <ele>272</ele>
        <time>2022-04-03T06:51:31.000Z</time>
      </trkpt>
      <trkpt lat="49.65456" lon="4.77463">
        <ele>272</ele>
        <time>2022-04-03T06:51:32.000Z</time>
      </trkpt>
      <trkpt lat="49.65453" lon="4.7746">
        <ele>272</ele>
        <time>2022-04-03T06:51:33.000Z</time>
      </trkpt>
      <trkpt lat="49.65449" lon="4.77457">
        <ele>272</ele>
        <time>2022-04-03T06:51:34.000Z</time>
      </trkpt>
      <trkpt lat="49.65446" lon="4.77454">
        <ele>272</ele>
        <time>2022-04-03T06:51:35.000Z</time>
      </trkpt>
      <trkpt lat="49.65444" lon="4.77451">
        <ele>272</ele>
        <time>2022-04-03T06:51:36.000Z</time>
      </trkpt>
      <trkpt lat="49.65441" lon="4.77447">
        <ele>272</ele>
        <time>2022-04-03T06:51:37.000Z</time>
      </trkpt>
      <trkpt lat="49.65438" lon="4.77444">
        <ele>272</ele>
        <time>2022-04-03T06:51:38.000Z</time>
      </trkpt>
      <trkpt lat="49.65435" lon="4.7744">
        <ele>273</ele>
        <time>2022-04-03T06:51:39.000Z</time>
      </trkpt>
      <trkpt lat="49.6543" lon="4.77433">
        <ele>273</ele>
        <time>2022-04-03T06:51:40.000Z</time>
      </trkpt>
      <trkpt lat="49.6543" lon="4.77433">
        <ele>273</ele>
        <time>2022-04-03T06:51:41.000Z</time>
      </trkpt>
      <trkpt lat="49.65427" lon="4.7743">
        <ele>273</ele>
        <time>2022-04-03T06:51:42.000Z</time>
      </trkpt>
      <trkpt lat="49.6542" lon="4.77426">
        <ele>273</ele>
        <time>2022-04-03T06:51:43.000Z</time>
      </trkpt>
      <trkpt lat="49.65417" lon="4.77424">
        <ele>273</ele>
        <time>2022-04-03T06:51:44.000Z</time>
      </trkpt>
      <trkpt lat="49.65413" lon="4.77422">
        <ele>273</ele>
        <time>2022-04-03T06:51:45.000Z</time>
      </trkpt>
      <trkpt lat="49.6541" lon="4.7742">
        <ele>273</ele>
        <time>2022-04-03T06:51:46.000Z</time>
      </trkpt>
      <trkpt lat="49.65407" lon="4.77418">
        <ele>273</ele>
        <time>2022-04-03T06:51:47.000Z</time>
      </trkpt>
      <trkpt lat="49.65404" lon="4.77416">
        <ele>273</ele>
        <time>2022-04-03T06:51:48.000Z</time>
      </trkpt>
      <trkpt lat="49.65402" lon="4.77413">
        <ele>274</ele>
        <time>2022-04-03T06:51:49.000Z</time>
      </trkpt>
      <trkpt lat="49.654" lon="4.77412">
        <ele>274</ele>
        <time>2022-04-03T06:51:50.000Z</time>
      </trkpt>
      <trkpt lat="49.65397" lon="4.7741">
        <ele>274</ele>
        <time>2022-04-03T06:51:51.000Z</time>
      </trkpt>
      <trkpt lat="49.65395" lon="4.77407">
        <ele>274</ele>
        <time>2022-04-03T06:51:52.000Z</time>
      </trkpt>
      <trkpt lat="49.65393" lon="4.77405">
        <ele>274</ele>
        <time>2022-04-03T06:51:53.000Z</time>
      </trkpt>
      <trkpt lat="49.65391" lon="4.77403">
        <ele>274</ele>
        <time>2022-04-03T06:51:54.000Z</time>
      </trkpt>
      <trkpt lat="49.65389" lon="4.77401">
        <ele>275</ele>
        <time>2022-04-03T06:51:55.000Z</time>
      </trkpt>
      <trkpt lat="49.65387" lon="4.77399">
        <ele>275</ele>
        <time>2022-04-03T06:51:56.000Z</time>
      </trkpt>
      <trkpt lat="49.65385" lon="4.77397">
        <ele>275</ele>
        <time>2022-04-03T06:51:57.000Z</time>
      </trkpt>
      <trkpt lat="49.65383" lon="4.77395">
        <ele>275</ele>
        <time>2022-04-03T06:51:58.000Z</time>
      </trkpt>
      <trkpt lat="49.65381" lon="4.77393">
        <ele>276</ele>
        <time>2022-04-03T06:51:59.000Z</time>
      </trkpt>
      <trkpt lat="49.65381" lon="4.77393">
        <ele>276</ele>
        <time>2022-04-03T06:52:00.000Z</time>
      </trkpt>
      <trkpt lat="49.65378" lon="4.77391">
        <ele>276</ele>
        <time>2022-04-03T06:52:01.000Z</time>
      </trkpt>
      <trkpt lat="49.65376" lon="4.77389">
        <ele>276</ele>
        <time>2022-04-03T06:52:02.000Z</time>
      </trkpt>
      <trkpt lat="49.65373" lon="4.77387">
        <ele>277</ele>
        <time>2022-04-03T06:52:03.000Z</time>
      </trkpt>
      <trkpt lat="49.65371" lon="4.77386">
        <ele>277</ele>
        <time>2022-04-03T06:52:04.000Z</time>
      </trkpt>
      <trkpt lat="49.65369" lon="4.77384">
        <ele>277</ele>
        <time>2022-04-03T06:52:05.000Z</time>
      </trkpt>
      <trkpt lat="49.65364" lon="4.7738">
        <ele>278</ele>
        <time>2022-04-03T06:52:06.000Z</time>
      </trkpt>
      <trkpt lat="49.65362" lon="4.77378">
        <ele>278</ele>
        <time>2022-04-03T06:52:07.000Z</time>
      </trkpt>
      <trkpt lat="49.65359" lon="4.77376">
        <ele>278</ele>
        <time>2022-04-03T06:52:08.000Z</time>
      </trkpt>
      <trkpt lat="49.65357" lon="4.77374">
        <ele>278</ele>
        <time>2022-04-03T06:52:09.000Z</time>
      </trkpt>
      <trkpt lat="49.65357" lon="4.77374">
        <ele>278</ele>
        <time>2022-04-03T06:52:10.000Z</time>
      </trkpt>
      <trkpt lat="49.65353" lon="4.77369">
        <ele>279</ele>
        <time>2022-04-03T06:52:11.000Z</time>
      </trkpt>
      <trkpt lat="49.65353" lon="4.77369">
        <ele>279</ele>
        <time>2022-04-03T06:52:12.000Z</time>
      </trkpt>
      <trkpt lat="49.65349" lon="4.77364">
        <ele>279</ele>
        <time>2022-04-03T06:52:13.000Z</time>
      </trkpt>
      <trkpt lat="49.65349" lon="4.77364">
        <ele>279</ele>
        <time>2022-04-03T06:52:14.000Z</time>
      </trkpt>
      <trkpt lat="49.65345" lon="4.77358">
        <ele>280</ele>
        <time>2022-04-03T06:52:15.000Z</time>
      </trkpt>
      <trkpt lat="49.65343" lon="4.77356">
        <ele>280</ele>
        <time>2022-04-03T06:52:16.000Z</time>
      </trkpt>
      <trkpt lat="49.65341" lon="4.77353">
        <ele>280</ele>
        <time>2022-04-03T06:52:17.000Z</time>
      </trkpt>
      <trkpt lat="49.65341" lon="4.77353">
        <ele>280</ele>
        <time>2022-04-03T06:52:18.000Z</time>
      </trkpt>
      <trkpt lat="49.65338" lon="4.77347">
        <ele>281</ele>
        <time>2022-04-03T06:52:19.000Z</time>
      </trkpt>
      <trkpt lat="49.65336" lon="4.77344">
        <ele>281</ele>
        <time>2022-04-03T06:52:20.000Z</time>
      </trkpt>
      <trkpt lat="49.65334" lon="4.77342">
        <ele>282</ele>
        <time>2022-04-03T06:52:21.000Z</time>
      </trkpt>
      <trkpt lat="49.65334" lon="4.77342">
        <ele>282</ele>
        <time>2022-04-03T06:52:22.000Z</time>
      </trkpt>
      <trkpt lat="49.65331" lon="4.77336">
        <ele>282</ele>
        <time>2022-04-03T06:52:23.000Z</time>
      </trkpt>
      <trkpt lat="49.65331" lon="4.77336">
        <ele>282</ele>
        <time>2022-04-03T06:52:24.000Z</time>
      </trkpt>
      <trkpt lat="49.65327" lon="4.77331">
        <ele>283</ele>
        <time>2022-04-03T06:52:25.000Z</time>
      </trkpt>
      <trkpt lat="49.65327" lon="4.77331">
        <ele>283</ele>
        <time>2022-04-03T06:52:26.000Z</time>
      </trkpt>
      <trkpt lat="49.65323" lon="4.77325">
        <ele>283</ele>
        <time>2022-04-03T06:52:27.000Z</time>
      </trkpt>
      <trkpt lat="49.65321" lon="4.77323">
        <ele>283</ele>
        <time>2022-04-03T06:52:28.000Z</time>
      </trkpt>
      <trkpt lat="49.65319" lon="4.7732">
        <ele>284</ele>
        <time>2022-04-03T06:52:29.000Z</time>
      </trkpt>
      <trkpt lat="49.65319" lon="4.7732">
        <ele>284</ele>
        <time>2022-04-03T06:52:30.000Z</time>
      </trkpt>
      <trkpt lat="49.65318" lon="4.77317">
        <ele>284</ele>
        <time>2022-04-03T06:52:31.000Z</time>
      </trkpt>
      <trkpt lat="49.65314" lon="4.77312">
        <ele>285</ele>
        <time>2022-04-03T06:52:32.000Z</time>
      </trkpt>
      <trkpt lat="49.65312" lon="4.77309">
        <ele>285</ele>
        <time>2022-04-03T06:52:33.000Z</time>
      </trkpt>
      <trkpt lat="49.65312" lon="4.77309">
        <ele>285</ele>
        <time>2022-04-03T06:52:34.000Z</time>
      </trkpt>
      <trkpt lat="49.65308" lon="4.77305">
        <ele>286</ele>
        <time>2022-04-03T06:52:35.000Z</time>
      </trkpt>
      <trkpt lat="49.65305" lon="4.77303">
        <ele>286</ele>
        <time>2022-04-03T06:52:36.000Z</time>
      </trkpt>
      <trkpt lat="49.65303" lon="4.773">
        <ele>286</ele>
        <time>2022-04-03T06:52:37.000Z</time>
      </trkpt>
      <trkpt lat="49.65301" lon="4.77298">
        <ele>287</ele>
        <time>2022-04-03T06:52:38.000Z</time>
      </trkpt>
      <trkpt lat="49.65298" lon="4.77296">
        <ele>287</ele>
        <time>2022-04-03T06:52:39.000Z</time>
      </trkpt>
      <trkpt lat="49.65296" lon="4.77294">
        <ele>287</ele>
        <time>2022-04-03T06:52:40.000Z</time>
      </trkpt>
      <trkpt lat="49.65294" lon="4.77292">
        <ele>287</ele>
        <time>2022-04-03T06:52:41.000Z</time>
      </trkpt>
      <trkpt lat="49.65294" lon="4.77292">
        <ele>287</ele>
        <time>2022-04-03T06:52:42.000Z</time>
      </trkpt>
      <trkpt lat="49.65289" lon="4.77288">
        <ele>287</ele>
        <time>2022-04-03T06:52:43.000Z</time>
      </trkpt>
      <trkpt lat="49.65286" lon="4.77286">
        <ele>287</ele>
        <time>2022-04-03T06:52:44.000Z</time>
      </trkpt>
      <trkpt lat="49.65284" lon="4.77284">
        <ele>287</ele>
        <time>2022-04-03T06:52:45.000Z</time>
      </trkpt>
      <trkpt lat="49.65283" lon="4.77283">
        <ele>288</ele>
        <time>2022-04-03T06:52:46.000Z</time>
      </trkpt>
      <trkpt lat="49.65281" lon="4.77282">
        <ele>288</ele>
        <time>2022-04-03T06:52:47.000Z</time>
      </trkpt>
      <trkpt lat="49.6528" lon="4.77283">
        <ele>288</ele>
        <time>2022-04-03T06:52:48.000Z</time>
      </trkpt>
      <trkpt lat="49.6528" lon="4.77283">
        <ele>288</ele>
        <time>2022-04-03T06:52:49.000Z</time>
      </trkpt>
      <trkpt lat="49.65281" lon="4.77285">
        <ele>288</ele>
        <time>2022-04-03T06:52:50.000Z</time>
      </trkpt>
      <trkpt lat="49.65281" lon="4.77288">
        <ele>288</ele>
        <time>2022-04-03T06:52:51.000Z</time>
      </trkpt>
      <trkpt lat="49.65281" lon="4.77291">
        <ele>288</ele>
        <time>2022-04-03T06:52:52.000Z</time>
      </trkpt>
      <trkpt lat="49.65281" lon="4.77294">
        <ele>288</ele>
        <time>2022-04-03T06:52:53.000Z</time>
      </trkpt>
      <trkpt lat="49.65281" lon="4.77299">
        <ele>288</ele>
        <time>2022-04-03T06:52:54.000Z</time>
      </trkpt>
      <trkpt lat="49.65282" lon="4.77304">
        <ele>288</ele>
        <time>2022-04-03T06:52:55.000Z</time>
      </trkpt>
      <trkpt lat="49.65283" lon="4.77309">
        <ele>288</ele>
        <time>2022-04-03T06:52:56.000Z</time>
      </trkpt>
      <trkpt lat="49.65284" lon="4.77315">
        <ele>288</ele>
        <time>2022-04-03T06:52:57.000Z</time>
      </trkpt>
      <trkpt lat="49.65285" lon="4.77322">
        <ele>288</ele>
        <time>2022-04-03T06:52:58.000Z</time>
      </trkpt>
      <trkpt lat="49.65286" lon="4.77328">
        <ele>288</ele>
        <time>2022-04-03T06:52:59.000Z</time>
      </trkpt>
      <trkpt lat="49.65287" lon="4.77335">
        <ele>288</ele>
        <time>2022-04-03T06:53:00.000Z</time>
      </trkpt>
      <trkpt lat="49.65289" lon="4.77343">
        <ele>288</ele>
        <time>2022-04-03T06:53:01.000Z</time>
      </trkpt>
      <trkpt lat="49.6529" lon="4.7735">
        <ele>288</ele>
        <time>2022-04-03T06:53:02.000Z</time>
      </trkpt>
      <trkpt lat="49.65292" lon="4.77357">
        <ele>288</ele>
        <time>2022-04-03T06:53:03.000Z</time>
      </trkpt>
      <trkpt lat="49.65294" lon="4.77365">
        <ele>289</ele>
        <time>2022-04-03T06:53:04.000Z</time>
      </trkpt>
      <trkpt lat="49.65295" lon="4.77373">
        <ele>289</ele>
        <time>2022-04-03T06:53:05.000Z</time>
      </trkpt>
      <trkpt lat="49.65297" lon="4.77381">
        <ele>289</ele>
        <time>2022-04-03T06:53:06.000Z</time>
      </trkpt>
      <trkpt lat="49.65299" lon="4.7739">
        <ele>288</ele>
        <time>2022-04-03T06:53:07.000Z</time>
      </trkpt>
      <trkpt lat="49.653" lon="4.77399">
        <ele>288</ele>
        <time>2022-04-03T06:53:08.000Z</time>
      </trkpt>
      <trkpt lat="49.65303" lon="4.77409">
        <ele>288</ele>
        <time>2022-04-03T06:53:09.000Z</time>
      </trkpt>
      <trkpt lat="49.65303" lon="4.77409">
        <ele>288</ele>
        <time>2022-04-03T06:53:10.000Z</time>
      </trkpt>
      <trkpt lat="49.65307" lon="4.77429">
        <ele>288</ele>
        <time>2022-04-03T06:53:11.000Z</time>
      </trkpt>
      <trkpt lat="49.65309" lon="4.77439">
        <ele>288</ele>
        <time>2022-04-03T06:53:12.000Z</time>
      </trkpt>
      <trkpt lat="49.65311" lon="4.77449">
        <ele>288</ele>
        <time>2022-04-03T06:53:13.000Z</time>
      </trkpt>
      <trkpt lat="49.65313" lon="4.77459">
        <ele>288</ele>
        <time>2022-04-03T06:53:14.000Z</time>
      </trkpt>
      <trkpt lat="49.65314" lon="4.77468">
        <ele>287</ele>
        <time>2022-04-03T06:53:15.000Z</time>
      </trkpt>
      <trkpt lat="49.65316" lon="4.77477">
        <ele>287</ele>
        <time>2022-04-03T06:53:16.000Z</time>
      </trkpt>
      <trkpt lat="49.65317" lon="4.77486">
        <ele>287</ele>
        <time>2022-04-03T06:53:17.000Z</time>
      </trkpt>
      <trkpt lat="49.65318" lon="4.77496">
        <ele>286</ele>
        <time>2022-04-03T06:53:18.000Z</time>
      </trkpt>
      <trkpt lat="49.6532" lon="4.77504">
        <ele>286</ele>
        <time>2022-04-03T06:53:19.000Z</time>
      </trkpt>
      <trkpt lat="49.65322" lon="4.77511">
        <ele>285</ele>
        <time>2022-04-03T06:53:20.000Z</time>
      </trkpt>
      <trkpt lat="49.65324" lon="4.77519">
        <ele>285</ele>
        <time>2022-04-03T06:53:21.000Z</time>
      </trkpt>
      <trkpt lat="49.65325" lon="4.77526">
        <ele>285</ele>
        <time>2022-04-03T06:53:22.000Z</time>
      </trkpt>
      <trkpt lat="49.65326" lon="4.77533">
        <ele>284</ele>
        <time>2022-04-03T06:53:23.000Z</time>
      </trkpt>
      <trkpt lat="49.65327" lon="4.77538">
        <ele>284</ele>
        <time>2022-04-03T06:53:24.000Z</time>
      </trkpt>
      <trkpt lat="49.65327" lon="4.77544">
        <ele>283</ele>
        <time>2022-04-03T06:53:25.000Z</time>
      </trkpt>
      <trkpt lat="49.65327" lon="4.77549">
        <ele>283</ele>
        <time>2022-04-03T06:53:26.000Z</time>
      </trkpt>
      <trkpt lat="49.65326" lon="4.77552">
        <ele>282</ele>
        <time>2022-04-03T06:53:27.000Z</time>
      </trkpt>
      <trkpt lat="49.65324" lon="4.77554">
        <ele>282</ele>
        <time>2022-04-03T06:53:28.000Z</time>
      </trkpt>
      <trkpt lat="49.65323" lon="4.77555">
        <ele>282</ele>
        <time>2022-04-03T06:53:29.000Z</time>
      </trkpt>
      <trkpt lat="49.65322" lon="4.77555">
        <ele>281</ele>
        <time>2022-04-03T06:53:30.000Z</time>
      </trkpt>
      <trkpt lat="49.6532" lon="4.77554">
        <ele>281</ele>
        <time>2022-04-03T06:53:31.000Z</time>
      </trkpt>
      <trkpt lat="49.65319" lon="4.77553">
        <ele>281</ele>
        <time>2022-04-03T06:53:32.000Z</time>
      </trkpt>
      <trkpt lat="49.65318" lon="4.77552">
        <ele>281</ele>
        <time>2022-04-03T06:53:33.000Z</time>
      </trkpt>
      <trkpt lat="49.65316" lon="4.77551">
        <ele>281</ele>
        <time>2022-04-03T06:53:34.000Z</time>
      </trkpt>
      <trkpt lat="49.65314" lon="4.77549">
        <ele>280</ele>
        <time>2022-04-03T06:53:35.000Z</time>
      </trkpt>
      <trkpt lat="49.65312" lon="4.77547">
        <ele>280</ele>
        <time>2022-04-03T06:53:36.000Z</time>
      </trkpt>
      <trkpt lat="49.6531" lon="4.77546">
        <ele>280</ele>
        <time>2022-04-03T06:53:37.000Z</time>
      </trkpt>
      <trkpt lat="49.65309" lon="4.77544">
        <ele>280</ele>
        <time>2022-04-03T06:53:38.000Z</time>
      </trkpt>
      <trkpt lat="49.65307" lon="4.77543">
        <ele>280</ele>
        <time>2022-04-03T06:53:39.000Z</time>
      </trkpt>
      <trkpt lat="49.65305" lon="4.77542">
        <ele>279</ele>
        <time>2022-04-03T06:53:40.000Z</time>
      </trkpt>
      <trkpt lat="49.65303" lon="4.7754">
        <ele>279</ele>
        <time>2022-04-03T06:53:41.000Z</time>
      </trkpt>
      <trkpt lat="49.65301" lon="4.77538">
        <ele>279</ele>
        <time>2022-04-03T06:53:42.000Z</time>
      </trkpt>
      <trkpt lat="49.65299" lon="4.77536">
        <ele>279</ele>
        <time>2022-04-03T06:53:43.000Z</time>
      </trkpt>
      <trkpt lat="49.65297" lon="4.77534">
        <ele>279</ele>
        <time>2022-04-03T06:53:44.000Z</time>
      </trkpt>
      <trkpt lat="49.65295" lon="4.77532">
        <ele>279</ele>
        <time>2022-04-03T06:53:45.000Z</time>
      </trkpt>
      <trkpt lat="49.65293" lon="4.7753">
        <ele>278</ele>
        <time>2022-04-03T06:53:46.000Z</time>
      </trkpt>
      <trkpt lat="49.65291" lon="4.77528">
        <ele>278</ele>
        <time>2022-04-03T06:53:47.000Z</time>
      </trkpt>
      <trkpt lat="49.65289" lon="4.77526">
        <ele>278</ele>
        <time>2022-04-03T06:53:48.000Z</time>
      </trkpt>
      <trkpt lat="49.65287" lon="4.77524">
        <ele>278</ele>
        <time>2022-04-03T06:53:49.000Z</time>
      </trkpt>
      <trkpt lat="49.65286" lon="4.77523">
        <ele>278</ele>
        <time>2022-04-03T06:53:50.000Z</time>
      </trkpt>
      <trkpt lat="49.65284" lon="4.77521">
        <ele>278</ele>
        <time>2022-04-03T06:53:51.000Z</time>
      </trkpt>
      <trkpt lat="49.65282" lon="4.77519">
        <ele>277</ele>
        <time>2022-04-03T06:53:52.000Z</time>
      </trkpt>
      <trkpt lat="49.6528" lon="4.77517">
        <ele>277</ele>
        <time>2022-04-03T06:53:53.000Z</time>
      </trkpt>
      <trkpt lat="49.65278" lon="4.77515">
        <ele>277</ele>
        <time>2022-04-03T06:53:54.000Z</time>
      </trkpt>
      <trkpt lat="49.65276" lon="4.77513">
        <ele>277</ele>
        <time>2022-04-03T06:53:55.000Z</time>
      </trkpt>
      <trkpt lat="49.65275" lon="4.77511">
        <ele>277</ele>
        <time>2022-04-03T06:53:56.000Z</time>
      </trkpt>
      <trkpt lat="49.65273" lon="4.7751">
        <ele>277</ele>
        <time>2022-04-03T06:53:57.000Z</time>
      </trkpt>
      <trkpt lat="49.65272" lon="4.77508">
        <ele>277</ele>
        <time>2022-04-03T06:53:58.000Z</time>
      </trkpt>
      <trkpt lat="49.65271" lon="4.77507">
        <ele>277</ele>
        <time>2022-04-03T06:53:59.000Z</time>
      </trkpt>
      <trkpt lat="49.65269" lon="4.77505">
        <ele>277</ele>
        <time>2022-04-03T06:54:00.000Z</time>
      </trkpt>
      <trkpt lat="49.65268" lon="4.77503">
        <ele>277</ele>
        <time>2022-04-03T06:54:01.000Z</time>
      </trkpt>
      <trkpt lat="49.65266" lon="4.77502">
        <ele>277</ele>
        <time>2022-04-03T06:54:02.000Z</time>
      </trkpt>
      <trkpt lat="49.65264" lon="4.775">
        <ele>277</ele>
        <time>2022-04-03T06:54:03.000Z</time>
      </trkpt>
      <trkpt lat="49.65262" lon="4.77499">
        <ele>277</ele>
        <time>2022-04-03T06:54:04.000Z</time>
      </trkpt>
      <trkpt lat="49.65261" lon="4.77497">
        <ele>277</ele>
        <time>2022-04-03T06:54:05.000Z</time>
      </trkpt>
      <trkpt lat="49.65259" lon="4.77496">
        <ele>277</ele>
        <time>2022-04-03T06:54:06.000Z</time>
      </trkpt>
      <trkpt lat="49.65258" lon="4.77494">
        <ele>277</ele>
        <time>2022-04-03T06:54:07.000Z</time>
      </trkpt>
      <trkpt lat="49.65257" lon="4.77493">
        <ele>277</ele>
        <time>2022-04-03T06:54:08.000Z</time>
      </trkpt>
      <trkpt lat="49.65255" lon="4.77491">
        <ele>278</ele>
        <time>2022-04-03T06:54:09.000Z</time>
      </trkpt>
      <trkpt lat="49.65253" lon="4.7749">
        <ele>278</ele>
        <time>2022-04-03T06:54:10.000Z</time>
      </trkpt>
      <trkpt lat="49.65252" lon="4.77488">
        <ele>278</ele>
        <time>2022-04-03T06:54:11.000Z</time>
      </trkpt>
      <trkpt lat="49.65251" lon="4.77487">
        <ele>278</ele>
        <time>2022-04-03T06:54:12.000Z</time>
      </trkpt>
      <trkpt lat="49.6525" lon="4.77486">
        <ele>279</ele>
        <time>2022-04-03T06:54:13.000Z</time>
      </trkpt>
      <trkpt lat="49.65248" lon="4.77485">
        <ele>279</ele>
        <time>2022-04-03T06:54:14.000Z</time>
      </trkpt>
      <trkpt lat="49.65247" lon="4.77483">
        <ele>279</ele>
        <time>2022-04-03T06:54:15.000Z</time>
      </trkpt>
      <trkpt lat="49.65245" lon="4.77482">
        <ele>279</ele>
        <time>2022-04-03T06:54:16.000Z</time>
      </trkpt>
      <trkpt lat="49.65244" lon="4.77481">
        <ele>279</ele>
        <time>2022-04-03T06:54:17.000Z</time>
      </trkpt>
      <trkpt lat="49.65242" lon="4.7748">
        <ele>280</ele>
        <time>2022-04-03T06:54:18.000Z</time>
      </trkpt>
      <trkpt lat="49.6524" lon="4.77478">
        <ele>280</ele>
        <time>2022-04-03T06:54:19.000Z</time>
      </trkpt>
      <trkpt lat="49.65238" lon="4.77477">
        <ele>280</ele>
        <time>2022-04-03T06:54:20.000Z</time>
      </trkpt>
      <trkpt lat="49.65237" lon="4.77476">
        <ele>280</ele>
        <time>2022-04-03T06:54:21.000Z</time>
      </trkpt>
      <trkpt lat="49.65235" lon="4.77475">
        <ele>280</ele>
        <time>2022-04-03T06:54:22.000Z</time>
      </trkpt>
      <trkpt lat="49.65233" lon="4.77473">
        <ele>280</ele>
        <time>2022-04-03T06:54:23.000Z</time>
      </trkpt>
      <trkpt lat="49.65231" lon="4.77472">
        <ele>280</ele>
        <time>2022-04-03T06:54:24.000Z</time>
      </trkpt>
      <trkpt lat="49.6523" lon="4.7747">
        <ele>280</ele>
        <time>2022-04-03T06:54:25.000Z</time>
      </trkpt>
      <trkpt lat="49.65228" lon="4.77469">
        <ele>280</ele>
        <time>2022-04-03T06:54:26.000Z</time>
      </trkpt>
      <trkpt lat="49.65227" lon="4.77468">
        <ele>280</ele>
        <time>2022-04-03T06:54:27.000Z</time>
      </trkpt>
      <trkpt lat="49.65225" lon="4.77467">
        <ele>281</ele>
        <time>2022-04-03T06:54:28.000Z</time>
      </trkpt>
      <trkpt lat="49.65223" lon="4.77466">
        <ele>281</ele>
        <time>2022-04-03T06:54:29.000Z</time>
      </trkpt>
      <trkpt lat="49.65222" lon="4.77465">
        <ele>281</ele>
        <time>2022-04-03T06:54:30.000Z</time>
      </trkpt>
      <trkpt lat="49.6522" lon="4.77464">
        <ele>281</ele>
        <time>2022-04-03T06:54:31.000Z</time>
      </trkpt>
      <trkpt lat="49.65218" lon="4.77463">
        <ele>281</ele>
        <time>2022-04-03T06:54:32.000Z</time>
      </trkpt>
      <trkpt lat="49.65216" lon="4.77462">
        <ele>281</ele>
        <time>2022-04-03T06:54:33.000Z</time>
      </trkpt>
      <trkpt lat="49.65215" lon="4.7746">
        <ele>281</ele>
        <time>2022-04-03T06:54:34.000Z</time>
      </trkpt>
      <trkpt lat="49.65213" lon="4.77459">
        <ele>281</ele>
        <time>2022-04-03T06:54:35.000Z</time>
      </trkpt>
      <trkpt lat="49.65212" lon="4.77457">
        <ele>281</ele>
        <time>2022-04-03T06:54:36.000Z</time>
      </trkpt>
      <trkpt lat="49.6521" lon="4.77456">
        <ele>281</ele>
        <time>2022-04-03T06:54:37.000Z</time>
      </trkpt>
      <trkpt lat="49.65208" lon="4.77455">
        <ele>281</ele>
        <time>2022-04-03T06:54:38.000Z</time>
      </trkpt>
      <trkpt lat="49.65206" lon="4.77454">
        <ele>281</ele>
        <time>2022-04-03T06:54:39.000Z</time>
      </trkpt>
      <trkpt lat="49.65205" lon="4.77453">
        <ele>281</ele>
        <time>2022-04-03T06:54:40.000Z</time>
      </trkpt>
      <trkpt lat="49.65203" lon="4.77452">
        <ele>282</ele>
        <time>2022-04-03T06:54:41.000Z</time>
      </trkpt>
      <trkpt lat="49.65202" lon="4.77451">
        <ele>282</ele>
        <time>2022-04-03T06:54:42.000Z</time>
      </trkpt>
      <trkpt lat="49.652" lon="4.7745">
        <ele>282</ele>
        <time>2022-04-03T06:54:43.000Z</time>
      </trkpt>
      <trkpt lat="49.65198" lon="4.77448">
        <ele>282</ele>
        <time>2022-04-03T06:54:44.000Z</time>
      </trkpt>
      <trkpt lat="49.65196" lon="4.77448">
        <ele>282</ele>
        <time>2022-04-03T06:54:45.000Z</time>
      </trkpt>
      <trkpt lat="49.65193" lon="4.77447">
        <ele>282</ele>
        <time>2022-04-03T06:54:46.000Z</time>
      </trkpt>
      <trkpt lat="49.65191" lon="4.77446">
        <ele>282</ele>
        <time>2022-04-03T06:54:47.000Z</time>
      </trkpt>
      <trkpt lat="49.65189" lon="4.77445">
        <ele>283</ele>
        <time>2022-04-03T06:54:48.000Z</time>
      </trkpt>
      <trkpt lat="49.65186" lon="4.77444">
        <ele>283</ele>
        <time>2022-04-03T06:54:49.000Z</time>
      </trkpt>
      <trkpt lat="49.65184" lon="4.77443">
        <ele>283</ele>
        <time>2022-04-03T06:54:50.000Z</time>
      </trkpt>
      <trkpt lat="49.65182" lon="4.77442">
        <ele>283</ele>
        <time>2022-04-03T06:54:51.000Z</time>
      </trkpt>
      <trkpt lat="49.6518" lon="4.77441">
        <ele>283</ele>
        <time>2022-04-03T06:54:52.000Z</time>
      </trkpt>
      <trkpt lat="49.6518" lon="4.77441">
        <ele>283</ele>
        <time>2022-04-03T06:54:53.000Z</time>
      </trkpt>
      <trkpt lat="49.65177" lon="4.7744">
        <ele>284</ele>
        <time>2022-04-03T06:54:54.000Z</time>
      </trkpt>
      <trkpt lat="49.65174" lon="4.77438">
        <ele>284</ele>
        <time>2022-04-03T06:54:55.000Z</time>
      </trkpt>
      <trkpt lat="49.65172" lon="4.77437">
        <ele>285</ele>
        <time>2022-04-03T06:54:56.000Z</time>
      </trkpt>
      <trkpt lat="49.65169" lon="4.77435">
        <ele>285</ele>
        <time>2022-04-03T06:54:57.000Z</time>
      </trkpt>
      <trkpt lat="49.65168" lon="4.77434">
        <ele>285</ele>
        <time>2022-04-03T06:54:58.000Z</time>
      </trkpt>
      <trkpt lat="49.65166" lon="4.77432">
        <ele>285</ele>
        <time>2022-04-03T06:54:59.000Z</time>
      </trkpt>
      <trkpt lat="49.65164" lon="4.77431">
        <ele>286</ele>
        <time>2022-04-03T06:55:00.000Z</time>
      </trkpt>
      <trkpt lat="49.65162" lon="4.77429">
        <ele>286</ele>
        <time>2022-04-03T06:55:01.000Z</time>
      </trkpt>
      <trkpt lat="49.6516" lon="4.77428">
        <ele>286</ele>
        <time>2022-04-03T06:55:02.000Z</time>
      </trkpt>
      <trkpt lat="49.65158" lon="4.77426">
        <ele>286</ele>
        <time>2022-04-03T06:55:03.000Z</time>
      </trkpt>
      <trkpt lat="49.65156" lon="4.77425">
        <ele>287</ele>
        <time>2022-04-03T06:55:04.000Z</time>
      </trkpt>
      <trkpt lat="49.65154" lon="4.77423">
        <ele>287</ele>
        <time>2022-04-03T06:55:05.000Z</time>
      </trkpt>
      <trkpt lat="49.65153" lon="4.77422">
        <ele>287</ele>
        <time>2022-04-03T06:55:06.000Z</time>
      </trkpt>
      <trkpt lat="49.65151" lon="4.7742">
        <ele>287</ele>
        <time>2022-04-03T06:55:07.000Z</time>
      </trkpt>
      <trkpt lat="49.65149" lon="4.77418">
        <ele>288</ele>
        <time>2022-04-03T06:55:08.000Z</time>
      </trkpt>
      <trkpt lat="49.65147" lon="4.77417">
        <ele>288</ele>
        <time>2022-04-03T06:55:09.000Z</time>
      </trkpt>
      <trkpt lat="49.65145" lon="4.77416">
        <ele>288</ele>
        <time>2022-04-03T06:55:10.000Z</time>
      </trkpt>
      <trkpt lat="49.65143" lon="4.77414">
        <ele>288</ele>
        <time>2022-04-03T06:55:11.000Z</time>
      </trkpt>
      <trkpt lat="49.65141" lon="4.77413">
        <ele>288</ele>
        <time>2022-04-03T06:55:12.000Z</time>
      </trkpt>
      <trkpt lat="49.65139" lon="4.77412">
        <ele>288</ele>
        <time>2022-04-03T06:55:13.000Z</time>
      </trkpt>
      <trkpt lat="49.65136" lon="4.77411">
        <ele>288</ele>
        <time>2022-04-03T06:55:14.000Z</time>
      </trkpt>
      <trkpt lat="49.65134" lon="4.77409">
        <ele>288</ele>
        <time>2022-04-03T06:55:15.000Z</time>
      </trkpt>
      <trkpt lat="49.65131" lon="4.77407">
        <ele>288</ele>
        <time>2022-04-03T06:55:16.000Z</time>
      </trkpt>
      <trkpt lat="49.65129" lon="4.77406">
        <ele>288</ele>
        <time>2022-04-03T06:55:17.000Z</time>
      </trkpt>
      <trkpt lat="49.65126" lon="4.77404">
        <ele>288</ele>
        <time>2022-04-03T06:55:18.000Z</time>
      </trkpt>
      <trkpt lat="49.65124" lon="4.77402">
        <ele>289</ele>
        <time>2022-04-03T06:55:19.000Z</time>
      </trkpt>
      <trkpt lat="49.65122" lon="4.774">
        <ele>289</ele>
        <time>2022-04-03T06:55:20.000Z</time>
      </trkpt>
      <trkpt lat="49.6512" lon="4.77398">
        <ele>289</ele>
        <time>2022-04-03T06:55:21.000Z</time>
      </trkpt>
      <trkpt lat="49.65117" lon="4.77397">
        <ele>289</ele>
        <time>2022-04-03T06:55:22.000Z</time>
      </trkpt>
      <trkpt lat="49.65115" lon="4.77396">
        <ele>289</ele>
        <time>2022-04-03T06:55:23.000Z</time>
      </trkpt>
      <trkpt lat="49.65113" lon="4.77394">
        <ele>289</ele>
        <time>2022-04-03T06:55:24.000Z</time>
      </trkpt>
      <trkpt lat="49.6511" lon="4.77392">
        <ele>289</ele>
        <time>2022-04-03T06:55:25.000Z</time>
      </trkpt>
      <trkpt lat="49.65108" lon="4.7739">
        <ele>290</ele>
        <time>2022-04-03T06:55:26.000Z</time>
      </trkpt>
      <trkpt lat="49.65105" lon="4.77388">
        <ele>290</ele>
        <time>2022-04-03T06:55:27.000Z</time>
      </trkpt>
      <trkpt lat="49.65103" lon="4.77386">
        <ele>290</ele>
        <time>2022-04-03T06:55:28.000Z</time>
      </trkpt>
      <trkpt lat="49.65101" lon="4.77385">
        <ele>290</ele>
        <time>2022-04-03T06:55:29.000Z</time>
      </trkpt>
      <trkpt lat="49.651" lon="4.77383">
        <ele>290</ele>
        <time>2022-04-03T06:55:30.000Z</time>
      </trkpt>
      <trkpt lat="49.65098" lon="4.77381">
        <ele>290</ele>
        <time>2022-04-03T06:55:31.000Z</time>
      </trkpt>
      <trkpt lat="49.65095" lon="4.77378">
        <ele>290</ele>
        <time>2022-04-03T06:55:32.000Z</time>
      </trkpt>
      <trkpt lat="49.65092" lon="4.77377">
        <ele>291</ele>
        <time>2022-04-03T06:55:33.000Z</time>
      </trkpt>
      <trkpt lat="49.65089" lon="4.77375">
        <ele>291</ele>
        <time>2022-04-03T06:55:34.000Z</time>
      </trkpt>
      <trkpt lat="49.65087" lon="4.77374">
        <ele>291</ele>
        <time>2022-04-03T06:55:35.000Z</time>
      </trkpt>
      <trkpt lat="49.65084" lon="4.77372">
        <ele>291</ele>
        <time>2022-04-03T06:55:36.000Z</time>
      </trkpt>
      <trkpt lat="49.65082" lon="4.7737">
        <ele>291</ele>
        <time>2022-04-03T06:55:37.000Z</time>
      </trkpt>
      <trkpt lat="49.65079" lon="4.77368">
        <ele>291</ele>
        <time>2022-04-03T06:55:38.000Z</time>
      </trkpt>
      <trkpt lat="49.65077" lon="4.77366">
        <ele>291</ele>
        <time>2022-04-03T06:55:39.000Z</time>
      </trkpt>
      <trkpt lat="49.65074" lon="4.77364">
        <ele>291</ele>
        <time>2022-04-03T06:55:40.000Z</time>
      </trkpt>
      <trkpt lat="49.65072" lon="4.77361">
        <ele>291</ele>
        <time>2022-04-03T06:55:41.000Z</time>
      </trkpt>
      <trkpt lat="49.65069" lon="4.77359">
        <ele>291</ele>
        <time>2022-04-03T06:55:42.000Z</time>
      </trkpt>
      <trkpt lat="49.65066" lon="4.77357">
        <ele>291</ele>
        <time>2022-04-03T06:55:43.000Z</time>
      </trkpt>
      <trkpt lat="49.65064" lon="4.77354">
        <ele>291</ele>
        <time>2022-04-03T06:55:44.000Z</time>
      </trkpt>
      <trkpt lat="49.65061" lon="4.77352">
        <ele>292</ele>
        <time>2022-04-03T06:55:45.000Z</time>
      </trkpt>
      <trkpt lat="49.65058" lon="4.7735">
        <ele>292</ele>
        <time>2022-04-03T06:55:46.000Z</time>
      </trkpt>
      <trkpt lat="49.65056" lon="4.77348">
        <ele>292</ele>
        <time>2022-04-03T06:55:47.000Z</time>
      </trkpt>
      <trkpt lat="49.65054" lon="4.77347">
        <ele>292</ele>
        <time>2022-04-03T06:55:48.000Z</time>
      </trkpt>
      <trkpt lat="49.65051" lon="4.77344">
        <ele>292</ele>
        <time>2022-04-03T06:55:49.000Z</time>
      </trkpt>
      <trkpt lat="49.65048" lon="4.77342">
        <ele>292</ele>
        <time>2022-04-03T06:55:50.000Z</time>
      </trkpt>
      <trkpt lat="49.65045" lon="4.77341">
        <ele>292</ele>
        <time>2022-04-03T06:55:51.000Z</time>
      </trkpt>
      <trkpt lat="49.65041" lon="4.77338">
        <ele>291</ele>
        <time>2022-04-03T06:55:52.000Z</time>
      </trkpt>
      <trkpt lat="49.65037" lon="4.77336">
        <ele>291</ele>
        <time>2022-04-03T06:55:53.000Z</time>
      </trkpt>
      <trkpt lat="49.65034" lon="4.77333">
        <ele>291</ele>
        <time>2022-04-03T06:55:54.000Z</time>
      </trkpt>
      <trkpt lat="49.65029" lon="4.77332">
        <ele>291</ele>
        <time>2022-04-03T06:55:55.000Z</time>
      </trkpt>
      <trkpt lat="49.65025" lon="4.7733">
        <ele>291</ele>
        <time>2022-04-03T06:55:56.000Z</time>
      </trkpt>
      <trkpt lat="49.65021" lon="4.77328">
        <ele>291</ele>
        <time>2022-04-03T06:55:57.000Z</time>
      </trkpt>
      <trkpt lat="49.65018" lon="4.77327">
        <ele>291</ele>
        <time>2022-04-03T06:55:58.000Z</time>
      </trkpt>
      <trkpt lat="49.65014" lon="4.77325">
        <ele>290</ele>
        <time>2022-04-03T06:55:59.000Z</time>
      </trkpt>
      <trkpt lat="49.6501" lon="4.77323">
        <ele>290</ele>
        <time>2022-04-03T06:56:00.000Z</time>
      </trkpt>
      <trkpt lat="49.65006" lon="4.77321">
        <ele>290</ele>
        <time>2022-04-03T06:56:01.000Z</time>
      </trkpt>
      <trkpt lat="49.65003" lon="4.77318">
        <ele>290</ele>
        <time>2022-04-03T06:56:02.000Z</time>
      </trkpt>
      <trkpt lat="49.64999" lon="4.77317">
        <ele>289</ele>
        <time>2022-04-03T06:56:03.000Z</time>
      </trkpt>
      <trkpt lat="49.64996" lon="4.77316">
        <ele>289</ele>
        <time>2022-04-03T06:56:04.000Z</time>
      </trkpt>
      <trkpt lat="49.64992" lon="4.77314">
        <ele>289</ele>
        <time>2022-04-03T06:56:05.000Z</time>
      </trkpt>
      <trkpt lat="49.64992" lon="4.77314">
        <ele>289</ele>
        <time>2022-04-03T06:56:06.000Z</time>
      </trkpt>
      <trkpt lat="49.64984" lon="4.7731">
        <ele>288</ele>
        <time>2022-04-03T06:56:07.000Z</time>
      </trkpt>
      <trkpt lat="49.64979" lon="4.77307">
        <ele>288</ele>
        <time>2022-04-03T06:56:08.000Z</time>
      </trkpt>
      <trkpt lat="49.64975" lon="4.77304">
        <ele>288</ele>
        <time>2022-04-03T06:56:09.000Z</time>
      </trkpt>
      <trkpt lat="49.6497" lon="4.77301">
        <ele>288</ele>
        <time>2022-04-03T06:56:10.000Z</time>
      </trkpt>
      <trkpt lat="49.64965" lon="4.77299">
        <ele>288</ele>
        <time>2022-04-03T06:56:11.000Z</time>
      </trkpt>
      <trkpt lat="49.6496" lon="4.77295">
        <ele>288</ele>
        <time>2022-04-03T06:56:12.000Z</time>
      </trkpt>
      <trkpt lat="49.64955" lon="4.77291">
        <ele>287</ele>
        <time>2022-04-03T06:56:13.000Z</time>
      </trkpt>
      <trkpt lat="49.6495" lon="4.77287">
        <ele>287</ele>
        <time>2022-04-03T06:56:14.000Z</time>
      </trkpt>
      <trkpt lat="49.64944" lon="4.77284">
        <ele>287</ele>
        <time>2022-04-03T06:56:15.000Z</time>
      </trkpt>
      <trkpt lat="49.64939" lon="4.7728">
        <ele>287</ele>
        <time>2022-04-03T06:56:16.000Z</time>
      </trkpt>
      <trkpt lat="49.64934" lon="4.77277">
        <ele>287</ele>
        <time>2022-04-03T06:56:17.000Z</time>
      </trkpt>
      <trkpt lat="49.64928" lon="4.77273">
        <ele>287</ele>
        <time>2022-04-03T06:56:18.000Z</time>
      </trkpt>
      <trkpt lat="49.64923" lon="4.77269">
        <ele>286</ele>
        <time>2022-04-03T06:56:19.000Z</time>
      </trkpt>
      <trkpt lat="49.64918" lon="4.77265">
        <ele>286</ele>
        <time>2022-04-03T06:56:20.000Z</time>
      </trkpt>
      <trkpt lat="49.64912" lon="4.7726">
        <ele>286</ele>
        <time>2022-04-03T06:56:21.000Z</time>
      </trkpt>
      <trkpt lat="49.64907" lon="4.77256">
        <ele>285</ele>
        <time>2022-04-03T06:56:22.000Z</time>
      </trkpt>
      <trkpt lat="49.64902" lon="4.77252">
        <ele>285</ele>
        <time>2022-04-03T06:56:23.000Z</time>
      </trkpt>
      <trkpt lat="49.64896" lon="4.77248">
        <ele>285</ele>
        <time>2022-04-03T06:56:24.000Z</time>
      </trkpt>
      <trkpt lat="49.64891" lon="4.77245">
        <ele>285</ele>
        <time>2022-04-03T06:56:25.000Z</time>
      </trkpt>
      <trkpt lat="49.64887" lon="4.77241">
        <ele>284</ele>
        <time>2022-04-03T06:56:26.000Z</time>
      </trkpt>
      <trkpt lat="49.64883" lon="4.77237">
        <ele>284</ele>
        <time>2022-04-03T06:56:27.000Z</time>
      </trkpt>
      <trkpt lat="49.64879" lon="4.77233">
        <ele>284</ele>
        <time>2022-04-03T06:56:28.000Z</time>
      </trkpt>
      <trkpt lat="49.64874" lon="4.77229">
        <ele>284</ele>
        <time>2022-04-03T06:56:29.000Z</time>
      </trkpt>
      <trkpt lat="49.64868" lon="4.77225">
        <ele>284</ele>
        <time>2022-04-03T06:56:30.000Z</time>
      </trkpt>
      <trkpt lat="49.64863" lon="4.77221">
        <ele>284</ele>
        <time>2022-04-03T06:56:31.000Z</time>
      </trkpt>
      <trkpt lat="49.64857" lon="4.77216">
        <ele>283</ele>
        <time>2022-04-03T06:56:32.000Z</time>
      </trkpt>
      <trkpt lat="49.64852" lon="4.77211">
        <ele>283</ele>
        <time>2022-04-03T06:56:33.000Z</time>
      </trkpt>
      <trkpt lat="49.64847" lon="4.77207">
        <ele>282</ele>
        <time>2022-04-03T06:56:34.000Z</time>
      </trkpt>
      <trkpt lat="49.64843" lon="4.77203">
        <ele>282</ele>
        <time>2022-04-03T06:56:35.000Z</time>
      </trkpt>
      <trkpt lat="49.64839" lon="4.77198">
        <ele>281</ele>
        <time>2022-04-03T06:56:36.000Z</time>
      </trkpt>
      <trkpt lat="49.64837" lon="4.77193">
        <ele>281</ele>
        <time>2022-04-03T06:56:37.000Z</time>
      </trkpt>
      <trkpt lat="49.64835" lon="4.77187">
        <ele>280</ele>
        <time>2022-04-03T06:56:38.000Z</time>
      </trkpt>
      <trkpt lat="49.64832" lon="4.77183">
        <ele>280</ele>
        <time>2022-04-03T06:56:39.000Z</time>
      </trkpt>
      <trkpt lat="49.64829" lon="4.77179">
        <ele>280</ele>
        <time>2022-04-03T06:56:40.000Z</time>
      </trkpt>
      <trkpt lat="49.64825" lon="4.77175">
        <ele>279</ele>
        <time>2022-04-03T06:56:41.000Z</time>
      </trkpt>
      <trkpt lat="49.6482" lon="4.77172">
        <ele>279</ele>
        <time>2022-04-03T06:56:42.000Z</time>
      </trkpt>
      <trkpt lat="49.64816" lon="4.77169">
        <ele>278</ele>
        <time>2022-04-03T06:56:43.000Z</time>
      </trkpt>
      <trkpt lat="49.6481" lon="4.77166">
        <ele>278</ele>
        <time>2022-04-03T06:56:44.000Z</time>
      </trkpt>
      <trkpt lat="49.64805" lon="4.77162">
        <ele>278</ele>
        <time>2022-04-03T06:56:45.000Z</time>
      </trkpt>
      <trkpt lat="49.648" lon="4.77159">
        <ele>277</ele>
        <time>2022-04-03T06:56:46.000Z</time>
      </trkpt>
      <trkpt lat="49.64795" lon="4.77155">
        <ele>277</ele>
        <time>2022-04-03T06:56:47.000Z</time>
      </trkpt>
      <trkpt lat="49.64791" lon="4.7715">
        <ele>277</ele>
        <time>2022-04-03T06:56:48.000Z</time>
      </trkpt>
      <trkpt lat="49.64786" lon="4.77147">
        <ele>276</ele>
        <time>2022-04-03T06:56:49.000Z</time>
      </trkpt>
      <trkpt lat="49.64782" lon="4.77143">
        <ele>276</ele>
        <time>2022-04-03T06:56:50.000Z</time>
      </trkpt>
      <trkpt lat="49.64778" lon="4.7714">
        <ele>275</ele>
        <time>2022-04-03T06:56:51.000Z</time>
      </trkpt>
      <trkpt lat="49.64775" lon="4.77137">
        <ele>275</ele>
        <time>2022-04-03T06:56:52.000Z</time>
      </trkpt>
      <trkpt lat="49.64771" lon="4.77134">
        <ele>275</ele>
        <time>2022-04-03T06:56:53.000Z</time>
      </trkpt>
      <trkpt lat="49.64767" lon="4.7713">
        <ele>275</ele>
        <time>2022-04-03T06:56:54.000Z</time>
      </trkpt>
      <trkpt lat="49.64762" lon="4.77126">
        <ele>274</ele>
        <time>2022-04-03T06:56:55.000Z</time>
      </trkpt>
      <trkpt lat="49.64757" lon="4.77122">
        <ele>274</ele>
        <time>2022-04-03T06:56:56.000Z</time>
      </trkpt>
      <trkpt lat="49.64752" lon="4.77117">
        <ele>274</ele>
        <time>2022-04-03T06:56:57.000Z</time>
      </trkpt>
      <trkpt lat="49.64748" lon="4.77111">
        <ele>273</ele>
        <time>2022-04-03T06:56:58.000Z</time>
      </trkpt>
      <trkpt lat="49.64743" lon="4.77106">
        <ele>273</ele>
        <time>2022-04-03T06:56:59.000Z</time>
      </trkpt>
      <trkpt lat="49.64739" lon="4.77101">
        <ele>273</ele>
        <time>2022-04-03T06:57:00.000Z</time>
      </trkpt>
      <trkpt lat="49.64736" lon="4.77096">
        <ele>272</ele>
        <time>2022-04-03T06:57:01.000Z</time>
      </trkpt>
      <trkpt lat="49.64733" lon="4.77093">
        <ele>272</ele>
        <time>2022-04-03T06:57:02.000Z</time>
      </trkpt>
      <trkpt lat="49.64729" lon="4.77089">
        <ele>272</ele>
        <time>2022-04-03T06:57:03.000Z</time>
      </trkpt>
      <trkpt lat="49.64726" lon="4.77085">
        <ele>271</ele>
        <time>2022-04-03T06:57:04.000Z</time>
      </trkpt>
      <trkpt lat="49.64722" lon="4.77081">
        <ele>271</ele>
        <time>2022-04-03T06:57:05.000Z</time>
      </trkpt>
      <trkpt lat="49.64718" lon="4.77077">
        <ele>271</ele>
        <time>2022-04-03T06:57:06.000Z</time>
      </trkpt>
      <trkpt lat="49.64716" lon="4.77074">
        <ele>270</ele>
        <time>2022-04-03T06:57:07.000Z</time>
      </trkpt>
      <trkpt lat="49.64713" lon="4.77072">
        <ele>270</ele>
        <time>2022-04-03T06:57:08.000Z</time>
      </trkpt>
      <trkpt lat="49.64711" lon="4.77072">
        <ele>270</ele>
        <time>2022-04-03T06:57:09.000Z</time>
      </trkpt>
      <trkpt lat="49.64709" lon="4.77072">
        <ele>269</ele>
        <time>2022-04-03T06:57:10.000Z</time>
      </trkpt>
      <trkpt lat="49.64707" lon="4.77073">
        <ele>269</ele>
        <time>2022-04-03T06:57:11.000Z</time>
      </trkpt>
      <trkpt lat="49.64705" lon="4.77072">
        <ele>269</ele>
        <time>2022-04-03T06:57:12.000Z</time>
      </trkpt>
      <trkpt lat="49.64703" lon="4.77071">
        <ele>268</ele>
        <time>2022-04-03T06:57:13.000Z</time>
      </trkpt>
      <trkpt lat="49.64701" lon="4.77068">
        <ele>268</ele>
        <time>2022-04-03T06:57:14.000Z</time>
      </trkpt>
      <trkpt lat="49.64701" lon="4.77068">
        <ele>268</ele>
        <time>2022-04-03T06:57:15.000Z</time>
      </trkpt>
      <trkpt lat="49.64698" lon="4.77065">
        <ele>268</ele>
        <time>2022-04-03T06:57:16.000Z</time>
      </trkpt>
      <trkpt lat="49.64692" lon="4.77058">
        <ele>267</ele>
        <time>2022-04-03T06:57:17.000Z</time>
      </trkpt>
      <trkpt lat="49.64689" lon="4.77055">
        <ele>267</ele>
        <time>2022-04-03T06:57:18.000Z</time>
      </trkpt>
      <trkpt lat="49.64686" lon="4.77051">
        <ele>266</ele>
        <time>2022-04-03T06:57:19.000Z</time>
      </trkpt>
      <trkpt lat="49.64682" lon="4.77048">
        <ele>266</ele>
        <time>2022-04-03T06:57:20.000Z</time>
      </trkpt>
      <trkpt lat="49.64679" lon="4.77045">
        <ele>266</ele>
        <time>2022-04-03T06:57:21.000Z</time>
      </trkpt>
      <trkpt lat="49.64677" lon="4.77042">
        <ele>265</ele>
        <time>2022-04-03T06:57:22.000Z</time>
      </trkpt>
      <trkpt lat="49.64674" lon="4.77039">
        <ele>265</ele>
        <time>2022-04-03T06:57:23.000Z</time>
      </trkpt>
      <trkpt lat="49.64674" lon="4.77039">
        <ele>265</ele>
        <time>2022-04-03T06:57:24.000Z</time>
      </trkpt>
      <trkpt lat="49.64668" lon="4.77031">
        <ele>264</ele>
        <time>2022-04-03T06:57:25.000Z</time>
      </trkpt>
      <trkpt lat="49.64665" lon="4.77027">
        <ele>264</ele>
        <time>2022-04-03T06:57:26.000Z</time>
      </trkpt>
      <trkpt lat="49.64665" lon="4.77027">
        <ele>264</ele>
        <time>2022-04-03T06:57:27.000Z</time>
      </trkpt>
      <trkpt lat="49.64661" lon="4.77023">
        <ele>263</ele>
        <time>2022-04-03T06:57:28.000Z</time>
      </trkpt>
      <trkpt lat="49.64655" lon="4.77015">
        <ele>263</ele>
        <time>2022-04-03T06:57:29.000Z</time>
      </trkpt>
      <trkpt lat="49.64655" lon="4.77015">
        <ele>263</ele>
        <time>2022-04-03T06:57:30.000Z</time>
      </trkpt>
      <trkpt lat="49.64652" lon="4.77011">
        <ele>262</ele>
        <time>2022-04-03T06:57:31.000Z</time>
      </trkpt>
      <trkpt lat="49.64646" lon="4.77003">
        <ele>261</ele>
        <time>2022-04-03T06:57:32.000Z</time>
      </trkpt>
      <trkpt lat="49.64643" lon="4.76998">
        <ele>261</ele>
        <time>2022-04-03T06:57:33.000Z</time>
      </trkpt>
      <trkpt lat="49.64639" lon="4.76993">
        <ele>260</ele>
        <time>2022-04-03T06:57:34.000Z</time>
      </trkpt>
      <trkpt lat="49.64639" lon="4.76993">
        <ele>260</ele>
        <time>2022-04-03T06:57:35.000Z</time>
      </trkpt>
      <trkpt lat="49.64632" lon="4.76984">
        <ele>259</ele>
        <time>2022-04-03T06:57:36.000Z</time>
      </trkpt>
      <trkpt lat="49.6463" lon="4.7698">
        <ele>259</ele>
        <time>2022-04-03T06:57:37.000Z</time>
      </trkpt>
      <trkpt lat="49.64626" lon="4.76975">
        <ele>259</ele>
        <time>2022-04-03T06:57:38.000Z</time>
      </trkpt>
      <trkpt lat="49.64623" lon="4.76972">
        <ele>258</ele>
        <time>2022-04-03T06:57:39.000Z</time>
      </trkpt>
      <trkpt lat="49.64623" lon="4.76972">
        <ele>258</ele>
        <time>2022-04-03T06:57:40.000Z</time>
      </trkpt>
      <trkpt lat="49.64621" lon="4.76969">
        <ele>258</ele>
        <time>2022-04-03T06:57:41.000Z</time>
      </trkpt>
      <trkpt lat="49.64619" lon="4.76965">
        <ele>257</ele>
        <time>2022-04-03T06:57:42.000Z</time>
      </trkpt>
      <trkpt lat="49.64613" lon="4.76957">
        <ele>257</ele>
        <time>2022-04-03T06:57:43.000Z</time>
      </trkpt>
      <trkpt lat="49.64613" lon="4.76957">
        <ele>257</ele>
        <time>2022-04-03T06:57:44.000Z</time>
      </trkpt>
      <trkpt lat="49.64607" lon="4.76948">
        <ele>256</ele>
        <time>2022-04-03T06:57:45.000Z</time>
      </trkpt>
      <trkpt lat="49.64607" lon="4.76948">
        <ele>256</ele>
        <time>2022-04-03T06:57:46.000Z</time>
      </trkpt>
      <trkpt lat="49.64603" lon="4.76944">
        <ele>255</ele>
        <time>2022-04-03T06:57:47.000Z</time>
      </trkpt>
      <trkpt lat="49.646" lon="4.76939">
        <ele>255</ele>
        <time>2022-04-03T06:57:48.000Z</time>
      </trkpt>
      <trkpt lat="49.64593" lon="4.76929">
        <ele>254</ele>
        <time>2022-04-03T06:57:49.000Z</time>
      </trkpt>
      <trkpt lat="49.64593" lon="4.76929">
        <ele>254</ele>
        <time>2022-04-03T06:57:50.000Z</time>
      </trkpt>
      <trkpt lat="49.6459" lon="4.76924">
        <ele>253</ele>
        <time>2022-04-03T06:57:51.000Z</time>
      </trkpt>
      <trkpt lat="49.64586" lon="4.76919">
        <ele>253</ele>
        <time>2022-04-03T06:57:52.000Z</time>
      </trkpt>
      <trkpt lat="49.64582" lon="4.76914">
        <ele>252</ele>
        <time>2022-04-03T06:57:53.000Z</time>
      </trkpt>
      <trkpt lat="49.64575" lon="4.76903">
        <ele>251</ele>
        <time>2022-04-03T06:57:54.000Z</time>
      </trkpt>
      <trkpt lat="49.64572" lon="4.76899">
        <ele>250</ele>
        <time>2022-04-03T06:57:55.000Z</time>
      </trkpt>
      <trkpt lat="49.64569" lon="4.76894">
        <ele>250</ele>
        <time>2022-04-03T06:57:56.000Z</time>
      </trkpt>
      <trkpt lat="49.64569" lon="4.76894">
        <ele>250</ele>
        <time>2022-04-03T06:57:57.000Z</time>
      </trkpt>
      <trkpt lat="49.64566" lon="4.7689">
        <ele>249</ele>
        <time>2022-04-03T06:57:58.000Z</time>
      </trkpt>
      <trkpt lat="49.64561" lon="4.76881">
        <ele>248</ele>
        <time>2022-04-03T06:57:59.000Z</time>
      </trkpt>
      <trkpt lat="49.64558" lon="4.76876">
        <ele>247</ele>
        <time>2022-04-03T06:58:00.000Z</time>
      </trkpt>
      <trkpt lat="49.64554" lon="4.76871">
        <ele>247</ele>
        <time>2022-04-03T06:58:01.000Z</time>
      </trkpt>
      <trkpt lat="49.64551" lon="4.76866">
        <ele>246</ele>
        <time>2022-04-03T06:58:02.000Z</time>
      </trkpt>
      <trkpt lat="49.64548" lon="4.7686">
        <ele>245</ele>
        <time>2022-04-03T06:58:03.000Z</time>
      </trkpt>
      <trkpt lat="49.64545" lon="4.76854">
        <ele>245</ele>
        <time>2022-04-03T06:58:04.000Z</time>
      </trkpt>
      <trkpt lat="49.64541" lon="4.76849">
        <ele>244</ele>
        <time>2022-04-03T06:58:05.000Z</time>
      </trkpt>
      <trkpt lat="49.64541" lon="4.76849">
        <ele>244</ele>
        <time>2022-04-03T06:58:06.000Z</time>
      </trkpt>
      <trkpt lat="49.64536" lon="4.76839">
        <ele>243</ele>
        <time>2022-04-03T06:58:07.000Z</time>
      </trkpt>
      <trkpt lat="49.64533" lon="4.76835">
        <ele>242</ele>
        <time>2022-04-03T06:58:08.000Z</time>
      </trkpt>
      <trkpt lat="49.6453" lon="4.7683">
        <ele>242</ele>
        <time>2022-04-03T06:58:09.000Z</time>
      </trkpt>
      <trkpt lat="49.64528" lon="4.76827">
        <ele>241</ele>
        <time>2022-04-03T06:58:10.000Z</time>
      </trkpt>
      <trkpt lat="49.64526" lon="4.76823">
        <ele>241</ele>
        <time>2022-04-03T06:58:11.000Z</time>
      </trkpt>
      <trkpt lat="49.64524" lon="4.76819">
        <ele>240</ele>
        <time>2022-04-03T06:58:12.000Z</time>
      </trkpt>
      <trkpt lat="49.64522" lon="4.76814">
        <ele>240</ele>
        <time>2022-04-03T06:58:13.000Z</time>
      </trkpt>
      <trkpt lat="49.64519" lon="4.7681">
        <ele>239</ele>
        <time>2022-04-03T06:58:14.000Z</time>
      </trkpt>
      <trkpt lat="49.64516" lon="4.76806">
        <ele>239</ele>
        <time>2022-04-03T06:58:15.000Z</time>
      </trkpt>
      <trkpt lat="49.64514" lon="4.76802">
        <ele>238</ele>
        <time>2022-04-03T06:58:16.000Z</time>
      </trkpt>
      <trkpt lat="49.64513" lon="4.76798">
        <ele>238</ele>
        <time>2022-04-03T06:58:17.000Z</time>
      </trkpt>
      <trkpt lat="49.64512" lon="4.76794">
        <ele>237</ele>
        <time>2022-04-03T06:58:18.000Z</time>
      </trkpt>
      <trkpt lat="49.6451" lon="4.76791">
        <ele>237</ele>
        <time>2022-04-03T06:58:19.000Z</time>
      </trkpt>
      <trkpt lat="49.64509" lon="4.76787">
        <ele>237</ele>
        <time>2022-04-03T06:58:20.000Z</time>
      </trkpt>
      <trkpt lat="49.64508" lon="4.76784">
        <ele>236</ele>
        <time>2022-04-03T06:58:21.000Z</time>
      </trkpt>
      <trkpt lat="49.64507" lon="4.76782">
        <ele>236</ele>
        <time>2022-04-03T06:58:22.000Z</time>
      </trkpt>
      <trkpt lat="49.64506" lon="4.76779">
        <ele>236</ele>
        <time>2022-04-03T06:58:23.000Z</time>
      </trkpt>
      <trkpt lat="49.64505" lon="4.76776">
        <ele>235</ele>
        <time>2022-04-03T06:58:24.000Z</time>
      </trkpt>
      <trkpt lat="49.64505" lon="4.76772">
        <ele>235</ele>
        <time>2022-04-03T06:58:25.000Z</time>
      </trkpt>
      <trkpt lat="49.64505" lon="4.76771">
        <ele>235</ele>
        <time>2022-04-03T06:58:26.000Z</time>
      </trkpt>
      <trkpt lat="49.64505" lon="4.76768">
        <ele>234</ele>
        <time>2022-04-03T06:58:27.000Z</time>
      </trkpt>
      <trkpt lat="49.64505" lon="4.76765">
        <ele>234</ele>
        <time>2022-04-03T06:58:28.000Z</time>
      </trkpt>
      <trkpt lat="49.64506" lon="4.76762">
        <ele>234</ele>
        <time>2022-04-03T06:58:29.000Z</time>
      </trkpt>
      <trkpt lat="49.64506" lon="4.76758">
        <ele>233</ele>
        <time>2022-04-03T06:58:30.000Z</time>
      </trkpt>
      <trkpt lat="49.64505" lon="4.76754">
        <ele>233</ele>
        <time>2022-04-03T06:58:31.000Z</time>
      </trkpt>
      <trkpt lat="49.64505" lon="4.7675">
        <ele>233</ele>
        <time>2022-04-03T06:58:32.000Z</time>
      </trkpt>
      <trkpt lat="49.64505" lon="4.76746">
        <ele>232</ele>
        <time>2022-04-03T06:58:33.000Z</time>
      </trkpt>
      <trkpt lat="49.64506" lon="4.76742">
        <ele>232</ele>
        <time>2022-04-03T06:58:34.000Z</time>
      </trkpt>
      <trkpt lat="49.64507" lon="4.7674">
        <ele>232</ele>
        <time>2022-04-03T06:58:35.000Z</time>
      </trkpt>
      <trkpt lat="49.64507" lon="4.76737">
        <ele>231</ele>
        <time>2022-04-03T06:58:36.000Z</time>
      </trkpt>
      <trkpt lat="49.64508" lon="4.76733">
        <ele>231</ele>
        <time>2022-04-03T06:58:37.000Z</time>
      </trkpt>
      <trkpt lat="49.64509" lon="4.7673">
        <ele>231</ele>
        <time>2022-04-03T06:58:38.000Z</time>
      </trkpt>
      <trkpt lat="49.64509" lon="4.76727">
        <ele>231</ele>
        <time>2022-04-03T06:58:39.000Z</time>
      </trkpt>
      <trkpt lat="49.64509" lon="4.76724">
        <ele>231</ele>
        <time>2022-04-03T06:58:40.000Z</time>
      </trkpt>
      <trkpt lat="49.64509" lon="4.76721">
        <ele>231</ele>
        <time>2022-04-03T06:58:41.000Z</time>
      </trkpt>
      <trkpt lat="49.64509" lon="4.76717">
        <ele>231</ele>
        <time>2022-04-03T06:58:42.000Z</time>
      </trkpt>
      <trkpt lat="49.64509" lon="4.76714">
        <ele>231</ele>
        <time>2022-04-03T06:58:43.000Z</time>
      </trkpt>
      <trkpt lat="49.64509" lon="4.7671">
        <ele>230</ele>
        <time>2022-04-03T06:58:44.000Z</time>
      </trkpt>
      <trkpt lat="49.64508" lon="4.76706">
        <ele>231</ele>
        <time>2022-04-03T06:58:45.000Z</time>
      </trkpt>
      <trkpt lat="49.64508" lon="4.76702">
        <ele>231</ele>
        <time>2022-04-03T06:58:46.000Z</time>
      </trkpt>
      <trkpt lat="49.64508" lon="4.76698">
        <ele>231</ele>
        <time>2022-04-03T06:58:47.000Z</time>
      </trkpt>
      <trkpt lat="49.64509" lon="4.76695">
        <ele>230</ele>
        <time>2022-04-03T06:58:48.000Z</time>
      </trkpt>
      <trkpt lat="49.6451" lon="4.76693">
        <ele>230</ele>
        <time>2022-04-03T06:58:49.000Z</time>
      </trkpt>
      <trkpt lat="49.64511" lon="4.76691">
        <ele>230</ele>
        <time>2022-04-03T06:58:50.000Z</time>
      </trkpt>
      <trkpt lat="49.64512" lon="4.7669">
        <ele>230</ele>
        <time>2022-04-03T06:58:51.000Z</time>
      </trkpt>
      <trkpt lat="49.64513" lon="4.76688">
        <ele>230</ele>
        <time>2022-04-03T06:58:52.000Z</time>
      </trkpt>
      <trkpt lat="49.64512" lon="4.76687">
        <ele>230</ele>
        <time>2022-04-03T06:58:53.000Z</time>
      </trkpt>
      <trkpt lat="49.64511" lon="4.76685">
        <ele>230</ele>
        <time>2022-04-03T06:58:54.000Z</time>
      </trkpt>
      <trkpt lat="49.6451" lon="4.76682">
        <ele>230</ele>
        <time>2022-04-03T06:58:55.000Z</time>
      </trkpt>
      <trkpt lat="49.6451" lon="4.76681">
        <ele>230</ele>
        <time>2022-04-03T06:58:56.000Z</time>
      </trkpt>
      <trkpt lat="49.64511" lon="4.76681">
        <ele>230</ele>
        <time>2022-04-03T06:58:57.000Z</time>
      </trkpt>
      <trkpt lat="49.64511" lon="4.76681">
        <ele>230</ele>
        <time>2022-04-03T06:58:58.000Z</time>
      </trkpt>
      <trkpt lat="49.64511" lon="4.7668">
        <ele>230</ele>
        <time>2022-04-03T06:58:59.000Z</time>
      </trkpt>
      <trkpt lat="49.64511" lon="4.7668">
        <ele>230</ele>
        <time>2022-04-03T06:59:00.000Z</time>
      </trkpt>
      <trkpt lat="49.64511" lon="4.76681">
        <ele>230</ele>
        <time>2022-04-03T06:59:01.000Z</time>
      </trkpt>
      <trkpt lat="49.64511" lon="4.76681">
        <ele>230</ele>
        <time>2022-04-03T06:59:02.000Z</time>
      </trkpt>
      <trkpt lat="49.6451" lon="4.76679">
        <ele>230</ele>
        <time>2022-04-03T06:59:03.000Z</time>
      </trkpt>
      <trkpt lat="49.64511" lon="4.76678">
        <ele>230</ele>
        <time>2022-04-03T06:59:04.000Z</time>
      </trkpt>
      <trkpt lat="49.64511" lon="4.76677">
        <ele>230</ele>
        <time>2022-04-03T06:59:05.000Z</time>
      </trkpt>
      <trkpt lat="49.64512" lon="4.76674">
        <ele>230</ele>
        <time>2022-04-03T06:59:06.000Z</time>
      </trkpt>
      <trkpt lat="49.64513" lon="4.76672">
        <ele>230</ele>
        <time>2022-04-03T06:59:07.000Z</time>
      </trkpt>
      <trkpt lat="49.64513" lon="4.76669">
        <ele>230</ele>
        <time>2022-04-03T06:59:08.000Z</time>
      </trkpt>
      <trkpt lat="49.64513" lon="4.76667">
        <ele>230</ele>
        <time>2022-04-03T06:59:09.000Z</time>
      </trkpt>
      <trkpt lat="49.64512" lon="4.76664">
        <ele>230</ele>
        <time>2022-04-03T06:59:10.000Z</time>
      </trkpt>
      <trkpt lat="49.64512" lon="4.76661">
        <ele>230</ele>
        <time>2022-04-03T06:59:11.000Z</time>
      </trkpt>
      <trkpt lat="49.64511" lon="4.76657">
        <ele>231</ele>
        <time>2022-04-03T06:59:12.000Z</time>
      </trkpt>
      <trkpt lat="49.6451" lon="4.76654">
        <ele>231</ele>
        <time>2022-04-03T06:59:13.000Z</time>
      </trkpt>
      <trkpt lat="49.64509" lon="4.76651">
        <ele>231</ele>
        <time>2022-04-03T06:59:14.000Z</time>
      </trkpt>
      <trkpt lat="49.64507" lon="4.76646">
        <ele>231</ele>
        <time>2022-04-03T06:59:15.000Z</time>
      </trkpt>
      <trkpt lat="49.64506" lon="4.76642">
        <ele>231</ele>
        <time>2022-04-03T06:59:16.000Z</time>
      </trkpt>
      <trkpt lat="49.64505" lon="4.76639">
        <ele>231</ele>
        <time>2022-04-03T06:59:17.000Z</time>
      </trkpt>
      <trkpt lat="49.64503" lon="4.76635">
        <ele>231</ele>
        <time>2022-04-03T06:59:18.000Z</time>
      </trkpt>
      <trkpt lat="49.64502" lon="4.76632">
        <ele>231</ele>
        <time>2022-04-03T06:59:19.000Z</time>
      </trkpt>
      <trkpt lat="49.64501" lon="4.76629">
        <ele>231</ele>
        <time>2022-04-03T06:59:20.000Z</time>
      </trkpt>
      <trkpt lat="49.645" lon="4.76626">
        <ele>232</ele>
        <time>2022-04-03T06:59:21.000Z</time>
      </trkpt>
      <trkpt lat="49.64499" lon="4.76623">
        <ele>232</ele>
        <time>2022-04-03T06:59:22.000Z</time>
      </trkpt>
      <trkpt lat="49.64498" lon="4.7662">
        <ele>232</ele>
        <time>2022-04-03T06:59:23.000Z</time>
      </trkpt>
      <trkpt lat="49.64496" lon="4.76617">
        <ele>232</ele>
        <time>2022-04-03T06:59:24.000Z</time>
      </trkpt>
      <trkpt lat="49.64495" lon="4.76614">
        <ele>232</ele>
        <time>2022-04-03T06:59:25.000Z</time>
      </trkpt>
      <trkpt lat="49.64494" lon="4.76611">
        <ele>233</ele>
        <time>2022-04-03T06:59:26.000Z</time>
      </trkpt>
      <trkpt lat="49.64492" lon="4.76608">
        <ele>233</ele>
        <time>2022-04-03T06:59:27.000Z</time>
      </trkpt>
      <trkpt lat="49.64491" lon="4.76605">
        <ele>233</ele>
        <time>2022-04-03T06:59:28.000Z</time>
      </trkpt>
      <trkpt lat="49.64489" lon="4.76602">
        <ele>234</ele>
        <time>2022-04-03T06:59:29.000Z</time>
      </trkpt>
      <trkpt lat="49.64487" lon="4.76599">
        <ele>234</ele>
        <time>2022-04-03T06:59:30.000Z</time>
      </trkpt>
      <trkpt lat="49.64485" lon="4.76596">
        <ele>234</ele>
        <time>2022-04-03T06:59:31.000Z</time>
      </trkpt>
      <trkpt lat="49.64483" lon="4.76593">
        <ele>234</ele>
        <time>2022-04-03T06:59:32.000Z</time>
      </trkpt>
      <trkpt lat="49.64481" lon="4.76589">
        <ele>234</ele>
        <time>2022-04-03T06:59:33.000Z</time>
      </trkpt>
      <trkpt lat="49.64479" lon="4.76586">
        <ele>234</ele>
        <time>2022-04-03T06:59:34.000Z</time>
      </trkpt>
      <trkpt lat="49.64477" lon="4.76582">
        <ele>234</ele>
        <time>2022-04-03T06:59:35.000Z</time>
      </trkpt>
      <trkpt lat="49.64475" lon="4.76578">
        <ele>234</ele>
        <time>2022-04-03T06:59:36.000Z</time>
      </trkpt>
      <trkpt lat="49.64473" lon="4.76575">
        <ele>234</ele>
        <time>2022-04-03T06:59:37.000Z</time>
      </trkpt>
      <trkpt lat="49.64472" lon="4.76571">
        <ele>234</ele>
        <time>2022-04-03T06:59:38.000Z</time>
      </trkpt>
      <trkpt lat="49.6447" lon="4.76567">
        <ele>235</ele>
        <time>2022-04-03T06:59:39.000Z</time>
      </trkpt>
      <trkpt lat="49.64468" lon="4.76563">
        <ele>235</ele>
        <time>2022-04-03T06:59:40.000Z</time>
      </trkpt>
      <trkpt lat="49.64466" lon="4.7656">
        <ele>235</ele>
        <time>2022-04-03T06:59:41.000Z</time>
      </trkpt>
      <trkpt lat="49.64465" lon="4.76557">
        <ele>235</ele>
        <time>2022-04-03T06:59:42.000Z</time>
      </trkpt>
      <trkpt lat="49.64463" lon="4.76553">
        <ele>235</ele>
        <time>2022-04-03T06:59:43.000Z</time>
      </trkpt>
      <trkpt lat="49.64461" lon="4.7655">
        <ele>235</ele>
        <time>2022-04-03T06:59:44.000Z</time>
      </trkpt>
      <trkpt lat="49.64459" lon="4.76547">
        <ele>235</ele>
        <time>2022-04-03T06:59:45.000Z</time>
      </trkpt>
      <trkpt lat="49.64458" lon="4.76544">
        <ele>235</ele>
        <time>2022-04-03T06:59:46.000Z</time>
      </trkpt>
      <trkpt lat="49.64456" lon="4.7654">
        <ele>235</ele>
        <time>2022-04-03T06:59:47.000Z</time>
      </trkpt>
      <trkpt lat="49.64455" lon="4.76537">
        <ele>235</ele>
        <time>2022-04-03T06:59:48.000Z</time>
      </trkpt>
      <trkpt lat="49.64453" lon="4.76534">
        <ele>235</ele>
        <time>2022-04-03T06:59:49.000Z</time>
      </trkpt>
      <trkpt lat="49.64451" lon="4.76531">
        <ele>235</ele>
        <time>2022-04-03T06:59:50.000Z</time>
      </trkpt>
      <trkpt lat="49.6445" lon="4.76528">
        <ele>235</ele>
        <time>2022-04-03T06:59:51.000Z</time>
      </trkpt>
      <trkpt lat="49.64448" lon="4.76525">
        <ele>235</ele>
        <time>2022-04-03T06:59:52.000Z</time>
      </trkpt>
      <trkpt lat="49.64446" lon="4.76522">
        <ele>235</ele>
        <time>2022-04-03T06:59:53.000Z</time>
      </trkpt>
      <trkpt lat="49.64445" lon="4.7652">
        <ele>235</ele>
        <time>2022-04-03T06:59:54.000Z</time>
      </trkpt>
      <trkpt lat="49.64444" lon="4.76517">
        <ele>235</ele>
        <time>2022-04-03T06:59:55.000Z</time>
      </trkpt>
      <trkpt lat="49.64442" lon="4.76514">
        <ele>235</ele>
        <time>2022-04-03T06:59:56.000Z</time>
      </trkpt>
      <trkpt lat="49.64441" lon="4.76511">
        <ele>235</ele>
        <time>2022-04-03T06:59:57.000Z</time>
      </trkpt>
      <trkpt lat="49.6444" lon="4.76508">
        <ele>235</ele>
        <time>2022-04-03T06:59:58.000Z</time>
      </trkpt>
      <trkpt lat="49.64439" lon="4.76506">
        <ele>235</ele>
        <time>2022-04-03T06:59:59.000Z</time>
      </trkpt>
      <trkpt lat="49.64438" lon="4.76503">
        <ele>236</ele>
        <time>2022-04-03T07:00:00.000Z</time>
      </trkpt>
      <trkpt lat="49.64437" lon="4.765">
        <ele>236</ele>
        <time>2022-04-03T07:00:01.000Z</time>
      </trkpt>
      <trkpt lat="49.64436" lon="4.76497">
        <ele>236</ele>
        <time>2022-04-03T07:00:02.000Z</time>
      </trkpt>
      <trkpt lat="49.64436" lon="4.76495">
        <ele>236</ele>
        <time>2022-04-03T07:00:03.000Z</time>
      </trkpt>
      <trkpt lat="49.64434" lon="4.76492">
        <ele>236</ele>
        <time>2022-04-03T07:00:04.000Z</time>
      </trkpt>
      <trkpt lat="49.64433" lon="4.76489">
        <ele>236</ele>
        <time>2022-04-03T07:00:05.000Z</time>
      </trkpt>
      <trkpt lat="49.64432" lon="4.76486">
        <ele>236</ele>
        <time>2022-04-03T07:00:06.000Z</time>
      </trkpt>
      <trkpt lat="49.64431" lon="4.76484">
        <ele>236</ele>
        <time>2022-04-03T07:00:07.000Z</time>
      </trkpt>
      <trkpt lat="49.6443" lon="4.76482">
        <ele>236</ele>
        <time>2022-04-03T07:00:08.000Z</time>
      </trkpt>
      <trkpt lat="49.64429" lon="4.76479">
        <ele>237</ele>
        <time>2022-04-03T07:00:09.000Z</time>
      </trkpt>
      <trkpt lat="49.64429" lon="4.76477">
        <ele>237</ele>
        <time>2022-04-03T07:00:10.000Z</time>
      </trkpt>
      <trkpt lat="49.64428" lon="4.76474">
        <ele>237</ele>
        <time>2022-04-03T07:00:11.000Z</time>
      </trkpt>
      <trkpt lat="49.64427" lon="4.76471">
        <ele>237</ele>
        <time>2022-04-03T07:00:12.000Z</time>
      </trkpt>
      <trkpt lat="49.64426" lon="4.76469">
        <ele>237</ele>
        <time>2022-04-03T07:00:13.000Z</time>
      </trkpt>
      <trkpt lat="49.64425" lon="4.76466">
        <ele>237</ele>
        <time>2022-04-03T07:00:14.000Z</time>
      </trkpt>
      <trkpt lat="49.64424" lon="4.76464">
        <ele>237</ele>
        <time>2022-04-03T07:00:15.000Z</time>
      </trkpt>
      <trkpt lat="49.64423" lon="4.76461">
        <ele>237</ele>
        <time>2022-04-03T07:00:16.000Z</time>
      </trkpt>
      <trkpt lat="49.64422" lon="4.76458">
        <ele>237</ele>
        <time>2022-04-03T07:00:17.000Z</time>
      </trkpt>
      <trkpt lat="49.6442" lon="4.76456">
        <ele>237</ele>
        <time>2022-04-03T07:00:18.000Z</time>
      </trkpt>
      <trkpt lat="49.6442" lon="4.76454">
        <ele>237</ele>
        <time>2022-04-03T07:00:19.000Z</time>
      </trkpt>
      <trkpt lat="49.64419" lon="4.76452">
        <ele>238</ele>
        <time>2022-04-03T07:00:20.000Z</time>
      </trkpt>
      <trkpt lat="49.64418" lon="4.7645">
        <ele>238</ele>
        <time>2022-04-03T07:00:21.000Z</time>
      </trkpt>
      <trkpt lat="49.64416" lon="4.76448">
        <ele>238</ele>
        <time>2022-04-03T07:00:22.000Z</time>
      </trkpt>
      <trkpt lat="49.64415" lon="4.76446">
        <ele>239</ele>
        <time>2022-04-03T07:00:23.000Z</time>
      </trkpt>
      <trkpt lat="49.64415" lon="4.76443">
        <ele>239</ele>
        <time>2022-04-03T07:00:24.000Z</time>
      </trkpt>
      <trkpt lat="49.64414" lon="4.76441">
        <ele>240</ele>
        <time>2022-04-03T07:00:25.000Z</time>
      </trkpt>
      <trkpt lat="49.64413" lon="4.76438">
        <ele>240</ele>
        <time>2022-04-03T07:00:26.000Z</time>
      </trkpt>
      <trkpt lat="49.64412" lon="4.76435">
        <ele>241</ele>
        <time>2022-04-03T07:00:27.000Z</time>
      </trkpt>
      <trkpt lat="49.64412" lon="4.76433">
        <ele>241</ele>
        <time>2022-04-03T07:00:28.000Z</time>
      </trkpt>
      <trkpt lat="49.64411" lon="4.7643">
        <ele>241</ele>
        <time>2022-04-03T07:00:29.000Z</time>
      </trkpt>
      <trkpt lat="49.6441" lon="4.76427">
        <ele>242</ele>
        <time>2022-04-03T07:00:30.000Z</time>
      </trkpt>
      <trkpt lat="49.64409" lon="4.76424">
        <ele>242</ele>
        <time>2022-04-03T07:00:31.000Z</time>
      </trkpt>
      <trkpt lat="49.64408" lon="4.76421">
        <ele>242</ele>
        <time>2022-04-03T07:00:32.000Z</time>
      </trkpt>
      <trkpt lat="49.64407" lon="4.76419">
        <ele>242</ele>
        <time>2022-04-03T07:00:33.000Z</time>
      </trkpt>
      <trkpt lat="49.64406" lon="4.76417">
        <ele>242</ele>
        <time>2022-04-03T07:00:34.000Z</time>
      </trkpt>
      <trkpt lat="49.64406" lon="4.76415">
        <ele>243</ele>
        <time>2022-04-03T07:00:35.000Z</time>
      </trkpt>
      <trkpt lat="49.64405" lon="4.76413">
        <ele>243</ele>
        <time>2022-04-03T07:00:36.000Z</time>
      </trkpt>
      <trkpt lat="49.64404" lon="4.7641">
        <ele>243</ele>
        <time>2022-04-03T07:00:37.000Z</time>
      </trkpt>
      <trkpt lat="49.64403" lon="4.76407">
        <ele>243</ele>
        <time>2022-04-03T07:00:38.000Z</time>
      </trkpt>
      <trkpt lat="49.64401" lon="4.76404">
        <ele>243</ele>
        <time>2022-04-03T07:00:39.000Z</time>
      </trkpt>
      <trkpt lat="49.644" lon="4.76401">
        <ele>243</ele>
        <time>2022-04-03T07:00:40.000Z</time>
      </trkpt>
      <trkpt lat="49.64399" lon="4.76398">
        <ele>243</ele>
        <time>2022-04-03T07:00:41.000Z</time>
      </trkpt>
      <trkpt lat="49.64397" lon="4.76396">
        <ele>244</ele>
        <time>2022-04-03T07:00:42.000Z</time>
      </trkpt>
      <trkpt lat="49.64396" lon="4.76393">
        <ele>244</ele>
        <time>2022-04-03T07:00:43.000Z</time>
      </trkpt>
      <trkpt lat="49.64395" lon="4.76391">
        <ele>244</ele>
        <time>2022-04-03T07:00:44.000Z</time>
      </trkpt>
      <trkpt lat="49.64395" lon="4.76389">
        <ele>244</ele>
        <time>2022-04-03T07:00:45.000Z</time>
      </trkpt>
      <trkpt lat="49.64394" lon="4.76386">
        <ele>244</ele>
        <time>2022-04-03T07:00:46.000Z</time>
      </trkpt>
      <trkpt lat="49.64393" lon="4.76383">
        <ele>245</ele>
        <time>2022-04-03T07:00:47.000Z</time>
      </trkpt>
      <trkpt lat="49.64393" lon="4.7638">
        <ele>245</ele>
        <time>2022-04-03T07:00:48.000Z</time>
      </trkpt>
      <trkpt lat="49.64393" lon="4.76378">
        <ele>245</ele>
        <time>2022-04-03T07:00:49.000Z</time>
      </trkpt>
      <trkpt lat="49.64394" lon="4.76376">
        <ele>245</ele>
        <time>2022-04-03T07:00:50.000Z</time>
      </trkpt>
      <trkpt lat="49.64396" lon="4.76373">
        <ele>245</ele>
        <time>2022-04-03T07:00:51.000Z</time>
      </trkpt>
      <trkpt lat="49.64397" lon="4.76371">
        <ele>245</ele>
        <time>2022-04-03T07:00:52.000Z</time>
      </trkpt>
      <trkpt lat="49.64399" lon="4.76369">
        <ele>245</ele>
        <time>2022-04-03T07:00:53.000Z</time>
      </trkpt>
      <trkpt lat="49.644" lon="4.76368">
        <ele>246</ele>
        <time>2022-04-03T07:00:54.000Z</time>
      </trkpt>
      <trkpt lat="49.64401" lon="4.76368">
        <ele>246</ele>
        <time>2022-04-03T07:00:55.000Z</time>
      </trkpt>
      <trkpt lat="49.64403" lon="4.76367">
        <ele>246</ele>
        <time>2022-04-03T07:00:56.000Z</time>
      </trkpt>
      <trkpt lat="49.64404" lon="4.76366">
        <ele>246</ele>
        <time>2022-04-03T07:00:57.000Z</time>
      </trkpt>
      <trkpt lat="49.64405" lon="4.76365">
        <ele>246</ele>
        <time>2022-04-03T07:00:58.000Z</time>
      </trkpt>
      <trkpt lat="49.64406" lon="4.76364">
        <ele>247</ele>
        <time>2022-04-03T07:00:59.000Z</time>
      </trkpt>
      <trkpt lat="49.64407" lon="4.76363">
        <ele>247</ele>
        <time>2022-04-03T07:01:00.000Z</time>
      </trkpt>
      <trkpt lat="49.64409" lon="4.76362">
        <ele>247</ele>
        <time>2022-04-03T07:01:01.000Z</time>
      </trkpt>
      <trkpt lat="49.6441" lon="4.76361">
        <ele>247</ele>
        <time>2022-04-03T07:01:02.000Z</time>
      </trkpt>
      <trkpt lat="49.64412" lon="4.7636">
        <ele>248</ele>
        <time>2022-04-03T07:01:03.000Z</time>
      </trkpt>
      <trkpt lat="49.64413" lon="4.7636">
        <ele>248</ele>
        <time>2022-04-03T07:01:04.000Z</time>
      </trkpt>
      <trkpt lat="49.64415" lon="4.7636">
        <ele>248</ele>
        <time>2022-04-03T07:01:05.000Z</time>
      </trkpt>
      <trkpt lat="49.64416" lon="4.76359">
        <ele>248</ele>
        <time>2022-04-03T07:01:06.000Z</time>
      </trkpt>
      <trkpt lat="49.64417" lon="4.76359">
        <ele>248</ele>
        <time>2022-04-03T07:01:07.000Z</time>
      </trkpt>
      <trkpt lat="49.64419" lon="4.76359">
        <ele>248</ele>
        <time>2022-04-03T07:01:08.000Z</time>
      </trkpt>
      <trkpt lat="49.6442" lon="4.76358">
        <ele>248</ele>
        <time>2022-04-03T07:01:09.000Z</time>
      </trkpt>
      <trkpt lat="49.64422" lon="4.76358">
        <ele>249</ele>
        <time>2022-04-03T07:01:10.000Z</time>
      </trkpt>
      <trkpt lat="49.64424" lon="4.76357">
        <ele>249</ele>
        <time>2022-04-03T07:01:11.000Z</time>
      </trkpt>
      <trkpt lat="49.64426" lon="4.76356">
        <ele>249</ele>
        <time>2022-04-03T07:01:12.000Z</time>
      </trkpt>
      <trkpt lat="49.64428" lon="4.76356">
        <ele>249</ele>
        <time>2022-04-03T07:01:13.000Z</time>
      </trkpt>
      <trkpt lat="49.6443" lon="4.76355">
        <ele>249</ele>
        <time>2022-04-03T07:01:14.000Z</time>
      </trkpt>
      <trkpt lat="49.64432" lon="4.76354">
        <ele>249</ele>
        <time>2022-04-03T07:01:15.000Z</time>
      </trkpt>
      <trkpt lat="49.64434" lon="4.76353">
        <ele>249</ele>
        <time>2022-04-03T07:01:16.000Z</time>
      </trkpt>
      <trkpt lat="49.64435" lon="4.76351">
        <ele>250</ele>
        <time>2022-04-03T07:01:17.000Z</time>
      </trkpt>
      <trkpt lat="49.64437" lon="4.7635">
        <ele>250</ele>
        <time>2022-04-03T07:01:18.000Z</time>
      </trkpt>
      <trkpt lat="49.64439" lon="4.76349">
        <ele>250</ele>
        <time>2022-04-03T07:01:19.000Z</time>
      </trkpt>
      <trkpt lat="49.6444" lon="4.76347">
        <ele>250</ele>
        <time>2022-04-03T07:01:20.000Z</time>
      </trkpt>
      <trkpt lat="49.64442" lon="4.76346">
        <ele>250</ele>
        <time>2022-04-03T07:01:21.000Z</time>
      </trkpt>
      <trkpt lat="49.64445" lon="4.76345">
        <ele>250</ele>
        <time>2022-04-03T07:01:22.000Z</time>
      </trkpt>
      <trkpt lat="49.64446" lon="4.76344">
        <ele>250</ele>
        <time>2022-04-03T07:01:23.000Z</time>
      </trkpt>
      <trkpt lat="49.64448" lon="4.76344">
        <ele>251</ele>
        <time>2022-04-03T07:01:24.000Z</time>
      </trkpt>
      <trkpt lat="49.6445" lon="4.76343">
        <ele>251</ele>
        <time>2022-04-03T07:01:25.000Z</time>
      </trkpt>
      <trkpt lat="49.64452" lon="4.76342">
        <ele>251</ele>
        <time>2022-04-03T07:01:26.000Z</time>
      </trkpt>
      <trkpt lat="49.64454" lon="4.76341">
        <ele>252</ele>
        <time>2022-04-03T07:01:27.000Z</time>
      </trkpt>
      <trkpt lat="49.64456" lon="4.7634">
        <ele>252</ele>
        <time>2022-04-03T07:01:28.000Z</time>
      </trkpt>
      <trkpt lat="49.64458" lon="4.76339">
        <ele>252</ele>
        <time>2022-04-03T07:01:29.000Z</time>
      </trkpt>
      <trkpt lat="49.6446" lon="4.76339">
        <ele>252</ele>
        <time>2022-04-03T07:01:30.000Z</time>
      </trkpt>
      <trkpt lat="49.64462" lon="4.76338">
        <ele>253</ele>
        <time>2022-04-03T07:01:31.000Z</time>
      </trkpt>
      <trkpt lat="49.64464" lon="4.76337">
        <ele>253</ele>
        <time>2022-04-03T07:01:32.000Z</time>
      </trkpt>
      <trkpt lat="49.64465" lon="4.76336">
        <ele>253</ele>
        <time>2022-04-03T07:01:33.000Z</time>
      </trkpt>
      <trkpt lat="49.64467" lon="4.76335">
        <ele>253</ele>
        <time>2022-04-03T07:01:34.000Z</time>
      </trkpt>
      <trkpt lat="49.64469" lon="4.76334">
        <ele>254</ele>
        <time>2022-04-03T07:01:35.000Z</time>
      </trkpt>
      <trkpt lat="49.64471" lon="4.76333">
        <ele>254</ele>
        <time>2022-04-03T07:01:36.000Z</time>
      </trkpt>
      <trkpt lat="49.64472" lon="4.76331">
        <ele>254</ele>
        <time>2022-04-03T07:01:37.000Z</time>
      </trkpt>
      <trkpt lat="49.64474" lon="4.7633">
        <ele>254</ele>
        <time>2022-04-03T07:01:38.000Z</time>
      </trkpt>
      <trkpt lat="49.64476" lon="4.76329">
        <ele>255</ele>
        <time>2022-04-03T07:01:39.000Z</time>
      </trkpt>
      <trkpt lat="49.64478" lon="4.76329">
        <ele>255</ele>
        <time>2022-04-03T07:01:40.000Z</time>
      </trkpt>
      <trkpt lat="49.6448" lon="4.76328">
        <ele>255</ele>
        <time>2022-04-03T07:01:41.000Z</time>
      </trkpt>
      <trkpt lat="49.64481" lon="4.76327">
        <ele>256</ele>
        <time>2022-04-03T07:01:42.000Z</time>
      </trkpt>
      <trkpt lat="49.64483" lon="4.76326">
        <ele>256</ele>
        <time>2022-04-03T07:01:43.000Z</time>
      </trkpt>
      <trkpt lat="49.64485" lon="4.76326">
        <ele>256</ele>
        <time>2022-04-03T07:01:44.000Z</time>
      </trkpt>
      <trkpt lat="49.64487" lon="4.76325">
        <ele>256</ele>
        <time>2022-04-03T07:01:45.000Z</time>
      </trkpt>
      <trkpt lat="49.6449" lon="4.76325">
        <ele>256</ele>
        <time>2022-04-03T07:01:46.000Z</time>
      </trkpt>
      <trkpt lat="49.64492" lon="4.76325">
        <ele>256</ele>
        <time>2022-04-03T07:01:47.000Z</time>
      </trkpt>
      <trkpt lat="49.64494" lon="4.76324">
        <ele>257</ele>
        <time>2022-04-03T07:01:48.000Z</time>
      </trkpt>
      <trkpt lat="49.64496" lon="4.76324">
        <ele>257</ele>
        <time>2022-04-03T07:01:49.000Z</time>
      </trkpt>
      <trkpt lat="49.64497" lon="4.76324">
        <ele>257</ele>
        <time>2022-04-03T07:01:50.000Z</time>
      </trkpt>
      <trkpt lat="49.64499" lon="4.76323">
        <ele>257</ele>
        <time>2022-04-03T07:01:51.000Z</time>
      </trkpt>
      <trkpt lat="49.645" lon="4.76323">
        <ele>257</ele>
        <time>2022-04-03T07:01:52.000Z</time>
      </trkpt>
      <trkpt lat="49.64502" lon="4.76323">
        <ele>258</ele>
        <time>2022-04-03T07:01:53.000Z</time>
      </trkpt>
      <trkpt lat="49.64504" lon="4.76322">
        <ele>258</ele>
        <time>2022-04-03T07:01:54.000Z</time>
      </trkpt>
      <trkpt lat="49.64506" lon="4.76322">
        <ele>258</ele>
        <time>2022-04-03T07:01:55.000Z</time>
      </trkpt>
      <trkpt lat="49.64508" lon="4.76321">
        <ele>259</ele>
        <time>2022-04-03T07:01:56.000Z</time>
      </trkpt>
      <trkpt lat="49.6451" lon="4.76321">
        <ele>259</ele>
        <time>2022-04-03T07:01:57.000Z</time>
      </trkpt>
      <trkpt lat="49.64511" lon="4.7632">
        <ele>259</ele>
        <time>2022-04-03T07:01:58.000Z</time>
      </trkpt>
      <trkpt lat="49.64513" lon="4.7632">
        <ele>260</ele>
        <time>2022-04-03T07:01:59.000Z</time>
      </trkpt>
      <trkpt lat="49.64515" lon="4.76319">
        <ele>260</ele>
        <time>2022-04-03T07:02:00.000Z</time>
      </trkpt>
      <trkpt lat="49.64517" lon="4.76319">
        <ele>260</ele>
        <time>2022-04-03T07:02:01.000Z</time>
      </trkpt>
      <trkpt lat="49.64519" lon="4.76319">
        <ele>260</ele>
        <time>2022-04-03T07:02:02.000Z</time>
      </trkpt>
      <trkpt lat="49.64521" lon="4.76318">
        <ele>261</ele>
        <time>2022-04-03T07:02:03.000Z</time>
      </trkpt>
      <trkpt lat="49.64522" lon="4.76317">
        <ele>261</ele>
        <time>2022-04-03T07:02:04.000Z</time>
      </trkpt>
      <trkpt lat="49.64524" lon="4.76316">
        <ele>261</ele>
        <time>2022-04-03T07:02:05.000Z</time>
      </trkpt>
      <trkpt lat="49.64526" lon="4.76316">
        <ele>262</ele>
        <time>2022-04-03T07:02:06.000Z</time>
      </trkpt>
      <trkpt lat="49.64528" lon="4.76315">
        <ele>262</ele>
        <time>2022-04-03T07:02:07.000Z</time>
      </trkpt>
      <trkpt lat="49.64529" lon="4.76315">
        <ele>262</ele>
        <time>2022-04-03T07:02:08.000Z</time>
      </trkpt>
      <trkpt lat="49.64531" lon="4.76314">
        <ele>263</ele>
        <time>2022-04-03T07:02:09.000Z</time>
      </trkpt>
      <trkpt lat="49.64533" lon="4.76313">
        <ele>263</ele>
        <time>2022-04-03T07:02:10.000Z</time>
      </trkpt>
      <trkpt lat="49.64535" lon="4.76312">
        <ele>263</ele>
        <time>2022-04-03T07:02:11.000Z</time>
      </trkpt>
      <trkpt lat="49.64536" lon="4.76312">
        <ele>263</ele>
        <time>2022-04-03T07:02:12.000Z</time>
      </trkpt>
      <trkpt lat="49.64538" lon="4.76312">
        <ele>264</ele>
        <time>2022-04-03T07:02:13.000Z</time>
      </trkpt>
      <trkpt lat="49.64539" lon="4.76311">
        <ele>264</ele>
        <time>2022-04-03T07:02:14.000Z</time>
      </trkpt>
      <trkpt lat="49.64541" lon="4.7631">
        <ele>264</ele>
        <time>2022-04-03T07:02:15.000Z</time>
      </trkpt>
      <trkpt lat="49.64542" lon="4.7631">
        <ele>264</ele>
        <time>2022-04-03T07:02:16.000Z</time>
      </trkpt>
      <trkpt lat="49.64544" lon="4.76309">
        <ele>264</ele>
        <time>2022-04-03T07:02:17.000Z</time>
      </trkpt>
      <trkpt lat="49.64545" lon="4.76308">
        <ele>265</ele>
        <time>2022-04-03T07:02:18.000Z</time>
      </trkpt>
      <trkpt lat="49.64547" lon="4.76308">
        <ele>265</ele>
        <time>2022-04-03T07:02:19.000Z</time>
      </trkpt>
      <trkpt lat="49.64549" lon="4.76307">
        <ele>265</ele>
        <time>2022-04-03T07:02:20.000Z</time>
      </trkpt>
      <trkpt lat="49.64551" lon="4.76307">
        <ele>265</ele>
        <time>2022-04-03T07:02:21.000Z</time>
      </trkpt>
      <trkpt lat="49.64552" lon="4.76306">
        <ele>266</ele>
        <time>2022-04-03T07:02:22.000Z</time>
      </trkpt>
      <trkpt lat="49.64554" lon="4.76304">
        <ele>266</ele>
        <time>2022-04-03T07:02:23.000Z</time>
      </trkpt>
      <trkpt lat="49.64555" lon="4.76303">
        <ele>266</ele>
        <time>2022-04-03T07:02:24.000Z</time>
      </trkpt>
      <trkpt lat="49.64557" lon="4.76302">
        <ele>266</ele>
        <time>2022-04-03T07:02:25.000Z</time>
      </trkpt>
      <trkpt lat="49.64559" lon="4.76301">
        <ele>267</ele>
        <time>2022-04-03T07:02:26.000Z</time>
      </trkpt>
      <trkpt lat="49.64561" lon="4.763">
        <ele>267</ele>
        <time>2022-04-03T07:02:27.000Z</time>
      </trkpt>
      <trkpt lat="49.64562" lon="4.76298">
        <ele>267</ele>
        <time>2022-04-03T07:02:28.000Z</time>
      </trkpt>
      <trkpt lat="49.64563" lon="4.76297">
        <ele>267</ele>
        <time>2022-04-03T07:02:29.000Z</time>
      </trkpt>
      <trkpt lat="49.64565" lon="4.76296">
        <ele>268</ele>
        <time>2022-04-03T07:02:30.000Z</time>
      </trkpt>
      <trkpt lat="49.64567" lon="4.76296">
        <ele>268</ele>
        <time>2022-04-03T07:02:31.000Z</time>
      </trkpt>
      <trkpt lat="49.64568" lon="4.76296">
        <ele>268</ele>
        <time>2022-04-03T07:02:32.000Z</time>
      </trkpt>
      <trkpt lat="49.6457" lon="4.76295">
        <ele>268</ele>
        <time>2022-04-03T07:02:33.000Z</time>
      </trkpt>
      <trkpt lat="49.64572" lon="4.76294">
        <ele>269</ele>
        <time>2022-04-03T07:02:34.000Z</time>
      </trkpt>
      <trkpt lat="49.64574" lon="4.76293">
        <ele>269</ele>
        <time>2022-04-03T07:02:35.000Z</time>
      </trkpt>
      <trkpt lat="49.64575" lon="4.76293">
        <ele>269</ele>
        <time>2022-04-03T07:02:36.000Z</time>
      </trkpt>
      <trkpt lat="49.64577" lon="4.76292">
        <ele>269</ele>
        <time>2022-04-03T07:02:37.000Z</time>
      </trkpt>
      <trkpt lat="49.64578" lon="4.76292">
        <ele>270</ele>
        <time>2022-04-03T07:02:38.000Z</time>
      </trkpt>
      <trkpt lat="49.6458" lon="4.76291">
        <ele>270</ele>
        <time>2022-04-03T07:02:39.000Z</time>
      </trkpt>
      <trkpt lat="49.64582" lon="4.7629">
        <ele>270</ele>
        <time>2022-04-03T07:02:40.000Z</time>
      </trkpt>
      <trkpt lat="49.64583" lon="4.76289">
        <ele>270</ele>
        <time>2022-04-03T07:02:41.000Z</time>
      </trkpt>
      <trkpt lat="49.64585" lon="4.76289">
        <ele>271</ele>
        <time>2022-04-03T07:02:42.000Z</time>
      </trkpt>
      <trkpt lat="49.64588" lon="4.76288">
        <ele>271</ele>
        <time>2022-04-03T07:02:43.000Z</time>
      </trkpt>
      <trkpt lat="49.64589" lon="4.76287">
        <ele>271</ele>
        <time>2022-04-03T07:02:44.000Z</time>
      </trkpt>
      <trkpt lat="49.64592" lon="4.76287">
        <ele>271</ele>
        <time>2022-04-03T07:02:45.000Z</time>
      </trkpt>
      <trkpt lat="49.64593" lon="4.76287">
        <ele>271</ele>
        <time>2022-04-03T07:02:46.000Z</time>
      </trkpt>
      <trkpt lat="49.64595" lon="4.76286">
        <ele>272</ele>
        <time>2022-04-03T07:02:47.000Z</time>
      </trkpt>
      <trkpt lat="49.64597" lon="4.76285">
        <ele>272</ele>
        <time>2022-04-03T07:02:48.000Z</time>
      </trkpt>
      <trkpt lat="49.646" lon="4.76284">
        <ele>272</ele>
        <time>2022-04-03T07:02:49.000Z</time>
      </trkpt>
      <trkpt lat="49.64602" lon="4.76284">
        <ele>272</ele>
        <time>2022-04-03T07:02:50.000Z</time>
      </trkpt>
      <trkpt lat="49.64604" lon="4.76283">
        <ele>273</ele>
        <time>2022-04-03T07:02:51.000Z</time>
      </trkpt>
      <trkpt lat="49.64607" lon="4.76282">
        <ele>273</ele>
        <time>2022-04-03T07:02:52.000Z</time>
      </trkpt>
      <trkpt lat="49.64609" lon="4.76281">
        <ele>273</ele>
        <time>2022-04-03T07:02:53.000Z</time>
      </trkpt>
      <trkpt lat="49.64611" lon="4.7628">
        <ele>273</ele>
        <time>2022-04-03T07:02:54.000Z</time>
      </trkpt>
      <trkpt lat="49.64613" lon="4.76279">
        <ele>274</ele>
        <time>2022-04-03T07:02:55.000Z</time>
      </trkpt>
      <trkpt lat="49.64616" lon="4.76278">
        <ele>274</ele>
        <time>2022-04-03T07:02:56.000Z</time>
      </trkpt>
      <trkpt lat="49.64619" lon="4.76277">
        <ele>274</ele>
        <time>2022-04-03T07:02:57.000Z</time>
      </trkpt>
      <trkpt lat="49.64621" lon="4.76276">
        <ele>275</ele>
        <time>2022-04-03T07:02:58.000Z</time>
      </trkpt>
      <trkpt lat="49.64623" lon="4.76275">
        <ele>275</ele>
        <time>2022-04-03T07:02:59.000Z</time>
      </trkpt>
      <trkpt lat="49.64626" lon="4.76274">
        <ele>275</ele>
        <time>2022-04-03T07:03:00.000Z</time>
      </trkpt>
      <trkpt lat="49.64628" lon="4.76273">
        <ele>275</ele>
        <time>2022-04-03T07:03:01.000Z</time>
      </trkpt>
      <trkpt lat="49.64631" lon="4.76272">
        <ele>276</ele>
        <time>2022-04-03T07:03:02.000Z</time>
      </trkpt>
      <trkpt lat="49.64634" lon="4.76271">
        <ele>276</ele>
        <time>2022-04-03T07:03:03.000Z</time>
      </trkpt>
      <trkpt lat="49.64638" lon="4.7627">
        <ele>276</ele>
        <time>2022-04-03T07:03:04.000Z</time>
      </trkpt>
      <trkpt lat="49.64641" lon="4.76269">
        <ele>276</ele>
        <time>2022-04-03T07:03:05.000Z</time>
      </trkpt>
      <trkpt lat="49.64644" lon="4.76269">
        <ele>277</ele>
        <time>2022-04-03T07:03:06.000Z</time>
      </trkpt>
      <trkpt lat="49.64647" lon="4.76268">
        <ele>277</ele>
        <time>2022-04-03T07:03:07.000Z</time>
      </trkpt>
      <trkpt lat="49.64651" lon="4.76267">
        <ele>277</ele>
        <time>2022-04-03T07:03:08.000Z</time>
      </trkpt>
      <trkpt lat="49.64654" lon="4.76265">
        <ele>277</ele>
        <time>2022-04-03T07:03:09.000Z</time>
      </trkpt>
      <trkpt lat="49.64658" lon="4.76264">
        <ele>277</ele>
        <time>2022-04-03T07:03:10.000Z</time>
      </trkpt>
      <trkpt lat="49.64662" lon="4.76263">
        <ele>277</ele>
        <time>2022-04-03T07:03:11.000Z</time>
      </trkpt>
      <trkpt lat="49.64666" lon="4.76261">
        <ele>277</ele>
        <time>2022-04-03T07:03:12.000Z</time>
      </trkpt>
      <trkpt lat="49.6467" lon="4.7626">
        <ele>278</ele>
        <time>2022-04-03T07:03:13.000Z</time>
      </trkpt>
      <trkpt lat="49.64674" lon="4.76259">
        <ele>278</ele>
        <time>2022-04-03T07:03:14.000Z</time>
      </trkpt>
      <trkpt lat="49.64677" lon="4.76258">
        <ele>278</ele>
        <time>2022-04-03T07:03:15.000Z</time>
      </trkpt>
      <trkpt lat="49.64681" lon="4.76256">
        <ele>278</ele>
        <time>2022-04-03T07:03:16.000Z</time>
      </trkpt>
      <trkpt lat="49.64686" lon="4.76254">
        <ele>278</ele>
        <time>2022-04-03T07:03:17.000Z</time>
      </trkpt>
      <trkpt lat="49.64691" lon="4.76251">
        <ele>277</ele>
        <time>2022-04-03T07:03:18.000Z</time>
      </trkpt>
      <trkpt lat="49.64697" lon="4.76248">
        <ele>277</ele>
        <time>2022-04-03T07:03:19.000Z</time>
      </trkpt>
      <trkpt lat="49.64702" lon="4.76245">
        <ele>277</ele>
        <time>2022-04-03T07:03:20.000Z</time>
      </trkpt>
      <trkpt lat="49.64708" lon="4.76243">
        <ele>277</ele>
        <time>2022-04-03T07:03:21.000Z</time>
      </trkpt>
      <trkpt lat="49.64714" lon="4.76241">
        <ele>277</ele>
        <time>2022-04-03T07:03:22.000Z</time>
      </trkpt>
      <trkpt lat="49.6472" lon="4.76239">
        <ele>277</ele>
        <time>2022-04-03T07:03:23.000Z</time>
      </trkpt>
      <trkpt lat="49.64727" lon="4.76236">
        <ele>277</ele>
        <time>2022-04-03T07:03:24.000Z</time>
      </trkpt>
      <trkpt lat="49.64734" lon="4.76233">
        <ele>277</ele>
        <time>2022-04-03T07:03:25.000Z</time>
      </trkpt>
      <trkpt lat="49.64742" lon="4.76231">
        <ele>276</ele>
        <time>2022-04-03T07:03:26.000Z</time>
      </trkpt>
      <trkpt lat="49.64749" lon="4.76229">
        <ele>276</ele>
        <time>2022-04-03T07:03:27.000Z</time>
      </trkpt>
      <trkpt lat="49.64756" lon="4.76226">
        <ele>276</ele>
        <time>2022-04-03T07:03:28.000Z</time>
      </trkpt>
      <trkpt lat="49.64763" lon="4.76224">
        <ele>276</ele>
        <time>2022-04-03T07:03:29.000Z</time>
      </trkpt>
      <trkpt lat="49.6477" lon="4.76222">
        <ele>275</ele>
        <time>2022-04-03T07:03:30.000Z</time>
      </trkpt>
      <trkpt lat="49.64775" lon="4.76219">
        <ele>275</ele>
        <time>2022-04-03T07:03:31.000Z</time>
      </trkpt>
      <trkpt lat="49.64779" lon="4.76217">
        <ele>275</ele>
        <time>2022-04-03T07:03:32.000Z</time>
      </trkpt>
      <trkpt lat="49.64781" lon="4.76215">
        <ele>275</ele>
        <time>2022-04-03T07:03:33.000Z</time>
      </trkpt>
      <trkpt lat="49.64781" lon="4.76215">
        <ele>274</ele>
        <time>2022-04-03T07:03:34.000Z</time>
      </trkpt>
      <trkpt lat="49.64782" lon="4.76215">
        <ele>274</ele>
        <time>2022-04-03T07:03:35.000Z</time>
      </trkpt>
      <trkpt lat="49.64782" lon="4.76214">
        <ele>274</ele>
        <time>2022-04-03T07:03:36.000Z</time>
      </trkpt>
      <trkpt lat="49.64782" lon="4.76213">
        <ele>273</ele>
        <time>2022-04-03T07:03:37.000Z</time>
      </trkpt>
      <trkpt lat="49.64782" lon="4.76213">
        <ele>273</ele>
        <time>2022-04-03T07:03:38.000Z</time>
      </trkpt>
      <trkpt lat="49.64782" lon="4.76213">
        <ele>273</ele>
        <time>2022-04-03T07:03:39.000Z</time>
      </trkpt>
      <trkpt lat="49.64782" lon="4.76213">
        <ele>273</ele>
        <time>2022-04-03T07:03:40.000Z</time>
      </trkpt>
      <trkpt lat="49.64782" lon="4.76212">
        <ele>272</ele>
        <time>2022-04-03T07:03:41.000Z</time>
      </trkpt>
      <trkpt lat="49.64783" lon="4.76212">
        <ele>272</ele>
        <time>2022-04-03T07:03:42.000Z</time>
      </trkpt>
      <trkpt lat="49.64784" lon="4.76211">
        <ele>272</ele>
        <time>2022-04-03T07:03:43.000Z</time>
      </trkpt>
      <trkpt lat="49.64785" lon="4.76209">
        <ele>272</ele>
        <time>2022-04-03T07:03:44.000Z</time>
      </trkpt>
      <trkpt lat="49.64787" lon="4.76208">
        <ele>272</ele>
        <time>2022-04-03T07:03:45.000Z</time>
      </trkpt>
      <trkpt lat="49.64789" lon="4.76207">
        <ele>271</ele>
        <time>2022-04-03T07:03:46.000Z</time>
      </trkpt>
      <trkpt lat="49.64791" lon="4.76206">
        <ele>271</ele>
        <time>2022-04-03T07:03:47.000Z</time>
      </trkpt>
      <trkpt lat="49.64792" lon="4.76205">
        <ele>271</ele>
        <time>2022-04-03T07:03:48.000Z</time>
      </trkpt>
      <trkpt lat="49.64794" lon="4.76204">
        <ele>271</ele>
        <time>2022-04-03T07:03:49.000Z</time>
      </trkpt>
      <trkpt lat="49.64794" lon="4.76203">
        <ele>271</ele>
        <time>2022-04-03T07:03:50.000Z</time>
      </trkpt>
      <trkpt lat="49.64795" lon="4.76202">
        <ele>271</ele>
        <time>2022-04-03T07:03:51.000Z</time>
      </trkpt>
      <trkpt lat="49.64796" lon="4.76201">
        <ele>271</ele>
        <time>2022-04-03T07:03:52.000Z</time>
      </trkpt>
      <trkpt lat="49.64797" lon="4.762">
        <ele>271</ele>
        <time>2022-04-03T07:03:53.000Z</time>
      </trkpt>
      <trkpt lat="49.64799" lon="4.76198">
        <ele>271</ele>
        <time>2022-04-03T07:03:54.000Z</time>
      </trkpt>
      <trkpt lat="49.64801" lon="4.76198">
        <ele>271</ele>
        <time>2022-04-03T07:03:55.000Z</time>
      </trkpt>
      <trkpt lat="49.64803" lon="4.76197">
        <ele>271</ele>
        <time>2022-04-03T07:03:56.000Z</time>
      </trkpt>
      <trkpt lat="49.64806" lon="4.76196">
        <ele>271</ele>
        <time>2022-04-03T07:03:57.000Z</time>
      </trkpt>
      <trkpt lat="49.64808" lon="4.76195">
        <ele>271</ele>
        <time>2022-04-03T07:03:58.000Z</time>
      </trkpt>
      <trkpt lat="49.64811" lon="4.76195">
        <ele>271</ele>
        <time>2022-04-03T07:03:59.000Z</time>
      </trkpt>
      <trkpt lat="49.64814" lon="4.76194">
        <ele>271</ele>
        <time>2022-04-03T07:04:00.000Z</time>
      </trkpt>
      <trkpt lat="49.64816" lon="4.76194">
        <ele>271</ele>
        <time>2022-04-03T07:04:01.000Z</time>
      </trkpt>
      <trkpt lat="49.64819" lon="4.76194">
        <ele>271</ele>
        <time>2022-04-03T07:04:02.000Z</time>
      </trkpt>
      <trkpt lat="49.64822" lon="4.76193">
        <ele>271</ele>
        <time>2022-04-03T07:04:03.000Z</time>
      </trkpt>
      <trkpt lat="49.64825" lon="4.76192">
        <ele>271</ele>
        <time>2022-04-03T07:04:04.000Z</time>
      </trkpt>
      <trkpt lat="49.64828" lon="4.7619">
        <ele>271</ele>
        <time>2022-04-03T07:04:05.000Z</time>
      </trkpt>
      <trkpt lat="49.64831" lon="4.76189">
        <ele>271</ele>
        <time>2022-04-03T07:04:06.000Z</time>
      </trkpt>
      <trkpt lat="49.64834" lon="4.76187">
        <ele>271</ele>
        <time>2022-04-03T07:04:07.000Z</time>
      </trkpt>
      <trkpt lat="49.64838" lon="4.76185">
        <ele>271</ele>
        <time>2022-04-03T07:04:08.000Z</time>
      </trkpt>
      <trkpt lat="49.64841" lon="4.76184">
        <ele>270</ele>
        <time>2022-04-03T07:04:09.000Z</time>
      </trkpt>
      <trkpt lat="49.64845" lon="4.76182">
        <ele>270</ele>
        <time>2022-04-03T07:04:10.000Z</time>
      </trkpt>
      <trkpt lat="49.64849" lon="4.76181">
        <ele>270</ele>
        <time>2022-04-03T07:04:11.000Z</time>
      </trkpt>
      <trkpt lat="49.64852" lon="4.7618">
        <ele>270</ele>
        <time>2022-04-03T07:04:12.000Z</time>
      </trkpt>
      <trkpt lat="49.64855" lon="4.76178">
        <ele>270</ele>
        <time>2022-04-03T07:04:13.000Z</time>
      </trkpt>
      <trkpt lat="49.64859" lon="4.76176">
        <ele>270</ele>
        <time>2022-04-03T07:04:14.000Z</time>
      </trkpt>
      <trkpt lat="49.64862" lon="4.76175">
        <ele>270</ele>
        <time>2022-04-03T07:04:15.000Z</time>
      </trkpt>
      <trkpt lat="49.64866" lon="4.76173">
        <ele>270</ele>
        <time>2022-04-03T07:04:16.000Z</time>
      </trkpt>
      <trkpt lat="49.6487" lon="4.76172">
        <ele>270</ele>
        <time>2022-04-03T07:04:17.000Z</time>
      </trkpt>
      <trkpt lat="49.64873" lon="4.76171">
        <ele>270</ele>
        <time>2022-04-03T07:04:18.000Z</time>
      </trkpt>
      <trkpt lat="49.64877" lon="4.76169">
        <ele>270</ele>
        <time>2022-04-03T07:04:19.000Z</time>
      </trkpt>
      <trkpt lat="49.64881" lon="4.76168">
        <ele>270</ele>
        <time>2022-04-03T07:04:20.000Z</time>
      </trkpt>
      <trkpt lat="49.64885" lon="4.76166">
        <ele>269</ele>
        <time>2022-04-03T07:04:21.000Z</time>
      </trkpt>
      <trkpt lat="49.64888" lon="4.76164">
        <ele>269</ele>
        <time>2022-04-03T07:04:22.000Z</time>
      </trkpt>
      <trkpt lat="49.64892" lon="4.76162">
        <ele>269</ele>
        <time>2022-04-03T07:04:23.000Z</time>
      </trkpt>
      <trkpt lat="49.64896" lon="4.7616">
        <ele>269</ele>
        <time>2022-04-03T07:04:24.000Z</time>
      </trkpt>
      <trkpt lat="49.649" lon="4.76158">
        <ele>269</ele>
        <time>2022-04-03T07:04:25.000Z</time>
      </trkpt>
      <trkpt lat="49.64905" lon="4.76157">
        <ele>269</ele>
        <time>2022-04-03T07:04:26.000Z</time>
      </trkpt>
      <trkpt lat="49.6491" lon="4.76156">
        <ele>269</ele>
        <time>2022-04-03T07:04:27.000Z</time>
      </trkpt>
      <trkpt lat="49.64914" lon="4.76155">
        <ele>269</ele>
        <time>2022-04-03T07:04:28.000Z</time>
      </trkpt>
      <trkpt lat="49.64919" lon="4.76154">
        <ele>269</ele>
        <time>2022-04-03T07:04:29.000Z</time>
      </trkpt>
      <trkpt lat="49.64923" lon="4.76151">
        <ele>269</ele>
        <time>2022-04-03T07:04:30.000Z</time>
      </trkpt>
      <trkpt lat="49.64927" lon="4.76149">
        <ele>269</ele>
        <time>2022-04-03T07:04:31.000Z</time>
      </trkpt>
      <trkpt lat="49.64931" lon="4.76146">
        <ele>269</ele>
        <time>2022-04-03T07:04:32.000Z</time>
      </trkpt>
      <trkpt lat="49.64935" lon="4.76143">
        <ele>269</ele>
        <time>2022-04-03T07:04:33.000Z</time>
      </trkpt>
      <trkpt lat="49.64939" lon="4.76142">
        <ele>269</ele>
        <time>2022-04-03T07:04:34.000Z</time>
      </trkpt>
      <trkpt lat="49.64943" lon="4.76141">
        <ele>269</ele>
        <time>2022-04-03T07:04:35.000Z</time>
      </trkpt>
      <trkpt lat="49.64947" lon="4.7614">
        <ele>269</ele>
        <time>2022-04-03T07:04:36.000Z</time>
      </trkpt>
      <trkpt lat="49.64951" lon="4.76138">
        <ele>268</ele>
        <time>2022-04-03T07:04:37.000Z</time>
      </trkpt>
      <trkpt lat="49.64954" lon="4.76136">
        <ele>268</ele>
        <time>2022-04-03T07:04:38.000Z</time>
      </trkpt>
      <trkpt lat="49.64957" lon="4.76134">
        <ele>268</ele>
        <time>2022-04-03T07:04:39.000Z</time>
      </trkpt>
      <trkpt lat="49.6496" lon="4.76132">
        <ele>268</ele>
        <time>2022-04-03T07:04:40.000Z</time>
      </trkpt>
      <trkpt lat="49.64962" lon="4.7613">
        <ele>268</ele>
        <time>2022-04-03T07:04:41.000Z</time>
      </trkpt>
      <trkpt lat="49.64965" lon="4.76128">
        <ele>268</ele>
        <time>2022-04-03T07:04:42.000Z</time>
      </trkpt>
      <trkpt lat="49.64967" lon="4.76127">
        <ele>268</ele>
        <time>2022-04-03T07:04:43.000Z</time>
      </trkpt>
      <trkpt lat="49.6497" lon="4.76126">
        <ele>268</ele>
        <time>2022-04-03T07:04:44.000Z</time>
      </trkpt>
      <trkpt lat="49.64973" lon="4.76125">
        <ele>268</ele>
        <time>2022-04-03T07:04:45.000Z</time>
      </trkpt>
      <trkpt lat="49.64976" lon="4.76124">
        <ele>268</ele>
        <time>2022-04-03T07:04:46.000Z</time>
      </trkpt>
      <trkpt lat="49.64978" lon="4.76122">
        <ele>268</ele>
        <time>2022-04-03T07:04:47.000Z</time>
      </trkpt>
      <trkpt lat="49.64981" lon="4.7612">
        <ele>268</ele>
        <time>2022-04-03T07:04:48.000Z</time>
      </trkpt>
      <trkpt lat="49.64984" lon="4.76119">
        <ele>268</ele>
        <time>2022-04-03T07:04:49.000Z</time>
      </trkpt>
      <trkpt lat="49.64987" lon="4.76117">
        <ele>269</ele>
        <time>2022-04-03T07:04:50.000Z</time>
      </trkpt>
      <trkpt lat="49.64989" lon="4.76115">
        <ele>269</ele>
        <time>2022-04-03T07:04:51.000Z</time>
      </trkpt>
      <trkpt lat="49.64992" lon="4.76115">
        <ele>269</ele>
        <time>2022-04-03T07:04:52.000Z</time>
      </trkpt>
      <trkpt lat="49.64994" lon="4.76114">
        <ele>269</ele>
        <time>2022-04-03T07:04:53.000Z</time>
      </trkpt>
      <trkpt lat="49.64997" lon="4.76113">
        <ele>269</ele>
        <time>2022-04-03T07:04:54.000Z</time>
      </trkpt>
      <trkpt lat="49.64999" lon="4.76112">
        <ele>269</ele>
        <time>2022-04-03T07:04:55.000Z</time>
      </trkpt>
      <trkpt lat="49.65002" lon="4.76111">
        <ele>269</ele>
        <time>2022-04-03T07:04:56.000Z</time>
      </trkpt>
      <trkpt lat="49.65005" lon="4.7611">
        <ele>269</ele>
        <time>2022-04-03T07:04:57.000Z</time>
      </trkpt>
      <trkpt lat="49.65008" lon="4.76109">
        <ele>269</ele>
        <time>2022-04-03T07:04:58.000Z</time>
      </trkpt>
      <trkpt lat="49.6501" lon="4.76108">
        <ele>269</ele>
        <time>2022-04-03T07:04:59.000Z</time>
      </trkpt>
      <trkpt lat="49.65013" lon="4.76107">
        <ele>269</ele>
        <time>2022-04-03T07:05:00.000Z</time>
      </trkpt>
      <trkpt lat="49.65015" lon="4.76106">
        <ele>270</ele>
        <time>2022-04-03T07:05:01.000Z</time>
      </trkpt>
      <trkpt lat="49.65017" lon="4.76104">
        <ele>270</ele>
        <time>2022-04-03T07:05:02.000Z</time>
      </trkpt>
      <trkpt lat="49.6502" lon="4.76103">
        <ele>270</ele>
        <time>2022-04-03T07:05:03.000Z</time>
      </trkpt>
      <trkpt lat="49.65022" lon="4.76102">
        <ele>270</ele>
        <time>2022-04-03T07:05:04.000Z</time>
      </trkpt>
      <trkpt lat="49.65025" lon="4.76101">
        <ele>270</ele>
        <time>2022-04-03T07:05:05.000Z</time>
      </trkpt>
      <trkpt lat="49.65027" lon="4.76099">
        <ele>271</ele>
        <time>2022-04-03T07:05:06.000Z</time>
      </trkpt>
      <trkpt lat="49.6503" lon="4.76098">
        <ele>271</ele>
        <time>2022-04-03T07:05:07.000Z</time>
      </trkpt>
      <trkpt lat="49.65032" lon="4.76096">
        <ele>271</ele>
        <time>2022-04-03T07:05:08.000Z</time>
      </trkpt>
      <trkpt lat="49.65034" lon="4.76094">
        <ele>271</ele>
        <time>2022-04-03T07:05:09.000Z</time>
      </trkpt>
      <trkpt lat="49.65037" lon="4.76094">
        <ele>271</ele>
        <time>2022-04-03T07:05:10.000Z</time>
      </trkpt>
      <trkpt lat="49.65039" lon="4.76093">
        <ele>272</ele>
        <time>2022-04-03T07:05:11.000Z</time>
      </trkpt>
      <trkpt lat="49.65042" lon="4.76093">
        <ele>272</ele>
        <time>2022-04-03T07:05:12.000Z</time>
      </trkpt>
      <trkpt lat="49.65044" lon="4.76093">
        <ele>272</ele>
        <time>2022-04-03T07:05:13.000Z</time>
      </trkpt>
      <trkpt lat="49.65046" lon="4.76093">
        <ele>272</ele>
        <time>2022-04-03T07:05:14.000Z</time>
      </trkpt>
      <trkpt lat="49.65049" lon="4.76094">
        <ele>272</ele>
        <time>2022-04-03T07:05:15.000Z</time>
      </trkpt>
      <trkpt lat="49.65052" lon="4.76095">
        <ele>272</ele>
        <time>2022-04-03T07:05:16.000Z</time>
      </trkpt>
      <trkpt lat="49.65054" lon="4.76095">
        <ele>272</ele>
        <time>2022-04-03T07:05:17.000Z</time>
      </trkpt>
      <trkpt lat="49.65057" lon="4.76095">
        <ele>272</ele>
        <time>2022-04-03T07:05:18.000Z</time>
      </trkpt>
      <trkpt lat="49.65059" lon="4.76095">
        <ele>273</ele>
        <time>2022-04-03T07:05:19.000Z</time>
      </trkpt>
      <trkpt lat="49.65062" lon="4.76094">
        <ele>273</ele>
        <time>2022-04-03T07:05:20.000Z</time>
      </trkpt>
      <trkpt lat="49.65064" lon="4.76094">
        <ele>273</ele>
        <time>2022-04-03T07:05:21.000Z</time>
      </trkpt>
      <trkpt lat="49.65067" lon="4.76093">
        <ele>273</ele>
        <time>2022-04-03T07:05:22.000Z</time>
      </trkpt>
      <trkpt lat="49.65069" lon="4.76092">
        <ele>273</ele>
        <time>2022-04-03T07:05:23.000Z</time>
      </trkpt>
      <trkpt lat="49.65071" lon="4.76092">
        <ele>273</ele>
        <time>2022-04-03T07:05:24.000Z</time>
      </trkpt>
      <trkpt lat="49.65074" lon="4.76092">
        <ele>273</ele>
        <time>2022-04-03T07:05:25.000Z</time>
      </trkpt>
      <trkpt lat="49.65076" lon="4.76092">
        <ele>273</ele>
        <time>2022-04-03T07:05:26.000Z</time>
      </trkpt>
      <trkpt lat="49.65079" lon="4.76092">
        <ele>273</ele>
        <time>2022-04-03T07:05:27.000Z</time>
      </trkpt>
      <trkpt lat="49.65082" lon="4.76093">
        <ele>273</ele>
        <time>2022-04-03T07:05:28.000Z</time>
      </trkpt>
      <trkpt lat="49.65085" lon="4.76092">
        <ele>273</ele>
        <time>2022-04-03T07:05:29.000Z</time>
      </trkpt>
      <trkpt lat="49.65088" lon="4.76091">
        <ele>273</ele>
        <time>2022-04-03T07:05:30.000Z</time>
      </trkpt>
      <trkpt lat="49.6509" lon="4.76089">
        <ele>273</ele>
        <time>2022-04-03T07:05:31.000Z</time>
      </trkpt>
      <trkpt lat="49.65093" lon="4.76087">
        <ele>273</ele>
        <time>2022-04-03T07:05:32.000Z</time>
      </trkpt>
      <trkpt lat="49.65095" lon="4.76085">
        <ele>274</ele>
        <time>2022-04-03T07:05:33.000Z</time>
      </trkpt>
      <trkpt lat="49.65098" lon="4.76082">
        <ele>274</ele>
        <time>2022-04-03T07:05:34.000Z</time>
      </trkpt>
      <trkpt lat="49.651" lon="4.76079">
        <ele>274</ele>
        <time>2022-04-03T07:05:35.000Z</time>
      </trkpt>
      <trkpt lat="49.65101" lon="4.76076">
        <ele>274</ele>
        <time>2022-04-03T07:05:36.000Z</time>
      </trkpt>
      <trkpt lat="49.65103" lon="4.76074">
        <ele>274</ele>
        <time>2022-04-03T07:05:37.000Z</time>
      </trkpt>
      <trkpt lat="49.65105" lon="4.7607">
        <ele>274</ele>
        <time>2022-04-03T07:05:38.000Z</time>
      </trkpt>
      <trkpt lat="49.65107" lon="4.76067">
        <ele>274</ele>
        <time>2022-04-03T07:05:39.000Z</time>
      </trkpt>
      <trkpt lat="49.65108" lon="4.76064">
        <ele>274</ele>
        <time>2022-04-03T07:05:40.000Z</time>
      </trkpt>
      <trkpt lat="49.6511" lon="4.76062">
        <ele>274</ele>
        <time>2022-04-03T07:05:41.000Z</time>
      </trkpt>
      <trkpt lat="49.65112" lon="4.76059">
        <ele>274</ele>
        <time>2022-04-03T07:05:42.000Z</time>
      </trkpt>
      <trkpt lat="49.65114" lon="4.76056">
        <ele>274</ele>
        <time>2022-04-03T07:05:43.000Z</time>
      </trkpt>
      <trkpt lat="49.65116" lon="4.76052">
        <ele>274</ele>
        <time>2022-04-03T07:05:44.000Z</time>
      </trkpt>
      <trkpt lat="49.65118" lon="4.76049">
        <ele>274</ele>
        <time>2022-04-03T07:05:45.000Z</time>
      </trkpt>
      <trkpt lat="49.65121" lon="4.76046">
        <ele>274</ele>
        <time>2022-04-03T07:05:46.000Z</time>
      </trkpt>
      <trkpt lat="49.65123" lon="4.76043">
        <ele>274</ele>
        <time>2022-04-03T07:05:47.000Z</time>
      </trkpt>
      <trkpt lat="49.65126" lon="4.76041">
        <ele>274</ele>
        <time>2022-04-03T07:05:48.000Z</time>
      </trkpt>
      <trkpt lat="49.65129" lon="4.76038">
        <ele>274</ele>
        <time>2022-04-03T07:05:49.000Z</time>
      </trkpt>
      <trkpt lat="49.65132" lon="4.76035">
        <ele>274</ele>
        <time>2022-04-03T07:05:50.000Z</time>
      </trkpt>
      <trkpt lat="49.65136" lon="4.76033">
        <ele>275</ele>
        <time>2022-04-03T07:05:51.000Z</time>
      </trkpt>
      <trkpt lat="49.65139" lon="4.7603">
        <ele>275</ele>
        <time>2022-04-03T07:05:52.000Z</time>
      </trkpt>
      <trkpt lat="49.65142" lon="4.76028">
        <ele>275</ele>
        <time>2022-04-03T07:05:53.000Z</time>
      </trkpt>
      <trkpt lat="49.65144" lon="4.76027">
        <ele>275</ele>
        <time>2022-04-03T07:05:54.000Z</time>
      </trkpt>
      <trkpt lat="49.65147" lon="4.76025">
        <ele>275</ele>
        <time>2022-04-03T07:05:55.000Z</time>
      </trkpt>
      <trkpt lat="49.6515" lon="4.76025">
        <ele>275</ele>
        <time>2022-04-03T07:05:56.000Z</time>
      </trkpt>
      <trkpt lat="49.65153" lon="4.76025">
        <ele>275</ele>
        <time>2022-04-03T07:05:57.000Z</time>
      </trkpt>
      <trkpt lat="49.65156" lon="4.76025">
        <ele>276</ele>
        <time>2022-04-03T07:05:58.000Z</time>
      </trkpt>
      <trkpt lat="49.65159" lon="4.76023">
        <ele>276</ele>
        <time>2022-04-03T07:05:59.000Z</time>
      </trkpt>
      <trkpt lat="49.65162" lon="4.76022">
        <ele>276</ele>
        <time>2022-04-03T07:06:00.000Z</time>
      </trkpt>
      <trkpt lat="49.65164" lon="4.76021">
        <ele>276</ele>
        <time>2022-04-03T07:06:01.000Z</time>
      </trkpt>
      <trkpt lat="49.65167" lon="4.7602">
        <ele>276</ele>
        <time>2022-04-03T07:06:02.000Z</time>
      </trkpt>
      <trkpt lat="49.6517" lon="4.76019">
        <ele>276</ele>
        <time>2022-04-03T07:06:03.000Z</time>
      </trkpt>
      <trkpt lat="49.65173" lon="4.76018">
        <ele>276</ele>
        <time>2022-04-03T07:06:04.000Z</time>
      </trkpt>
      <trkpt lat="49.65175" lon="4.76016">
        <ele>276</ele>
        <time>2022-04-03T07:06:05.000Z</time>
      </trkpt>
      <trkpt lat="49.65179" lon="4.76014">
        <ele>277</ele>
        <time>2022-04-03T07:06:06.000Z</time>
      </trkpt>
      <trkpt lat="49.65182" lon="4.76013">
        <ele>277</ele>
        <time>2022-04-03T07:06:07.000Z</time>
      </trkpt>
      <trkpt lat="49.65185" lon="4.76011">
        <ele>277</ele>
        <time>2022-04-03T07:06:08.000Z</time>
      </trkpt>
      <trkpt lat="49.65188" lon="4.76009">
        <ele>277</ele>
        <time>2022-04-03T07:06:09.000Z</time>
      </trkpt>
      <trkpt lat="49.65191" lon="4.76007">
        <ele>277</ele>
        <time>2022-04-03T07:06:10.000Z</time>
      </trkpt>
      <trkpt lat="49.65194" lon="4.76006">
        <ele>277</ele>
        <time>2022-04-03T07:06:11.000Z</time>
      </trkpt>
      <trkpt lat="49.65197" lon="4.76005">
        <ele>278</ele>
        <time>2022-04-03T07:06:12.000Z</time>
      </trkpt>
      <trkpt lat="49.65201" lon="4.76003">
        <ele>278</ele>
        <time>2022-04-03T07:06:13.000Z</time>
      </trkpt>
      <trkpt lat="49.65204" lon="4.76002">
        <ele>278</ele>
        <time>2022-04-03T07:06:14.000Z</time>
      </trkpt>
      <trkpt lat="49.65207" lon="4.76002">
        <ele>278</ele>
        <time>2022-04-03T07:06:15.000Z</time>
      </trkpt>
      <trkpt lat="49.6521" lon="4.76001">
        <ele>278</ele>
        <time>2022-04-03T07:06:16.000Z</time>
      </trkpt>
      <trkpt lat="49.65213" lon="4.75999">
        <ele>278</ele>
        <time>2022-04-03T07:06:17.000Z</time>
      </trkpt>
      <trkpt lat="49.65216" lon="4.75998">
        <ele>279</ele>
        <time>2022-04-03T07:06:18.000Z</time>
      </trkpt>
      <trkpt lat="49.65218" lon="4.75996">
        <ele>279</ele>
        <time>2022-04-03T07:06:19.000Z</time>
      </trkpt>
      <trkpt lat="49.65221" lon="4.75994">
        <ele>279</ele>
        <time>2022-04-03T07:06:20.000Z</time>
      </trkpt>
      <trkpt lat="49.65223" lon="4.75993">
        <ele>279</ele>
        <time>2022-04-03T07:06:21.000Z</time>
      </trkpt>
      <trkpt lat="49.65226" lon="4.75992">
        <ele>280</ele>
        <time>2022-04-03T07:06:22.000Z</time>
      </trkpt>
      <trkpt lat="49.65226" lon="4.75992">
        <ele>280</ele>
        <time>2022-04-03T07:06:23.000Z</time>
      </trkpt>
      <trkpt lat="49.6523" lon="4.75991">
        <ele>280</ele>
        <time>2022-04-03T07:06:24.000Z</time>
      </trkpt>
      <trkpt lat="49.65233" lon="4.75989">
        <ele>280</ele>
        <time>2022-04-03T07:06:25.000Z</time>
      </trkpt>
      <trkpt lat="49.65237" lon="4.75988">
        <ele>280</ele>
        <time>2022-04-03T07:06:26.000Z</time>
      </trkpt>
      <trkpt lat="49.6524" lon="4.75986">
        <ele>280</ele>
        <time>2022-04-03T07:06:27.000Z</time>
      </trkpt>
      <trkpt lat="49.65243" lon="4.75985">
        <ele>281</ele>
        <time>2022-04-03T07:06:28.000Z</time>
      </trkpt>
      <trkpt lat="49.65247" lon="4.75983">
        <ele>281</ele>
        <time>2022-04-03T07:06:29.000Z</time>
      </trkpt>
      <trkpt lat="49.6525" lon="4.75981">
        <ele>281</ele>
        <time>2022-04-03T07:06:30.000Z</time>
      </trkpt>
      <trkpt lat="49.65253" lon="4.7598">
        <ele>281</ele>
        <time>2022-04-03T07:06:31.000Z</time>
      </trkpt>
      <trkpt lat="49.65256" lon="4.75977">
        <ele>282</ele>
        <time>2022-04-03T07:06:32.000Z</time>
      </trkpt>
      <trkpt lat="49.6526" lon="4.75975">
        <ele>282</ele>
        <time>2022-04-03T07:06:33.000Z</time>
      </trkpt>
      <trkpt lat="49.65263" lon="4.75975">
        <ele>282</ele>
        <time>2022-04-03T07:06:34.000Z</time>
      </trkpt>
      <trkpt lat="49.65267" lon="4.75973">
        <ele>282</ele>
        <time>2022-04-03T07:06:35.000Z</time>
      </trkpt>
      <trkpt lat="49.65271" lon="4.75972">
        <ele>282</ele>
        <time>2022-04-03T07:06:36.000Z</time>
      </trkpt>
      <trkpt lat="49.65275" lon="4.75971">
        <ele>282</ele>
        <time>2022-04-03T07:06:37.000Z</time>
      </trkpt>
      <trkpt lat="49.65279" lon="4.75971">
        <ele>282</ele>
        <time>2022-04-03T07:06:38.000Z</time>
      </trkpt>
      <trkpt lat="49.65284" lon="4.75971">
        <ele>282</ele>
        <time>2022-04-03T07:06:39.000Z</time>
      </trkpt>
      <trkpt lat="49.65288" lon="4.7597">
        <ele>282</ele>
        <time>2022-04-03T07:06:40.000Z</time>
      </trkpt>
      <trkpt lat="49.65292" lon="4.75968">
        <ele>282</ele>
        <time>2022-04-03T07:06:41.000Z</time>
      </trkpt>
      <trkpt lat="49.65296" lon="4.75967">
        <ele>282</ele>
        <time>2022-04-03T07:06:42.000Z</time>
      </trkpt>
      <trkpt lat="49.65301" lon="4.75965">
        <ele>283</ele>
        <time>2022-04-03T07:06:43.000Z</time>
      </trkpt>
      <trkpt lat="49.65305" lon="4.75963">
        <ele>283</ele>
        <time>2022-04-03T07:06:44.000Z</time>
      </trkpt>
      <trkpt lat="49.6531" lon="4.75962">
        <ele>283</ele>
        <time>2022-04-03T07:06:45.000Z</time>
      </trkpt>
      <trkpt lat="49.65314" lon="4.75961">
        <ele>283</ele>
        <time>2022-04-03T07:06:46.000Z</time>
      </trkpt>
      <trkpt lat="49.65319" lon="4.75959">
        <ele>282</ele>
        <time>2022-04-03T07:06:47.000Z</time>
      </trkpt>
      <trkpt lat="49.65324" lon="4.75958">
        <ele>282</ele>
        <time>2022-04-03T07:06:48.000Z</time>
      </trkpt>
      <trkpt lat="49.65331" lon="4.75956">
        <ele>282</ele>
        <time>2022-04-03T07:06:49.000Z</time>
      </trkpt>
      <trkpt lat="49.65336" lon="4.75954">
        <ele>282</ele>
        <time>2022-04-03T07:06:50.000Z</time>
      </trkpt>
      <trkpt lat="49.65341" lon="4.75953">
        <ele>282</ele>
        <time>2022-04-03T07:06:51.000Z</time>
      </trkpt>
      <trkpt lat="49.65347" lon="4.75952">
        <ele>282</ele>
        <time>2022-04-03T07:06:52.000Z</time>
      </trkpt>
      <trkpt lat="49.65353" lon="4.7595">
        <ele>282</ele>
        <time>2022-04-03T07:06:53.000Z</time>
      </trkpt>
      <trkpt lat="49.65358" lon="4.75948">
        <ele>282</ele>
        <time>2022-04-03T07:06:54.000Z</time>
      </trkpt>
      <trkpt lat="49.65364" lon="4.75947">
        <ele>282</ele>
        <time>2022-04-03T07:06:55.000Z</time>
      </trkpt>
      <trkpt lat="49.65371" lon="4.75945">
        <ele>282</ele>
        <time>2022-04-03T07:06:56.000Z</time>
      </trkpt>
      <trkpt lat="49.65377" lon="4.75943">
        <ele>282</ele>
        <time>2022-04-03T07:06:57.000Z</time>
      </trkpt>
      <trkpt lat="49.65383" lon="4.7594">
        <ele>282</ele>
        <time>2022-04-03T07:06:58.000Z</time>
      </trkpt>
      <trkpt lat="49.65389" lon="4.75938">
        <ele>282</ele>
        <time>2022-04-03T07:06:59.000Z</time>
      </trkpt>
      <trkpt lat="49.65396" lon="4.75935">
        <ele>282</ele>
        <time>2022-04-03T07:07:00.000Z</time>
      </trkpt>
      <trkpt lat="49.65403" lon="4.75932">
        <ele>282</ele>
        <time>2022-04-03T07:07:01.000Z</time>
      </trkpt>
      <trkpt lat="49.65411" lon="4.75929">
        <ele>281</ele>
        <time>2022-04-03T07:07:02.000Z</time>
      </trkpt>
      <trkpt lat="49.65418" lon="4.75927">
        <ele>281</ele>
        <time>2022-04-03T07:07:03.000Z</time>
      </trkpt>
      <trkpt lat="49.65426" lon="4.75925">
        <ele>281</ele>
        <time>2022-04-03T07:07:04.000Z</time>
      </trkpt>
      <trkpt lat="49.65434" lon="4.75922">
        <ele>281</ele>
        <time>2022-04-03T07:07:05.000Z</time>
      </trkpt>
      <trkpt lat="49.65441" lon="4.75918">
        <ele>280</ele>
        <time>2022-04-03T07:07:06.000Z</time>
      </trkpt>
      <trkpt lat="49.65448" lon="4.75915">
        <ele>280</ele>
        <time>2022-04-03T07:07:07.000Z</time>
      </trkpt>
      <trkpt lat="49.65455" lon="4.75914">
        <ele>280</ele>
        <time>2022-04-03T07:07:08.000Z</time>
      </trkpt>
      <trkpt lat="49.65462" lon="4.75912">
        <ele>279</ele>
        <time>2022-04-03T07:07:09.000Z</time>
      </trkpt>
      <trkpt lat="49.65468" lon="4.75909">
        <ele>279</ele>
        <time>2022-04-03T07:07:10.000Z</time>
      </trkpt>
      <trkpt lat="49.65475" lon="4.75906">
        <ele>278</ele>
        <time>2022-04-03T07:07:11.000Z</time>
      </trkpt>
      <trkpt lat="49.65482" lon="4.75902">
        <ele>277</ele>
        <time>2022-04-03T07:07:12.000Z</time>
      </trkpt>
      <trkpt lat="49.65487" lon="4.759">
        <ele>276</ele>
        <time>2022-04-03T07:07:13.000Z</time>
      </trkpt>
      <trkpt lat="49.65492" lon="4.75899">
        <ele>276</ele>
        <time>2022-04-03T07:07:14.000Z</time>
      </trkpt>
      <trkpt lat="49.65497" lon="4.75897">
        <ele>275</ele>
        <time>2022-04-03T07:07:15.000Z</time>
      </trkpt>
      <trkpt lat="49.65506" lon="4.75894">
        <ele>274</ele>
        <time>2022-04-03T07:07:16.000Z</time>
      </trkpt>
      <trkpt lat="49.65506" lon="4.75894">
        <ele>274</ele>
        <time>2022-04-03T07:07:17.000Z</time>
      </trkpt>
      <trkpt lat="49.6551" lon="4.75892">
        <ele>273</ele>
        <time>2022-04-03T07:07:18.000Z</time>
      </trkpt>
      <trkpt lat="49.65516" lon="4.75891">
        <ele>273</ele>
        <time>2022-04-03T07:07:19.000Z</time>
      </trkpt>
      <trkpt lat="49.65522" lon="4.75889">
        <ele>272</ele>
        <time>2022-04-03T07:07:20.000Z</time>
      </trkpt>
      <trkpt lat="49.65528" lon="4.75886">
        <ele>272</ele>
        <time>2022-04-03T07:07:21.000Z</time>
      </trkpt>
      <trkpt lat="49.65534" lon="4.75883">
        <ele>271</ele>
        <time>2022-04-03T07:07:22.000Z</time>
      </trkpt>
      <trkpt lat="49.65549" lon="4.75877">
        <ele>270</ele>
        <time>2022-04-03T07:07:23.000Z</time>
      </trkpt>
      <trkpt lat="49.65549" lon="4.75877">
        <ele>270</ele>
        <time>2022-04-03T07:07:24.000Z</time>
      </trkpt>
      <trkpt lat="49.65557" lon="4.75873">
        <ele>269</ele>
        <time>2022-04-03T07:07:25.000Z</time>
      </trkpt>
      <trkpt lat="49.65565" lon="4.7587">
        <ele>268</ele>
        <time>2022-04-03T07:07:26.000Z</time>
      </trkpt>
      <trkpt lat="49.65574" lon="4.75866">
        <ele>267</ele>
        <time>2022-04-03T07:07:27.000Z</time>
      </trkpt>
      <trkpt lat="49.65582" lon="4.75863">
        <ele>266</ele>
        <time>2022-04-03T07:07:28.000Z</time>
      </trkpt>
      <trkpt lat="49.6559" lon="4.7586">
        <ele>265</ele>
        <time>2022-04-03T07:07:29.000Z</time>
      </trkpt>
      <trkpt lat="49.65598" lon="4.75857">
        <ele>264</ele>
        <time>2022-04-03T07:07:30.000Z</time>
      </trkpt>
      <trkpt lat="49.65605" lon="4.75853">
        <ele>262</ele>
        <time>2022-04-03T07:07:31.000Z</time>
      </trkpt>
      <trkpt lat="49.65611" lon="4.75849">
        <ele>261</ele>
        <time>2022-04-03T07:07:32.000Z</time>
      </trkpt>
      <trkpt lat="49.65622" lon="4.75843">
        <ele>259</ele>
        <time>2022-04-03T07:07:33.000Z</time>
      </trkpt>
      <trkpt lat="49.65622" lon="4.75843">
        <ele>259</ele>
        <time>2022-04-03T07:07:34.000Z</time>
      </trkpt>
      <trkpt lat="49.65627" lon="4.75841">
        <ele>258</ele>
        <time>2022-04-03T07:07:35.000Z</time>
      </trkpt>
      <trkpt lat="49.6563" lon="4.75838">
        <ele>258</ele>
        <time>2022-04-03T07:07:36.000Z</time>
      </trkpt>
      <trkpt lat="49.65633" lon="4.75834">
        <ele>257</ele>
        <time>2022-04-03T07:07:37.000Z</time>
      </trkpt>
      <trkpt lat="49.65635" lon="4.7583">
        <ele>256</ele>
        <time>2022-04-03T07:07:38.000Z</time>
      </trkpt>
      <trkpt lat="49.65636" lon="4.75824">
        <ele>254</ele>
        <time>2022-04-03T07:07:39.000Z</time>
      </trkpt>
      <trkpt lat="49.65636" lon="4.75817">
        <ele>253</ele>
        <time>2022-04-03T07:07:40.000Z</time>
      </trkpt>
      <trkpt lat="49.65637" lon="4.75811">
        <ele>252</ele>
        <time>2022-04-03T07:07:41.000Z</time>
      </trkpt>
      <trkpt lat="49.65643" lon="4.75795">
        <ele>250</ele>
        <time>2022-04-03T07:07:42.000Z</time>
      </trkpt>
      <trkpt lat="49.65643" lon="4.75795">
        <ele>250</ele>
        <time>2022-04-03T07:07:43.000Z</time>
      </trkpt>
      <trkpt lat="49.65648" lon="4.75787">
        <ele>249</ele>
        <time>2022-04-03T07:07:44.000Z</time>
      </trkpt>
      <trkpt lat="49.65654" lon="4.75779">
        <ele>248</ele>
        <time>2022-04-03T07:07:45.000Z</time>
      </trkpt>
      <trkpt lat="49.65658" lon="4.75772">
        <ele>246</ele>
        <time>2022-04-03T07:07:46.000Z</time>
      </trkpt>
      <trkpt lat="49.65661" lon="4.75765">
        <ele>245</ele>
        <time>2022-04-03T07:07:47.000Z</time>
      </trkpt>
      <trkpt lat="49.65663" lon="4.75757">
        <ele>245</ele>
        <time>2022-04-03T07:07:48.000Z</time>
      </trkpt>
      <trkpt lat="49.65665" lon="4.75749">
        <ele>244</ele>
        <time>2022-04-03T07:07:49.000Z</time>
      </trkpt>
      <trkpt lat="49.65666" lon="4.7574">
        <ele>243</ele>
        <time>2022-04-03T07:07:50.000Z</time>
      </trkpt>
      <trkpt lat="49.65667" lon="4.75731">
        <ele>242</ele>
        <time>2022-04-03T07:07:51.000Z</time>
      </trkpt>
      <trkpt lat="49.65668" lon="4.75722">
        <ele>241</ele>
        <time>2022-04-03T07:07:52.000Z</time>
      </trkpt>
      <trkpt lat="49.65671" lon="4.75713">
        <ele>240</ele>
        <time>2022-04-03T07:07:53.000Z</time>
      </trkpt>
      <trkpt lat="49.65675" lon="4.75704">
        <ele>239</ele>
        <time>2022-04-03T07:07:54.000Z</time>
      </trkpt>
      <trkpt lat="49.65679" lon="4.75695">
        <ele>238</ele>
        <time>2022-04-03T07:07:55.000Z</time>
      </trkpt>
      <trkpt lat="49.65684" lon="4.75686">
        <ele>237</ele>
        <time>2022-04-03T07:07:56.000Z</time>
      </trkpt>
      <trkpt lat="49.65689" lon="4.75678">
        <ele>236</ele>
        <time>2022-04-03T07:07:57.000Z</time>
      </trkpt>
      <trkpt lat="49.65697" lon="4.75662">
        <ele>234</ele>
        <time>2022-04-03T07:07:58.000Z</time>
      </trkpt>
      <trkpt lat="49.65697" lon="4.75662">
        <ele>234</ele>
        <time>2022-04-03T07:07:59.000Z</time>
      </trkpt>
      <trkpt lat="49.657" lon="4.75654">
        <ele>233</ele>
        <time>2022-04-03T07:08:00.000Z</time>
      </trkpt>
      <trkpt lat="49.65702" lon="4.75647">
        <ele>232</ele>
        <time>2022-04-03T07:08:01.000Z</time>
      </trkpt>
      <trkpt lat="49.65704" lon="4.75643">
        <ele>231</ele>
        <time>2022-04-03T07:08:02.000Z</time>
      </trkpt>
      <trkpt lat="49.65705" lon="4.75633">
        <ele>229</ele>
        <time>2022-04-03T07:08:03.000Z</time>
      </trkpt>
      <trkpt lat="49.65705" lon="4.75633">
        <ele>229</ele>
        <time>2022-04-03T07:08:04.000Z</time>
      </trkpt>
      <trkpt lat="49.65708" lon="4.75631">
        <ele>228</ele>
        <time>2022-04-03T07:08:05.000Z</time>
      </trkpt>
      <trkpt lat="49.65711" lon="4.75627">
        <ele>228</ele>
        <time>2022-04-03T07:08:06.000Z</time>
      </trkpt>
      <trkpt lat="49.65714" lon="4.75622">
        <ele>227</ele>
        <time>2022-04-03T07:08:07.000Z</time>
      </trkpt>
      <trkpt lat="49.65719" lon="4.75615">
        <ele>226</ele>
        <time>2022-04-03T07:08:08.000Z</time>
      </trkpt>
      <trkpt lat="49.65723" lon="4.75609">
        <ele>225</ele>
        <time>2022-04-03T07:08:09.000Z</time>
      </trkpt>
      <trkpt lat="49.65727" lon="4.75604">
        <ele>225</ele>
        <time>2022-04-03T07:08:10.000Z</time>
      </trkpt>
      <trkpt lat="49.65728" lon="4.75597">
        <ele>224</ele>
        <time>2022-04-03T07:08:11.000Z</time>
      </trkpt>
      <trkpt lat="49.65729" lon="4.75592">
        <ele>223</ele>
        <time>2022-04-03T07:08:12.000Z</time>
      </trkpt>
      <trkpt lat="49.65728" lon="4.75587">
        <ele>222</ele>
        <time>2022-04-03T07:08:13.000Z</time>
      </trkpt>
      <trkpt lat="49.65728" lon="4.75581">
        <ele>221</ele>
        <time>2022-04-03T07:08:14.000Z</time>
      </trkpt>
      <trkpt lat="49.65726" lon="4.75577">
        <ele>220</ele>
        <time>2022-04-03T07:08:15.000Z</time>
      </trkpt>
      <trkpt lat="49.65724" lon="4.75574">
        <ele>220</ele>
        <time>2022-04-03T07:08:16.000Z</time>
      </trkpt>
      <trkpt lat="49.65722" lon="4.75572">
        <ele>219</ele>
        <time>2022-04-03T07:08:17.000Z</time>
      </trkpt>
      <trkpt lat="49.6572" lon="4.7557">
        <ele>218</ele>
        <time>2022-04-03T07:08:18.000Z</time>
      </trkpt>
      <trkpt lat="49.65717" lon="4.75567">
        <ele>217</ele>
        <time>2022-04-03T07:08:19.000Z</time>
      </trkpt>
      <trkpt lat="49.65714" lon="4.75564">
        <ele>217</ele>
        <time>2022-04-03T07:08:20.000Z</time>
      </trkpt>
      <trkpt lat="49.6571" lon="4.75561">
        <ele>216</ele>
        <time>2022-04-03T07:08:21.000Z</time>
      </trkpt>
      <trkpt lat="49.65706" lon="4.75559">
        <ele>215</ele>
        <time>2022-04-03T07:08:22.000Z</time>
      </trkpt>
      <trkpt lat="49.65701" lon="4.75555">
        <ele>215</ele>
        <time>2022-04-03T07:08:23.000Z</time>
      </trkpt>
      <trkpt lat="49.65696" lon="4.75552">
        <ele>214</ele>
        <time>2022-04-03T07:08:24.000Z</time>
      </trkpt>
      <trkpt lat="49.65691" lon="4.75549">
        <ele>213</ele>
        <time>2022-04-03T07:08:25.000Z</time>
      </trkpt>
      <trkpt lat="49.65687" lon="4.75546">
        <ele>213</ele>
        <time>2022-04-03T07:08:26.000Z</time>
      </trkpt>
      <trkpt lat="49.65682" lon="4.75543">
        <ele>213</ele>
        <time>2022-04-03T07:08:27.000Z</time>
      </trkpt>
      <trkpt lat="49.65678" lon="4.75539">
        <ele>212</ele>
        <time>2022-04-03T07:08:28.000Z</time>
      </trkpt>
      <trkpt lat="49.65673" lon="4.75535">
        <ele>212</ele>
        <time>2022-04-03T07:08:29.000Z</time>
      </trkpt>
      <trkpt lat="49.65668" lon="4.75532">
        <ele>211</ele>
        <time>2022-04-03T07:08:30.000Z</time>
      </trkpt>
      <trkpt lat="49.65663" lon="4.75528">
        <ele>211</ele>
        <time>2022-04-03T07:08:31.000Z</time>
      </trkpt>
      <trkpt lat="49.65659" lon="4.75525">
        <ele>210</ele>
        <time>2022-04-03T07:08:32.000Z</time>
      </trkpt>
      <trkpt lat="49.65653" lon="4.75521">
        <ele>210</ele>
        <time>2022-04-03T07:08:33.000Z</time>
      </trkpt>
      <trkpt lat="49.65648" lon="4.75517">
        <ele>210</ele>
        <time>2022-04-03T07:08:34.000Z</time>
      </trkpt>
      <trkpt lat="49.65641" lon="4.75513">
        <ele>209</ele>
        <time>2022-04-03T07:08:35.000Z</time>
      </trkpt>
      <trkpt lat="49.65636" lon="4.7551">
        <ele>209</ele>
        <time>2022-04-03T07:08:36.000Z</time>
      </trkpt>
      <trkpt lat="49.6563" lon="4.75507">
        <ele>208</ele>
        <time>2022-04-03T07:08:37.000Z</time>
      </trkpt>
      <trkpt lat="49.65624" lon="4.75503">
        <ele>208</ele>
        <time>2022-04-03T07:08:38.000Z</time>
      </trkpt>
      <trkpt lat="49.65618" lon="4.755">
        <ele>208</ele>
        <time>2022-04-03T07:08:39.000Z</time>
      </trkpt>
      <trkpt lat="49.65612" lon="4.75497">
        <ele>207</ele>
        <time>2022-04-03T07:08:40.000Z</time>
      </trkpt>
      <trkpt lat="49.65607" lon="4.75492">
        <ele>207</ele>
        <time>2022-04-03T07:08:41.000Z</time>
      </trkpt>
      <trkpt lat="49.65601" lon="4.75488">
        <ele>207</ele>
        <time>2022-04-03T07:08:42.000Z</time>
      </trkpt>
      <trkpt lat="49.65596" lon="4.75484">
        <ele>207</ele>
        <time>2022-04-03T07:08:43.000Z</time>
      </trkpt>
      <trkpt lat="49.65591" lon="4.75481">
        <ele>207</ele>
        <time>2022-04-03T07:08:44.000Z</time>
      </trkpt>
      <trkpt lat="49.65588" lon="4.75477">
        <ele>207</ele>
        <time>2022-04-03T07:08:45.000Z</time>
      </trkpt>
      <trkpt lat="49.65584" lon="4.75473">
        <ele>207</ele>
        <time>2022-04-03T07:08:46.000Z</time>
      </trkpt>
      <trkpt lat="49.65581" lon="4.75468">
        <ele>207</ele>
        <time>2022-04-03T07:08:47.000Z</time>
      </trkpt>
      <trkpt lat="49.65578" lon="4.75461">
        <ele>206</ele>
        <time>2022-04-03T07:08:48.000Z</time>
      </trkpt>
      <trkpt lat="49.65574" lon="4.75454">
        <ele>206</ele>
        <time>2022-04-03T07:08:49.000Z</time>
      </trkpt>
      <trkpt lat="49.65571" lon="4.75448">
        <ele>206</ele>
        <time>2022-04-03T07:08:50.000Z</time>
      </trkpt>
      <trkpt lat="49.65567" lon="4.75443">
        <ele>206</ele>
        <time>2022-04-03T07:08:51.000Z</time>
      </trkpt>
      <trkpt lat="49.65564" lon="4.75432">
        <ele>206</ele>
        <time>2022-04-03T07:08:52.000Z</time>
      </trkpt>
      <trkpt lat="49.65564" lon="4.75426">
        <ele>205</ele>
        <time>2022-04-03T07:08:53.000Z</time>
      </trkpt>
      <trkpt lat="49.65564" lon="4.75426">
        <ele>205</ele>
        <time>2022-04-03T07:08:54.000Z</time>
      </trkpt>
      <trkpt lat="49.65566" lon="4.75421">
        <ele>205</ele>
        <time>2022-04-03T07:08:55.000Z</time>
      </trkpt>
      <trkpt lat="49.65569" lon="4.7542">
        <ele>205</ele>
        <time>2022-04-03T07:08:56.000Z</time>
      </trkpt>
      <trkpt lat="49.65574" lon="4.7542">
        <ele>205</ele>
        <time>2022-04-03T07:08:57.000Z</time>
      </trkpt>
      <trkpt lat="49.65577" lon="4.75422">
        <ele>205</ele>
        <time>2022-04-03T07:08:58.000Z</time>
      </trkpt>
      <trkpt lat="49.6558" lon="4.75422">
        <ele>205</ele>
        <time>2022-04-03T07:08:59.000Z</time>
      </trkpt>
      <trkpt lat="49.65582" lon="4.75421">
        <ele>204</ele>
        <time>2022-04-03T07:09:00.000Z</time>
      </trkpt>
      <trkpt lat="49.65584" lon="4.75421">
        <ele>204</ele>
        <time>2022-04-03T07:09:01.000Z</time>
      </trkpt>
      <trkpt lat="49.65586" lon="4.75424">
        <ele>204</ele>
        <time>2022-04-03T07:09:02.000Z</time>
      </trkpt>
      <trkpt lat="49.65588" lon="4.75425">
        <ele>204</ele>
        <time>2022-04-03T07:09:03.000Z</time>
      </trkpt>
      <trkpt lat="49.65588" lon="4.75425">
        <ele>204</ele>
        <time>2022-04-03T07:09:04.000Z</time>
      </trkpt>
      <trkpt lat="49.65589" lon="4.75426">
        <ele>204</ele>
        <time>2022-04-03T07:09:05.000Z</time>
      </trkpt>
      <trkpt lat="49.65589" lon="4.75426">
        <ele>204</ele>
        <time>2022-04-03T07:09:06.000Z</time>
      </trkpt>
      <trkpt lat="49.6559" lon="4.75426">
        <ele>204</ele>
        <time>2022-04-03T07:09:07.000Z</time>
      </trkpt>
      <trkpt lat="49.6559" lon="4.75425">
        <ele>203</ele>
        <time>2022-04-03T07:09:08.000Z</time>
      </trkpt>
      <trkpt lat="49.65589" lon="4.75425">
        <ele>203</ele>
        <time>2022-04-03T07:09:09.000Z</time>
      </trkpt>
      <trkpt lat="49.65589" lon="4.75424">
        <ele>203</ele>
        <time>2022-04-03T07:09:10.000Z</time>
      </trkpt>
      <trkpt lat="49.65589" lon="4.75423">
        <ele>203</ele>
        <time>2022-04-03T07:09:11.000Z</time>
      </trkpt>
      <trkpt lat="49.65589" lon="4.75421">
        <ele>203</ele>
        <time>2022-04-03T07:09:12.000Z</time>
      </trkpt>
      <trkpt lat="49.65589" lon="4.75419">
        <ele>203</ele>
        <time>2022-04-03T07:09:13.000Z</time>
      </trkpt>
      <trkpt lat="49.65589" lon="4.75418">
        <ele>203</ele>
        <time>2022-04-03T07:09:14.000Z</time>
      </trkpt>
      <trkpt lat="49.65588" lon="4.75416">
        <ele>203</ele>
        <time>2022-04-03T07:09:15.000Z</time>
      </trkpt>
      <trkpt lat="49.65588" lon="4.75415">
        <ele>203</ele>
        <time>2022-04-03T07:09:16.000Z</time>
      </trkpt>
      <trkpt lat="49.65588" lon="4.75414">
        <ele>203</ele>
        <time>2022-04-03T07:09:17.000Z</time>
      </trkpt>
      <trkpt lat="49.65589" lon="4.75413">
        <ele>203</ele>
        <time>2022-04-03T07:09:18.000Z</time>
      </trkpt>
      <trkpt lat="49.65589" lon="4.75413">
        <ele>203</ele>
        <time>2022-04-03T07:09:19.000Z</time>
      </trkpt>
      <trkpt lat="49.65589" lon="4.75413">
        <ele>203</ele>
        <time>2022-04-03T07:09:20.000Z</time>
      </trkpt>
      <trkpt lat="49.65589" lon="4.75413">
        <ele>203</ele>
        <time>2022-04-03T07:09:21.000Z</time>
      </trkpt>
      <trkpt lat="49.65588" lon="4.75413">
        <ele>203</ele>
        <time>2022-04-03T07:09:22.000Z</time>
      </trkpt>
      <trkpt lat="49.65588" lon="4.75413">
        <ele>203</ele>
        <time>2022-04-03T07:09:23.000Z</time>
      </trkpt>
      <trkpt lat="49.65588" lon="4.75413">
        <ele>203</ele>
        <time>2022-04-03T07:09:24.000Z</time>
      </trkpt>
      <trkpt lat="49.65589" lon="4.75413">
        <ele>203</ele>
        <time>2022-04-03T07:09:25.000Z</time>
      </trkpt>
      <trkpt lat="49.65589" lon="4.75413">
        <ele>203</ele>
        <time>2022-04-03T07:09:26.000Z</time>
      </trkpt>
      <trkpt lat="49.65588" lon="4.75413">
        <ele>203</ele>
        <time>2022-04-03T07:09:27.000Z</time>
      </trkpt>
      <trkpt lat="49.65588" lon="4.75413">
        <ele>203</ele>
        <time>2022-04-03T07:09:28.000Z</time>
      </trkpt>
      <trkpt lat="49.65588" lon="4.75413">
        <ele>203</ele>
        <time>2022-04-03T07:09:29.000Z</time>
      </trkpt>
      <trkpt lat="49.65588" lon="4.75413">
        <ele>203</ele>
        <time>2022-04-03T07:09:30.000Z</time>
      </trkpt>
      <trkpt lat="49.65588" lon="4.75413">
        <ele>203</ele>
        <time>2022-04-03T07:09:31.000Z</time>
      </trkpt>
      <trkpt lat="49.65588" lon="4.75413">
        <ele>203</ele>
        <time>2022-04-03T07:09:32.000Z</time>
      </trkpt>
      <trkpt lat="49.65588" lon="4.75413">
        <ele>203</ele>
        <time>2022-04-03T07:09:33.000Z</time>
      </trkpt>
      <trkpt lat="49.65587" lon="4.75413">
        <ele>203</ele>
        <time>2022-04-03T07:09:34.000Z</time>
      </trkpt>
      <trkpt lat="49.65587" lon="4.75413">
        <ele>203</ele>
        <time>2022-04-03T07:09:35.000Z</time>
      </trkpt>
      <trkpt lat="49.65587" lon="4.75413">
        <ele>204</ele>
        <time>2022-04-03T07:09:36.000Z</time>
      </trkpt>
      <trkpt lat="49.65587" lon="4.75414">
        <ele>204</ele>
        <time>2022-04-03T07:09:37.000Z</time>
      </trkpt>
      <trkpt lat="49.65587" lon="4.75414">
        <ele>204</ele>
        <time>2022-04-03T07:09:38.000Z</time>
      </trkpt>
      <trkpt lat="49.65587" lon="4.75413">
        <ele>204</ele>
        <time>2022-04-03T07:09:39.000Z</time>
      </trkpt>
      <trkpt lat="49.65587" lon="4.75413">
        <ele>204</ele>
        <time>2022-04-03T07:09:40.000Z</time>
      </trkpt>
      <trkpt lat="49.65587" lon="4.75414">
        <ele>204</ele>
        <time>2022-04-03T07:09:41.000Z</time>
      </trkpt>
      <trkpt lat="49.65587" lon="4.75414">
        <ele>204</ele>
        <time>2022-04-03T07:09:42.000Z</time>
      </trkpt>
      <trkpt lat="49.65587" lon="4.75414">
        <ele>204</ele>
        <time>2022-04-03T07:09:43.000Z</time>
      </trkpt>
      <trkpt lat="49.65587" lon="4.75414">
        <ele>204</ele>
        <time>2022-04-03T07:09:44.000Z</time>
      </trkpt>
      <trkpt lat="49.65587" lon="4.75414">
        <ele>204</ele>
        <time>2022-04-03T07:09:45.000Z</time>
      </trkpt>
      <trkpt lat="49.65587" lon="4.75414">
        <ele>204</ele>
        <time>2022-04-03T07:09:46.000Z</time>
      </trkpt>
      <trkpt lat="49.65587" lon="4.75414">
        <ele>204</ele>
        <time>2022-04-03T07:09:47.000Z</time>
      </trkpt>
      <trkpt lat="49.65588" lon="4.75415">
        <ele>204</ele>
        <time>2022-04-03T07:09:48.000Z</time>
      </trkpt>
      <trkpt lat="49.65587" lon="4.75415">
        <ele>204</ele>
        <time>2022-04-03T07:09:49.000Z</time>
      </trkpt>
      <trkpt lat="49.65587" lon="4.75415">
        <ele>204</ele>
        <time>2022-04-03T07:09:50.000Z</time>
      </trkpt>
      <trkpt lat="49.65587" lon="4.75415">
        <ele>204</ele>
        <time>2022-04-03T07:09:51.000Z</time>
      </trkpt>
      <trkpt lat="49.65587" lon="4.75415">
        <ele>204</ele>
        <time>2022-04-03T07:09:52.000Z</time>
      </trkpt>
      <trkpt lat="49.65588" lon="4.75415">
        <ele>204</ele>
        <time>2022-04-03T07:09:53.000Z</time>
      </trkpt>
      <trkpt lat="49.65588" lon="4.75415">
        <ele>204</ele>
        <time>2022-04-03T07:09:54.000Z</time>
      </trkpt>
      <trkpt lat="49.65588" lon="4.75415">
        <ele>204</ele>
        <time>2022-04-03T07:09:55.000Z</time>
      </trkpt>
      <trkpt lat="49.65588" lon="4.75415">
        <ele>204</ele>
        <time>2022-04-03T07:09:56.000Z</time>
      </trkpt>
      <trkpt lat="49.65588" lon="4.75415">
        <ele>204</ele>
        <time>2022-04-03T07:09:57.000Z</time>
      </trkpt>
      <trkpt lat="49.65588" lon="4.75415">
        <ele>204</ele>
        <time>2022-04-03T07:09:58.000Z</time>
      </trkpt>
      <trkpt lat="49.65588" lon="4.75415">
        <ele>204</ele>
        <time>2022-04-03T07:09:59.000Z</time>
      </trkpt>
      <trkpt lat="49.65588" lon="4.75415">
        <ele>204</ele>
        <time>2022-04-03T07:10:00.000Z</time>
      </trkpt>
      <trkpt lat="49.65588" lon="4.75416">
        <ele>204</ele>
        <time>2022-04-03T07:10:01.000Z</time>
      </trkpt>
      <trkpt lat="49.65588" lon="4.75416">
        <ele>204</ele>
        <time>2022-04-03T07:10:02.000Z</time>
      </trkpt>
      <trkpt lat="49.65588" lon="4.75416">
        <ele>204</ele>
        <time>2022-04-03T07:10:03.000Z</time>
      </trkpt>
      <trkpt lat="49.65588" lon="4.75416">
        <ele>204</ele>
        <time>2022-04-03T07:10:04.000Z</time>
      </trkpt>
      <trkpt lat="49.65588" lon="4.75416">
        <ele>204</ele>
        <time>2022-04-03T07:10:05.000Z</time>
      </trkpt>
      <trkpt lat="49.65588" lon="4.75416">
        <ele>203</ele>
        <time>2022-04-03T07:10:06.000Z</time>
      </trkpt>
      <trkpt lat="49.65588" lon="4.75416">
        <ele>203</ele>
        <time>2022-04-03T07:10:07.000Z</time>
      </trkpt>
      <trkpt lat="49.65588" lon="4.75416">
        <ele>203</ele>
        <time>2022-04-03T07:10:08.000Z</time>
      </trkpt>
      <trkpt lat="49.65588" lon="4.75417">
        <ele>203</ele>
        <time>2022-04-03T07:10:09.000Z</time>
      </trkpt>
      <trkpt lat="49.65587" lon="4.75417">
        <ele>203</ele>
        <time>2022-04-03T07:10:10.000Z</time>
      </trkpt>
      <trkpt lat="49.65587" lon="4.75417">
        <ele>203</ele>
        <time>2022-04-03T07:10:11.000Z</time>
      </trkpt>
      <trkpt lat="49.65587" lon="4.75417">
        <ele>203</ele>
        <time>2022-04-03T07:10:12.000Z</time>
      </trkpt>
      <trkpt lat="49.65588" lon="4.75417">
        <ele>203</ele>
        <time>2022-04-03T07:10:13.000Z</time>
      </trkpt>
      <trkpt lat="49.65588" lon="4.75417">
        <ele>203</ele>
        <time>2022-04-03T07:10:14.000Z</time>
      </trkpt>
      <trkpt lat="49.65588" lon="4.75417">
        <ele>203</ele>
        <time>2022-04-03T07:10:15.000Z</time>
      </trkpt>
      <trkpt lat="49.65588" lon="4.75417">
        <ele>203</ele>
        <time>2022-04-03T07:10:16.000Z</time>
      </trkpt>
      <trkpt lat="49.65588" lon="4.75417">
        <ele>203</ele>
        <time>2022-04-03T07:10:17.000Z</time>
      </trkpt>
      <trkpt lat="49.65588" lon="4.75417">
        <ele>203</ele>
        <time>2022-04-03T07:10:18.000Z</time>
      </trkpt>
      <trkpt lat="49.65588" lon="4.75417">
        <ele>203</ele>
        <time>2022-04-03T07:10:19.000Z</time>
      </trkpt>
      <trkpt lat="49.65588" lon="4.75418">
        <ele>203</ele>
        <time>2022-04-03T07:10:20.000Z</time>
      </trkpt>
      <trkpt lat="49.65588" lon="4.75418">
        <ele>203</ele>
        <time>2022-04-03T07:10:21.000Z</time>
      </trkpt>
      <trkpt lat="49.65589" lon="4.75418">
        <ele>202</ele>
        <time>2022-04-03T07:10:22.000Z</time>
      </trkpt>
      <trkpt lat="49.65589" lon="4.75418">
        <ele>202</ele>
        <time>2022-04-03T07:10:23.000Z</time>
      </trkpt>
      <trkpt lat="49.65589" lon="4.75418">
        <ele>202</ele>
        <time>2022-04-03T07:10:24.000Z</time>
      </trkpt>
      <trkpt lat="49.65589" lon="4.75418">
        <ele>202</ele>
        <time>2022-04-03T07:10:25.000Z</time>
      </trkpt>
      <trkpt lat="49.65589" lon="4.75418">
        <ele>202</ele>
        <time>2022-04-03T07:10:26.000Z</time>
      </trkpt>
      <trkpt lat="49.65589" lon="4.75418">
        <ele>202</ele>
        <time>2022-04-03T07:10:27.000Z</time>
      </trkpt>
      <trkpt lat="49.65589" lon="4.75419">
        <ele>202</ele>
        <time>2022-04-03T07:10:28.000Z</time>
      </trkpt>
      <trkpt lat="49.65589" lon="4.75419">
        <ele>202</ele>
        <time>2022-04-03T07:10:29.000Z</time>
      </trkpt>
      <trkpt lat="49.6559" lon="4.75419">
        <ele>202</ele>
        <time>2022-04-03T07:10:30.000Z</time>
      </trkpt>
      <trkpt lat="49.6559" lon="4.75419">
        <ele>202</ele>
        <time>2022-04-03T07:10:31.000Z</time>
      </trkpt>
      <trkpt lat="49.6559" lon="4.75419">
        <ele>202</ele>
        <time>2022-04-03T07:10:32.000Z</time>
      </trkpt>
      <trkpt lat="49.6559" lon="4.75419">
        <ele>202</ele>
        <time>2022-04-03T07:10:33.000Z</time>
      </trkpt>
      <trkpt lat="49.6559" lon="4.75419">
        <ele>202</ele>
        <time>2022-04-03T07:10:34.000Z</time>
      </trkpt>
      <trkpt lat="49.6559" lon="4.75419">
        <ele>202</ele>
        <time>2022-04-03T07:10:35.000Z</time>
      </trkpt>
      <trkpt lat="49.6559" lon="4.75419">
        <ele>202</ele>
        <time>2022-04-03T07:10:36.000Z</time>
      </trkpt>
      <trkpt lat="49.6559" lon="4.75419">
        <ele>202</ele>
        <time>2022-04-03T07:10:37.000Z</time>
      </trkpt>
      <trkpt lat="49.6559" lon="4.7542">
        <ele>202</ele>
        <time>2022-04-03T07:10:38.000Z</time>
      </trkpt>
      <trkpt lat="49.6559" lon="4.7542">
        <ele>202</ele>
        <time>2022-04-03T07:10:39.000Z</time>
      </trkpt>
      <trkpt lat="49.65591" lon="4.7542">
        <ele>202</ele>
        <time>2022-04-03T07:10:40.000Z</time>
      </trkpt>
      <trkpt lat="49.6559" lon="4.7542">
        <ele>202</ele>
        <time>2022-04-03T07:10:41.000Z</time>
      </trkpt>
      <trkpt lat="49.6559" lon="4.7542">
        <ele>201</ele>
        <time>2022-04-03T07:10:42.000Z</time>
      </trkpt>
      <trkpt lat="49.65591" lon="4.7542">
        <ele>201</ele>
        <time>2022-04-03T07:10:43.000Z</time>
      </trkpt>
      <trkpt lat="49.6559" lon="4.7542">
        <ele>201</ele>
        <time>2022-04-03T07:10:44.000Z</time>
      </trkpt>
      <trkpt lat="49.6559" lon="4.7542">
        <ele>201</ele>
        <time>2022-04-03T07:10:45.000Z</time>
      </trkpt>
      <trkpt lat="49.65591" lon="4.7542">
        <ele>201</ele>
        <time>2022-04-03T07:10:46.000Z</time>
      </trkpt>
      <trkpt lat="49.65591" lon="4.75421">
        <ele>201</ele>
        <time>2022-04-03T07:10:47.000Z</time>
      </trkpt>
      <trkpt lat="49.65592" lon="4.75421">
        <ele>201</ele>
        <time>2022-04-03T07:10:48.000Z</time>
      </trkpt>
      <trkpt lat="49.65592" lon="4.75421">
        <ele>201</ele>
        <time>2022-04-03T07:10:49.000Z</time>
      </trkpt>
      <trkpt lat="49.65592" lon="4.75421">
        <ele>201</ele>
        <time>2022-04-03T07:10:50.000Z</time>
      </trkpt>
      <trkpt lat="49.65592" lon="4.7542">
        <ele>201</ele>
        <time>2022-04-03T07:10:51.000Z</time>
      </trkpt>
      <trkpt lat="49.65593" lon="4.75421">
        <ele>201</ele>
        <time>2022-04-03T07:10:52.000Z</time>
      </trkpt>
      <trkpt lat="49.65593" lon="4.75421">
        <ele>201</ele>
        <time>2022-04-03T07:10:53.000Z</time>
      </trkpt>
      <trkpt lat="49.65593" lon="4.75421">
        <ele>200</ele>
        <time>2022-04-03T07:10:54.000Z</time>
      </trkpt>
      <trkpt lat="49.65592" lon="4.75422">
        <ele>200</ele>
        <time>2022-04-03T07:10:55.000Z</time>
      </trkpt>
      <trkpt lat="49.65592" lon="4.75422">
        <ele>200</ele>
        <time>2022-04-03T07:10:56.000Z</time>
      </trkpt>
      <trkpt lat="49.65592" lon="4.75421">
        <ele>200</ele>
        <time>2022-04-03T07:10:57.000Z</time>
      </trkpt>
      <trkpt lat="49.65592" lon="4.75421">
        <ele>200</ele>
        <time>2022-04-03T07:10:58.000Z</time>
      </trkpt>
      <trkpt lat="49.65591" lon="4.75421">
        <ele>200</ele>
        <time>2022-04-03T07:10:59.000Z</time>
      </trkpt>
      <trkpt lat="49.65591" lon="4.75421">
        <ele>200</ele>
        <time>2022-04-03T07:11:00.000Z</time>
      </trkpt>
      <trkpt lat="49.65591" lon="4.75421">
        <ele>200</ele>
        <time>2022-04-03T07:11:01.000Z</time>
      </trkpt>
      <trkpt lat="49.65591" lon="4.75421">
        <ele>200</ele>
        <time>2022-04-03T07:11:02.000Z</time>
      </trkpt>
      <trkpt lat="49.65591" lon="4.75421">
        <ele>200</ele>
        <time>2022-04-03T07:11:03.000Z</time>
      </trkpt>
      <trkpt lat="49.6559" lon="4.75421">
        <ele>199</ele>
        <time>2022-04-03T07:11:04.000Z</time>
      </trkpt>
      <trkpt lat="49.65589" lon="4.75421">
        <ele>199</ele>
        <time>2022-04-03T07:11:05.000Z</time>
      </trkpt>
      <trkpt lat="49.65589" lon="4.75421">
        <ele>199</ele>
        <time>2022-04-03T07:11:06.000Z</time>
      </trkpt>
      <trkpt lat="49.65589" lon="4.75421">
        <ele>199</ele>
        <time>2022-04-03T07:11:07.000Z</time>
      </trkpt>
      <trkpt lat="49.65589" lon="4.75421">
        <ele>199</ele>
        <time>2022-04-03T07:11:08.000Z</time>
      </trkpt>
      <trkpt lat="49.65589" lon="4.75421">
        <ele>199</ele>
        <time>2022-04-03T07:11:09.000Z</time>
      </trkpt>
      <trkpt lat="49.65589" lon="4.75421">
        <ele>199</ele>
        <time>2022-04-03T07:11:10.000Z</time>
      </trkpt>
      <trkpt lat="49.65589" lon="4.75421">
        <ele>199</ele>
        <time>2022-04-03T07:11:11.000Z</time>
      </trkpt>
      <trkpt lat="49.65588" lon="4.75421">
        <ele>199</ele>
        <time>2022-04-03T07:11:12.000Z</time>
      </trkpt>
      <trkpt lat="49.65588" lon="4.75421">
        <ele>199</ele>
        <time>2022-04-03T07:11:13.000Z</time>
      </trkpt>
      <trkpt lat="49.65588" lon="4.75421">
        <ele>199</ele>
        <time>2022-04-03T07:11:14.000Z</time>
      </trkpt>
      <trkpt lat="49.65588" lon="4.75422">
        <ele>199</ele>
        <time>2022-04-03T07:11:15.000Z</time>
      </trkpt>
      <trkpt lat="49.65588" lon="4.75422">
        <ele>199</ele>
        <time>2022-04-03T07:11:16.000Z</time>
      </trkpt>
      <trkpt lat="49.65588" lon="4.75422">
        <ele>199</ele>
        <time>2022-04-03T07:11:17.000Z</time>
      </trkpt>
      <trkpt lat="49.65588" lon="4.75422">
        <ele>199</ele>
        <time>2022-04-03T07:11:18.000Z</time>
      </trkpt>
      <trkpt lat="49.65588" lon="4.75422">
        <ele>199</ele>
        <time>2022-04-03T07:11:19.000Z</time>
      </trkpt>
      <trkpt lat="49.65588" lon="4.75423">
        <ele>198</ele>
        <time>2022-04-03T07:11:20.000Z</time>
      </trkpt>
      <trkpt lat="49.65588" lon="4.75423">
        <ele>198</ele>
        <time>2022-04-03T07:11:21.000Z</time>
      </trkpt>
      <trkpt lat="49.65588" lon="4.75421">
        <ele>198</ele>
        <time>2022-04-03T07:11:22.000Z</time>
      </trkpt>
      <trkpt lat="49.65589" lon="4.75422">
        <ele>198</ele>
        <time>2022-04-03T07:11:23.000Z</time>
      </trkpt>
      <trkpt lat="49.65588" lon="4.75422">
        <ele>199</ele>
        <time>2022-04-03T07:11:24.000Z</time>
      </trkpt>
      <trkpt lat="49.65588" lon="4.75424">
        <ele>199</ele>
        <time>2022-04-03T07:11:25.000Z</time>
      </trkpt>
      <trkpt lat="49.65588" lon="4.75426">
        <ele>199</ele>
        <time>2022-04-03T07:11:26.000Z</time>
      </trkpt>
      <trkpt lat="49.65588" lon="4.75428">
        <ele>199</ele>
        <time>2022-04-03T07:11:27.000Z</time>
      </trkpt>
      <trkpt lat="49.65589" lon="4.75431">
        <ele>199</ele>
        <time>2022-04-03T07:11:28.000Z</time>
      </trkpt>
      <trkpt lat="49.65589" lon="4.75432">
        <ele>199</ele>
        <time>2022-04-03T07:11:29.000Z</time>
      </trkpt>
      <trkpt lat="49.65589" lon="4.75432">
        <ele>199</ele>
        <time>2022-04-03T07:11:30.000Z</time>
      </trkpt>
      <trkpt lat="49.65589" lon="4.75432">
        <ele>199</ele>
        <time>2022-04-03T07:11:31.000Z</time>
      </trkpt>
      <trkpt lat="49.65589" lon="4.75431">
        <ele>199</ele>
        <time>2022-04-03T07:11:32.000Z</time>
      </trkpt>
      <trkpt lat="49.65588" lon="4.75431">
        <ele>199</ele>
        <time>2022-04-03T07:11:33.000Z</time>
      </trkpt>
      <trkpt lat="49.65588" lon="4.75431">
        <ele>199</ele>
        <time>2022-04-03T07:11:34.000Z</time>
      </trkpt>
      <trkpt lat="49.65588" lon="4.75431">
        <ele>199</ele>
        <time>2022-04-03T07:11:35.000Z</time>
      </trkpt>
      <trkpt lat="49.65586" lon="4.7543">
        <ele>199</ele>
        <time>2022-04-03T07:11:36.000Z</time>
      </trkpt>
      <trkpt lat="49.65585" lon="4.75428">
        <ele>199</ele>
        <time>2022-04-03T07:11:37.000Z</time>
      </trkpt>
      <trkpt lat="49.65584" lon="4.75428">
        <ele>199</ele>
        <time>2022-04-03T07:11:38.000Z</time>
      </trkpt>
      <trkpt lat="49.65584" lon="4.75428">
        <ele>199</ele>
        <time>2022-04-03T07:11:39.000Z</time>
      </trkpt>
      <trkpt lat="49.65584" lon="4.75428">
        <ele>199</ele>
        <time>2022-04-03T07:11:40.000Z</time>
      </trkpt>
      <trkpt lat="49.65583" lon="4.75428">
        <ele>199</ele>
        <time>2022-04-03T07:11:41.000Z</time>
      </trkpt>
      <trkpt lat="49.65583" lon="4.75428">
        <ele>199</ele>
        <time>2022-04-03T07:11:42.000Z</time>
      </trkpt>
      <trkpt lat="49.65582" lon="4.75428">
        <ele>199</ele>
        <time>2022-04-03T07:11:43.000Z</time>
      </trkpt>
      <trkpt lat="49.65582" lon="4.75427">
        <ele>199</ele>
        <time>2022-04-03T07:11:44.000Z</time>
      </trkpt>
      <trkpt lat="49.65581" lon="4.75425">
        <ele>199</ele>
        <time>2022-04-03T07:11:45.000Z</time>
      </trkpt>
      <trkpt lat="49.65579" lon="4.75423">
        <ele>199</ele>
        <time>2022-04-03T07:11:46.000Z</time>
      </trkpt>
      <trkpt lat="49.65577" lon="4.75421">
        <ele>200</ele>
        <time>2022-04-03T07:11:47.000Z</time>
      </trkpt>
      <trkpt lat="49.65574" lon="4.75419">
        <ele>200</ele>
        <time>2022-04-03T07:11:48.000Z</time>
      </trkpt>
      <trkpt lat="49.65572" lon="4.75417">
        <ele>200</ele>
        <time>2022-04-03T07:11:49.000Z</time>
      </trkpt>
      <trkpt lat="49.65569" lon="4.75415">
        <ele>200</ele>
        <time>2022-04-03T07:11:50.000Z</time>
      </trkpt>
      <trkpt lat="49.65567" lon="4.75413">
        <ele>200</ele>
        <time>2022-04-03T07:11:51.000Z</time>
      </trkpt>
      <trkpt lat="49.65563" lon="4.7541">
        <ele>200</ele>
        <time>2022-04-03T07:11:52.000Z</time>
      </trkpt>
      <trkpt lat="49.6556" lon="4.75407">
        <ele>200</ele>
        <time>2022-04-03T07:11:53.000Z</time>
      </trkpt>
      <trkpt lat="49.65556" lon="4.75404">
        <ele>200</ele>
        <time>2022-04-03T07:11:54.000Z</time>
      </trkpt>
      <trkpt lat="49.65549" lon="4.754">
        <ele>200</ele>
        <time>2022-04-03T07:11:55.000Z</time>
      </trkpt>
      <trkpt lat="49.65549" lon="4.754">
        <ele>200</ele>
        <time>2022-04-03T07:11:56.000Z</time>
      </trkpt>
      <trkpt lat="49.65546" lon="4.75398">
        <ele>200</ele>
        <time>2022-04-03T07:11:57.000Z</time>
      </trkpt>
      <trkpt lat="49.65542" lon="4.75395">
        <ele>200</ele>
        <time>2022-04-03T07:11:58.000Z</time>
      </trkpt>
      <trkpt lat="49.65539" lon="4.75392">
        <ele>200</ele>
        <time>2022-04-03T07:11:59.000Z</time>
      </trkpt>
      <trkpt lat="49.65535" lon="4.75389">
        <ele>200</ele>
        <time>2022-04-03T07:12:00.000Z</time>
      </trkpt>
      <trkpt lat="49.65531" lon="4.75387">
        <ele>200</ele>
        <time>2022-04-03T07:12:01.000Z</time>
      </trkpt>
      <trkpt lat="49.65528" lon="4.75384">
        <ele>200</ele>
        <time>2022-04-03T07:12:02.000Z</time>
      </trkpt>
      <trkpt lat="49.65525" lon="4.75382">
        <ele>200</ele>
        <time>2022-04-03T07:12:03.000Z</time>
      </trkpt>
      <trkpt lat="49.65523" lon="4.7538">
        <ele>200</ele>
        <time>2022-04-03T07:12:04.000Z</time>
      </trkpt>
      <trkpt lat="49.6552" lon="4.75379">
        <ele>200</ele>
        <time>2022-04-03T07:12:05.000Z</time>
      </trkpt>
      <trkpt lat="49.65516" lon="4.75377">
        <ele>201</ele>
        <time>2022-04-03T07:12:06.000Z</time>
      </trkpt>
      <trkpt lat="49.65513" lon="4.75375">
        <ele>201</ele>
        <time>2022-04-03T07:12:07.000Z</time>
      </trkpt>
      <trkpt lat="49.65511" lon="4.75373">
        <ele>201</ele>
        <time>2022-04-03T07:12:08.000Z</time>
      </trkpt>
      <trkpt lat="49.65507" lon="4.75371">
        <ele>201</ele>
        <time>2022-04-03T07:12:09.000Z</time>
      </trkpt>
      <trkpt lat="49.65504" lon="4.75368">
        <ele>201</ele>
        <time>2022-04-03T07:12:10.000Z</time>
      </trkpt>
      <trkpt lat="49.65501" lon="4.75367">
        <ele>201</ele>
        <time>2022-04-03T07:12:11.000Z</time>
      </trkpt>
      <trkpt lat="49.65498" lon="4.75365">
        <ele>201</ele>
        <time>2022-04-03T07:12:12.000Z</time>
      </trkpt>
      <trkpt lat="49.65496" lon="4.75365">
        <ele>201</ele>
        <time>2022-04-03T07:12:13.000Z</time>
      </trkpt>
      <trkpt lat="49.65493" lon="4.75364">
        <ele>201</ele>
        <time>2022-04-03T07:12:14.000Z</time>
      </trkpt>
      <trkpt lat="49.65491" lon="4.75362">
        <ele>201</ele>
        <time>2022-04-03T07:12:15.000Z</time>
      </trkpt>
      <trkpt lat="49.65489" lon="4.7536">
        <ele>201</ele>
        <time>2022-04-03T07:12:16.000Z</time>
      </trkpt>
      <trkpt lat="49.65487" lon="4.75358">
        <ele>201</ele>
        <time>2022-04-03T07:12:17.000Z</time>
      </trkpt>
      <trkpt lat="49.65481" lon="4.75354">
        <ele>201</ele>
        <time>2022-04-03T07:12:18.000Z</time>
      </trkpt>
      <trkpt lat="49.65478" lon="4.75352">
        <ele>201</ele>
        <time>2022-04-03T07:12:19.000Z</time>
      </trkpt>
      <trkpt lat="49.65478" lon="4.75352">
        <ele>201</ele>
        <time>2022-04-03T07:12:20.000Z</time>
      </trkpt>
      <trkpt lat="49.65476" lon="4.7535">
        <ele>201</ele>
        <time>2022-04-03T07:12:21.000Z</time>
      </trkpt>
      <trkpt lat="49.65474" lon="4.75348">
        <ele>201</ele>
        <time>2022-04-03T07:12:22.000Z</time>
      </trkpt>
      <trkpt lat="49.65471" lon="4.75346">
        <ele>201</ele>
        <time>2022-04-03T07:12:23.000Z</time>
      </trkpt>
      <trkpt lat="49.65469" lon="4.75343">
        <ele>201</ele>
        <time>2022-04-03T07:12:24.000Z</time>
      </trkpt>
      <trkpt lat="49.65466" lon="4.75341">
        <ele>201</ele>
        <time>2022-04-03T07:12:25.000Z</time>
      </trkpt>
      <trkpt lat="49.65464" lon="4.75338">
        <ele>201</ele>
        <time>2022-04-03T07:12:26.000Z</time>
      </trkpt>
      <trkpt lat="49.65461" lon="4.75335">
        <ele>201</ele>
        <time>2022-04-03T07:12:27.000Z</time>
      </trkpt>
      <trkpt lat="49.65458" lon="4.75332">
        <ele>201</ele>
        <time>2022-04-03T07:12:28.000Z</time>
      </trkpt>
      <trkpt lat="49.65451" lon="4.75326">
        <ele>201</ele>
        <time>2022-04-03T07:12:29.000Z</time>
      </trkpt>
      <trkpt lat="49.65448" lon="4.75323">
        <ele>201</ele>
        <time>2022-04-03T07:12:30.000Z</time>
      </trkpt>
      <trkpt lat="49.65445" lon="4.75319">
        <ele>201</ele>
        <time>2022-04-03T07:12:31.000Z</time>
      </trkpt>
      <trkpt lat="49.65445" lon="4.75319">
        <ele>201</ele>
        <time>2022-04-03T07:12:32.000Z</time>
      </trkpt>
      <trkpt lat="49.65441" lon="4.75316">
        <ele>201</ele>
        <time>2022-04-03T07:12:33.000Z</time>
      </trkpt>
      <trkpt lat="49.65439" lon="4.75314">
        <ele>201</ele>
        <time>2022-04-03T07:12:34.000Z</time>
      </trkpt>
      <trkpt lat="49.65436" lon="4.75311">
        <ele>201</ele>
        <time>2022-04-03T07:12:35.000Z</time>
      </trkpt>
      <trkpt lat="49.65434" lon="4.75307">
        <ele>202</ele>
        <time>2022-04-03T07:12:36.000Z</time>
      </trkpt>
      <trkpt lat="49.65432" lon="4.75303">
        <ele>202</ele>
        <time>2022-04-03T07:12:37.000Z</time>
      </trkpt>
      <trkpt lat="49.65426" lon="4.753">
        <ele>202</ele>
        <time>2022-04-03T07:12:38.000Z</time>
      </trkpt>
      <trkpt lat="49.65426" lon="4.753">
        <ele>202</ele>
        <time>2022-04-03T07:12:39.000Z</time>
      </trkpt>
      <trkpt lat="49.65421" lon="4.75298">
        <ele>203</ele>
        <time>2022-04-03T07:12:40.000Z</time>
      </trkpt>
      <trkpt lat="49.65421" lon="4.75298">
        <ele>203</ele>
        <time>2022-04-03T07:12:41.000Z</time>
      </trkpt>
      <trkpt lat="49.65418" lon="4.75298">
        <ele>203</ele>
        <time>2022-04-03T07:12:42.000Z</time>
      </trkpt>
      <trkpt lat="49.65416" lon="4.75298">
        <ele>203</ele>
        <time>2022-04-03T07:12:43.000Z</time>
      </trkpt>
      <trkpt lat="49.65414" lon="4.75298">
        <ele>204</ele>
        <time>2022-04-03T07:12:44.000Z</time>
      </trkpt>
      <trkpt lat="49.65411" lon="4.75299">
        <ele>204</ele>
        <time>2022-04-03T07:12:45.000Z</time>
      </trkpt>
      <trkpt lat="49.65407" lon="4.753">
        <ele>204</ele>
        <time>2022-04-03T07:12:46.000Z</time>
      </trkpt>
      <trkpt lat="49.65405" lon="4.75301">
        <ele>205</ele>
        <time>2022-04-03T07:12:47.000Z</time>
      </trkpt>
      <trkpt lat="49.65403" lon="4.75302">
        <ele>205</ele>
        <time>2022-04-03T07:12:48.000Z</time>
      </trkpt>
      <trkpt lat="49.65401" lon="4.75304">
        <ele>205</ele>
        <time>2022-04-03T07:12:49.000Z</time>
      </trkpt>
      <trkpt lat="49.65401" lon="4.75304">
        <ele>205</ele>
        <time>2022-04-03T07:12:50.000Z</time>
      </trkpt>
      <trkpt lat="49.65398" lon="4.75306">
        <ele>206</ele>
        <time>2022-04-03T07:12:51.000Z</time>
      </trkpt>
      <trkpt lat="49.65396" lon="4.75307">
        <ele>206</ele>
        <time>2022-04-03T07:12:52.000Z</time>
      </trkpt>
      <trkpt lat="49.65391" lon="4.75306">
        <ele>206</ele>
        <time>2022-04-03T07:12:53.000Z</time>
      </trkpt>
      <trkpt lat="49.65391" lon="4.75306">
        <ele>206</ele>
        <time>2022-04-03T07:12:54.000Z</time>
      </trkpt>
      <trkpt lat="49.65389" lon="4.75304">
        <ele>207</ele>
        <time>2022-04-03T07:12:55.000Z</time>
      </trkpt>
      <trkpt lat="49.65387" lon="4.75302">
        <ele>207</ele>
        <time>2022-04-03T07:12:56.000Z</time>
      </trkpt>
      <trkpt lat="49.65385" lon="4.753">
        <ele>207</ele>
        <time>2022-04-03T07:12:57.000Z</time>
      </trkpt>
      <trkpt lat="49.65382" lon="4.75299">
        <ele>207</ele>
        <time>2022-04-03T07:12:58.000Z</time>
      </trkpt>
      <trkpt lat="49.6538" lon="4.75299">
        <ele>208</ele>
        <time>2022-04-03T07:12:59.000Z</time>
      </trkpt>
      <trkpt lat="49.65378" lon="4.753">
        <ele>208</ele>
        <time>2022-04-03T07:13:00.000Z</time>
      </trkpt>
      <trkpt lat="49.65376" lon="4.75301">
        <ele>208</ele>
        <time>2022-04-03T07:13:01.000Z</time>
      </trkpt>
      <trkpt lat="49.6537" lon="4.75304">
        <ele>209</ele>
        <time>2022-04-03T07:13:02.000Z</time>
      </trkpt>
      <trkpt lat="49.6537" lon="4.75304">
        <ele>209</ele>
        <time>2022-04-03T07:13:03.000Z</time>
      </trkpt>
      <trkpt lat="49.65366" lon="4.75308">
        <ele>209</ele>
        <time>2022-04-03T07:13:04.000Z</time>
      </trkpt>
      <trkpt lat="49.65363" lon="4.75311">
        <ele>209</ele>
        <time>2022-04-03T07:13:05.000Z</time>
      </trkpt>
      <trkpt lat="49.6536" lon="4.75314">
        <ele>209</ele>
        <time>2022-04-03T07:13:06.000Z</time>
      </trkpt>
      <trkpt lat="49.65357" lon="4.75318">
        <ele>210</ele>
        <time>2022-04-03T07:13:07.000Z</time>
      </trkpt>
      <trkpt lat="49.65355" lon="4.75321">
        <ele>210</ele>
        <time>2022-04-03T07:13:08.000Z</time>
      </trkpt>
      <trkpt lat="49.65352" lon="4.75324">
        <ele>211</ele>
        <time>2022-04-03T07:13:09.000Z</time>
      </trkpt>
      <trkpt lat="49.65348" lon="4.75326">
        <ele>211</ele>
        <time>2022-04-03T07:13:10.000Z</time>
      </trkpt>
      <trkpt lat="49.65345" lon="4.75328">
        <ele>211</ele>
        <time>2022-04-03T07:13:11.000Z</time>
      </trkpt>
      <trkpt lat="49.65342" lon="4.75329">
        <ele>212</ele>
        <time>2022-04-03T07:13:12.000Z</time>
      </trkpt>
      <trkpt lat="49.65339" lon="4.75331">
        <ele>212</ele>
        <time>2022-04-03T07:13:13.000Z</time>
      </trkpt>
      <trkpt lat="49.65335" lon="4.75332">
        <ele>212</ele>
        <time>2022-04-03T07:13:14.000Z</time>
      </trkpt>
      <trkpt lat="49.65332" lon="4.75333">
        <ele>213</ele>
        <time>2022-04-03T07:13:15.000Z</time>
      </trkpt>
      <trkpt lat="49.65329" lon="4.75335">
        <ele>213</ele>
        <time>2022-04-03T07:13:16.000Z</time>
      </trkpt>
      <trkpt lat="49.65326" lon="4.75338">
        <ele>214</ele>
        <time>2022-04-03T07:13:17.000Z</time>
      </trkpt>
      <trkpt lat="49.6532" lon="4.75339">
        <ele>214</ele>
        <time>2022-04-03T07:13:18.000Z</time>
      </trkpt>
      <trkpt lat="49.65316" lon="4.75341">
        <ele>215</ele>
        <time>2022-04-03T07:13:19.000Z</time>
      </trkpt>
      <trkpt lat="49.65313" lon="4.75342">
        <ele>215</ele>
        <time>2022-04-03T07:13:20.000Z</time>
      </trkpt>
      <trkpt lat="49.6531" lon="4.75343">
        <ele>216</ele>
        <time>2022-04-03T07:13:21.000Z</time>
      </trkpt>
      <trkpt lat="49.65307" lon="4.75345">
        <ele>216</ele>
        <time>2022-04-03T07:13:22.000Z</time>
      </trkpt>
      <trkpt lat="49.65304" lon="4.75346">
        <ele>216</ele>
        <time>2022-04-03T07:13:23.000Z</time>
      </trkpt>
      <trkpt lat="49.65302" lon="4.75347">
        <ele>217</ele>
        <time>2022-04-03T07:13:24.000Z</time>
      </trkpt>
      <trkpt lat="49.65302" lon="4.75347">
        <ele>217</ele>
        <time>2022-04-03T07:13:25.000Z</time>
      </trkpt>
      <trkpt lat="49.65296" lon="4.75349">
        <ele>217</ele>
        <time>2022-04-03T07:13:26.000Z</time>
      </trkpt>
      <trkpt lat="49.65293" lon="4.7535">
        <ele>218</ele>
        <time>2022-04-03T07:13:27.000Z</time>
      </trkpt>
      <trkpt lat="49.6529" lon="4.7535">
        <ele>218</ele>
        <time>2022-04-03T07:13:28.000Z</time>
      </trkpt>
      <trkpt lat="49.65287" lon="4.75352">
        <ele>218</ele>
        <time>2022-04-03T07:13:29.000Z</time>
      </trkpt>
      <trkpt lat="49.65284" lon="4.75354">
        <ele>219</ele>
        <time>2022-04-03T07:13:30.000Z</time>
      </trkpt>
      <trkpt lat="49.65281" lon="4.75355">
        <ele>219</ele>
        <time>2022-04-03T07:13:31.000Z</time>
      </trkpt>
      <trkpt lat="49.65278" lon="4.75356">
        <ele>220</ele>
        <time>2022-04-03T07:13:32.000Z</time>
      </trkpt>
      <trkpt lat="49.65275" lon="4.75357">
        <ele>220</ele>
        <time>2022-04-03T07:13:33.000Z</time>
      </trkpt>
      <trkpt lat="49.65272" lon="4.75358">
        <ele>220</ele>
        <time>2022-04-03T07:13:34.000Z</time>
      </trkpt>
      <trkpt lat="49.65269" lon="4.7536">
        <ele>221</ele>
        <time>2022-04-03T07:13:35.000Z</time>
      </trkpt>
      <trkpt lat="49.65267" lon="4.75362">
        <ele>222</ele>
        <time>2022-04-03T07:13:36.000Z</time>
      </trkpt>
      <trkpt lat="49.65265" lon="4.75364">
        <ele>222</ele>
        <time>2022-04-03T07:13:37.000Z</time>
      </trkpt>
      <trkpt lat="49.65265" lon="4.75364">
        <ele>222</ele>
        <time>2022-04-03T07:13:38.000Z</time>
      </trkpt>
      <trkpt lat="49.65262" lon="4.75365">
        <ele>223</ele>
        <time>2022-04-03T07:13:39.000Z</time>
      </trkpt>
      <trkpt lat="49.65258" lon="4.75369">
        <ele>224</ele>
        <time>2022-04-03T07:13:40.000Z</time>
      </trkpt>
      <trkpt lat="49.65255" lon="4.75371">
        <ele>224</ele>
        <time>2022-04-03T07:13:41.000Z</time>
      </trkpt>
      <trkpt lat="49.65255" lon="4.75371">
        <ele>224</ele>
        <time>2022-04-03T07:13:42.000Z</time>
      </trkpt>
      <trkpt lat="49.65253" lon="4.75374">
        <ele>225</ele>
        <time>2022-04-03T07:13:43.000Z</time>
      </trkpt>
      <trkpt lat="49.65249" lon="4.75379">
        <ele>225</ele>
        <time>2022-04-03T07:13:44.000Z</time>
      </trkpt>
      <trkpt lat="49.65247" lon="4.75382">
        <ele>226</ele>
        <time>2022-04-03T07:13:45.000Z</time>
      </trkpt>
      <trkpt lat="49.65245" lon="4.75384">
        <ele>226</ele>
        <time>2022-04-03T07:13:46.000Z</time>
      </trkpt>
      <trkpt lat="49.65243" lon="4.75385">
        <ele>227</ele>
        <time>2022-04-03T07:13:47.000Z</time>
      </trkpt>
      <trkpt lat="49.65241" lon="4.75387">
        <ele>227</ele>
        <time>2022-04-03T07:13:48.000Z</time>
      </trkpt>
      <trkpt lat="49.65239" lon="4.75389">
        <ele>227</ele>
        <time>2022-04-03T07:13:49.000Z</time>
      </trkpt>
      <trkpt lat="49.65237" lon="4.75392">
        <ele>227</ele>
        <time>2022-04-03T07:13:50.000Z</time>
      </trkpt>
      <trkpt lat="49.65235" lon="4.75394">
        <ele>228</ele>
        <time>2022-04-03T07:13:51.000Z</time>
      </trkpt>
      <trkpt lat="49.65233" lon="4.75396">
        <ele>228</ele>
        <time>2022-04-03T07:13:52.000Z</time>
      </trkpt>
      <trkpt lat="49.65231" lon="4.75399">
        <ele>228</ele>
        <time>2022-04-03T07:13:53.000Z</time>
      </trkpt>
      <trkpt lat="49.65229" lon="4.75402">
        <ele>229</ele>
        <time>2022-04-03T07:13:54.000Z</time>
      </trkpt>
      <trkpt lat="49.65229" lon="4.75402">
        <ele>229</ele>
        <time>2022-04-03T07:13:55.000Z</time>
      </trkpt>
      <trkpt lat="49.65226" lon="4.75408">
        <ele>229</ele>
        <time>2022-04-03T07:13:56.000Z</time>
      </trkpt>
      <trkpt lat="49.65225" lon="4.75411">
        <ele>229</ele>
        <time>2022-04-03T07:13:57.000Z</time>
      </trkpt>
      <trkpt lat="49.65223" lon="4.75414">
        <ele>229</ele>
        <time>2022-04-03T07:13:58.000Z</time>
      </trkpt>
      <trkpt lat="49.65221" lon="4.75417">
        <ele>230</ele>
        <time>2022-04-03T07:13:59.000Z</time>
      </trkpt>
      <trkpt lat="49.65221" lon="4.75417">
        <ele>230</ele>
        <time>2022-04-03T07:14:00.000Z</time>
      </trkpt>
      <trkpt lat="49.65218" lon="4.75424">
        <ele>230</ele>
        <time>2022-04-03T07:14:01.000Z</time>
      </trkpt>
      <trkpt lat="49.65218" lon="4.75424">
        <ele>230</ele>
        <time>2022-04-03T07:14:02.000Z</time>
      </trkpt>
      <trkpt lat="49.65217" lon="4.75427">
        <ele>230</ele>
        <time>2022-04-03T07:14:03.000Z</time>
      </trkpt>
      <trkpt lat="49.65215" lon="4.7543">
        <ele>230</ele>
        <time>2022-04-03T07:14:04.000Z</time>
      </trkpt>
      <trkpt lat="49.65214" lon="4.75434">
        <ele>230</ele>
        <time>2022-04-03T07:14:05.000Z</time>
      </trkpt>
      <trkpt lat="49.65213" lon="4.75438">
        <ele>230</ele>
        <time>2022-04-03T07:14:06.000Z</time>
      </trkpt>
      <trkpt lat="49.65211" lon="4.75441">
        <ele>230</ele>
        <time>2022-04-03T07:14:07.000Z</time>
      </trkpt>
      <trkpt lat="49.65208" lon="4.75449">
        <ele>230</ele>
        <time>2022-04-03T07:14:08.000Z</time>
      </trkpt>
      <trkpt lat="49.65206" lon="4.75453">
        <ele>230</ele>
        <time>2022-04-03T07:14:09.000Z</time>
      </trkpt>
      <trkpt lat="49.65206" lon="4.75453">
        <ele>230</ele>
        <time>2022-04-03T07:14:10.000Z</time>
      </trkpt>
      <trkpt lat="49.65205" lon="4.75457">
        <ele>231</ele>
        <time>2022-04-03T07:14:11.000Z</time>
      </trkpt>
      <trkpt lat="49.65204" lon="4.7546">
        <ele>231</ele>
        <time>2022-04-03T07:14:12.000Z</time>
      </trkpt>
      <trkpt lat="49.65202" lon="4.75464">
        <ele>231</ele>
        <time>2022-04-03T07:14:13.000Z</time>
      </trkpt>
      <trkpt lat="49.65201" lon="4.75468">
        <ele>231</ele>
        <time>2022-04-03T07:14:14.000Z</time>
      </trkpt>
      <trkpt lat="49.65199" lon="4.75475">
        <ele>231</ele>
        <time>2022-04-03T07:14:15.000Z</time>
      </trkpt>
      <trkpt lat="49.65199" lon="4.75475">
        <ele>231</ele>
        <time>2022-04-03T07:14:16.000Z</time>
      </trkpt>
      <trkpt lat="49.65196" lon="4.75482">
        <ele>231</ele>
        <time>2022-04-03T07:14:17.000Z</time>
      </trkpt>
      <trkpt lat="49.65194" lon="4.75486">
        <ele>231</ele>
        <time>2022-04-03T07:14:18.000Z</time>
      </trkpt>
      <trkpt lat="49.65192" lon="4.7549">
        <ele>231</ele>
        <time>2022-04-03T07:14:19.000Z</time>
      </trkpt>
      <trkpt lat="49.65189" lon="4.75493">
        <ele>231</ele>
        <time>2022-04-03T07:14:20.000Z</time>
      </trkpt>
      <trkpt lat="49.65187" lon="4.75497">
        <ele>231</ele>
        <time>2022-04-03T07:14:21.000Z</time>
      </trkpt>
      <trkpt lat="49.65185" lon="4.75501">
        <ele>231</ele>
        <time>2022-04-03T07:14:22.000Z</time>
      </trkpt>
      <trkpt lat="49.65185" lon="4.75501">
        <ele>231</ele>
        <time>2022-04-03T07:14:23.000Z</time>
      </trkpt>
      <trkpt lat="49.65183" lon="4.75504">
        <ele>231</ele>
        <time>2022-04-03T07:14:24.000Z</time>
      </trkpt>
      <trkpt lat="49.65181" lon="4.75507">
        <ele>231</ele>
        <time>2022-04-03T07:14:25.000Z</time>
      </trkpt>
      <trkpt lat="49.65179" lon="4.7551">
        <ele>231</ele>
        <time>2022-04-03T07:14:26.000Z</time>
      </trkpt>
      <trkpt lat="49.65176" lon="4.75514">
        <ele>231</ele>
        <time>2022-04-03T07:14:27.000Z</time>
      </trkpt>
      <trkpt lat="49.65174" lon="4.75518">
        <ele>231</ele>
        <time>2022-04-03T07:14:28.000Z</time>
      </trkpt>
      <trkpt lat="49.65171" lon="4.75521">
        <ele>231</ele>
        <time>2022-04-03T07:14:29.000Z</time>
      </trkpt>
      <trkpt lat="49.65167" lon="4.75525">
        <ele>232</ele>
        <time>2022-04-03T07:14:30.000Z</time>
      </trkpt>
      <trkpt lat="49.65165" lon="4.75528">
        <ele>232</ele>
        <time>2022-04-03T07:14:31.000Z</time>
      </trkpt>
      <trkpt lat="49.65162" lon="4.75531">
        <ele>232</ele>
        <time>2022-04-03T07:14:32.000Z</time>
      </trkpt>
      <trkpt lat="49.6516" lon="4.75533">
        <ele>232</ele>
        <time>2022-04-03T07:14:33.000Z</time>
      </trkpt>
      <trkpt lat="49.6516" lon="4.75533">
        <ele>232</ele>
        <time>2022-04-03T07:14:34.000Z</time>
      </trkpt>
      <trkpt lat="49.65157" lon="4.75536">
        <ele>232</ele>
        <time>2022-04-03T07:14:35.000Z</time>
      </trkpt>
      <trkpt lat="49.65155" lon="4.75538">
        <ele>232</ele>
        <time>2022-04-03T07:14:36.000Z</time>
      </trkpt>
      <trkpt lat="49.65152" lon="4.7554">
        <ele>233</ele>
        <time>2022-04-03T07:14:37.000Z</time>
      </trkpt>
      <trkpt lat="49.65146" lon="4.75544">
        <ele>233</ele>
        <time>2022-04-03T07:14:38.000Z</time>
      </trkpt>
      <trkpt lat="49.65146" lon="4.75544">
        <ele>233</ele>
        <time>2022-04-03T07:14:39.000Z</time>
      </trkpt>
      <trkpt lat="49.65139" lon="4.75546">
        <ele>233</ele>
        <time>2022-04-03T07:14:40.000Z</time>
      </trkpt>
      <trkpt lat="49.65139" lon="4.75546">
        <ele>233</ele>
        <time>2022-04-03T07:14:41.000Z</time>
      </trkpt>
      <trkpt lat="49.65136" lon="4.75547">
        <ele>233</ele>
        <time>2022-04-03T07:14:42.000Z</time>
      </trkpt>
      <trkpt lat="49.6513" lon="4.75548">
        <ele>234</ele>
        <time>2022-04-03T07:14:43.000Z</time>
      </trkpt>
      <trkpt lat="49.65127" lon="4.75549">
        <ele>234</ele>
        <time>2022-04-03T07:14:44.000Z</time>
      </trkpt>
      <trkpt lat="49.65124" lon="4.75549">
        <ele>235</ele>
        <time>2022-04-03T07:14:45.000Z</time>
      </trkpt>
      <trkpt lat="49.65124" lon="4.75549">
        <ele>235</ele>
        <time>2022-04-03T07:14:46.000Z</time>
      </trkpt>
      <trkpt lat="49.65118" lon="4.7555">
        <ele>235</ele>
        <time>2022-04-03T07:14:47.000Z</time>
      </trkpt>
      <trkpt lat="49.65116" lon="4.7555">
        <ele>235</ele>
        <time>2022-04-03T07:14:48.000Z</time>
      </trkpt>
      <trkpt lat="49.65113" lon="4.7555">
        <ele>236</ele>
        <time>2022-04-03T07:14:49.000Z</time>
      </trkpt>
      <trkpt lat="49.65113" lon="4.7555">
        <ele>236</ele>
        <time>2022-04-03T07:14:50.000Z</time>
      </trkpt>
      <trkpt lat="49.65107" lon="4.75549">
        <ele>236</ele>
        <time>2022-04-03T07:14:51.000Z</time>
      </trkpt>
      <trkpt lat="49.65103" lon="4.75549">
        <ele>236</ele>
        <time>2022-04-03T07:14:52.000Z</time>
      </trkpt>
      <trkpt lat="49.651" lon="4.75549">
        <ele>237</ele>
        <time>2022-04-03T07:14:53.000Z</time>
      </trkpt>
      <trkpt lat="49.65096" lon="4.7555">
        <ele>237</ele>
        <time>2022-04-03T07:14:54.000Z</time>
      </trkpt>
      <trkpt lat="49.65093" lon="4.7555">
        <ele>237</ele>
        <time>2022-04-03T07:14:55.000Z</time>
      </trkpt>
      <trkpt lat="49.65089" lon="4.75551">
        <ele>237</ele>
        <time>2022-04-03T07:14:56.000Z</time>
      </trkpt>
      <trkpt lat="49.65086" lon="4.75552">
        <ele>238</ele>
        <time>2022-04-03T07:14:57.000Z</time>
      </trkpt>
      <trkpt lat="49.65083" lon="4.75553">
        <ele>238</ele>
        <time>2022-04-03T07:14:58.000Z</time>
      </trkpt>
      <trkpt lat="49.6508" lon="4.75553">
        <ele>238</ele>
        <time>2022-04-03T07:14:59.000Z</time>
      </trkpt>
      <trkpt lat="49.65077" lon="4.75553">
        <ele>238</ele>
        <time>2022-04-03T07:15:00.000Z</time>
      </trkpt>
      <trkpt lat="49.65073" lon="4.75553">
        <ele>239</ele>
        <time>2022-04-03T07:15:01.000Z</time>
      </trkpt>
      <trkpt lat="49.6507" lon="4.75554">
        <ele>239</ele>
        <time>2022-04-03T07:15:02.000Z</time>
      </trkpt>
      <trkpt lat="49.65067" lon="4.75555">
        <ele>239</ele>
        <time>2022-04-03T07:15:03.000Z</time>
      </trkpt>
      <trkpt lat="49.65063" lon="4.75554">
        <ele>239</ele>
        <time>2022-04-03T07:15:04.000Z</time>
      </trkpt>
      <trkpt lat="49.6506" lon="4.75554">
        <ele>240</ele>
        <time>2022-04-03T07:15:05.000Z</time>
      </trkpt>
      <trkpt lat="49.65057" lon="4.75554">
        <ele>240</ele>
        <time>2022-04-03T07:15:06.000Z</time>
      </trkpt>
      <trkpt lat="49.65054" lon="4.75554">
        <ele>240</ele>
        <time>2022-04-03T07:15:07.000Z</time>
      </trkpt>
      <trkpt lat="49.6505" lon="4.75554">
        <ele>240</ele>
        <time>2022-04-03T07:15:08.000Z</time>
      </trkpt>
      <trkpt lat="49.65047" lon="4.75555">
        <ele>241</ele>
        <time>2022-04-03T07:15:09.000Z</time>
      </trkpt>
      <trkpt lat="49.65047" lon="4.75555">
        <ele>241</ele>
        <time>2022-04-03T07:15:10.000Z</time>
      </trkpt>
      <trkpt lat="49.6504" lon="4.75553">
        <ele>242</ele>
        <time>2022-04-03T07:15:11.000Z</time>
      </trkpt>
      <trkpt lat="49.6504" lon="4.75553">
        <ele>242</ele>
        <time>2022-04-03T07:15:12.000Z</time>
      </trkpt>
      <trkpt lat="49.65034" lon="4.75553">
        <ele>242</ele>
        <time>2022-04-03T07:15:13.000Z</time>
      </trkpt>
      <trkpt lat="49.6503" lon="4.75553">
        <ele>242</ele>
        <time>2022-04-03T07:15:14.000Z</time>
      </trkpt>
      <trkpt lat="49.65028" lon="4.75552">
        <ele>243</ele>
        <time>2022-04-03T07:15:15.000Z</time>
      </trkpt>
      <trkpt lat="49.65024" lon="4.75552">
        <ele>243</ele>
        <time>2022-04-03T07:15:16.000Z</time>
      </trkpt>
      <trkpt lat="49.65021" lon="4.75551">
        <ele>243</ele>
        <time>2022-04-03T07:15:17.000Z</time>
      </trkpt>
      <trkpt lat="49.65018" lon="4.75551">
        <ele>243</ele>
        <time>2022-04-03T07:15:18.000Z</time>
      </trkpt>
      <trkpt lat="49.65015" lon="4.75551">
        <ele>244</ele>
        <time>2022-04-03T07:15:19.000Z</time>
      </trkpt>
      <trkpt lat="49.65012" lon="4.75551">
        <ele>244</ele>
        <time>2022-04-03T07:15:20.000Z</time>
      </trkpt>
      <trkpt lat="49.65009" lon="4.7555">
        <ele>244</ele>
        <time>2022-04-03T07:15:21.000Z</time>
      </trkpt>
      <trkpt lat="49.65006" lon="4.7555">
        <ele>244</ele>
        <time>2022-04-03T07:15:22.000Z</time>
      </trkpt>
      <trkpt lat="49.65003" lon="4.7555">
        <ele>245</ele>
        <time>2022-04-03T07:15:23.000Z</time>
      </trkpt>
      <trkpt lat="49.65003" lon="4.7555">
        <ele>245</ele>
        <time>2022-04-03T07:15:24.000Z</time>
      </trkpt>
      <trkpt lat="49.65" lon="4.75549">
        <ele>245</ele>
        <time>2022-04-03T07:15:25.000Z</time>
      </trkpt>
      <trkpt lat="49.64997" lon="4.75549">
        <ele>245</ele>
        <time>2022-04-03T07:15:26.000Z</time>
      </trkpt>
      <trkpt lat="49.64994" lon="4.75549">
        <ele>245</ele>
        <time>2022-04-03T07:15:27.000Z</time>
      </trkpt>
      <trkpt lat="49.64991" lon="4.75548">
        <ele>245</ele>
        <time>2022-04-03T07:15:28.000Z</time>
      </trkpt>
      <trkpt lat="49.64988" lon="4.75547">
        <ele>246</ele>
        <time>2022-04-03T07:15:29.000Z</time>
      </trkpt>
      <trkpt lat="49.64985" lon="4.75546">
        <ele>246</ele>
        <time>2022-04-03T07:15:30.000Z</time>
      </trkpt>
      <trkpt lat="49.6498" lon="4.75543">
        <ele>246</ele>
        <time>2022-04-03T07:15:31.000Z</time>
      </trkpt>
      <trkpt lat="49.64976" lon="4.75541">
        <ele>246</ele>
        <time>2022-04-03T07:15:32.000Z</time>
      </trkpt>
      <trkpt lat="49.64973" lon="4.7554">
        <ele>246</ele>
        <time>2022-04-03T07:15:33.000Z</time>
      </trkpt>
      <trkpt lat="49.6497" lon="4.7554">
        <ele>246</ele>
        <time>2022-04-03T07:15:34.000Z</time>
      </trkpt>
      <trkpt lat="49.6497" lon="4.7554">
        <ele>246</ele>
        <time>2022-04-03T07:15:35.000Z</time>
      </trkpt>
      <trkpt lat="49.64967" lon="4.75539">
        <ele>247</ele>
        <time>2022-04-03T07:15:36.000Z</time>
      </trkpt>
      <trkpt lat="49.64964" lon="4.75538">
        <ele>247</ele>
        <time>2022-04-03T07:15:37.000Z</time>
      </trkpt>
      <trkpt lat="49.64961" lon="4.75537">
        <ele>247</ele>
        <time>2022-04-03T07:15:38.000Z</time>
      </trkpt>
      <trkpt lat="49.64957" lon="4.75534">
        <ele>247</ele>
        <time>2022-04-03T07:15:39.000Z</time>
      </trkpt>
      <trkpt lat="49.64954" lon="4.75532">
        <ele>247</ele>
        <time>2022-04-03T07:15:40.000Z</time>
      </trkpt>
      <trkpt lat="49.64949" lon="4.75529">
        <ele>247</ele>
        <time>2022-04-03T07:15:41.000Z</time>
      </trkpt>
      <trkpt lat="49.64946" lon="4.75527">
        <ele>247</ele>
        <time>2022-04-03T07:15:42.000Z</time>
      </trkpt>
      <trkpt lat="49.64942" lon="4.75525">
        <ele>247</ele>
        <time>2022-04-03T07:15:43.000Z</time>
      </trkpt>
      <trkpt lat="49.64939" lon="4.75524">
        <ele>248</ele>
        <time>2022-04-03T07:15:44.000Z</time>
      </trkpt>
      <trkpt lat="49.64936" lon="4.75522">
        <ele>248</ele>
        <time>2022-04-03T07:15:45.000Z</time>
      </trkpt>
      <trkpt lat="49.64936" lon="4.75522">
        <ele>248</ele>
        <time>2022-04-03T07:15:46.000Z</time>
      </trkpt>
      <trkpt lat="49.6493" lon="4.75519">
        <ele>248</ele>
        <time>2022-04-03T07:15:47.000Z</time>
      </trkpt>
      <trkpt lat="49.6493" lon="4.75519">
        <ele>248</ele>
        <time>2022-04-03T07:15:48.000Z</time>
      </trkpt>
      <trkpt lat="49.64927" lon="4.75517">
        <ele>248</ele>
        <time>2022-04-03T07:15:49.000Z</time>
      </trkpt>
      <trkpt lat="49.64924" lon="4.75515">
        <ele>248</ele>
        <time>2022-04-03T07:15:50.000Z</time>
      </trkpt>
      <trkpt lat="49.64921" lon="4.75512">
        <ele>248</ele>
        <time>2022-04-03T07:15:51.000Z</time>
      </trkpt>
      <trkpt lat="49.64918" lon="4.7551">
        <ele>248</ele>
        <time>2022-04-03T07:15:52.000Z</time>
      </trkpt>
      <trkpt lat="49.64916" lon="4.75509">
        <ele>248</ele>
        <time>2022-04-03T07:15:53.000Z</time>
      </trkpt>
      <trkpt lat="49.64913" lon="4.75509">
        <ele>248</ele>
        <time>2022-04-03T07:15:54.000Z</time>
      </trkpt>
      <trkpt lat="49.64909" lon="4.75512">
        <ele>248</ele>
        <time>2022-04-03T07:15:55.000Z</time>
      </trkpt>
      <trkpt lat="49.64906" lon="4.75514">
        <ele>248</ele>
        <time>2022-04-03T07:15:56.000Z</time>
      </trkpt>
      <trkpt lat="49.64904" lon="4.75515">
        <ele>248</ele>
        <time>2022-04-03T07:15:57.000Z</time>
      </trkpt>
      <trkpt lat="49.64904" lon="4.75515">
        <ele>248</ele>
        <time>2022-04-03T07:15:58.000Z</time>
      </trkpt>
      <trkpt lat="49.649" lon="4.75519">
        <ele>248</ele>
        <time>2022-04-03T07:15:59.000Z</time>
      </trkpt>
      <trkpt lat="49.64899" lon="4.75521">
        <ele>248</ele>
        <time>2022-04-03T07:16:00.000Z</time>
      </trkpt>
      <trkpt lat="49.64897" lon="4.75523">
        <ele>248</ele>
        <time>2022-04-03T07:16:01.000Z</time>
      </trkpt>
      <trkpt lat="49.64895" lon="4.75524">
        <ele>248</ele>
        <time>2022-04-03T07:16:02.000Z</time>
      </trkpt>
      <trkpt lat="49.64895" lon="4.75524">
        <ele>248</ele>
        <time>2022-04-03T07:16:03.000Z</time>
      </trkpt>
      <trkpt lat="49.64894" lon="4.75527">
        <ele>248</ele>
        <time>2022-04-03T07:16:04.000Z</time>
      </trkpt>
      <trkpt lat="49.64893" lon="4.7553">
        <ele>248</ele>
        <time>2022-04-03T07:16:05.000Z</time>
      </trkpt>
      <trkpt lat="49.64892" lon="4.75532">
        <ele>248</ele>
        <time>2022-04-03T07:16:06.000Z</time>
      </trkpt>
      <trkpt lat="49.64891" lon="4.75535">
        <ele>248</ele>
        <time>2022-04-03T07:16:07.000Z</time>
      </trkpt>
      <trkpt lat="49.6489" lon="4.75538">
        <ele>248</ele>
        <time>2022-04-03T07:16:08.000Z</time>
      </trkpt>
      <trkpt lat="49.64888" lon="4.7554">
        <ele>248</ele>
        <time>2022-04-03T07:16:09.000Z</time>
      </trkpt>
      <trkpt lat="49.64887" lon="4.75544">
        <ele>248</ele>
        <time>2022-04-03T07:16:10.000Z</time>
      </trkpt>
      <trkpt lat="49.64886" lon="4.75547">
        <ele>248</ele>
        <time>2022-04-03T07:16:11.000Z</time>
      </trkpt>
      <trkpt lat="49.64885" lon="4.75548">
        <ele>249</ele>
        <time>2022-04-03T07:16:12.000Z</time>
      </trkpt>
      <trkpt lat="49.64884" lon="4.7555">
        <ele>249</ele>
        <time>2022-04-03T07:16:13.000Z</time>
      </trkpt>
      <trkpt lat="49.64883" lon="4.75554">
        <ele>249</ele>
        <time>2022-04-03T07:16:14.000Z</time>
      </trkpt>
      <trkpt lat="49.64882" lon="4.75556">
        <ele>249</ele>
        <time>2022-04-03T07:16:15.000Z</time>
      </trkpt>
      <trkpt lat="49.64882" lon="4.75556">
        <ele>249</ele>
        <time>2022-04-03T07:16:16.000Z</time>
      </trkpt>
      <trkpt lat="49.64881" lon="4.75558">
        <ele>249</ele>
        <time>2022-04-03T07:16:17.000Z</time>
      </trkpt>
      <trkpt lat="49.64878" lon="4.75562">
        <ele>249</ele>
        <time>2022-04-03T07:16:18.000Z</time>
      </trkpt>
      <trkpt lat="49.64878" lon="4.75564">
        <ele>249</ele>
        <time>2022-04-03T07:16:19.000Z</time>
      </trkpt>
      <trkpt lat="49.64878" lon="4.75564">
        <ele>249</ele>
        <time>2022-04-03T07:16:20.000Z</time>
      </trkpt>
      <trkpt lat="49.64877" lon="4.75566">
        <ele>249</ele>
        <time>2022-04-03T07:16:21.000Z</time>
      </trkpt>
      <trkpt lat="49.64876" lon="4.75568">
        <ele>249</ele>
        <time>2022-04-03T07:16:22.000Z</time>
      </trkpt>
      <trkpt lat="49.64876" lon="4.75571">
        <ele>250</ele>
        <time>2022-04-03T07:16:23.000Z</time>
      </trkpt>
      <trkpt lat="49.64875" lon="4.75574">
        <ele>250</ele>
        <time>2022-04-03T07:16:24.000Z</time>
      </trkpt>
      <trkpt lat="49.64875" lon="4.75575">
        <ele>250</ele>
        <time>2022-04-03T07:16:25.000Z</time>
      </trkpt>
      <trkpt lat="49.64875" lon="4.75577">
        <ele>250</ele>
        <time>2022-04-03T07:16:26.000Z</time>
      </trkpt>
      <trkpt lat="49.64876" lon="4.7558">
        <ele>250</ele>
        <time>2022-04-03T07:16:27.000Z</time>
      </trkpt>
      <trkpt lat="49.64877" lon="4.75582">
        <ele>250</ele>
        <time>2022-04-03T07:16:28.000Z</time>
      </trkpt>
      <trkpt lat="49.64877" lon="4.75584">
        <ele>250</ele>
        <time>2022-04-03T07:16:29.000Z</time>
      </trkpt>
      <trkpt lat="49.64878" lon="4.75586">
        <ele>250</ele>
        <time>2022-04-03T07:16:30.000Z</time>
      </trkpt>
      <trkpt lat="49.64879" lon="4.75589">
        <ele>250</ele>
        <time>2022-04-03T07:16:31.000Z</time>
      </trkpt>
      <trkpt lat="49.6488" lon="4.75591">
        <ele>250</ele>
        <time>2022-04-03T07:16:32.000Z</time>
      </trkpt>
      <trkpt lat="49.64881" lon="4.75594">
        <ele>250</ele>
        <time>2022-04-03T07:16:33.000Z</time>
      </trkpt>
      <trkpt lat="49.64882" lon="4.75597">
        <ele>250</ele>
        <time>2022-04-03T07:16:34.000Z</time>
      </trkpt>
      <trkpt lat="49.64883" lon="4.756">
        <ele>250</ele>
        <time>2022-04-03T07:16:35.000Z</time>
      </trkpt>
      <trkpt lat="49.64884" lon="4.75603">
        <ele>250</ele>
        <time>2022-04-03T07:16:36.000Z</time>
      </trkpt>
      <trkpt lat="49.64886" lon="4.75606">
        <ele>250</ele>
        <time>2022-04-03T07:16:37.000Z</time>
      </trkpt>
      <trkpt lat="49.64887" lon="4.75609">
        <ele>250</ele>
        <time>2022-04-03T07:16:38.000Z</time>
      </trkpt>
      <trkpt lat="49.64888" lon="4.75612">
        <ele>251</ele>
        <time>2022-04-03T07:16:39.000Z</time>
      </trkpt>
      <trkpt lat="49.64889" lon="4.75615">
        <ele>251</ele>
        <time>2022-04-03T07:16:40.000Z</time>
      </trkpt>
      <trkpt lat="49.6489" lon="4.75618">
        <ele>251</ele>
        <time>2022-04-03T07:16:41.000Z</time>
      </trkpt>
      <trkpt lat="49.64891" lon="4.75621">
        <ele>251</ele>
        <time>2022-04-03T07:16:42.000Z</time>
      </trkpt>
      <trkpt lat="49.64893" lon="4.75624">
        <ele>251</ele>
        <time>2022-04-03T07:16:43.000Z</time>
      </trkpt>
      <trkpt lat="49.64894" lon="4.75627">
        <ele>251</ele>
        <time>2022-04-03T07:16:44.000Z</time>
      </trkpt>
      <trkpt lat="49.64895" lon="4.7563">
        <ele>251</ele>
        <time>2022-04-03T07:16:45.000Z</time>
      </trkpt>
      <trkpt lat="49.64897" lon="4.75633">
        <ele>251</ele>
        <time>2022-04-03T07:16:46.000Z</time>
      </trkpt>
      <trkpt lat="49.64898" lon="4.75636">
        <ele>251</ele>
        <time>2022-04-03T07:16:47.000Z</time>
      </trkpt>
      <trkpt lat="49.64899" lon="4.75639">
        <ele>252</ele>
        <time>2022-04-03T07:16:48.000Z</time>
      </trkpt>
      <trkpt lat="49.649" lon="4.75641">
        <ele>252</ele>
        <time>2022-04-03T07:16:49.000Z</time>
      </trkpt>
      <trkpt lat="49.64901" lon="4.75646">
        <ele>252</ele>
        <time>2022-04-03T07:16:50.000Z</time>
      </trkpt>
      <trkpt lat="49.64902" lon="4.75649">
        <ele>252</ele>
        <time>2022-04-03T07:16:51.000Z</time>
      </trkpt>
      <trkpt lat="49.64902" lon="4.75649">
        <ele>252</ele>
        <time>2022-04-03T07:16:52.000Z</time>
      </trkpt>
      <trkpt lat="49.64905" lon="4.75654">
        <ele>253</ele>
        <time>2022-04-03T07:16:53.000Z</time>
      </trkpt>
      <trkpt lat="49.64905" lon="4.75654">
        <ele>253</ele>
        <time>2022-04-03T07:16:54.000Z</time>
      </trkpt>
      <trkpt lat="49.64906" lon="4.75657">
        <ele>253</ele>
        <time>2022-04-03T07:16:55.000Z</time>
      </trkpt>
      <trkpt lat="49.64908" lon="4.7566">
        <ele>253</ele>
        <time>2022-04-03T07:16:56.000Z</time>
      </trkpt>
      <trkpt lat="49.64909" lon="4.75664">
        <ele>253</ele>
        <time>2022-04-03T07:16:57.000Z</time>
      </trkpt>
      <trkpt lat="49.64911" lon="4.75667">
        <ele>253</ele>
        <time>2022-04-03T07:16:58.000Z</time>
      </trkpt>
      <trkpt lat="49.64912" lon="4.75669">
        <ele>254</ele>
        <time>2022-04-03T07:16:59.000Z</time>
      </trkpt>
      <trkpt lat="49.64915" lon="4.75675">
        <ele>254</ele>
        <time>2022-04-03T07:17:00.000Z</time>
      </trkpt>
      <trkpt lat="49.64917" lon="4.75678">
        <ele>254</ele>
        <time>2022-04-03T07:17:01.000Z</time>
      </trkpt>
      <trkpt lat="49.64917" lon="4.75678">
        <ele>254</ele>
        <time>2022-04-03T07:17:02.000Z</time>
      </trkpt>
      <trkpt lat="49.64918" lon="4.7568">
        <ele>254</ele>
        <time>2022-04-03T07:17:03.000Z</time>
      </trkpt>
      <trkpt lat="49.64919" lon="4.75682">
        <ele>254</ele>
        <time>2022-04-03T07:17:04.000Z</time>
      </trkpt>
      <trkpt lat="49.64922" lon="4.75687">
        <ele>254</ele>
        <time>2022-04-03T07:17:05.000Z</time>
      </trkpt>
      <trkpt lat="49.64924" lon="4.75689">
        <ele>254</ele>
        <time>2022-04-03T07:17:06.000Z</time>
      </trkpt>
      <trkpt lat="49.64924" lon="4.75689">
        <ele>254</ele>
        <time>2022-04-03T07:17:07.000Z</time>
      </trkpt>
      <trkpt lat="49.64927" lon="4.75694">
        <ele>254</ele>
        <time>2022-04-03T07:17:08.000Z</time>
      </trkpt>
      <trkpt lat="49.64929" lon="4.75696">
        <ele>255</ele>
        <time>2022-04-03T07:17:09.000Z</time>
      </trkpt>
      <trkpt lat="49.6493" lon="4.75698">
        <ele>255</ele>
        <time>2022-04-03T07:17:10.000Z</time>
      </trkpt>
      <trkpt lat="49.64931" lon="4.75701">
        <ele>255</ele>
        <time>2022-04-03T07:17:11.000Z</time>
      </trkpt>
      <trkpt lat="49.64933" lon="4.75702">
        <ele>255</ele>
        <time>2022-04-03T07:17:12.000Z</time>
      </trkpt>
      <trkpt lat="49.64934" lon="4.75705">
        <ele>255</ele>
        <time>2022-04-03T07:17:13.000Z</time>
      </trkpt>
      <trkpt lat="49.64934" lon="4.75705">
        <ele>255</ele>
        <time>2022-04-03T07:17:14.000Z</time>
      </trkpt>
      <trkpt lat="49.64938" lon="4.7571">
        <ele>255</ele>
        <time>2022-04-03T07:17:15.000Z</time>
      </trkpt>
      <trkpt lat="49.64938" lon="4.7571">
        <ele>255</ele>
        <time>2022-04-03T07:17:16.000Z</time>
      </trkpt>
      <trkpt lat="49.6494" lon="4.75712">
        <ele>256</ele>
        <time>2022-04-03T07:17:17.000Z</time>
      </trkpt>
      <trkpt lat="49.64942" lon="4.75715">
        <ele>256</ele>
        <time>2022-04-03T07:17:18.000Z</time>
      </trkpt>
      <trkpt lat="49.64944" lon="4.75718">
        <ele>256</ele>
        <time>2022-04-03T07:17:19.000Z</time>
      </trkpt>
      <trkpt lat="49.64946" lon="4.7572">
        <ele>256</ele>
        <time>2022-04-03T07:17:20.000Z</time>
      </trkpt>
      <trkpt lat="49.64947" lon="4.75723">
        <ele>256</ele>
        <time>2022-04-03T07:17:21.000Z</time>
      </trkpt>
      <trkpt lat="49.64949" lon="4.75725">
        <ele>256</ele>
        <time>2022-04-03T07:17:22.000Z</time>
      </trkpt>
      <trkpt lat="49.6495" lon="4.75728">
        <ele>256</ele>
        <time>2022-04-03T07:17:23.000Z</time>
      </trkpt>
      <trkpt lat="49.64951" lon="4.7573">
        <ele>256</ele>
        <time>2022-04-03T07:17:24.000Z</time>
      </trkpt>
      <trkpt lat="49.64952" lon="4.75733">
        <ele>257</ele>
        <time>2022-04-03T07:17:25.000Z</time>
      </trkpt>
      <trkpt lat="49.64953" lon="4.75735">
        <ele>257</ele>
        <time>2022-04-03T07:17:26.000Z</time>
      </trkpt>
      <trkpt lat="49.64955" lon="4.75738">
        <ele>257</ele>
        <time>2022-04-03T07:17:27.000Z</time>
      </trkpt>
      <trkpt lat="49.64956" lon="4.75741">
        <ele>257</ele>
        <time>2022-04-03T07:17:28.000Z</time>
      </trkpt>
      <trkpt lat="49.64957" lon="4.75744">
        <ele>257</ele>
        <time>2022-04-03T07:17:29.000Z</time>
      </trkpt>
      <trkpt lat="49.64959" lon="4.75747">
        <ele>257</ele>
        <time>2022-04-03T07:17:30.000Z</time>
      </trkpt>
      <trkpt lat="49.64961" lon="4.7575">
        <ele>257</ele>
        <time>2022-04-03T07:17:31.000Z</time>
      </trkpt>
      <trkpt lat="49.64963" lon="4.75752">
        <ele>257</ele>
        <time>2022-04-03T07:17:32.000Z</time>
      </trkpt>
      <trkpt lat="49.64964" lon="4.75755">
        <ele>258</ele>
        <time>2022-04-03T07:17:33.000Z</time>
      </trkpt>
      <trkpt lat="49.64966" lon="4.75757">
        <ele>258</ele>
        <time>2022-04-03T07:17:34.000Z</time>
      </trkpt>
      <trkpt lat="49.64967" lon="4.75761">
        <ele>258</ele>
        <time>2022-04-03T07:17:35.000Z</time>
      </trkpt>
      <trkpt lat="49.64969" lon="4.75764">
        <ele>258</ele>
        <time>2022-04-03T07:17:36.000Z</time>
      </trkpt>
      <trkpt lat="49.6497" lon="4.75768">
        <ele>258</ele>
        <time>2022-04-03T07:17:37.000Z</time>
      </trkpt>
      <trkpt lat="49.64971" lon="4.75772">
        <ele>258</ele>
        <time>2022-04-03T07:17:38.000Z</time>
      </trkpt>
      <trkpt lat="49.64972" lon="4.75776">
        <ele>259</ele>
        <time>2022-04-03T07:17:39.000Z</time>
      </trkpt>
      <trkpt lat="49.64973" lon="4.7578">
        <ele>259</ele>
        <time>2022-04-03T07:17:40.000Z</time>
      </trkpt>
      <trkpt lat="49.64973" lon="4.75785">
        <ele>259</ele>
        <time>2022-04-03T07:17:41.000Z</time>
      </trkpt>
      <trkpt lat="49.64974" lon="4.75789">
        <ele>259</ele>
        <time>2022-04-03T07:17:42.000Z</time>
      </trkpt>
      <trkpt lat="49.64974" lon="4.75793">
        <ele>260</ele>
        <time>2022-04-03T07:17:43.000Z</time>
      </trkpt>
      <trkpt lat="49.64975" lon="4.75797">
        <ele>260</ele>
        <time>2022-04-03T07:17:44.000Z</time>
      </trkpt>
      <trkpt lat="49.64975" lon="4.758">
        <ele>260</ele>
        <time>2022-04-03T07:17:45.000Z</time>
      </trkpt>
      <trkpt lat="49.64976" lon="4.75804">
        <ele>260</ele>
        <time>2022-04-03T07:17:46.000Z</time>
      </trkpt>
      <trkpt lat="49.64976" lon="4.75808">
        <ele>261</ele>
        <time>2022-04-03T07:17:47.000Z</time>
      </trkpt>
      <trkpt lat="49.64976" lon="4.75812">
        <ele>261</ele>
        <time>2022-04-03T07:17:48.000Z</time>
      </trkpt>
      <trkpt lat="49.64977" lon="4.75815">
        <ele>261</ele>
        <time>2022-04-03T07:17:49.000Z</time>
      </trkpt>
      <trkpt lat="49.64977" lon="4.75819">
        <ele>262</ele>
        <time>2022-04-03T07:17:50.000Z</time>
      </trkpt>
      <trkpt lat="49.64977" lon="4.75823">
        <ele>262</ele>
        <time>2022-04-03T07:17:51.000Z</time>
      </trkpt>
      <trkpt lat="49.64978" lon="4.75828">
        <ele>262</ele>
        <time>2022-04-03T07:17:52.000Z</time>
      </trkpt>
      <trkpt lat="49.64978" lon="4.75832">
        <ele>263</ele>
        <time>2022-04-03T07:17:53.000Z</time>
      </trkpt>
      <trkpt lat="49.6498" lon="4.75836">
        <ele>263</ele>
        <time>2022-04-03T07:17:54.000Z</time>
      </trkpt>
      <trkpt lat="49.6498" lon="4.7584">
        <ele>263</ele>
        <time>2022-04-03T07:17:55.000Z</time>
      </trkpt>
      <trkpt lat="49.64981" lon="4.75844">
        <ele>264</ele>
        <time>2022-04-03T07:17:56.000Z</time>
      </trkpt>
      <trkpt lat="49.64982" lon="4.75848">
        <ele>264</ele>
        <time>2022-04-03T07:17:57.000Z</time>
      </trkpt>
      <trkpt lat="49.64982" lon="4.75852">
        <ele>264</ele>
        <time>2022-04-03T07:17:58.000Z</time>
      </trkpt>
      <trkpt lat="49.64984" lon="4.75856">
        <ele>264</ele>
        <time>2022-04-03T07:17:59.000Z</time>
      </trkpt>
      <trkpt lat="49.64985" lon="4.7586">
        <ele>265</ele>
        <time>2022-04-03T07:18:00.000Z</time>
      </trkpt>
      <trkpt lat="49.64986" lon="4.75864">
        <ele>265</ele>
        <time>2022-04-03T07:18:01.000Z</time>
      </trkpt>
      <trkpt lat="49.64988" lon="4.75868">
        <ele>265</ele>
        <time>2022-04-03T07:18:02.000Z</time>
      </trkpt>
      <trkpt lat="49.6499" lon="4.75872">
        <ele>265</ele>
        <time>2022-04-03T07:18:03.000Z</time>
      </trkpt>
      <trkpt lat="49.64991" lon="4.75875">
        <ele>266</ele>
        <time>2022-04-03T07:18:04.000Z</time>
      </trkpt>
      <trkpt lat="49.64992" lon="4.75879">
        <ele>266</ele>
        <time>2022-04-03T07:18:05.000Z</time>
      </trkpt>
      <trkpt lat="49.64994" lon="4.75883">
        <ele>266</ele>
        <time>2022-04-03T07:18:06.000Z</time>
      </trkpt>
      <trkpt lat="49.64995" lon="4.75887">
        <ele>266</ele>
        <time>2022-04-03T07:18:07.000Z</time>
      </trkpt>
      <trkpt lat="49.64996" lon="4.75891">
        <ele>267</ele>
        <time>2022-04-03T07:18:08.000Z</time>
      </trkpt>
      <trkpt lat="49.64997" lon="4.75895">
        <ele>267</ele>
        <time>2022-04-03T07:18:09.000Z</time>
      </trkpt>
      <trkpt lat="49.64998" lon="4.75899">
        <ele>267</ele>
        <time>2022-04-03T07:18:10.000Z</time>
      </trkpt>
      <trkpt lat="49.64999" lon="4.75903">
        <ele>268</ele>
        <time>2022-04-03T07:18:11.000Z</time>
      </trkpt>
      <trkpt lat="49.65001" lon="4.75907">
        <ele>268</ele>
        <time>2022-04-03T07:18:12.000Z</time>
      </trkpt>
      <trkpt lat="49.65002" lon="4.75912">
        <ele>268</ele>
        <time>2022-04-03T07:18:13.000Z</time>
      </trkpt>
      <trkpt lat="49.65003" lon="4.75916">
        <ele>268</ele>
        <time>2022-04-03T07:18:14.000Z</time>
      </trkpt>
      <trkpt lat="49.65005" lon="4.75921">
        <ele>268</ele>
        <time>2022-04-03T07:18:15.000Z</time>
      </trkpt>
      <trkpt lat="49.65006" lon="4.75926">
        <ele>269</ele>
        <time>2022-04-03T07:18:16.000Z</time>
      </trkpt>
      <trkpt lat="49.65007" lon="4.7593">
        <ele>269</ele>
        <time>2022-04-03T07:18:17.000Z</time>
      </trkpt>
      <trkpt lat="49.65009" lon="4.75933">
        <ele>269</ele>
        <time>2022-04-03T07:18:18.000Z</time>
      </trkpt>
      <trkpt lat="49.65011" lon="4.75936">
        <ele>269</ele>
        <time>2022-04-03T07:18:19.000Z</time>
      </trkpt>
      <trkpt lat="49.65014" lon="4.7594">
        <ele>269</ele>
        <time>2022-04-03T07:18:20.000Z</time>
      </trkpt>
      <trkpt lat="49.65016" lon="4.75942">
        <ele>269</ele>
        <time>2022-04-03T07:18:21.000Z</time>
      </trkpt>
      <trkpt lat="49.65019" lon="4.75944">
        <ele>269</ele>
        <time>2022-04-03T07:18:22.000Z</time>
      </trkpt>
      <trkpt lat="49.65022" lon="4.75945">
        <ele>269</ele>
        <time>2022-04-03T07:18:23.000Z</time>
      </trkpt>
      <trkpt lat="49.65025" lon="4.75947">
        <ele>270</ele>
        <time>2022-04-03T07:18:24.000Z</time>
      </trkpt>
      <trkpt lat="49.65029" lon="4.75948">
        <ele>270</ele>
        <time>2022-04-03T07:18:25.000Z</time>
      </trkpt>
      <trkpt lat="49.65032" lon="4.7595">
        <ele>270</ele>
        <time>2022-04-03T07:18:26.000Z</time>
      </trkpt>
      <trkpt lat="49.65035" lon="4.75952">
        <ele>270</ele>
        <time>2022-04-03T07:18:27.000Z</time>
      </trkpt>
      <trkpt lat="49.65038" lon="4.75956">
        <ele>270</ele>
        <time>2022-04-03T07:18:28.000Z</time>
      </trkpt>
      <trkpt lat="49.6504" lon="4.7596">
        <ele>270</ele>
        <time>2022-04-03T07:18:29.000Z</time>
      </trkpt>
      <trkpt lat="49.65041" lon="4.75966">
        <ele>270</ele>
        <time>2022-04-03T07:18:30.000Z</time>
      </trkpt>
      <trkpt lat="49.65043" lon="4.75971">
        <ele>270</ele>
        <time>2022-04-03T07:18:31.000Z</time>
      </trkpt>
      <trkpt lat="49.65044" lon="4.75976">
        <ele>270</ele>
        <time>2022-04-03T07:18:32.000Z</time>
      </trkpt>
      <trkpt lat="49.65046" lon="4.75982">
        <ele>271</ele>
        <time>2022-04-03T07:18:33.000Z</time>
      </trkpt>
      <trkpt lat="49.65047" lon="4.75988">
        <ele>271</ele>
        <time>2022-04-03T07:18:34.000Z</time>
      </trkpt>
      <trkpt lat="49.65049" lon="4.75995">
        <ele>271</ele>
        <time>2022-04-03T07:18:35.000Z</time>
      </trkpt>
      <trkpt lat="49.6505" lon="4.76001">
        <ele>271</ele>
        <time>2022-04-03T07:18:36.000Z</time>
      </trkpt>
      <trkpt lat="49.6505" lon="4.76006">
        <ele>271</ele>
        <time>2022-04-03T07:18:37.000Z</time>
      </trkpt>
      <trkpt lat="49.65051" lon="4.76011">
        <ele>271</ele>
        <time>2022-04-03T07:18:38.000Z</time>
      </trkpt>
      <trkpt lat="49.65052" lon="4.76017">
        <ele>271</ele>
        <time>2022-04-03T07:18:39.000Z</time>
      </trkpt>
      <trkpt lat="49.65053" lon="4.76022">
        <ele>271</ele>
        <time>2022-04-03T07:18:40.000Z</time>
      </trkpt>
      <trkpt lat="49.65054" lon="4.76027">
        <ele>272</ele>
        <time>2022-04-03T07:18:41.000Z</time>
      </trkpt>
      <trkpt lat="49.65054" lon="4.76032">
        <ele>272</ele>
        <time>2022-04-03T07:18:42.000Z</time>
      </trkpt>
      <trkpt lat="49.65054" lon="4.76037">
        <ele>272</ele>
        <time>2022-04-03T07:18:43.000Z</time>
      </trkpt>
      <trkpt lat="49.65054" lon="4.76042">
        <ele>272</ele>
        <time>2022-04-03T07:18:44.000Z</time>
      </trkpt>
      <trkpt lat="49.65055" lon="4.76047">
        <ele>272</ele>
        <time>2022-04-03T07:18:45.000Z</time>
      </trkpt>
      <trkpt lat="49.65057" lon="4.76052">
        <ele>271</ele>
        <time>2022-04-03T07:18:46.000Z</time>
      </trkpt>
      <trkpt lat="49.65058" lon="4.76056">
        <ele>271</ele>
        <time>2022-04-03T07:18:47.000Z</time>
      </trkpt>
      <trkpt lat="49.6506" lon="4.76061">
        <ele>271</ele>
        <time>2022-04-03T07:18:48.000Z</time>
      </trkpt>
      <trkpt lat="49.65061" lon="4.76065">
        <ele>271</ele>
        <time>2022-04-03T07:18:49.000Z</time>
      </trkpt>
      <trkpt lat="49.65063" lon="4.76069">
        <ele>271</ele>
        <time>2022-04-03T07:18:50.000Z</time>
      </trkpt>
      <trkpt lat="49.65065" lon="4.76076">
        <ele>271</ele>
        <time>2022-04-03T07:18:51.000Z</time>
      </trkpt>
      <trkpt lat="49.65063" lon="4.76077">
        <ele>271</ele>
        <time>2022-04-03T07:18:52.000Z</time>
      </trkpt>
      <trkpt lat="49.65061" lon="4.76077">
        <ele>271</ele>
        <time>2022-04-03T07:18:53.000Z</time>
      </trkpt>
      <trkpt lat="49.65061" lon="4.76077">
        <ele>271</ele>
        <time>2022-04-03T07:18:54.000Z</time>
      </trkpt>
      <trkpt lat="49.65059" lon="4.76074">
        <ele>271</ele>
        <time>2022-04-03T07:18:55.000Z</time>
      </trkpt>
      <trkpt lat="49.65056" lon="4.76071">
        <ele>272</ele>
        <time>2022-04-03T07:18:56.000Z</time>
      </trkpt>
      <trkpt lat="49.65053" lon="4.76068">
        <ele>271</ele>
        <time>2022-04-03T07:18:57.000Z</time>
      </trkpt>
      <trkpt lat="49.65049" lon="4.76063">
        <ele>271</ele>
        <time>2022-04-03T07:18:58.000Z</time>
      </trkpt>
      <trkpt lat="49.65046" lon="4.76059">
        <ele>272</ele>
        <time>2022-04-03T07:18:59.000Z</time>
      </trkpt>
      <trkpt lat="49.65042" lon="4.76055">
        <ele>272</ele>
        <time>2022-04-03T07:19:00.000Z</time>
      </trkpt>
      <trkpt lat="49.65038" lon="4.76051">
        <ele>272</ele>
        <time>2022-04-03T07:19:01.000Z</time>
      </trkpt>
      <trkpt lat="49.65034" lon="4.76047">
        <ele>272</ele>
        <time>2022-04-03T07:19:02.000Z</time>
      </trkpt>
      <trkpt lat="49.6503" lon="4.76042">
        <ele>272</ele>
        <time>2022-04-03T07:19:03.000Z</time>
      </trkpt>
      <trkpt lat="49.65026" lon="4.76038">
        <ele>272</ele>
        <time>2022-04-03T07:19:04.000Z</time>
      </trkpt>
      <trkpt lat="49.65023" lon="4.76033">
        <ele>272</ele>
        <time>2022-04-03T07:19:05.000Z</time>
      </trkpt>
      <trkpt lat="49.65019" lon="4.7603">
        <ele>272</ele>
        <time>2022-04-03T07:19:06.000Z</time>
      </trkpt>
      <trkpt lat="49.65016" lon="4.76026">
        <ele>272</ele>
        <time>2022-04-03T07:19:07.000Z</time>
      </trkpt>
      <trkpt lat="49.65012" lon="4.76022">
        <ele>272</ele>
        <time>2022-04-03T07:19:08.000Z</time>
      </trkpt>
      <trkpt lat="49.65009" lon="4.76018">
        <ele>272</ele>
        <time>2022-04-03T07:19:09.000Z</time>
      </trkpt>
      <trkpt lat="49.65005" lon="4.76014">
        <ele>272</ele>
        <time>2022-04-03T07:19:10.000Z</time>
      </trkpt>
      <trkpt lat="49.65002" lon="4.7601">
        <ele>272</ele>
        <time>2022-04-03T07:19:11.000Z</time>
      </trkpt>
      <trkpt lat="49.64998" lon="4.76006">
        <ele>272</ele>
        <time>2022-04-03T07:19:12.000Z</time>
      </trkpt>
      <trkpt lat="49.64994" lon="4.76002">
        <ele>272</ele>
        <time>2022-04-03T07:19:13.000Z</time>
      </trkpt>
      <trkpt lat="49.6499" lon="4.75998">
        <ele>272</ele>
        <time>2022-04-03T07:19:14.000Z</time>
      </trkpt>
      <trkpt lat="49.64986" lon="4.75993">
        <ele>272</ele>
        <time>2022-04-03T07:19:15.000Z</time>
      </trkpt>
      <trkpt lat="49.64982" lon="4.75989">
        <ele>272</ele>
        <time>2022-04-03T07:19:16.000Z</time>
      </trkpt>
      <trkpt lat="49.64977" lon="4.75984">
        <ele>272</ele>
        <time>2022-04-03T07:19:17.000Z</time>
      </trkpt>
      <trkpt lat="49.64969" lon="4.75976">
        <ele>272</ele>
        <time>2022-04-03T07:19:18.000Z</time>
      </trkpt>
      <trkpt lat="49.64969" lon="4.75976">
        <ele>272</ele>
        <time>2022-04-03T07:19:19.000Z</time>
      </trkpt>
      <trkpt lat="49.64965" lon="4.75972">
        <ele>272</ele>
        <time>2022-04-03T07:19:20.000Z</time>
      </trkpt>
      <trkpt lat="49.64961" lon="4.75968">
        <ele>272</ele>
        <time>2022-04-03T07:19:21.000Z</time>
      </trkpt>
      <trkpt lat="49.64958" lon="4.75965">
        <ele>272</ele>
        <time>2022-04-03T07:19:22.000Z</time>
      </trkpt>
      <trkpt lat="49.64954" lon="4.75962">
        <ele>272</ele>
        <time>2022-04-03T07:19:23.000Z</time>
      </trkpt>
      <trkpt lat="49.6495" lon="4.75958">
        <ele>273</ele>
        <time>2022-04-03T07:19:24.000Z</time>
      </trkpt>
      <trkpt lat="49.64947" lon="4.75954">
        <ele>273</ele>
        <time>2022-04-03T07:19:25.000Z</time>
      </trkpt>
      <trkpt lat="49.64943" lon="4.7595">
        <ele>273</ele>
        <time>2022-04-03T07:19:26.000Z</time>
      </trkpt>
      <trkpt lat="49.64939" lon="4.75946">
        <ele>273</ele>
        <time>2022-04-03T07:19:27.000Z</time>
      </trkpt>
      <trkpt lat="49.64935" lon="4.75941">
        <ele>273</ele>
        <time>2022-04-03T07:19:28.000Z</time>
      </trkpt>
      <trkpt lat="49.64931" lon="4.75937">
        <ele>273</ele>
        <time>2022-04-03T07:19:29.000Z</time>
      </trkpt>
      <trkpt lat="49.64928" lon="4.75933">
        <ele>273</ele>
        <time>2022-04-03T07:19:30.000Z</time>
      </trkpt>
      <trkpt lat="49.64923" lon="4.75929">
        <ele>273</ele>
        <time>2022-04-03T07:19:31.000Z</time>
      </trkpt>
      <trkpt lat="49.6492" lon="4.75925">
        <ele>273</ele>
        <time>2022-04-03T07:19:32.000Z</time>
      </trkpt>
      <trkpt lat="49.64915" lon="4.75921">
        <ele>274</ele>
        <time>2022-04-03T07:19:33.000Z</time>
      </trkpt>
      <trkpt lat="49.64912" lon="4.75917">
        <ele>274</ele>
        <time>2022-04-03T07:19:34.000Z</time>
      </trkpt>
      <trkpt lat="49.64907" lon="4.75913">
        <ele>274</ele>
        <time>2022-04-03T07:19:35.000Z</time>
      </trkpt>
      <trkpt lat="49.64899" lon="4.75904">
        <ele>274</ele>
        <time>2022-04-03T07:19:36.000Z</time>
      </trkpt>
      <trkpt lat="49.64899" lon="4.75904">
        <ele>274</ele>
        <time>2022-04-03T07:19:37.000Z</time>
      </trkpt>
      <trkpt lat="49.64895" lon="4.75899">
        <ele>274</ele>
        <time>2022-04-03T07:19:38.000Z</time>
      </trkpt>
      <trkpt lat="49.64891" lon="4.75894">
        <ele>274</ele>
        <time>2022-04-03T07:19:39.000Z</time>
      </trkpt>
      <trkpt lat="49.64886" lon="4.7589">
        <ele>274</ele>
        <time>2022-04-03T07:19:40.000Z</time>
      </trkpt>
      <trkpt lat="49.64882" lon="4.75885">
        <ele>274</ele>
        <time>2022-04-03T07:19:41.000Z</time>
      </trkpt>
      <trkpt lat="49.64878" lon="4.7588">
        <ele>274</ele>
        <time>2022-04-03T07:19:42.000Z</time>
      </trkpt>
      <trkpt lat="49.64874" lon="4.75875">
        <ele>274</ele>
        <time>2022-04-03T07:19:43.000Z</time>
      </trkpt>
      <trkpt lat="49.64869" lon="4.75871">
        <ele>273</ele>
        <time>2022-04-03T07:19:44.000Z</time>
      </trkpt>
      <trkpt lat="49.64865" lon="4.75866">
        <ele>273</ele>
        <time>2022-04-03T07:19:45.000Z</time>
      </trkpt>
      <trkpt lat="49.64861" lon="4.75861">
        <ele>273</ele>
        <time>2022-04-03T07:19:46.000Z</time>
      </trkpt>
      <trkpt lat="49.64857" lon="4.75857">
        <ele>273</ele>
        <time>2022-04-03T07:19:47.000Z</time>
      </trkpt>
      <trkpt lat="49.64853" lon="4.75853">
        <ele>273</ele>
        <time>2022-04-03T07:19:48.000Z</time>
      </trkpt>
      <trkpt lat="49.64849" lon="4.75848">
        <ele>273</ele>
        <time>2022-04-03T07:19:49.000Z</time>
      </trkpt>
      <trkpt lat="49.64845" lon="4.75844">
        <ele>274</ele>
        <time>2022-04-03T07:19:50.000Z</time>
      </trkpt>
      <trkpt lat="49.64841" lon="4.7584">
        <ele>274</ele>
        <time>2022-04-03T07:19:51.000Z</time>
      </trkpt>
      <trkpt lat="49.64837" lon="4.75836">
        <ele>274</ele>
        <time>2022-04-03T07:19:52.000Z</time>
      </trkpt>
      <trkpt lat="49.64833" lon="4.75831">
        <ele>274</ele>
        <time>2022-04-03T07:19:53.000Z</time>
      </trkpt>
      <trkpt lat="49.64829" lon="4.75827">
        <ele>274</ele>
        <time>2022-04-03T07:19:54.000Z</time>
      </trkpt>
      <trkpt lat="49.64826" lon="4.75823">
        <ele>274</ele>
        <time>2022-04-03T07:19:55.000Z</time>
      </trkpt>
      <trkpt lat="49.64822" lon="4.7582">
        <ele>275</ele>
        <time>2022-04-03T07:19:56.000Z</time>
      </trkpt>
      <trkpt lat="49.64818" lon="4.75816">
        <ele>275</ele>
        <time>2022-04-03T07:19:57.000Z</time>
      </trkpt>
      <trkpt lat="49.64815" lon="4.75811">
        <ele>275</ele>
        <time>2022-04-03T07:19:58.000Z</time>
      </trkpt>
      <trkpt lat="49.64812" lon="4.75807">
        <ele>275</ele>
        <time>2022-04-03T07:19:59.000Z</time>
      </trkpt>
      <trkpt lat="49.64808" lon="4.75803">
        <ele>275</ele>
        <time>2022-04-03T07:20:00.000Z</time>
      </trkpt>
      <trkpt lat="49.64804" lon="4.758">
        <ele>275</ele>
        <time>2022-04-03T07:20:01.000Z</time>
      </trkpt>
      <trkpt lat="49.64801" lon="4.75796">
        <ele>275</ele>
        <time>2022-04-03T07:20:02.000Z</time>
      </trkpt>
      <trkpt lat="49.64797" lon="4.75792">
        <ele>275</ele>
        <time>2022-04-03T07:20:03.000Z</time>
      </trkpt>
      <trkpt lat="49.64793" lon="4.75788">
        <ele>275</ele>
        <time>2022-04-03T07:20:04.000Z</time>
      </trkpt>
      <trkpt lat="49.64789" lon="4.75784">
        <ele>275</ele>
        <time>2022-04-03T07:20:05.000Z</time>
      </trkpt>
      <trkpt lat="49.64785" lon="4.7578">
        <ele>276</ele>
        <time>2022-04-03T07:20:06.000Z</time>
      </trkpt>
      <trkpt lat="49.64782" lon="4.75776">
        <ele>276</ele>
        <time>2022-04-03T07:20:07.000Z</time>
      </trkpt>
      <trkpt lat="49.64778" lon="4.75771">
        <ele>276</ele>
        <time>2022-04-03T07:20:08.000Z</time>
      </trkpt>
      <trkpt lat="49.64775" lon="4.75767">
        <ele>276</ele>
        <time>2022-04-03T07:20:09.000Z</time>
      </trkpt>
      <trkpt lat="49.64771" lon="4.75763">
        <ele>276</ele>
        <time>2022-04-03T07:20:10.000Z</time>
      </trkpt>
      <trkpt lat="49.64767" lon="4.75759">
        <ele>276</ele>
        <time>2022-04-03T07:20:11.000Z</time>
      </trkpt>
      <trkpt lat="49.64764" lon="4.75755">
        <ele>276</ele>
        <time>2022-04-03T07:20:12.000Z</time>
      </trkpt>
      <trkpt lat="49.6476" lon="4.75752">
        <ele>277</ele>
        <time>2022-04-03T07:20:13.000Z</time>
      </trkpt>
      <trkpt lat="49.64757" lon="4.75747">
        <ele>277</ele>
        <time>2022-04-03T07:20:14.000Z</time>
      </trkpt>
      <trkpt lat="49.64753" lon="4.75743">
        <ele>277</ele>
        <time>2022-04-03T07:20:15.000Z</time>
      </trkpt>
      <trkpt lat="49.6475" lon="4.75739">
        <ele>277</ele>
        <time>2022-04-03T07:20:16.000Z</time>
      </trkpt>
      <trkpt lat="49.64746" lon="4.75736">
        <ele>277</ele>
        <time>2022-04-03T07:20:17.000Z</time>
      </trkpt>
      <trkpt lat="49.64743" lon="4.75732">
        <ele>277</ele>
        <time>2022-04-03T07:20:18.000Z</time>
      </trkpt>
      <trkpt lat="49.6474" lon="4.75728">
        <ele>278</ele>
        <time>2022-04-03T07:20:19.000Z</time>
      </trkpt>
      <trkpt lat="49.64737" lon="4.75724">
        <ele>278</ele>
        <time>2022-04-03T07:20:20.000Z</time>
      </trkpt>
      <trkpt lat="49.64734" lon="4.7572">
        <ele>278</ele>
        <time>2022-04-03T07:20:21.000Z</time>
      </trkpt>
      <trkpt lat="49.64732" lon="4.75716">
        <ele>278</ele>
        <time>2022-04-03T07:20:22.000Z</time>
      </trkpt>
      <trkpt lat="49.64727" lon="4.75709">
        <ele>278</ele>
        <time>2022-04-03T07:20:23.000Z</time>
      </trkpt>
      <trkpt lat="49.64727" lon="4.75709">
        <ele>278</ele>
        <time>2022-04-03T07:20:24.000Z</time>
      </trkpt>
      <trkpt lat="49.64723" lon="4.757">
        <ele>279</ele>
        <time>2022-04-03T07:20:25.000Z</time>
      </trkpt>
      <trkpt lat="49.64721" lon="4.75696">
        <ele>279</ele>
        <time>2022-04-03T07:20:26.000Z</time>
      </trkpt>
      <trkpt lat="49.64719" lon="4.75692">
        <ele>279</ele>
        <time>2022-04-03T07:20:27.000Z</time>
      </trkpt>
      <trkpt lat="49.64717" lon="4.75688">
        <ele>280</ele>
        <time>2022-04-03T07:20:28.000Z</time>
      </trkpt>
      <trkpt lat="49.64715" lon="4.75684">
        <ele>280</ele>
        <time>2022-04-03T07:20:29.000Z</time>
      </trkpt>
      <trkpt lat="49.64715" lon="4.75684">
        <ele>280</ele>
        <time>2022-04-03T07:20:30.000Z</time>
      </trkpt>
      <trkpt lat="49.64712" lon="4.75678">
        <ele>280</ele>
        <time>2022-04-03T07:20:31.000Z</time>
      </trkpt>
      <trkpt lat="49.64711" lon="4.75674">
        <ele>281</ele>
        <time>2022-04-03T07:20:32.000Z</time>
      </trkpt>
      <trkpt lat="49.6471" lon="4.75671">
        <ele>281</ele>
        <time>2022-04-03T07:20:33.000Z</time>
      </trkpt>
      <trkpt lat="49.64709" lon="4.75667">
        <ele>281</ele>
        <time>2022-04-03T07:20:34.000Z</time>
      </trkpt>
      <trkpt lat="49.64708" lon="4.75663">
        <ele>281</ele>
        <time>2022-04-03T07:20:35.000Z</time>
      </trkpt>
      <trkpt lat="49.64706" lon="4.75659">
        <ele>281</ele>
        <time>2022-04-03T07:20:36.000Z</time>
      </trkpt>
      <trkpt lat="49.64705" lon="4.75655">
        <ele>281</ele>
        <time>2022-04-03T07:20:37.000Z</time>
      </trkpt>
      <trkpt lat="49.64704" lon="4.75651">
        <ele>281</ele>
        <time>2022-04-03T07:20:38.000Z</time>
      </trkpt>
      <trkpt lat="49.64704" lon="4.75647">
        <ele>281</ele>
        <time>2022-04-03T07:20:39.000Z</time>
      </trkpt>
      <trkpt lat="49.64703" lon="4.75643">
        <ele>281</ele>
        <time>2022-04-03T07:20:40.000Z</time>
      </trkpt>
      <trkpt lat="49.64702" lon="4.75639">
        <ele>282</ele>
        <time>2022-04-03T07:20:41.000Z</time>
      </trkpt>
      <trkpt lat="49.64702" lon="4.75634">
        <ele>282</ele>
        <time>2022-04-03T07:20:42.000Z</time>
      </trkpt>
      <trkpt lat="49.64702" lon="4.7563">
        <ele>282</ele>
        <time>2022-04-03T07:20:43.000Z</time>
      </trkpt>
      <trkpt lat="49.64701" lon="4.75626">
        <ele>282</ele>
        <time>2022-04-03T07:20:44.000Z</time>
      </trkpt>
      <trkpt lat="49.647" lon="4.75622">
        <ele>282</ele>
        <time>2022-04-03T07:20:45.000Z</time>
      </trkpt>
      <trkpt lat="49.64699" lon="4.75618">
        <ele>282</ele>
        <time>2022-04-03T07:20:46.000Z</time>
      </trkpt>
      <trkpt lat="49.64699" lon="4.75614">
        <ele>282</ele>
        <time>2022-04-03T07:20:47.000Z</time>
      </trkpt>
      <trkpt lat="49.64698" lon="4.7561">
        <ele>282</ele>
        <time>2022-04-03T07:20:48.000Z</time>
      </trkpt>
      <trkpt lat="49.64697" lon="4.75607">
        <ele>282</ele>
        <time>2022-04-03T07:20:49.000Z</time>
      </trkpt>
      <trkpt lat="49.64697" lon="4.75602">
        <ele>283</ele>
        <time>2022-04-03T07:20:50.000Z</time>
      </trkpt>
      <trkpt lat="49.64696" lon="4.75599">
        <ele>283</ele>
        <time>2022-04-03T07:20:51.000Z</time>
      </trkpt>
      <trkpt lat="49.64695" lon="4.75595">
        <ele>283</ele>
        <time>2022-04-03T07:20:52.000Z</time>
      </trkpt>
      <trkpt lat="49.64695" lon="4.75591">
        <ele>283</ele>
        <time>2022-04-03T07:20:53.000Z</time>
      </trkpt>
      <trkpt lat="49.64694" lon="4.75587">
        <ele>283</ele>
        <time>2022-04-03T07:20:54.000Z</time>
      </trkpt>
      <trkpt lat="49.64694" lon="4.75583">
        <ele>284</ele>
        <time>2022-04-03T07:20:55.000Z</time>
      </trkpt>
      <trkpt lat="49.64692" lon="4.75579">
        <ele>284</ele>
        <time>2022-04-03T07:20:56.000Z</time>
      </trkpt>
      <trkpt lat="49.64692" lon="4.75575">
        <ele>284</ele>
        <time>2022-04-03T07:20:57.000Z</time>
      </trkpt>
      <trkpt lat="49.64691" lon="4.75571">
        <ele>284</ele>
        <time>2022-04-03T07:20:58.000Z</time>
      </trkpt>
      <trkpt lat="49.64689" lon="4.75566">
        <ele>285</ele>
        <time>2022-04-03T07:20:59.000Z</time>
      </trkpt>
      <trkpt lat="49.64688" lon="4.75561">
        <ele>285</ele>
        <time>2022-04-03T07:21:00.000Z</time>
      </trkpt>
      <trkpt lat="49.64687" lon="4.75556">
        <ele>285</ele>
        <time>2022-04-03T07:21:01.000Z</time>
      </trkpt>
      <trkpt lat="49.64686" lon="4.75551">
        <ele>286</ele>
        <time>2022-04-03T07:21:02.000Z</time>
      </trkpt>
      <trkpt lat="49.64686" lon="4.75546">
        <ele>286</ele>
        <time>2022-04-03T07:21:03.000Z</time>
      </trkpt>
      <trkpt lat="49.64685" lon="4.7554">
        <ele>286</ele>
        <time>2022-04-03T07:21:04.000Z</time>
      </trkpt>
      <trkpt lat="49.64685" lon="4.75535">
        <ele>287</ele>
        <time>2022-04-03T07:21:05.000Z</time>
      </trkpt>
      <trkpt lat="49.64684" lon="4.7553">
        <ele>287</ele>
        <time>2022-04-03T07:21:06.000Z</time>
      </trkpt>
      <trkpt lat="49.64682" lon="4.75525">
        <ele>288</ele>
        <time>2022-04-03T07:21:07.000Z</time>
      </trkpt>
      <trkpt lat="49.64681" lon="4.7552">
        <ele>288</ele>
        <time>2022-04-03T07:21:08.000Z</time>
      </trkpt>
      <trkpt lat="49.64681" lon="4.7552">
        <ele>288</ele>
        <time>2022-04-03T07:21:09.000Z</time>
      </trkpt>
      <trkpt lat="49.64681" lon="4.75514">
        <ele>288</ele>
        <time>2022-04-03T07:21:10.000Z</time>
      </trkpt>
      <trkpt lat="49.6468" lon="4.75509">
        <ele>289</ele>
        <time>2022-04-03T07:21:11.000Z</time>
      </trkpt>
      <trkpt lat="49.64678" lon="4.755">
        <ele>290</ele>
        <time>2022-04-03T07:21:12.000Z</time>
      </trkpt>
      <trkpt lat="49.64677" lon="4.75494">
        <ele>290</ele>
        <time>2022-04-03T07:21:13.000Z</time>
      </trkpt>
      <trkpt lat="49.64677" lon="4.75494">
        <ele>290</ele>
        <time>2022-04-03T07:21:14.000Z</time>
      </trkpt>
      <trkpt lat="49.64675" lon="4.75484">
        <ele>291</ele>
        <time>2022-04-03T07:21:15.000Z</time>
      </trkpt>
      <trkpt lat="49.64674" lon="4.75479">
        <ele>291</ele>
        <time>2022-04-03T07:21:16.000Z</time>
      </trkpt>
      <trkpt lat="49.64673" lon="4.75474">
        <ele>291</ele>
        <time>2022-04-03T07:21:17.000Z</time>
      </trkpt>
      <trkpt lat="49.64671" lon="4.7547">
        <ele>292</ele>
        <time>2022-04-03T07:21:18.000Z</time>
      </trkpt>
      <trkpt lat="49.6467" lon="4.75465">
        <ele>292</ele>
        <time>2022-04-03T07:21:19.000Z</time>
      </trkpt>
      <trkpt lat="49.64669" lon="4.7546">
        <ele>292</ele>
        <time>2022-04-03T07:21:20.000Z</time>
      </trkpt>
      <trkpt lat="49.64668" lon="4.75456">
        <ele>293</ele>
        <time>2022-04-03T07:21:21.000Z</time>
      </trkpt>
      <trkpt lat="49.64667" lon="4.75451">
        <ele>293</ele>
        <time>2022-04-03T07:21:22.000Z</time>
      </trkpt>
      <trkpt lat="49.64666" lon="4.75447">
        <ele>293</ele>
        <time>2022-04-03T07:21:23.000Z</time>
      </trkpt>
      <trkpt lat="49.64665" lon="4.75443">
        <ele>294</ele>
        <time>2022-04-03T07:21:24.000Z</time>
      </trkpt>
      <trkpt lat="49.64663" lon="4.75439">
        <ele>294</ele>
        <time>2022-04-03T07:21:25.000Z</time>
      </trkpt>
      <trkpt lat="49.64662" lon="4.75434">
        <ele>294</ele>
        <time>2022-04-03T07:21:26.000Z</time>
      </trkpt>
      <trkpt lat="49.6466" lon="4.7543">
        <ele>294</ele>
        <time>2022-04-03T07:21:27.000Z</time>
      </trkpt>
      <trkpt lat="49.64658" lon="4.75426">
        <ele>295</ele>
        <time>2022-04-03T07:21:28.000Z</time>
      </trkpt>
      <trkpt lat="49.64657" lon="4.75421">
        <ele>295</ele>
        <time>2022-04-03T07:21:29.000Z</time>
      </trkpt>
      <trkpt lat="49.64655" lon="4.75417">
        <ele>295</ele>
        <time>2022-04-03T07:21:30.000Z</time>
      </trkpt>
      <trkpt lat="49.64654" lon="4.75413">
        <ele>295</ele>
        <time>2022-04-03T07:21:31.000Z</time>
      </trkpt>
      <trkpt lat="49.64654" lon="4.75413">
        <ele>295</ele>
        <time>2022-04-03T07:21:32.000Z</time>
      </trkpt>
      <trkpt lat="49.64651" lon="4.75407">
        <ele>296</ele>
        <time>2022-04-03T07:21:33.000Z</time>
      </trkpt>
      <trkpt lat="49.64651" lon="4.75407">
        <ele>296</ele>
        <time>2022-04-03T07:21:34.000Z</time>
      </trkpt>
      <trkpt lat="49.6465" lon="4.75404">
        <ele>296</ele>
        <time>2022-04-03T07:21:35.000Z</time>
      </trkpt>
      <trkpt lat="49.64649" lon="4.754">
        <ele>297</ele>
        <time>2022-04-03T07:21:36.000Z</time>
      </trkpt>
      <trkpt lat="49.64649" lon="4.75396">
        <ele>297</ele>
        <time>2022-04-03T07:21:37.000Z</time>
      </trkpt>
      <trkpt lat="49.64648" lon="4.75395">
        <ele>297</ele>
        <time>2022-04-03T07:21:38.000Z</time>
      </trkpt>
      <trkpt lat="49.64647" lon="4.75395">
        <ele>297</ele>
        <time>2022-04-03T07:21:39.000Z</time>
      </trkpt>
      <trkpt lat="49.64647" lon="4.75398">
        <ele>298</ele>
        <time>2022-04-03T07:21:40.000Z</time>
      </trkpt>
      <trkpt lat="49.64649" lon="4.75399">
        <ele>298</ele>
        <time>2022-04-03T07:21:41.000Z</time>
      </trkpt>
      <trkpt lat="49.64649" lon="4.75399">
        <ele>298</ele>
        <time>2022-04-03T07:21:42.000Z</time>
      </trkpt>
      <trkpt lat="49.64651" lon="4.75401">
        <ele>297</ele>
        <time>2022-04-03T07:21:43.000Z</time>
      </trkpt>
      <trkpt lat="49.64655" lon="4.75403">
        <ele>297</ele>
        <time>2022-04-03T07:21:44.000Z</time>
      </trkpt>
      <trkpt lat="49.64656" lon="4.75403">
        <ele>297</ele>
        <time>2022-04-03T07:21:45.000Z</time>
      </trkpt>
      <trkpt lat="49.64658" lon="4.75402">
        <ele>297</ele>
        <time>2022-04-03T07:21:46.000Z</time>
      </trkpt>
      <trkpt lat="49.64659" lon="4.75401">
        <ele>297</ele>
        <time>2022-04-03T07:21:47.000Z</time>
      </trkpt>
      <trkpt lat="49.6466" lon="4.754">
        <ele>297</ele>
        <time>2022-04-03T07:21:48.000Z</time>
      </trkpt>
      <trkpt lat="49.64662" lon="4.75398">
        <ele>297</ele>
        <time>2022-04-03T07:21:49.000Z</time>
      </trkpt>
      <trkpt lat="49.64662" lon="4.75398">
        <ele>297</ele>
        <time>2022-04-03T07:21:50.000Z</time>
      </trkpt>
      <trkpt lat="49.64666" lon="4.75396">
        <ele>297</ele>
        <time>2022-04-03T07:21:51.000Z</time>
      </trkpt>
      <trkpt lat="49.64668" lon="4.75396">
        <ele>296</ele>
        <time>2022-04-03T07:21:52.000Z</time>
      </trkpt>
      <trkpt lat="49.64671" lon="4.75396">
        <ele>296</ele>
        <time>2022-04-03T07:21:53.000Z</time>
      </trkpt>
      <trkpt lat="49.64673" lon="4.75398">
        <ele>296</ele>
        <time>2022-04-03T07:21:54.000Z</time>
      </trkpt>
      <trkpt lat="49.64675" lon="4.754">
        <ele>296</ele>
        <time>2022-04-03T07:21:55.000Z</time>
      </trkpt>
      <trkpt lat="49.64676" lon="4.75403">
        <ele>296</ele>
        <time>2022-04-03T07:21:56.000Z</time>
      </trkpt>
      <trkpt lat="49.64678" lon="4.75406">
        <ele>296</ele>
        <time>2022-04-03T07:21:57.000Z</time>
      </trkpt>
      <trkpt lat="49.64679" lon="4.75408">
        <ele>296</ele>
        <time>2022-04-03T07:21:58.000Z</time>
      </trkpt>
      <trkpt lat="49.64682" lon="4.75412">
        <ele>296</ele>
        <time>2022-04-03T07:21:59.000Z</time>
      </trkpt>
      <trkpt lat="49.64683" lon="4.75415">
        <ele>295</ele>
        <time>2022-04-03T07:22:00.000Z</time>
      </trkpt>
      <trkpt lat="49.64685" lon="4.75418">
        <ele>295</ele>
        <time>2022-04-03T07:22:01.000Z</time>
      </trkpt>
      <trkpt lat="49.64686" lon="4.75422">
        <ele>295</ele>
        <time>2022-04-03T07:22:02.000Z</time>
      </trkpt>
      <trkpt lat="49.64688" lon="4.75424">
        <ele>295</ele>
        <time>2022-04-03T07:22:03.000Z</time>
      </trkpt>
      <trkpt lat="49.6469" lon="4.75425">
        <ele>295</ele>
        <time>2022-04-03T07:22:04.000Z</time>
      </trkpt>
      <trkpt lat="49.64693" lon="4.75428">
        <ele>295</ele>
        <time>2022-04-03T07:22:05.000Z</time>
      </trkpt>
      <trkpt lat="49.64696" lon="4.75432">
        <ele>294</ele>
        <time>2022-04-03T07:22:06.000Z</time>
      </trkpt>
      <trkpt lat="49.64698" lon="4.75437">
        <ele>294</ele>
        <time>2022-04-03T07:22:07.000Z</time>
      </trkpt>
      <trkpt lat="49.647" lon="4.75441">
        <ele>294</ele>
        <time>2022-04-03T07:22:08.000Z</time>
      </trkpt>
      <trkpt lat="49.64701" lon="4.75445">
        <ele>294</ele>
        <time>2022-04-03T07:22:09.000Z</time>
      </trkpt>
      <trkpt lat="49.64702" lon="4.75448">
        <ele>293</ele>
        <time>2022-04-03T07:22:10.000Z</time>
      </trkpt>
      <trkpt lat="49.64702" lon="4.7545">
        <ele>293</ele>
        <time>2022-04-03T07:22:11.000Z</time>
      </trkpt>
      <trkpt lat="49.64702" lon="4.7545">
        <ele>293</ele>
        <time>2022-04-03T07:22:12.000Z</time>
      </trkpt>
      <trkpt lat="49.64702" lon="4.75451">
        <ele>293</ele>
        <time>2022-04-03T07:22:13.000Z</time>
      </trkpt>
      <trkpt lat="49.64703" lon="4.75452">
        <ele>292</ele>
        <time>2022-04-03T07:22:14.000Z</time>
      </trkpt>
      <trkpt lat="49.64703" lon="4.75452">
        <ele>292</ele>
        <time>2022-04-03T07:22:15.000Z</time>
      </trkpt>
      <trkpt lat="49.64703" lon="4.75453">
        <ele>292</ele>
        <time>2022-04-03T07:22:16.000Z</time>
      </trkpt>
      <trkpt lat="49.64704" lon="4.75453">
        <ele>291</ele>
        <time>2022-04-03T07:22:17.000Z</time>
      </trkpt>
      <trkpt lat="49.64704" lon="4.75453">
        <ele>291</ele>
        <time>2022-04-03T07:22:18.000Z</time>
      </trkpt>
      <trkpt lat="49.64706" lon="4.75452">
        <ele>291</ele>
        <time>2022-04-03T07:22:19.000Z</time>
      </trkpt>
      <trkpt lat="49.64708" lon="4.75451">
        <ele>290</ele>
        <time>2022-04-03T07:22:20.000Z</time>
      </trkpt>
      <trkpt lat="49.64709" lon="4.75449">
        <ele>290</ele>
        <time>2022-04-03T07:22:21.000Z</time>
      </trkpt>
      <trkpt lat="49.64711" lon="4.75446">
        <ele>290</ele>
        <time>2022-04-03T07:22:22.000Z</time>
      </trkpt>
      <trkpt lat="49.64711" lon="4.75446">
        <ele>290</ele>
        <time>2022-04-03T07:22:23.000Z</time>
      </trkpt>
      <trkpt lat="49.64715" lon="4.75441">
        <ele>289</ele>
        <time>2022-04-03T07:22:24.000Z</time>
      </trkpt>
      <trkpt lat="49.64716" lon="4.75438">
        <ele>289</ele>
        <time>2022-04-03T07:22:25.000Z</time>
      </trkpt>
      <trkpt lat="49.64717" lon="4.75437">
        <ele>288</ele>
        <time>2022-04-03T07:22:26.000Z</time>
      </trkpt>
      <trkpt lat="49.64717" lon="4.75437">
        <ele>288</ele>
        <time>2022-04-03T07:22:27.000Z</time>
      </trkpt>
      <trkpt lat="49.64718" lon="4.75436">
        <ele>287</ele>
        <time>2022-04-03T07:22:28.000Z</time>
      </trkpt>
      <trkpt lat="49.64718" lon="4.75435">
        <ele>287</ele>
        <time>2022-04-03T07:22:29.000Z</time>
      </trkpt>
      <trkpt lat="49.64718" lon="4.75435">
        <ele>287</ele>
        <time>2022-04-03T07:22:30.000Z</time>
      </trkpt>
      <trkpt lat="49.64718" lon="4.75435">
        <ele>287</ele>
        <time>2022-04-03T07:22:31.000Z</time>
      </trkpt>
      <trkpt lat="49.64719" lon="4.75435">
        <ele>286</ele>
        <time>2022-04-03T07:22:32.000Z</time>
      </trkpt>
      <trkpt lat="49.64719" lon="4.75435">
        <ele>286</ele>
        <time>2022-04-03T07:22:33.000Z</time>
      </trkpt>
      <trkpt lat="49.6472" lon="4.75434">
        <ele>286</ele>
        <time>2022-04-03T07:22:34.000Z</time>
      </trkpt>
      <trkpt lat="49.64722" lon="4.75434">
        <ele>286</ele>
        <time>2022-04-03T07:22:35.000Z</time>
      </trkpt>
      <trkpt lat="49.64723" lon="4.75435">
        <ele>285</ele>
        <time>2022-04-03T07:22:36.000Z</time>
      </trkpt>
      <trkpt lat="49.64724" lon="4.75435">
        <ele>285</ele>
        <time>2022-04-03T07:22:37.000Z</time>
      </trkpt>
      <trkpt lat="49.64725" lon="4.75434">
        <ele>284</ele>
        <time>2022-04-03T07:22:38.000Z</time>
      </trkpt>
      <trkpt lat="49.64725" lon="4.75433">
        <ele>283</ele>
        <time>2022-04-03T07:22:39.000Z</time>
      </trkpt>
      <trkpt lat="49.64726" lon="4.75433">
        <ele>283</ele>
        <time>2022-04-03T07:22:40.000Z</time>
      </trkpt>
      <trkpt lat="49.64727" lon="4.75431">
        <ele>282</ele>
        <time>2022-04-03T07:22:41.000Z</time>
      </trkpt>
      <trkpt lat="49.64729" lon="4.75429">
        <ele>282</ele>
        <time>2022-04-03T07:22:42.000Z</time>
      </trkpt>
      <trkpt lat="49.6473" lon="4.75427">
        <ele>281</ele>
        <time>2022-04-03T07:22:43.000Z</time>
      </trkpt>
      <trkpt lat="49.64731" lon="4.75425">
        <ele>281</ele>
        <time>2022-04-03T07:22:44.000Z</time>
      </trkpt>
      <trkpt lat="49.64733" lon="4.75424">
        <ele>280</ele>
        <time>2022-04-03T07:22:45.000Z</time>
      </trkpt>
      <trkpt lat="49.64734" lon="4.75426">
        <ele>280</ele>
        <time>2022-04-03T07:22:46.000Z</time>
      </trkpt>
      <trkpt lat="49.64735" lon="4.75428">
        <ele>279</ele>
        <time>2022-04-03T07:22:47.000Z</time>
      </trkpt>
      <trkpt lat="49.64736" lon="4.75431">
        <ele>279</ele>
        <time>2022-04-03T07:22:48.000Z</time>
      </trkpt>
      <trkpt lat="49.64737" lon="4.75434">
        <ele>278</ele>
        <time>2022-04-03T07:22:49.000Z</time>
      </trkpt>
      <trkpt lat="49.64739" lon="4.75438">
        <ele>278</ele>
        <time>2022-04-03T07:22:50.000Z</time>
      </trkpt>
      <trkpt lat="49.6474" lon="4.75441">
        <ele>278</ele>
        <time>2022-04-03T07:22:51.000Z</time>
      </trkpt>
      <trkpt lat="49.64741" lon="4.75443">
        <ele>277</ele>
        <time>2022-04-03T07:22:52.000Z</time>
      </trkpt>
      <trkpt lat="49.64742" lon="4.75443">
        <ele>277</ele>
        <time>2022-04-03T07:22:53.000Z</time>
      </trkpt>
      <trkpt lat="49.64743" lon="4.75442">
        <ele>277</ele>
        <time>2022-04-03T07:22:54.000Z</time>
      </trkpt>
      <trkpt lat="49.64743" lon="4.7544">
        <ele>276</ele>
        <time>2022-04-03T07:22:55.000Z</time>
      </trkpt>
      <trkpt lat="49.64744" lon="4.75437">
        <ele>276</ele>
        <time>2022-04-03T07:22:56.000Z</time>
      </trkpt>
      <trkpt lat="49.64746" lon="4.75434">
        <ele>275</ele>
        <time>2022-04-03T07:22:57.000Z</time>
      </trkpt>
      <trkpt lat="49.64748" lon="4.7543">
        <ele>275</ele>
        <time>2022-04-03T07:22:58.000Z</time>
      </trkpt>
      <trkpt lat="49.6475" lon="4.75427">
        <ele>275</ele>
        <time>2022-04-03T07:22:59.000Z</time>
      </trkpt>
      <trkpt lat="49.64752" lon="4.75424">
        <ele>274</ele>
        <time>2022-04-03T07:23:00.000Z</time>
      </trkpt>
      <trkpt lat="49.64755" lon="4.75421">
        <ele>274</ele>
        <time>2022-04-03T07:23:01.000Z</time>
      </trkpt>
      <trkpt lat="49.64757" lon="4.75419">
        <ele>274</ele>
        <time>2022-04-03T07:23:02.000Z</time>
      </trkpt>
      <trkpt lat="49.64758" lon="4.75416">
        <ele>273</ele>
        <time>2022-04-03T07:23:03.000Z</time>
      </trkpt>
      <trkpt lat="49.64759" lon="4.75412">
        <ele>272</ele>
        <time>2022-04-03T07:23:04.000Z</time>
      </trkpt>
      <trkpt lat="49.64759" lon="4.75412">
        <ele>272</ele>
        <time>2022-04-03T07:23:05.000Z</time>
      </trkpt>
      <trkpt lat="49.6476" lon="4.75411">
        <ele>272</ele>
        <time>2022-04-03T07:23:06.000Z</time>
      </trkpt>
      <trkpt lat="49.64762" lon="4.75411">
        <ele>271</ele>
        <time>2022-04-03T07:23:07.000Z</time>
      </trkpt>
      <trkpt lat="49.64767" lon="4.7541">
        <ele>271</ele>
        <time>2022-04-03T07:23:08.000Z</time>
      </trkpt>
      <trkpt lat="49.6477" lon="4.75407">
        <ele>270</ele>
        <time>2022-04-03T07:23:09.000Z</time>
      </trkpt>
      <trkpt lat="49.64771" lon="4.75403">
        <ele>270</ele>
        <time>2022-04-03T07:23:10.000Z</time>
      </trkpt>
      <trkpt lat="49.64772" lon="4.75398">
        <ele>269</ele>
        <time>2022-04-03T07:23:11.000Z</time>
      </trkpt>
      <trkpt lat="49.64772" lon="4.75393">
        <ele>269</ele>
        <time>2022-04-03T07:23:12.000Z</time>
      </trkpt>
      <trkpt lat="49.64773" lon="4.75388">
        <ele>268</ele>
        <time>2022-04-03T07:23:13.000Z</time>
      </trkpt>
      <trkpt lat="49.64775" lon="4.75384">
        <ele>268</ele>
        <time>2022-04-03T07:23:14.000Z</time>
      </trkpt>
      <trkpt lat="49.64778" lon="4.75381">
        <ele>267</ele>
        <time>2022-04-03T07:23:15.000Z</time>
      </trkpt>
      <trkpt lat="49.64782" lon="4.75378">
        <ele>267</ele>
        <time>2022-04-03T07:23:16.000Z</time>
      </trkpt>
      <trkpt lat="49.64787" lon="4.75374">
        <ele>266</ele>
        <time>2022-04-03T07:23:17.000Z</time>
      </trkpt>
      <trkpt lat="49.64791" lon="4.75369">
        <ele>266</ele>
        <time>2022-04-03T07:23:18.000Z</time>
      </trkpt>
      <trkpt lat="49.64795" lon="4.75365">
        <ele>265</ele>
        <time>2022-04-03T07:23:19.000Z</time>
      </trkpt>
      <trkpt lat="49.64799" lon="4.75363">
        <ele>265</ele>
        <time>2022-04-03T07:23:20.000Z</time>
      </trkpt>
      <trkpt lat="49.64803" lon="4.75363">
        <ele>265</ele>
        <time>2022-04-03T07:23:21.000Z</time>
      </trkpt>
      <trkpt lat="49.64803" lon="4.75363">
        <ele>265</ele>
        <time>2022-04-03T07:23:22.000Z</time>
      </trkpt>
      <trkpt lat="49.64807" lon="4.75364">
        <ele>264</ele>
        <time>2022-04-03T07:23:23.000Z</time>
      </trkpt>
      <trkpt lat="49.64813" lon="4.75371">
        <ele>263</ele>
        <time>2022-04-03T07:23:24.000Z</time>
      </trkpt>
      <trkpt lat="49.64816" lon="4.75374">
        <ele>263</ele>
        <time>2022-04-03T07:23:25.000Z</time>
      </trkpt>
      <trkpt lat="49.64816" lon="4.75374">
        <ele>263</ele>
        <time>2022-04-03T07:23:26.000Z</time>
      </trkpt>
      <trkpt lat="49.64818" lon="4.7538">
        <ele>262</ele>
        <time>2022-04-03T07:23:27.000Z</time>
      </trkpt>
      <trkpt lat="49.64822" lon="4.75391">
        <ele>261</ele>
        <time>2022-04-03T07:23:28.000Z</time>
      </trkpt>
      <trkpt lat="49.64824" lon="4.75397">
        <ele>261</ele>
        <time>2022-04-03T07:23:29.000Z</time>
      </trkpt>
      <trkpt lat="49.64827" lon="4.75404">
        <ele>260</ele>
        <time>2022-04-03T07:23:30.000Z</time>
      </trkpt>
      <trkpt lat="49.6483" lon="4.7541">
        <ele>260</ele>
        <time>2022-04-03T07:23:31.000Z</time>
      </trkpt>
      <trkpt lat="49.64832" lon="4.75414">
        <ele>260</ele>
        <time>2022-04-03T07:23:32.000Z</time>
      </trkpt>
      <trkpt lat="49.64835" lon="4.75417">
        <ele>259</ele>
        <time>2022-04-03T07:23:33.000Z</time>
      </trkpt>
      <trkpt lat="49.64838" lon="4.75419">
        <ele>259</ele>
        <time>2022-04-03T07:23:34.000Z</time>
      </trkpt>
      <trkpt lat="49.6484" lon="4.75419">
        <ele>259</ele>
        <time>2022-04-03T07:23:35.000Z</time>
      </trkpt>
      <trkpt lat="49.64843" lon="4.75419">
        <ele>258</ele>
        <time>2022-04-03T07:23:36.000Z</time>
      </trkpt>
      <trkpt lat="49.64843" lon="4.75419">
        <ele>258</ele>
        <time>2022-04-03T07:23:37.000Z</time>
      </trkpt>
      <trkpt lat="49.64845" lon="4.75416">
        <ele>258</ele>
        <time>2022-04-03T07:23:38.000Z</time>
      </trkpt>
      <trkpt lat="49.64847" lon="4.75407">
        <ele>258</ele>
        <time>2022-04-03T07:23:39.000Z</time>
      </trkpt>
      <trkpt lat="49.64848" lon="4.75402">
        <ele>257</ele>
        <time>2022-04-03T07:23:40.000Z</time>
      </trkpt>
      <trkpt lat="49.64848" lon="4.75397">
        <ele>257</ele>
        <time>2022-04-03T07:23:41.000Z</time>
      </trkpt>
      <trkpt lat="49.64849" lon="4.75391">
        <ele>257</ele>
        <time>2022-04-03T07:23:42.000Z</time>
      </trkpt>
      <trkpt lat="49.6485" lon="4.75386">
        <ele>256</ele>
        <time>2022-04-03T07:23:43.000Z</time>
      </trkpt>
      <trkpt lat="49.64851" lon="4.75381">
        <ele>256</ele>
        <time>2022-04-03T07:23:44.000Z</time>
      </trkpt>
      <trkpt lat="49.64852" lon="4.75377">
        <ele>256</ele>
        <time>2022-04-03T07:23:45.000Z</time>
      </trkpt>
      <trkpt lat="49.64853" lon="4.75371">
        <ele>256</ele>
        <time>2022-04-03T07:23:46.000Z</time>
      </trkpt>
      <trkpt lat="49.64855" lon="4.75365">
        <ele>256</ele>
        <time>2022-04-03T07:23:47.000Z</time>
      </trkpt>
      <trkpt lat="49.64856" lon="4.7536">
        <ele>256</ele>
        <time>2022-04-03T07:23:48.000Z</time>
      </trkpt>
      <trkpt lat="49.64857" lon="4.75354">
        <ele>255</ele>
        <time>2022-04-03T07:23:49.000Z</time>
      </trkpt>
      <trkpt lat="49.64859" lon="4.75347">
        <ele>255</ele>
        <time>2022-04-03T07:23:50.000Z</time>
      </trkpt>
      <trkpt lat="49.6486" lon="4.75342">
        <ele>255</ele>
        <time>2022-04-03T07:23:51.000Z</time>
      </trkpt>
      <trkpt lat="49.64861" lon="4.75336">
        <ele>255</ele>
        <time>2022-04-03T07:23:52.000Z</time>
      </trkpt>
      <trkpt lat="49.64863" lon="4.75331">
        <ele>255</ele>
        <time>2022-04-03T07:23:53.000Z</time>
      </trkpt>
      <trkpt lat="49.64865" lon="4.75326">
        <ele>256</ele>
        <time>2022-04-03T07:23:54.000Z</time>
      </trkpt>
      <trkpt lat="49.64867" lon="4.7532">
        <ele>256</ele>
        <time>2022-04-03T07:23:55.000Z</time>
      </trkpt>
      <trkpt lat="49.6487" lon="4.75316">
        <ele>256</ele>
        <time>2022-04-03T07:23:56.000Z</time>
      </trkpt>
      <trkpt lat="49.64873" lon="4.75312">
        <ele>256</ele>
        <time>2022-04-03T07:23:57.000Z</time>
      </trkpt>
      <trkpt lat="49.64876" lon="4.75308">
        <ele>256</ele>
        <time>2022-04-03T07:23:58.000Z</time>
      </trkpt>
      <trkpt lat="49.64878" lon="4.75305">
        <ele>257</ele>
        <time>2022-04-03T07:23:59.000Z</time>
      </trkpt>
      <trkpt lat="49.64881" lon="4.75301">
        <ele>257</ele>
        <time>2022-04-03T07:24:00.000Z</time>
      </trkpt>
      <trkpt lat="49.64883" lon="4.75297">
        <ele>257</ele>
        <time>2022-04-03T07:24:01.000Z</time>
      </trkpt>
      <trkpt lat="49.64886" lon="4.75292">
        <ele>257</ele>
        <time>2022-04-03T07:24:02.000Z</time>
      </trkpt>
      <trkpt lat="49.64888" lon="4.75287">
        <ele>257</ele>
        <time>2022-04-03T07:24:03.000Z</time>
      </trkpt>
      <trkpt lat="49.6489" lon="4.75284">
        <ele>257</ele>
        <time>2022-04-03T07:24:04.000Z</time>
      </trkpt>
      <trkpt lat="49.64893" lon="4.75281">
        <ele>257</ele>
        <time>2022-04-03T07:24:05.000Z</time>
      </trkpt>
      <trkpt lat="49.64896" lon="4.75279">
        <ele>257</ele>
        <time>2022-04-03T07:24:06.000Z</time>
      </trkpt>
      <trkpt lat="49.64898" lon="4.75278">
        <ele>257</ele>
        <time>2022-04-03T07:24:07.000Z</time>
      </trkpt>
      <trkpt lat="49.649" lon="4.75276">
        <ele>257</ele>
        <time>2022-04-03T07:24:08.000Z</time>
      </trkpt>
      <trkpt lat="49.64902" lon="4.75275">
        <ele>257</ele>
        <time>2022-04-03T07:24:09.000Z</time>
      </trkpt>
      <trkpt lat="49.64904" lon="4.75273">
        <ele>258</ele>
        <time>2022-04-03T07:24:10.000Z</time>
      </trkpt>
      <trkpt lat="49.64906" lon="4.75272">
        <ele>258</ele>
        <time>2022-04-03T07:24:11.000Z</time>
      </trkpt>
      <trkpt lat="49.64907" lon="4.75271">
        <ele>258</ele>
        <time>2022-04-03T07:24:12.000Z</time>
      </trkpt>
      <trkpt lat="49.64909" lon="4.7527">
        <ele>258</ele>
        <time>2022-04-03T07:24:13.000Z</time>
      </trkpt>
      <trkpt lat="49.6491" lon="4.75269">
        <ele>258</ele>
        <time>2022-04-03T07:24:14.000Z</time>
      </trkpt>
      <trkpt lat="49.64911" lon="4.75269">
        <ele>258</ele>
        <time>2022-04-03T07:24:15.000Z</time>
      </trkpt>
      <trkpt lat="49.64913" lon="4.75268">
        <ele>259</ele>
        <time>2022-04-03T07:24:16.000Z</time>
      </trkpt>
      <trkpt lat="49.64915" lon="4.75268">
        <ele>259</ele>
        <time>2022-04-03T07:24:17.000Z</time>
      </trkpt>
      <trkpt lat="49.64917" lon="4.75268">
        <ele>259</ele>
        <time>2022-04-03T07:24:18.000Z</time>
      </trkpt>
      <trkpt lat="49.64919" lon="4.75268">
        <ele>260</ele>
        <time>2022-04-03T07:24:19.000Z</time>
      </trkpt>
      <trkpt lat="49.64922" lon="4.75267">
        <ele>260</ele>
        <time>2022-04-03T07:24:20.000Z</time>
      </trkpt>
      <trkpt lat="49.64924" lon="4.75267">
        <ele>260</ele>
        <time>2022-04-03T07:24:21.000Z</time>
      </trkpt>
      <trkpt lat="49.64926" lon="4.75266">
        <ele>261</ele>
        <time>2022-04-03T07:24:22.000Z</time>
      </trkpt>
      <trkpt lat="49.64928" lon="4.75266">
        <ele>261</ele>
        <time>2022-04-03T07:24:23.000Z</time>
      </trkpt>
      <trkpt lat="49.6493" lon="4.75266">
        <ele>261</ele>
        <time>2022-04-03T07:24:24.000Z</time>
      </trkpt>
      <trkpt lat="49.64932" lon="4.75265">
        <ele>261</ele>
        <time>2022-04-03T07:24:25.000Z</time>
      </trkpt>
      <trkpt lat="49.64934" lon="4.75265">
        <ele>261</ele>
        <time>2022-04-03T07:24:26.000Z</time>
      </trkpt>
      <trkpt lat="49.64937" lon="4.75265">
        <ele>262</ele>
        <time>2022-04-03T07:24:27.000Z</time>
      </trkpt>
      <trkpt lat="49.64939" lon="4.75264">
        <ele>262</ele>
        <time>2022-04-03T07:24:28.000Z</time>
      </trkpt>
      <trkpt lat="49.64941" lon="4.75264">
        <ele>262</ele>
        <time>2022-04-03T07:24:29.000Z</time>
      </trkpt>
      <trkpt lat="49.64943" lon="4.75264">
        <ele>262</ele>
        <time>2022-04-03T07:24:30.000Z</time>
      </trkpt>
      <trkpt lat="49.64945" lon="4.75263">
        <ele>263</ele>
        <time>2022-04-03T07:24:31.000Z</time>
      </trkpt>
      <trkpt lat="49.64947" lon="4.75262">
        <ele>263</ele>
        <time>2022-04-03T07:24:32.000Z</time>
      </trkpt>
      <trkpt lat="49.6495" lon="4.75262">
        <ele>263</ele>
        <time>2022-04-03T07:24:33.000Z</time>
      </trkpt>
      <trkpt lat="49.64952" lon="4.75261">
        <ele>263</ele>
        <time>2022-04-03T07:24:34.000Z</time>
      </trkpt>
      <trkpt lat="49.64955" lon="4.75261">
        <ele>264</ele>
        <time>2022-04-03T07:24:35.000Z</time>
      </trkpt>
      <trkpt lat="49.64957" lon="4.75261">
        <ele>264</ele>
        <time>2022-04-03T07:24:36.000Z</time>
      </trkpt>
      <trkpt lat="49.64959" lon="4.7526">
        <ele>264</ele>
        <time>2022-04-03T07:24:37.000Z</time>
      </trkpt>
      <trkpt lat="49.64961" lon="4.7526">
        <ele>265</ele>
        <time>2022-04-03T07:24:38.000Z</time>
      </trkpt>
      <trkpt lat="49.64964" lon="4.7526">
        <ele>265</ele>
        <time>2022-04-03T07:24:39.000Z</time>
      </trkpt>
      <trkpt lat="49.64966" lon="4.75259">
        <ele>265</ele>
        <time>2022-04-03T07:24:40.000Z</time>
      </trkpt>
      <trkpt lat="49.64969" lon="4.75258">
        <ele>266</ele>
        <time>2022-04-03T07:24:41.000Z</time>
      </trkpt>
      <trkpt lat="49.64971" lon="4.75257">
        <ele>266</ele>
        <time>2022-04-03T07:24:42.000Z</time>
      </trkpt>
      <trkpt lat="49.64973" lon="4.75256">
        <ele>266</ele>
        <time>2022-04-03T07:24:43.000Z</time>
      </trkpt>
      <trkpt lat="49.64975" lon="4.75255">
        <ele>266</ele>
        <time>2022-04-03T07:24:44.000Z</time>
      </trkpt>
      <trkpt lat="49.64977" lon="4.75254">
        <ele>266</ele>
        <time>2022-04-03T07:24:45.000Z</time>
      </trkpt>
      <trkpt lat="49.64979" lon="4.75252">
        <ele>267</ele>
        <time>2022-04-03T07:24:46.000Z</time>
      </trkpt>
      <trkpt lat="49.64981" lon="4.7525">
        <ele>267</ele>
        <time>2022-04-03T07:24:47.000Z</time>
      </trkpt>
      <trkpt lat="49.64983" lon="4.75248">
        <ele>267</ele>
        <time>2022-04-03T07:24:48.000Z</time>
      </trkpt>
      <trkpt lat="49.64983" lon="4.75248">
        <ele>267</ele>
        <time>2022-04-03T07:24:49.000Z</time>
      </trkpt>
      <trkpt lat="49.64984" lon="4.75246">
        <ele>267</ele>
        <time>2022-04-03T07:24:50.000Z</time>
      </trkpt>
      <trkpt lat="49.64988" lon="4.75242">
        <ele>268</ele>
        <time>2022-04-03T07:24:51.000Z</time>
      </trkpt>
      <trkpt lat="49.6499" lon="4.7524">
        <ele>268</ele>
        <time>2022-04-03T07:24:52.000Z</time>
      </trkpt>
      <trkpt lat="49.64992" lon="4.75238">
        <ele>268</ele>
        <time>2022-04-03T07:24:53.000Z</time>
      </trkpt>
      <trkpt lat="49.64994" lon="4.75236">
        <ele>268</ele>
        <time>2022-04-03T07:24:54.000Z</time>
      </trkpt>
      <trkpt lat="49.64996" lon="4.75235">
        <ele>268</ele>
        <time>2022-04-03T07:24:55.000Z</time>
      </trkpt>
      <trkpt lat="49.64997" lon="4.75233">
        <ele>269</ele>
        <time>2022-04-03T07:24:56.000Z</time>
      </trkpt>
      <trkpt lat="49.64999" lon="4.75232">
        <ele>269</ele>
        <time>2022-04-03T07:24:57.000Z</time>
      </trkpt>
      <trkpt lat="49.65001" lon="4.7523">
        <ele>269</ele>
        <time>2022-04-03T07:24:58.000Z</time>
      </trkpt>
      <trkpt lat="49.65003" lon="4.75228">
        <ele>269</ele>
        <time>2022-04-03T07:24:59.000Z</time>
      </trkpt>
      <trkpt lat="49.65004" lon="4.75225">
        <ele>269</ele>
        <time>2022-04-03T07:25:00.000Z</time>
      </trkpt>
      <trkpt lat="49.65007" lon="4.75223">
        <ele>269</ele>
        <time>2022-04-03T07:25:01.000Z</time>
      </trkpt>
      <trkpt lat="49.65009" lon="4.7522">
        <ele>269</ele>
        <time>2022-04-03T07:25:02.000Z</time>
      </trkpt>
      <trkpt lat="49.65012" lon="4.75218">
        <ele>269</ele>
        <time>2022-04-03T07:25:03.000Z</time>
      </trkpt>
      <trkpt lat="49.65014" lon="4.75216">
        <ele>269</ele>
        <time>2022-04-03T07:25:04.000Z</time>
      </trkpt>
      <trkpt lat="49.65016" lon="4.75213">
        <ele>269</ele>
        <time>2022-04-03T07:25:05.000Z</time>
      </trkpt>
      <trkpt lat="49.65018" lon="4.75211">
        <ele>269</ele>
        <time>2022-04-03T07:25:06.000Z</time>
      </trkpt>
      <trkpt lat="49.65021" lon="4.75209">
        <ele>269</ele>
        <time>2022-04-03T07:25:07.000Z</time>
      </trkpt>
      <trkpt lat="49.65023" lon="4.75207">
        <ele>269</ele>
        <time>2022-04-03T07:25:08.000Z</time>
      </trkpt>
      <trkpt lat="49.65024" lon="4.75204">
        <ele>270</ele>
        <time>2022-04-03T07:25:09.000Z</time>
      </trkpt>
      <trkpt lat="49.65026" lon="4.75201">
        <ele>270</ele>
        <time>2022-04-03T07:25:10.000Z</time>
      </trkpt>
      <trkpt lat="49.65026" lon="4.75197">
        <ele>270</ele>
        <time>2022-04-03T07:25:11.000Z</time>
      </trkpt>
      <trkpt lat="49.65027" lon="4.75194">
        <ele>270</ele>
        <time>2022-04-03T07:25:12.000Z</time>
      </trkpt>
      <trkpt lat="49.65027" lon="4.7519">
        <ele>270</ele>
        <time>2022-04-03T07:25:13.000Z</time>
      </trkpt>
      <trkpt lat="49.65027" lon="4.75186">
        <ele>270</ele>
        <time>2022-04-03T07:25:14.000Z</time>
      </trkpt>
      <trkpt lat="49.65027" lon="4.75183">
        <ele>270</ele>
        <time>2022-04-03T07:25:15.000Z</time>
      </trkpt>
      <trkpt lat="49.65027" lon="4.75179">
        <ele>270</ele>
        <time>2022-04-03T07:25:16.000Z</time>
      </trkpt>
      <trkpt lat="49.65028" lon="4.75176">
        <ele>270</ele>
        <time>2022-04-03T07:25:17.000Z</time>
      </trkpt>
      <trkpt lat="49.65028" lon="4.75172">
        <ele>270</ele>
        <time>2022-04-03T07:25:18.000Z</time>
      </trkpt>
      <trkpt lat="49.65028" lon="4.75169">
        <ele>270</ele>
        <time>2022-04-03T07:25:19.000Z</time>
      </trkpt>
      <trkpt lat="49.65028" lon="4.75165">
        <ele>270</ele>
        <time>2022-04-03T07:25:20.000Z</time>
      </trkpt>
      <trkpt lat="49.65029" lon="4.75161">
        <ele>270</ele>
        <time>2022-04-03T07:25:21.000Z</time>
      </trkpt>
      <trkpt lat="49.65029" lon="4.75157">
        <ele>270</ele>
        <time>2022-04-03T07:25:22.000Z</time>
      </trkpt>
      <trkpt lat="49.65028" lon="4.75154">
        <ele>270</ele>
        <time>2022-04-03T07:25:23.000Z</time>
      </trkpt>
      <trkpt lat="49.65028" lon="4.7515">
        <ele>271</ele>
        <time>2022-04-03T07:25:24.000Z</time>
      </trkpt>
      <trkpt lat="49.65028" lon="4.7515">
        <ele>271</ele>
        <time>2022-04-03T07:25:25.000Z</time>
      </trkpt>
      <trkpt lat="49.65026" lon="4.75147">
        <ele>271</ele>
        <time>2022-04-03T07:25:26.000Z</time>
      </trkpt>
      <trkpt lat="49.65023" lon="4.75143">
        <ele>271</ele>
        <time>2022-04-03T07:25:27.000Z</time>
      </trkpt>
      <trkpt lat="49.65021" lon="4.75141">
        <ele>271</ele>
        <time>2022-04-03T07:25:28.000Z</time>
      </trkpt>
      <trkpt lat="49.6502" lon="4.75138">
        <ele>271</ele>
        <time>2022-04-03T07:25:29.000Z</time>
      </trkpt>
      <trkpt lat="49.65018" lon="4.75136">
        <ele>271</ele>
        <time>2022-04-03T07:25:30.000Z</time>
      </trkpt>
      <trkpt lat="49.65016" lon="4.75133">
        <ele>271</ele>
        <time>2022-04-03T07:25:31.000Z</time>
      </trkpt>
      <trkpt lat="49.65014" lon="4.7513">
        <ele>271</ele>
        <time>2022-04-03T07:25:32.000Z</time>
      </trkpt>
      <trkpt lat="49.65012" lon="4.75127">
        <ele>271</ele>
        <time>2022-04-03T07:25:33.000Z</time>
      </trkpt>
      <trkpt lat="49.65011" lon="4.75124">
        <ele>271</ele>
        <time>2022-04-03T07:25:34.000Z</time>
      </trkpt>
      <trkpt lat="49.65009" lon="4.75121">
        <ele>271</ele>
        <time>2022-04-03T07:25:35.000Z</time>
      </trkpt>
      <trkpt lat="49.65007" lon="4.75118">
        <ele>271</ele>
        <time>2022-04-03T07:25:36.000Z</time>
      </trkpt>
      <trkpt lat="49.65007" lon="4.75118">
        <ele>271</ele>
        <time>2022-04-03T07:25:37.000Z</time>
      </trkpt>
      <trkpt lat="49.65003" lon="4.75112">
        <ele>272</ele>
        <time>2022-04-03T07:25:38.000Z</time>
      </trkpt>
      <trkpt lat="49.65001" lon="4.75109">
        <ele>272</ele>
        <time>2022-04-03T07:25:39.000Z</time>
      </trkpt>
      <trkpt lat="49.64998" lon="4.75105">
        <ele>272</ele>
        <time>2022-04-03T07:25:40.000Z</time>
      </trkpt>
      <trkpt lat="49.64996" lon="4.75102">
        <ele>272</ele>
        <time>2022-04-03T07:25:41.000Z</time>
      </trkpt>
      <trkpt lat="49.64993" lon="4.75099">
        <ele>272</ele>
        <time>2022-04-03T07:25:42.000Z</time>
      </trkpt>
      <trkpt lat="49.64993" lon="4.75099">
        <ele>272</ele>
        <time>2022-04-03T07:25:43.000Z</time>
      </trkpt>
      <trkpt lat="49.64989" lon="4.75092">
        <ele>273</ele>
        <time>2022-04-03T07:25:44.000Z</time>
      </trkpt>
      <trkpt lat="49.64987" lon="4.75088">
        <ele>273</ele>
        <time>2022-04-03T07:25:45.000Z</time>
      </trkpt>
      <trkpt lat="49.64985" lon="4.75085">
        <ele>273</ele>
        <time>2022-04-03T07:25:46.000Z</time>
      </trkpt>
      <trkpt lat="49.64983" lon="4.75082">
        <ele>273</ele>
        <time>2022-04-03T07:25:47.000Z</time>
      </trkpt>
      <trkpt lat="49.6498" lon="4.75078">
        <ele>273</ele>
        <time>2022-04-03T07:25:48.000Z</time>
      </trkpt>
      <trkpt lat="49.64978" lon="4.75075">
        <ele>273</ele>
        <time>2022-04-03T07:25:49.000Z</time>
      </trkpt>
      <trkpt lat="49.64976" lon="4.7507">
        <ele>273</ele>
        <time>2022-04-03T07:25:50.000Z</time>
      </trkpt>
      <trkpt lat="49.64974" lon="4.75065">
        <ele>273</ele>
        <time>2022-04-03T07:25:51.000Z</time>
      </trkpt>
      <trkpt lat="49.64973" lon="4.7506">
        <ele>273</ele>
        <time>2022-04-03T07:25:52.000Z</time>
      </trkpt>
      <trkpt lat="49.64973" lon="4.7506">
        <ele>273</ele>
        <time>2022-04-03T07:25:53.000Z</time>
      </trkpt>
      <trkpt lat="49.64973" lon="4.75054">
        <ele>273</ele>
        <time>2022-04-03T07:25:54.000Z</time>
      </trkpt>
      <trkpt lat="49.64973" lon="4.75049">
        <ele>274</ele>
        <time>2022-04-03T07:25:55.000Z</time>
      </trkpt>
      <trkpt lat="49.64974" lon="4.75038">
        <ele>274</ele>
        <time>2022-04-03T07:25:56.000Z</time>
      </trkpt>
      <trkpt lat="49.64974" lon="4.75032">
        <ele>274</ele>
        <time>2022-04-03T07:25:57.000Z</time>
      </trkpt>
      <trkpt lat="49.64974" lon="4.75027">
        <ele>275</ele>
        <time>2022-04-03T07:25:58.000Z</time>
      </trkpt>
      <trkpt lat="49.64974" lon="4.75021">
        <ele>275</ele>
        <time>2022-04-03T07:25:59.000Z</time>
      </trkpt>
      <trkpt lat="49.64974" lon="4.75016">
        <ele>275</ele>
        <time>2022-04-03T07:26:00.000Z</time>
      </trkpt>
      <trkpt lat="49.64975" lon="4.75012">
        <ele>275</ele>
        <time>2022-04-03T07:26:01.000Z</time>
      </trkpt>
      <trkpt lat="49.64975" lon="4.75006">
        <ele>275</ele>
        <time>2022-04-03T07:26:02.000Z</time>
      </trkpt>
      <trkpt lat="49.64975" lon="4.75">
        <ele>276</ele>
        <time>2022-04-03T07:26:03.000Z</time>
      </trkpt>
      <trkpt lat="49.64975" lon="4.74994">
        <ele>276</ele>
        <time>2022-04-03T07:26:04.000Z</time>
      </trkpt>
      <trkpt lat="49.64975" lon="4.74988">
        <ele>276</ele>
        <time>2022-04-03T07:26:05.000Z</time>
      </trkpt>
      <trkpt lat="49.64974" lon="4.74982">
        <ele>276</ele>
        <time>2022-04-03T07:26:06.000Z</time>
      </trkpt>
      <trkpt lat="49.64974" lon="4.74976">
        <ele>276</ele>
        <time>2022-04-03T07:26:07.000Z</time>
      </trkpt>
      <trkpt lat="49.64974" lon="4.74969">
        <ele>276</ele>
        <time>2022-04-03T07:26:08.000Z</time>
      </trkpt>
      <trkpt lat="49.64974" lon="4.74962">
        <ele>276</ele>
        <time>2022-04-03T07:26:09.000Z</time>
      </trkpt>
      <trkpt lat="49.64974" lon="4.74962">
        <ele>276</ele>
        <time>2022-04-03T07:26:10.000Z</time>
      </trkpt>
      <trkpt lat="49.64975" lon="4.74944">
        <ele>276</ele>
        <time>2022-04-03T07:26:11.000Z</time>
      </trkpt>
      <trkpt lat="49.64975" lon="4.74935">
        <ele>276</ele>
        <time>2022-04-03T07:26:12.000Z</time>
      </trkpt>
      <trkpt lat="49.64975" lon="4.74925">
        <ele>276</ele>
        <time>2022-04-03T07:26:13.000Z</time>
      </trkpt>
      <trkpt lat="49.64975" lon="4.74916">
        <ele>276</ele>
        <time>2022-04-03T07:26:14.000Z</time>
      </trkpt>
      <trkpt lat="49.64976" lon="4.74906">
        <ele>276</ele>
        <time>2022-04-03T07:26:15.000Z</time>
      </trkpt>
      <trkpt lat="49.64976" lon="4.74896">
        <ele>276</ele>
        <time>2022-04-03T07:26:16.000Z</time>
      </trkpt>
      <trkpt lat="49.64977" lon="4.74885">
        <ele>276</ele>
        <time>2022-04-03T07:26:17.000Z</time>
      </trkpt>
      <trkpt lat="49.64978" lon="4.74875">
        <ele>276</ele>
        <time>2022-04-03T07:26:18.000Z</time>
      </trkpt>
      <trkpt lat="49.64979" lon="4.74865">
        <ele>275</ele>
        <time>2022-04-03T07:26:19.000Z</time>
      </trkpt>
      <trkpt lat="49.6498" lon="4.74855">
        <ele>275</ele>
        <time>2022-04-03T07:26:20.000Z</time>
      </trkpt>
      <trkpt lat="49.64981" lon="4.74845">
        <ele>275</ele>
        <time>2022-04-03T07:26:21.000Z</time>
      </trkpt>
      <trkpt lat="49.64981" lon="4.74836">
        <ele>275</ele>
        <time>2022-04-03T07:26:22.000Z</time>
      </trkpt>
      <trkpt lat="49.64982" lon="4.74827">
        <ele>275</ele>
        <time>2022-04-03T07:26:23.000Z</time>
      </trkpt>
      <trkpt lat="49.64982" lon="4.74817">
        <ele>275</ele>
        <time>2022-04-03T07:26:24.000Z</time>
      </trkpt>
      <trkpt lat="49.64983" lon="4.74808">
        <ele>275</ele>
        <time>2022-04-03T07:26:25.000Z</time>
      </trkpt>
      <trkpt lat="49.64983" lon="4.74799">
        <ele>275</ele>
        <time>2022-04-03T07:26:26.000Z</time>
      </trkpt>
      <trkpt lat="49.64982" lon="4.7479">
        <ele>275</ele>
        <time>2022-04-03T07:26:27.000Z</time>
      </trkpt>
      <trkpt lat="49.64982" lon="4.74781">
        <ele>275</ele>
        <time>2022-04-03T07:26:28.000Z</time>
      </trkpt>
      <trkpt lat="49.64982" lon="4.74781">
        <ele>275</ele>
        <time>2022-04-03T07:26:29.000Z</time>
      </trkpt>
      <trkpt lat="49.64982" lon="4.74766">
        <ele>275</ele>
        <time>2022-04-03T07:26:30.000Z</time>
      </trkpt>
      <trkpt lat="49.64981" lon="4.7476">
        <ele>275</ele>
        <time>2022-04-03T07:26:31.000Z</time>
      </trkpt>
      <trkpt lat="49.64981" lon="4.74753">
        <ele>275</ele>
        <time>2022-04-03T07:26:32.000Z</time>
      </trkpt>
      <trkpt lat="49.6498" lon="4.74746">
        <ele>275</ele>
        <time>2022-04-03T07:26:33.000Z</time>
      </trkpt>
      <trkpt lat="49.6498" lon="4.74739">
        <ele>275</ele>
        <time>2022-04-03T07:26:34.000Z</time>
      </trkpt>
      <trkpt lat="49.6498" lon="4.74732">
        <ele>275</ele>
        <time>2022-04-03T07:26:35.000Z</time>
      </trkpt>
      <trkpt lat="49.6498" lon="4.74726">
        <ele>275</ele>
        <time>2022-04-03T07:26:36.000Z</time>
      </trkpt>
      <trkpt lat="49.6498" lon="4.74719">
        <ele>275</ele>
        <time>2022-04-03T07:26:37.000Z</time>
      </trkpt>
      <trkpt lat="49.6498" lon="4.74713">
        <ele>275</ele>
        <time>2022-04-03T07:26:38.000Z</time>
      </trkpt>
      <trkpt lat="49.6498" lon="4.74707">
        <ele>275</ele>
        <time>2022-04-03T07:26:39.000Z</time>
      </trkpt>
      <trkpt lat="49.64981" lon="4.74702">
        <ele>275</ele>
        <time>2022-04-03T07:26:40.000Z</time>
      </trkpt>
      <trkpt lat="49.64982" lon="4.74695">
        <ele>276</ele>
        <time>2022-04-03T07:26:41.000Z</time>
      </trkpt>
      <trkpt lat="49.64983" lon="4.7469">
        <ele>276</ele>
        <time>2022-04-03T07:26:42.000Z</time>
      </trkpt>
      <trkpt lat="49.64984" lon="4.74686">
        <ele>276</ele>
        <time>2022-04-03T07:26:43.000Z</time>
      </trkpt>
      <trkpt lat="49.64985" lon="4.74683">
        <ele>276</ele>
        <time>2022-04-03T07:26:44.000Z</time>
      </trkpt>
      <trkpt lat="49.64985" lon="4.74681">
        <ele>276</ele>
        <time>2022-04-03T07:26:45.000Z</time>
      </trkpt>
      <trkpt lat="49.64986" lon="4.74678">
        <ele>276</ele>
        <time>2022-04-03T07:26:46.000Z</time>
      </trkpt>
      <trkpt lat="49.64987" lon="4.74674">
        <ele>276</ele>
        <time>2022-04-03T07:26:47.000Z</time>
      </trkpt>
      <trkpt lat="49.64988" lon="4.7467">
        <ele>276</ele>
        <time>2022-04-03T07:26:48.000Z</time>
      </trkpt>
      <trkpt lat="49.64988" lon="4.74665">
        <ele>276</ele>
        <time>2022-04-03T07:26:49.000Z</time>
      </trkpt>
      <trkpt lat="49.64989" lon="4.74659">
        <ele>276</ele>
        <time>2022-04-03T07:26:50.000Z</time>
      </trkpt>
      <trkpt lat="49.6499" lon="4.74654">
        <ele>276</ele>
        <time>2022-04-03T07:26:51.000Z</time>
      </trkpt>
      <trkpt lat="49.64991" lon="4.74648">
        <ele>276</ele>
        <time>2022-04-03T07:26:52.000Z</time>
      </trkpt>
      <trkpt lat="49.64992" lon="4.74642">
        <ele>276</ele>
        <time>2022-04-03T07:26:53.000Z</time>
      </trkpt>
      <trkpt lat="49.64993" lon="4.74636">
        <ele>276</ele>
        <time>2022-04-03T07:26:54.000Z</time>
      </trkpt>
      <trkpt lat="49.64994" lon="4.7463">
        <ele>276</ele>
        <time>2022-04-03T07:26:55.000Z</time>
      </trkpt>
      <trkpt lat="49.64995" lon="4.74624">
        <ele>276</ele>
        <time>2022-04-03T07:26:56.000Z</time>
      </trkpt>
      <trkpt lat="49.64997" lon="4.74617">
        <ele>276</ele>
        <time>2022-04-03T07:26:57.000Z</time>
      </trkpt>
      <trkpt lat="49.64998" lon="4.74611">
        <ele>276</ele>
        <time>2022-04-03T07:26:58.000Z</time>
      </trkpt>
      <trkpt lat="49.64999" lon="4.74606">
        <ele>276</ele>
        <time>2022-04-03T07:26:59.000Z</time>
      </trkpt>
      <trkpt lat="49.65" lon="4.746">
        <ele>276</ele>
        <time>2022-04-03T07:27:00.000Z</time>
      </trkpt>
      <trkpt lat="49.65001" lon="4.74593">
        <ele>276</ele>
        <time>2022-04-03T07:27:01.000Z</time>
      </trkpt>
      <trkpt lat="49.65002" lon="4.74586">
        <ele>276</ele>
        <time>2022-04-03T07:27:02.000Z</time>
      </trkpt>
      <trkpt lat="49.65004" lon="4.74579">
        <ele>276</ele>
        <time>2022-04-03T07:27:03.000Z</time>
      </trkpt>
      <trkpt lat="49.65006" lon="4.74573">
        <ele>276</ele>
        <time>2022-04-03T07:27:04.000Z</time>
      </trkpt>
      <trkpt lat="49.65008" lon="4.74567">
        <ele>276</ele>
        <time>2022-04-03T07:27:05.000Z</time>
      </trkpt>
      <trkpt lat="49.6501" lon="4.74561">
        <ele>276</ele>
        <time>2022-04-03T07:27:06.000Z</time>
      </trkpt>
      <trkpt lat="49.65012" lon="4.74554">
        <ele>276</ele>
        <time>2022-04-03T07:27:07.000Z</time>
      </trkpt>
      <trkpt lat="49.65014" lon="4.74548">
        <ele>276</ele>
        <time>2022-04-03T07:27:08.000Z</time>
      </trkpt>
      <trkpt lat="49.65015" lon="4.74542">
        <ele>276</ele>
        <time>2022-04-03T07:27:09.000Z</time>
      </trkpt>
      <trkpt lat="49.65016" lon="4.74535">
        <ele>276</ele>
        <time>2022-04-03T07:27:10.000Z</time>
      </trkpt>
      <trkpt lat="49.65018" lon="4.74529">
        <ele>276</ele>
        <time>2022-04-03T07:27:11.000Z</time>
      </trkpt>
      <trkpt lat="49.65019" lon="4.74523">
        <ele>276</ele>
        <time>2022-04-03T07:27:12.000Z</time>
      </trkpt>
      <trkpt lat="49.65021" lon="4.74517">
        <ele>276</ele>
        <time>2022-04-03T07:27:13.000Z</time>
      </trkpt>
      <trkpt lat="49.65022" lon="4.74511">
        <ele>276</ele>
        <time>2022-04-03T07:27:14.000Z</time>
      </trkpt>
      <trkpt lat="49.65023" lon="4.74504">
        <ele>277</ele>
        <time>2022-04-03T07:27:15.000Z</time>
      </trkpt>
      <trkpt lat="49.65024" lon="4.74499">
        <ele>277</ele>
        <time>2022-04-03T07:27:16.000Z</time>
      </trkpt>
      <trkpt lat="49.65026" lon="4.74495">
        <ele>277</ele>
        <time>2022-04-03T07:27:17.000Z</time>
      </trkpt>
      <trkpt lat="49.65027" lon="4.74492">
        <ele>277</ele>
        <time>2022-04-03T07:27:18.000Z</time>
      </trkpt>
      <trkpt lat="49.65029" lon="4.74489">
        <ele>277</ele>
        <time>2022-04-03T07:27:19.000Z</time>
      </trkpt>
      <trkpt lat="49.6503" lon="4.74485">
        <ele>278</ele>
        <time>2022-04-03T07:27:20.000Z</time>
      </trkpt>
      <trkpt lat="49.6503" lon="4.74481">
        <ele>278</ele>
        <time>2022-04-03T07:27:21.000Z</time>
      </trkpt>
      <trkpt lat="49.6503" lon="4.74481">
        <ele>278</ele>
        <time>2022-04-03T07:27:22.000Z</time>
      </trkpt>
      <trkpt lat="49.65031" lon="4.74476">
        <ele>278</ele>
        <time>2022-04-03T07:27:23.000Z</time>
      </trkpt>
      <trkpt lat="49.65031" lon="4.74471">
        <ele>278</ele>
        <time>2022-04-03T07:27:24.000Z</time>
      </trkpt>
      <trkpt lat="49.65031" lon="4.74468">
        <ele>278</ele>
        <time>2022-04-03T07:27:25.000Z</time>
      </trkpt>
      <trkpt lat="49.65031" lon="4.74464">
        <ele>278</ele>
        <time>2022-04-03T07:27:26.000Z</time>
      </trkpt>
      <trkpt lat="49.65031" lon="4.7446">
        <ele>278</ele>
        <time>2022-04-03T07:27:27.000Z</time>
      </trkpt>
      <trkpt lat="49.6503" lon="4.74455">
        <ele>278</ele>
        <time>2022-04-03T07:27:28.000Z</time>
      </trkpt>
      <trkpt lat="49.65029" lon="4.7445">
        <ele>279</ele>
        <time>2022-04-03T07:27:29.000Z</time>
      </trkpt>
      <trkpt lat="49.65028" lon="4.74441">
        <ele>279</ele>
        <time>2022-04-03T07:27:30.000Z</time>
      </trkpt>
      <trkpt lat="49.65027" lon="4.74437">
        <ele>279</ele>
        <time>2022-04-03T07:27:31.000Z</time>
      </trkpt>
      <trkpt lat="49.65026" lon="4.74433">
        <ele>279</ele>
        <time>2022-04-03T07:27:32.000Z</time>
      </trkpt>
      <trkpt lat="49.65024" lon="4.7443">
        <ele>280</ele>
        <time>2022-04-03T07:27:33.000Z</time>
      </trkpt>
      <trkpt lat="49.65023" lon="4.74427">
        <ele>280</ele>
        <time>2022-04-03T07:27:34.000Z</time>
      </trkpt>
      <trkpt lat="49.65021" lon="4.74424">
        <ele>280</ele>
        <time>2022-04-03T07:27:35.000Z</time>
      </trkpt>
      <trkpt lat="49.65019" lon="4.74422">
        <ele>281</ele>
        <time>2022-04-03T07:27:36.000Z</time>
      </trkpt>
      <trkpt lat="49.65016" lon="4.7442">
        <ele>281</ele>
        <time>2022-04-03T07:27:37.000Z</time>
      </trkpt>
      <trkpt lat="49.65014" lon="4.74418">
        <ele>281</ele>
        <time>2022-04-03T07:27:38.000Z</time>
      </trkpt>
      <trkpt lat="49.65011" lon="4.74416">
        <ele>281</ele>
        <time>2022-04-03T07:27:39.000Z</time>
      </trkpt>
      <trkpt lat="49.65008" lon="4.74414">
        <ele>282</ele>
        <time>2022-04-03T07:27:40.000Z</time>
      </trkpt>
      <trkpt lat="49.65006" lon="4.74411">
        <ele>282</ele>
        <time>2022-04-03T07:27:41.000Z</time>
      </trkpt>
      <trkpt lat="49.65004" lon="4.74408">
        <ele>283</ele>
        <time>2022-04-03T07:27:42.000Z</time>
      </trkpt>
      <trkpt lat="49.65001" lon="4.74406">
        <ele>283</ele>
        <time>2022-04-03T07:27:43.000Z</time>
      </trkpt>
      <trkpt lat="49.65001" lon="4.74406">
        <ele>283</ele>
        <time>2022-04-03T07:27:44.000Z</time>
      </trkpt>
      <trkpt lat="49.64999" lon="4.74403">
        <ele>283</ele>
        <time>2022-04-03T07:27:45.000Z</time>
      </trkpt>
      <trkpt lat="49.64996" lon="4.74401">
        <ele>283</ele>
        <time>2022-04-03T07:27:46.000Z</time>
      </trkpt>
      <trkpt lat="49.64993" lon="4.74399">
        <ele>284</ele>
        <time>2022-04-03T07:27:47.000Z</time>
      </trkpt>
      <trkpt lat="49.6499" lon="4.74398">
        <ele>284</ele>
        <time>2022-04-03T07:27:48.000Z</time>
      </trkpt>
      <trkpt lat="49.64987" lon="4.74397">
        <ele>284</ele>
        <time>2022-04-03T07:27:49.000Z</time>
      </trkpt>
      <trkpt lat="49.64985" lon="4.74396">
        <ele>284</ele>
        <time>2022-04-03T07:27:50.000Z</time>
      </trkpt>
      <trkpt lat="49.64979" lon="4.74395">
        <ele>285</ele>
        <time>2022-04-03T07:27:51.000Z</time>
      </trkpt>
      <trkpt lat="49.64976" lon="4.74395">
        <ele>285</ele>
        <time>2022-04-03T07:27:52.000Z</time>
      </trkpt>
      <trkpt lat="49.64973" lon="4.74395">
        <ele>285</ele>
        <time>2022-04-03T07:27:53.000Z</time>
      </trkpt>
      <trkpt lat="49.6497" lon="4.74396">
        <ele>285</ele>
        <time>2022-04-03T07:27:54.000Z</time>
      </trkpt>
      <trkpt lat="49.64967" lon="4.74398">
        <ele>285</ele>
        <time>2022-04-03T07:27:55.000Z</time>
      </trkpt>
      <trkpt lat="49.64965" lon="4.74401">
        <ele>285</ele>
        <time>2022-04-03T07:27:56.000Z</time>
      </trkpt>
      <trkpt lat="49.64962" lon="4.74403">
        <ele>285</ele>
        <time>2022-04-03T07:27:57.000Z</time>
      </trkpt>
      <trkpt lat="49.6496" lon="4.74406">
        <ele>285</ele>
        <time>2022-04-03T07:27:58.000Z</time>
      </trkpt>
      <trkpt lat="49.64958" lon="4.74409">
        <ele>285</ele>
        <time>2022-04-03T07:27:59.000Z</time>
      </trkpt>
      <trkpt lat="49.64955" lon="4.74412">
        <ele>285</ele>
        <time>2022-04-03T07:28:00.000Z</time>
      </trkpt>
      <trkpt lat="49.64953" lon="4.74415">
        <ele>285</ele>
        <time>2022-04-03T07:28:01.000Z</time>
      </trkpt>
      <trkpt lat="49.64951" lon="4.74417">
        <ele>286</ele>
        <time>2022-04-03T07:28:02.000Z</time>
      </trkpt>
      <trkpt lat="49.6495" lon="4.7442">
        <ele>286</ele>
        <time>2022-04-03T07:28:03.000Z</time>
      </trkpt>
      <trkpt lat="49.64948" lon="4.74422">
        <ele>286</ele>
        <time>2022-04-03T07:28:04.000Z</time>
      </trkpt>
      <trkpt lat="49.64946" lon="4.74425">
        <ele>286</ele>
        <time>2022-04-03T07:28:05.000Z</time>
      </trkpt>
      <trkpt lat="49.64944" lon="4.74428">
        <ele>286</ele>
        <time>2022-04-03T07:28:06.000Z</time>
      </trkpt>
      <trkpt lat="49.64942" lon="4.74431">
        <ele>286</ele>
        <time>2022-04-03T07:28:07.000Z</time>
      </trkpt>
      <trkpt lat="49.6494" lon="4.74433">
        <ele>286</ele>
        <time>2022-04-03T07:28:08.000Z</time>
      </trkpt>
      <trkpt lat="49.64939" lon="4.74436">
        <ele>286</ele>
        <time>2022-04-03T07:28:09.000Z</time>
      </trkpt>
      <trkpt lat="49.64937" lon="4.74438">
        <ele>286</ele>
        <time>2022-04-03T07:28:10.000Z</time>
      </trkpt>
      <trkpt lat="49.64936" lon="4.74441">
        <ele>286</ele>
        <time>2022-04-03T07:28:11.000Z</time>
      </trkpt>
      <trkpt lat="49.64934" lon="4.74444">
        <ele>286</ele>
        <time>2022-04-03T07:28:12.000Z</time>
      </trkpt>
      <trkpt lat="49.64932" lon="4.74447">
        <ele>287</ele>
        <time>2022-04-03T07:28:13.000Z</time>
      </trkpt>
      <trkpt lat="49.64931" lon="4.7445">
        <ele>287</ele>
        <time>2022-04-03T07:28:14.000Z</time>
      </trkpt>
      <trkpt lat="49.64929" lon="4.74452">
        <ele>287</ele>
        <time>2022-04-03T07:28:15.000Z</time>
      </trkpt>
      <trkpt lat="49.64927" lon="4.74455">
        <ele>287</ele>
        <time>2022-04-03T07:28:16.000Z</time>
      </trkpt>
      <trkpt lat="49.64926" lon="4.74457">
        <ele>288</ele>
        <time>2022-04-03T07:28:17.000Z</time>
      </trkpt>
      <trkpt lat="49.64925" lon="4.7446">
        <ele>288</ele>
        <time>2022-04-03T07:28:18.000Z</time>
      </trkpt>
      <trkpt lat="49.64923" lon="4.74461">
        <ele>288</ele>
        <time>2022-04-03T07:28:19.000Z</time>
      </trkpt>
      <trkpt lat="49.64922" lon="4.74463">
        <ele>289</ele>
        <time>2022-04-03T07:28:20.000Z</time>
      </trkpt>
      <trkpt lat="49.64921" lon="4.74465">
        <ele>289</ele>
        <time>2022-04-03T07:28:21.000Z</time>
      </trkpt>
      <trkpt lat="49.64919" lon="4.74467">
        <ele>289</ele>
        <time>2022-04-03T07:28:22.000Z</time>
      </trkpt>
      <trkpt lat="49.64917" lon="4.74469">
        <ele>289</ele>
        <time>2022-04-03T07:28:23.000Z</time>
      </trkpt>
      <trkpt lat="49.64916" lon="4.7447">
        <ele>289</ele>
        <time>2022-04-03T07:28:24.000Z</time>
      </trkpt>
      <trkpt lat="49.64915" lon="4.74472">
        <ele>289</ele>
        <time>2022-04-03T07:28:25.000Z</time>
      </trkpt>
      <trkpt lat="49.64913" lon="4.74473">
        <ele>289</ele>
        <time>2022-04-03T07:28:26.000Z</time>
      </trkpt>
      <trkpt lat="49.64912" lon="4.74475">
        <ele>289</ele>
        <time>2022-04-03T07:28:27.000Z</time>
      </trkpt>
      <trkpt lat="49.6491" lon="4.74476">
        <ele>289</ele>
        <time>2022-04-03T07:28:28.000Z</time>
      </trkpt>
      <trkpt lat="49.64909" lon="4.74477">
        <ele>290</ele>
        <time>2022-04-03T07:28:29.000Z</time>
      </trkpt>
      <trkpt lat="49.64907" lon="4.74478">
        <ele>290</ele>
        <time>2022-04-03T07:28:30.000Z</time>
      </trkpt>
      <trkpt lat="49.64905" lon="4.74479">
        <ele>290</ele>
        <time>2022-04-03T07:28:31.000Z</time>
      </trkpt>
      <trkpt lat="49.64903" lon="4.7448">
        <ele>290</ele>
        <time>2022-04-03T07:28:32.000Z</time>
      </trkpt>
      <trkpt lat="49.64902" lon="4.74482">
        <ele>290</ele>
        <time>2022-04-03T07:28:33.000Z</time>
      </trkpt>
      <trkpt lat="49.649" lon="4.74483">
        <ele>290</ele>
        <time>2022-04-03T07:28:34.000Z</time>
      </trkpt>
      <trkpt lat="49.64899" lon="4.74484">
        <ele>291</ele>
        <time>2022-04-03T07:28:35.000Z</time>
      </trkpt>
      <trkpt lat="49.64897" lon="4.74484">
        <ele>291</ele>
        <time>2022-04-03T07:28:36.000Z</time>
      </trkpt>
      <trkpt lat="49.64896" lon="4.74485">
        <ele>291</ele>
        <time>2022-04-03T07:28:37.000Z</time>
      </trkpt>
      <trkpt lat="49.64894" lon="4.74487">
        <ele>291</ele>
        <time>2022-04-03T07:28:38.000Z</time>
      </trkpt>
      <trkpt lat="49.64893" lon="4.74488">
        <ele>292</ele>
        <time>2022-04-03T07:28:39.000Z</time>
      </trkpt>
      <trkpt lat="49.64891" lon="4.74488">
        <ele>292</ele>
        <time>2022-04-03T07:28:40.000Z</time>
      </trkpt>
      <trkpt lat="49.6489" lon="4.74489">
        <ele>292</ele>
        <time>2022-04-03T07:28:41.000Z</time>
      </trkpt>
      <trkpt lat="49.64889" lon="4.7449">
        <ele>293</ele>
        <time>2022-04-03T07:28:42.000Z</time>
      </trkpt>
      <trkpt lat="49.64888" lon="4.74491">
        <ele>293</ele>
        <time>2022-04-03T07:28:43.000Z</time>
      </trkpt>
      <trkpt lat="49.64886" lon="4.74492">
        <ele>293</ele>
        <time>2022-04-03T07:28:44.000Z</time>
      </trkpt>
      <trkpt lat="49.64884" lon="4.74494">
        <ele>293</ele>
        <time>2022-04-03T07:28:45.000Z</time>
      </trkpt>
      <trkpt lat="49.64882" lon="4.74496">
        <ele>293</ele>
        <time>2022-04-03T07:28:46.000Z</time>
      </trkpt>
      <trkpt lat="49.64879" lon="4.74498">
        <ele>294</ele>
        <time>2022-04-03T07:28:47.000Z</time>
      </trkpt>
      <trkpt lat="49.64877" lon="4.74499">
        <ele>294</ele>
        <time>2022-04-03T07:28:48.000Z</time>
      </trkpt>
      <trkpt lat="49.64876" lon="4.74501">
        <ele>294</ele>
        <time>2022-04-03T07:28:49.000Z</time>
      </trkpt>
      <trkpt lat="49.64873" lon="4.74503">
        <ele>294</ele>
        <time>2022-04-03T07:28:50.000Z</time>
      </trkpt>
      <trkpt lat="49.64871" lon="4.74504">
        <ele>295</ele>
        <time>2022-04-03T07:28:51.000Z</time>
      </trkpt>
      <trkpt lat="49.6487" lon="4.74505">
        <ele>295</ele>
        <time>2022-04-03T07:28:52.000Z</time>
      </trkpt>
      <trkpt lat="49.64868" lon="4.74507">
        <ele>295</ele>
        <time>2022-04-03T07:28:53.000Z</time>
      </trkpt>
      <trkpt lat="49.64866" lon="4.74508">
        <ele>295</ele>
        <time>2022-04-03T07:28:54.000Z</time>
      </trkpt>
      <trkpt lat="49.64863" lon="4.7451">
        <ele>296</ele>
        <time>2022-04-03T07:28:55.000Z</time>
      </trkpt>
      <trkpt lat="49.64861" lon="4.74511">
        <ele>296</ele>
        <time>2022-04-03T07:28:56.000Z</time>
      </trkpt>
      <trkpt lat="49.64859" lon="4.74512">
        <ele>296</ele>
        <time>2022-04-03T07:28:57.000Z</time>
      </trkpt>
      <trkpt lat="49.64857" lon="4.74513">
        <ele>296</ele>
        <time>2022-04-03T07:28:58.000Z</time>
      </trkpt>
      <trkpt lat="49.64855" lon="4.74513">
        <ele>297</ele>
        <time>2022-04-03T07:28:59.000Z</time>
      </trkpt>
      <trkpt lat="49.64853" lon="4.74515">
        <ele>297</ele>
        <time>2022-04-03T07:29:00.000Z</time>
      </trkpt>
      <trkpt lat="49.6485" lon="4.74516">
        <ele>297</ele>
        <time>2022-04-03T07:29:01.000Z</time>
      </trkpt>
      <trkpt lat="49.64847" lon="4.74518">
        <ele>297</ele>
        <time>2022-04-03T07:29:02.000Z</time>
      </trkpt>
      <trkpt lat="49.64845" lon="4.74519">
        <ele>298</ele>
        <time>2022-04-03T07:29:03.000Z</time>
      </trkpt>
      <trkpt lat="49.64842" lon="4.74521">
        <ele>298</ele>
        <time>2022-04-03T07:29:04.000Z</time>
      </trkpt>
      <trkpt lat="49.64839" lon="4.74523">
        <ele>298</ele>
        <time>2022-04-03T07:29:05.000Z</time>
      </trkpt>
      <trkpt lat="49.64836" lon="4.74524">
        <ele>298</ele>
        <time>2022-04-03T07:29:06.000Z</time>
      </trkpt>
      <trkpt lat="49.64834" lon="4.74525">
        <ele>298</ele>
        <time>2022-04-03T07:29:07.000Z</time>
      </trkpt>
      <trkpt lat="49.64831" lon="4.74527">
        <ele>299</ele>
        <time>2022-04-03T07:29:08.000Z</time>
      </trkpt>
      <trkpt lat="49.64829" lon="4.74528">
        <ele>299</ele>
        <time>2022-04-03T07:29:09.000Z</time>
      </trkpt>
      <trkpt lat="49.64827" lon="4.7453">
        <ele>299</ele>
        <time>2022-04-03T07:29:10.000Z</time>
      </trkpt>
      <trkpt lat="49.64824" lon="4.74531">
        <ele>299</ele>
        <time>2022-04-03T07:29:11.000Z</time>
      </trkpt>
      <trkpt lat="49.64822" lon="4.74534">
        <ele>300</ele>
        <time>2022-04-03T07:29:12.000Z</time>
      </trkpt>
      <trkpt lat="49.64819" lon="4.74536">
        <ele>300</ele>
        <time>2022-04-03T07:29:13.000Z</time>
      </trkpt>
      <trkpt lat="49.64817" lon="4.74538">
        <ele>300</ele>
        <time>2022-04-03T07:29:14.000Z</time>
      </trkpt>
      <trkpt lat="49.64815" lon="4.7454">
        <ele>300</ele>
        <time>2022-04-03T07:29:15.000Z</time>
      </trkpt>
      <trkpt lat="49.64813" lon="4.74543">
        <ele>301</ele>
        <time>2022-04-03T07:29:16.000Z</time>
      </trkpt>
      <trkpt lat="49.64811" lon="4.74546">
        <ele>301</ele>
        <time>2022-04-03T07:29:17.000Z</time>
      </trkpt>
      <trkpt lat="49.64809" lon="4.74549">
        <ele>301</ele>
        <time>2022-04-03T07:29:18.000Z</time>
      </trkpt>
      <trkpt lat="49.64807" lon="4.74552">
        <ele>302</ele>
        <time>2022-04-03T07:29:19.000Z</time>
      </trkpt>
      <trkpt lat="49.64805" lon="4.74554">
        <ele>302</ele>
        <time>2022-04-03T07:29:20.000Z</time>
      </trkpt>
      <trkpt lat="49.64803" lon="4.74557">
        <ele>302</ele>
        <time>2022-04-03T07:29:21.000Z</time>
      </trkpt>
      <trkpt lat="49.64801" lon="4.7456">
        <ele>303</ele>
        <time>2022-04-03T07:29:22.000Z</time>
      </trkpt>
      <trkpt lat="49.64799" lon="4.74562">
        <ele>303</ele>
        <time>2022-04-03T07:29:23.000Z</time>
      </trkpt>
      <trkpt lat="49.64798" lon="4.74564">
        <ele>304</ele>
        <time>2022-04-03T07:29:24.000Z</time>
      </trkpt>
      <trkpt lat="49.64796" lon="4.74567">
        <ele>304</ele>
        <time>2022-04-03T07:29:25.000Z</time>
      </trkpt>
      <trkpt lat="49.64795" lon="4.74568">
        <ele>304</ele>
        <time>2022-04-03T07:29:26.000Z</time>
      </trkpt>
      <trkpt lat="49.64794" lon="4.74571">
        <ele>305</ele>
        <time>2022-04-03T07:29:27.000Z</time>
      </trkpt>
      <trkpt lat="49.64793" lon="4.74574">
        <ele>305</ele>
        <time>2022-04-03T07:29:28.000Z</time>
      </trkpt>
      <trkpt lat="49.64792" lon="4.74576">
        <ele>305</ele>
        <time>2022-04-03T07:29:29.000Z</time>
      </trkpt>
      <trkpt lat="49.64793" lon="4.74579">
        <ele>305</ele>
        <time>2022-04-03T07:29:30.000Z</time>
      </trkpt>
      <trkpt lat="49.64793" lon="4.74581">
        <ele>305</ele>
        <time>2022-04-03T07:29:31.000Z</time>
      </trkpt>
      <trkpt lat="49.64794" lon="4.74585">
        <ele>305</ele>
        <time>2022-04-03T07:29:32.000Z</time>
      </trkpt>
      <trkpt lat="49.64795" lon="4.74589">
        <ele>305</ele>
        <time>2022-04-03T07:29:33.000Z</time>
      </trkpt>
      <trkpt lat="49.64796" lon="4.74593">
        <ele>305</ele>
        <time>2022-04-03T07:29:34.000Z</time>
      </trkpt>
      <trkpt lat="49.64796" lon="4.74597">
        <ele>306</ele>
        <time>2022-04-03T07:29:35.000Z</time>
      </trkpt>
      <trkpt lat="49.64796" lon="4.746">
        <ele>306</ele>
        <time>2022-04-03T07:29:36.000Z</time>
      </trkpt>
      <trkpt lat="49.64797" lon="4.74604">
        <ele>306</ele>
        <time>2022-04-03T07:29:37.000Z</time>
      </trkpt>
      <trkpt lat="49.64797" lon="4.74608">
        <ele>306</ele>
        <time>2022-04-03T07:29:38.000Z</time>
      </trkpt>
      <trkpt lat="49.64798" lon="4.74612">
        <ele>306</ele>
        <time>2022-04-03T07:29:39.000Z</time>
      </trkpt>
      <trkpt lat="49.64799" lon="4.74617">
        <ele>306</ele>
        <time>2022-04-03T07:29:40.000Z</time>
      </trkpt>
      <trkpt lat="49.648" lon="4.74621">
        <ele>306</ele>
        <time>2022-04-03T07:29:41.000Z</time>
      </trkpt>
      <trkpt lat="49.64801" lon="4.74625">
        <ele>306</ele>
        <time>2022-04-03T07:29:42.000Z</time>
      </trkpt>
      <trkpt lat="49.64802" lon="4.7463">
        <ele>306</ele>
        <time>2022-04-03T07:29:43.000Z</time>
      </trkpt>
      <trkpt lat="49.64803" lon="4.74635">
        <ele>306</ele>
        <time>2022-04-03T07:29:44.000Z</time>
      </trkpt>
      <trkpt lat="49.64805" lon="4.7464">
        <ele>306</ele>
        <time>2022-04-03T07:29:45.000Z</time>
      </trkpt>
      <trkpt lat="49.64806" lon="4.74646">
        <ele>306</ele>
        <time>2022-04-03T07:29:46.000Z</time>
      </trkpt>
      <trkpt lat="49.64807" lon="4.74652">
        <ele>306</ele>
        <time>2022-04-03T07:29:47.000Z</time>
      </trkpt>
      <trkpt lat="49.64807" lon="4.74657">
        <ele>306</ele>
        <time>2022-04-03T07:29:48.000Z</time>
      </trkpt>
      <trkpt lat="49.64808" lon="4.74662">
        <ele>306</ele>
        <time>2022-04-03T07:29:49.000Z</time>
      </trkpt>
      <trkpt lat="49.64809" lon="4.74667">
        <ele>306</ele>
        <time>2022-04-03T07:29:50.000Z</time>
      </trkpt>
      <trkpt lat="49.6481" lon="4.74673">
        <ele>306</ele>
        <time>2022-04-03T07:29:51.000Z</time>
      </trkpt>
      <trkpt lat="49.64811" lon="4.74678">
        <ele>306</ele>
        <time>2022-04-03T07:29:52.000Z</time>
      </trkpt>
      <trkpt lat="49.64811" lon="4.74684">
        <ele>307</ele>
        <time>2022-04-03T07:29:53.000Z</time>
      </trkpt>
      <trkpt lat="49.64813" lon="4.74689">
        <ele>307</ele>
        <time>2022-04-03T07:29:54.000Z</time>
      </trkpt>
      <trkpt lat="49.64814" lon="4.74695">
        <ele>307</ele>
        <time>2022-04-03T07:29:55.000Z</time>
      </trkpt>
      <trkpt lat="49.64815" lon="4.74702">
        <ele>306</ele>
        <time>2022-04-03T07:29:56.000Z</time>
      </trkpt>
      <trkpt lat="49.64816" lon="4.74707">
        <ele>306</ele>
        <time>2022-04-03T07:29:57.000Z</time>
      </trkpt>
      <trkpt lat="49.64817" lon="4.74712">
        <ele>306</ele>
        <time>2022-04-03T07:29:58.000Z</time>
      </trkpt>
      <trkpt lat="49.64819" lon="4.74718">
        <ele>306</ele>
        <time>2022-04-03T07:29:59.000Z</time>
      </trkpt>
      <trkpt lat="49.6482" lon="4.74724">
        <ele>306</ele>
        <time>2022-04-03T07:30:00.000Z</time>
      </trkpt>
      <trkpt lat="49.64822" lon="4.74729">
        <ele>306</ele>
        <time>2022-04-03T07:30:01.000Z</time>
      </trkpt>
      <trkpt lat="49.64822" lon="4.74735">
        <ele>306</ele>
        <time>2022-04-03T07:30:02.000Z</time>
      </trkpt>
      <trkpt lat="49.64823" lon="4.74741">
        <ele>306</ele>
        <time>2022-04-03T07:30:03.000Z</time>
      </trkpt>
      <trkpt lat="49.64824" lon="4.74747">
        <ele>306</ele>
        <time>2022-04-03T07:30:04.000Z</time>
      </trkpt>
      <trkpt lat="49.64824" lon="4.74753">
        <ele>306</ele>
        <time>2022-04-03T07:30:05.000Z</time>
      </trkpt>
      <trkpt lat="49.64823" lon="4.74759">
        <ele>306</ele>
        <time>2022-04-03T07:30:06.000Z</time>
      </trkpt>
      <trkpt lat="49.64821" lon="4.74763">
        <ele>306</ele>
        <time>2022-04-03T07:30:07.000Z</time>
      </trkpt>
      <trkpt lat="49.64818" lon="4.74765">
        <ele>306</ele>
        <time>2022-04-03T07:30:08.000Z</time>
      </trkpt>
      <trkpt lat="49.64815" lon="4.74766">
        <ele>306</ele>
        <time>2022-04-03T07:30:09.000Z</time>
      </trkpt>
      <trkpt lat="49.64812" lon="4.74768">
        <ele>306</ele>
        <time>2022-04-03T07:30:10.000Z</time>
      </trkpt>
      <trkpt lat="49.64809" lon="4.74769">
        <ele>306</ele>
        <time>2022-04-03T07:30:11.000Z</time>
      </trkpt>
      <trkpt lat="49.64805" lon="4.74771">
        <ele>306</ele>
        <time>2022-04-03T07:30:12.000Z</time>
      </trkpt>
      <trkpt lat="49.64802" lon="4.74773">
        <ele>306</ele>
        <time>2022-04-03T07:30:13.000Z</time>
      </trkpt>
      <trkpt lat="49.64798" lon="4.74775">
        <ele>306</ele>
        <time>2022-04-03T07:30:14.000Z</time>
      </trkpt>
      <trkpt lat="49.64795" lon="4.74777">
        <ele>306</ele>
        <time>2022-04-03T07:30:15.000Z</time>
      </trkpt>
      <trkpt lat="49.64791" lon="4.74779">
        <ele>306</ele>
        <time>2022-04-03T07:30:16.000Z</time>
      </trkpt>
      <trkpt lat="49.64788" lon="4.7478">
        <ele>306</ele>
        <time>2022-04-03T07:30:17.000Z</time>
      </trkpt>
      <trkpt lat="49.64784" lon="4.74781">
        <ele>306</ele>
        <time>2022-04-03T07:30:18.000Z</time>
      </trkpt>
      <trkpt lat="49.64779" lon="4.74782">
        <ele>306</ele>
        <time>2022-04-03T07:30:19.000Z</time>
      </trkpt>
      <trkpt lat="49.64775" lon="4.74783">
        <ele>306</ele>
        <time>2022-04-03T07:30:20.000Z</time>
      </trkpt>
      <trkpt lat="49.64771" lon="4.74785">
        <ele>306</ele>
        <time>2022-04-03T07:30:21.000Z</time>
      </trkpt>
      <trkpt lat="49.64767" lon="4.74787">
        <ele>306</ele>
        <time>2022-04-03T07:30:22.000Z</time>
      </trkpt>
      <trkpt lat="49.64762" lon="4.7479">
        <ele>306</ele>
        <time>2022-04-03T07:30:23.000Z</time>
      </trkpt>
      <trkpt lat="49.64758" lon="4.74792">
        <ele>306</ele>
        <time>2022-04-03T07:30:24.000Z</time>
      </trkpt>
      <trkpt lat="49.64753" lon="4.74794">
        <ele>306</ele>
        <time>2022-04-03T07:30:25.000Z</time>
      </trkpt>
      <trkpt lat="49.64748" lon="4.74796">
        <ele>306</ele>
        <time>2022-04-03T07:30:26.000Z</time>
      </trkpt>
      <trkpt lat="49.64743" lon="4.74797">
        <ele>306</ele>
        <time>2022-04-03T07:30:27.000Z</time>
      </trkpt>
      <trkpt lat="49.64739" lon="4.74799">
        <ele>306</ele>
        <time>2022-04-03T07:30:28.000Z</time>
      </trkpt>
      <trkpt lat="49.64734" lon="4.748">
        <ele>306</ele>
        <time>2022-04-03T07:30:29.000Z</time>
      </trkpt>
      <trkpt lat="49.6473" lon="4.74802">
        <ele>306</ele>
        <time>2022-04-03T07:30:30.000Z</time>
      </trkpt>
      <trkpt lat="49.64725" lon="4.74805">
        <ele>306</ele>
        <time>2022-04-03T07:30:31.000Z</time>
      </trkpt>
      <trkpt lat="49.6472" lon="4.74807">
        <ele>306</ele>
        <time>2022-04-03T07:30:32.000Z</time>
      </trkpt>
      <trkpt lat="49.64715" lon="4.7481">
        <ele>306</ele>
        <time>2022-04-03T07:30:33.000Z</time>
      </trkpt>
      <trkpt lat="49.64709" lon="4.74813">
        <ele>306</ele>
        <time>2022-04-03T07:30:34.000Z</time>
      </trkpt>
      <trkpt lat="49.64703" lon="4.74816">
        <ele>306</ele>
        <time>2022-04-03T07:30:35.000Z</time>
      </trkpt>
      <trkpt lat="49.64697" lon="4.74819">
        <ele>306</ele>
        <time>2022-04-03T07:30:36.000Z</time>
      </trkpt>
      <trkpt lat="49.6469" lon="4.74822">
        <ele>306</ele>
        <time>2022-04-03T07:30:37.000Z</time>
      </trkpt>
      <trkpt lat="49.64684" lon="4.74826">
        <ele>306</ele>
        <time>2022-04-03T07:30:38.000Z</time>
      </trkpt>
      <trkpt lat="49.64679" lon="4.74828">
        <ele>306</ele>
        <time>2022-04-03T07:30:39.000Z</time>
      </trkpt>
      <trkpt lat="49.64673" lon="4.74831">
        <ele>306</ele>
        <time>2022-04-03T07:30:40.000Z</time>
      </trkpt>
      <trkpt lat="49.64668" lon="4.74833">
        <ele>306</ele>
        <time>2022-04-03T07:30:41.000Z</time>
      </trkpt>
      <trkpt lat="49.64662" lon="4.74835">
        <ele>306</ele>
        <time>2022-04-03T07:30:42.000Z</time>
      </trkpt>
      <trkpt lat="49.64657" lon="4.74838">
        <ele>306</ele>
        <time>2022-04-03T07:30:43.000Z</time>
      </trkpt>
      <trkpt lat="49.64651" lon="4.7484">
        <ele>306</ele>
        <time>2022-04-03T07:30:44.000Z</time>
      </trkpt>
      <trkpt lat="49.64645" lon="4.74843">
        <ele>306</ele>
        <time>2022-04-03T07:30:45.000Z</time>
      </trkpt>
      <trkpt lat="49.64639" lon="4.74845">
        <ele>306</ele>
        <time>2022-04-03T07:30:46.000Z</time>
      </trkpt>
      <trkpt lat="49.64634" lon="4.74848">
        <ele>306</ele>
        <time>2022-04-03T07:30:47.000Z</time>
      </trkpt>
      <trkpt lat="49.64628" lon="4.74851">
        <ele>305</ele>
        <time>2022-04-03T07:30:48.000Z</time>
      </trkpt>
      <trkpt lat="49.64622" lon="4.74853">
        <ele>305</ele>
        <time>2022-04-03T07:30:49.000Z</time>
      </trkpt>
      <trkpt lat="49.64617" lon="4.74855">
        <ele>305</ele>
        <time>2022-04-03T07:30:50.000Z</time>
      </trkpt>
      <trkpt lat="49.64612" lon="4.74858">
        <ele>305</ele>
        <time>2022-04-03T07:30:51.000Z</time>
      </trkpt>
      <trkpt lat="49.64606" lon="4.74861">
        <ele>304</ele>
        <time>2022-04-03T07:30:52.000Z</time>
      </trkpt>
      <trkpt lat="49.646" lon="4.74864">
        <ele>304</ele>
        <time>2022-04-03T07:30:53.000Z</time>
      </trkpt>
      <trkpt lat="49.64594" lon="4.74866">
        <ele>304</ele>
        <time>2022-04-03T07:30:54.000Z</time>
      </trkpt>
      <trkpt lat="49.64588" lon="4.74869">
        <ele>303</ele>
        <time>2022-04-03T07:30:55.000Z</time>
      </trkpt>
      <trkpt lat="49.64582" lon="4.74872">
        <ele>303</ele>
        <time>2022-04-03T07:30:56.000Z</time>
      </trkpt>
      <trkpt lat="49.64577" lon="4.74875">
        <ele>303</ele>
        <time>2022-04-03T07:30:57.000Z</time>
      </trkpt>
      <trkpt lat="49.64573" lon="4.74878">
        <ele>303</ele>
        <time>2022-04-03T07:30:58.000Z</time>
      </trkpt>
      <trkpt lat="49.64569" lon="4.74881">
        <ele>302</ele>
        <time>2022-04-03T07:30:59.000Z</time>
      </trkpt>
      <trkpt lat="49.64566" lon="4.74885">
        <ele>302</ele>
        <time>2022-04-03T07:31:00.000Z</time>
      </trkpt>
      <trkpt lat="49.64565" lon="4.74887">
        <ele>302</ele>
        <time>2022-04-03T07:31:01.000Z</time>
      </trkpt>
      <trkpt lat="49.64564" lon="4.7489">
        <ele>301</ele>
        <time>2022-04-03T07:31:02.000Z</time>
      </trkpt>
      <trkpt lat="49.64564" lon="4.74892">
        <ele>301</ele>
        <time>2022-04-03T07:31:03.000Z</time>
      </trkpt>
      <trkpt lat="49.64564" lon="4.74894">
        <ele>300</ele>
        <time>2022-04-03T07:31:04.000Z</time>
      </trkpt>
      <trkpt lat="49.64565" lon="4.74895">
        <ele>299</ele>
        <time>2022-04-03T07:31:05.000Z</time>
      </trkpt>
      <trkpt lat="49.64565" lon="4.74898">
        <ele>299</ele>
        <time>2022-04-03T07:31:06.000Z</time>
      </trkpt>
      <trkpt lat="49.64565" lon="4.749">
        <ele>298</ele>
        <time>2022-04-03T07:31:07.000Z</time>
      </trkpt>
      <trkpt lat="49.64565" lon="4.74902">
        <ele>298</ele>
        <time>2022-04-03T07:31:08.000Z</time>
      </trkpt>
      <trkpt lat="49.64565" lon="4.74904">
        <ele>297</ele>
        <time>2022-04-03T07:31:09.000Z</time>
      </trkpt>
      <trkpt lat="49.64566" lon="4.74905">
        <ele>297</ele>
        <time>2022-04-03T07:31:10.000Z</time>
      </trkpt>
      <trkpt lat="49.64568" lon="4.74907">
        <ele>296</ele>
        <time>2022-04-03T07:31:11.000Z</time>
      </trkpt>
      <trkpt lat="49.64569" lon="4.74908">
        <ele>296</ele>
        <time>2022-04-03T07:31:12.000Z</time>
      </trkpt>
      <trkpt lat="49.6457" lon="4.74909">
        <ele>295</ele>
        <time>2022-04-03T07:31:13.000Z</time>
      </trkpt>
      <trkpt lat="49.64571" lon="4.74911">
        <ele>295</ele>
        <time>2022-04-03T07:31:14.000Z</time>
      </trkpt>
      <trkpt lat="49.64573" lon="4.74911">
        <ele>295</ele>
        <time>2022-04-03T07:31:15.000Z</time>
      </trkpt>
      <trkpt lat="49.64575" lon="4.74912">
        <ele>294</ele>
        <time>2022-04-03T07:31:16.000Z</time>
      </trkpt>
      <trkpt lat="49.64577" lon="4.74913">
        <ele>294</ele>
        <time>2022-04-03T07:31:17.000Z</time>
      </trkpt>
      <trkpt lat="49.64578" lon="4.74913">
        <ele>294</ele>
        <time>2022-04-03T07:31:18.000Z</time>
      </trkpt>
      <trkpt lat="49.6458" lon="4.74914">
        <ele>294</ele>
        <time>2022-04-03T07:31:19.000Z</time>
      </trkpt>
      <trkpt lat="49.64581" lon="4.74915">
        <ele>294</ele>
        <time>2022-04-03T07:31:20.000Z</time>
      </trkpt>
      <trkpt lat="49.64583" lon="4.74917">
        <ele>294</ele>
        <time>2022-04-03T07:31:21.000Z</time>
      </trkpt>
      <trkpt lat="49.64584" lon="4.74919">
        <ele>293</ele>
        <time>2022-04-03T07:31:22.000Z</time>
      </trkpt>
      <trkpt lat="49.64585" lon="4.74921">
        <ele>293</ele>
        <time>2022-04-03T07:31:23.000Z</time>
      </trkpt>
      <trkpt lat="49.64586" lon="4.74923">
        <ele>293</ele>
        <time>2022-04-03T07:31:24.000Z</time>
      </trkpt>
      <trkpt lat="49.64587" lon="4.74925">
        <ele>293</ele>
        <time>2022-04-03T07:31:25.000Z</time>
      </trkpt>
      <trkpt lat="49.64588" lon="4.74928">
        <ele>293</ele>
        <time>2022-04-03T07:31:26.000Z</time>
      </trkpt>
      <trkpt lat="49.64589" lon="4.7493">
        <ele>293</ele>
        <time>2022-04-03T07:31:27.000Z</time>
      </trkpt>
      <trkpt lat="49.64591" lon="4.74933">
        <ele>293</ele>
        <time>2022-04-03T07:31:28.000Z</time>
      </trkpt>
      <trkpt lat="49.64592" lon="4.74935">
        <ele>293</ele>
        <time>2022-04-03T07:31:29.000Z</time>
      </trkpt>
      <trkpt lat="49.64594" lon="4.74938">
        <ele>293</ele>
        <time>2022-04-03T07:31:30.000Z</time>
      </trkpt>
      <trkpt lat="49.64595" lon="4.7494">
        <ele>293</ele>
        <time>2022-04-03T07:31:31.000Z</time>
      </trkpt>
      <trkpt lat="49.64596" lon="4.74943">
        <ele>293</ele>
        <time>2022-04-03T07:31:32.000Z</time>
      </trkpt>
      <trkpt lat="49.64597" lon="4.74946">
        <ele>293</ele>
        <time>2022-04-03T07:31:33.000Z</time>
      </trkpt>
      <trkpt lat="49.64598" lon="4.74949">
        <ele>293</ele>
        <time>2022-04-03T07:31:34.000Z</time>
      </trkpt>
      <trkpt lat="49.646" lon="4.74952">
        <ele>293</ele>
        <time>2022-04-03T07:31:35.000Z</time>
      </trkpt>
      <trkpt lat="49.64602" lon="4.74955">
        <ele>293</ele>
        <time>2022-04-03T07:31:36.000Z</time>
      </trkpt>
      <trkpt lat="49.64603" lon="4.74958">
        <ele>293</ele>
        <time>2022-04-03T07:31:37.000Z</time>
      </trkpt>
      <trkpt lat="49.64605" lon="4.7496">
        <ele>293</ele>
        <time>2022-04-03T07:31:38.000Z</time>
      </trkpt>
      <trkpt lat="49.64605" lon="4.74962">
        <ele>293</ele>
        <time>2022-04-03T07:31:39.000Z</time>
      </trkpt>
      <trkpt lat="49.64606" lon="4.74964">
        <ele>293</ele>
        <time>2022-04-03T07:31:40.000Z</time>
      </trkpt>
      <trkpt lat="49.64607" lon="4.74967">
        <ele>293</ele>
        <time>2022-04-03T07:31:41.000Z</time>
      </trkpt>
      <trkpt lat="49.64608" lon="4.7497">
        <ele>293</ele>
        <time>2022-04-03T07:31:42.000Z</time>
      </trkpt>
      <trkpt lat="49.64609" lon="4.74972">
        <ele>293</ele>
        <time>2022-04-03T07:31:43.000Z</time>
      </trkpt>
      <trkpt lat="49.64612" lon="4.74975">
        <ele>293</ele>
        <time>2022-04-03T07:31:44.000Z</time>
      </trkpt>
      <trkpt lat="49.64614" lon="4.74977">
        <ele>293</ele>
        <time>2022-04-03T07:31:45.000Z</time>
      </trkpt>
      <trkpt lat="49.64615" lon="4.7498">
        <ele>293</ele>
        <time>2022-04-03T07:31:46.000Z</time>
      </trkpt>
      <trkpt lat="49.64617" lon="4.74982">
        <ele>293</ele>
        <time>2022-04-03T07:31:47.000Z</time>
      </trkpt>
      <trkpt lat="49.64619" lon="4.74985">
        <ele>294</ele>
        <time>2022-04-03T07:31:48.000Z</time>
      </trkpt>
      <trkpt lat="49.64621" lon="4.74989">
        <ele>294</ele>
        <time>2022-04-03T07:31:49.000Z</time>
      </trkpt>
      <trkpt lat="49.64623" lon="4.74992">
        <ele>294</ele>
        <time>2022-04-03T07:31:50.000Z</time>
      </trkpt>
      <trkpt lat="49.64626" lon="4.74995">
        <ele>294</ele>
        <time>2022-04-03T07:31:51.000Z</time>
      </trkpt>
      <trkpt lat="49.64628" lon="4.74999">
        <ele>294</ele>
        <time>2022-04-03T07:31:52.000Z</time>
      </trkpt>
      <trkpt lat="49.64631" lon="4.75003">
        <ele>294</ele>
        <time>2022-04-03T07:31:53.000Z</time>
      </trkpt>
      <trkpt lat="49.64633" lon="4.75007">
        <ele>294</ele>
        <time>2022-04-03T07:31:54.000Z</time>
      </trkpt>
      <trkpt lat="49.64636" lon="4.75011">
        <ele>295</ele>
        <time>2022-04-03T07:31:55.000Z</time>
      </trkpt>
      <trkpt lat="49.64638" lon="4.75014">
        <ele>295</ele>
        <time>2022-04-03T07:31:56.000Z</time>
      </trkpt>
      <trkpt lat="49.64642" lon="4.75018">
        <ele>295</ele>
        <time>2022-04-03T07:31:57.000Z</time>
      </trkpt>
      <trkpt lat="49.64645" lon="4.75022">
        <ele>295</ele>
        <time>2022-04-03T07:31:58.000Z</time>
      </trkpt>
      <trkpt lat="49.64648" lon="4.75025">
        <ele>295</ele>
        <time>2022-04-03T07:31:59.000Z</time>
      </trkpt>
      <trkpt lat="49.64651" lon="4.75029">
        <ele>295</ele>
        <time>2022-04-03T07:32:00.000Z</time>
      </trkpt>
      <trkpt lat="49.64654" lon="4.75033">
        <ele>295</ele>
        <time>2022-04-03T07:32:01.000Z</time>
      </trkpt>
      <trkpt lat="49.64657" lon="4.75037">
        <ele>295</ele>
        <time>2022-04-03T07:32:02.000Z</time>
      </trkpt>
      <trkpt lat="49.64659" lon="4.75041">
        <ele>295</ele>
        <time>2022-04-03T07:32:03.000Z</time>
      </trkpt>
      <trkpt lat="49.64661" lon="4.75046">
        <ele>295</ele>
        <time>2022-04-03T07:32:04.000Z</time>
      </trkpt>
      <trkpt lat="49.64663" lon="4.75051">
        <ele>295</ele>
        <time>2022-04-03T07:32:05.000Z</time>
      </trkpt>
      <trkpt lat="49.64666" lon="4.75057">
        <ele>295</ele>
        <time>2022-04-03T07:32:06.000Z</time>
      </trkpt>
      <trkpt lat="49.64669" lon="4.75065">
        <ele>294</ele>
        <time>2022-04-03T07:32:07.000Z</time>
      </trkpt>
      <trkpt lat="49.64672" lon="4.75073">
        <ele>294</ele>
        <time>2022-04-03T07:32:08.000Z</time>
      </trkpt>
      <trkpt lat="49.64675" lon="4.75081">
        <ele>294</ele>
        <time>2022-04-03T07:32:09.000Z</time>
      </trkpt>
      <trkpt lat="49.64678" lon="4.75089">
        <ele>294</ele>
        <time>2022-04-03T07:32:10.000Z</time>
      </trkpt>
      <trkpt lat="49.64681" lon="4.75096">
        <ele>294</ele>
        <time>2022-04-03T07:32:11.000Z</time>
      </trkpt>
      <trkpt lat="49.64685" lon="4.75105">
        <ele>293</ele>
        <time>2022-04-03T07:32:12.000Z</time>
      </trkpt>
      <trkpt lat="49.64689" lon="4.75113">
        <ele>293</ele>
        <time>2022-04-03T07:32:13.000Z</time>
      </trkpt>
      <trkpt lat="49.64693" lon="4.75121">
        <ele>293</ele>
        <time>2022-04-03T07:32:14.000Z</time>
      </trkpt>
      <trkpt lat="49.64697" lon="4.75129">
        <ele>292</ele>
        <time>2022-04-03T07:32:15.000Z</time>
      </trkpt>
      <trkpt lat="49.647" lon="4.75136">
        <ele>292</ele>
        <time>2022-04-03T07:32:16.000Z</time>
      </trkpt>
      <trkpt lat="49.64703" lon="4.75143">
        <ele>292</ele>
        <time>2022-04-03T07:32:17.000Z</time>
      </trkpt>
      <trkpt lat="49.64707" lon="4.75149">
        <ele>291</ele>
        <time>2022-04-03T07:32:18.000Z</time>
      </trkpt>
      <trkpt lat="49.64712" lon="4.75157">
        <ele>291</ele>
        <time>2022-04-03T07:32:19.000Z</time>
      </trkpt>
      <trkpt lat="49.64719" lon="4.75164">
        <ele>291</ele>
        <time>2022-04-03T07:32:20.000Z</time>
      </trkpt>
      <trkpt lat="49.64726" lon="4.75172">
        <ele>290</ele>
        <time>2022-04-03T07:32:21.000Z</time>
      </trkpt>
      <trkpt lat="49.64733" lon="4.7518">
        <ele>289</ele>
        <time>2022-04-03T07:32:22.000Z</time>
      </trkpt>
      <trkpt lat="49.6474" lon="4.75187">
        <ele>289</ele>
        <time>2022-04-03T07:32:23.000Z</time>
      </trkpt>
      <trkpt lat="49.64746" lon="4.75194">
        <ele>288</ele>
        <time>2022-04-03T07:32:24.000Z</time>
      </trkpt>
      <trkpt lat="49.64752" lon="4.75201">
        <ele>287</ele>
        <time>2022-04-03T07:32:25.000Z</time>
      </trkpt>
      <trkpt lat="49.64758" lon="4.75207">
        <ele>286</ele>
        <time>2022-04-03T07:32:26.000Z</time>
      </trkpt>
      <trkpt lat="49.64765" lon="4.75213">
        <ele>284</ele>
        <time>2022-04-03T07:32:27.000Z</time>
      </trkpt>
      <trkpt lat="49.64771" lon="4.7522">
        <ele>283</ele>
        <time>2022-04-03T07:32:28.000Z</time>
      </trkpt>
      <trkpt lat="49.64776" lon="4.75229">
        <ele>282</ele>
        <time>2022-04-03T07:32:29.000Z</time>
      </trkpt>
      <trkpt lat="49.6478" lon="4.75237">
        <ele>281</ele>
        <time>2022-04-03T07:32:30.000Z</time>
      </trkpt>
      <trkpt lat="49.64784" lon="4.75244">
        <ele>280</ele>
        <time>2022-04-03T07:32:31.000Z</time>
      </trkpt>
      <trkpt lat="49.64789" lon="4.75251">
        <ele>278</ele>
        <time>2022-04-03T07:32:32.000Z</time>
      </trkpt>
      <trkpt lat="49.64792" lon="4.75258">
        <ele>277</ele>
        <time>2022-04-03T07:32:33.000Z</time>
      </trkpt>
      <trkpt lat="49.64796" lon="4.75266">
        <ele>276</ele>
        <time>2022-04-03T07:32:34.000Z</time>
      </trkpt>
      <trkpt lat="49.64799" lon="4.75273">
        <ele>274</ele>
        <time>2022-04-03T07:32:35.000Z</time>
      </trkpt>
      <trkpt lat="49.64801" lon="4.75279">
        <ele>273</ele>
        <time>2022-04-03T07:32:36.000Z</time>
      </trkpt>
      <trkpt lat="49.64801" lon="4.75284">
        <ele>272</ele>
        <time>2022-04-03T07:32:37.000Z</time>
      </trkpt>
      <trkpt lat="49.64801" lon="4.75289">
        <ele>271</ele>
        <time>2022-04-03T07:32:38.000Z</time>
      </trkpt>
      <trkpt lat="49.648" lon="4.75294">
        <ele>270</ele>
        <time>2022-04-03T07:32:39.000Z</time>
      </trkpt>
      <trkpt lat="49.64801" lon="4.75298">
        <ele>270</ele>
        <time>2022-04-03T07:32:40.000Z</time>
      </trkpt>
      <trkpt lat="49.648" lon="4.75301">
        <ele>269</ele>
        <time>2022-04-03T07:32:41.000Z</time>
      </trkpt>
      <trkpt lat="49.648" lon="4.75303">
        <ele>268</ele>
        <time>2022-04-03T07:32:42.000Z</time>
      </trkpt>
      <trkpt lat="49.648" lon="4.75306">
        <ele>268</ele>
        <time>2022-04-03T07:32:43.000Z</time>
      </trkpt>
      <trkpt lat="49.648" lon="4.75311">
        <ele>267</ele>
        <time>2022-04-03T07:32:44.000Z</time>
      </trkpt>
      <trkpt lat="49.648" lon="4.75315">
        <ele>267</ele>
        <time>2022-04-03T07:32:45.000Z</time>
      </trkpt>
      <trkpt lat="49.648" lon="4.7532">
        <ele>266</ele>
        <time>2022-04-03T07:32:46.000Z</time>
      </trkpt>
      <trkpt lat="49.648" lon="4.75325">
        <ele>266</ele>
        <time>2022-04-03T07:32:47.000Z</time>
      </trkpt>
      <trkpt lat="49.64801" lon="4.7533">
        <ele>265</ele>
        <time>2022-04-03T07:32:48.000Z</time>
      </trkpt>
      <trkpt lat="49.64804" lon="4.75334">
        <ele>265</ele>
        <time>2022-04-03T07:32:49.000Z</time>
      </trkpt>
      <trkpt lat="49.64806" lon="4.75339">
        <ele>264</ele>
        <time>2022-04-03T07:32:50.000Z</time>
      </trkpt>
      <trkpt lat="49.64807" lon="4.75343">
        <ele>263</ele>
        <time>2022-04-03T07:32:51.000Z</time>
      </trkpt>
      <trkpt lat="49.64808" lon="4.75346">
        <ele>263</ele>
        <time>2022-04-03T07:32:52.000Z</time>
      </trkpt>
      <trkpt lat="49.64808" lon="4.75347">
        <ele>262</ele>
        <time>2022-04-03T07:32:53.000Z</time>
      </trkpt>
      <trkpt lat="49.64808" lon="4.75348">
        <ele>262</ele>
        <time>2022-04-03T07:32:54.000Z</time>
      </trkpt>
      <trkpt lat="49.64809" lon="4.75348">
        <ele>261</ele>
        <time>2022-04-03T07:32:55.000Z</time>
      </trkpt>
      <trkpt lat="49.64809" lon="4.75348">
        <ele>261</ele>
        <time>2022-04-03T07:32:56.000Z</time>
      </trkpt>
      <trkpt lat="49.64809" lon="4.75348">
        <ele>261</ele>
        <time>2022-04-03T07:32:57.000Z</time>
      </trkpt>
      <trkpt lat="49.64809" lon="4.75348">
        <ele>260</ele>
        <time>2022-04-03T07:32:58.000Z</time>
      </trkpt>
      <trkpt lat="49.64809" lon="4.75349">
        <ele>260</ele>
        <time>2022-04-03T07:32:59.000Z</time>
      </trkpt>
      <trkpt lat="49.64809" lon="4.75349">
        <ele>260</ele>
        <time>2022-04-03T07:33:00.000Z</time>
      </trkpt>
      <trkpt lat="49.64809" lon="4.75349">
        <ele>260</ele>
        <time>2022-04-03T07:33:01.000Z</time>
      </trkpt>
      <trkpt lat="49.64809" lon="4.75349">
        <ele>259</ele>
        <time>2022-04-03T07:33:02.000Z</time>
      </trkpt>
      <trkpt lat="49.64809" lon="4.75349">
        <ele>259</ele>
        <time>2022-04-03T07:33:03.000Z</time>
      </trkpt>
      <trkpt lat="49.6481" lon="4.75349">
        <ele>259</ele>
        <time>2022-04-03T07:33:04.000Z</time>
      </trkpt>
      <trkpt lat="49.6481" lon="4.7535">
        <ele>259</ele>
        <time>2022-04-03T07:33:05.000Z</time>
      </trkpt>
      <trkpt lat="49.64809" lon="4.75348">
        <ele>259</ele>
        <time>2022-04-03T07:33:06.000Z</time>
      </trkpt>
      <trkpt lat="49.64809" lon="4.75348">
        <ele>258</ele>
        <time>2022-04-03T07:33:07.000Z</time>
      </trkpt>
      <trkpt lat="49.64809" lon="4.75347">
        <ele>258</ele>
        <time>2022-04-03T07:33:08.000Z</time>
      </trkpt>
      <trkpt lat="49.6481" lon="4.75347">
        <ele>258</ele>
        <time>2022-04-03T07:33:09.000Z</time>
      </trkpt>
      <trkpt lat="49.6481" lon="4.75346">
        <ele>258</ele>
        <time>2022-04-03T07:33:10.000Z</time>
      </trkpt>
      <trkpt lat="49.6481" lon="4.75346">
        <ele>257</ele>
        <time>2022-04-03T07:33:11.000Z</time>
      </trkpt>
      <trkpt lat="49.6481" lon="4.75345">
        <ele>257</ele>
        <time>2022-04-03T07:33:12.000Z</time>
      </trkpt>
      <trkpt lat="49.64809" lon="4.75344">
        <ele>257</ele>
        <time>2022-04-03T07:33:13.000Z</time>
      </trkpt>
      <trkpt lat="49.64809" lon="4.75342">
        <ele>257</ele>
        <time>2022-04-03T07:33:14.000Z</time>
      </trkpt>
      <trkpt lat="49.64808" lon="4.75341">
        <ele>256</ele>
        <time>2022-04-03T07:33:15.000Z</time>
      </trkpt>
      <trkpt lat="49.64808" lon="4.7534">
        <ele>256</ele>
        <time>2022-04-03T07:33:16.000Z</time>
      </trkpt>
      <trkpt lat="49.64808" lon="4.75339">
        <ele>256</ele>
        <time>2022-04-03T07:33:17.000Z</time>
      </trkpt>
      <trkpt lat="49.64808" lon="4.75339">
        <ele>256</ele>
        <time>2022-04-03T07:33:18.000Z</time>
      </trkpt>
      <trkpt lat="49.64807" lon="4.75338">
        <ele>256</ele>
        <time>2022-04-03T07:33:19.000Z</time>
      </trkpt>
      <trkpt lat="49.64807" lon="4.75338">
        <ele>256</ele>
        <time>2022-04-03T07:33:20.000Z</time>
      </trkpt>
      <trkpt lat="49.64805" lon="4.75336">
        <ele>256</ele>
        <time>2022-04-03T07:33:21.000Z</time>
      </trkpt>
      <trkpt lat="49.64804" lon="4.75334">
        <ele>256</ele>
        <time>2022-04-03T07:33:22.000Z</time>
      </trkpt>
      <trkpt lat="49.64803" lon="4.75332">
        <ele>256</ele>
        <time>2022-04-03T07:33:23.000Z</time>
      </trkpt>
      <trkpt lat="49.64802" lon="4.7533">
        <ele>255</ele>
        <time>2022-04-03T07:33:24.000Z</time>
      </trkpt>
      <trkpt lat="49.64801" lon="4.75327">
        <ele>255</ele>
        <time>2022-04-03T07:33:25.000Z</time>
      </trkpt>
      <trkpt lat="49.648" lon="4.75325">
        <ele>255</ele>
        <time>2022-04-03T07:33:26.000Z</time>
      </trkpt>
      <trkpt lat="49.64799" lon="4.75321">
        <ele>255</ele>
        <time>2022-04-03T07:33:27.000Z</time>
      </trkpt>
      <trkpt lat="49.648" lon="4.75317">
        <ele>255</ele>
        <time>2022-04-03T07:33:28.000Z</time>
      </trkpt>
      <trkpt lat="49.648" lon="4.75313">
        <ele>254</ele>
        <time>2022-04-03T07:33:29.000Z</time>
      </trkpt>
      <trkpt lat="49.64801" lon="4.7531">
        <ele>254</ele>
        <time>2022-04-03T07:33:30.000Z</time>
      </trkpt>
      <trkpt lat="49.64801" lon="4.75307">
        <ele>254</ele>
        <time>2022-04-03T07:33:31.000Z</time>
      </trkpt>
      <trkpt lat="49.64802" lon="4.75304">
        <ele>254</ele>
        <time>2022-04-03T07:33:32.000Z</time>
      </trkpt>
      <trkpt lat="49.64802" lon="4.753">
        <ele>254</ele>
        <time>2022-04-03T07:33:33.000Z</time>
      </trkpt>
      <trkpt lat="49.64803" lon="4.75297">
        <ele>254</ele>
        <time>2022-04-03T07:33:34.000Z</time>
      </trkpt>
      <trkpt lat="49.64803" lon="4.75294">
        <ele>255</ele>
        <time>2022-04-03T07:33:35.000Z</time>
      </trkpt>
      <trkpt lat="49.64803" lon="4.7529">
        <ele>255</ele>
        <time>2022-04-03T07:33:36.000Z</time>
      </trkpt>
      <trkpt lat="49.64804" lon="4.75287">
        <ele>255</ele>
        <time>2022-04-03T07:33:37.000Z</time>
      </trkpt>
      <trkpt lat="49.64804" lon="4.75283">
        <ele>255</ele>
        <time>2022-04-03T07:33:38.000Z</time>
      </trkpt>
      <trkpt lat="49.64804" lon="4.7528">
        <ele>255</ele>
        <time>2022-04-03T07:33:39.000Z</time>
      </trkpt>
      <trkpt lat="49.64804" lon="4.75277">
        <ele>255</ele>
        <time>2022-04-03T07:33:40.000Z</time>
      </trkpt>
      <trkpt lat="49.64803" lon="4.75274">
        <ele>255</ele>
        <time>2022-04-03T07:33:41.000Z</time>
      </trkpt>
      <trkpt lat="49.64802" lon="4.7527">
        <ele>255</ele>
        <time>2022-04-03T07:33:42.000Z</time>
      </trkpt>
      <trkpt lat="49.64801" lon="4.75266">
        <ele>255</ele>
        <time>2022-04-03T07:33:43.000Z</time>
      </trkpt>
      <trkpt lat="49.648" lon="4.75263">
        <ele>255</ele>
        <time>2022-04-03T07:33:44.000Z</time>
      </trkpt>
      <trkpt lat="49.64799" lon="4.75261">
        <ele>256</ele>
        <time>2022-04-03T07:33:45.000Z</time>
      </trkpt>
      <trkpt lat="49.64798" lon="4.75258">
        <ele>256</ele>
        <time>2022-04-03T07:33:46.000Z</time>
      </trkpt>
      <trkpt lat="49.64797" lon="4.75255">
        <ele>256</ele>
        <time>2022-04-03T07:33:47.000Z</time>
      </trkpt>
      <trkpt lat="49.64795" lon="4.75252">
        <ele>256</ele>
        <time>2022-04-03T07:33:48.000Z</time>
      </trkpt>
      <trkpt lat="49.64794" lon="4.7525">
        <ele>257</ele>
        <time>2022-04-03T07:33:49.000Z</time>
      </trkpt>
      <trkpt lat="49.64792" lon="4.75248">
        <ele>257</ele>
        <time>2022-04-03T07:33:50.000Z</time>
      </trkpt>
      <trkpt lat="49.6479" lon="4.75246">
        <ele>257</ele>
        <time>2022-04-03T07:33:51.000Z</time>
      </trkpt>
      <trkpt lat="49.64789" lon="4.75243">
        <ele>257</ele>
        <time>2022-04-03T07:33:52.000Z</time>
      </trkpt>
      <trkpt lat="49.64788" lon="4.75241">
        <ele>257</ele>
        <time>2022-04-03T07:33:53.000Z</time>
      </trkpt>
      <trkpt lat="49.64786" lon="4.75239">
        <ele>257</ele>
        <time>2022-04-03T07:33:54.000Z</time>
      </trkpt>
      <trkpt lat="49.64785" lon="4.75236">
        <ele>257</ele>
        <time>2022-04-03T07:33:55.000Z</time>
      </trkpt>
      <trkpt lat="49.64783" lon="4.75234">
        <ele>258</ele>
        <time>2022-04-03T07:33:56.000Z</time>
      </trkpt>
      <trkpt lat="49.64782" lon="4.75231">
        <ele>258</ele>
        <time>2022-04-03T07:33:57.000Z</time>
      </trkpt>
      <trkpt lat="49.64781" lon="4.75229">
        <ele>258</ele>
        <time>2022-04-03T07:33:58.000Z</time>
      </trkpt>
      <trkpt lat="49.64779" lon="4.75227">
        <ele>259</ele>
        <time>2022-04-03T07:33:59.000Z</time>
      </trkpt>
      <trkpt lat="49.64778" lon="4.75225">
        <ele>259</ele>
        <time>2022-04-03T07:34:00.000Z</time>
      </trkpt>
      <trkpt lat="49.64777" lon="4.75223">
        <ele>260</ele>
        <time>2022-04-03T07:34:01.000Z</time>
      </trkpt>
      <trkpt lat="49.64776" lon="4.75222">
        <ele>260</ele>
        <time>2022-04-03T07:34:02.000Z</time>
      </trkpt>
      <trkpt lat="49.64775" lon="4.7522">
        <ele>260</ele>
        <time>2022-04-03T07:34:03.000Z</time>
      </trkpt>
      <trkpt lat="49.64774" lon="4.75218">
        <ele>260</ele>
        <time>2022-04-03T07:34:04.000Z</time>
      </trkpt>
      <trkpt lat="49.64773" lon="4.75216">
        <ele>261</ele>
        <time>2022-04-03T07:34:05.000Z</time>
      </trkpt>
      <trkpt lat="49.64771" lon="4.75214">
        <ele>261</ele>
        <time>2022-04-03T07:34:06.000Z</time>
      </trkpt>
      <trkpt lat="49.6477" lon="4.75213">
        <ele>261</ele>
        <time>2022-04-03T07:34:07.000Z</time>
      </trkpt>
      <trkpt lat="49.64769" lon="4.75212">
        <ele>261</ele>
        <time>2022-04-03T07:34:08.000Z</time>
      </trkpt>
      <trkpt lat="49.64768" lon="4.7521">
        <ele>262</ele>
        <time>2022-04-03T07:34:09.000Z</time>
      </trkpt>
      <trkpt lat="49.64766" lon="4.75209">
        <ele>262</ele>
        <time>2022-04-03T07:34:10.000Z</time>
      </trkpt>
      <trkpt lat="49.64765" lon="4.75207">
        <ele>262</ele>
        <time>2022-04-03T07:34:11.000Z</time>
      </trkpt>
      <trkpt lat="49.64764" lon="4.75206">
        <ele>262</ele>
        <time>2022-04-03T07:34:12.000Z</time>
      </trkpt>
      <trkpt lat="49.64763" lon="4.75206">
        <ele>262</ele>
        <time>2022-04-03T07:34:13.000Z</time>
      </trkpt>
      <trkpt lat="49.64762" lon="4.75205">
        <ele>263</ele>
        <time>2022-04-03T07:34:14.000Z</time>
      </trkpt>
      <trkpt lat="49.64761" lon="4.75203">
        <ele>263</ele>
        <time>2022-04-03T07:34:15.000Z</time>
      </trkpt>
      <trkpt lat="49.6476" lon="4.75202">
        <ele>263</ele>
        <time>2022-04-03T07:34:16.000Z</time>
      </trkpt>
      <trkpt lat="49.64759" lon="4.75201">
        <ele>263</ele>
        <time>2022-04-03T07:34:17.000Z</time>
      </trkpt>
      <trkpt lat="49.64757" lon="4.75199">
        <ele>263</ele>
        <time>2022-04-03T07:34:18.000Z</time>
      </trkpt>
      <trkpt lat="49.64756" lon="4.75198">
        <ele>263</ele>
        <time>2022-04-03T07:34:19.000Z</time>
      </trkpt>
      <trkpt lat="49.64755" lon="4.75196">
        <ele>263</ele>
        <time>2022-04-03T07:34:20.000Z</time>
      </trkpt>
      <trkpt lat="49.64754" lon="4.75195">
        <ele>263</ele>
        <time>2022-04-03T07:34:21.000Z</time>
      </trkpt>
      <trkpt lat="49.64752" lon="4.75194">
        <ele>264</ele>
        <time>2022-04-03T07:34:22.000Z</time>
      </trkpt>
      <trkpt lat="49.64751" lon="4.75192">
        <ele>264</ele>
        <time>2022-04-03T07:34:23.000Z</time>
      </trkpt>
      <trkpt lat="49.6475" lon="4.75191">
        <ele>264</ele>
        <time>2022-04-03T07:34:24.000Z</time>
      </trkpt>
      <trkpt lat="49.64749" lon="4.7519">
        <ele>264</ele>
        <time>2022-04-03T07:34:25.000Z</time>
      </trkpt>
      <trkpt lat="49.64748" lon="4.75188">
        <ele>264</ele>
        <time>2022-04-03T07:34:26.000Z</time>
      </trkpt>
      <trkpt lat="49.64747" lon="4.75187">
        <ele>265</ele>
        <time>2022-04-03T07:34:27.000Z</time>
      </trkpt>
      <trkpt lat="49.64746" lon="4.75186">
        <ele>265</ele>
        <time>2022-04-03T07:34:28.000Z</time>
      </trkpt>
      <trkpt lat="49.64745" lon="4.75185">
        <ele>265</ele>
        <time>2022-04-03T07:34:29.000Z</time>
      </trkpt>
      <trkpt lat="49.64744" lon="4.75184">
        <ele>265</ele>
        <time>2022-04-03T07:34:30.000Z</time>
      </trkpt>
      <trkpt lat="49.64743" lon="4.75183">
        <ele>266</ele>
        <time>2022-04-03T07:34:31.000Z</time>
      </trkpt>
      <trkpt lat="49.64742" lon="4.75182">
        <ele>266</ele>
        <time>2022-04-03T07:34:32.000Z</time>
      </trkpt>
      <trkpt lat="49.64741" lon="4.75181">
        <ele>266</ele>
        <time>2022-04-03T07:34:33.000Z</time>
      </trkpt>
      <trkpt lat="49.6474" lon="4.75179">
        <ele>266</ele>
        <time>2022-04-03T07:34:34.000Z</time>
      </trkpt>
      <trkpt lat="49.64739" lon="4.75178">
        <ele>267</ele>
        <time>2022-04-03T07:34:35.000Z</time>
      </trkpt>
      <trkpt lat="49.64738" lon="4.75177">
        <ele>267</ele>
        <time>2022-04-03T07:34:36.000Z</time>
      </trkpt>
      <trkpt lat="49.64737" lon="4.75176">
        <ele>267</ele>
        <time>2022-04-03T07:34:37.000Z</time>
      </trkpt>
      <trkpt lat="49.64736" lon="4.75175">
        <ele>267</ele>
        <time>2022-04-03T07:34:38.000Z</time>
      </trkpt>
      <trkpt lat="49.64735" lon="4.75174">
        <ele>268</ele>
        <time>2022-04-03T07:34:39.000Z</time>
      </trkpt>
      <trkpt lat="49.64734" lon="4.75174">
        <ele>268</ele>
        <time>2022-04-03T07:34:40.000Z</time>
      </trkpt>
      <trkpt lat="49.64733" lon="4.75173">
        <ele>268</ele>
        <time>2022-04-03T07:34:41.000Z</time>
      </trkpt>
      <trkpt lat="49.64732" lon="4.75172">
        <ele>269</ele>
        <time>2022-04-03T07:34:42.000Z</time>
      </trkpt>
      <trkpt lat="49.64731" lon="4.7517">
        <ele>269</ele>
        <time>2022-04-03T07:34:43.000Z</time>
      </trkpt>
      <trkpt lat="49.6473" lon="4.75169">
        <ele>270</ele>
        <time>2022-04-03T07:34:44.000Z</time>
      </trkpt>
      <trkpt lat="49.64729" lon="4.75168">
        <ele>270</ele>
        <time>2022-04-03T07:34:45.000Z</time>
      </trkpt>
      <trkpt lat="49.64727" lon="4.75167">
        <ele>270</ele>
        <time>2022-04-03T07:34:46.000Z</time>
      </trkpt>
      <trkpt lat="49.64726" lon="4.75165">
        <ele>270</ele>
        <time>2022-04-03T07:34:47.000Z</time>
      </trkpt>
      <trkpt lat="49.64725" lon="4.75164">
        <ele>271</ele>
        <time>2022-04-03T07:34:48.000Z</time>
      </trkpt>
      <trkpt lat="49.64724" lon="4.75162">
        <ele>271</ele>
        <time>2022-04-03T07:34:49.000Z</time>
      </trkpt>
      <trkpt lat="49.64723" lon="4.75161">
        <ele>271</ele>
        <time>2022-04-03T07:34:50.000Z</time>
      </trkpt>
      <trkpt lat="49.64721" lon="4.7516">
        <ele>271</ele>
        <time>2022-04-03T07:34:51.000Z</time>
      </trkpt>
      <trkpt lat="49.6472" lon="4.75158">
        <ele>272</ele>
        <time>2022-04-03T07:34:52.000Z</time>
      </trkpt>
      <trkpt lat="49.64719" lon="4.75157">
        <ele>272</ele>
        <time>2022-04-03T07:34:53.000Z</time>
      </trkpt>
      <trkpt lat="49.64718" lon="4.75156">
        <ele>273</ele>
        <time>2022-04-03T07:34:54.000Z</time>
      </trkpt>
      <trkpt lat="49.64717" lon="4.75154">
        <ele>273</ele>
        <time>2022-04-03T07:34:55.000Z</time>
      </trkpt>
      <trkpt lat="49.64716" lon="4.75153">
        <ele>273</ele>
        <time>2022-04-03T07:34:56.000Z</time>
      </trkpt>
      <trkpt lat="49.64715" lon="4.75152">
        <ele>274</ele>
        <time>2022-04-03T07:34:57.000Z</time>
      </trkpt>
      <trkpt lat="49.64714" lon="4.75152">
        <ele>274</ele>
        <time>2022-04-03T07:34:58.000Z</time>
      </trkpt>
      <trkpt lat="49.64714" lon="4.75151">
        <ele>274</ele>
        <time>2022-04-03T07:34:59.000Z</time>
      </trkpt>
      <trkpt lat="49.64713" lon="4.75151">
        <ele>275</ele>
        <time>2022-04-03T07:35:00.000Z</time>
      </trkpt>
      <trkpt lat="49.64713" lon="4.7515">
        <ele>275</ele>
        <time>2022-04-03T07:35:01.000Z</time>
      </trkpt>
      <trkpt lat="49.64712" lon="4.75149">
        <ele>275</ele>
        <time>2022-04-03T07:35:02.000Z</time>
      </trkpt>
      <trkpt lat="49.64711" lon="4.75148">
        <ele>276</ele>
        <time>2022-04-03T07:35:03.000Z</time>
      </trkpt>
      <trkpt lat="49.64711" lon="4.75147">
        <ele>276</ele>
        <time>2022-04-03T07:35:04.000Z</time>
      </trkpt>
      <trkpt lat="49.6471" lon="4.75146">
        <ele>276</ele>
        <time>2022-04-03T07:35:05.000Z</time>
      </trkpt>
      <trkpt lat="49.64709" lon="4.75145">
        <ele>277</ele>
        <time>2022-04-03T07:35:06.000Z</time>
      </trkpt>
      <trkpt lat="49.64708" lon="4.75144">
        <ele>277</ele>
        <time>2022-04-03T07:35:07.000Z</time>
      </trkpt>
      <trkpt lat="49.64707" lon="4.75143">
        <ele>277</ele>
        <time>2022-04-03T07:35:08.000Z</time>
      </trkpt>
      <trkpt lat="49.64706" lon="4.75142">
        <ele>278</ele>
        <time>2022-04-03T07:35:09.000Z</time>
      </trkpt>
      <trkpt lat="49.64705" lon="4.75141">
        <ele>278</ele>
        <time>2022-04-03T07:35:10.000Z</time>
      </trkpt>
      <trkpt lat="49.64705" lon="4.7514">
        <ele>278</ele>
        <time>2022-04-03T07:35:11.000Z</time>
      </trkpt>
      <trkpt lat="49.64704" lon="4.75139">
        <ele>278</ele>
        <time>2022-04-03T07:35:12.000Z</time>
      </trkpt>
      <trkpt lat="49.64704" lon="4.75138">
        <ele>279</ele>
        <time>2022-04-03T07:35:13.000Z</time>
      </trkpt>
      <trkpt lat="49.64703" lon="4.75138">
        <ele>279</ele>
        <time>2022-04-03T07:35:14.000Z</time>
      </trkpt>
      <trkpt lat="49.64703" lon="4.75137">
        <ele>279</ele>
        <time>2022-04-03T07:35:15.000Z</time>
      </trkpt>
      <trkpt lat="49.64702" lon="4.75136">
        <ele>279</ele>
        <time>2022-04-03T07:35:16.000Z</time>
      </trkpt>
      <trkpt lat="49.64701" lon="4.75135">
        <ele>280</ele>
        <time>2022-04-03T07:35:17.000Z</time>
      </trkpt>
      <trkpt lat="49.64701" lon="4.75134">
        <ele>280</ele>
        <time>2022-04-03T07:35:18.000Z</time>
      </trkpt>
      <trkpt lat="49.647" lon="4.75133">
        <ele>280</ele>
        <time>2022-04-03T07:35:19.000Z</time>
      </trkpt>
      <trkpt lat="49.647" lon="4.75132">
        <ele>280</ele>
        <time>2022-04-03T07:35:20.000Z</time>
      </trkpt>
      <trkpt lat="49.647" lon="4.75131">
        <ele>280</ele>
        <time>2022-04-03T07:35:21.000Z</time>
      </trkpt>
      <trkpt lat="49.64699" lon="4.7513">
        <ele>280</ele>
        <time>2022-04-03T07:35:22.000Z</time>
      </trkpt>
      <trkpt lat="49.64698" lon="4.75129">
        <ele>281</ele>
        <time>2022-04-03T07:35:23.000Z</time>
      </trkpt>
      <trkpt lat="49.64698" lon="4.75127">
        <ele>281</ele>
        <time>2022-04-03T07:35:24.000Z</time>
      </trkpt>
      <trkpt lat="49.64697" lon="4.75126">
        <ele>281</ele>
        <time>2022-04-03T07:35:25.000Z</time>
      </trkpt>
      <trkpt lat="49.64696" lon="4.75125">
        <ele>281</ele>
        <time>2022-04-03T07:35:26.000Z</time>
      </trkpt>
      <trkpt lat="49.64696" lon="4.75124">
        <ele>282</ele>
        <time>2022-04-03T07:35:27.000Z</time>
      </trkpt>
      <trkpt lat="49.64695" lon="4.75123">
        <ele>282</ele>
        <time>2022-04-03T07:35:28.000Z</time>
      </trkpt>
      <trkpt lat="49.64695" lon="4.75122">
        <ele>282</ele>
        <time>2022-04-03T07:35:29.000Z</time>
      </trkpt>
      <trkpt lat="49.64695" lon="4.75121">
        <ele>282</ele>
        <time>2022-04-03T07:35:30.000Z</time>
      </trkpt>
      <trkpt lat="49.64694" lon="4.7512">
        <ele>283</ele>
        <time>2022-04-03T07:35:31.000Z</time>
      </trkpt>
      <trkpt lat="49.64694" lon="4.75119">
        <ele>283</ele>
        <time>2022-04-03T07:35:32.000Z</time>
      </trkpt>
      <trkpt lat="49.64693" lon="4.75118">
        <ele>283</ele>
        <time>2022-04-03T07:35:33.000Z</time>
      </trkpt>
      <trkpt lat="49.64693" lon="4.75116">
        <ele>283</ele>
        <time>2022-04-03T07:35:34.000Z</time>
      </trkpt>
      <trkpt lat="49.64692" lon="4.75115">
        <ele>283</ele>
        <time>2022-04-03T07:35:35.000Z</time>
      </trkpt>
      <trkpt lat="49.64692" lon="4.75114">
        <ele>284</ele>
        <time>2022-04-03T07:35:36.000Z</time>
      </trkpt>
      <trkpt lat="49.64691" lon="4.75113">
        <ele>284</ele>
        <time>2022-04-03T07:35:37.000Z</time>
      </trkpt>
      <trkpt lat="49.64691" lon="4.75112">
        <ele>284</ele>
        <time>2022-04-03T07:35:38.000Z</time>
      </trkpt>
      <trkpt lat="49.6469" lon="4.7511">
        <ele>284</ele>
        <time>2022-04-03T07:35:39.000Z</time>
      </trkpt>
      <trkpt lat="49.64689" lon="4.75109">
        <ele>285</ele>
        <time>2022-04-03T07:35:40.000Z</time>
      </trkpt>
      <trkpt lat="49.64689" lon="4.75108">
        <ele>285</ele>
        <time>2022-04-03T07:35:41.000Z</time>
      </trkpt>
      <trkpt lat="49.64689" lon="4.75107">
        <ele>285</ele>
        <time>2022-04-03T07:35:42.000Z</time>
      </trkpt>
      <trkpt lat="49.64688" lon="4.75106">
        <ele>285</ele>
        <time>2022-04-03T07:35:43.000Z</time>
      </trkpt>
      <trkpt lat="49.64687" lon="4.75105">
        <ele>285</ele>
        <time>2022-04-03T07:35:44.000Z</time>
      </trkpt>
      <trkpt lat="49.64687" lon="4.75105">
        <ele>285</ele>
        <time>2022-04-03T07:35:45.000Z</time>
      </trkpt>
      <trkpt lat="49.64686" lon="4.75104">
        <ele>286</ele>
        <time>2022-04-03T07:35:46.000Z</time>
      </trkpt>
      <trkpt lat="49.64685" lon="4.75103">
        <ele>286</ele>
        <time>2022-04-03T07:35:47.000Z</time>
      </trkpt>
      <trkpt lat="49.64685" lon="4.75102">
        <ele>286</ele>
        <time>2022-04-03T07:35:48.000Z</time>
      </trkpt>
      <trkpt lat="49.64684" lon="4.751">
        <ele>286</ele>
        <time>2022-04-03T07:35:49.000Z</time>
      </trkpt>
      <trkpt lat="49.64684" lon="4.75099">
        <ele>286</ele>
        <time>2022-04-03T07:35:50.000Z</time>
      </trkpt>
      <trkpt lat="49.64683" lon="4.75098">
        <ele>286</ele>
        <time>2022-04-03T07:35:51.000Z</time>
      </trkpt>
      <trkpt lat="49.64682" lon="4.75097">
        <ele>286</ele>
        <time>2022-04-03T07:35:52.000Z</time>
      </trkpt>
      <trkpt lat="49.64682" lon="4.75096">
        <ele>287</ele>
        <time>2022-04-03T07:35:53.000Z</time>
      </trkpt>
      <trkpt lat="49.64681" lon="4.75095">
        <ele>287</ele>
        <time>2022-04-03T07:35:54.000Z</time>
      </trkpt>
      <trkpt lat="49.6468" lon="4.75093">
        <ele>287</ele>
        <time>2022-04-03T07:35:55.000Z</time>
      </trkpt>
      <trkpt lat="49.6468" lon="4.75093">
        <ele>287</ele>
        <time>2022-04-03T07:35:56.000Z</time>
      </trkpt>
      <trkpt lat="49.6468" lon="4.75092">
        <ele>287</ele>
        <time>2022-04-03T07:35:57.000Z</time>
      </trkpt>
      <trkpt lat="49.64679" lon="4.7509">
        <ele>287</ele>
        <time>2022-04-03T07:35:58.000Z</time>
      </trkpt>
      <trkpt lat="49.64678" lon="4.75089">
        <ele>287</ele>
        <time>2022-04-03T07:35:59.000Z</time>
      </trkpt>
      <trkpt lat="49.64678" lon="4.75088">
        <ele>287</ele>
        <time>2022-04-03T07:36:00.000Z</time>
      </trkpt>
      <trkpt lat="49.64678" lon="4.75087">
        <ele>287</ele>
        <time>2022-04-03T07:36:01.000Z</time>
      </trkpt>
      <trkpt lat="49.64678" lon="4.75086">
        <ele>287</ele>
        <time>2022-04-03T07:36:02.000Z</time>
      </trkpt>
      <trkpt lat="49.64677" lon="4.75084">
        <ele>287</ele>
        <time>2022-04-03T07:36:03.000Z</time>
      </trkpt>
      <trkpt lat="49.64676" lon="4.75083">
        <ele>287</ele>
        <time>2022-04-03T07:36:04.000Z</time>
      </trkpt>
      <trkpt lat="49.64676" lon="4.75082">
        <ele>288</ele>
        <time>2022-04-03T07:36:05.000Z</time>
      </trkpt>
      <trkpt lat="49.64675" lon="4.7508">
        <ele>288</ele>
        <time>2022-04-03T07:36:06.000Z</time>
      </trkpt>
      <trkpt lat="49.64675" lon="4.75079">
        <ele>288</ele>
        <time>2022-04-03T07:36:07.000Z</time>
      </trkpt>
      <trkpt lat="49.64674" lon="4.75077">
        <ele>288</ele>
        <time>2022-04-03T07:36:08.000Z</time>
      </trkpt>
      <trkpt lat="49.64674" lon="4.75076">
        <ele>288</ele>
        <time>2022-04-03T07:36:09.000Z</time>
      </trkpt>
      <trkpt lat="49.64673" lon="4.75074">
        <ele>288</ele>
        <time>2022-04-03T07:36:10.000Z</time>
      </trkpt>
      <trkpt lat="49.64673" lon="4.75073">
        <ele>288</ele>
        <time>2022-04-03T07:36:11.000Z</time>
      </trkpt>
      <trkpt lat="49.64673" lon="4.75071">
        <ele>288</ele>
        <time>2022-04-03T07:36:12.000Z</time>
      </trkpt>
      <trkpt lat="49.64672" lon="4.7507">
        <ele>288</ele>
        <time>2022-04-03T07:36:13.000Z</time>
      </trkpt>
      <trkpt lat="49.64672" lon="4.75068">
        <ele>288</ele>
        <time>2022-04-03T07:36:14.000Z</time>
      </trkpt>
      <trkpt lat="49.64671" lon="4.75067">
        <ele>288</ele>
        <time>2022-04-03T07:36:15.000Z</time>
      </trkpt>
      <trkpt lat="49.64671" lon="4.75066">
        <ele>289</ele>
        <time>2022-04-03T07:36:16.000Z</time>
      </trkpt>
      <trkpt lat="49.64671" lon="4.75065">
        <ele>288</ele>
        <time>2022-04-03T07:36:17.000Z</time>
      </trkpt>
      <trkpt lat="49.6467" lon="4.75063">
        <ele>288</ele>
        <time>2022-04-03T07:36:18.000Z</time>
      </trkpt>
      <trkpt lat="49.6467" lon="4.75062">
        <ele>288</ele>
        <time>2022-04-03T07:36:19.000Z</time>
      </trkpt>
      <trkpt lat="49.64669" lon="4.7506">
        <ele>288</ele>
        <time>2022-04-03T07:36:20.000Z</time>
      </trkpt>
      <trkpt lat="49.64669" lon="4.75058">
        <ele>289</ele>
        <time>2022-04-03T07:36:21.000Z</time>
      </trkpt>
      <trkpt lat="49.64668" lon="4.75057">
        <ele>289</ele>
        <time>2022-04-03T07:36:22.000Z</time>
      </trkpt>
      <trkpt lat="49.64667" lon="4.75055">
        <ele>289</ele>
        <time>2022-04-03T07:36:23.000Z</time>
      </trkpt>
      <trkpt lat="49.64666" lon="4.75054">
        <ele>289</ele>
        <time>2022-04-03T07:36:24.000Z</time>
      </trkpt>
      <trkpt lat="49.64666" lon="4.75052">
        <ele>289</ele>
        <time>2022-04-03T07:36:25.000Z</time>
      </trkpt>
      <trkpt lat="49.64665" lon="4.7505">
        <ele>289</ele>
        <time>2022-04-03T07:36:26.000Z</time>
      </trkpt>
      <trkpt lat="49.64664" lon="4.75048">
        <ele>289</ele>
        <time>2022-04-03T07:36:27.000Z</time>
      </trkpt>
      <trkpt lat="49.64664" lon="4.75047">
        <ele>289</ele>
        <time>2022-04-03T07:36:28.000Z</time>
      </trkpt>
      <trkpt lat="49.64663" lon="4.75045">
        <ele>289</ele>
        <time>2022-04-03T07:36:29.000Z</time>
      </trkpt>
      <trkpt lat="49.64662" lon="4.75045">
        <ele>289</ele>
        <time>2022-04-03T07:36:30.000Z</time>
      </trkpt>
      <trkpt lat="49.64662" lon="4.75043">
        <ele>289</ele>
        <time>2022-04-03T07:36:31.000Z</time>
      </trkpt>
      <trkpt lat="49.64662" lon="4.75043">
        <ele>289</ele>
        <time>2022-04-03T07:36:32.000Z</time>
      </trkpt>
      <trkpt lat="49.64662" lon="4.75043">
        <ele>289</ele>
        <time>2022-04-03T07:36:33.000Z</time>
      </trkpt>
      <trkpt lat="49.64661" lon="4.75042">
        <ele>289</ele>
        <time>2022-04-03T07:36:34.000Z</time>
      </trkpt>
      <trkpt lat="49.6466" lon="4.75042">
        <ele>289</ele>
        <time>2022-04-03T07:36:35.000Z</time>
      </trkpt>
      <trkpt lat="49.64659" lon="4.7504">
        <ele>289</ele>
        <time>2022-04-03T07:36:36.000Z</time>
      </trkpt>
      <trkpt lat="49.64658" lon="4.75039">
        <ele>289</ele>
        <time>2022-04-03T07:36:37.000Z</time>
      </trkpt>
      <trkpt lat="49.64657" lon="4.75037">
        <ele>290</ele>
        <time>2022-04-03T07:36:38.000Z</time>
      </trkpt>
      <trkpt lat="49.64656" lon="4.75035">
        <ele>290</ele>
        <time>2022-04-03T07:36:39.000Z</time>
      </trkpt>
      <trkpt lat="49.64655" lon="4.75033">
        <ele>290</ele>
        <time>2022-04-03T07:36:40.000Z</time>
      </trkpt>
      <trkpt lat="49.64654" lon="4.75031">
        <ele>291</ele>
        <time>2022-04-03T07:36:41.000Z</time>
      </trkpt>
      <trkpt lat="49.64652" lon="4.75029">
        <ele>291</ele>
        <time>2022-04-03T07:36:42.000Z</time>
      </trkpt>
      <trkpt lat="49.64651" lon="4.75028">
        <ele>291</ele>
        <time>2022-04-03T07:36:43.000Z</time>
      </trkpt>
      <trkpt lat="49.64649" lon="4.75026">
        <ele>291</ele>
        <time>2022-04-03T07:36:44.000Z</time>
      </trkpt>
      <trkpt lat="49.64648" lon="4.75025">
        <ele>291</ele>
        <time>2022-04-03T07:36:45.000Z</time>
      </trkpt>
      <trkpt lat="49.64646" lon="4.75023">
        <ele>292</ele>
        <time>2022-04-03T07:36:46.000Z</time>
      </trkpt>
      <trkpt lat="49.64644" lon="4.75021">
        <ele>292</ele>
        <time>2022-04-03T07:36:47.000Z</time>
      </trkpt>
      <trkpt lat="49.64643" lon="4.75019">
        <ele>292</ele>
        <time>2022-04-03T07:36:48.000Z</time>
      </trkpt>
      <trkpt lat="49.64641" lon="4.75016">
        <ele>292</ele>
        <time>2022-04-03T07:36:49.000Z</time>
      </trkpt>
      <trkpt lat="49.64639" lon="4.75014">
        <ele>293</ele>
        <time>2022-04-03T07:36:50.000Z</time>
      </trkpt>
      <trkpt lat="49.64637" lon="4.75011">
        <ele>293</ele>
        <time>2022-04-03T07:36:51.000Z</time>
      </trkpt>
      <trkpt lat="49.64635" lon="4.75008">
        <ele>293</ele>
        <time>2022-04-03T07:36:52.000Z</time>
      </trkpt>
      <trkpt lat="49.64633" lon="4.75005">
        <ele>293</ele>
        <time>2022-04-03T07:36:53.000Z</time>
      </trkpt>
      <trkpt lat="49.64631" lon="4.75002">
        <ele>293</ele>
        <time>2022-04-03T07:36:54.000Z</time>
      </trkpt>
      <trkpt lat="49.64628" lon="4.74999">
        <ele>293</ele>
        <time>2022-04-03T07:36:55.000Z</time>
      </trkpt>
      <trkpt lat="49.64626" lon="4.74996">
        <ele>294</ele>
        <time>2022-04-03T07:36:56.000Z</time>
      </trkpt>
      <trkpt lat="49.64624" lon="4.74994">
        <ele>294</ele>
        <time>2022-04-03T07:36:57.000Z</time>
      </trkpt>
      <trkpt lat="49.64622" lon="4.74991">
        <ele>294</ele>
        <time>2022-04-03T07:36:58.000Z</time>
      </trkpt>
      <trkpt lat="49.6462" lon="4.74987">
        <ele>294</ele>
        <time>2022-04-03T07:36:59.000Z</time>
      </trkpt>
      <trkpt lat="49.64618" lon="4.74983">
        <ele>294</ele>
        <time>2022-04-03T07:37:00.000Z</time>
      </trkpt>
      <trkpt lat="49.64616" lon="4.7498">
        <ele>294</ele>
        <time>2022-04-03T07:37:01.000Z</time>
      </trkpt>
      <trkpt lat="49.64614" lon="4.74976">
        <ele>294</ele>
        <time>2022-04-03T07:37:02.000Z</time>
      </trkpt>
      <trkpt lat="49.64614" lon="4.74975">
        <ele>294</ele>
        <time>2022-04-03T07:37:03.000Z</time>
      </trkpt>
      <trkpt lat="49.64613" lon="4.74974">
        <ele>294</ele>
        <time>2022-04-03T07:37:04.000Z</time>
      </trkpt>
      <trkpt lat="49.64613" lon="4.74974">
        <ele>294</ele>
        <time>2022-04-03T07:37:05.000Z</time>
      </trkpt>
      <trkpt lat="49.64613" lon="4.74973">
        <ele>294</ele>
        <time>2022-04-03T07:37:06.000Z</time>
      </trkpt>
      <trkpt lat="49.64613" lon="4.74973">
        <ele>294</ele>
        <time>2022-04-03T07:37:07.000Z</time>
      </trkpt>
      <trkpt lat="49.64613" lon="4.74973">
        <ele>294</ele>
        <time>2022-04-03T07:37:08.000Z</time>
      </trkpt>
      <trkpt lat="49.64613" lon="4.74973">
        <ele>294</ele>
        <time>2022-04-03T07:37:09.000Z</time>
      </trkpt>
      <trkpt lat="49.64613" lon="4.74973">
        <ele>294</ele>
        <time>2022-04-03T07:37:10.000Z</time>
      </trkpt>
      <trkpt lat="49.64613" lon="4.74973">
        <ele>294</ele>
        <time>2022-04-03T07:37:11.000Z</time>
      </trkpt>
      <trkpt lat="49.64613" lon="4.74973">
        <ele>294</ele>
        <time>2022-04-03T07:37:12.000Z</time>
      </trkpt>
      <trkpt lat="49.64613" lon="4.74972">
        <ele>294</ele>
        <time>2022-04-03T07:37:13.000Z</time>
      </trkpt>
      <trkpt lat="49.64613" lon="4.74973">
        <ele>294</ele>
        <time>2022-04-03T07:37:14.000Z</time>
      </trkpt>
      <trkpt lat="49.64613" lon="4.74973">
        <ele>294</ele>
        <time>2022-04-03T07:37:15.000Z</time>
      </trkpt>
      <trkpt lat="49.64612" lon="4.74973">
        <ele>294</ele>
        <time>2022-04-03T07:37:16.000Z</time>
      </trkpt>
      <trkpt lat="49.64611" lon="4.74973">
        <ele>294</ele>
        <time>2022-04-03T07:37:17.000Z</time>
      </trkpt>
      <trkpt lat="49.64611" lon="4.74973">
        <ele>294</ele>
        <time>2022-04-03T07:37:18.000Z</time>
      </trkpt>
      <trkpt lat="49.64611" lon="4.74973">
        <ele>294</ele>
        <time>2022-04-03T07:37:19.000Z</time>
      </trkpt>
      <trkpt lat="49.64611" lon="4.74973">
        <ele>295</ele>
        <time>2022-04-03T07:37:20.000Z</time>
      </trkpt>
      <trkpt lat="49.64611" lon="4.74973">
        <ele>295</ele>
        <time>2022-04-03T07:37:21.000Z</time>
      </trkpt>
      <trkpt lat="49.64611" lon="4.74973">
        <ele>295</ele>
        <time>2022-04-03T07:37:22.000Z</time>
      </trkpt>
      <trkpt lat="49.64611" lon="4.74973">
        <ele>295</ele>
        <time>2022-04-03T07:37:23.000Z</time>
      </trkpt>
      <trkpt lat="49.64611" lon="4.74973">
        <ele>295</ele>
        <time>2022-04-03T07:37:24.000Z</time>
      </trkpt>
      <trkpt lat="49.64611" lon="4.74973">
        <ele>295</ele>
        <time>2022-04-03T07:37:25.000Z</time>
      </trkpt>
      <trkpt lat="49.64611" lon="4.74973">
        <ele>295</ele>
        <time>2022-04-03T07:37:26.000Z</time>
      </trkpt>
      <trkpt lat="49.64611" lon="4.74973">
        <ele>295</ele>
        <time>2022-04-03T07:37:27.000Z</time>
      </trkpt>
      <trkpt lat="49.64611" lon="4.74973">
        <ele>296</ele>
        <time>2022-04-03T07:37:28.000Z</time>
      </trkpt>
      <trkpt lat="49.64611" lon="4.74973">
        <ele>296</ele>
        <time>2022-04-03T07:37:29.000Z</time>
      </trkpt>
      <trkpt lat="49.64611" lon="4.74973">
        <ele>296</ele>
        <time>2022-04-03T07:37:30.000Z</time>
      </trkpt>
      <trkpt lat="49.6461" lon="4.74974">
        <ele>296</ele>
        <time>2022-04-03T07:37:31.000Z</time>
      </trkpt>
      <trkpt lat="49.6461" lon="4.74974">
        <ele>296</ele>
        <time>2022-04-03T07:37:32.000Z</time>
      </trkpt>
      <trkpt lat="49.6461" lon="4.74974">
        <ele>296</ele>
        <time>2022-04-03T07:37:33.000Z</time>
      </trkpt>
      <trkpt lat="49.6461" lon="4.74974">
        <ele>296</ele>
        <time>2022-04-03T07:37:34.000Z</time>
      </trkpt>
      <trkpt lat="49.6461" lon="4.74974">
        <ele>297</ele>
        <time>2022-04-03T07:37:35.000Z</time>
      </trkpt>
      <trkpt lat="49.6461" lon="4.74974">
        <ele>297</ele>
        <time>2022-04-03T07:37:36.000Z</time>
      </trkpt>
      <trkpt lat="49.6461" lon="4.74974">
        <ele>297</ele>
        <time>2022-04-03T07:37:37.000Z</time>
      </trkpt>
      <trkpt lat="49.6461" lon="4.74974">
        <ele>297</ele>
        <time>2022-04-03T07:37:38.000Z</time>
      </trkpt>
      <trkpt lat="49.6461" lon="4.74974">
        <ele>297</ele>
        <time>2022-04-03T07:37:39.000Z</time>
      </trkpt>
      <trkpt lat="49.6461" lon="4.74974">
        <ele>297</ele>
        <time>2022-04-03T07:37:40.000Z</time>
      </trkpt>
      <trkpt lat="49.6461" lon="4.74974">
        <ele>297</ele>
        <time>2022-04-03T07:37:41.000Z</time>
      </trkpt>
      <trkpt lat="49.6461" lon="4.74973">
        <ele>297</ele>
        <time>2022-04-03T07:37:42.000Z</time>
      </trkpt>
      <trkpt lat="49.64609" lon="4.7497">
        <ele>297</ele>
        <time>2022-04-03T07:37:43.000Z</time>
      </trkpt>
      <trkpt lat="49.64608" lon="4.74967">
        <ele>297</ele>
        <time>2022-04-03T07:37:44.000Z</time>
      </trkpt>
      <trkpt lat="49.64607" lon="4.74964">
        <ele>297</ele>
        <time>2022-04-03T07:37:45.000Z</time>
      </trkpt>
      <trkpt lat="49.64605" lon="4.74961">
        <ele>297</ele>
        <time>2022-04-03T07:37:46.000Z</time>
      </trkpt>
      <trkpt lat="49.64604" lon="4.74958">
        <ele>297</ele>
        <time>2022-04-03T07:37:47.000Z</time>
      </trkpt>
      <trkpt lat="49.64602" lon="4.74955">
        <ele>297</ele>
        <time>2022-04-03T07:37:48.000Z</time>
      </trkpt>
      <trkpt lat="49.646" lon="4.74951">
        <ele>297</ele>
        <time>2022-04-03T07:37:49.000Z</time>
      </trkpt>
      <trkpt lat="49.64598" lon="4.74948">
        <ele>297</ele>
        <time>2022-04-03T07:37:50.000Z</time>
      </trkpt>
      <trkpt lat="49.64596" lon="4.74944">
        <ele>297</ele>
        <time>2022-04-03T07:37:51.000Z</time>
      </trkpt>
      <trkpt lat="49.64594" lon="4.7494">
        <ele>297</ele>
        <time>2022-04-03T07:37:52.000Z</time>
      </trkpt>
      <trkpt lat="49.64593" lon="4.74936">
        <ele>297</ele>
        <time>2022-04-03T07:37:53.000Z</time>
      </trkpt>
      <trkpt lat="49.6459" lon="4.74931">
        <ele>297</ele>
        <time>2022-04-03T07:37:54.000Z</time>
      </trkpt>
      <trkpt lat="49.64587" lon="4.74926">
        <ele>297</ele>
        <time>2022-04-03T07:37:55.000Z</time>
      </trkpt>
      <trkpt lat="49.64583" lon="4.74922">
        <ele>297</ele>
        <time>2022-04-03T07:37:56.000Z</time>
      </trkpt>
      <trkpt lat="49.6458" lon="4.74919">
        <ele>297</ele>
        <time>2022-04-03T07:37:57.000Z</time>
      </trkpt>
      <trkpt lat="49.64576" lon="4.74917">
        <ele>296</ele>
        <time>2022-04-03T07:37:58.000Z</time>
      </trkpt>
      <trkpt lat="49.64573" lon="4.74917">
        <ele>296</ele>
        <time>2022-04-03T07:37:59.000Z</time>
      </trkpt>
      <trkpt lat="49.64571" lon="4.74918">
        <ele>296</ele>
        <time>2022-04-03T07:38:00.000Z</time>
      </trkpt>
      <trkpt lat="49.64569" lon="4.7492">
        <ele>296</ele>
        <time>2022-04-03T07:38:01.000Z</time>
      </trkpt>
      <trkpt lat="49.64568" lon="4.74923">
        <ele>296</ele>
        <time>2022-04-03T07:38:02.000Z</time>
      </trkpt>
      <trkpt lat="49.64568" lon="4.74926">
        <ele>296</ele>
        <time>2022-04-03T07:38:03.000Z</time>
      </trkpt>
      <trkpt lat="49.64568" lon="4.74929">
        <ele>296</ele>
        <time>2022-04-03T07:38:04.000Z</time>
      </trkpt>
      <trkpt lat="49.64568" lon="4.74932">
        <ele>295</ele>
        <time>2022-04-03T07:38:05.000Z</time>
      </trkpt>
      <trkpt lat="49.64568" lon="4.74935">
        <ele>295</ele>
        <time>2022-04-03T07:38:06.000Z</time>
      </trkpt>
      <trkpt lat="49.64568" lon="4.74939">
        <ele>295</ele>
        <time>2022-04-03T07:38:07.000Z</time>
      </trkpt>
      <trkpt lat="49.64568" lon="4.74943">
        <ele>295</ele>
        <time>2022-04-03T07:38:08.000Z</time>
      </trkpt>
      <trkpt lat="49.64568" lon="4.74947">
        <ele>295</ele>
        <time>2022-04-03T07:38:09.000Z</time>
      </trkpt>
      <trkpt lat="49.64568" lon="4.7495">
        <ele>294</ele>
        <time>2022-04-03T07:38:10.000Z</time>
      </trkpt>
      <trkpt lat="49.64568" lon="4.74954">
        <ele>294</ele>
        <time>2022-04-03T07:38:11.000Z</time>
      </trkpt>
      <trkpt lat="49.64567" lon="4.74958">
        <ele>294</ele>
        <time>2022-04-03T07:38:12.000Z</time>
      </trkpt>
      <trkpt lat="49.64567" lon="4.74961">
        <ele>294</ele>
        <time>2022-04-03T07:38:13.000Z</time>
      </trkpt>
      <trkpt lat="49.64567" lon="4.74965">
        <ele>294</ele>
        <time>2022-04-03T07:38:14.000Z</time>
      </trkpt>
      <trkpt lat="49.64567" lon="4.7497">
        <ele>294</ele>
        <time>2022-04-03T07:38:15.000Z</time>
      </trkpt>
      <trkpt lat="49.64568" lon="4.74974">
        <ele>294</ele>
        <time>2022-04-03T07:38:16.000Z</time>
      </trkpt>
      <trkpt lat="49.64567" lon="4.74978">
        <ele>294</ele>
        <time>2022-04-03T07:38:17.000Z</time>
      </trkpt>
      <trkpt lat="49.64566" lon="4.74981">
        <ele>294</ele>
        <time>2022-04-03T07:38:18.000Z</time>
      </trkpt>
      <trkpt lat="49.64565" lon="4.74984">
        <ele>294</ele>
        <time>2022-04-03T07:38:19.000Z</time>
      </trkpt>
      <trkpt lat="49.64564" lon="4.74987">
        <ele>294</ele>
        <time>2022-04-03T07:38:20.000Z</time>
      </trkpt>
      <trkpt lat="49.64562" lon="4.7499">
        <ele>294</ele>
        <time>2022-04-03T07:38:21.000Z</time>
      </trkpt>
      <trkpt lat="49.6456" lon="4.74993">
        <ele>294</ele>
        <time>2022-04-03T07:38:22.000Z</time>
      </trkpt>
      <trkpt lat="49.64558" lon="4.74995">
        <ele>294</ele>
        <time>2022-04-03T07:38:23.000Z</time>
      </trkpt>
      <trkpt lat="49.64556" lon="4.74998">
        <ele>294</ele>
        <time>2022-04-03T07:38:24.000Z</time>
      </trkpt>
      <trkpt lat="49.64554" lon="4.75">
        <ele>294</ele>
        <time>2022-04-03T07:38:25.000Z</time>
      </trkpt>
      <trkpt lat="49.64552" lon="4.75002">
        <ele>294</ele>
        <time>2022-04-03T07:38:26.000Z</time>
      </trkpt>
      <trkpt lat="49.6455" lon="4.75005">
        <ele>294</ele>
        <time>2022-04-03T07:38:27.000Z</time>
      </trkpt>
      <trkpt lat="49.64549" lon="4.75006">
        <ele>294</ele>
        <time>2022-04-03T07:38:28.000Z</time>
      </trkpt>
      <trkpt lat="49.64547" lon="4.75009">
        <ele>294</ele>
        <time>2022-04-03T07:38:29.000Z</time>
      </trkpt>
      <trkpt lat="49.64546" lon="4.75013">
        <ele>294</ele>
        <time>2022-04-03T07:38:30.000Z</time>
      </trkpt>
      <trkpt lat="49.64544" lon="4.75016">
        <ele>294</ele>
        <time>2022-04-03T07:38:31.000Z</time>
      </trkpt>
      <trkpt lat="49.64542" lon="4.75019">
        <ele>294</ele>
        <time>2022-04-03T07:38:32.000Z</time>
      </trkpt>
      <trkpt lat="49.6454" lon="4.75022">
        <ele>294</ele>
        <time>2022-04-03T07:38:33.000Z</time>
      </trkpt>
      <trkpt lat="49.64539" lon="4.75025">
        <ele>294</ele>
        <time>2022-04-03T07:38:34.000Z</time>
      </trkpt>
      <trkpt lat="49.64537" lon="4.75029">
        <ele>295</ele>
        <time>2022-04-03T07:38:35.000Z</time>
      </trkpt>
      <trkpt lat="49.64536" lon="4.75032">
        <ele>295</ele>
        <time>2022-04-03T07:38:36.000Z</time>
      </trkpt>
      <trkpt lat="49.64534" lon="4.75035">
        <ele>295</ele>
        <time>2022-04-03T07:38:37.000Z</time>
      </trkpt>
      <trkpt lat="49.64533" lon="4.75038">
        <ele>295</ele>
        <time>2022-04-03T07:38:38.000Z</time>
      </trkpt>
      <trkpt lat="49.64532" lon="4.75042">
        <ele>295</ele>
        <time>2022-04-03T07:38:39.000Z</time>
      </trkpt>
      <trkpt lat="49.64531" lon="4.75046">
        <ele>295</ele>
        <time>2022-04-03T07:38:40.000Z</time>
      </trkpt>
      <trkpt lat="49.64529" lon="4.75049">
        <ele>295</ele>
        <time>2022-04-03T07:38:41.000Z</time>
      </trkpt>
      <trkpt lat="49.64527" lon="4.75052">
        <ele>295</ele>
        <time>2022-04-03T07:38:42.000Z</time>
      </trkpt>
      <trkpt lat="49.64525" lon="4.75056">
        <ele>296</ele>
        <time>2022-04-03T07:38:43.000Z</time>
      </trkpt>
      <trkpt lat="49.64522" lon="4.7506">
        <ele>296</ele>
        <time>2022-04-03T07:38:44.000Z</time>
      </trkpt>
      <trkpt lat="49.6452" lon="4.75064">
        <ele>296</ele>
        <time>2022-04-03T07:38:45.000Z</time>
      </trkpt>
      <trkpt lat="49.64518" lon="4.75068">
        <ele>296</ele>
        <time>2022-04-03T07:38:46.000Z</time>
      </trkpt>
      <trkpt lat="49.64515" lon="4.75072">
        <ele>296</ele>
        <time>2022-04-03T07:38:47.000Z</time>
      </trkpt>
      <trkpt lat="49.64513" lon="4.75076">
        <ele>296</ele>
        <time>2022-04-03T07:38:48.000Z</time>
      </trkpt>
      <trkpt lat="49.64511" lon="4.75081">
        <ele>296</ele>
        <time>2022-04-03T07:38:49.000Z</time>
      </trkpt>
      <trkpt lat="49.64509" lon="4.75086">
        <ele>297</ele>
        <time>2022-04-03T07:38:50.000Z</time>
      </trkpt>
      <trkpt lat="49.64507" lon="4.7509">
        <ele>297</ele>
        <time>2022-04-03T07:38:51.000Z</time>
      </trkpt>
      <trkpt lat="49.64505" lon="4.75094">
        <ele>297</ele>
        <time>2022-04-03T07:38:52.000Z</time>
      </trkpt>
      <trkpt lat="49.64503" lon="4.75098">
        <ele>297</ele>
        <time>2022-04-03T07:38:53.000Z</time>
      </trkpt>
      <trkpt lat="49.64502" lon="4.75102">
        <ele>297</ele>
        <time>2022-04-03T07:38:54.000Z</time>
      </trkpt>
      <trkpt lat="49.645" lon="4.75107">
        <ele>298</ele>
        <time>2022-04-03T07:38:55.000Z</time>
      </trkpt>
      <trkpt lat="49.64498" lon="4.75111">
        <ele>298</ele>
        <time>2022-04-03T07:38:56.000Z</time>
      </trkpt>
      <trkpt lat="49.64497" lon="4.75115">
        <ele>298</ele>
        <time>2022-04-03T07:38:57.000Z</time>
      </trkpt>
      <trkpt lat="49.64495" lon="4.7512">
        <ele>298</ele>
        <time>2022-04-03T07:38:58.000Z</time>
      </trkpt>
      <trkpt lat="49.64493" lon="4.75124">
        <ele>298</ele>
        <time>2022-04-03T07:38:59.000Z</time>
      </trkpt>
      <trkpt lat="49.64492" lon="4.75128">
        <ele>298</ele>
        <time>2022-04-03T07:39:00.000Z</time>
      </trkpt>
      <trkpt lat="49.64491" lon="4.75131">
        <ele>299</ele>
        <time>2022-04-03T07:39:01.000Z</time>
      </trkpt>
      <trkpt lat="49.6449" lon="4.75135">
        <ele>299</ele>
        <time>2022-04-03T07:39:02.000Z</time>
      </trkpt>
      <trkpt lat="49.64489" lon="4.75139">
        <ele>299</ele>
        <time>2022-04-03T07:39:03.000Z</time>
      </trkpt>
      <trkpt lat="49.64488" lon="4.75143">
        <ele>299</ele>
        <time>2022-04-03T07:39:04.000Z</time>
      </trkpt>
      <trkpt lat="49.64486" lon="4.75148">
        <ele>299</ele>
        <time>2022-04-03T07:39:05.000Z</time>
      </trkpt>
      <trkpt lat="49.64485" lon="4.75151">
        <ele>299</ele>
        <time>2022-04-03T07:39:06.000Z</time>
      </trkpt>
      <trkpt lat="49.64484" lon="4.75155">
        <ele>300</ele>
        <time>2022-04-03T07:39:07.000Z</time>
      </trkpt>
      <trkpt lat="49.64483" lon="4.75159">
        <ele>300</ele>
        <time>2022-04-03T07:39:08.000Z</time>
      </trkpt>
      <trkpt lat="49.64482" lon="4.75163">
        <ele>300</ele>
        <time>2022-04-03T07:39:09.000Z</time>
      </trkpt>
      <trkpt lat="49.6448" lon="4.75167">
        <ele>300</ele>
        <time>2022-04-03T07:39:10.000Z</time>
      </trkpt>
      <trkpt lat="49.64479" lon="4.75171">
        <ele>300</ele>
        <time>2022-04-03T07:39:11.000Z</time>
      </trkpt>
      <trkpt lat="49.64478" lon="4.75176">
        <ele>301</ele>
        <time>2022-04-03T07:39:12.000Z</time>
      </trkpt>
      <trkpt lat="49.64477" lon="4.7518">
        <ele>301</ele>
        <time>2022-04-03T07:39:13.000Z</time>
      </trkpt>
      <trkpt lat="49.64476" lon="4.75184">
        <ele>301</ele>
        <time>2022-04-03T07:39:14.000Z</time>
      </trkpt>
      <trkpt lat="49.64475" lon="4.75188">
        <ele>301</ele>
        <time>2022-04-03T07:39:15.000Z</time>
      </trkpt>
      <trkpt lat="49.64475" lon="4.75192">
        <ele>301</ele>
        <time>2022-04-03T07:39:16.000Z</time>
      </trkpt>
      <trkpt lat="49.64477" lon="4.75197">
        <ele>301</ele>
        <time>2022-04-03T07:39:17.000Z</time>
      </trkpt>
      <trkpt lat="49.64478" lon="4.75201">
        <ele>302</ele>
        <time>2022-04-03T07:39:18.000Z</time>
      </trkpt>
      <trkpt lat="49.6448" lon="4.75206">
        <ele>302</ele>
        <time>2022-04-03T07:39:19.000Z</time>
      </trkpt>
      <trkpt lat="49.64481" lon="4.75209">
        <ele>302</ele>
        <time>2022-04-03T07:39:20.000Z</time>
      </trkpt>
      <trkpt lat="49.64483" lon="4.75213">
        <ele>302</ele>
        <time>2022-04-03T07:39:21.000Z</time>
      </trkpt>
      <trkpt lat="49.64484" lon="4.75215">
        <ele>302</ele>
        <time>2022-04-03T07:39:22.000Z</time>
      </trkpt>
      <trkpt lat="49.64485" lon="4.75217">
        <ele>302</ele>
        <time>2022-04-03T07:39:23.000Z</time>
      </trkpt>
      <trkpt lat="49.64486" lon="4.7522">
        <ele>303</ele>
        <time>2022-04-03T07:39:24.000Z</time>
      </trkpt>
      <trkpt lat="49.64488" lon="4.75223">
        <ele>303</ele>
        <time>2022-04-03T07:39:25.000Z</time>
      </trkpt>
      <trkpt lat="49.6449" lon="4.75226">
        <ele>303</ele>
        <time>2022-04-03T07:39:26.000Z</time>
      </trkpt>
      <trkpt lat="49.64492" lon="4.7523">
        <ele>303</ele>
        <time>2022-04-03T07:39:27.000Z</time>
      </trkpt>
      <trkpt lat="49.64495" lon="4.75233">
        <ele>303</ele>
        <time>2022-04-03T07:39:28.000Z</time>
      </trkpt>
      <trkpt lat="49.64497" lon="4.75237">
        <ele>303</ele>
        <time>2022-04-03T07:39:29.000Z</time>
      </trkpt>
      <trkpt lat="49.64499" lon="4.7524">
        <ele>303</ele>
        <time>2022-04-03T07:39:30.000Z</time>
      </trkpt>
      <trkpt lat="49.64502" lon="4.75244">
        <ele>303</ele>
        <time>2022-04-03T07:39:31.000Z</time>
      </trkpt>
      <trkpt lat="49.64504" lon="4.75247">
        <ele>303</ele>
        <time>2022-04-03T07:39:32.000Z</time>
      </trkpt>
      <trkpt lat="49.64507" lon="4.7525">
        <ele>304</ele>
        <time>2022-04-03T07:39:33.000Z</time>
      </trkpt>
      <trkpt lat="49.64509" lon="4.75254">
        <ele>304</ele>
        <time>2022-04-03T07:39:34.000Z</time>
      </trkpt>
      <trkpt lat="49.64512" lon="4.75257">
        <ele>304</ele>
        <time>2022-04-03T07:39:35.000Z</time>
      </trkpt>
      <trkpt lat="49.64515" lon="4.75259">
        <ele>304</ele>
        <time>2022-04-03T07:39:36.000Z</time>
      </trkpt>
      <trkpt lat="49.64518" lon="4.75262">
        <ele>304</ele>
        <time>2022-04-03T07:39:37.000Z</time>
      </trkpt>
      <trkpt lat="49.64521" lon="4.75264">
        <ele>305</ele>
        <time>2022-04-03T07:39:38.000Z</time>
      </trkpt>
      <trkpt lat="49.64524" lon="4.75266">
        <ele>305</ele>
        <time>2022-04-03T07:39:39.000Z</time>
      </trkpt>
      <trkpt lat="49.64528" lon="4.75268">
        <ele>306</ele>
        <time>2022-04-03T07:39:40.000Z</time>
      </trkpt>
      <trkpt lat="49.64531" lon="4.75271">
        <ele>306</ele>
        <time>2022-04-03T07:39:41.000Z</time>
      </trkpt>
      <trkpt lat="49.64534" lon="4.75272">
        <ele>306</ele>
        <time>2022-04-03T07:39:42.000Z</time>
      </trkpt>
      <trkpt lat="49.64537" lon="4.75274">
        <ele>307</ele>
        <time>2022-04-03T07:39:43.000Z</time>
      </trkpt>
      <trkpt lat="49.64539" lon="4.75276">
        <ele>307</ele>
        <time>2022-04-03T07:39:44.000Z</time>
      </trkpt>
      <trkpt lat="49.64541" lon="4.75279">
        <ele>307</ele>
        <time>2022-04-03T07:39:45.000Z</time>
      </trkpt>
      <trkpt lat="49.64541" lon="4.75282">
        <ele>308</ele>
        <time>2022-04-03T07:39:46.000Z</time>
      </trkpt>
      <trkpt lat="49.6454" lon="4.75284">
        <ele>308</ele>
        <time>2022-04-03T07:39:47.000Z</time>
      </trkpt>
      <trkpt lat="49.64538" lon="4.75286">
        <ele>308</ele>
        <time>2022-04-03T07:39:48.000Z</time>
      </trkpt>
      <trkpt lat="49.64536" lon="4.75288">
        <ele>308</ele>
        <time>2022-04-03T07:39:49.000Z</time>
      </trkpt>
      <trkpt lat="49.64533" lon="4.75289">
        <ele>309</ele>
        <time>2022-04-03T07:39:50.000Z</time>
      </trkpt>
      <trkpt lat="49.64531" lon="4.75291">
        <ele>309</ele>
        <time>2022-04-03T07:39:51.000Z</time>
      </trkpt>
      <trkpt lat="49.64529" lon="4.75291">
        <ele>309</ele>
        <time>2022-04-03T07:39:52.000Z</time>
      </trkpt>
      <trkpt lat="49.64526" lon="4.75293">
        <ele>309</ele>
        <time>2022-04-03T07:39:53.000Z</time>
      </trkpt>
      <trkpt lat="49.64523" lon="4.75294">
        <ele>310</ele>
        <time>2022-04-03T07:39:54.000Z</time>
      </trkpt>
      <trkpt lat="49.6452" lon="4.75295">
        <ele>310</ele>
        <time>2022-04-03T07:39:55.000Z</time>
      </trkpt>
      <trkpt lat="49.64516" lon="4.75296">
        <ele>310</ele>
        <time>2022-04-03T07:39:56.000Z</time>
      </trkpt>
      <trkpt lat="49.64512" lon="4.75298">
        <ele>310</ele>
        <time>2022-04-03T07:39:57.000Z</time>
      </trkpt>
      <trkpt lat="49.64508" lon="4.75299">
        <ele>310</ele>
        <time>2022-04-03T07:39:58.000Z</time>
      </trkpt>
      <trkpt lat="49.64504" lon="4.75301">
        <ele>311</ele>
        <time>2022-04-03T07:39:59.000Z</time>
      </trkpt>
      <trkpt lat="49.645" lon="4.75303">
        <ele>311</ele>
        <time>2022-04-03T07:40:00.000Z</time>
      </trkpt>
      <trkpt lat="49.64495" lon="4.75304">
        <ele>311</ele>
        <time>2022-04-03T07:40:01.000Z</time>
      </trkpt>
      <trkpt lat="49.6449" lon="4.75306">
        <ele>311</ele>
        <time>2022-04-03T07:40:02.000Z</time>
      </trkpt>
      <trkpt lat="49.64485" lon="4.75308">
        <ele>310</ele>
        <time>2022-04-03T07:40:03.000Z</time>
      </trkpt>
      <trkpt lat="49.64481" lon="4.7531">
        <ele>310</ele>
        <time>2022-04-03T07:40:04.000Z</time>
      </trkpt>
      <trkpt lat="49.64476" lon="4.75312">
        <ele>310</ele>
        <time>2022-04-03T07:40:05.000Z</time>
      </trkpt>
      <trkpt lat="49.64471" lon="4.75314">
        <ele>310</ele>
        <time>2022-04-03T07:40:06.000Z</time>
      </trkpt>
      <trkpt lat="49.64467" lon="4.75315">
        <ele>310</ele>
        <time>2022-04-03T07:40:07.000Z</time>
      </trkpt>
      <trkpt lat="49.64462" lon="4.75316">
        <ele>310</ele>
        <time>2022-04-03T07:40:08.000Z</time>
      </trkpt>
      <trkpt lat="49.64458" lon="4.75318">
        <ele>310</ele>
        <time>2022-04-03T07:40:09.000Z</time>
      </trkpt>
      <trkpt lat="49.64453" lon="4.75319">
        <ele>310</ele>
        <time>2022-04-03T07:40:10.000Z</time>
      </trkpt>
      <trkpt lat="49.64448" lon="4.75321">
        <ele>310</ele>
        <time>2022-04-03T07:40:11.000Z</time>
      </trkpt>
      <trkpt lat="49.64444" lon="4.75324">
        <ele>311</ele>
        <time>2022-04-03T07:40:12.000Z</time>
      </trkpt>
      <trkpt lat="49.64439" lon="4.75328">
        <ele>311</ele>
        <time>2022-04-03T07:40:13.000Z</time>
      </trkpt>
      <trkpt lat="49.64436" lon="4.75331">
        <ele>311</ele>
        <time>2022-04-03T07:40:14.000Z</time>
      </trkpt>
      <trkpt lat="49.64431" lon="4.75332">
        <ele>311</ele>
        <time>2022-04-03T07:40:15.000Z</time>
      </trkpt>
      <trkpt lat="49.64427" lon="4.75334">
        <ele>311</ele>
        <time>2022-04-03T07:40:16.000Z</time>
      </trkpt>
      <trkpt lat="49.64423" lon="4.75336">
        <ele>311</ele>
        <time>2022-04-03T07:40:17.000Z</time>
      </trkpt>
      <trkpt lat="49.64419" lon="4.75337">
        <ele>311</ele>
        <time>2022-04-03T07:40:18.000Z</time>
      </trkpt>
      <trkpt lat="49.64415" lon="4.75339">
        <ele>311</ele>
        <time>2022-04-03T07:40:19.000Z</time>
      </trkpt>
      <trkpt lat="49.64411" lon="4.75341">
        <ele>311</ele>
        <time>2022-04-03T07:40:20.000Z</time>
      </trkpt>
      <trkpt lat="49.64407" lon="4.75342">
        <ele>311</ele>
        <time>2022-04-03T07:40:21.000Z</time>
      </trkpt>
      <trkpt lat="49.64403" lon="4.75344">
        <ele>311</ele>
        <time>2022-04-03T07:40:22.000Z</time>
      </trkpt>
      <trkpt lat="49.64399" lon="4.75345">
        <ele>311</ele>
        <time>2022-04-03T07:40:23.000Z</time>
      </trkpt>
      <trkpt lat="49.64395" lon="4.75347">
        <ele>311</ele>
        <time>2022-04-03T07:40:24.000Z</time>
      </trkpt>
      <trkpt lat="49.64391" lon="4.75349">
        <ele>311</ele>
        <time>2022-04-03T07:40:25.000Z</time>
      </trkpt>
      <trkpt lat="49.64388" lon="4.75351">
        <ele>311</ele>
        <time>2022-04-03T07:40:26.000Z</time>
      </trkpt>
      <trkpt lat="49.64384" lon="4.75353">
        <ele>311</ele>
        <time>2022-04-03T07:40:27.000Z</time>
      </trkpt>
      <trkpt lat="49.64381" lon="4.75355">
        <ele>311</ele>
        <time>2022-04-03T07:40:28.000Z</time>
      </trkpt>
      <trkpt lat="49.64377" lon="4.75356">
        <ele>311</ele>
        <time>2022-04-03T07:40:29.000Z</time>
      </trkpt>
      <trkpt lat="49.64373" lon="4.75357">
        <ele>311</ele>
        <time>2022-04-03T07:40:30.000Z</time>
      </trkpt>
      <trkpt lat="49.6437" lon="4.75358">
        <ele>311</ele>
        <time>2022-04-03T07:40:31.000Z</time>
      </trkpt>
      <trkpt lat="49.64366" lon="4.7536">
        <ele>311</ele>
        <time>2022-04-03T07:40:32.000Z</time>
      </trkpt>
      <trkpt lat="49.64361" lon="4.75361">
        <ele>311</ele>
        <time>2022-04-03T07:40:33.000Z</time>
      </trkpt>
      <trkpt lat="49.64357" lon="4.75363">
        <ele>311</ele>
        <time>2022-04-03T07:40:34.000Z</time>
      </trkpt>
      <trkpt lat="49.64352" lon="4.75364">
        <ele>311</ele>
        <time>2022-04-03T07:40:35.000Z</time>
      </trkpt>
      <trkpt lat="49.64348" lon="4.75366">
        <ele>311</ele>
        <time>2022-04-03T07:40:36.000Z</time>
      </trkpt>
      <trkpt lat="49.64344" lon="4.75367">
        <ele>311</ele>
        <time>2022-04-03T07:40:37.000Z</time>
      </trkpt>
      <trkpt lat="49.64339" lon="4.75369">
        <ele>312</ele>
        <time>2022-04-03T07:40:38.000Z</time>
      </trkpt>
      <trkpt lat="49.64335" lon="4.75371">
        <ele>312</ele>
        <time>2022-04-03T07:40:39.000Z</time>
      </trkpt>
      <trkpt lat="49.64331" lon="4.75373">
        <ele>312</ele>
        <time>2022-04-03T07:40:40.000Z</time>
      </trkpt>
      <trkpt lat="49.64327" lon="4.75375">
        <ele>312</ele>
        <time>2022-04-03T07:40:41.000Z</time>
      </trkpt>
      <trkpt lat="49.64323" lon="4.75376">
        <ele>311</ele>
        <time>2022-04-03T07:40:42.000Z</time>
      </trkpt>
      <trkpt lat="49.64318" lon="4.75377">
        <ele>311</ele>
        <time>2022-04-03T07:40:43.000Z</time>
      </trkpt>
      <trkpt lat="49.64314" lon="4.75379">
        <ele>311</ele>
        <time>2022-04-03T07:40:44.000Z</time>
      </trkpt>
      <trkpt lat="49.6431" lon="4.7538">
        <ele>311</ele>
        <time>2022-04-03T07:40:45.000Z</time>
      </trkpt>
      <trkpt lat="49.64305" lon="4.75382">
        <ele>311</ele>
        <time>2022-04-03T07:40:46.000Z</time>
      </trkpt>
      <trkpt lat="49.643" lon="4.75384">
        <ele>311</ele>
        <time>2022-04-03T07:40:47.000Z</time>
      </trkpt>
      <trkpt lat="49.64295" lon="4.75386">
        <ele>311</ele>
        <time>2022-04-03T07:40:48.000Z</time>
      </trkpt>
      <trkpt lat="49.6429" lon="4.75388">
        <ele>311</ele>
        <time>2022-04-03T07:40:49.000Z</time>
      </trkpt>
      <trkpt lat="49.64285" lon="4.7539">
        <ele>311</ele>
        <time>2022-04-03T07:40:50.000Z</time>
      </trkpt>
      <trkpt lat="49.64281" lon="4.75392">
        <ele>310</ele>
        <time>2022-04-03T07:40:51.000Z</time>
      </trkpt>
      <trkpt lat="49.64276" lon="4.75395">
        <ele>310</ele>
        <time>2022-04-03T07:40:52.000Z</time>
      </trkpt>
      <trkpt lat="49.64272" lon="4.75398">
        <ele>310</ele>
        <time>2022-04-03T07:40:53.000Z</time>
      </trkpt>
      <trkpt lat="49.64267" lon="4.75401">
        <ele>310</ele>
        <time>2022-04-03T07:40:54.000Z</time>
      </trkpt>
      <trkpt lat="49.64262" lon="4.75403">
        <ele>310</ele>
        <time>2022-04-03T07:40:55.000Z</time>
      </trkpt>
      <trkpt lat="49.64256" lon="4.75406">
        <ele>309</ele>
        <time>2022-04-03T07:40:56.000Z</time>
      </trkpt>
      <trkpt lat="49.64251" lon="4.75408">
        <ele>309</ele>
        <time>2022-04-03T07:40:57.000Z</time>
      </trkpt>
      <trkpt lat="49.64246" lon="4.7541">
        <ele>309</ele>
        <time>2022-04-03T07:40:58.000Z</time>
      </trkpt>
      <trkpt lat="49.6424" lon="4.75412">
        <ele>309</ele>
        <time>2022-04-03T07:40:59.000Z</time>
      </trkpt>
      <trkpt lat="49.64234" lon="4.75415">
        <ele>308</ele>
        <time>2022-04-03T07:41:00.000Z</time>
      </trkpt>
      <trkpt lat="49.64229" lon="4.75417">
        <ele>308</ele>
        <time>2022-04-03T07:41:01.000Z</time>
      </trkpt>
      <trkpt lat="49.64224" lon="4.75418">
        <ele>308</ele>
        <time>2022-04-03T07:41:02.000Z</time>
      </trkpt>
      <trkpt lat="49.64219" lon="4.7542">
        <ele>307</ele>
        <time>2022-04-03T07:41:03.000Z</time>
      </trkpt>
      <trkpt lat="49.64213" lon="4.75421">
        <ele>307</ele>
        <time>2022-04-03T07:41:04.000Z</time>
      </trkpt>
      <trkpt lat="49.64207" lon="4.75423">
        <ele>307</ele>
        <time>2022-04-03T07:41:05.000Z</time>
      </trkpt>
      <trkpt lat="49.64201" lon="4.75425">
        <ele>306</ele>
        <time>2022-04-03T07:41:06.000Z</time>
      </trkpt>
      <trkpt lat="49.64195" lon="4.75427">
        <ele>306</ele>
        <time>2022-04-03T07:41:07.000Z</time>
      </trkpt>
      <trkpt lat="49.64189" lon="4.7543">
        <ele>305</ele>
        <time>2022-04-03T07:41:08.000Z</time>
      </trkpt>
      <trkpt lat="49.64182" lon="4.75432">
        <ele>305</ele>
        <time>2022-04-03T07:41:09.000Z</time>
      </trkpt>
      <trkpt lat="49.64176" lon="4.75434">
        <ele>305</ele>
        <time>2022-04-03T07:41:10.000Z</time>
      </trkpt>
      <trkpt lat="49.64169" lon="4.75437">
        <ele>304</ele>
        <time>2022-04-03T07:41:11.000Z</time>
      </trkpt>
      <trkpt lat="49.64163" lon="4.75439">
        <ele>304</ele>
        <time>2022-04-03T07:41:12.000Z</time>
      </trkpt>
      <trkpt lat="49.64157" lon="4.75441">
        <ele>304</ele>
        <time>2022-04-03T07:41:13.000Z</time>
      </trkpt>
      <trkpt lat="49.64153" lon="4.75443">
        <ele>303</ele>
        <time>2022-04-03T07:41:14.000Z</time>
      </trkpt>
      <trkpt lat="49.6415" lon="4.75445">
        <ele>303</ele>
        <time>2022-04-03T07:41:15.000Z</time>
      </trkpt>
      <trkpt lat="49.64147" lon="4.75448">
        <ele>303</ele>
        <time>2022-04-03T07:41:16.000Z</time>
      </trkpt>
      <trkpt lat="49.64144" lon="4.75449">
        <ele>302</ele>
        <time>2022-04-03T07:41:17.000Z</time>
      </trkpt>
      <trkpt lat="49.64141" lon="4.75448">
        <ele>302</ele>
        <time>2022-04-03T07:41:18.000Z</time>
      </trkpt>
      <trkpt lat="49.64137" lon="4.75445">
        <ele>302</ele>
        <time>2022-04-03T07:41:19.000Z</time>
      </trkpt>
      <trkpt lat="49.64133" lon="4.75442">
        <ele>301</ele>
        <time>2022-04-03T07:41:20.000Z</time>
      </trkpt>
      <trkpt lat="49.64128" lon="4.7544">
        <ele>301</ele>
        <time>2022-04-03T07:41:21.000Z</time>
      </trkpt>
      <trkpt lat="49.64124" lon="4.75438">
        <ele>301</ele>
        <time>2022-04-03T07:41:22.000Z</time>
      </trkpt>
      <trkpt lat="49.64119" lon="4.75438">
        <ele>300</ele>
        <time>2022-04-03T07:41:23.000Z</time>
      </trkpt>
      <trkpt lat="49.64113" lon="4.75437">
        <ele>300</ele>
        <time>2022-04-03T07:41:24.000Z</time>
      </trkpt>
      <trkpt lat="49.64108" lon="4.75435">
        <ele>300</ele>
        <time>2022-04-03T07:41:25.000Z</time>
      </trkpt>
      <trkpt lat="49.64103" lon="4.75431">
        <ele>299</ele>
        <time>2022-04-03T07:41:26.000Z</time>
      </trkpt>
      <trkpt lat="49.64097" lon="4.75428">
        <ele>299</ele>
        <time>2022-04-03T07:41:27.000Z</time>
      </trkpt>
      <trkpt lat="49.64091" lon="4.75425">
        <ele>298</ele>
        <time>2022-04-03T07:41:28.000Z</time>
      </trkpt>
      <trkpt lat="49.64086" lon="4.75421">
        <ele>298</ele>
        <time>2022-04-03T07:41:29.000Z</time>
      </trkpt>
      <trkpt lat="49.64081" lon="4.75417">
        <ele>297</ele>
        <time>2022-04-03T07:41:30.000Z</time>
      </trkpt>
      <trkpt lat="49.64076" lon="4.75414">
        <ele>297</ele>
        <time>2022-04-03T07:41:31.000Z</time>
      </trkpt>
      <trkpt lat="49.64071" lon="4.75411">
        <ele>297</ele>
        <time>2022-04-03T07:41:32.000Z</time>
      </trkpt>
      <trkpt lat="49.64067" lon="4.75409">
        <ele>296</ele>
        <time>2022-04-03T07:41:33.000Z</time>
      </trkpt>
      <trkpt lat="49.64063" lon="4.75407">
        <ele>296</ele>
        <time>2022-04-03T07:41:34.000Z</time>
      </trkpt>
      <trkpt lat="49.64059" lon="4.75403">
        <ele>296</ele>
        <time>2022-04-03T07:41:35.000Z</time>
      </trkpt>
      <trkpt lat="49.64057" lon="4.75399">
        <ele>295</ele>
        <time>2022-04-03T07:41:36.000Z</time>
      </trkpt>
      <trkpt lat="49.64054" lon="4.75396">
        <ele>295</ele>
        <time>2022-04-03T07:41:37.000Z</time>
      </trkpt>
      <trkpt lat="49.64051" lon="4.75393">
        <ele>294</ele>
        <time>2022-04-03T07:41:38.000Z</time>
      </trkpt>
      <trkpt lat="49.64048" lon="4.75389">
        <ele>294</ele>
        <time>2022-04-03T07:41:39.000Z</time>
      </trkpt>
      <trkpt lat="49.64046" lon="4.75385">
        <ele>293</ele>
        <time>2022-04-03T07:41:40.000Z</time>
      </trkpt>
      <trkpt lat="49.64044" lon="4.7538">
        <ele>293</ele>
        <time>2022-04-03T07:41:41.000Z</time>
      </trkpt>
      <trkpt lat="49.64041" lon="4.75376">
        <ele>293</ele>
        <time>2022-04-03T07:41:42.000Z</time>
      </trkpt>
      <trkpt lat="49.6404" lon="4.75372">
        <ele>293</ele>
        <time>2022-04-03T07:41:43.000Z</time>
      </trkpt>
      <trkpt lat="49.64038" lon="4.75368">
        <ele>292</ele>
        <time>2022-04-03T07:41:44.000Z</time>
      </trkpt>
      <trkpt lat="49.64036" lon="4.75364">
        <ele>292</ele>
        <time>2022-04-03T07:41:45.000Z</time>
      </trkpt>
      <trkpt lat="49.64034" lon="4.7536">
        <ele>292</ele>
        <time>2022-04-03T07:41:46.000Z</time>
      </trkpt>
      <trkpt lat="49.64033" lon="4.75356">
        <ele>292</ele>
        <time>2022-04-03T07:41:47.000Z</time>
      </trkpt>
      <trkpt lat="49.64032" lon="4.75351">
        <ele>292</ele>
        <time>2022-04-03T07:41:48.000Z</time>
      </trkpt>
      <trkpt lat="49.64032" lon="4.75347">
        <ele>292</ele>
        <time>2022-04-03T07:41:49.000Z</time>
      </trkpt>
      <trkpt lat="49.64031" lon="4.75341">
        <ele>292</ele>
        <time>2022-04-03T07:41:50.000Z</time>
      </trkpt>
      <trkpt lat="49.64031" lon="4.75336">
        <ele>292</ele>
        <time>2022-04-03T07:41:51.000Z</time>
      </trkpt>
      <trkpt lat="49.64031" lon="4.75331">
        <ele>292</ele>
        <time>2022-04-03T07:41:52.000Z</time>
      </trkpt>
      <trkpt lat="49.64031" lon="4.75326">
        <ele>292</ele>
        <time>2022-04-03T07:41:53.000Z</time>
      </trkpt>
      <trkpt lat="49.6403" lon="4.75321">
        <ele>292</ele>
        <time>2022-04-03T07:41:54.000Z</time>
      </trkpt>
      <trkpt lat="49.6403" lon="4.75317">
        <ele>292</ele>
        <time>2022-04-03T07:41:55.000Z</time>
      </trkpt>
      <trkpt lat="49.6403" lon="4.75311">
        <ele>293</ele>
        <time>2022-04-03T07:41:56.000Z</time>
      </trkpt>
      <trkpt lat="49.6403" lon="4.75306">
        <ele>293</ele>
        <time>2022-04-03T07:41:57.000Z</time>
      </trkpt>
      <trkpt lat="49.6403" lon="4.75302">
        <ele>293</ele>
        <time>2022-04-03T07:41:58.000Z</time>
      </trkpt>
      <trkpt lat="49.6403" lon="4.75298">
        <ele>293</ele>
        <time>2022-04-03T07:41:59.000Z</time>
      </trkpt>
      <trkpt lat="49.6403" lon="4.75293">
        <ele>293</ele>
        <time>2022-04-03T07:42:00.000Z</time>
      </trkpt>
      <trkpt lat="49.6403" lon="4.7529">
        <ele>293</ele>
        <time>2022-04-03T07:42:01.000Z</time>
      </trkpt>
      <trkpt lat="49.6403" lon="4.75285">
        <ele>293</ele>
        <time>2022-04-03T07:42:02.000Z</time>
      </trkpt>
      <trkpt lat="49.6403" lon="4.7528">
        <ele>293</ele>
        <time>2022-04-03T07:42:03.000Z</time>
      </trkpt>
      <trkpt lat="49.6403" lon="4.75275">
        <ele>293</ele>
        <time>2022-04-03T07:42:04.000Z</time>
      </trkpt>
      <trkpt lat="49.6403" lon="4.75269">
        <ele>293</ele>
        <time>2022-04-03T07:42:05.000Z</time>
      </trkpt>
      <trkpt lat="49.6403" lon="4.75264">
        <ele>293</ele>
        <time>2022-04-03T07:42:06.000Z</time>
      </trkpt>
      <trkpt lat="49.64031" lon="4.7526">
        <ele>293</ele>
        <time>2022-04-03T07:42:07.000Z</time>
      </trkpt>
      <trkpt lat="49.6403" lon="4.75255">
        <ele>293</ele>
        <time>2022-04-03T07:42:08.000Z</time>
      </trkpt>
      <trkpt lat="49.6403" lon="4.75249">
        <ele>294</ele>
        <time>2022-04-03T07:42:09.000Z</time>
      </trkpt>
      <trkpt lat="49.6403" lon="4.75243">
        <ele>294</ele>
        <time>2022-04-03T07:42:10.000Z</time>
      </trkpt>
      <trkpt lat="49.64029" lon="4.75238">
        <ele>294</ele>
        <time>2022-04-03T07:42:11.000Z</time>
      </trkpt>
      <trkpt lat="49.64029" lon="4.75232">
        <ele>294</ele>
        <time>2022-04-03T07:42:12.000Z</time>
      </trkpt>
      <trkpt lat="49.64029" lon="4.75226">
        <ele>294</ele>
        <time>2022-04-03T07:42:13.000Z</time>
      </trkpt>
      <trkpt lat="49.64029" lon="4.7522">
        <ele>294</ele>
        <time>2022-04-03T07:42:14.000Z</time>
      </trkpt>
      <trkpt lat="49.64029" lon="4.75214">
        <ele>294</ele>
        <time>2022-04-03T07:42:15.000Z</time>
      </trkpt>
      <trkpt lat="49.64028" lon="4.75208">
        <ele>294</ele>
        <time>2022-04-03T07:42:16.000Z</time>
      </trkpt>
      <trkpt lat="49.64028" lon="4.75202">
        <ele>294</ele>
        <time>2022-04-03T07:42:17.000Z</time>
      </trkpt>
      <trkpt lat="49.64028" lon="4.75197">
        <ele>294</ele>
        <time>2022-04-03T07:42:18.000Z</time>
      </trkpt>
      <trkpt lat="49.64027" lon="4.75192">
        <ele>294</ele>
        <time>2022-04-03T07:42:19.000Z</time>
      </trkpt>
      <trkpt lat="49.64027" lon="4.75186">
        <ele>294</ele>
        <time>2022-04-03T07:42:20.000Z</time>
      </trkpt>
      <trkpt lat="49.64027" lon="4.75181">
        <ele>294</ele>
        <time>2022-04-03T07:42:21.000Z</time>
      </trkpt>
      <trkpt lat="49.64027" lon="4.75175">
        <ele>294</ele>
        <time>2022-04-03T07:42:22.000Z</time>
      </trkpt>
      <trkpt lat="49.64027" lon="4.7517">
        <ele>294</ele>
        <time>2022-04-03T07:42:23.000Z</time>
      </trkpt>
      <trkpt lat="49.64026" lon="4.75165">
        <ele>294</ele>
        <time>2022-04-03T07:42:24.000Z</time>
      </trkpt>
      <trkpt lat="49.64026" lon="4.7516">
        <ele>294</ele>
        <time>2022-04-03T07:42:25.000Z</time>
      </trkpt>
      <trkpt lat="49.64025" lon="4.75156">
        <ele>294</ele>
        <time>2022-04-03T07:42:26.000Z</time>
      </trkpt>
      <trkpt lat="49.64025" lon="4.75151">
        <ele>294</ele>
        <time>2022-04-03T07:42:27.000Z</time>
      </trkpt>
      <trkpt lat="49.64025" lon="4.75151">
        <ele>294</ele>
        <time>2022-04-03T07:42:28.000Z</time>
      </trkpt>
      <trkpt lat="49.64024" lon="4.75146">
        <ele>294</ele>
        <time>2022-04-03T07:42:29.000Z</time>
      </trkpt>
      <trkpt lat="49.64024" lon="4.75141">
        <ele>294</ele>
        <time>2022-04-03T07:42:30.000Z</time>
      </trkpt>
      <trkpt lat="49.64023" lon="4.75135">
        <ele>294</ele>
        <time>2022-04-03T07:42:31.000Z</time>
      </trkpt>
      <trkpt lat="49.64024" lon="4.7513">
        <ele>294</ele>
        <time>2022-04-03T07:42:32.000Z</time>
      </trkpt>
      <trkpt lat="49.64023" lon="4.75125">
        <ele>295</ele>
        <time>2022-04-03T07:42:33.000Z</time>
      </trkpt>
      <trkpt lat="49.64023" lon="4.75119">
        <ele>295</ele>
        <time>2022-04-03T07:42:34.000Z</time>
      </trkpt>
      <trkpt lat="49.64024" lon="4.75114">
        <ele>295</ele>
        <time>2022-04-03T07:42:35.000Z</time>
      </trkpt>
      <trkpt lat="49.64024" lon="4.75108">
        <ele>295</ele>
        <time>2022-04-03T07:42:36.000Z</time>
      </trkpt>
      <trkpt lat="49.64024" lon="4.75103">
        <ele>295</ele>
        <time>2022-04-03T07:42:37.000Z</time>
      </trkpt>
      <trkpt lat="49.64024" lon="4.75097">
        <ele>295</ele>
        <time>2022-04-03T07:42:38.000Z</time>
      </trkpt>
      <trkpt lat="49.64024" lon="4.75085">
        <ele>295</ele>
        <time>2022-04-03T07:42:39.000Z</time>
      </trkpt>
      <trkpt lat="49.64024" lon="4.75079">
        <ele>295</ele>
        <time>2022-04-03T07:42:40.000Z</time>
      </trkpt>
      <trkpt lat="49.64024" lon="4.75073">
        <ele>295</ele>
        <time>2022-04-03T07:42:41.000Z</time>
      </trkpt>
      <trkpt lat="49.64025" lon="4.75067">
        <ele>295</ele>
        <time>2022-04-03T07:42:42.000Z</time>
      </trkpt>
      <trkpt lat="49.64024" lon="4.75061">
        <ele>295</ele>
        <time>2022-04-03T07:42:43.000Z</time>
      </trkpt>
      <trkpt lat="49.64024" lon="4.75056">
        <ele>295</ele>
        <time>2022-04-03T07:42:44.000Z</time>
      </trkpt>
      <trkpt lat="49.64024" lon="4.7505">
        <ele>296</ele>
        <time>2022-04-03T07:42:45.000Z</time>
      </trkpt>
      <trkpt lat="49.64024" lon="4.75043">
        <ele>296</ele>
        <time>2022-04-03T07:42:46.000Z</time>
      </trkpt>
      <trkpt lat="49.64024" lon="4.75037">
        <ele>296</ele>
        <time>2022-04-03T07:42:47.000Z</time>
      </trkpt>
      <trkpt lat="49.64024" lon="4.75031">
        <ele>296</ele>
        <time>2022-04-03T07:42:48.000Z</time>
      </trkpt>
      <trkpt lat="49.64024" lon="4.75025">
        <ele>296</ele>
        <time>2022-04-03T07:42:49.000Z</time>
      </trkpt>
      <trkpt lat="49.64023" lon="4.75019">
        <ele>296</ele>
        <time>2022-04-03T07:42:50.000Z</time>
      </trkpt>
      <trkpt lat="49.64023" lon="4.75012">
        <ele>295</ele>
        <time>2022-04-03T07:42:51.000Z</time>
      </trkpt>
      <trkpt lat="49.64022" lon="4.75005">
        <ele>295</ele>
        <time>2022-04-03T07:42:52.000Z</time>
      </trkpt>
      <trkpt lat="49.64021" lon="4.74998">
        <ele>296</ele>
        <time>2022-04-03T07:42:53.000Z</time>
      </trkpt>
      <trkpt lat="49.6402" lon="4.74992">
        <ele>296</ele>
        <time>2022-04-03T07:42:54.000Z</time>
      </trkpt>
      <trkpt lat="49.64019" lon="4.74985">
        <ele>296</ele>
        <time>2022-04-03T07:42:55.000Z</time>
      </trkpt>
      <trkpt lat="49.64018" lon="4.74978">
        <ele>296</ele>
        <time>2022-04-03T07:42:56.000Z</time>
      </trkpt>
      <trkpt lat="49.64017" lon="4.74971">
        <ele>296</ele>
        <time>2022-04-03T07:42:57.000Z</time>
      </trkpt>
      <trkpt lat="49.64016" lon="4.74965">
        <ele>296</ele>
        <time>2022-04-03T07:42:58.000Z</time>
      </trkpt>
      <trkpt lat="49.64015" lon="4.74959">
        <ele>296</ele>
        <time>2022-04-03T07:42:59.000Z</time>
      </trkpt>
      <trkpt lat="49.64015" lon="4.74952">
        <ele>296</ele>
        <time>2022-04-03T07:43:00.000Z</time>
      </trkpt>
      <trkpt lat="49.64015" lon="4.74947">
        <ele>296</ele>
        <time>2022-04-03T07:43:01.000Z</time>
      </trkpt>
      <trkpt lat="49.64017" lon="4.74943">
        <ele>296</ele>
        <time>2022-04-03T07:43:02.000Z</time>
      </trkpt>
      <trkpt lat="49.64018" lon="4.7494">
        <ele>296</ele>
        <time>2022-04-03T07:43:03.000Z</time>
      </trkpt>
      <trkpt lat="49.64018" lon="4.74935">
        <ele>296</ele>
        <time>2022-04-03T07:43:04.000Z</time>
      </trkpt>
      <trkpt lat="49.64018" lon="4.74929">
        <ele>296</ele>
        <time>2022-04-03T07:43:05.000Z</time>
      </trkpt>
      <trkpt lat="49.64019" lon="4.74922">
        <ele>296</ele>
        <time>2022-04-03T07:43:06.000Z</time>
      </trkpt>
      <trkpt lat="49.64019" lon="4.74915">
        <ele>297</ele>
        <time>2022-04-03T07:43:07.000Z</time>
      </trkpt>
      <trkpt lat="49.64019" lon="4.74907">
        <ele>297</ele>
        <time>2022-04-03T07:43:08.000Z</time>
      </trkpt>
      <trkpt lat="49.64019" lon="4.749">
        <ele>297</ele>
        <time>2022-04-03T07:43:09.000Z</time>
      </trkpt>
      <trkpt lat="49.64019" lon="4.74892">
        <ele>297</ele>
        <time>2022-04-03T07:43:10.000Z</time>
      </trkpt>
      <trkpt lat="49.6402" lon="4.74884">
        <ele>297</ele>
        <time>2022-04-03T07:43:11.000Z</time>
      </trkpt>
      <trkpt lat="49.6402" lon="4.74875">
        <ele>297</ele>
        <time>2022-04-03T07:43:12.000Z</time>
      </trkpt>
      <trkpt lat="49.6402" lon="4.74867">
        <ele>297</ele>
        <time>2022-04-03T07:43:13.000Z</time>
      </trkpt>
      <trkpt lat="49.64021" lon="4.74858">
        <ele>297</ele>
        <time>2022-04-03T07:43:14.000Z</time>
      </trkpt>
      <trkpt lat="49.64022" lon="4.74849">
        <ele>297</ele>
        <time>2022-04-03T07:43:15.000Z</time>
      </trkpt>
      <trkpt lat="49.64022" lon="4.7484">
        <ele>297</ele>
        <time>2022-04-03T07:43:16.000Z</time>
      </trkpt>
      <trkpt lat="49.64023" lon="4.74831">
        <ele>297</ele>
        <time>2022-04-03T07:43:17.000Z</time>
      </trkpt>
      <trkpt lat="49.64023" lon="4.74821">
        <ele>297</ele>
        <time>2022-04-03T07:43:18.000Z</time>
      </trkpt>
      <trkpt lat="49.64024" lon="4.74811">
        <ele>297</ele>
        <time>2022-04-03T07:43:19.000Z</time>
      </trkpt>
      <trkpt lat="49.64024" lon="4.74803">
        <ele>297</ele>
        <time>2022-04-03T07:43:20.000Z</time>
      </trkpt>
      <trkpt lat="49.64025" lon="4.74793">
        <ele>297</ele>
        <time>2022-04-03T07:43:21.000Z</time>
      </trkpt>
      <trkpt lat="49.64026" lon="4.74783">
        <ele>297</ele>
        <time>2022-04-03T07:43:22.000Z</time>
      </trkpt>
      <trkpt lat="49.64026" lon="4.74774">
        <ele>296</ele>
        <time>2022-04-03T07:43:23.000Z</time>
      </trkpt>
      <trkpt lat="49.64027" lon="4.74766">
        <ele>296</ele>
        <time>2022-04-03T07:43:24.000Z</time>
      </trkpt>
      <trkpt lat="49.64028" lon="4.74757">
        <ele>296</ele>
        <time>2022-04-03T07:43:25.000Z</time>
      </trkpt>
      <trkpt lat="49.64029" lon="4.74748">
        <ele>296</ele>
        <time>2022-04-03T07:43:26.000Z</time>
      </trkpt>
      <trkpt lat="49.6403" lon="4.7474">
        <ele>295</ele>
        <time>2022-04-03T07:43:27.000Z</time>
      </trkpt>
      <trkpt lat="49.64031" lon="4.74732">
        <ele>295</ele>
        <time>2022-04-03T07:43:28.000Z</time>
      </trkpt>
      <trkpt lat="49.64032" lon="4.74723">
        <ele>295</ele>
        <time>2022-04-03T07:43:29.000Z</time>
      </trkpt>
      <trkpt lat="49.64032" lon="4.74714">
        <ele>295</ele>
        <time>2022-04-03T07:43:30.000Z</time>
      </trkpt>
      <trkpt lat="49.64032" lon="4.74705">
        <ele>295</ele>
        <time>2022-04-03T07:43:31.000Z</time>
      </trkpt>
      <trkpt lat="49.64031" lon="4.74696">
        <ele>294</ele>
        <time>2022-04-03T07:43:32.000Z</time>
      </trkpt>
      <trkpt lat="49.6403" lon="4.74688">
        <ele>294</ele>
        <time>2022-04-03T07:43:33.000Z</time>
      </trkpt>
      <trkpt lat="49.64028" lon="4.7468">
        <ele>294</ele>
        <time>2022-04-03T07:43:34.000Z</time>
      </trkpt>
      <trkpt lat="49.64025" lon="4.74671">
        <ele>294</ele>
        <time>2022-04-03T07:43:35.000Z</time>
      </trkpt>
      <trkpt lat="49.64023" lon="4.74663">
        <ele>293</ele>
        <time>2022-04-03T07:43:36.000Z</time>
      </trkpt>
      <trkpt lat="49.64019" lon="4.74654">
        <ele>293</ele>
        <time>2022-04-03T07:43:37.000Z</time>
      </trkpt>
      <trkpt lat="49.64015" lon="4.74646">
        <ele>293</ele>
        <time>2022-04-03T07:43:38.000Z</time>
      </trkpt>
      <trkpt lat="49.64011" lon="4.74639">
        <ele>293</ele>
        <time>2022-04-03T07:43:39.000Z</time>
      </trkpt>
      <trkpt lat="49.64006" lon="4.74632">
        <ele>292</ele>
        <time>2022-04-03T07:43:40.000Z</time>
      </trkpt>
      <trkpt lat="49.64001" lon="4.74625">
        <ele>292</ele>
        <time>2022-04-03T07:43:41.000Z</time>
      </trkpt>
      <trkpt lat="49.63995" lon="4.74619">
        <ele>292</ele>
        <time>2022-04-03T07:43:42.000Z</time>
      </trkpt>
      <trkpt lat="49.63989" lon="4.74612">
        <ele>291</ele>
        <time>2022-04-03T07:43:43.000Z</time>
      </trkpt>
      <trkpt lat="49.63983" lon="4.74605">
        <ele>291</ele>
        <time>2022-04-03T07:43:44.000Z</time>
      </trkpt>
      <trkpt lat="49.63978" lon="4.74598">
        <ele>290</ele>
        <time>2022-04-03T07:43:45.000Z</time>
      </trkpt>
      <trkpt lat="49.63973" lon="4.74591">
        <ele>290</ele>
        <time>2022-04-03T07:43:46.000Z</time>
      </trkpt>
      <trkpt lat="49.63967" lon="4.74584">
        <ele>289</ele>
        <time>2022-04-03T07:43:47.000Z</time>
      </trkpt>
      <trkpt lat="49.63961" lon="4.74576">
        <ele>288</ele>
        <time>2022-04-03T07:43:48.000Z</time>
      </trkpt>
      <trkpt lat="49.63955" lon="4.74568">
        <ele>288</ele>
        <time>2022-04-03T07:43:49.000Z</time>
      </trkpt>
      <trkpt lat="49.63949" lon="4.7456">
        <ele>287</ele>
        <time>2022-04-03T07:43:50.000Z</time>
      </trkpt>
      <trkpt lat="49.63943" lon="4.74552">
        <ele>286</ele>
        <time>2022-04-03T07:43:51.000Z</time>
      </trkpt>
      <trkpt lat="49.63936" lon="4.74546">
        <ele>285</ele>
        <time>2022-04-03T07:43:52.000Z</time>
      </trkpt>
      <trkpt lat="49.63931" lon="4.7454">
        <ele>284</ele>
        <time>2022-04-03T07:43:53.000Z</time>
      </trkpt>
      <trkpt lat="49.63926" lon="4.74534">
        <ele>283</ele>
        <time>2022-04-03T07:43:54.000Z</time>
      </trkpt>
      <trkpt lat="49.63922" lon="4.74527">
        <ele>282</ele>
        <time>2022-04-03T07:43:55.000Z</time>
      </trkpt>
      <trkpt lat="49.63917" lon="4.74519">
        <ele>281</ele>
        <time>2022-04-03T07:43:56.000Z</time>
      </trkpt>
      <trkpt lat="49.63913" lon="4.74511">
        <ele>279</ele>
        <time>2022-04-03T07:43:57.000Z</time>
      </trkpt>
      <trkpt lat="49.63909" lon="4.74503">
        <ele>278</ele>
        <time>2022-04-03T07:43:58.000Z</time>
      </trkpt>
      <trkpt lat="49.63906" lon="4.74496">
        <ele>276</ele>
        <time>2022-04-03T07:43:59.000Z</time>
      </trkpt>
      <trkpt lat="49.63902" lon="4.74488">
        <ele>275</ele>
        <time>2022-04-03T07:44:00.000Z</time>
      </trkpt>
      <trkpt lat="49.63899" lon="4.74479">
        <ele>274</ele>
        <time>2022-04-03T07:44:01.000Z</time>
      </trkpt>
      <trkpt lat="49.63897" lon="4.74469">
        <ele>272</ele>
        <time>2022-04-03T07:44:02.000Z</time>
      </trkpt>
      <trkpt lat="49.63895" lon="4.74459">
        <ele>271</ele>
        <time>2022-04-03T07:44:03.000Z</time>
      </trkpt>
      <trkpt lat="49.63894" lon="4.74451">
        <ele>269</ele>
        <time>2022-04-03T07:44:04.000Z</time>
      </trkpt>
      <trkpt lat="49.63892" lon="4.74442">
        <ele>268</ele>
        <time>2022-04-03T07:44:05.000Z</time>
      </trkpt>
      <trkpt lat="49.63891" lon="4.74433">
        <ele>266</ele>
        <time>2022-04-03T07:44:06.000Z</time>
      </trkpt>
      <trkpt lat="49.6389" lon="4.74424">
        <ele>265</ele>
        <time>2022-04-03T07:44:07.000Z</time>
      </trkpt>
      <trkpt lat="49.63889" lon="4.74414">
        <ele>264</ele>
        <time>2022-04-03T07:44:08.000Z</time>
      </trkpt>
      <trkpt lat="49.63887" lon="4.74402">
        <ele>263</ele>
        <time>2022-04-03T07:44:09.000Z</time>
      </trkpt>
      <trkpt lat="49.63885" lon="4.7439">
        <ele>261</ele>
        <time>2022-04-03T07:44:10.000Z</time>
      </trkpt>
      <trkpt lat="49.63884" lon="4.74377">
        <ele>260</ele>
        <time>2022-04-03T07:44:11.000Z</time>
      </trkpt>
      <trkpt lat="49.63882" lon="4.74365">
        <ele>259</ele>
        <time>2022-04-03T07:44:12.000Z</time>
      </trkpt>
      <trkpt lat="49.6388" lon="4.74353">
        <ele>258</ele>
        <time>2022-04-03T07:44:13.000Z</time>
      </trkpt>
      <trkpt lat="49.63878" lon="4.74342">
        <ele>257</ele>
        <time>2022-04-03T07:44:14.000Z</time>
      </trkpt>
      <trkpt lat="49.63877" lon="4.7433">
        <ele>256</ele>
        <time>2022-04-03T07:44:15.000Z</time>
      </trkpt>
      <trkpt lat="49.63875" lon="4.74319">
        <ele>255</ele>
        <time>2022-04-03T07:44:16.000Z</time>
      </trkpt>
      <trkpt lat="49.63873" lon="4.74308">
        <ele>254</ele>
        <time>2022-04-03T07:44:17.000Z</time>
      </trkpt>
      <trkpt lat="49.63871" lon="4.74297">
        <ele>253</ele>
        <time>2022-04-03T07:44:18.000Z</time>
      </trkpt>
      <trkpt lat="49.6387" lon="4.74285">
        <ele>252</ele>
        <time>2022-04-03T07:44:19.000Z</time>
      </trkpt>
      <trkpt lat="49.63868" lon="4.74272">
        <ele>251</ele>
        <time>2022-04-03T07:44:20.000Z</time>
      </trkpt>
      <trkpt lat="49.63866" lon="4.74259">
        <ele>249</ele>
        <time>2022-04-03T07:44:21.000Z</time>
      </trkpt>
      <trkpt lat="49.63864" lon="4.74246">
        <ele>248</ele>
        <time>2022-04-03T07:44:22.000Z</time>
      </trkpt>
      <trkpt lat="49.63862" lon="4.74232">
        <ele>247</ele>
        <time>2022-04-03T07:44:23.000Z</time>
      </trkpt>
      <trkpt lat="49.63859" lon="4.74219">
        <ele>246</ele>
        <time>2022-04-03T07:44:24.000Z</time>
      </trkpt>
      <trkpt lat="49.63857" lon="4.74205">
        <ele>245</ele>
        <time>2022-04-03T07:44:25.000Z</time>
      </trkpt>
      <trkpt lat="49.63854" lon="4.74191">
        <ele>244</ele>
        <time>2022-04-03T07:44:26.000Z</time>
      </trkpt>
      <trkpt lat="49.63851" lon="4.74178">
        <ele>243</ele>
        <time>2022-04-03T07:44:27.000Z</time>
      </trkpt>
      <trkpt lat="49.63848" lon="4.74166">
        <ele>242</ele>
        <time>2022-04-03T07:44:28.000Z</time>
      </trkpt>
      <trkpt lat="49.63846" lon="4.74154">
        <ele>241</ele>
        <time>2022-04-03T07:44:29.000Z</time>
      </trkpt>
      <trkpt lat="49.63843" lon="4.74142">
        <ele>239</ele>
        <time>2022-04-03T07:44:30.000Z</time>
      </trkpt>
      <trkpt lat="49.6384" lon="4.74132">
        <ele>238</ele>
        <time>2022-04-03T07:44:31.000Z</time>
      </trkpt>
      <trkpt lat="49.63837" lon="4.74123">
        <ele>238</ele>
        <time>2022-04-03T07:44:32.000Z</time>
      </trkpt>
      <trkpt lat="49.63834" lon="4.74115">
        <ele>237</ele>
        <time>2022-04-03T07:44:33.000Z</time>
      </trkpt>
      <trkpt lat="49.63832" lon="4.74107">
        <ele>236</ele>
        <time>2022-04-03T07:44:34.000Z</time>
      </trkpt>
      <trkpt lat="49.6383" lon="4.741">
        <ele>235</ele>
        <time>2022-04-03T07:44:35.000Z</time>
      </trkpt>
      <trkpt lat="49.63829" lon="4.74094">
        <ele>234</ele>
        <time>2022-04-03T07:44:36.000Z</time>
      </trkpt>
      <trkpt lat="49.63827" lon="4.74089">
        <ele>233</ele>
        <time>2022-04-03T07:44:37.000Z</time>
      </trkpt>
      <trkpt lat="49.63825" lon="4.74084">
        <ele>232</ele>
        <time>2022-04-03T07:44:38.000Z</time>
      </trkpt>
      <trkpt lat="49.63824" lon="4.74079">
        <ele>232</ele>
        <time>2022-04-03T07:44:39.000Z</time>
      </trkpt>
      <trkpt lat="49.63825" lon="4.74074">
        <ele>231</ele>
        <time>2022-04-03T07:44:40.000Z</time>
      </trkpt>
      <trkpt lat="49.63825" lon="4.7407">
        <ele>231</ele>
        <time>2022-04-03T07:44:41.000Z</time>
      </trkpt>
      <trkpt lat="49.63827" lon="4.74065">
        <ele>230</ele>
        <time>2022-04-03T07:44:42.000Z</time>
      </trkpt>
      <trkpt lat="49.63829" lon="4.7406">
        <ele>230</ele>
        <time>2022-04-03T07:44:43.000Z</time>
      </trkpt>
      <trkpt lat="49.63832" lon="4.74055">
        <ele>229</ele>
        <time>2022-04-03T07:44:44.000Z</time>
      </trkpt>
      <trkpt lat="49.63835" lon="4.74048">
        <ele>229</ele>
        <time>2022-04-03T07:44:45.000Z</time>
      </trkpt>
      <trkpt lat="49.63838" lon="4.74042">
        <ele>228</ele>
        <time>2022-04-03T07:44:46.000Z</time>
      </trkpt>
      <trkpt lat="49.63842" lon="4.74035">
        <ele>228</ele>
        <time>2022-04-03T07:44:47.000Z</time>
      </trkpt>
      <trkpt lat="49.63846" lon="4.74029">
        <ele>228</ele>
        <time>2022-04-03T07:44:48.000Z</time>
      </trkpt>
      <trkpt lat="49.6385" lon="4.74024">
        <ele>227</ele>
        <time>2022-04-03T07:44:49.000Z</time>
      </trkpt>
      <trkpt lat="49.63853" lon="4.74021">
        <ele>227</ele>
        <time>2022-04-03T07:44:50.000Z</time>
      </trkpt>
      <trkpt lat="49.63856" lon="4.74019">
        <ele>226</ele>
        <time>2022-04-03T07:44:51.000Z</time>
      </trkpt>
      <trkpt lat="49.63858" lon="4.74018">
        <ele>226</ele>
        <time>2022-04-03T07:44:52.000Z</time>
      </trkpt>
      <trkpt lat="49.6386" lon="4.7402">
        <ele>225</ele>
        <time>2022-04-03T07:44:53.000Z</time>
      </trkpt>
      <trkpt lat="49.63861" lon="4.74022">
        <ele>225</ele>
        <time>2022-04-03T07:44:54.000Z</time>
      </trkpt>
      <trkpt lat="49.63863" lon="4.74025">
        <ele>224</ele>
        <time>2022-04-03T07:44:55.000Z</time>
      </trkpt>
      <trkpt lat="49.63865" lon="4.74026">
        <ele>224</ele>
        <time>2022-04-03T07:44:56.000Z</time>
      </trkpt>
      <trkpt lat="49.63867" lon="4.74027">
        <ele>224</ele>
        <time>2022-04-03T07:44:57.000Z</time>
      </trkpt>
      <trkpt lat="49.6387" lon="4.74028">
        <ele>223</ele>
        <time>2022-04-03T07:44:58.000Z</time>
      </trkpt>
      <trkpt lat="49.63874" lon="4.74029">
        <ele>223</ele>
        <time>2022-04-03T07:44:59.000Z</time>
      </trkpt>
      <trkpt lat="49.63877" lon="4.74029">
        <ele>223</ele>
        <time>2022-04-03T07:45:00.000Z</time>
      </trkpt>
      <trkpt lat="49.63881" lon="4.74029">
        <ele>223</ele>
        <time>2022-04-03T07:45:01.000Z</time>
      </trkpt>
      <trkpt lat="49.63884" lon="4.74029">
        <ele>222</ele>
        <time>2022-04-03T07:45:02.000Z</time>
      </trkpt>
      <trkpt lat="49.63888" lon="4.74028">
        <ele>222</ele>
        <time>2022-04-03T07:45:03.000Z</time>
      </trkpt>
      <trkpt lat="49.63892" lon="4.74029">
        <ele>222</ele>
        <time>2022-04-03T07:45:04.000Z</time>
      </trkpt>
      <trkpt lat="49.63896" lon="4.74029">
        <ele>222</ele>
        <time>2022-04-03T07:45:05.000Z</time>
      </trkpt>
      <trkpt lat="49.639" lon="4.7403">
        <ele>221</ele>
        <time>2022-04-03T07:45:06.000Z</time>
      </trkpt>
      <trkpt lat="49.63904" lon="4.7403">
        <ele>221</ele>
        <time>2022-04-03T07:45:07.000Z</time>
      </trkpt>
      <trkpt lat="49.63908" lon="4.7403">
        <ele>221</ele>
        <time>2022-04-03T07:45:08.000Z</time>
      </trkpt>
      <trkpt lat="49.63912" lon="4.7403">
        <ele>221</ele>
        <time>2022-04-03T07:45:09.000Z</time>
      </trkpt>
      <trkpt lat="49.63916" lon="4.7403">
        <ele>221</ele>
        <time>2022-04-03T07:45:10.000Z</time>
      </trkpt>
      <trkpt lat="49.6392" lon="4.74029">
        <ele>221</ele>
        <time>2022-04-03T07:45:11.000Z</time>
      </trkpt>
      <trkpt lat="49.63923" lon="4.7403">
        <ele>221</ele>
        <time>2022-04-03T07:45:12.000Z</time>
      </trkpt>
      <trkpt lat="49.63927" lon="4.7403">
        <ele>221</ele>
        <time>2022-04-03T07:45:13.000Z</time>
      </trkpt>
      <trkpt lat="49.63931" lon="4.7403">
        <ele>221</ele>
        <time>2022-04-03T07:45:14.000Z</time>
      </trkpt>
      <trkpt lat="49.63935" lon="4.7403">
        <ele>221</ele>
        <time>2022-04-03T07:45:15.000Z</time>
      </trkpt>
      <trkpt lat="49.63939" lon="4.7403">
        <ele>221</ele>
        <time>2022-04-03T07:45:16.000Z</time>
      </trkpt>
      <trkpt lat="49.63943" lon="4.7403">
        <ele>221</ele>
        <time>2022-04-03T07:45:17.000Z</time>
      </trkpt>
      <trkpt lat="49.63943" lon="4.7403">
        <ele>221</ele>
        <time>2022-04-03T07:45:18.000Z</time>
      </trkpt>
      <trkpt lat="49.63948" lon="4.7403">
        <ele>221</ele>
        <time>2022-04-03T07:45:19.000Z</time>
      </trkpt>
      <trkpt lat="49.63952" lon="4.74032">
        <ele>221</ele>
        <time>2022-04-03T07:45:20.000Z</time>
      </trkpt>
      <trkpt lat="49.63956" lon="4.74033">
        <ele>221</ele>
        <time>2022-04-03T07:45:21.000Z</time>
      </trkpt>
      <trkpt lat="49.63959" lon="4.74034">
        <ele>221</ele>
        <time>2022-04-03T07:45:22.000Z</time>
      </trkpt>
      <trkpt lat="49.63966" lon="4.74038">
        <ele>221</ele>
        <time>2022-04-03T07:45:23.000Z</time>
      </trkpt>
      <trkpt lat="49.6397" lon="4.7404">
        <ele>221</ele>
        <time>2022-04-03T07:45:24.000Z</time>
      </trkpt>
      <trkpt lat="49.63974" lon="4.74042">
        <ele>221</ele>
        <time>2022-04-03T07:45:25.000Z</time>
      </trkpt>
      <trkpt lat="49.63974" lon="4.74042">
        <ele>221</ele>
        <time>2022-04-03T07:45:26.000Z</time>
      </trkpt>
      <trkpt lat="49.63978" lon="4.74044">
        <ele>221</ele>
        <time>2022-04-03T07:45:27.000Z</time>
      </trkpt>
      <trkpt lat="49.63986" lon="4.74045">
        <ele>221</ele>
        <time>2022-04-03T07:45:28.000Z</time>
      </trkpt>
      <trkpt lat="49.6399" lon="4.74045">
        <ele>222</ele>
        <time>2022-04-03T07:45:29.000Z</time>
      </trkpt>
      <trkpt lat="49.6399" lon="4.74045">
        <ele>222</ele>
        <time>2022-04-03T07:45:30.000Z</time>
      </trkpt>
      <trkpt lat="49.63994" lon="4.74044">
        <ele>222</ele>
        <time>2022-04-03T07:45:31.000Z</time>
      </trkpt>
      <trkpt lat="49.63998" lon="4.74042">
        <ele>222</ele>
        <time>2022-04-03T07:45:32.000Z</time>
      </trkpt>
      <trkpt lat="49.64006" lon="4.7404">
        <ele>223</ele>
        <time>2022-04-03T07:45:33.000Z</time>
      </trkpt>
      <trkpt lat="49.64011" lon="4.7404">
        <ele>223</ele>
        <time>2022-04-03T07:45:34.000Z</time>
      </trkpt>
      <trkpt lat="49.64015" lon="4.74039">
        <ele>223</ele>
        <time>2022-04-03T07:45:35.000Z</time>
      </trkpt>
      <trkpt lat="49.6402" lon="4.74039">
        <ele>223</ele>
        <time>2022-04-03T07:45:36.000Z</time>
      </trkpt>
      <trkpt lat="49.64024" lon="4.74039">
        <ele>223</ele>
        <time>2022-04-03T07:45:37.000Z</time>
      </trkpt>
      <trkpt lat="49.64024" lon="4.74039">
        <ele>223</ele>
        <time>2022-04-03T07:45:38.000Z</time>
      </trkpt>
      <trkpt lat="49.64031" lon="4.74041">
        <ele>223</ele>
        <time>2022-04-03T07:45:39.000Z</time>
      </trkpt>
      <trkpt lat="49.64034" lon="4.74043">
        <ele>223</ele>
        <time>2022-04-03T07:45:40.000Z</time>
      </trkpt>
      <trkpt lat="49.64037" lon="4.74044">
        <ele>223</ele>
        <time>2022-04-03T07:45:41.000Z</time>
      </trkpt>
      <trkpt lat="49.6404" lon="4.74046">
        <ele>223</ele>
        <time>2022-04-03T07:45:42.000Z</time>
      </trkpt>
      <trkpt lat="49.64043" lon="4.74047">
        <ele>223</ele>
        <time>2022-04-03T07:45:43.000Z</time>
      </trkpt>
      <trkpt lat="49.64046" lon="4.74047">
        <ele>223</ele>
        <time>2022-04-03T07:45:44.000Z</time>
      </trkpt>
      <trkpt lat="49.64049" lon="4.74047">
        <ele>223</ele>
        <time>2022-04-03T07:45:45.000Z</time>
      </trkpt>
      <trkpt lat="49.64049" lon="4.74047">
        <ele>223</ele>
        <time>2022-04-03T07:45:46.000Z</time>
      </trkpt>
      <trkpt lat="49.64052" lon="4.74046">
        <ele>223</ele>
        <time>2022-04-03T07:45:47.000Z</time>
      </trkpt>
      <trkpt lat="49.64056" lon="4.74045">
        <ele>223</ele>
        <time>2022-04-03T07:45:48.000Z</time>
      </trkpt>
      <trkpt lat="49.64059" lon="4.74044">
        <ele>223</ele>
        <time>2022-04-03T07:45:49.000Z</time>
      </trkpt>
      <trkpt lat="49.64062" lon="4.74043">
        <ele>223</ele>
        <time>2022-04-03T07:45:50.000Z</time>
      </trkpt>
      <trkpt lat="49.64066" lon="4.74043">
        <ele>224</ele>
        <time>2022-04-03T07:45:51.000Z</time>
      </trkpt>
      <trkpt lat="49.64069" lon="4.74043">
        <ele>224</ele>
        <time>2022-04-03T07:45:52.000Z</time>
      </trkpt>
      <trkpt lat="49.64076" lon="4.74045">
        <ele>224</ele>
        <time>2022-04-03T07:45:53.000Z</time>
      </trkpt>
      <trkpt lat="49.64076" lon="4.74045">
        <ele>224</ele>
        <time>2022-04-03T07:45:54.000Z</time>
      </trkpt>
      <trkpt lat="49.64078" lon="4.74046">
        <ele>224</ele>
        <time>2022-04-03T07:45:55.000Z</time>
      </trkpt>
      <trkpt lat="49.64081" lon="4.74047">
        <ele>225</ele>
        <time>2022-04-03T07:45:56.000Z</time>
      </trkpt>
      <trkpt lat="49.64084" lon="4.74048">
        <ele>225</ele>
        <time>2022-04-03T07:45:57.000Z</time>
      </trkpt>
      <trkpt lat="49.64087" lon="4.74049">
        <ele>225</ele>
        <time>2022-04-03T07:45:58.000Z</time>
      </trkpt>
      <trkpt lat="49.6409" lon="4.74049">
        <ele>225</ele>
        <time>2022-04-03T07:45:59.000Z</time>
      </trkpt>
      <trkpt lat="49.64093" lon="4.74049">
        <ele>225</ele>
        <time>2022-04-03T07:46:00.000Z</time>
      </trkpt>
      <trkpt lat="49.64097" lon="4.74049">
        <ele>225</ele>
        <time>2022-04-03T07:46:01.000Z</time>
      </trkpt>
      <trkpt lat="49.64104" lon="4.74049">
        <ele>226</ele>
        <time>2022-04-03T07:46:02.000Z</time>
      </trkpt>
      <trkpt lat="49.64104" lon="4.74049">
        <ele>226</ele>
        <time>2022-04-03T07:46:03.000Z</time>
      </trkpt>
      <trkpt lat="49.64107" lon="4.74049">
        <ele>226</ele>
        <time>2022-04-03T07:46:04.000Z</time>
      </trkpt>
      <trkpt lat="49.6411" lon="4.74049">
        <ele>226</ele>
        <time>2022-04-03T07:46:05.000Z</time>
      </trkpt>
      <trkpt lat="49.64113" lon="4.74049">
        <ele>226</ele>
        <time>2022-04-03T07:46:06.000Z</time>
      </trkpt>
      <trkpt lat="49.64119" lon="4.74048">
        <ele>226</ele>
        <time>2022-04-03T07:46:07.000Z</time>
      </trkpt>
      <trkpt lat="49.64122" lon="4.74046">
        <ele>226</ele>
        <time>2022-04-03T07:46:08.000Z</time>
      </trkpt>
      <trkpt lat="49.64122" lon="4.74046">
        <ele>226</ele>
        <time>2022-04-03T07:46:09.000Z</time>
      </trkpt>
      <trkpt lat="49.64125" lon="4.74044">
        <ele>226</ele>
        <time>2022-04-03T07:46:10.000Z</time>
      </trkpt>
      <trkpt lat="49.64128" lon="4.74042">
        <ele>226</ele>
        <time>2022-04-03T07:46:11.000Z</time>
      </trkpt>
      <trkpt lat="49.64132" lon="4.74039">
        <ele>226</ele>
        <time>2022-04-03T07:46:12.000Z</time>
      </trkpt>
      <trkpt lat="49.64136" lon="4.74034">
        <ele>226</ele>
        <time>2022-04-03T07:46:13.000Z</time>
      </trkpt>
      <trkpt lat="49.64141" lon="4.7403">
        <ele>226</ele>
        <time>2022-04-03T07:46:14.000Z</time>
      </trkpt>
      <trkpt lat="49.64145" lon="4.74026">
        <ele>226</ele>
        <time>2022-04-03T07:46:15.000Z</time>
      </trkpt>
      <trkpt lat="49.64149" lon="4.74023">
        <ele>226</ele>
        <time>2022-04-03T07:46:16.000Z</time>
      </trkpt>
      <trkpt lat="49.64153" lon="4.74022">
        <ele>227</ele>
        <time>2022-04-03T07:46:17.000Z</time>
      </trkpt>
      <trkpt lat="49.64156" lon="4.74021">
        <ele>227</ele>
        <time>2022-04-03T07:46:18.000Z</time>
      </trkpt>
      <trkpt lat="49.64159" lon="4.74022">
        <ele>227</ele>
        <time>2022-04-03T07:46:19.000Z</time>
      </trkpt>
      <trkpt lat="49.64162" lon="4.74024">
        <ele>227</ele>
        <time>2022-04-03T07:46:20.000Z</time>
      </trkpt>
      <trkpt lat="49.64165" lon="4.74027">
        <ele>227</ele>
        <time>2022-04-03T07:46:21.000Z</time>
      </trkpt>
      <trkpt lat="49.64168" lon="4.74029">
        <ele>228</ele>
        <time>2022-04-03T07:46:22.000Z</time>
      </trkpt>
      <trkpt lat="49.64171" lon="4.74032">
        <ele>228</ele>
        <time>2022-04-03T07:46:23.000Z</time>
      </trkpt>
      <trkpt lat="49.64178" lon="4.74037">
        <ele>228</ele>
        <time>2022-04-03T07:46:24.000Z</time>
      </trkpt>
      <trkpt lat="49.64181" lon="4.7404">
        <ele>228</ele>
        <time>2022-04-03T07:46:25.000Z</time>
      </trkpt>
      <trkpt lat="49.64181" lon="4.7404">
        <ele>228</ele>
        <time>2022-04-03T07:46:26.000Z</time>
      </trkpt>
      <trkpt lat="49.64184" lon="4.74043">
        <ele>228</ele>
        <time>2022-04-03T07:46:27.000Z</time>
      </trkpt>
      <trkpt lat="49.64187" lon="4.74045">
        <ele>228</ele>
        <time>2022-04-03T07:46:28.000Z</time>
      </trkpt>
      <trkpt lat="49.6419" lon="4.74048">
        <ele>228</ele>
        <time>2022-04-03T07:46:29.000Z</time>
      </trkpt>
      <trkpt lat="49.64196" lon="4.74053">
        <ele>229</ele>
        <time>2022-04-03T07:46:30.000Z</time>
      </trkpt>
      <trkpt lat="49.64199" lon="4.74055">
        <ele>229</ele>
        <time>2022-04-03T07:46:31.000Z</time>
      </trkpt>
      <trkpt lat="49.64203" lon="4.74058">
        <ele>229</ele>
        <time>2022-04-03T07:46:32.000Z</time>
      </trkpt>
      <trkpt lat="49.64203" lon="4.74058">
        <ele>229</ele>
        <time>2022-04-03T07:46:33.000Z</time>
      </trkpt>
      <trkpt lat="49.6421" lon="4.74064">
        <ele>230</ele>
        <time>2022-04-03T07:46:34.000Z</time>
      </trkpt>
      <trkpt lat="49.64213" lon="4.74067">
        <ele>230</ele>
        <time>2022-04-03T07:46:35.000Z</time>
      </trkpt>
      <trkpt lat="49.64217" lon="4.7407">
        <ele>230</ele>
        <time>2022-04-03T07:46:36.000Z</time>
      </trkpt>
      <trkpt lat="49.64217" lon="4.7407">
        <ele>230</ele>
        <time>2022-04-03T07:46:37.000Z</time>
      </trkpt>
      <trkpt lat="49.64224" lon="4.74076">
        <ele>231</ele>
        <time>2022-04-03T07:46:38.000Z</time>
      </trkpt>
      <trkpt lat="49.64227" lon="4.74078">
        <ele>231</ele>
        <time>2022-04-03T07:46:39.000Z</time>
      </trkpt>
      <trkpt lat="49.64231" lon="4.7408">
        <ele>231</ele>
        <time>2022-04-03T07:46:40.000Z</time>
      </trkpt>
      <trkpt lat="49.64234" lon="4.74083">
        <ele>231</ele>
        <time>2022-04-03T07:46:41.000Z</time>
      </trkpt>
      <trkpt lat="49.64234" lon="4.74083">
        <ele>231</ele>
        <time>2022-04-03T07:46:42.000Z</time>
      </trkpt>
      <trkpt lat="49.64238" lon="4.74086">
        <ele>232</ele>
        <time>2022-04-03T07:46:43.000Z</time>
      </trkpt>
      <trkpt lat="49.64245" lon="4.7409">
        <ele>232</ele>
        <time>2022-04-03T07:46:44.000Z</time>
      </trkpt>
      <trkpt lat="49.64245" lon="4.7409">
        <ele>232</ele>
        <time>2022-04-03T07:46:45.000Z</time>
      </trkpt>
      <trkpt lat="49.64249" lon="4.74093">
        <ele>232</ele>
        <time>2022-04-03T07:46:46.000Z</time>
      </trkpt>
      <trkpt lat="49.64253" lon="4.74095">
        <ele>232</ele>
        <time>2022-04-03T07:46:47.000Z</time>
      </trkpt>
      <trkpt lat="49.6426" lon="4.74099">
        <ele>232</ele>
        <time>2022-04-03T07:46:48.000Z</time>
      </trkpt>
      <trkpt lat="49.6426" lon="4.74099">
        <ele>232</ele>
        <time>2022-04-03T07:46:49.000Z</time>
      </trkpt>
      <trkpt lat="49.64264" lon="4.74101">
        <ele>232</ele>
        <time>2022-04-03T07:46:50.000Z</time>
      </trkpt>
      <trkpt lat="49.64267" lon="4.74104">
        <ele>233</ele>
        <time>2022-04-03T07:46:51.000Z</time>
      </trkpt>
      <trkpt lat="49.64273" lon="4.74111">
        <ele>233</ele>
        <time>2022-04-03T07:46:52.000Z</time>
      </trkpt>
      <trkpt lat="49.64273" lon="4.74111">
        <ele>233</ele>
        <time>2022-04-03T07:46:53.000Z</time>
      </trkpt>
      <trkpt lat="49.64277" lon="4.74117">
        <ele>233</ele>
        <time>2022-04-03T07:46:54.000Z</time>
      </trkpt>
      <trkpt lat="49.64277" lon="4.74117">
        <ele>233</ele>
        <time>2022-04-03T07:46:55.000Z</time>
      </trkpt>
      <trkpt lat="49.6428" lon="4.7412">
        <ele>233</ele>
        <time>2022-04-03T07:46:56.000Z</time>
      </trkpt>
      <trkpt lat="49.64283" lon="4.74123">
        <ele>234</ele>
        <time>2022-04-03T07:46:57.000Z</time>
      </trkpt>
      <trkpt lat="49.64285" lon="4.74125">
        <ele>234</ele>
        <time>2022-04-03T07:46:58.000Z</time>
      </trkpt>
      <trkpt lat="49.64288" lon="4.74127">
        <ele>234</ele>
        <time>2022-04-03T07:46:59.000Z</time>
      </trkpt>
      <trkpt lat="49.6429" lon="4.74128">
        <ele>234</ele>
        <time>2022-04-03T07:47:00.000Z</time>
      </trkpt>
      <trkpt lat="49.64293" lon="4.7413">
        <ele>234</ele>
        <time>2022-04-03T07:47:01.000Z</time>
      </trkpt>
      <trkpt lat="49.64296" lon="4.74132">
        <ele>234</ele>
        <time>2022-04-03T07:47:02.000Z</time>
      </trkpt>
      <trkpt lat="49.64298" lon="4.74134">
        <ele>235</ele>
        <time>2022-04-03T07:47:03.000Z</time>
      </trkpt>
      <trkpt lat="49.64302" lon="4.74137">
        <ele>235</ele>
        <time>2022-04-03T07:47:04.000Z</time>
      </trkpt>
      <trkpt lat="49.64302" lon="4.74137">
        <ele>235</ele>
        <time>2022-04-03T07:47:05.000Z</time>
      </trkpt>
      <trkpt lat="49.64305" lon="4.7414">
        <ele>236</ele>
        <time>2022-04-03T07:47:06.000Z</time>
      </trkpt>
      <trkpt lat="49.64305" lon="4.7414">
        <ele>236</ele>
        <time>2022-04-03T07:47:07.000Z</time>
      </trkpt>
      <trkpt lat="49.64309" lon="4.74143">
        <ele>236</ele>
        <time>2022-04-03T07:47:08.000Z</time>
      </trkpt>
      <trkpt lat="49.64311" lon="4.74144">
        <ele>236</ele>
        <time>2022-04-03T07:47:09.000Z</time>
      </trkpt>
      <trkpt lat="49.64314" lon="4.74146">
        <ele>236</ele>
        <time>2022-04-03T07:47:10.000Z</time>
      </trkpt>
      <trkpt lat="49.64314" lon="4.74146">
        <ele>236</ele>
        <time>2022-04-03T07:47:11.000Z</time>
      </trkpt>
      <trkpt lat="49.64318" lon="4.74149">
        <ele>237</ele>
        <time>2022-04-03T07:47:12.000Z</time>
      </trkpt>
      <trkpt lat="49.64318" lon="4.74149">
        <ele>237</ele>
        <time>2022-04-03T07:47:13.000Z</time>
      </trkpt>
      <trkpt lat="49.6432" lon="4.7415">
        <ele>237</ele>
        <time>2022-04-03T07:47:14.000Z</time>
      </trkpt>
      <trkpt lat="49.64322" lon="4.74152">
        <ele>237</ele>
        <time>2022-04-03T07:47:15.000Z</time>
      </trkpt>
      <trkpt lat="49.64327" lon="4.74154">
        <ele>237</ele>
        <time>2022-04-03T07:47:16.000Z</time>
      </trkpt>
      <trkpt lat="49.64327" lon="4.74154">
        <ele>237</ele>
        <time>2022-04-03T07:47:17.000Z</time>
      </trkpt>
      <trkpt lat="49.64331" lon="4.74156">
        <ele>237</ele>
        <time>2022-04-03T07:47:18.000Z</time>
      </trkpt>
      <trkpt lat="49.64331" lon="4.74156">
        <ele>237</ele>
        <time>2022-04-03T07:47:19.000Z</time>
      </trkpt>
      <trkpt lat="49.64334" lon="4.74158">
        <ele>238</ele>
        <time>2022-04-03T07:47:20.000Z</time>
      </trkpt>
      <trkpt lat="49.64336" lon="4.74159">
        <ele>238</ele>
        <time>2022-04-03T07:47:21.000Z</time>
      </trkpt>
      <trkpt lat="49.64337" lon="4.74161">
        <ele>238</ele>
        <time>2022-04-03T07:47:22.000Z</time>
      </trkpt>
      <trkpt lat="49.64338" lon="4.74162">
        <ele>238</ele>
        <time>2022-04-03T07:47:23.000Z</time>
      </trkpt>
      <trkpt lat="49.6434" lon="4.74163">
        <ele>239</ele>
        <time>2022-04-03T07:47:24.000Z</time>
      </trkpt>
      <trkpt lat="49.64342" lon="4.74164">
        <ele>239</ele>
        <time>2022-04-03T07:47:25.000Z</time>
      </trkpt>
      <trkpt lat="49.64343" lon="4.74165">
        <ele>239</ele>
        <time>2022-04-03T07:47:26.000Z</time>
      </trkpt>
      <trkpt lat="49.64345" lon="4.74166">
        <ele>239</ele>
        <time>2022-04-03T07:47:27.000Z</time>
      </trkpt>
      <trkpt lat="49.64347" lon="4.74167">
        <ele>239</ele>
        <time>2022-04-03T07:47:28.000Z</time>
      </trkpt>
      <trkpt lat="49.64349" lon="4.74168">
        <ele>239</ele>
        <time>2022-04-03T07:47:29.000Z</time>
      </trkpt>
      <trkpt lat="49.64351" lon="4.74169">
        <ele>239</ele>
        <time>2022-04-03T07:47:30.000Z</time>
      </trkpt>
      <trkpt lat="49.64353" lon="4.74171">
        <ele>239</ele>
        <time>2022-04-03T07:47:31.000Z</time>
      </trkpt>
      <trkpt lat="49.64353" lon="4.74171">
        <ele>239</ele>
        <time>2022-04-03T07:47:32.000Z</time>
      </trkpt>
      <trkpt lat="49.64355" lon="4.74172">
        <ele>240</ele>
        <time>2022-04-03T07:47:33.000Z</time>
      </trkpt>
      <trkpt lat="49.64358" lon="4.74173">
        <ele>240</ele>
        <time>2022-04-03T07:47:34.000Z</time>
      </trkpt>
      <trkpt lat="49.64359" lon="4.74174">
        <ele>240</ele>
        <time>2022-04-03T07:47:35.000Z</time>
      </trkpt>
      <trkpt lat="49.64361" lon="4.74175">
        <ele>240</ele>
        <time>2022-04-03T07:47:36.000Z</time>
      </trkpt>
      <trkpt lat="49.64363" lon="4.74176">
        <ele>240</ele>
        <time>2022-04-03T07:47:37.000Z</time>
      </trkpt>
      <trkpt lat="49.64365" lon="4.74177">
        <ele>240</ele>
        <time>2022-04-03T07:47:38.000Z</time>
      </trkpt>
      <trkpt lat="49.64367" lon="4.74178">
        <ele>241</ele>
        <time>2022-04-03T07:47:39.000Z</time>
      </trkpt>
      <trkpt lat="49.64369" lon="4.74179">
        <ele>241</ele>
        <time>2022-04-03T07:47:40.000Z</time>
      </trkpt>
      <trkpt lat="49.64371" lon="4.7418">
        <ele>241</ele>
        <time>2022-04-03T07:47:41.000Z</time>
      </trkpt>
      <trkpt lat="49.64373" lon="4.74182">
        <ele>241</ele>
        <time>2022-04-03T07:47:42.000Z</time>
      </trkpt>
      <trkpt lat="49.64375" lon="4.74183">
        <ele>241</ele>
        <time>2022-04-03T07:47:43.000Z</time>
      </trkpt>
      <trkpt lat="49.64376" lon="4.74184">
        <ele>241</ele>
        <time>2022-04-03T07:47:44.000Z</time>
      </trkpt>
      <trkpt lat="49.64379" lon="4.74187">
        <ele>242</ele>
        <time>2022-04-03T07:47:45.000Z</time>
      </trkpt>
      <trkpt lat="49.64379" lon="4.74187">
        <ele>242</ele>
        <time>2022-04-03T07:47:46.000Z</time>
      </trkpt>
      <trkpt lat="49.64383" lon="4.74188">
        <ele>242</ele>
        <time>2022-04-03T07:47:47.000Z</time>
      </trkpt>
      <trkpt lat="49.64384" lon="4.74189">
        <ele>242</ele>
        <time>2022-04-03T07:47:48.000Z</time>
      </trkpt>
      <trkpt lat="49.64385" lon="4.7419">
        <ele>242</ele>
        <time>2022-04-03T07:47:49.000Z</time>
      </trkpt>
      <trkpt lat="49.64385" lon="4.7419">
        <ele>242</ele>
        <time>2022-04-03T07:47:50.000Z</time>
      </trkpt>
      <trkpt lat="49.64387" lon="4.74191">
        <ele>243</ele>
        <time>2022-04-03T07:47:51.000Z</time>
      </trkpt>
      <trkpt lat="49.64388" lon="4.74192">
        <ele>243</ele>
        <time>2022-04-03T07:47:52.000Z</time>
      </trkpt>
      <trkpt lat="49.64389" lon="4.74193">
        <ele>243</ele>
        <time>2022-04-03T07:47:53.000Z</time>
      </trkpt>
      <trkpt lat="49.6439" lon="4.74193">
        <ele>243</ele>
        <time>2022-04-03T07:47:54.000Z</time>
      </trkpt>
      <trkpt lat="49.64392" lon="4.74194">
        <ele>243</ele>
        <time>2022-04-03T07:47:55.000Z</time>
      </trkpt>
      <trkpt lat="49.64393" lon="4.74194">
        <ele>243</ele>
        <time>2022-04-03T07:47:56.000Z</time>
      </trkpt>
      <trkpt lat="49.64395" lon="4.74195">
        <ele>243</ele>
        <time>2022-04-03T07:47:57.000Z</time>
      </trkpt>
      <trkpt lat="49.64397" lon="4.74197">
        <ele>244</ele>
        <time>2022-04-03T07:47:58.000Z</time>
      </trkpt>
      <trkpt lat="49.64399" lon="4.74198">
        <ele>244</ele>
        <time>2022-04-03T07:47:59.000Z</time>
      </trkpt>
      <trkpt lat="49.644" lon="4.74199">
        <ele>245</ele>
        <time>2022-04-03T07:48:00.000Z</time>
      </trkpt>
      <trkpt lat="49.64401" lon="4.742">
        <ele>245</ele>
        <time>2022-04-03T07:48:01.000Z</time>
      </trkpt>
      <trkpt lat="49.64403" lon="4.74201">
        <ele>245</ele>
        <time>2022-04-03T07:48:02.000Z</time>
      </trkpt>
      <trkpt lat="49.64405" lon="4.74201">
        <ele>245</ele>
        <time>2022-04-03T07:48:03.000Z</time>
      </trkpt>
      <trkpt lat="49.64407" lon="4.74203">
        <ele>246</ele>
        <time>2022-04-03T07:48:04.000Z</time>
      </trkpt>
      <trkpt lat="49.64407" lon="4.74203">
        <ele>246</ele>
        <time>2022-04-03T07:48:05.000Z</time>
      </trkpt>
      <trkpt lat="49.64409" lon="4.74203">
        <ele>246</ele>
        <time>2022-04-03T07:48:06.000Z</time>
      </trkpt>
      <trkpt lat="49.64412" lon="4.74205">
        <ele>246</ele>
        <time>2022-04-03T07:48:07.000Z</time>
      </trkpt>
      <trkpt lat="49.64412" lon="4.74205">
        <ele>246</ele>
        <time>2022-04-03T07:48:08.000Z</time>
      </trkpt>
      <trkpt lat="49.64414" lon="4.74206">
        <ele>246</ele>
        <time>2022-04-03T07:48:09.000Z</time>
      </trkpt>
      <trkpt lat="49.64416" lon="4.74207">
        <ele>246</ele>
        <time>2022-04-03T07:48:10.000Z</time>
      </trkpt>
      <trkpt lat="49.64419" lon="4.74208">
        <ele>247</ele>
        <time>2022-04-03T07:48:11.000Z</time>
      </trkpt>
      <trkpt lat="49.6442" lon="4.74209">
        <ele>247</ele>
        <time>2022-04-03T07:48:12.000Z</time>
      </trkpt>
      <trkpt lat="49.64422" lon="4.7421">
        <ele>247</ele>
        <time>2022-04-03T07:48:13.000Z</time>
      </trkpt>
      <trkpt lat="49.64423" lon="4.74211">
        <ele>247</ele>
        <time>2022-04-03T07:48:14.000Z</time>
      </trkpt>
      <trkpt lat="49.64424" lon="4.74212">
        <ele>247</ele>
        <time>2022-04-03T07:48:15.000Z</time>
      </trkpt>
      <trkpt lat="49.64425" lon="4.74212">
        <ele>247</ele>
        <time>2022-04-03T07:48:16.000Z</time>
      </trkpt>
      <trkpt lat="49.64427" lon="4.74213">
        <ele>248</ele>
        <time>2022-04-03T07:48:17.000Z</time>
      </trkpt>
      <trkpt lat="49.64428" lon="4.74215">
        <ele>248</ele>
        <time>2022-04-03T07:48:18.000Z</time>
      </trkpt>
      <trkpt lat="49.6443" lon="4.74216">
        <ele>248</ele>
        <time>2022-04-03T07:48:19.000Z</time>
      </trkpt>
      <trkpt lat="49.64432" lon="4.74217">
        <ele>248</ele>
        <time>2022-04-03T07:48:20.000Z</time>
      </trkpt>
      <trkpt lat="49.64433" lon="4.74219">
        <ele>248</ele>
        <time>2022-04-03T07:48:21.000Z</time>
      </trkpt>
      <trkpt lat="49.64433" lon="4.74219">
        <ele>248</ele>
        <time>2022-04-03T07:48:22.000Z</time>
      </trkpt>
      <trkpt lat="49.64436" lon="4.74222">
        <ele>249</ele>
        <time>2022-04-03T07:48:23.000Z</time>
      </trkpt>
      <trkpt lat="49.64438" lon="4.74223">
        <ele>249</ele>
        <time>2022-04-03T07:48:24.000Z</time>
      </trkpt>
      <trkpt lat="49.64439" lon="4.74225">
        <ele>249</ele>
        <time>2022-04-03T07:48:25.000Z</time>
      </trkpt>
      <trkpt lat="49.6444" lon="4.74226">
        <ele>250</ele>
        <time>2022-04-03T07:48:26.000Z</time>
      </trkpt>
      <trkpt lat="49.64441" lon="4.74227">
        <ele>250</ele>
        <time>2022-04-03T07:48:27.000Z</time>
      </trkpt>
      <trkpt lat="49.64443" lon="4.74228">
        <ele>250</ele>
        <time>2022-04-03T07:48:28.000Z</time>
      </trkpt>
      <trkpt lat="49.64444" lon="4.74229">
        <ele>250</ele>
        <time>2022-04-03T07:48:29.000Z</time>
      </trkpt>
      <trkpt lat="49.64445" lon="4.74231">
        <ele>251</ele>
        <time>2022-04-03T07:48:30.000Z</time>
      </trkpt>
      <trkpt lat="49.64447" lon="4.74232">
        <ele>251</ele>
        <time>2022-04-03T07:48:31.000Z</time>
      </trkpt>
      <trkpt lat="49.64448" lon="4.74233">
        <ele>251</ele>
        <time>2022-04-03T07:48:32.000Z</time>
      </trkpt>
      <trkpt lat="49.64449" lon="4.74235">
        <ele>251</ele>
        <time>2022-04-03T07:48:33.000Z</time>
      </trkpt>
      <trkpt lat="49.6445" lon="4.74237">
        <ele>251</ele>
        <time>2022-04-03T07:48:34.000Z</time>
      </trkpt>
      <trkpt lat="49.6445" lon="4.74237">
        <ele>251</ele>
        <time>2022-04-03T07:48:35.000Z</time>
      </trkpt>
      <trkpt lat="49.64452" lon="4.74238">
        <ele>252</ele>
        <time>2022-04-03T07:48:36.000Z</time>
      </trkpt>
      <trkpt lat="49.64453" lon="4.74239">
        <ele>252</ele>
        <time>2022-04-03T07:48:37.000Z</time>
      </trkpt>
      <trkpt lat="49.64454" lon="4.74241">
        <ele>252</ele>
        <time>2022-04-03T07:48:38.000Z</time>
      </trkpt>
      <trkpt lat="49.64456" lon="4.74243">
        <ele>252</ele>
        <time>2022-04-03T07:48:39.000Z</time>
      </trkpt>
      <trkpt lat="49.64457" lon="4.74245">
        <ele>253</ele>
        <time>2022-04-03T07:48:40.000Z</time>
      </trkpt>
      <trkpt lat="49.64459" lon="4.74247">
        <ele>253</ele>
        <time>2022-04-03T07:48:41.000Z</time>
      </trkpt>
      <trkpt lat="49.6446" lon="4.74248">
        <ele>253</ele>
        <time>2022-04-03T07:48:42.000Z</time>
      </trkpt>
      <trkpt lat="49.64461" lon="4.74249">
        <ele>253</ele>
        <time>2022-04-03T07:48:43.000Z</time>
      </trkpt>
      <trkpt lat="49.64462" lon="4.74251">
        <ele>253</ele>
        <time>2022-04-03T07:48:44.000Z</time>
      </trkpt>
      <trkpt lat="49.64464" lon="4.74253">
        <ele>253</ele>
        <time>2022-04-03T07:48:45.000Z</time>
      </trkpt>
      <trkpt lat="49.64465" lon="4.74254">
        <ele>253</ele>
        <time>2022-04-03T07:48:46.000Z</time>
      </trkpt>
      <trkpt lat="49.64466" lon="4.74255">
        <ele>253</ele>
        <time>2022-04-03T07:48:47.000Z</time>
      </trkpt>
      <trkpt lat="49.64468" lon="4.74256">
        <ele>253</ele>
        <time>2022-04-03T07:48:48.000Z</time>
      </trkpt>
      <trkpt lat="49.64468" lon="4.74256">
        <ele>253</ele>
        <time>2022-04-03T07:48:49.000Z</time>
      </trkpt>
      <trkpt lat="49.64469" lon="4.74256">
        <ele>254</ele>
        <time>2022-04-03T07:48:50.000Z</time>
      </trkpt>
      <trkpt lat="49.64471" lon="4.74257">
        <ele>254</ele>
        <time>2022-04-03T07:48:51.000Z</time>
      </trkpt>
      <trkpt lat="49.64474" lon="4.7426">
        <ele>254</ele>
        <time>2022-04-03T07:48:52.000Z</time>
      </trkpt>
      <trkpt lat="49.64476" lon="4.74261">
        <ele>254</ele>
        <time>2022-04-03T07:48:53.000Z</time>
      </trkpt>
      <trkpt lat="49.64478" lon="4.74262">
        <ele>254</ele>
        <time>2022-04-03T07:48:54.000Z</time>
      </trkpt>
      <trkpt lat="49.64479" lon="4.74262">
        <ele>255</ele>
        <time>2022-04-03T07:48:55.000Z</time>
      </trkpt>
      <trkpt lat="49.64479" lon="4.74262">
        <ele>255</ele>
        <time>2022-04-03T07:48:56.000Z</time>
      </trkpt>
      <trkpt lat="49.64482" lon="4.74262">
        <ele>255</ele>
        <time>2022-04-03T07:48:57.000Z</time>
      </trkpt>
      <trkpt lat="49.64484" lon="4.74263">
        <ele>255</ele>
        <time>2022-04-03T07:48:58.000Z</time>
      </trkpt>
      <trkpt lat="49.64484" lon="4.74263">
        <ele>255</ele>
        <time>2022-04-03T07:48:59.000Z</time>
      </trkpt>
      <trkpt lat="49.64486" lon="4.74262">
        <ele>255</ele>
        <time>2022-04-03T07:49:00.000Z</time>
      </trkpt>
      <trkpt lat="49.64488" lon="4.74262">
        <ele>255</ele>
        <time>2022-04-03T07:49:01.000Z</time>
      </trkpt>
      <trkpt lat="49.64489" lon="4.74262">
        <ele>256</ele>
        <time>2022-04-03T07:49:02.000Z</time>
      </trkpt>
      <trkpt lat="49.64491" lon="4.74261">
        <ele>256</ele>
        <time>2022-04-03T07:49:03.000Z</time>
      </trkpt>
      <trkpt lat="49.64492" lon="4.74262">
        <ele>256</ele>
        <time>2022-04-03T07:49:04.000Z</time>
      </trkpt>
      <trkpt lat="49.64494" lon="4.74262">
        <ele>256</ele>
        <time>2022-04-03T07:49:05.000Z</time>
      </trkpt>
      <trkpt lat="49.64496" lon="4.74262">
        <ele>257</ele>
        <time>2022-04-03T07:49:06.000Z</time>
      </trkpt>
      <trkpt lat="49.64496" lon="4.74262">
        <ele>257</ele>
        <time>2022-04-03T07:49:07.000Z</time>
      </trkpt>
      <trkpt lat="49.64496" lon="4.74263">
        <ele>257</ele>
        <time>2022-04-03T07:49:08.000Z</time>
      </trkpt>
      <trkpt lat="49.64497" lon="4.74262">
        <ele>257</ele>
        <time>2022-04-03T07:49:09.000Z</time>
      </trkpt>
      <trkpt lat="49.64498" lon="4.74263">
        <ele>257</ele>
        <time>2022-04-03T07:49:10.000Z</time>
      </trkpt>
      <trkpt lat="49.64498" lon="4.74263">
        <ele>257</ele>
        <time>2022-04-03T07:49:11.000Z</time>
      </trkpt>
      <trkpt lat="49.64499" lon="4.74264">
        <ele>257</ele>
        <time>2022-04-03T07:49:12.000Z</time>
      </trkpt>
      <trkpt lat="49.64499" lon="4.74264">
        <ele>257</ele>
        <time>2022-04-03T07:49:13.000Z</time>
      </trkpt>
      <trkpt lat="49.64499" lon="4.74265">
        <ele>257</ele>
        <time>2022-04-03T07:49:14.000Z</time>
      </trkpt>
      <trkpt lat="49.645" lon="4.74265">
        <ele>257</ele>
        <time>2022-04-03T07:49:15.000Z</time>
      </trkpt>
      <trkpt lat="49.645" lon="4.74265">
        <ele>257</ele>
        <time>2022-04-03T07:49:16.000Z</time>
      </trkpt>
      <trkpt lat="49.645" lon="4.74265">
        <ele>257</ele>
        <time>2022-04-03T07:49:17.000Z</time>
      </trkpt>
      <trkpt lat="49.645" lon="4.74266">
        <ele>257</ele>
        <time>2022-04-03T07:49:18.000Z</time>
      </trkpt>
      <trkpt lat="49.645" lon="4.74266">
        <ele>257</ele>
        <time>2022-04-03T07:49:19.000Z</time>
      </trkpt>
      <trkpt lat="49.645" lon="4.74266">
        <ele>257</ele>
        <time>2022-04-03T07:49:20.000Z</time>
      </trkpt>
      <trkpt lat="49.645" lon="4.74266">
        <ele>257</ele>
        <time>2022-04-03T07:49:21.000Z</time>
      </trkpt>
      <trkpt lat="49.645" lon="4.74266">
        <ele>258</ele>
        <time>2022-04-03T07:49:22.000Z</time>
      </trkpt>
      <trkpt lat="49.645" lon="4.74266">
        <ele>258</ele>
        <time>2022-04-03T07:49:23.000Z</time>
      </trkpt>
      <trkpt lat="49.645" lon="4.74266">
        <ele>258</ele>
        <time>2022-04-03T07:49:24.000Z</time>
      </trkpt>
      <trkpt lat="49.645" lon="4.74266">
        <ele>258</ele>
        <time>2022-04-03T07:49:25.000Z</time>
      </trkpt>
      <trkpt lat="49.645" lon="4.74266">
        <ele>258</ele>
        <time>2022-04-03T07:49:26.000Z</time>
      </trkpt>
      <trkpt lat="49.645" lon="4.74267">
        <ele>258</ele>
        <time>2022-04-03T07:49:27.000Z</time>
      </trkpt>
      <trkpt lat="49.645" lon="4.74267">
        <ele>258</ele>
        <time>2022-04-03T07:49:28.000Z</time>
      </trkpt>
      <trkpt lat="49.64501" lon="4.74267">
        <ele>258</ele>
        <time>2022-04-03T07:49:29.000Z</time>
      </trkpt>
      <trkpt lat="49.64501" lon="4.74267">
        <ele>258</ele>
        <time>2022-04-03T07:49:30.000Z</time>
      </trkpt>
      <trkpt lat="49.64501" lon="4.74267">
        <ele>258</ele>
        <time>2022-04-03T07:49:31.000Z</time>
      </trkpt>
      <trkpt lat="49.64501" lon="4.74267">
        <ele>258</ele>
        <time>2022-04-03T07:49:32.000Z</time>
      </trkpt>
      <trkpt lat="49.64501" lon="4.74267">
        <ele>258</ele>
        <time>2022-04-03T07:49:33.000Z</time>
      </trkpt>
      <trkpt lat="49.64501" lon="4.74267">
        <ele>258</ele>
        <time>2022-04-03T07:49:34.000Z</time>
      </trkpt>
      <trkpt lat="49.64501" lon="4.74267">
        <ele>258</ele>
        <time>2022-04-03T07:49:35.000Z</time>
      </trkpt>
      <trkpt lat="49.64501" lon="4.74267">
        <ele>259</ele>
        <time>2022-04-03T07:49:36.000Z</time>
      </trkpt>
      <trkpt lat="49.64501" lon="4.74267">
        <ele>259</ele>
        <time>2022-04-03T07:49:37.000Z</time>
      </trkpt>
      <trkpt lat="49.64501" lon="4.74267">
        <ele>259</ele>
        <time>2022-04-03T07:49:38.000Z</time>
      </trkpt>
      <trkpt lat="49.64502" lon="4.74267">
        <ele>259</ele>
        <time>2022-04-03T07:49:39.000Z</time>
      </trkpt>
      <trkpt lat="49.64503" lon="4.74266">
        <ele>259</ele>
        <time>2022-04-03T07:49:40.000Z</time>
      </trkpt>
      <trkpt lat="49.64504" lon="4.74266">
        <ele>259</ele>
        <time>2022-04-03T07:49:41.000Z</time>
      </trkpt>
      <trkpt lat="49.64505" lon="4.74268">
        <ele>259</ele>
        <time>2022-04-03T07:49:42.000Z</time>
      </trkpt>
      <trkpt lat="49.64506" lon="4.74269">
        <ele>259</ele>
        <time>2022-04-03T07:49:43.000Z</time>
      </trkpt>
      <trkpt lat="49.64507" lon="4.7427">
        <ele>260</ele>
        <time>2022-04-03T07:49:44.000Z</time>
      </trkpt>
      <trkpt lat="49.64508" lon="4.74271">
        <ele>260</ele>
        <time>2022-04-03T07:49:45.000Z</time>
      </trkpt>
      <trkpt lat="49.6451" lon="4.7427">
        <ele>260</ele>
        <time>2022-04-03T07:49:46.000Z</time>
      </trkpt>
      <trkpt lat="49.64512" lon="4.74268">
        <ele>260</ele>
        <time>2022-04-03T07:49:47.000Z</time>
      </trkpt>
      <trkpt lat="49.64514" lon="4.74265">
        <ele>260</ele>
        <time>2022-04-03T07:49:48.000Z</time>
      </trkpt>
      <trkpt lat="49.64515" lon="4.74263">
        <ele>260</ele>
        <time>2022-04-03T07:49:49.000Z</time>
      </trkpt>
      <trkpt lat="49.64515" lon="4.7426">
        <ele>260</ele>
        <time>2022-04-03T07:49:50.000Z</time>
      </trkpt>
      <trkpt lat="49.64518" lon="4.74253">
        <ele>260</ele>
        <time>2022-04-03T07:49:51.000Z</time>
      </trkpt>
      <trkpt lat="49.64519" lon="4.7425">
        <ele>260</ele>
        <time>2022-04-03T07:49:52.000Z</time>
      </trkpt>
      <trkpt lat="49.64519" lon="4.7425">
        <ele>260</ele>
        <time>2022-04-03T07:49:53.000Z</time>
      </trkpt>
      <trkpt lat="49.64521" lon="4.74247">
        <ele>260</ele>
        <time>2022-04-03T07:49:54.000Z</time>
      </trkpt>
      <trkpt lat="49.64524" lon="4.74244">
        <ele>260</ele>
        <time>2022-04-03T07:49:55.000Z</time>
      </trkpt>
      <trkpt lat="49.64527" lon="4.74242">
        <ele>259</ele>
        <time>2022-04-03T07:49:56.000Z</time>
      </trkpt>
      <trkpt lat="49.6453" lon="4.74241">
        <ele>259</ele>
        <time>2022-04-03T07:49:57.000Z</time>
      </trkpt>
      <trkpt lat="49.64533" lon="4.74241">
        <ele>259</ele>
        <time>2022-04-03T07:49:58.000Z</time>
      </trkpt>
      <trkpt lat="49.64538" lon="4.74243">
        <ele>259</ele>
        <time>2022-04-03T07:49:59.000Z</time>
      </trkpt>
      <trkpt lat="49.64541" lon="4.74244">
        <ele>259</ele>
        <time>2022-04-03T07:50:00.000Z</time>
      </trkpt>
      <trkpt lat="49.64544" lon="4.74244">
        <ele>259</ele>
        <time>2022-04-03T07:50:01.000Z</time>
      </trkpt>
      <trkpt lat="49.64544" lon="4.74244">
        <ele>259</ele>
        <time>2022-04-03T07:50:02.000Z</time>
      </trkpt>
      <trkpt lat="49.64547" lon="4.74244">
        <ele>259</ele>
        <time>2022-04-03T07:50:03.000Z</time>
      </trkpt>
      <trkpt lat="49.6455" lon="4.74244">
        <ele>259</ele>
        <time>2022-04-03T07:50:04.000Z</time>
      </trkpt>
      <trkpt lat="49.64553" lon="4.74243">
        <ele>259</ele>
        <time>2022-04-03T07:50:05.000Z</time>
      </trkpt>
      <trkpt lat="49.64555" lon="4.74243">
        <ele>259</ele>
        <time>2022-04-03T07:50:06.000Z</time>
      </trkpt>
      <trkpt lat="49.64557" lon="4.74243">
        <ele>259</ele>
        <time>2022-04-03T07:50:07.000Z</time>
      </trkpt>
      <trkpt lat="49.6456" lon="4.74243">
        <ele>259</ele>
        <time>2022-04-03T07:50:08.000Z</time>
      </trkpt>
      <trkpt lat="49.64565" lon="4.74244">
        <ele>259</ele>
        <time>2022-04-03T07:50:09.000Z</time>
      </trkpt>
      <trkpt lat="49.64568" lon="4.74244">
        <ele>259</ele>
        <time>2022-04-03T07:50:10.000Z</time>
      </trkpt>
      <trkpt lat="49.6457" lon="4.74244">
        <ele>260</ele>
        <time>2022-04-03T07:50:11.000Z</time>
      </trkpt>
      <trkpt lat="49.64573" lon="4.74244">
        <ele>260</ele>
        <time>2022-04-03T07:50:12.000Z</time>
      </trkpt>
      <trkpt lat="49.64576" lon="4.74245">
        <ele>260</ele>
        <time>2022-04-03T07:50:13.000Z</time>
      </trkpt>
      <trkpt lat="49.64578" lon="4.74245">
        <ele>261</ele>
        <time>2022-04-03T07:50:14.000Z</time>
      </trkpt>
      <trkpt lat="49.64578" lon="4.74245">
        <ele>261</ele>
        <time>2022-04-03T07:50:15.000Z</time>
      </trkpt>
      <trkpt lat="49.64581" lon="4.74246">
        <ele>261</ele>
        <time>2022-04-03T07:50:16.000Z</time>
      </trkpt>
      <trkpt lat="49.64584" lon="4.74246">
        <ele>261</ele>
        <time>2022-04-03T07:50:17.000Z</time>
      </trkpt>
      <trkpt lat="49.64588" lon="4.74246">
        <ele>262</ele>
        <time>2022-04-03T07:50:18.000Z</time>
      </trkpt>
      <trkpt lat="49.6459" lon="4.74247">
        <ele>262</ele>
        <time>2022-04-03T07:50:19.000Z</time>
      </trkpt>
      <trkpt lat="49.64596" lon="4.74248">
        <ele>263</ele>
        <time>2022-04-03T07:50:20.000Z</time>
      </trkpt>
      <trkpt lat="49.64596" lon="4.74248">
        <ele>263</ele>
        <time>2022-04-03T07:50:21.000Z</time>
      </trkpt>
      <trkpt lat="49.64598" lon="4.74249">
        <ele>263</ele>
        <time>2022-04-03T07:50:22.000Z</time>
      </trkpt>
      <trkpt lat="49.64601" lon="4.74249">
        <ele>263</ele>
        <time>2022-04-03T07:50:23.000Z</time>
      </trkpt>
      <trkpt lat="49.64603" lon="4.74249">
        <ele>264</ele>
        <time>2022-04-03T07:50:24.000Z</time>
      </trkpt>
      <trkpt lat="49.64608" lon="4.74249">
        <ele>264</ele>
        <time>2022-04-03T07:50:25.000Z</time>
      </trkpt>
      <trkpt lat="49.6461" lon="4.74249">
        <ele>265</ele>
        <time>2022-04-03T07:50:26.000Z</time>
      </trkpt>
      <trkpt lat="49.64612" lon="4.74249">
        <ele>265</ele>
        <time>2022-04-03T07:50:27.000Z</time>
      </trkpt>
      <trkpt lat="49.64614" lon="4.7425">
        <ele>265</ele>
        <time>2022-04-03T07:50:28.000Z</time>
      </trkpt>
      <trkpt lat="49.64617" lon="4.74251">
        <ele>266</ele>
        <time>2022-04-03T07:50:29.000Z</time>
      </trkpt>
      <trkpt lat="49.64619" lon="4.74251">
        <ele>266</ele>
        <time>2022-04-03T07:50:30.000Z</time>
      </trkpt>
      <trkpt lat="49.64621" lon="4.74252">
        <ele>266</ele>
        <time>2022-04-03T07:50:31.000Z</time>
      </trkpt>
      <trkpt lat="49.64623" lon="4.74253">
        <ele>267</ele>
        <time>2022-04-03T07:50:32.000Z</time>
      </trkpt>
      <trkpt lat="49.64625" lon="4.74253">
        <ele>267</ele>
        <time>2022-04-03T07:50:33.000Z</time>
      </trkpt>
      <trkpt lat="49.64627" lon="4.74254">
        <ele>267</ele>
        <time>2022-04-03T07:50:34.000Z</time>
      </trkpt>
      <trkpt lat="49.64627" lon="4.74254">
        <ele>267</ele>
        <time>2022-04-03T07:50:35.000Z</time>
      </trkpt>
      <trkpt lat="49.6463" lon="4.74255">
        <ele>267</ele>
        <time>2022-04-03T07:50:36.000Z</time>
      </trkpt>
      <trkpt lat="49.64632" lon="4.74256">
        <ele>268</ele>
        <time>2022-04-03T07:50:37.000Z</time>
      </trkpt>
      <trkpt lat="49.64635" lon="4.74255">
        <ele>268</ele>
        <time>2022-04-03T07:50:38.000Z</time>
      </trkpt>
      <trkpt lat="49.64637" lon="4.74256">
        <ele>268</ele>
        <time>2022-04-03T07:50:39.000Z</time>
      </trkpt>
      <trkpt lat="49.64639" lon="4.74256">
        <ele>268</ele>
        <time>2022-04-03T07:50:40.000Z</time>
      </trkpt>
      <trkpt lat="49.64641" lon="4.74257">
        <ele>269</ele>
        <time>2022-04-03T07:50:41.000Z</time>
      </trkpt>
      <trkpt lat="49.64644" lon="4.74257">
        <ele>269</ele>
        <time>2022-04-03T07:50:42.000Z</time>
      </trkpt>
      <trkpt lat="49.64646" lon="4.74258">
        <ele>269</ele>
        <time>2022-04-03T07:50:43.000Z</time>
      </trkpt>
      <trkpt lat="49.64649" lon="4.74259">
        <ele>269</ele>
        <time>2022-04-03T07:50:44.000Z</time>
      </trkpt>
      <trkpt lat="49.64651" lon="4.7426">
        <ele>269</ele>
        <time>2022-04-03T07:50:45.000Z</time>
      </trkpt>
      <trkpt lat="49.64653" lon="4.7426">
        <ele>269</ele>
        <time>2022-04-03T07:50:46.000Z</time>
      </trkpt>
      <trkpt lat="49.64656" lon="4.74261">
        <ele>270</ele>
        <time>2022-04-03T07:50:47.000Z</time>
      </trkpt>
      <trkpt lat="49.64658" lon="4.74261">
        <ele>270</ele>
        <time>2022-04-03T07:50:48.000Z</time>
      </trkpt>
      <trkpt lat="49.64661" lon="4.74262">
        <ele>270</ele>
        <time>2022-04-03T07:50:49.000Z</time>
      </trkpt>
      <trkpt lat="49.64663" lon="4.74262">
        <ele>270</ele>
        <time>2022-04-03T07:50:50.000Z</time>
      </trkpt>
      <trkpt lat="49.64666" lon="4.74262">
        <ele>270</ele>
        <time>2022-04-03T07:50:51.000Z</time>
      </trkpt>
      <trkpt lat="49.64669" lon="4.74263">
        <ele>270</ele>
        <time>2022-04-03T07:50:52.000Z</time>
      </trkpt>
      <trkpt lat="49.64671" lon="4.74264">
        <ele>270</ele>
        <time>2022-04-03T07:50:53.000Z</time>
      </trkpt>
      <trkpt lat="49.64674" lon="4.74264">
        <ele>270</ele>
        <time>2022-04-03T07:50:54.000Z</time>
      </trkpt>
      <trkpt lat="49.64679" lon="4.74265">
        <ele>270</ele>
        <time>2022-04-03T07:50:55.000Z</time>
      </trkpt>
      <trkpt lat="49.64681" lon="4.74266">
        <ele>270</ele>
        <time>2022-04-03T07:50:56.000Z</time>
      </trkpt>
      <trkpt lat="49.64681" lon="4.74266">
        <ele>270</ele>
        <time>2022-04-03T07:50:57.000Z</time>
      </trkpt>
      <trkpt lat="49.64686" lon="4.74268">
        <ele>270</ele>
        <time>2022-04-03T07:50:58.000Z</time>
      </trkpt>
      <trkpt lat="49.64686" lon="4.74268">
        <ele>270</ele>
        <time>2022-04-03T07:50:59.000Z</time>
      </trkpt>
      <trkpt lat="49.64688" lon="4.74269">
        <ele>270</ele>
        <time>2022-04-03T07:51:00.000Z</time>
      </trkpt>
      <trkpt lat="49.6469" lon="4.7427">
        <ele>270</ele>
        <time>2022-04-03T07:51:01.000Z</time>
      </trkpt>
      <trkpt lat="49.64693" lon="4.74271">
        <ele>270</ele>
        <time>2022-04-03T07:51:02.000Z</time>
      </trkpt>
      <trkpt lat="49.64695" lon="4.74271">
        <ele>270</ele>
        <time>2022-04-03T07:51:03.000Z</time>
      </trkpt>
      <trkpt lat="49.64697" lon="4.74272">
        <ele>270</ele>
        <time>2022-04-03T07:51:04.000Z</time>
      </trkpt>
      <trkpt lat="49.64699" lon="4.74273">
        <ele>271</ele>
        <time>2022-04-03T07:51:05.000Z</time>
      </trkpt>
      <trkpt lat="49.64702" lon="4.74273">
        <ele>271</ele>
        <time>2022-04-03T07:51:06.000Z</time>
      </trkpt>
      <trkpt lat="49.64704" lon="4.74273">
        <ele>271</ele>
        <time>2022-04-03T07:51:07.000Z</time>
      </trkpt>
      <trkpt lat="49.64708" lon="4.74274">
        <ele>271</ele>
        <time>2022-04-03T07:51:08.000Z</time>
      </trkpt>
      <trkpt lat="49.6471" lon="4.74275">
        <ele>271</ele>
        <time>2022-04-03T07:51:09.000Z</time>
      </trkpt>
      <trkpt lat="49.64712" lon="4.74275">
        <ele>271</ele>
        <time>2022-04-03T07:51:10.000Z</time>
      </trkpt>
      <trkpt lat="49.64714" lon="4.74275">
        <ele>272</ele>
        <time>2022-04-03T07:51:11.000Z</time>
      </trkpt>
      <trkpt lat="49.64716" lon="4.74276">
        <ele>272</ele>
        <time>2022-04-03T07:51:12.000Z</time>
      </trkpt>
      <trkpt lat="49.64718" lon="4.74277">
        <ele>272</ele>
        <time>2022-04-03T07:51:13.000Z</time>
      </trkpt>
      <trkpt lat="49.64718" lon="4.74277">
        <ele>272</ele>
        <time>2022-04-03T07:51:14.000Z</time>
      </trkpt>
      <trkpt lat="49.64721" lon="4.74277">
        <ele>273</ele>
        <time>2022-04-03T07:51:15.000Z</time>
      </trkpt>
      <trkpt lat="49.64722" lon="4.74278">
        <ele>273</ele>
        <time>2022-04-03T07:51:16.000Z</time>
      </trkpt>
      <trkpt lat="49.64724" lon="4.74279">
        <ele>273</ele>
        <time>2022-04-03T07:51:17.000Z</time>
      </trkpt>
      <trkpt lat="49.64729" lon="4.74279">
        <ele>274</ele>
        <time>2022-04-03T07:51:18.000Z</time>
      </trkpt>
      <trkpt lat="49.64731" lon="4.74279">
        <ele>274</ele>
        <time>2022-04-03T07:51:19.000Z</time>
      </trkpt>
      <trkpt lat="49.64732" lon="4.74278">
        <ele>274</ele>
        <time>2022-04-03T07:51:20.000Z</time>
      </trkpt>
      <trkpt lat="49.64732" lon="4.74278">
        <ele>274</ele>
        <time>2022-04-03T07:51:21.000Z</time>
      </trkpt>
      <trkpt lat="49.64731" lon="4.74274">
        <ele>275</ele>
        <time>2022-04-03T07:51:22.000Z</time>
      </trkpt>
      <trkpt lat="49.64731" lon="4.74274">
        <ele>275</ele>
        <time>2022-04-03T07:51:23.000Z</time>
      </trkpt>
      <trkpt lat="49.64728" lon="4.74265">
        <ele>275</ele>
        <time>2022-04-03T07:51:24.000Z</time>
      </trkpt>
      <trkpt lat="49.64728" lon="4.74265">
        <ele>275</ele>
        <time>2022-04-03T07:51:25.000Z</time>
      </trkpt>
      <trkpt lat="49.64727" lon="4.74258">
        <ele>275</ele>
        <time>2022-04-03T07:51:26.000Z</time>
      </trkpt>
      <trkpt lat="49.64725" lon="4.74251">
        <ele>275</ele>
        <time>2022-04-03T07:51:27.000Z</time>
      </trkpt>
      <trkpt lat="49.64722" lon="4.74234">
        <ele>274</ele>
        <time>2022-04-03T07:51:28.000Z</time>
      </trkpt>
      <trkpt lat="49.64722" lon="4.74234">
        <ele>274</ele>
        <time>2022-04-03T07:51:29.000Z</time>
      </trkpt>
      <trkpt lat="49.6472" lon="4.74225">
        <ele>274</ele>
        <time>2022-04-03T07:51:30.000Z</time>
      </trkpt>
      <trkpt lat="49.64718" lon="4.74215">
        <ele>274</ele>
        <time>2022-04-03T07:51:31.000Z</time>
      </trkpt>
      <trkpt lat="49.64716" lon="4.74204">
        <ele>273</ele>
        <time>2022-04-03T07:51:32.000Z</time>
      </trkpt>
      <trkpt lat="49.64714" lon="4.74193">
        <ele>273</ele>
        <time>2022-04-03T07:51:33.000Z</time>
      </trkpt>
      <trkpt lat="49.64711" lon="4.74181">
        <ele>272</ele>
        <time>2022-04-03T07:51:34.000Z</time>
      </trkpt>
      <trkpt lat="49.64709" lon="4.74168">
        <ele>271</ele>
        <time>2022-04-03T07:51:35.000Z</time>
      </trkpt>
      <trkpt lat="49.64704" lon="4.74145">
        <ele>270</ele>
        <time>2022-04-03T07:51:36.000Z</time>
      </trkpt>
      <trkpt lat="49.64704" lon="4.74145">
        <ele>270</ele>
        <time>2022-04-03T07:51:37.000Z</time>
      </trkpt>
      <trkpt lat="49.64699" lon="4.74121">
        <ele>269</ele>
        <time>2022-04-03T07:51:38.000Z</time>
      </trkpt>
      <trkpt lat="49.64697" lon="4.74109">
        <ele>268</ele>
        <time>2022-04-03T07:51:39.000Z</time>
      </trkpt>
      <trkpt lat="49.64695" lon="4.74096">
        <ele>267</ele>
        <time>2022-04-03T07:51:40.000Z</time>
      </trkpt>
      <trkpt lat="49.64693" lon="4.74084">
        <ele>266</ele>
        <time>2022-04-03T07:51:41.000Z</time>
      </trkpt>
      <trkpt lat="49.6469" lon="4.74072">
        <ele>265</ele>
        <time>2022-04-03T07:51:42.000Z</time>
      </trkpt>
      <trkpt lat="49.6469" lon="4.74072">
        <ele>265</ele>
        <time>2022-04-03T07:51:43.000Z</time>
      </trkpt>
      <trkpt lat="49.64686" lon="4.7405">
        <ele>263</ele>
        <time>2022-04-03T07:51:44.000Z</time>
      </trkpt>
      <trkpt lat="49.64684" lon="4.7404">
        <ele>262</ele>
        <time>2022-04-03T07:51:45.000Z</time>
      </trkpt>
      <trkpt lat="49.64682" lon="4.74031">
        <ele>262</ele>
        <time>2022-04-03T07:51:46.000Z</time>
      </trkpt>
      <trkpt lat="49.64682" lon="4.74031">
        <ele>262</ele>
        <time>2022-04-03T07:51:47.000Z</time>
      </trkpt>
      <trkpt lat="49.64681" lon="4.74022">
        <ele>261</ele>
        <time>2022-04-03T07:51:48.000Z</time>
      </trkpt>
      <trkpt lat="49.64678" lon="4.74004">
        <ele>259</ele>
        <time>2022-04-03T07:51:49.000Z</time>
      </trkpt>
      <trkpt lat="49.64677" lon="4.73996">
        <ele>258</ele>
        <time>2022-04-03T07:51:50.000Z</time>
      </trkpt>
      <trkpt lat="49.64675" lon="4.73987">
        <ele>258</ele>
        <time>2022-04-03T07:51:51.000Z</time>
      </trkpt>
      <trkpt lat="49.64673" lon="4.73978">
        <ele>257</ele>
        <time>2022-04-03T07:51:52.000Z</time>
      </trkpt>
      <trkpt lat="49.64671" lon="4.73968">
        <ele>256</ele>
        <time>2022-04-03T07:51:53.000Z</time>
      </trkpt>
      <trkpt lat="49.6467" lon="4.7396">
        <ele>256</ele>
        <time>2022-04-03T07:51:54.000Z</time>
      </trkpt>
      <trkpt lat="49.64668" lon="4.73951">
        <ele>255</ele>
        <time>2022-04-03T07:51:55.000Z</time>
      </trkpt>
      <trkpt lat="49.64668" lon="4.73951">
        <ele>255</ele>
        <time>2022-04-03T07:51:56.000Z</time>
      </trkpt>
      <trkpt lat="49.64665" lon="4.73941">
        <ele>255</ele>
        <time>2022-04-03T07:51:57.000Z</time>
      </trkpt>
      <trkpt lat="49.64664" lon="4.73931">
        <ele>254</ele>
        <time>2022-04-03T07:51:58.000Z</time>
      </trkpt>
      <trkpt lat="49.64662" lon="4.73922">
        <ele>254</ele>
        <time>2022-04-03T07:51:59.000Z</time>
      </trkpt>
      <trkpt lat="49.6466" lon="4.73913">
        <ele>253</ele>
        <time>2022-04-03T07:52:00.000Z</time>
      </trkpt>
      <trkpt lat="49.64658" lon="4.73903">
        <ele>253</ele>
        <time>2022-04-03T07:52:01.000Z</time>
      </trkpt>
      <trkpt lat="49.64656" lon="4.73893">
        <ele>252</ele>
        <time>2022-04-03T07:52:02.000Z</time>
      </trkpt>
      <trkpt lat="49.64654" lon="4.73882">
        <ele>252</ele>
        <time>2022-04-03T07:52:03.000Z</time>
      </trkpt>
      <trkpt lat="49.6465" lon="4.73861">
        <ele>251</ele>
        <time>2022-04-03T07:52:04.000Z</time>
      </trkpt>
      <trkpt lat="49.6465" lon="4.73861">
        <ele>251</ele>
        <time>2022-04-03T07:52:05.000Z</time>
      </trkpt>
      <trkpt lat="49.64647" lon="4.7385">
        <ele>250</ele>
        <time>2022-04-03T07:52:06.000Z</time>
      </trkpt>
      <trkpt lat="49.64646" lon="4.7384">
        <ele>250</ele>
        <time>2022-04-03T07:52:07.000Z</time>
      </trkpt>
      <trkpt lat="49.64644" lon="4.73833">
        <ele>249</ele>
        <time>2022-04-03T07:52:08.000Z</time>
      </trkpt>
      <trkpt lat="49.64641" lon="4.73829">
        <ele>249</ele>
        <time>2022-04-03T07:52:09.000Z</time>
      </trkpt>
      <trkpt lat="49.64639" lon="4.73826">
        <ele>249</ele>
        <time>2022-04-03T07:52:10.000Z</time>
      </trkpt>
      <trkpt lat="49.64635" lon="4.73821">
        <ele>248</ele>
        <time>2022-04-03T07:52:11.000Z</time>
      </trkpt>
      <trkpt lat="49.64632" lon="4.73817">
        <ele>248</ele>
        <time>2022-04-03T07:52:12.000Z</time>
      </trkpt>
      <trkpt lat="49.64629" lon="4.73812">
        <ele>248</ele>
        <time>2022-04-03T07:52:13.000Z</time>
      </trkpt>
      <trkpt lat="49.64626" lon="4.73807">
        <ele>247</ele>
        <time>2022-04-03T07:52:14.000Z</time>
      </trkpt>
      <trkpt lat="49.64625" lon="4.73804">
        <ele>247</ele>
        <time>2022-04-03T07:52:15.000Z</time>
      </trkpt>
      <trkpt lat="49.64623" lon="4.738">
        <ele>247</ele>
        <time>2022-04-03T07:52:16.000Z</time>
      </trkpt>
      <trkpt lat="49.64621" lon="4.73798">
        <ele>247</ele>
        <time>2022-04-03T07:52:17.000Z</time>
      </trkpt>
      <trkpt lat="49.6462" lon="4.73795">
        <ele>247</ele>
        <time>2022-04-03T07:52:18.000Z</time>
      </trkpt>
      <trkpt lat="49.64619" lon="4.73793">
        <ele>246</ele>
        <time>2022-04-03T07:52:19.000Z</time>
      </trkpt>
      <trkpt lat="49.64617" lon="4.73792">
        <ele>246</ele>
        <time>2022-04-03T07:52:20.000Z</time>
      </trkpt>
      <trkpt lat="49.64616" lon="4.73789">
        <ele>246</ele>
        <time>2022-04-03T07:52:21.000Z</time>
      </trkpt>
      <trkpt lat="49.64615" lon="4.73786">
        <ele>246</ele>
        <time>2022-04-03T07:52:22.000Z</time>
      </trkpt>
      <trkpt lat="49.64613" lon="4.73781">
        <ele>246</ele>
        <time>2022-04-03T07:52:23.000Z</time>
      </trkpt>
      <trkpt lat="49.64612" lon="4.73777">
        <ele>246</ele>
        <time>2022-04-03T07:52:24.000Z</time>
      </trkpt>
      <trkpt lat="49.64612" lon="4.73772">
        <ele>246</ele>
        <time>2022-04-03T07:52:25.000Z</time>
      </trkpt>
      <trkpt lat="49.64613" lon="4.73766">
        <ele>246</ele>
        <time>2022-04-03T07:52:26.000Z</time>
      </trkpt>
      <trkpt lat="49.64614" lon="4.7376">
        <ele>246</ele>
        <time>2022-04-03T07:52:27.000Z</time>
      </trkpt>
      <trkpt lat="49.64616" lon="4.73755">
        <ele>246</ele>
        <time>2022-04-03T07:52:28.000Z</time>
      </trkpt>
      <trkpt lat="49.64618" lon="4.73751">
        <ele>245</ele>
        <time>2022-04-03T07:52:29.000Z</time>
      </trkpt>
      <trkpt lat="49.64621" lon="4.73747">
        <ele>245</ele>
        <time>2022-04-03T07:52:30.000Z</time>
      </trkpt>
      <trkpt lat="49.64626" lon="4.73738">
        <ele>245</ele>
        <time>2022-04-03T07:52:31.000Z</time>
      </trkpt>
      <trkpt lat="49.64629" lon="4.73734">
        <ele>245</ele>
        <time>2022-04-03T07:52:32.000Z</time>
      </trkpt>
      <trkpt lat="49.64629" lon="4.73734">
        <ele>245</ele>
        <time>2022-04-03T07:52:33.000Z</time>
      </trkpt>
      <trkpt lat="49.64632" lon="4.7373">
        <ele>245</ele>
        <time>2022-04-03T07:52:34.000Z</time>
      </trkpt>
      <trkpt lat="49.64636" lon="4.73726">
        <ele>245</ele>
        <time>2022-04-03T07:52:35.000Z</time>
      </trkpt>
      <trkpt lat="49.6464" lon="4.73722">
        <ele>245</ele>
        <time>2022-04-03T07:52:36.000Z</time>
      </trkpt>
      <trkpt lat="49.64644" lon="4.73718">
        <ele>245</ele>
        <time>2022-04-03T07:52:37.000Z</time>
      </trkpt>
      <trkpt lat="49.64649" lon="4.73714">
        <ele>245</ele>
        <time>2022-04-03T07:52:38.000Z</time>
      </trkpt>
      <trkpt lat="49.64653" lon="4.7371">
        <ele>245</ele>
        <time>2022-04-03T07:52:39.000Z</time>
      </trkpt>
      <trkpt lat="49.64657" lon="4.73707">
        <ele>245</ele>
        <time>2022-04-03T07:52:40.000Z</time>
      </trkpt>
      <trkpt lat="49.64662" lon="4.73702">
        <ele>244</ele>
        <time>2022-04-03T07:52:41.000Z</time>
      </trkpt>
      <trkpt lat="49.64667" lon="4.73698">
        <ele>244</ele>
        <time>2022-04-03T07:52:42.000Z</time>
      </trkpt>
      <trkpt lat="49.64671" lon="4.73695">
        <ele>244</ele>
        <time>2022-04-03T07:52:43.000Z</time>
      </trkpt>
      <trkpt lat="49.64676" lon="4.73691">
        <ele>244</ele>
        <time>2022-04-03T07:52:44.000Z</time>
      </trkpt>
      <trkpt lat="49.64685" lon="4.73681">
        <ele>244</ele>
        <time>2022-04-03T07:52:45.000Z</time>
      </trkpt>
      <trkpt lat="49.64689" lon="4.73676">
        <ele>244</ele>
        <time>2022-04-03T07:52:46.000Z</time>
      </trkpt>
      <trkpt lat="49.64689" lon="4.73676">
        <ele>244</ele>
        <time>2022-04-03T07:52:47.000Z</time>
      </trkpt>
      <trkpt lat="49.64694" lon="4.73672">
        <ele>244</ele>
        <time>2022-04-03T07:52:48.000Z</time>
      </trkpt>
      <trkpt lat="49.64698" lon="4.73667">
        <ele>244</ele>
        <time>2022-04-03T07:52:49.000Z</time>
      </trkpt>
      <trkpt lat="49.64702" lon="4.73661">
        <ele>244</ele>
        <time>2022-04-03T07:52:50.000Z</time>
      </trkpt>
      <trkpt lat="49.64706" lon="4.73656">
        <ele>244</ele>
        <time>2022-04-03T07:52:51.000Z</time>
      </trkpt>
      <trkpt lat="49.6471" lon="4.73651">
        <ele>244</ele>
        <time>2022-04-03T07:52:52.000Z</time>
      </trkpt>
      <trkpt lat="49.64714" lon="4.73647">
        <ele>244</ele>
        <time>2022-04-03T07:52:53.000Z</time>
      </trkpt>
      <trkpt lat="49.64722" lon="4.73635">
        <ele>244</ele>
        <time>2022-04-03T07:52:54.000Z</time>
      </trkpt>
      <trkpt lat="49.64726" lon="4.7363">
        <ele>244</ele>
        <time>2022-04-03T07:52:55.000Z</time>
      </trkpt>
      <trkpt lat="49.6473" lon="4.73625">
        <ele>244</ele>
        <time>2022-04-03T07:52:56.000Z</time>
      </trkpt>
      <trkpt lat="49.64734" lon="4.73619">
        <ele>244</ele>
        <time>2022-04-03T07:52:57.000Z</time>
      </trkpt>
      <trkpt lat="49.64738" lon="4.73614">
        <ele>244</ele>
        <time>2022-04-03T07:52:58.000Z</time>
      </trkpt>
      <trkpt lat="49.64743" lon="4.73608">
        <ele>244</ele>
        <time>2022-04-03T07:52:59.000Z</time>
      </trkpt>
      <trkpt lat="49.64747" lon="4.73603">
        <ele>244</ele>
        <time>2022-04-03T07:53:00.000Z</time>
      </trkpt>
      <trkpt lat="49.64751" lon="4.73597">
        <ele>244</ele>
        <time>2022-04-03T07:53:01.000Z</time>
      </trkpt>
      <trkpt lat="49.64754" lon="4.73592">
        <ele>244</ele>
        <time>2022-04-03T07:53:02.000Z</time>
      </trkpt>
      <trkpt lat="49.64758" lon="4.73587">
        <ele>244</ele>
        <time>2022-04-03T07:53:03.000Z</time>
      </trkpt>
      <trkpt lat="49.64758" lon="4.73587">
        <ele>244</ele>
        <time>2022-04-03T07:53:04.000Z</time>
      </trkpt>
      <trkpt lat="49.64761" lon="4.73582">
        <ele>244</ele>
        <time>2022-04-03T07:53:05.000Z</time>
      </trkpt>
      <trkpt lat="49.64765" lon="4.73578">
        <ele>244</ele>
        <time>2022-04-03T07:53:06.000Z</time>
      </trkpt>
      <trkpt lat="49.64768" lon="4.73573">
        <ele>244</ele>
        <time>2022-04-03T07:53:07.000Z</time>
      </trkpt>
      <trkpt lat="49.64774" lon="4.73564">
        <ele>244</ele>
        <time>2022-04-03T07:53:08.000Z</time>
      </trkpt>
      <trkpt lat="49.64777" lon="4.73559">
        <ele>244</ele>
        <time>2022-04-03T07:53:09.000Z</time>
      </trkpt>
      <trkpt lat="49.64781" lon="4.73554">
        <ele>244</ele>
        <time>2022-04-03T07:53:10.000Z</time>
      </trkpt>
      <trkpt lat="49.64784" lon="4.7355">
        <ele>244</ele>
        <time>2022-04-03T07:53:11.000Z</time>
      </trkpt>
      <trkpt lat="49.64787" lon="4.73545">
        <ele>244</ele>
        <time>2022-04-03T07:53:12.000Z</time>
      </trkpt>
      <trkpt lat="49.64791" lon="4.73541">
        <ele>244</ele>
        <time>2022-04-03T07:53:13.000Z</time>
      </trkpt>
      <trkpt lat="49.64795" lon="4.73536">
        <ele>245</ele>
        <time>2022-04-03T07:53:14.000Z</time>
      </trkpt>
      <trkpt lat="49.64798" lon="4.7353">
        <ele>245</ele>
        <time>2022-04-03T07:53:15.000Z</time>
      </trkpt>
      <trkpt lat="49.64798" lon="4.7353">
        <ele>245</ele>
        <time>2022-04-03T07:53:16.000Z</time>
      </trkpt>
      <trkpt lat="49.64802" lon="4.73525">
        <ele>245</ele>
        <time>2022-04-03T07:53:17.000Z</time>
      </trkpt>
      <trkpt lat="49.64806" lon="4.73519">
        <ele>245</ele>
        <time>2022-04-03T07:53:18.000Z</time>
      </trkpt>
      <trkpt lat="49.64809" lon="4.73514">
        <ele>245</ele>
        <time>2022-04-03T07:53:19.000Z</time>
      </trkpt>
      <trkpt lat="49.64813" lon="4.73509">
        <ele>245</ele>
        <time>2022-04-03T07:53:20.000Z</time>
      </trkpt>
      <trkpt lat="49.64816" lon="4.73504">
        <ele>245</ele>
        <time>2022-04-03T07:53:21.000Z</time>
      </trkpt>
      <trkpt lat="49.64824" lon="4.73495">
        <ele>246</ele>
        <time>2022-04-03T07:53:22.000Z</time>
      </trkpt>
      <trkpt lat="49.64827" lon="4.73491">
        <ele>246</ele>
        <time>2022-04-03T07:53:23.000Z</time>
      </trkpt>
      <trkpt lat="49.64831" lon="4.73486">
        <ele>246</ele>
        <time>2022-04-03T07:53:24.000Z</time>
      </trkpt>
      <trkpt lat="49.64834" lon="4.73481">
        <ele>246</ele>
        <time>2022-04-03T07:53:25.000Z</time>
      </trkpt>
      <trkpt lat="49.64838" lon="4.73477">
        <ele>246</ele>
        <time>2022-04-03T07:53:26.000Z</time>
      </trkpt>
      <trkpt lat="49.64842" lon="4.73473">
        <ele>246</ele>
        <time>2022-04-03T07:53:27.000Z</time>
      </trkpt>
      <trkpt lat="49.64845" lon="4.73469">
        <ele>246</ele>
        <time>2022-04-03T07:53:28.000Z</time>
      </trkpt>
      <trkpt lat="49.64845" lon="4.73469">
        <ele>246</ele>
        <time>2022-04-03T07:53:29.000Z</time>
      </trkpt>
      <trkpt lat="49.64849" lon="4.73465">
        <ele>247</ele>
        <time>2022-04-03T07:53:30.000Z</time>
      </trkpt>
      <trkpt lat="49.64857" lon="4.73458">
        <ele>247</ele>
        <time>2022-04-03T07:53:31.000Z</time>
      </trkpt>
      <trkpt lat="49.64857" lon="4.73458">
        <ele>247</ele>
        <time>2022-04-03T07:53:32.000Z</time>
      </trkpt>
      <trkpt lat="49.64861" lon="4.73454">
        <ele>247</ele>
        <time>2022-04-03T07:53:33.000Z</time>
      </trkpt>
      <trkpt lat="49.64865" lon="4.73451">
        <ele>247</ele>
        <time>2022-04-03T07:53:34.000Z</time>
      </trkpt>
      <trkpt lat="49.64869" lon="4.73447">
        <ele>248</ele>
        <time>2022-04-03T07:53:35.000Z</time>
      </trkpt>
      <trkpt lat="49.64873" lon="4.73444">
        <ele>248</ele>
        <time>2022-04-03T07:53:36.000Z</time>
      </trkpt>
      <trkpt lat="49.64878" lon="4.7344">
        <ele>248</ele>
        <time>2022-04-03T07:53:37.000Z</time>
      </trkpt>
      <trkpt lat="49.64882" lon="4.73436">
        <ele>248</ele>
        <time>2022-04-03T07:53:38.000Z</time>
      </trkpt>
      <trkpt lat="49.6489" lon="4.73429">
        <ele>249</ele>
        <time>2022-04-03T07:53:39.000Z</time>
      </trkpt>
      <trkpt lat="49.64894" lon="4.73426">
        <ele>249</ele>
        <time>2022-04-03T07:53:40.000Z</time>
      </trkpt>
      <trkpt lat="49.64899" lon="4.73422">
        <ele>249</ele>
        <time>2022-04-03T07:53:41.000Z</time>
      </trkpt>
      <trkpt lat="49.64899" lon="4.73422">
        <ele>249</ele>
        <time>2022-04-03T07:53:42.000Z</time>
      </trkpt>
      <trkpt lat="49.64903" lon="4.73419">
        <ele>249</ele>
        <time>2022-04-03T07:53:43.000Z</time>
      </trkpt>
      <trkpt lat="49.64907" lon="4.73415">
        <ele>250</ele>
        <time>2022-04-03T07:53:44.000Z</time>
      </trkpt>
      <trkpt lat="49.64912" lon="4.73411">
        <ele>250</ele>
        <time>2022-04-03T07:53:45.000Z</time>
      </trkpt>
      <trkpt lat="49.64916" lon="4.73408">
        <ele>250</ele>
        <time>2022-04-03T07:53:46.000Z</time>
      </trkpt>
      <trkpt lat="49.6492" lon="4.73405">
        <ele>250</ele>
        <time>2022-04-03T07:53:47.000Z</time>
      </trkpt>
      <trkpt lat="49.64924" lon="4.73401">
        <ele>250</ele>
        <time>2022-04-03T07:53:48.000Z</time>
      </trkpt>
      <trkpt lat="49.64928" lon="4.73398">
        <ele>251</ele>
        <time>2022-04-03T07:53:49.000Z</time>
      </trkpt>
      <trkpt lat="49.64932" lon="4.73395">
        <ele>251</ele>
        <time>2022-04-03T07:53:50.000Z</time>
      </trkpt>
      <trkpt lat="49.64936" lon="4.73391">
        <ele>251</ele>
        <time>2022-04-03T07:53:51.000Z</time>
      </trkpt>
      <trkpt lat="49.64943" lon="4.73384">
        <ele>252</ele>
        <time>2022-04-03T07:53:52.000Z</time>
      </trkpt>
      <trkpt lat="49.64943" lon="4.73384">
        <ele>252</ele>
        <time>2022-04-03T07:53:53.000Z</time>
      </trkpt>
      <trkpt lat="49.64947" lon="4.7338">
        <ele>252</ele>
        <time>2022-04-03T07:53:54.000Z</time>
      </trkpt>
      <trkpt lat="49.64948" lon="4.73377">
        <ele>253</ele>
        <time>2022-04-03T07:53:55.000Z</time>
      </trkpt>
      <trkpt lat="49.64948" lon="4.73377">
        <ele>253</ele>
        <time>2022-04-03T07:53:56.000Z</time>
      </trkpt>
      <trkpt lat="49.64948" lon="4.73373">
        <ele>253</ele>
        <time>2022-04-03T07:53:57.000Z</time>
      </trkpt>
      <trkpt lat="49.64949" lon="4.73367">
        <ele>253</ele>
        <time>2022-04-03T07:53:58.000Z</time>
      </trkpt>
      <trkpt lat="49.64949" lon="4.73365">
        <ele>253</ele>
        <time>2022-04-03T07:53:59.000Z</time>
      </trkpt>
      <trkpt lat="49.6495" lon="4.73362">
        <ele>253</ele>
        <time>2022-04-03T07:54:00.000Z</time>
      </trkpt>
      <trkpt lat="49.6495" lon="4.73362">
        <ele>253</ele>
        <time>2022-04-03T07:54:01.000Z</time>
      </trkpt>
      <trkpt lat="49.6495" lon="4.73359">
        <ele>254</ele>
        <time>2022-04-03T07:54:02.000Z</time>
      </trkpt>
      <trkpt lat="49.64949" lon="4.73354">
        <ele>254</ele>
        <time>2022-04-03T07:54:03.000Z</time>
      </trkpt>
      <trkpt lat="49.64949" lon="4.73351">
        <ele>254</ele>
        <time>2022-04-03T07:54:04.000Z</time>
      </trkpt>
      <trkpt lat="49.64949" lon="4.73351">
        <ele>254</ele>
        <time>2022-04-03T07:54:05.000Z</time>
      </trkpt>
      <trkpt lat="49.64948" lon="4.73347">
        <ele>254</ele>
        <time>2022-04-03T07:54:06.000Z</time>
      </trkpt>
      <trkpt lat="49.64948" lon="4.73344">
        <ele>254</ele>
        <time>2022-04-03T07:54:07.000Z</time>
      </trkpt>
      <trkpt lat="49.64947" lon="4.73342">
        <ele>255</ele>
        <time>2022-04-03T07:54:08.000Z</time>
      </trkpt>
      <trkpt lat="49.64946" lon="4.73339">
        <ele>255</ele>
        <time>2022-04-03T07:54:09.000Z</time>
      </trkpt>
      <trkpt lat="49.64946" lon="4.73339">
        <ele>255</ele>
        <time>2022-04-03T07:54:10.000Z</time>
      </trkpt>
      <trkpt lat="49.64946" lon="4.73335">
        <ele>255</ele>
        <time>2022-04-03T07:54:11.000Z</time>
      </trkpt>
      <trkpt lat="49.64944" lon="4.73329">
        <ele>255</ele>
        <time>2022-04-03T07:54:12.000Z</time>
      </trkpt>
      <trkpt lat="49.64944" lon="4.73329">
        <ele>255</ele>
        <time>2022-04-03T07:54:13.000Z</time>
      </trkpt>
      <trkpt lat="49.64943" lon="4.73326">
        <ele>255</ele>
        <time>2022-04-03T07:54:14.000Z</time>
      </trkpt>
      <trkpt lat="49.64942" lon="4.73323">
        <ele>255</ele>
        <time>2022-04-03T07:54:15.000Z</time>
      </trkpt>
      <trkpt lat="49.64942" lon="4.73319">
        <ele>255</ele>
        <time>2022-04-03T07:54:16.000Z</time>
      </trkpt>
      <trkpt lat="49.64941" lon="4.73313">
        <ele>255</ele>
        <time>2022-04-03T07:54:17.000Z</time>
      </trkpt>
      <trkpt lat="49.6494" lon="4.73309">
        <ele>255</ele>
        <time>2022-04-03T07:54:18.000Z</time>
      </trkpt>
      <trkpt lat="49.64939" lon="4.73306">
        <ele>256</ele>
        <time>2022-04-03T07:54:19.000Z</time>
      </trkpt>
      <trkpt lat="49.64939" lon="4.73303">
        <ele>256</ele>
        <time>2022-04-03T07:54:20.000Z</time>
      </trkpt>
      <trkpt lat="49.64937" lon="4.73299">
        <ele>256</ele>
        <time>2022-04-03T07:54:21.000Z</time>
      </trkpt>
      <trkpt lat="49.64937" lon="4.73295">
        <ele>257</ele>
        <time>2022-04-03T07:54:22.000Z</time>
      </trkpt>
      <trkpt lat="49.64937" lon="4.73295">
        <ele>257</ele>
        <time>2022-04-03T07:54:23.000Z</time>
      </trkpt>
      <trkpt lat="49.64936" lon="4.73292">
        <ele>257</ele>
        <time>2022-04-03T07:54:24.000Z</time>
      </trkpt>
      <trkpt lat="49.64936" lon="4.73288">
        <ele>257</ele>
        <time>2022-04-03T07:54:25.000Z</time>
      </trkpt>
      <trkpt lat="49.64935" lon="4.73284">
        <ele>258</ele>
        <time>2022-04-03T07:54:26.000Z</time>
      </trkpt>
      <trkpt lat="49.64935" lon="4.73282">
        <ele>258</ele>
        <time>2022-04-03T07:54:27.000Z</time>
      </trkpt>
      <trkpt lat="49.64935" lon="4.73279">
        <ele>259</ele>
        <time>2022-04-03T07:54:28.000Z</time>
      </trkpt>
      <trkpt lat="49.64937" lon="4.73274">
        <ele>260</ele>
        <time>2022-04-03T07:54:29.000Z</time>
      </trkpt>
      <trkpt lat="49.64939" lon="4.73272">
        <ele>260</ele>
        <time>2022-04-03T07:54:30.000Z</time>
      </trkpt>
      <trkpt lat="49.64939" lon="4.73272">
        <ele>260</ele>
        <time>2022-04-03T07:54:31.000Z</time>
      </trkpt>
      <trkpt lat="49.64941" lon="4.7327">
        <ele>260</ele>
        <time>2022-04-03T07:54:32.000Z</time>
      </trkpt>
      <trkpt lat="49.64946" lon="4.73266">
        <ele>260</ele>
        <time>2022-04-03T07:54:33.000Z</time>
      </trkpt>
      <trkpt lat="49.64949" lon="4.73264">
        <ele>261</ele>
        <time>2022-04-03T07:54:34.000Z</time>
      </trkpt>
      <trkpt lat="49.64952" lon="4.73263">
        <ele>261</ele>
        <time>2022-04-03T07:54:35.000Z</time>
      </trkpt>
      <trkpt lat="49.64954" lon="4.73262">
        <ele>261</ele>
        <time>2022-04-03T07:54:36.000Z</time>
      </trkpt>
      <trkpt lat="49.64954" lon="4.73262">
        <ele>261</ele>
        <time>2022-04-03T07:54:37.000Z</time>
      </trkpt>
      <trkpt lat="49.64956" lon="4.7326">
        <ele>262</ele>
        <time>2022-04-03T07:54:38.000Z</time>
      </trkpt>
      <trkpt lat="49.64959" lon="4.73259">
        <ele>262</ele>
        <time>2022-04-03T07:54:39.000Z</time>
      </trkpt>
      <trkpt lat="49.64961" lon="4.73257">
        <ele>262</ele>
        <time>2022-04-03T07:54:40.000Z</time>
      </trkpt>
      <trkpt lat="49.64964" lon="4.73256">
        <ele>262</ele>
        <time>2022-04-03T07:54:41.000Z</time>
      </trkpt>
      <trkpt lat="49.64967" lon="4.73254">
        <ele>262</ele>
        <time>2022-04-03T07:54:42.000Z</time>
      </trkpt>
      <trkpt lat="49.64971" lon="4.73253">
        <ele>262</ele>
        <time>2022-04-03T07:54:43.000Z</time>
      </trkpt>
      <trkpt lat="49.64974" lon="4.73252">
        <ele>262</ele>
        <time>2022-04-03T07:54:44.000Z</time>
      </trkpt>
      <trkpt lat="49.64978" lon="4.7325">
        <ele>262</ele>
        <time>2022-04-03T07:54:45.000Z</time>
      </trkpt>
      <trkpt lat="49.64981" lon="4.73249">
        <ele>262</ele>
        <time>2022-04-03T07:54:46.000Z</time>
      </trkpt>
      <trkpt lat="49.64985" lon="4.73248">
        <ele>262</ele>
        <time>2022-04-03T07:54:47.000Z</time>
      </trkpt>
      <trkpt lat="49.64993" lon="4.73244">
        <ele>262</ele>
        <time>2022-04-03T07:54:48.000Z</time>
      </trkpt>
      <trkpt lat="49.64997" lon="4.73242">
        <ele>262</ele>
        <time>2022-04-03T07:54:49.000Z</time>
      </trkpt>
      <trkpt lat="49.65001" lon="4.73241">
        <ele>262</ele>
        <time>2022-04-03T07:54:50.000Z</time>
      </trkpt>
      <trkpt lat="49.65001" lon="4.73241">
        <ele>262</ele>
        <time>2022-04-03T07:54:51.000Z</time>
      </trkpt>
      <trkpt lat="49.65006" lon="4.73241">
        <ele>262</ele>
        <time>2022-04-03T07:54:52.000Z</time>
      </trkpt>
      <trkpt lat="49.65008" lon="4.7324">
        <ele>262</ele>
        <time>2022-04-03T07:54:53.000Z</time>
      </trkpt>
      <trkpt lat="49.65008" lon="4.7324">
        <ele>262</ele>
        <time>2022-04-03T07:54:54.000Z</time>
      </trkpt>
      <trkpt lat="49.65009" lon="4.73238">
        <ele>262</ele>
        <time>2022-04-03T07:54:55.000Z</time>
      </trkpt>
      <trkpt lat="49.6501" lon="4.73236">
        <ele>262</ele>
        <time>2022-04-03T07:54:56.000Z</time>
      </trkpt>
      <trkpt lat="49.6501" lon="4.73234">
        <ele>262</ele>
        <time>2022-04-03T07:54:57.000Z</time>
      </trkpt>
      <trkpt lat="49.6501" lon="4.73232">
        <ele>262</ele>
        <time>2022-04-03T07:54:58.000Z</time>
      </trkpt>
      <trkpt lat="49.65009" lon="4.73228">
        <ele>262</ele>
        <time>2022-04-03T07:54:59.000Z</time>
      </trkpt>
      <trkpt lat="49.65007" lon="4.73221">
        <ele>262</ele>
        <time>2022-04-03T07:55:00.000Z</time>
      </trkpt>
      <trkpt lat="49.65005" lon="4.73216">
        <ele>262</ele>
        <time>2022-04-03T07:55:01.000Z</time>
      </trkpt>
      <trkpt lat="49.65004" lon="4.73213">
        <ele>263</ele>
        <time>2022-04-03T07:55:02.000Z</time>
      </trkpt>
      <trkpt lat="49.65003" lon="4.73209">
        <ele>263</ele>
        <time>2022-04-03T07:55:03.000Z</time>
      </trkpt>
      <trkpt lat="49.65002" lon="4.73205">
        <ele>263</ele>
        <time>2022-04-03T07:55:04.000Z</time>
      </trkpt>
      <trkpt lat="49.65001" lon="4.73201">
        <ele>263</ele>
        <time>2022-04-03T07:55:05.000Z</time>
      </trkpt>
      <trkpt lat="49.64999" lon="4.73197">
        <ele>263</ele>
        <time>2022-04-03T07:55:06.000Z</time>
      </trkpt>
      <trkpt lat="49.64999" lon="4.73197">
        <ele>263</ele>
        <time>2022-04-03T07:55:07.000Z</time>
      </trkpt>
      <trkpt lat="49.64997" lon="4.73187">
        <ele>263</ele>
        <time>2022-04-03T07:55:08.000Z</time>
      </trkpt>
      <trkpt lat="49.64997" lon="4.73187">
        <ele>263</ele>
        <time>2022-04-03T07:55:09.000Z</time>
      </trkpt>
      <trkpt lat="49.64995" lon="4.73178">
        <ele>263</ele>
        <time>2022-04-03T07:55:10.000Z</time>
      </trkpt>
      <trkpt lat="49.64994" lon="4.73173">
        <ele>262</ele>
        <time>2022-04-03T07:55:11.000Z</time>
      </trkpt>
      <trkpt lat="49.64993" lon="4.73168">
        <ele>262</ele>
        <time>2022-04-03T07:55:12.000Z</time>
      </trkpt>
      <trkpt lat="49.64991" lon="4.73164">
        <ele>262</ele>
        <time>2022-04-03T07:55:13.000Z</time>
      </trkpt>
      <trkpt lat="49.64989" lon="4.7316">
        <ele>263</ele>
        <time>2022-04-03T07:55:14.000Z</time>
      </trkpt>
      <trkpt lat="49.64987" lon="4.73157">
        <ele>263</ele>
        <time>2022-04-03T07:55:15.000Z</time>
      </trkpt>
      <trkpt lat="49.64986" lon="4.73153">
        <ele>263</ele>
        <time>2022-04-03T07:55:16.000Z</time>
      </trkpt>
      <trkpt lat="49.64984" lon="4.7315">
        <ele>263</ele>
        <time>2022-04-03T07:55:17.000Z</time>
      </trkpt>
      <trkpt lat="49.64982" lon="4.73147">
        <ele>263</ele>
        <time>2022-04-03T07:55:18.000Z</time>
      </trkpt>
      <trkpt lat="49.6498" lon="4.73145">
        <ele>263</ele>
        <time>2022-04-03T07:55:19.000Z</time>
      </trkpt>
      <trkpt lat="49.64978" lon="4.73142">
        <ele>264</ele>
        <time>2022-04-03T07:55:20.000Z</time>
      </trkpt>
      <trkpt lat="49.64976" lon="4.7314">
        <ele>264</ele>
        <time>2022-04-03T07:55:21.000Z</time>
      </trkpt>
      <trkpt lat="49.64974" lon="4.73138">
        <ele>264</ele>
        <time>2022-04-03T07:55:22.000Z</time>
      </trkpt>
      <trkpt lat="49.64972" lon="4.73135">
        <ele>265</ele>
        <time>2022-04-03T07:55:23.000Z</time>
      </trkpt>
      <trkpt lat="49.6497" lon="4.73133">
        <ele>265</ele>
        <time>2022-04-03T07:55:24.000Z</time>
      </trkpt>
      <trkpt lat="49.64969" lon="4.73132">
        <ele>265</ele>
        <time>2022-04-03T07:55:25.000Z</time>
      </trkpt>
      <trkpt lat="49.64968" lon="4.73131">
        <ele>266</ele>
        <time>2022-04-03T07:55:26.000Z</time>
      </trkpt>
      <trkpt lat="49.64967" lon="4.7313">
        <ele>266</ele>
        <time>2022-04-03T07:55:27.000Z</time>
      </trkpt>
      <trkpt lat="49.64967" lon="4.73129">
        <ele>266</ele>
        <time>2022-04-03T07:55:28.000Z</time>
      </trkpt>
      <trkpt lat="49.64965" lon="4.73128">
        <ele>267</ele>
        <time>2022-04-03T07:55:29.000Z</time>
      </trkpt>
      <trkpt lat="49.64964" lon="4.73127">
        <ele>267</ele>
        <time>2022-04-03T07:55:30.000Z</time>
      </trkpt>
      <trkpt lat="49.64963" lon="4.73126">
        <ele>267</ele>
        <time>2022-04-03T07:55:31.000Z</time>
      </trkpt>
      <trkpt lat="49.64962" lon="4.73124">
        <ele>268</ele>
        <time>2022-04-03T07:55:32.000Z</time>
      </trkpt>
      <trkpt lat="49.64961" lon="4.73123">
        <ele>268</ele>
        <time>2022-04-03T07:55:33.000Z</time>
      </trkpt>
      <trkpt lat="49.6496" lon="4.73121">
        <ele>268</ele>
        <time>2022-04-03T07:55:34.000Z</time>
      </trkpt>
      <trkpt lat="49.64959" lon="4.73119">
        <ele>269</ele>
        <time>2022-04-03T07:55:35.000Z</time>
      </trkpt>
      <trkpt lat="49.64958" lon="4.73118">
        <ele>269</ele>
        <time>2022-04-03T07:55:36.000Z</time>
      </trkpt>
      <trkpt lat="49.64956" lon="4.73116">
        <ele>269</ele>
        <time>2022-04-03T07:55:37.000Z</time>
      </trkpt>
      <trkpt lat="49.64955" lon="4.73115">
        <ele>270</ele>
        <time>2022-04-03T07:55:38.000Z</time>
      </trkpt>
      <trkpt lat="49.64955" lon="4.73115">
        <ele>270</ele>
        <time>2022-04-03T07:55:39.000Z</time>
      </trkpt>
      <trkpt lat="49.64952" lon="4.73112">
        <ele>270</ele>
        <time>2022-04-03T07:55:40.000Z</time>
      </trkpt>
      <trkpt lat="49.64952" lon="4.73112">
        <ele>270</ele>
        <time>2022-04-03T07:55:41.000Z</time>
      </trkpt>
      <trkpt lat="49.64951" lon="4.73111">
        <ele>271</ele>
        <time>2022-04-03T07:55:42.000Z</time>
      </trkpt>
      <trkpt lat="49.6495" lon="4.73109">
        <ele>271</ele>
        <time>2022-04-03T07:55:43.000Z</time>
      </trkpt>
      <trkpt lat="49.64948" lon="4.73108">
        <ele>272</ele>
        <time>2022-04-03T07:55:44.000Z</time>
      </trkpt>
      <trkpt lat="49.64947" lon="4.73106">
        <ele>272</ele>
        <time>2022-04-03T07:55:45.000Z</time>
      </trkpt>
      <trkpt lat="49.64945" lon="4.73105">
        <ele>272</ele>
        <time>2022-04-03T07:55:46.000Z</time>
      </trkpt>
      <trkpt lat="49.64944" lon="4.73103">
        <ele>273</ele>
        <time>2022-04-03T07:55:47.000Z</time>
      </trkpt>
      <trkpt lat="49.64943" lon="4.73099">
        <ele>273</ele>
        <time>2022-04-03T07:55:48.000Z</time>
      </trkpt>
      <trkpt lat="49.64942" lon="4.73097">
        <ele>274</ele>
        <time>2022-04-03T07:55:49.000Z</time>
      </trkpt>
      <trkpt lat="49.64941" lon="4.73095">
        <ele>274</ele>
        <time>2022-04-03T07:55:50.000Z</time>
      </trkpt>
      <trkpt lat="49.6494" lon="4.73093">
        <ele>275</ele>
        <time>2022-04-03T07:55:51.000Z</time>
      </trkpt>
      <trkpt lat="49.64939" lon="4.73092">
        <ele>275</ele>
        <time>2022-04-03T07:55:52.000Z</time>
      </trkpt>
      <trkpt lat="49.64938" lon="4.7309">
        <ele>275</ele>
        <time>2022-04-03T07:55:53.000Z</time>
      </trkpt>
      <trkpt lat="49.64937" lon="4.73088">
        <ele>276</ele>
        <time>2022-04-03T07:55:54.000Z</time>
      </trkpt>
      <trkpt lat="49.64936" lon="4.73086">
        <ele>276</ele>
        <time>2022-04-03T07:55:55.000Z</time>
      </trkpt>
      <trkpt lat="49.64935" lon="4.73085">
        <ele>276</ele>
        <time>2022-04-03T07:55:56.000Z</time>
      </trkpt>
      <trkpt lat="49.64934" lon="4.73083">
        <ele>276</ele>
        <time>2022-04-03T07:55:57.000Z</time>
      </trkpt>
      <trkpt lat="49.64934" lon="4.73081">
        <ele>277</ele>
        <time>2022-04-03T07:55:58.000Z</time>
      </trkpt>
      <trkpt lat="49.64933" lon="4.73079">
        <ele>277</ele>
        <time>2022-04-03T07:55:59.000Z</time>
      </trkpt>
      <trkpt lat="49.64932" lon="4.73078">
        <ele>277</ele>
        <time>2022-04-03T07:56:00.000Z</time>
      </trkpt>
      <trkpt lat="49.64931" lon="4.73076">
        <ele>277</ele>
        <time>2022-04-03T07:56:01.000Z</time>
      </trkpt>
      <trkpt lat="49.6493" lon="4.73074">
        <ele>278</ele>
        <time>2022-04-03T07:56:02.000Z</time>
      </trkpt>
      <trkpt lat="49.64929" lon="4.73073">
        <ele>278</ele>
        <time>2022-04-03T07:56:03.000Z</time>
      </trkpt>
      <trkpt lat="49.64928" lon="4.73072">
        <ele>278</ele>
        <time>2022-04-03T07:56:04.000Z</time>
      </trkpt>
      <trkpt lat="49.64927" lon="4.7307">
        <ele>279</ele>
        <time>2022-04-03T07:56:05.000Z</time>
      </trkpt>
      <trkpt lat="49.64926" lon="4.73068">
        <ele>279</ele>
        <time>2022-04-03T07:56:06.000Z</time>
      </trkpt>
      <trkpt lat="49.64925" lon="4.73066">
        <ele>279</ele>
        <time>2022-04-03T07:56:07.000Z</time>
      </trkpt>
      <trkpt lat="49.64924" lon="4.73065">
        <ele>279</ele>
        <time>2022-04-03T07:56:08.000Z</time>
      </trkpt>
      <trkpt lat="49.64923" lon="4.73063">
        <ele>280</ele>
        <time>2022-04-03T07:56:09.000Z</time>
      </trkpt>
      <trkpt lat="49.64922" lon="4.73062">
        <ele>280</ele>
        <time>2022-04-03T07:56:10.000Z</time>
      </trkpt>
      <trkpt lat="49.64921" lon="4.7306">
        <ele>280</ele>
        <time>2022-04-03T07:56:11.000Z</time>
      </trkpt>
      <trkpt lat="49.6492" lon="4.73059">
        <ele>280</ele>
        <time>2022-04-03T07:56:12.000Z</time>
      </trkpt>
      <trkpt lat="49.64919" lon="4.73058">
        <ele>281</ele>
        <time>2022-04-03T07:56:13.000Z</time>
      </trkpt>
      <trkpt lat="49.64918" lon="4.73056">
        <ele>281</ele>
        <time>2022-04-03T07:56:14.000Z</time>
      </trkpt>
      <trkpt lat="49.64917" lon="4.73054">
        <ele>281</ele>
        <time>2022-04-03T07:56:15.000Z</time>
      </trkpt>
      <trkpt lat="49.64916" lon="4.73053">
        <ele>281</ele>
        <time>2022-04-03T07:56:16.000Z</time>
      </trkpt>
      <trkpt lat="49.64915" lon="4.73051">
        <ele>282</ele>
        <time>2022-04-03T07:56:17.000Z</time>
      </trkpt>
      <trkpt lat="49.64914" lon="4.73049">
        <ele>282</ele>
        <time>2022-04-03T07:56:18.000Z</time>
      </trkpt>
      <trkpt lat="49.64913" lon="4.73048">
        <ele>282</ele>
        <time>2022-04-03T07:56:19.000Z</time>
      </trkpt>
      <trkpt lat="49.64912" lon="4.73047">
        <ele>283</ele>
        <time>2022-04-03T07:56:20.000Z</time>
      </trkpt>
      <trkpt lat="49.64911" lon="4.73046">
        <ele>283</ele>
        <time>2022-04-03T07:56:21.000Z</time>
      </trkpt>
      <trkpt lat="49.6491" lon="4.73044">
        <ele>283</ele>
        <time>2022-04-03T07:56:22.000Z</time>
      </trkpt>
      <trkpt lat="49.64908" lon="4.73043">
        <ele>283</ele>
        <time>2022-04-03T07:56:23.000Z</time>
      </trkpt>
      <trkpt lat="49.64907" lon="4.73041">
        <ele>284</ele>
        <time>2022-04-03T07:56:24.000Z</time>
      </trkpt>
      <trkpt lat="49.64906" lon="4.73039">
        <ele>284</ele>
        <time>2022-04-03T07:56:25.000Z</time>
      </trkpt>
      <trkpt lat="49.64905" lon="4.73038">
        <ele>284</ele>
        <time>2022-04-03T07:56:26.000Z</time>
      </trkpt>
      <trkpt lat="49.64903" lon="4.73035">
        <ele>285</ele>
        <time>2022-04-03T07:56:27.000Z</time>
      </trkpt>
      <trkpt lat="49.64902" lon="4.73034">
        <ele>285</ele>
        <time>2022-04-03T07:56:28.000Z</time>
      </trkpt>
      <trkpt lat="49.649" lon="4.73032">
        <ele>285</ele>
        <time>2022-04-03T07:56:29.000Z</time>
      </trkpt>
      <trkpt lat="49.64899" lon="4.7303">
        <ele>285</ele>
        <time>2022-04-03T07:56:30.000Z</time>
      </trkpt>
      <trkpt lat="49.64897" lon="4.73028">
        <ele>285</ele>
        <time>2022-04-03T07:56:31.000Z</time>
      </trkpt>
      <trkpt lat="49.64895" lon="4.73027">
        <ele>285</ele>
        <time>2022-04-03T07:56:32.000Z</time>
      </trkpt>
      <trkpt lat="49.64894" lon="4.73025">
        <ele>286</ele>
        <time>2022-04-03T07:56:33.000Z</time>
      </trkpt>
      <trkpt lat="49.64893" lon="4.73023">
        <ele>286</ele>
        <time>2022-04-03T07:56:34.000Z</time>
      </trkpt>
      <trkpt lat="49.64891" lon="4.73021">
        <ele>286</ele>
        <time>2022-04-03T07:56:35.000Z</time>
      </trkpt>
      <trkpt lat="49.6489" lon="4.73019">
        <ele>286</ele>
        <time>2022-04-03T07:56:36.000Z</time>
      </trkpt>
      <trkpt lat="49.64888" lon="4.73017">
        <ele>286</ele>
        <time>2022-04-03T07:56:37.000Z</time>
      </trkpt>
      <trkpt lat="49.64887" lon="4.73016">
        <ele>286</ele>
        <time>2022-04-03T07:56:38.000Z</time>
      </trkpt>
      <trkpt lat="49.64885" lon="4.73014">
        <ele>286</ele>
        <time>2022-04-03T07:56:39.000Z</time>
      </trkpt>
      <trkpt lat="49.64883" lon="4.73013">
        <ele>286</ele>
        <time>2022-04-03T07:56:40.000Z</time>
      </trkpt>
      <trkpt lat="49.64882" lon="4.73011">
        <ele>286</ele>
        <time>2022-04-03T07:56:41.000Z</time>
      </trkpt>
      <trkpt lat="49.6488" lon="4.73009">
        <ele>286</ele>
        <time>2022-04-03T07:56:42.000Z</time>
      </trkpt>
      <trkpt lat="49.64879" lon="4.73007">
        <ele>286</ele>
        <time>2022-04-03T07:56:43.000Z</time>
      </trkpt>
      <trkpt lat="49.64877" lon="4.73004">
        <ele>286</ele>
        <time>2022-04-03T07:56:44.000Z</time>
      </trkpt>
      <trkpt lat="49.64874" lon="4.73001">
        <ele>287</ele>
        <time>2022-04-03T07:56:45.000Z</time>
      </trkpt>
      <trkpt lat="49.64872" lon="4.72998">
        <ele>287</ele>
        <time>2022-04-03T07:56:46.000Z</time>
      </trkpt>
      <trkpt lat="49.6487" lon="4.72995">
        <ele>287</ele>
        <time>2022-04-03T07:56:47.000Z</time>
      </trkpt>
      <trkpt lat="49.64868" lon="4.72992">
        <ele>287</ele>
        <time>2022-04-03T07:56:48.000Z</time>
      </trkpt>
      <trkpt lat="49.64866" lon="4.72988">
        <ele>287</ele>
        <time>2022-04-03T07:56:49.000Z</time>
      </trkpt>
      <trkpt lat="49.64864" lon="4.72984">
        <ele>287</ele>
        <time>2022-04-03T07:56:50.000Z</time>
      </trkpt>
      <trkpt lat="49.64862" lon="4.72979">
        <ele>287</ele>
        <time>2022-04-03T07:56:51.000Z</time>
      </trkpt>
      <trkpt lat="49.6486" lon="4.72975">
        <ele>287</ele>
        <time>2022-04-03T07:56:52.000Z</time>
      </trkpt>
      <trkpt lat="49.64858" lon="4.72971">
        <ele>286</ele>
        <time>2022-04-03T07:56:53.000Z</time>
      </trkpt>
      <trkpt lat="49.64856" lon="4.72967">
        <ele>286</ele>
        <time>2022-04-03T07:56:54.000Z</time>
      </trkpt>
      <trkpt lat="49.64853" lon="4.72963">
        <ele>286</ele>
        <time>2022-04-03T07:56:55.000Z</time>
      </trkpt>
      <trkpt lat="49.6485" lon="4.72959">
        <ele>286</ele>
        <time>2022-04-03T07:56:56.000Z</time>
      </trkpt>
      <trkpt lat="49.64848" lon="4.72955">
        <ele>286</ele>
        <time>2022-04-03T07:56:57.000Z</time>
      </trkpt>
      <trkpt lat="49.64845" lon="4.72951">
        <ele>286</ele>
        <time>2022-04-03T07:56:58.000Z</time>
      </trkpt>
      <trkpt lat="49.64843" lon="4.72949">
        <ele>286</ele>
        <time>2022-04-03T07:56:59.000Z</time>
      </trkpt>
      <trkpt lat="49.6484" lon="4.72948">
        <ele>286</ele>
        <time>2022-04-03T07:57:00.000Z</time>
      </trkpt>
      <trkpt lat="49.64839" lon="4.72948">
        <ele>287</ele>
        <time>2022-04-03T07:57:01.000Z</time>
      </trkpt>
      <trkpt lat="49.64837" lon="4.72949">
        <ele>287</ele>
        <time>2022-04-03T07:57:02.000Z</time>
      </trkpt>
      <trkpt lat="49.64835" lon="4.72949">
        <ele>287</ele>
        <time>2022-04-03T07:57:03.000Z</time>
      </trkpt>
      <trkpt lat="49.64834" lon="4.72949">
        <ele>287</ele>
        <time>2022-04-03T07:57:04.000Z</time>
      </trkpt>
      <trkpt lat="49.64832" lon="4.7295">
        <ele>287</ele>
        <time>2022-04-03T07:57:05.000Z</time>
      </trkpt>
      <trkpt lat="49.64831" lon="4.7295">
        <ele>288</ele>
        <time>2022-04-03T07:57:06.000Z</time>
      </trkpt>
      <trkpt lat="49.6483" lon="4.7295">
        <ele>288</ele>
        <time>2022-04-03T07:57:07.000Z</time>
      </trkpt>
      <trkpt lat="49.64829" lon="4.7295">
        <ele>288</ele>
        <time>2022-04-03T07:57:08.000Z</time>
      </trkpt>
      <trkpt lat="49.64827" lon="4.72951">
        <ele>288</ele>
        <time>2022-04-03T07:57:09.000Z</time>
      </trkpt>
      <trkpt lat="49.64826" lon="4.72951">
        <ele>288</ele>
        <time>2022-04-03T07:57:10.000Z</time>
      </trkpt>
      <trkpt lat="49.64824" lon="4.72952">
        <ele>289</ele>
        <time>2022-04-03T07:57:11.000Z</time>
      </trkpt>
      <trkpt lat="49.64823" lon="4.72952">
        <ele>289</ele>
        <time>2022-04-03T07:57:12.000Z</time>
      </trkpt>
      <trkpt lat="49.64821" lon="4.72952">
        <ele>289</ele>
        <time>2022-04-03T07:57:13.000Z</time>
      </trkpt>
      <trkpt lat="49.64819" lon="4.72953">
        <ele>289</ele>
        <time>2022-04-03T07:57:14.000Z</time>
      </trkpt>
      <trkpt lat="49.64818" lon="4.72954">
        <ele>290</ele>
        <time>2022-04-03T07:57:15.000Z</time>
      </trkpt>
      <trkpt lat="49.64816" lon="4.72955">
        <ele>290</ele>
        <time>2022-04-03T07:57:16.000Z</time>
      </trkpt>
      <trkpt lat="49.64814" lon="4.72955">
        <ele>290</ele>
        <time>2022-04-03T07:57:17.000Z</time>
      </trkpt>
      <trkpt lat="49.64812" lon="4.72956">
        <ele>290</ele>
        <time>2022-04-03T07:57:18.000Z</time>
      </trkpt>
      <trkpt lat="49.6481" lon="4.72957">
        <ele>290</ele>
        <time>2022-04-03T07:57:19.000Z</time>
      </trkpt>
      <trkpt lat="49.64808" lon="4.72958">
        <ele>291</ele>
        <time>2022-04-03T07:57:20.000Z</time>
      </trkpt>
      <trkpt lat="49.64805" lon="4.7296">
        <ele>291</ele>
        <time>2022-04-03T07:57:21.000Z</time>
      </trkpt>
      <trkpt lat="49.64802" lon="4.72961">
        <ele>291</ele>
        <time>2022-04-03T07:57:22.000Z</time>
      </trkpt>
      <trkpt lat="49.64799" lon="4.72962">
        <ele>291</ele>
        <time>2022-04-03T07:57:23.000Z</time>
      </trkpt>
      <trkpt lat="49.64796" lon="4.72963">
        <ele>291</ele>
        <time>2022-04-03T07:57:24.000Z</time>
      </trkpt>
      <trkpt lat="49.64793" lon="4.72964">
        <ele>292</ele>
        <time>2022-04-03T07:57:25.000Z</time>
      </trkpt>
      <trkpt lat="49.6479" lon="4.72964">
        <ele>292</ele>
        <time>2022-04-03T07:57:26.000Z</time>
      </trkpt>
      <trkpt lat="49.64787" lon="4.72964">
        <ele>292</ele>
        <time>2022-04-03T07:57:27.000Z</time>
      </trkpt>
      <trkpt lat="49.64785" lon="4.72965">
        <ele>292</ele>
        <time>2022-04-03T07:57:28.000Z</time>
      </trkpt>
      <trkpt lat="49.64783" lon="4.72966">
        <ele>292</ele>
        <time>2022-04-03T07:57:29.000Z</time>
      </trkpt>
      <trkpt lat="49.64781" lon="4.72967">
        <ele>292</ele>
        <time>2022-04-03T07:57:30.000Z</time>
      </trkpt>
      <trkpt lat="49.64778" lon="4.72968">
        <ele>293</ele>
        <time>2022-04-03T07:57:31.000Z</time>
      </trkpt>
      <trkpt lat="49.64775" lon="4.72969">
        <ele>293</ele>
        <time>2022-04-03T07:57:32.000Z</time>
      </trkpt>
      <trkpt lat="49.64772" lon="4.7297">
        <ele>293</ele>
        <time>2022-04-03T07:57:33.000Z</time>
      </trkpt>
      <trkpt lat="49.64768" lon="4.72972">
        <ele>293</ele>
        <time>2022-04-03T07:57:34.000Z</time>
      </trkpt>
      <trkpt lat="49.64766" lon="4.72973">
        <ele>293</ele>
        <time>2022-04-03T07:57:35.000Z</time>
      </trkpt>
      <trkpt lat="49.64762" lon="4.72975">
        <ele>293</ele>
        <time>2022-04-03T07:57:36.000Z</time>
      </trkpt>
      <trkpt lat="49.64758" lon="4.72977">
        <ele>294</ele>
        <time>2022-04-03T07:57:37.000Z</time>
      </trkpt>
      <trkpt lat="49.64754" lon="4.72979">
        <ele>294</ele>
        <time>2022-04-03T07:57:38.000Z</time>
      </trkpt>
      <trkpt lat="49.6475" lon="4.72981">
        <ele>294</ele>
        <time>2022-04-03T07:57:39.000Z</time>
      </trkpt>
      <trkpt lat="49.64746" lon="4.72983">
        <ele>294</ele>
        <time>2022-04-03T07:57:40.000Z</time>
      </trkpt>
      <trkpt lat="49.64743" lon="4.72985">
        <ele>295</ele>
        <time>2022-04-03T07:57:41.000Z</time>
      </trkpt>
      <trkpt lat="49.64739" lon="4.72987">
        <ele>295</ele>
        <time>2022-04-03T07:57:42.000Z</time>
      </trkpt>
      <trkpt lat="49.64735" lon="4.72989">
        <ele>295</ele>
        <time>2022-04-03T07:57:43.000Z</time>
      </trkpt>
      <trkpt lat="49.64731" lon="4.7299">
        <ele>296</ele>
        <time>2022-04-03T07:57:44.000Z</time>
      </trkpt>
      <trkpt lat="49.64727" lon="4.72992">
        <ele>296</ele>
        <time>2022-04-03T07:57:45.000Z</time>
      </trkpt>
      <trkpt lat="49.64724" lon="4.72993">
        <ele>296</ele>
        <time>2022-04-03T07:57:46.000Z</time>
      </trkpt>
      <trkpt lat="49.6472" lon="4.72994">
        <ele>297</ele>
        <time>2022-04-03T07:57:47.000Z</time>
      </trkpt>
      <trkpt lat="49.64716" lon="4.72996">
        <ele>297</ele>
        <time>2022-04-03T07:57:48.000Z</time>
      </trkpt>
      <trkpt lat="49.64712" lon="4.72997">
        <ele>297</ele>
        <time>2022-04-03T07:57:49.000Z</time>
      </trkpt>
      <trkpt lat="49.64709" lon="4.72998">
        <ele>297</ele>
        <time>2022-04-03T07:57:50.000Z</time>
      </trkpt>
      <trkpt lat="49.64705" lon="4.73">
        <ele>298</ele>
        <time>2022-04-03T07:57:51.000Z</time>
      </trkpt>
      <trkpt lat="49.64702" lon="4.73002">
        <ele>298</ele>
        <time>2022-04-03T07:57:52.000Z</time>
      </trkpt>
      <trkpt lat="49.64698" lon="4.73004">
        <ele>298</ele>
        <time>2022-04-03T07:57:53.000Z</time>
      </trkpt>
      <trkpt lat="49.64694" lon="4.73006">
        <ele>298</ele>
        <time>2022-04-03T07:57:54.000Z</time>
      </trkpt>
      <trkpt lat="49.6469" lon="4.73007">
        <ele>299</ele>
        <time>2022-04-03T07:57:55.000Z</time>
      </trkpt>
      <trkpt lat="49.64686" lon="4.73009">
        <ele>299</ele>
        <time>2022-04-03T07:57:56.000Z</time>
      </trkpt>
      <trkpt lat="49.64683" lon="4.73009">
        <ele>299</ele>
        <time>2022-04-03T07:57:57.000Z</time>
      </trkpt>
      <trkpt lat="49.64679" lon="4.7301">
        <ele>299</ele>
        <time>2022-04-03T07:57:58.000Z</time>
      </trkpt>
      <trkpt lat="49.64674" lon="4.73011">
        <ele>299</ele>
        <time>2022-04-03T07:57:59.000Z</time>
      </trkpt>
      <trkpt lat="49.6467" lon="4.73013">
        <ele>300</ele>
        <time>2022-04-03T07:58:00.000Z</time>
      </trkpt>
      <trkpt lat="49.64665" lon="4.73015">
        <ele>300</ele>
        <time>2022-04-03T07:58:01.000Z</time>
      </trkpt>
      <trkpt lat="49.64661" lon="4.73017">
        <ele>300</ele>
        <time>2022-04-03T07:58:02.000Z</time>
      </trkpt>
      <trkpt lat="49.64657" lon="4.73018">
        <ele>300</ele>
        <time>2022-04-03T07:58:03.000Z</time>
      </trkpt>
      <trkpt lat="49.64654" lon="4.7302">
        <ele>300</ele>
        <time>2022-04-03T07:58:04.000Z</time>
      </trkpt>
      <trkpt lat="49.64651" lon="4.73022">
        <ele>300</ele>
        <time>2022-04-03T07:58:05.000Z</time>
      </trkpt>
      <trkpt lat="49.64648" lon="4.73025">
        <ele>300</ele>
        <time>2022-04-03T07:58:06.000Z</time>
      </trkpt>
      <trkpt lat="49.64645" lon="4.73028">
        <ele>300</ele>
        <time>2022-04-03T07:58:07.000Z</time>
      </trkpt>
      <trkpt lat="49.64642" lon="4.73032">
        <ele>300</ele>
        <time>2022-04-03T07:58:08.000Z</time>
      </trkpt>
      <trkpt lat="49.64639" lon="4.73036">
        <ele>300</ele>
        <time>2022-04-03T07:58:09.000Z</time>
      </trkpt>
      <trkpt lat="49.64637" lon="4.73039">
        <ele>300</ele>
        <time>2022-04-03T07:58:10.000Z</time>
      </trkpt>
      <trkpt lat="49.64634" lon="4.73039">
        <ele>300</ele>
        <time>2022-04-03T07:58:11.000Z</time>
      </trkpt>
      <trkpt lat="49.64632" lon="4.73037">
        <ele>300</ele>
        <time>2022-04-03T07:58:12.000Z</time>
      </trkpt>
      <trkpt lat="49.64631" lon="4.73033">
        <ele>300</ele>
        <time>2022-04-03T07:58:13.000Z</time>
      </trkpt>
      <trkpt lat="49.6463" lon="4.7303">
        <ele>300</ele>
        <time>2022-04-03T07:58:14.000Z</time>
      </trkpt>
      <trkpt lat="49.64631" lon="4.73027">
        <ele>300</ele>
        <time>2022-04-03T07:58:15.000Z</time>
      </trkpt>
      <trkpt lat="49.64632" lon="4.73025">
        <ele>300</ele>
        <time>2022-04-03T07:58:16.000Z</time>
      </trkpt>
      <trkpt lat="49.64632" lon="4.73024">
        <ele>300</ele>
        <time>2022-04-03T07:58:17.000Z</time>
      </trkpt>
      <trkpt lat="49.64633" lon="4.73022">
        <ele>300</ele>
        <time>2022-04-03T07:58:18.000Z</time>
      </trkpt>
      <trkpt lat="49.64633" lon="4.7302">
        <ele>300</ele>
        <time>2022-04-03T07:58:19.000Z</time>
      </trkpt>
      <trkpt lat="49.64633" lon="4.73016">
        <ele>300</ele>
        <time>2022-04-03T07:58:20.000Z</time>
      </trkpt>
      <trkpt lat="49.64634" lon="4.73012">
        <ele>300</ele>
        <time>2022-04-03T07:58:21.000Z</time>
      </trkpt>
      <trkpt lat="49.64635" lon="4.73007">
        <ele>300</ele>
        <time>2022-04-03T07:58:22.000Z</time>
      </trkpt>
      <trkpt lat="49.64636" lon="4.73003">
        <ele>300</ele>
        <time>2022-04-03T07:58:23.000Z</time>
      </trkpt>
      <trkpt lat="49.64636" lon="4.72998">
        <ele>300</ele>
        <time>2022-04-03T07:58:24.000Z</time>
      </trkpt>
      <trkpt lat="49.64637" lon="4.72993">
        <ele>300</ele>
        <time>2022-04-03T07:58:25.000Z</time>
      </trkpt>
      <trkpt lat="49.64638" lon="4.72988">
        <ele>300</ele>
        <time>2022-04-03T07:58:26.000Z</time>
      </trkpt>
      <trkpt lat="49.64638" lon="4.72984">
        <ele>299</ele>
        <time>2022-04-03T07:58:27.000Z</time>
      </trkpt>
      <trkpt lat="49.64639" lon="4.7298">
        <ele>299</ele>
        <time>2022-04-03T07:58:28.000Z</time>
      </trkpt>
      <trkpt lat="49.6464" lon="4.72975">
        <ele>299</ele>
        <time>2022-04-03T07:58:29.000Z</time>
      </trkpt>
      <trkpt lat="49.64642" lon="4.7297">
        <ele>299</ele>
        <time>2022-04-03T07:58:30.000Z</time>
      </trkpt>
      <trkpt lat="49.64643" lon="4.72965">
        <ele>299</ele>
        <time>2022-04-03T07:58:31.000Z</time>
      </trkpt>
      <trkpt lat="49.64645" lon="4.72963">
        <ele>299</ele>
        <time>2022-04-03T07:58:32.000Z</time>
      </trkpt>
      <trkpt lat="49.64646" lon="4.7296">
        <ele>299</ele>
        <time>2022-04-03T07:58:33.000Z</time>
      </trkpt>
      <trkpt lat="49.64647" lon="4.72958">
        <ele>298</ele>
        <time>2022-04-03T07:58:34.000Z</time>
      </trkpt>
      <trkpt lat="49.64648" lon="4.72956">
        <ele>298</ele>
        <time>2022-04-03T07:58:35.000Z</time>
      </trkpt>
      <trkpt lat="49.6465" lon="4.72953">
        <ele>298</ele>
        <time>2022-04-03T07:58:36.000Z</time>
      </trkpt>
      <trkpt lat="49.64652" lon="4.72949">
        <ele>298</ele>
        <time>2022-04-03T07:58:37.000Z</time>
      </trkpt>
      <trkpt lat="49.64654" lon="4.72946">
        <ele>298</ele>
        <time>2022-04-03T07:58:38.000Z</time>
      </trkpt>
      <trkpt lat="49.64656" lon="4.72943">
        <ele>298</ele>
        <time>2022-04-03T07:58:39.000Z</time>
      </trkpt>
      <trkpt lat="49.64659" lon="4.72941">
        <ele>298</ele>
        <time>2022-04-03T07:58:40.000Z</time>
      </trkpt>
      <trkpt lat="49.64661" lon="4.7294">
        <ele>298</ele>
        <time>2022-04-03T07:58:41.000Z</time>
      </trkpt>
      <trkpt lat="49.64661" lon="4.7294">
        <ele>298</ele>
        <time>2022-04-03T07:58:42.000Z</time>
      </trkpt>
      <trkpt lat="49.64664" lon="4.72938">
        <ele>298</ele>
        <time>2022-04-03T07:58:43.000Z</time>
      </trkpt>
      <trkpt lat="49.64666" lon="4.72932">
        <ele>298</ele>
        <time>2022-04-03T07:58:44.000Z</time>
      </trkpt>
      <trkpt lat="49.64667" lon="4.72926">
        <ele>298</ele>
        <time>2022-04-03T07:58:45.000Z</time>
      </trkpt>
      <trkpt lat="49.64668" lon="4.7292">
        <ele>298</ele>
        <time>2022-04-03T07:58:46.000Z</time>
      </trkpt>
      <trkpt lat="49.64669" lon="4.72915">
        <ele>298</ele>
        <time>2022-04-03T07:58:47.000Z</time>
      </trkpt>
      <trkpt lat="49.64669" lon="4.7291">
        <ele>298</ele>
        <time>2022-04-03T07:58:48.000Z</time>
      </trkpt>
      <trkpt lat="49.6467" lon="4.72906">
        <ele>298</ele>
        <time>2022-04-03T07:58:49.000Z</time>
      </trkpt>
      <trkpt lat="49.6467" lon="4.72901">
        <ele>298</ele>
        <time>2022-04-03T07:58:50.000Z</time>
      </trkpt>
      <trkpt lat="49.6467" lon="4.72897">
        <ele>298</ele>
        <time>2022-04-03T07:58:51.000Z</time>
      </trkpt>
      <trkpt lat="49.6467" lon="4.72892">
        <ele>298</ele>
        <time>2022-04-03T07:58:52.000Z</time>
      </trkpt>
      <trkpt lat="49.64671" lon="4.72886">
        <ele>299</ele>
        <time>2022-04-03T07:58:53.000Z</time>
      </trkpt>
      <trkpt lat="49.64672" lon="4.72879">
        <ele>299</ele>
        <time>2022-04-03T07:58:54.000Z</time>
      </trkpt>
      <trkpt lat="49.64673" lon="4.72873">
        <ele>299</ele>
        <time>2022-04-03T07:58:55.000Z</time>
      </trkpt>
      <trkpt lat="49.64673" lon="4.72866">
        <ele>299</ele>
        <time>2022-04-03T07:58:56.000Z</time>
      </trkpt>
      <trkpt lat="49.64673" lon="4.72859">
        <ele>299</ele>
        <time>2022-04-03T07:58:57.000Z</time>
      </trkpt>
      <trkpt lat="49.64672" lon="4.72852">
        <ele>299</ele>
        <time>2022-04-03T07:58:58.000Z</time>
      </trkpt>
      <trkpt lat="49.64672" lon="4.72852">
        <ele>299</ele>
        <time>2022-04-03T07:58:59.000Z</time>
      </trkpt>
      <trkpt lat="49.64671" lon="4.7284">
        <ele>299</ele>
        <time>2022-04-03T07:59:00.000Z</time>
      </trkpt>
      <trkpt lat="49.6467" lon="4.72834">
        <ele>299</ele>
        <time>2022-04-03T07:59:01.000Z</time>
      </trkpt>
      <trkpt lat="49.64669" lon="4.72829">
        <ele>299</ele>
        <time>2022-04-03T07:59:02.000Z</time>
      </trkpt>
      <trkpt lat="49.64668" lon="4.72824">
        <ele>299</ele>
        <time>2022-04-03T07:59:03.000Z</time>
      </trkpt>
      <trkpt lat="49.64668" lon="4.7282">
        <ele>299</ele>
        <time>2022-04-03T07:59:04.000Z</time>
      </trkpt>
      <trkpt lat="49.64667" lon="4.72818">
        <ele>299</ele>
        <time>2022-04-03T07:59:05.000Z</time>
      </trkpt>
      <trkpt lat="49.64666" lon="4.72818">
        <ele>299</ele>
        <time>2022-04-03T07:59:06.000Z</time>
      </trkpt>
      <trkpt lat="49.64664" lon="4.72817">
        <ele>299</ele>
        <time>2022-04-03T07:59:07.000Z</time>
      </trkpt>
      <trkpt lat="49.64664" lon="4.72817">
        <ele>299</ele>
        <time>2022-04-03T07:59:08.000Z</time>
      </trkpt>
      <trkpt lat="49.64663" lon="4.72814">
        <ele>299</ele>
        <time>2022-04-03T07:59:09.000Z</time>
      </trkpt>
      <trkpt lat="49.64662" lon="4.72811">
        <ele>299</ele>
        <time>2022-04-03T07:59:10.000Z</time>
      </trkpt>
      <trkpt lat="49.64662" lon="4.72806">
        <ele>299</ele>
        <time>2022-04-03T07:59:11.000Z</time>
      </trkpt>
      <trkpt lat="49.64661" lon="4.72801">
        <ele>299</ele>
        <time>2022-04-03T07:59:12.000Z</time>
      </trkpt>
      <trkpt lat="49.64661" lon="4.72795">
        <ele>299</ele>
        <time>2022-04-03T07:59:13.000Z</time>
      </trkpt>
      <trkpt lat="49.6466" lon="4.72789">
        <ele>299</ele>
        <time>2022-04-03T07:59:14.000Z</time>
      </trkpt>
      <trkpt lat="49.64659" lon="4.72776">
        <ele>299</ele>
        <time>2022-04-03T07:59:15.000Z</time>
      </trkpt>
      <trkpt lat="49.64658" lon="4.72769">
        <ele>299</ele>
        <time>2022-04-03T07:59:16.000Z</time>
      </trkpt>
      <trkpt lat="49.64657" lon="4.72762">
        <ele>298</ele>
        <time>2022-04-03T07:59:17.000Z</time>
      </trkpt>
      <trkpt lat="49.64657" lon="4.72755">
        <ele>298</ele>
        <time>2022-04-03T07:59:18.000Z</time>
      </trkpt>
      <trkpt lat="49.64656" lon="4.72747">
        <ele>298</ele>
        <time>2022-04-03T07:59:19.000Z</time>
      </trkpt>
      <trkpt lat="49.64656" lon="4.72741">
        <ele>298</ele>
        <time>2022-04-03T07:59:20.000Z</time>
      </trkpt>
      <trkpt lat="49.64655" lon="4.72734">
        <ele>298</ele>
        <time>2022-04-03T07:59:21.000Z</time>
      </trkpt>
      <trkpt lat="49.64654" lon="4.72727">
        <ele>298</ele>
        <time>2022-04-03T07:59:22.000Z</time>
      </trkpt>
      <trkpt lat="49.64653" lon="4.7272">
        <ele>298</ele>
        <time>2022-04-03T07:59:23.000Z</time>
      </trkpt>
      <trkpt lat="49.64653" lon="4.72715">
        <ele>298</ele>
        <time>2022-04-03T07:59:24.000Z</time>
      </trkpt>
      <trkpt lat="49.64653" lon="4.72715">
        <ele>298</ele>
        <time>2022-04-03T07:59:25.000Z</time>
      </trkpt>
      <trkpt lat="49.64653" lon="4.7271">
        <ele>298</ele>
        <time>2022-04-03T07:59:26.000Z</time>
      </trkpt>
      <trkpt lat="49.64653" lon="4.72706">
        <ele>298</ele>
        <time>2022-04-03T07:59:27.000Z</time>
      </trkpt>
      <trkpt lat="49.64652" lon="4.72702">
        <ele>297</ele>
        <time>2022-04-03T07:59:28.000Z</time>
      </trkpt>
      <trkpt lat="49.64652" lon="4.72697">
        <ele>297</ele>
        <time>2022-04-03T07:59:29.000Z</time>
      </trkpt>
      <trkpt lat="49.64651" lon="4.7269">
        <ele>297</ele>
        <time>2022-04-03T07:59:30.000Z</time>
      </trkpt>
      <trkpt lat="49.6465" lon="4.72685">
        <ele>297</ele>
        <time>2022-04-03T07:59:31.000Z</time>
      </trkpt>
      <trkpt lat="49.6465" lon="4.72672">
        <ele>297</ele>
        <time>2022-04-03T07:59:32.000Z</time>
      </trkpt>
      <trkpt lat="49.64651" lon="4.72665">
        <ele>297</ele>
        <time>2022-04-03T07:59:33.000Z</time>
      </trkpt>
      <trkpt lat="49.64651" lon="4.72659">
        <ele>297</ele>
        <time>2022-04-03T07:59:34.000Z</time>
      </trkpt>
      <trkpt lat="49.6465" lon="4.72654">
        <ele>296</ele>
        <time>2022-04-03T07:59:35.000Z</time>
      </trkpt>
      <trkpt lat="49.6465" lon="4.72648">
        <ele>296</ele>
        <time>2022-04-03T07:59:36.000Z</time>
      </trkpt>
      <trkpt lat="49.6465" lon="4.72643">
        <ele>296</ele>
        <time>2022-04-03T07:59:37.000Z</time>
      </trkpt>
      <trkpt lat="49.6465" lon="4.72639">
        <ele>296</ele>
        <time>2022-04-03T07:59:38.000Z</time>
      </trkpt>
      <trkpt lat="49.6465" lon="4.72633">
        <ele>296</ele>
        <time>2022-04-03T07:59:39.000Z</time>
      </trkpt>
      <trkpt lat="49.64649" lon="4.72627">
        <ele>296</ele>
        <time>2022-04-03T07:59:40.000Z</time>
      </trkpt>
      <trkpt lat="49.64649" lon="4.72621">
        <ele>296</ele>
        <time>2022-04-03T07:59:41.000Z</time>
      </trkpt>
      <trkpt lat="49.64648" lon="4.72614">
        <ele>296</ele>
        <time>2022-04-03T07:59:42.000Z</time>
      </trkpt>
      <trkpt lat="49.64647" lon="4.72608">
        <ele>296</ele>
        <time>2022-04-03T07:59:43.000Z</time>
      </trkpt>
      <trkpt lat="49.64647" lon="4.72608">
        <ele>296</ele>
        <time>2022-04-03T07:59:44.000Z</time>
      </trkpt>
      <trkpt lat="49.64646" lon="4.72596">
        <ele>296</ele>
        <time>2022-04-03T07:59:45.000Z</time>
      </trkpt>
      <trkpt lat="49.64646" lon="4.72596">
        <ele>296</ele>
        <time>2022-04-03T07:59:46.000Z</time>
      </trkpt>
      <trkpt lat="49.64645" lon="4.72584">
        <ele>296</ele>
        <time>2022-04-03T07:59:47.000Z</time>
      </trkpt>
      <trkpt lat="49.64645" lon="4.72578">
        <ele>296</ele>
        <time>2022-04-03T07:59:48.000Z</time>
      </trkpt>
      <trkpt lat="49.64644" lon="4.72572">
        <ele>296</ele>
        <time>2022-04-03T07:59:49.000Z</time>
      </trkpt>
      <trkpt lat="49.64644" lon="4.72566">
        <ele>296</ele>
        <time>2022-04-03T07:59:50.000Z</time>
      </trkpt>
      <trkpt lat="49.64643" lon="4.72559">
        <ele>296</ele>
        <time>2022-04-03T07:59:51.000Z</time>
      </trkpt>
      <trkpt lat="49.64643" lon="4.72553">
        <ele>296</ele>
        <time>2022-04-03T07:59:52.000Z</time>
      </trkpt>
      <trkpt lat="49.64642" lon="4.72547">
        <ele>296</ele>
        <time>2022-04-03T07:59:53.000Z</time>
      </trkpt>
      <trkpt lat="49.64642" lon="4.72547">
        <ele>296</ele>
        <time>2022-04-03T07:59:54.000Z</time>
      </trkpt>
      <trkpt lat="49.64642" lon="4.72542">
        <ele>296</ele>
        <time>2022-04-03T07:59:55.000Z</time>
      </trkpt>
      <trkpt lat="49.64642" lon="4.72536">
        <ele>296</ele>
        <time>2022-04-03T07:59:56.000Z</time>
      </trkpt>
      <trkpt lat="49.64642" lon="4.72526">
        <ele>296</ele>
        <time>2022-04-03T07:59:57.000Z</time>
      </trkpt>
      <trkpt lat="49.64642" lon="4.72526">
        <ele>296</ele>
        <time>2022-04-03T07:59:58.000Z</time>
      </trkpt>
      <trkpt lat="49.64643" lon="4.72521">
        <ele>296</ele>
        <time>2022-04-03T07:59:59.000Z</time>
      </trkpt>
      <trkpt lat="49.64643" lon="4.72518">
        <ele>296</ele>
        <time>2022-04-03T08:00:00.000Z</time>
      </trkpt>
      <trkpt lat="49.64643" lon="4.72514">
        <ele>295</ele>
        <time>2022-04-03T08:00:01.000Z</time>
      </trkpt>
      <trkpt lat="49.64642" lon="4.7251">
        <ele>295</ele>
        <time>2022-04-03T08:00:02.000Z</time>
      </trkpt>
      <trkpt lat="49.64642" lon="4.7251">
        <ele>295</ele>
        <time>2022-04-03T08:00:03.000Z</time>
      </trkpt>
      <trkpt lat="49.64643" lon="4.72505">
        <ele>295</ele>
        <time>2022-04-03T08:00:04.000Z</time>
      </trkpt>
      <trkpt lat="49.64645" lon="4.72502">
        <ele>295</ele>
        <time>2022-04-03T08:00:05.000Z</time>
      </trkpt>
      <trkpt lat="49.64648" lon="4.72499">
        <ele>295</ele>
        <time>2022-04-03T08:00:06.000Z</time>
      </trkpt>
      <trkpt lat="49.64652" lon="4.72497">
        <ele>295</ele>
        <time>2022-04-03T08:00:07.000Z</time>
      </trkpt>
      <trkpt lat="49.64655" lon="4.72494">
        <ele>295</ele>
        <time>2022-04-03T08:00:08.000Z</time>
      </trkpt>
      <trkpt lat="49.64659" lon="4.72491">
        <ele>295</ele>
        <time>2022-04-03T08:00:09.000Z</time>
      </trkpt>
      <trkpt lat="49.64662" lon="4.72488">
        <ele>295</ele>
        <time>2022-04-03T08:00:10.000Z</time>
      </trkpt>
      <trkpt lat="49.64666" lon="4.72485">
        <ele>295</ele>
        <time>2022-04-03T08:00:11.000Z</time>
      </trkpt>
      <trkpt lat="49.6467" lon="4.72483">
        <ele>294</ele>
        <time>2022-04-03T08:00:12.000Z</time>
      </trkpt>
      <trkpt lat="49.64674" lon="4.72481">
        <ele>294</ele>
        <time>2022-04-03T08:00:13.000Z</time>
      </trkpt>
      <trkpt lat="49.64682" lon="4.72477">
        <ele>294</ele>
        <time>2022-04-03T08:00:14.000Z</time>
      </trkpt>
      <trkpt lat="49.64682" lon="4.72477">
        <ele>294</ele>
        <time>2022-04-03T08:00:15.000Z</time>
      </trkpt>
      <trkpt lat="49.64686" lon="4.72475">
        <ele>294</ele>
        <time>2022-04-03T08:00:16.000Z</time>
      </trkpt>
      <trkpt lat="49.6469" lon="4.72472">
        <ele>294</ele>
        <time>2022-04-03T08:00:17.000Z</time>
      </trkpt>
      <trkpt lat="49.64694" lon="4.7247">
        <ele>294</ele>
        <time>2022-04-03T08:00:18.000Z</time>
      </trkpt>
      <trkpt lat="49.64698" lon="4.72467">
        <ele>293</ele>
        <time>2022-04-03T08:00:19.000Z</time>
      </trkpt>
      <trkpt lat="49.64703" lon="4.72465">
        <ele>293</ele>
        <time>2022-04-03T08:00:20.000Z</time>
      </trkpt>
      <trkpt lat="49.64707" lon="4.72462">
        <ele>293</ele>
        <time>2022-04-03T08:00:21.000Z</time>
      </trkpt>
      <trkpt lat="49.64711" lon="4.7246">
        <ele>293</ele>
        <time>2022-04-03T08:00:22.000Z</time>
      </trkpt>
      <trkpt lat="49.64715" lon="4.72457">
        <ele>293</ele>
        <time>2022-04-03T08:00:23.000Z</time>
      </trkpt>
      <trkpt lat="49.64719" lon="4.72455">
        <ele>293</ele>
        <time>2022-04-03T08:00:24.000Z</time>
      </trkpt>
      <trkpt lat="49.64723" lon="4.72453">
        <ele>293</ele>
        <time>2022-04-03T08:00:25.000Z</time>
      </trkpt>
      <trkpt lat="49.64727" lon="4.72452">
        <ele>293</ele>
        <time>2022-04-03T08:00:26.000Z</time>
      </trkpt>
      <trkpt lat="49.64731" lon="4.72451">
        <ele>293</ele>
        <time>2022-04-03T08:00:27.000Z</time>
      </trkpt>
      <trkpt lat="49.64735" lon="4.72449">
        <ele>293</ele>
        <time>2022-04-03T08:00:28.000Z</time>
      </trkpt>
      <trkpt lat="49.64738" lon="4.72447">
        <ele>293</ele>
        <time>2022-04-03T08:00:29.000Z</time>
      </trkpt>
      <trkpt lat="49.64742" lon="4.72444">
        <ele>293</ele>
        <time>2022-04-03T08:00:30.000Z</time>
      </trkpt>
      <trkpt lat="49.64751" lon="4.72441">
        <ele>293</ele>
        <time>2022-04-03T08:00:31.000Z</time>
      </trkpt>
      <trkpt lat="49.64751" lon="4.72441">
        <ele>293</ele>
        <time>2022-04-03T08:00:32.000Z</time>
      </trkpt>
      <trkpt lat="49.64756" lon="4.72438">
        <ele>293</ele>
        <time>2022-04-03T08:00:33.000Z</time>
      </trkpt>
      <trkpt lat="49.6476" lon="4.72436">
        <ele>293</ele>
        <time>2022-04-03T08:00:34.000Z</time>
      </trkpt>
      <trkpt lat="49.64765" lon="4.72435">
        <ele>293</ele>
        <time>2022-04-03T08:00:35.000Z</time>
      </trkpt>
      <trkpt lat="49.6477" lon="4.72433">
        <ele>293</ele>
        <time>2022-04-03T08:00:36.000Z</time>
      </trkpt>
      <trkpt lat="49.64774" lon="4.72432">
        <ele>293</ele>
        <time>2022-04-03T08:00:37.000Z</time>
      </trkpt>
      <trkpt lat="49.64779" lon="4.7243">
        <ele>293</ele>
        <time>2022-04-03T08:00:38.000Z</time>
      </trkpt>
      <trkpt lat="49.64783" lon="4.7243">
        <ele>293</ele>
        <time>2022-04-03T08:00:39.000Z</time>
      </trkpt>
      <trkpt lat="49.64787" lon="4.72429">
        <ele>293</ele>
        <time>2022-04-03T08:00:40.000Z</time>
      </trkpt>
      <trkpt lat="49.64792" lon="4.72427">
        <ele>293</ele>
        <time>2022-04-03T08:00:41.000Z</time>
      </trkpt>
      <trkpt lat="49.64796" lon="4.72426">
        <ele>293</ele>
        <time>2022-04-03T08:00:42.000Z</time>
      </trkpt>
      <trkpt lat="49.64801" lon="4.72425">
        <ele>293</ele>
        <time>2022-04-03T08:00:43.000Z</time>
      </trkpt>
      <trkpt lat="49.6481" lon="4.72423">
        <ele>293</ele>
        <time>2022-04-03T08:00:44.000Z</time>
      </trkpt>
      <trkpt lat="49.64816" lon="4.72422">
        <ele>293</ele>
        <time>2022-04-03T08:00:45.000Z</time>
      </trkpt>
      <trkpt lat="49.64816" lon="4.72422">
        <ele>293</ele>
        <time>2022-04-03T08:00:46.000Z</time>
      </trkpt>
      <trkpt lat="49.64821" lon="4.72421">
        <ele>292</ele>
        <time>2022-04-03T08:00:47.000Z</time>
      </trkpt>
      <trkpt lat="49.64833" lon="4.72417">
        <ele>292</ele>
        <time>2022-04-03T08:00:48.000Z</time>
      </trkpt>
      <trkpt lat="49.64839" lon="4.72416">
        <ele>292</ele>
        <time>2022-04-03T08:00:49.000Z</time>
      </trkpt>
      <trkpt lat="49.64846" lon="4.72413">
        <ele>292</ele>
        <time>2022-04-03T08:00:50.000Z</time>
      </trkpt>
      <trkpt lat="49.64852" lon="4.7241">
        <ele>292</ele>
        <time>2022-04-03T08:00:51.000Z</time>
      </trkpt>
      <trkpt lat="49.64858" lon="4.72408">
        <ele>292</ele>
        <time>2022-04-03T08:00:52.000Z</time>
      </trkpt>
      <trkpt lat="49.64864" lon="4.72405">
        <ele>292</ele>
        <time>2022-04-03T08:00:53.000Z</time>
      </trkpt>
      <trkpt lat="49.6487" lon="4.72402">
        <ele>291</ele>
        <time>2022-04-03T08:00:54.000Z</time>
      </trkpt>
      <trkpt lat="49.64876" lon="4.72398">
        <ele>291</ele>
        <time>2022-04-03T08:00:55.000Z</time>
      </trkpt>
      <trkpt lat="49.64882" lon="4.72394">
        <ele>291</ele>
        <time>2022-04-03T08:00:56.000Z</time>
      </trkpt>
      <trkpt lat="49.64887" lon="4.7239">
        <ele>291</ele>
        <time>2022-04-03T08:00:57.000Z</time>
      </trkpt>
      <trkpt lat="49.64891" lon="4.72386">
        <ele>291</ele>
        <time>2022-04-03T08:00:58.000Z</time>
      </trkpt>
      <trkpt lat="49.64895" lon="4.72383">
        <ele>291</ele>
        <time>2022-04-03T08:00:59.000Z</time>
      </trkpt>
      <trkpt lat="49.64899" lon="4.72379">
        <ele>291</ele>
        <time>2022-04-03T08:01:00.000Z</time>
      </trkpt>
      <trkpt lat="49.64904" lon="4.72375">
        <ele>291</ele>
        <time>2022-04-03T08:01:01.000Z</time>
      </trkpt>
      <trkpt lat="49.64909" lon="4.7237">
        <ele>291</ele>
        <time>2022-04-03T08:01:02.000Z</time>
      </trkpt>
      <trkpt lat="49.64913" lon="4.72365">
        <ele>291</ele>
        <time>2022-04-03T08:01:03.000Z</time>
      </trkpt>
      <trkpt lat="49.64917" lon="4.72359">
        <ele>291</ele>
        <time>2022-04-03T08:01:04.000Z</time>
      </trkpt>
      <trkpt lat="49.64922" lon="4.72353">
        <ele>291</ele>
        <time>2022-04-03T08:01:05.000Z</time>
      </trkpt>
      <trkpt lat="49.64926" lon="4.72347">
        <ele>291</ele>
        <time>2022-04-03T08:01:06.000Z</time>
      </trkpt>
      <trkpt lat="49.64931" lon="4.72342">
        <ele>291</ele>
        <time>2022-04-03T08:01:07.000Z</time>
      </trkpt>
      <trkpt lat="49.64935" lon="4.72336">
        <ele>291</ele>
        <time>2022-04-03T08:01:08.000Z</time>
      </trkpt>
      <trkpt lat="49.64939" lon="4.7233">
        <ele>291</ele>
        <time>2022-04-03T08:01:09.000Z</time>
      </trkpt>
      <trkpt lat="49.64944" lon="4.72324">
        <ele>290</ele>
        <time>2022-04-03T08:01:10.000Z</time>
      </trkpt>
      <trkpt lat="49.64949" lon="4.72318">
        <ele>290</ele>
        <time>2022-04-03T08:01:11.000Z</time>
      </trkpt>
      <trkpt lat="49.64954" lon="4.72311">
        <ele>290</ele>
        <time>2022-04-03T08:01:12.000Z</time>
      </trkpt>
      <trkpt lat="49.64954" lon="4.72311">
        <ele>290</ele>
        <time>2022-04-03T08:01:13.000Z</time>
      </trkpt>
      <trkpt lat="49.6496" lon="4.72304">
        <ele>290</ele>
        <time>2022-04-03T08:01:14.000Z</time>
      </trkpt>
      <trkpt lat="49.64966" lon="4.72298">
        <ele>290</ele>
        <time>2022-04-03T08:01:15.000Z</time>
      </trkpt>
      <trkpt lat="49.64971" lon="4.72292">
        <ele>289</ele>
        <time>2022-04-03T08:01:16.000Z</time>
      </trkpt>
      <trkpt lat="49.64977" lon="4.72287">
        <ele>289</ele>
        <time>2022-04-03T08:01:17.000Z</time>
      </trkpt>
      <trkpt lat="49.64983" lon="4.72283">
        <ele>289</ele>
        <time>2022-04-03T08:01:18.000Z</time>
      </trkpt>
      <trkpt lat="49.64995" lon="4.72276">
        <ele>288</ele>
        <time>2022-04-03T08:01:19.000Z</time>
      </trkpt>
      <trkpt lat="49.64995" lon="4.72276">
        <ele>288</ele>
        <time>2022-04-03T08:01:20.000Z</time>
      </trkpt>
      <trkpt lat="49.65002" lon="4.72273">
        <ele>288</ele>
        <time>2022-04-03T08:01:21.000Z</time>
      </trkpt>
      <trkpt lat="49.65009" lon="4.72271">
        <ele>287</ele>
        <time>2022-04-03T08:01:22.000Z</time>
      </trkpt>
      <trkpt lat="49.65015" lon="4.72269">
        <ele>287</ele>
        <time>2022-04-03T08:01:23.000Z</time>
      </trkpt>
      <trkpt lat="49.65021" lon="4.72268">
        <ele>287</ele>
        <time>2022-04-03T08:01:24.000Z</time>
      </trkpt>
      <trkpt lat="49.65026" lon="4.72268">
        <ele>287</ele>
        <time>2022-04-03T08:01:25.000Z</time>
      </trkpt>
      <trkpt lat="49.65032" lon="4.72267">
        <ele>287</ele>
        <time>2022-04-03T08:01:26.000Z</time>
      </trkpt>
      <trkpt lat="49.65038" lon="4.72267">
        <ele>288</ele>
        <time>2022-04-03T08:01:27.000Z</time>
      </trkpt>
      <trkpt lat="49.65043" lon="4.72267">
        <ele>288</ele>
        <time>2022-04-03T08:01:28.000Z</time>
      </trkpt>
      <trkpt lat="49.65048" lon="4.72266">
        <ele>288</ele>
        <time>2022-04-03T08:01:29.000Z</time>
      </trkpt>
      <trkpt lat="49.65053" lon="4.72264">
        <ele>288</ele>
        <time>2022-04-03T08:01:30.000Z</time>
      </trkpt>
      <trkpt lat="49.65057" lon="4.72263">
        <ele>288</ele>
        <time>2022-04-03T08:01:31.000Z</time>
      </trkpt>
      <trkpt lat="49.65062" lon="4.72262">
        <ele>288</ele>
        <time>2022-04-03T08:01:32.000Z</time>
      </trkpt>
      <trkpt lat="49.65066" lon="4.7226">
        <ele>288</ele>
        <time>2022-04-03T08:01:33.000Z</time>
      </trkpt>
      <trkpt lat="49.65071" lon="4.72258">
        <ele>288</ele>
        <time>2022-04-03T08:01:34.000Z</time>
      </trkpt>
      <trkpt lat="49.6508" lon="4.72257">
        <ele>288</ele>
        <time>2022-04-03T08:01:35.000Z</time>
      </trkpt>
      <trkpt lat="49.6508" lon="4.72257">
        <ele>288</ele>
        <time>2022-04-03T08:01:36.000Z</time>
      </trkpt>
      <trkpt lat="49.65084" lon="4.72257">
        <ele>288</ele>
        <time>2022-04-03T08:01:37.000Z</time>
      </trkpt>
      <trkpt lat="49.65088" lon="4.72258">
        <ele>288</ele>
        <time>2022-04-03T08:01:38.000Z</time>
      </trkpt>
      <trkpt lat="49.65095" lon="4.72256">
        <ele>288</ele>
        <time>2022-04-03T08:01:39.000Z</time>
      </trkpt>
      <trkpt lat="49.65095" lon="4.72256">
        <ele>288</ele>
        <time>2022-04-03T08:01:40.000Z</time>
      </trkpt>
      <trkpt lat="49.651" lon="4.72254">
        <ele>288</ele>
        <time>2022-04-03T08:01:41.000Z</time>
      </trkpt>
      <trkpt lat="49.65104" lon="4.72252">
        <ele>288</ele>
        <time>2022-04-03T08:01:42.000Z</time>
      </trkpt>
      <trkpt lat="49.65108" lon="4.72251">
        <ele>288</ele>
        <time>2022-04-03T08:01:43.000Z</time>
      </trkpt>
      <trkpt lat="49.65112" lon="4.72252">
        <ele>288</ele>
        <time>2022-04-03T08:01:44.000Z</time>
      </trkpt>
      <trkpt lat="49.65119" lon="4.72253">
        <ele>288</ele>
        <time>2022-04-03T08:01:45.000Z</time>
      </trkpt>
      <trkpt lat="49.65123" lon="4.72253">
        <ele>288</ele>
        <time>2022-04-03T08:01:46.000Z</time>
      </trkpt>
      <trkpt lat="49.65127" lon="4.72252">
        <ele>288</ele>
        <time>2022-04-03T08:01:47.000Z</time>
      </trkpt>
      <trkpt lat="49.65127" lon="4.72252">
        <ele>288</ele>
        <time>2022-04-03T08:01:48.000Z</time>
      </trkpt>
      <trkpt lat="49.65135" lon="4.72252">
        <ele>288</ele>
        <time>2022-04-03T08:01:49.000Z</time>
      </trkpt>
      <trkpt lat="49.65139" lon="4.72253">
        <ele>288</ele>
        <time>2022-04-03T08:01:50.000Z</time>
      </trkpt>
      <trkpt lat="49.6514" lon="4.72255">
        <ele>288</ele>
        <time>2022-04-03T08:01:51.000Z</time>
      </trkpt>
      <trkpt lat="49.65141" lon="4.72257">
        <ele>288</ele>
        <time>2022-04-03T08:01:52.000Z</time>
      </trkpt>
      <trkpt lat="49.6514" lon="4.7226">
        <ele>288</ele>
        <time>2022-04-03T08:01:53.000Z</time>
      </trkpt>
      <trkpt lat="49.6514" lon="4.72265">
        <ele>288</ele>
        <time>2022-04-03T08:01:54.000Z</time>
      </trkpt>
      <trkpt lat="49.65141" lon="4.72273">
        <ele>288</ele>
        <time>2022-04-03T08:01:55.000Z</time>
      </trkpt>
      <trkpt lat="49.65141" lon="4.72273">
        <ele>288</ele>
        <time>2022-04-03T08:01:56.000Z</time>
      </trkpt>
      <trkpt lat="49.65143" lon="4.72294">
        <ele>288</ele>
        <time>2022-04-03T08:01:57.000Z</time>
      </trkpt>
      <trkpt lat="49.65144" lon="4.72307">
        <ele>288</ele>
        <time>2022-04-03T08:01:58.000Z</time>
      </trkpt>
      <trkpt lat="49.65146" lon="4.7232">
        <ele>287</ele>
        <time>2022-04-03T08:01:59.000Z</time>
      </trkpt>
      <trkpt lat="49.65148" lon="4.72334">
        <ele>287</ele>
        <time>2022-04-03T08:02:00.000Z</time>
      </trkpt>
      <trkpt lat="49.65149" lon="4.72347">
        <ele>287</ele>
        <time>2022-04-03T08:02:01.000Z</time>
      </trkpt>
      <trkpt lat="49.65151" lon="4.7236">
        <ele>286</ele>
        <time>2022-04-03T08:02:02.000Z</time>
      </trkpt>
      <trkpt lat="49.65153" lon="4.7237">
        <ele>286</ele>
        <time>2022-04-03T08:02:03.000Z</time>
      </trkpt>
      <trkpt lat="49.65155" lon="4.72379">
        <ele>286</ele>
        <time>2022-04-03T08:02:04.000Z</time>
      </trkpt>
      <trkpt lat="49.65156" lon="4.72384">
        <ele>286</ele>
        <time>2022-04-03T08:02:05.000Z</time>
      </trkpt>
      <trkpt lat="49.65157" lon="4.72386">
        <ele>286</ele>
        <time>2022-04-03T08:02:06.000Z</time>
      </trkpt>
      <trkpt lat="49.65158" lon="4.72387">
        <ele>286</ele>
        <time>2022-04-03T08:02:07.000Z</time>
      </trkpt>
      <trkpt lat="49.65158" lon="4.72388">
        <ele>286</ele>
        <time>2022-04-03T08:02:08.000Z</time>
      </trkpt>
      <trkpt lat="49.65159" lon="4.72389">
        <ele>286</ele>
        <time>2022-04-03T08:02:09.000Z</time>
      </trkpt>
      <trkpt lat="49.65159" lon="4.72391">
        <ele>286</ele>
        <time>2022-04-03T08:02:10.000Z</time>
      </trkpt>
      <trkpt lat="49.6516" lon="4.72392">
        <ele>286</ele>
        <time>2022-04-03T08:02:11.000Z</time>
      </trkpt>
      <trkpt lat="49.6516" lon="4.72394">
        <ele>286</ele>
        <time>2022-04-03T08:02:12.000Z</time>
      </trkpt>
      <trkpt lat="49.65161" lon="4.72395">
        <ele>286</ele>
        <time>2022-04-03T08:02:13.000Z</time>
      </trkpt>
      <trkpt lat="49.65161" lon="4.72396">
        <ele>286</ele>
        <time>2022-04-03T08:02:14.000Z</time>
      </trkpt>
      <trkpt lat="49.65161" lon="4.72396">
        <ele>286</ele>
        <time>2022-04-03T08:02:15.000Z</time>
      </trkpt>
      <trkpt lat="49.65162" lon="4.72397">
        <ele>286</ele>
        <time>2022-04-03T08:02:16.000Z</time>
      </trkpt>
      <trkpt lat="49.65163" lon="4.724">
        <ele>287</ele>
        <time>2022-04-03T08:02:17.000Z</time>
      </trkpt>
      <trkpt lat="49.65164" lon="4.72401">
        <ele>287</ele>
        <time>2022-04-03T08:02:18.000Z</time>
      </trkpt>
      <trkpt lat="49.65164" lon="4.72403">
        <ele>287</ele>
        <time>2022-04-03T08:02:19.000Z</time>
      </trkpt>
      <trkpt lat="49.65165" lon="4.72405">
        <ele>287</ele>
        <time>2022-04-03T08:02:20.000Z</time>
      </trkpt>
      <trkpt lat="49.65165" lon="4.72406">
        <ele>287</ele>
        <time>2022-04-03T08:02:21.000Z</time>
      </trkpt>
      <trkpt lat="49.65166" lon="4.72408">
        <ele>287</ele>
        <time>2022-04-03T08:02:22.000Z</time>
      </trkpt>
      <trkpt lat="49.65166" lon="4.7241">
        <ele>288</ele>
        <time>2022-04-03T08:02:23.000Z</time>
      </trkpt>
      <trkpt lat="49.65166" lon="4.7241">
        <ele>288</ele>
        <time>2022-04-03T08:02:24.000Z</time>
      </trkpt>
      <trkpt lat="49.65166" lon="4.72415">
        <ele>288</ele>
        <time>2022-04-03T08:02:25.000Z</time>
      </trkpt>
      <trkpt lat="49.65166" lon="4.72415">
        <ele>288</ele>
        <time>2022-04-03T08:02:26.000Z</time>
      </trkpt>
      <trkpt lat="49.65168" lon="4.72419">
        <ele>288</ele>
        <time>2022-04-03T08:02:27.000Z</time>
      </trkpt>
      <trkpt lat="49.65168" lon="4.72421">
        <ele>288</ele>
        <time>2022-04-03T08:02:28.000Z</time>
      </trkpt>
      <trkpt lat="49.65168" lon="4.72423">
        <ele>288</ele>
        <time>2022-04-03T08:02:29.000Z</time>
      </trkpt>
      <trkpt lat="49.65169" lon="4.72425">
        <ele>289</ele>
        <time>2022-04-03T08:02:30.000Z</time>
      </trkpt>
      <trkpt lat="49.65169" lon="4.72428">
        <ele>289</ele>
        <time>2022-04-03T08:02:31.000Z</time>
      </trkpt>
      <trkpt lat="49.6517" lon="4.7243">
        <ele>289</ele>
        <time>2022-04-03T08:02:32.000Z</time>
      </trkpt>
      <trkpt lat="49.6517" lon="4.72432">
        <ele>289</ele>
        <time>2022-04-03T08:02:33.000Z</time>
      </trkpt>
      <trkpt lat="49.6517" lon="4.72434">
        <ele>289</ele>
        <time>2022-04-03T08:02:34.000Z</time>
      </trkpt>
      <trkpt lat="49.65171" lon="4.72436">
        <ele>289</ele>
        <time>2022-04-03T08:02:35.000Z</time>
      </trkpt>
      <trkpt lat="49.65171" lon="4.72437">
        <ele>289</ele>
        <time>2022-04-03T08:02:36.000Z</time>
      </trkpt>
      <trkpt lat="49.65172" lon="4.72439">
        <ele>289</ele>
        <time>2022-04-03T08:02:37.000Z</time>
      </trkpt>
      <trkpt lat="49.65172" lon="4.7244">
        <ele>289</ele>
        <time>2022-04-03T08:02:38.000Z</time>
      </trkpt>
      <trkpt lat="49.65172" lon="4.7244">
        <ele>289</ele>
        <time>2022-04-03T08:02:39.000Z</time>
      </trkpt>
      <trkpt lat="49.65173" lon="4.72442">
        <ele>289</ele>
        <time>2022-04-03T08:02:40.000Z</time>
      </trkpt>
      <trkpt lat="49.65172" lon="4.72443">
        <ele>289</ele>
        <time>2022-04-03T08:02:41.000Z</time>
      </trkpt>
      <trkpt lat="49.65173" lon="4.72445">
        <ele>289</ele>
        <time>2022-04-03T08:02:42.000Z</time>
      </trkpt>
      <trkpt lat="49.65173" lon="4.72447">
        <ele>289</ele>
        <time>2022-04-03T08:02:43.000Z</time>
      </trkpt>
      <trkpt lat="49.65173" lon="4.72449">
        <ele>289</ele>
        <time>2022-04-03T08:02:44.000Z</time>
      </trkpt>
      <trkpt lat="49.65173" lon="4.72452">
        <ele>289</ele>
        <time>2022-04-03T08:02:45.000Z</time>
      </trkpt>
      <trkpt lat="49.65174" lon="4.72454">
        <ele>289</ele>
        <time>2022-04-03T08:02:46.000Z</time>
      </trkpt>
      <trkpt lat="49.65175" lon="4.72456">
        <ele>289</ele>
        <time>2022-04-03T08:02:47.000Z</time>
      </trkpt>
      <trkpt lat="49.65176" lon="4.72459">
        <ele>289</ele>
        <time>2022-04-03T08:02:48.000Z</time>
      </trkpt>
      <trkpt lat="49.65177" lon="4.72462">
        <ele>289</ele>
        <time>2022-04-03T08:02:49.000Z</time>
      </trkpt>
      <trkpt lat="49.65177" lon="4.72466">
        <ele>289</ele>
        <time>2022-04-03T08:02:50.000Z</time>
      </trkpt>
      <trkpt lat="49.65178" lon="4.72469">
        <ele>289</ele>
        <time>2022-04-03T08:02:51.000Z</time>
      </trkpt>
      <trkpt lat="49.65178" lon="4.72473">
        <ele>290</ele>
        <time>2022-04-03T08:02:52.000Z</time>
      </trkpt>
      <trkpt lat="49.65179" lon="4.72476">
        <ele>290</ele>
        <time>2022-04-03T08:02:53.000Z</time>
      </trkpt>
      <trkpt lat="49.6518" lon="4.7248">
        <ele>290</ele>
        <time>2022-04-03T08:02:54.000Z</time>
      </trkpt>
      <trkpt lat="49.65181" lon="4.72484">
        <ele>290</ele>
        <time>2022-04-03T08:02:55.000Z</time>
      </trkpt>
      <trkpt lat="49.65182" lon="4.72489">
        <ele>290</ele>
        <time>2022-04-03T08:02:56.000Z</time>
      </trkpt>
      <trkpt lat="49.65183" lon="4.72493">
        <ele>290</ele>
        <time>2022-04-03T08:02:57.000Z</time>
      </trkpt>
      <trkpt lat="49.65184" lon="4.72498">
        <ele>291</ele>
        <time>2022-04-03T08:02:58.000Z</time>
      </trkpt>
      <trkpt lat="49.65184" lon="4.72502">
        <ele>291</ele>
        <time>2022-04-03T08:02:59.000Z</time>
      </trkpt>
      <trkpt lat="49.65185" lon="4.72506">
        <ele>291</ele>
        <time>2022-04-03T08:03:00.000Z</time>
      </trkpt>
      <trkpt lat="49.65186" lon="4.7251">
        <ele>292</ele>
        <time>2022-04-03T08:03:01.000Z</time>
      </trkpt>
      <trkpt lat="49.65186" lon="4.72514">
        <ele>292</ele>
        <time>2022-04-03T08:03:02.000Z</time>
      </trkpt>
      <trkpt lat="49.65187" lon="4.72518">
        <ele>292</ele>
        <time>2022-04-03T08:03:03.000Z</time>
      </trkpt>
      <trkpt lat="49.65188" lon="4.72522">
        <ele>292</ele>
        <time>2022-04-03T08:03:04.000Z</time>
      </trkpt>
      <trkpt lat="49.65188" lon="4.72527">
        <ele>293</ele>
        <time>2022-04-03T08:03:05.000Z</time>
      </trkpt>
      <trkpt lat="49.6519" lon="4.72531">
        <ele>293</ele>
        <time>2022-04-03T08:03:06.000Z</time>
      </trkpt>
      <trkpt lat="49.65191" lon="4.72536">
        <ele>293</ele>
        <time>2022-04-03T08:03:07.000Z</time>
      </trkpt>
      <trkpt lat="49.65192" lon="4.7254">
        <ele>293</ele>
        <time>2022-04-03T08:03:08.000Z</time>
      </trkpt>
      <trkpt lat="49.65192" lon="4.72545">
        <ele>293</ele>
        <time>2022-04-03T08:03:09.000Z</time>
      </trkpt>
      <trkpt lat="49.65192" lon="4.7255">
        <ele>294</ele>
        <time>2022-04-03T08:03:10.000Z</time>
      </trkpt>
      <trkpt lat="49.65193" lon="4.72554">
        <ele>294</ele>
        <time>2022-04-03T08:03:11.000Z</time>
      </trkpt>
      <trkpt lat="49.65194" lon="4.72559">
        <ele>294</ele>
        <time>2022-04-03T08:03:12.000Z</time>
      </trkpt>
      <trkpt lat="49.65195" lon="4.72564">
        <ele>294</ele>
        <time>2022-04-03T08:03:13.000Z</time>
      </trkpt>
      <trkpt lat="49.65196" lon="4.72569">
        <ele>295</ele>
        <time>2022-04-03T08:03:14.000Z</time>
      </trkpt>
      <trkpt lat="49.65196" lon="4.72574">
        <ele>295</ele>
        <time>2022-04-03T08:03:15.000Z</time>
      </trkpt>
      <trkpt lat="49.65197" lon="4.72579">
        <ele>295</ele>
        <time>2022-04-03T08:03:16.000Z</time>
      </trkpt>
      <trkpt lat="49.65198" lon="4.72584">
        <ele>295</ele>
        <time>2022-04-03T08:03:17.000Z</time>
      </trkpt>
      <trkpt lat="49.65198" lon="4.7259">
        <ele>295</ele>
        <time>2022-04-03T08:03:18.000Z</time>
      </trkpt>
      <trkpt lat="49.65199" lon="4.72595">
        <ele>295</ele>
        <time>2022-04-03T08:03:19.000Z</time>
      </trkpt>
      <trkpt lat="49.652" lon="4.726">
        <ele>295</ele>
        <time>2022-04-03T08:03:20.000Z</time>
      </trkpt>
      <trkpt lat="49.652" lon="4.72605">
        <ele>295</ele>
        <time>2022-04-03T08:03:21.000Z</time>
      </trkpt>
      <trkpt lat="49.65201" lon="4.72611">
        <ele>296</ele>
        <time>2022-04-03T08:03:22.000Z</time>
      </trkpt>
      <trkpt lat="49.65202" lon="4.72616">
        <ele>296</ele>
        <time>2022-04-03T08:03:23.000Z</time>
      </trkpt>
      <trkpt lat="49.65203" lon="4.72622">
        <ele>296</ele>
        <time>2022-04-03T08:03:24.000Z</time>
      </trkpt>
      <trkpt lat="49.65204" lon="4.72628">
        <ele>296</ele>
        <time>2022-04-03T08:03:25.000Z</time>
      </trkpt>
      <trkpt lat="49.65204" lon="4.72634">
        <ele>296</ele>
        <time>2022-04-03T08:03:26.000Z</time>
      </trkpt>
      <trkpt lat="49.65205" lon="4.72639">
        <ele>296</ele>
        <time>2022-04-03T08:03:27.000Z</time>
      </trkpt>
      <trkpt lat="49.65206" lon="4.72644">
        <ele>296</ele>
        <time>2022-04-03T08:03:28.000Z</time>
      </trkpt>
      <trkpt lat="49.65206" lon="4.7265">
        <ele>296</ele>
        <time>2022-04-03T08:03:29.000Z</time>
      </trkpt>
      <trkpt lat="49.65207" lon="4.72655">
        <ele>297</ele>
        <time>2022-04-03T08:03:30.000Z</time>
      </trkpt>
      <trkpt lat="49.65208" lon="4.72661">
        <ele>297</ele>
        <time>2022-04-03T08:03:31.000Z</time>
      </trkpt>
      <trkpt lat="49.65209" lon="4.72667">
        <ele>297</ele>
        <time>2022-04-03T08:03:32.000Z</time>
      </trkpt>
      <trkpt lat="49.65209" lon="4.72675">
        <ele>297</ele>
        <time>2022-04-03T08:03:33.000Z</time>
      </trkpt>
      <trkpt lat="49.65209" lon="4.72683">
        <ele>297</ele>
        <time>2022-04-03T08:03:34.000Z</time>
      </trkpt>
      <trkpt lat="49.65209" lon="4.72691">
        <ele>297</ele>
        <time>2022-04-03T08:03:35.000Z</time>
      </trkpt>
      <trkpt lat="49.6521" lon="4.727">
        <ele>297</ele>
        <time>2022-04-03T08:03:36.000Z</time>
      </trkpt>
      <trkpt lat="49.65211" lon="4.72708">
        <ele>297</ele>
        <time>2022-04-03T08:03:37.000Z</time>
      </trkpt>
      <trkpt lat="49.65213" lon="4.72717">
        <ele>297</ele>
        <time>2022-04-03T08:03:38.000Z</time>
      </trkpt>
      <trkpt lat="49.65215" lon="4.72727">
        <ele>297</ele>
        <time>2022-04-03T08:03:39.000Z</time>
      </trkpt>
      <trkpt lat="49.65216" lon="4.72736">
        <ele>297</ele>
        <time>2022-04-03T08:03:40.000Z</time>
      </trkpt>
      <trkpt lat="49.65218" lon="4.72746">
        <ele>297</ele>
        <time>2022-04-03T08:03:41.000Z</time>
      </trkpt>
      <trkpt lat="49.6522" lon="4.72757">
        <ele>296</ele>
        <time>2022-04-03T08:03:42.000Z</time>
      </trkpt>
      <trkpt lat="49.65222" lon="4.72767">
        <ele>296</ele>
        <time>2022-04-03T08:03:43.000Z</time>
      </trkpt>
      <trkpt lat="49.65223" lon="4.72776">
        <ele>296</ele>
        <time>2022-04-03T08:03:44.000Z</time>
      </trkpt>
      <trkpt lat="49.65224" lon="4.72783">
        <ele>295</ele>
        <time>2022-04-03T08:03:45.000Z</time>
      </trkpt>
      <trkpt lat="49.65225" lon="4.72788">
        <ele>295</ele>
        <time>2022-04-03T08:03:46.000Z</time>
      </trkpt>
      <trkpt lat="49.65225" lon="4.72792">
        <ele>295</ele>
        <time>2022-04-03T08:03:47.000Z</time>
      </trkpt>
      <trkpt lat="49.65223" lon="4.72794">
        <ele>295</ele>
        <time>2022-04-03T08:03:48.000Z</time>
      </trkpt>
      <trkpt lat="49.65221" lon="4.72795">
        <ele>295</ele>
        <time>2022-04-03T08:03:49.000Z</time>
      </trkpt>
      <trkpt lat="49.65221" lon="4.72795">
        <ele>295</ele>
        <time>2022-04-03T08:03:50.000Z</time>
      </trkpt>
      <trkpt lat="49.65216" lon="4.72799">
        <ele>295</ele>
        <time>2022-04-03T08:03:51.000Z</time>
      </trkpt>
      <trkpt lat="49.65212" lon="4.72801">
        <ele>295</ele>
        <time>2022-04-03T08:03:52.000Z</time>
      </trkpt>
      <trkpt lat="49.65209" lon="4.72803">
        <ele>295</ele>
        <time>2022-04-03T08:03:53.000Z</time>
      </trkpt>
      <trkpt lat="49.65205" lon="4.72805">
        <ele>295</ele>
        <time>2022-04-03T08:03:54.000Z</time>
      </trkpt>
      <trkpt lat="49.65201" lon="4.72807">
        <ele>295</ele>
        <time>2022-04-03T08:03:55.000Z</time>
      </trkpt>
      <trkpt lat="49.65196" lon="4.72809">
        <ele>295</ele>
        <time>2022-04-03T08:03:56.000Z</time>
      </trkpt>
      <trkpt lat="49.65192" lon="4.7281">
        <ele>295</ele>
        <time>2022-04-03T08:03:57.000Z</time>
      </trkpt>
      <trkpt lat="49.65187" lon="4.7281">
        <ele>295</ele>
        <time>2022-04-03T08:03:58.000Z</time>
      </trkpt>
      <trkpt lat="49.65183" lon="4.72812">
        <ele>295</ele>
        <time>2022-04-03T08:03:59.000Z</time>
      </trkpt>
      <trkpt lat="49.65179" lon="4.72814">
        <ele>295</ele>
        <time>2022-04-03T08:04:00.000Z</time>
      </trkpt>
      <trkpt lat="49.65176" lon="4.72815">
        <ele>295</ele>
        <time>2022-04-03T08:04:01.000Z</time>
      </trkpt>
      <trkpt lat="49.65176" lon="4.72815">
        <ele>295</ele>
        <time>2022-04-03T08:04:02.000Z</time>
      </trkpt>
      <trkpt lat="49.6517" lon="4.72817">
        <ele>294</ele>
        <time>2022-04-03T08:04:03.000Z</time>
      </trkpt>
      <trkpt lat="49.65168" lon="4.72817">
        <ele>294</ele>
        <time>2022-04-03T08:04:04.000Z</time>
      </trkpt>
      <trkpt lat="49.65166" lon="4.72818">
        <ele>294</ele>
        <time>2022-04-03T08:04:05.000Z</time>
      </trkpt>
      <trkpt lat="49.65163" lon="4.7282">
        <ele>294</ele>
        <time>2022-04-03T08:04:06.000Z</time>
      </trkpt>
      <trkpt lat="49.6516" lon="4.72823">
        <ele>294</ele>
        <time>2022-04-03T08:04:07.000Z</time>
      </trkpt>
      <trkpt lat="49.65156" lon="4.72827">
        <ele>294</ele>
        <time>2022-04-03T08:04:08.000Z</time>
      </trkpt>
      <trkpt lat="49.65151" lon="4.7283">
        <ele>294</ele>
        <time>2022-04-03T08:04:09.000Z</time>
      </trkpt>
      <trkpt lat="49.65145" lon="4.72832">
        <ele>294</ele>
        <time>2022-04-03T08:04:10.000Z</time>
      </trkpt>
      <trkpt lat="49.65139" lon="4.72835">
        <ele>294</ele>
        <time>2022-04-03T08:04:11.000Z</time>
      </trkpt>
      <trkpt lat="49.65134" lon="4.72837">
        <ele>293</ele>
        <time>2022-04-03T08:04:12.000Z</time>
      </trkpt>
      <trkpt lat="49.65128" lon="4.72839">
        <ele>293</ele>
        <time>2022-04-03T08:04:13.000Z</time>
      </trkpt>
      <trkpt lat="49.65122" lon="4.72843">
        <ele>293</ele>
        <time>2022-04-03T08:04:14.000Z</time>
      </trkpt>
      <trkpt lat="49.65115" lon="4.72845">
        <ele>293</ele>
        <time>2022-04-03T08:04:15.000Z</time>
      </trkpt>
      <trkpt lat="49.65108" lon="4.72848">
        <ele>293</ele>
        <time>2022-04-03T08:04:16.000Z</time>
      </trkpt>
      <trkpt lat="49.651" lon="4.72852">
        <ele>292</ele>
        <time>2022-04-03T08:04:17.000Z</time>
      </trkpt>
      <trkpt lat="49.65092" lon="4.72855">
        <ele>292</ele>
        <time>2022-04-03T08:04:18.000Z</time>
      </trkpt>
      <trkpt lat="49.65085" lon="4.72858">
        <ele>291</ele>
        <time>2022-04-03T08:04:19.000Z</time>
      </trkpt>
      <trkpt lat="49.65078" lon="4.72861">
        <ele>291</ele>
        <time>2022-04-03T08:04:20.000Z</time>
      </trkpt>
      <trkpt lat="49.65071" lon="4.72863">
        <ele>290</ele>
        <time>2022-04-03T08:04:21.000Z</time>
      </trkpt>
      <trkpt lat="49.65064" lon="4.72865">
        <ele>290</ele>
        <time>2022-04-03T08:04:22.000Z</time>
      </trkpt>
      <trkpt lat="49.65058" lon="4.72867">
        <ele>289</ele>
        <time>2022-04-03T08:04:23.000Z</time>
      </trkpt>
      <trkpt lat="49.65051" lon="4.7287">
        <ele>288</ele>
        <time>2022-04-03T08:04:24.000Z</time>
      </trkpt>
      <trkpt lat="49.65045" lon="4.72871">
        <ele>288</ele>
        <time>2022-04-03T08:04:25.000Z</time>
      </trkpt>
      <trkpt lat="49.65039" lon="4.72872">
        <ele>287</ele>
        <time>2022-04-03T08:04:26.000Z</time>
      </trkpt>
      <trkpt lat="49.65033" lon="4.72874">
        <ele>286</ele>
        <time>2022-04-03T08:04:27.000Z</time>
      </trkpt>
      <trkpt lat="49.65028" lon="4.72875">
        <ele>286</ele>
        <time>2022-04-03T08:04:28.000Z</time>
      </trkpt>
      <trkpt lat="49.65024" lon="4.72876">
        <ele>285</ele>
        <time>2022-04-03T08:04:29.000Z</time>
      </trkpt>
      <trkpt lat="49.6502" lon="4.72878">
        <ele>284</ele>
        <time>2022-04-03T08:04:30.000Z</time>
      </trkpt>
      <trkpt lat="49.65018" lon="4.7288">
        <ele>284</ele>
        <time>2022-04-03T08:04:31.000Z</time>
      </trkpt>
      <trkpt lat="49.65018" lon="4.72883">
        <ele>283</ele>
        <time>2022-04-03T08:04:32.000Z</time>
      </trkpt>
      <trkpt lat="49.65018" lon="4.72888">
        <ele>282</ele>
        <time>2022-04-03T08:04:33.000Z</time>
      </trkpt>
      <trkpt lat="49.65018" lon="4.72895">
        <ele>281</ele>
        <time>2022-04-03T08:04:34.000Z</time>
      </trkpt>
      <trkpt lat="49.65017" lon="4.72901">
        <ele>281</ele>
        <time>2022-04-03T08:04:35.000Z</time>
      </trkpt>
      <trkpt lat="49.65017" lon="4.72901">
        <ele>281</ele>
        <time>2022-04-03T08:04:36.000Z</time>
      </trkpt>
      <trkpt lat="49.65016" lon="4.72916">
        <ele>279</ele>
        <time>2022-04-03T08:04:37.000Z</time>
      </trkpt>
      <trkpt lat="49.65015" lon="4.72924">
        <ele>278</ele>
        <time>2022-04-03T08:04:38.000Z</time>
      </trkpt>
      <trkpt lat="49.65015" lon="4.72932">
        <ele>278</ele>
        <time>2022-04-03T08:04:39.000Z</time>
      </trkpt>
      <trkpt lat="49.65015" lon="4.72939">
        <ele>277</ele>
        <time>2022-04-03T08:04:40.000Z</time>
      </trkpt>
      <trkpt lat="49.65016" lon="4.72948">
        <ele>276</ele>
        <time>2022-04-03T08:04:41.000Z</time>
      </trkpt>
      <trkpt lat="49.65017" lon="4.72956">
        <ele>276</ele>
        <time>2022-04-03T08:04:42.000Z</time>
      </trkpt>
      <trkpt lat="49.65017" lon="4.72956">
        <ele>276</ele>
        <time>2022-04-03T08:04:43.000Z</time>
      </trkpt>
      <trkpt lat="49.65017" lon="4.72964">
        <ele>275</ele>
        <time>2022-04-03T08:04:44.000Z</time>
      </trkpt>
      <trkpt lat="49.65018" lon="4.72983">
        <ele>274</ele>
        <time>2022-04-03T08:04:45.000Z</time>
      </trkpt>
      <trkpt lat="49.65019" lon="4.72993">
        <ele>273</ele>
        <time>2022-04-03T08:04:46.000Z</time>
      </trkpt>
      <trkpt lat="49.65019" lon="4.72993">
        <ele>273</ele>
        <time>2022-04-03T08:04:47.000Z</time>
      </trkpt>
      <trkpt lat="49.6502" lon="4.73002">
        <ele>273</ele>
        <time>2022-04-03T08:04:48.000Z</time>
      </trkpt>
      <trkpt lat="49.65021" lon="4.73011">
        <ele>272</ele>
        <time>2022-04-03T08:04:49.000Z</time>
      </trkpt>
      <trkpt lat="49.65024" lon="4.73029">
        <ele>271</ele>
        <time>2022-04-03T08:04:50.000Z</time>
      </trkpt>
      <trkpt lat="49.65025" lon="4.73037">
        <ele>271</ele>
        <time>2022-04-03T08:04:51.000Z</time>
      </trkpt>
      <trkpt lat="49.65025" lon="4.73037">
        <ele>271</ele>
        <time>2022-04-03T08:04:52.000Z</time>
      </trkpt>
      <trkpt lat="49.65026" lon="4.73046">
        <ele>271</ele>
        <time>2022-04-03T08:04:53.000Z</time>
      </trkpt>
      <trkpt lat="49.65027" lon="4.73055">
        <ele>270</ele>
        <time>2022-04-03T08:04:54.000Z</time>
      </trkpt>
      <trkpt lat="49.65027" lon="4.73064">
        <ele>270</ele>
        <time>2022-04-03T08:04:55.000Z</time>
      </trkpt>
      <trkpt lat="49.65028" lon="4.73072">
        <ele>269</ele>
        <time>2022-04-03T08:04:56.000Z</time>
      </trkpt>
      <trkpt lat="49.65029" lon="4.73081">
        <ele>269</ele>
        <time>2022-04-03T08:04:57.000Z</time>
      </trkpt>
      <trkpt lat="49.65029" lon="4.7309">
        <ele>268</ele>
        <time>2022-04-03T08:04:58.000Z</time>
      </trkpt>
      <trkpt lat="49.6503" lon="4.73108">
        <ele>268</ele>
        <time>2022-04-03T08:04:59.000Z</time>
      </trkpt>
      <trkpt lat="49.6503" lon="4.73108">
        <ele>268</ele>
        <time>2022-04-03T08:05:00.000Z</time>
      </trkpt>
      <trkpt lat="49.6503" lon="4.73118">
        <ele>268</ele>
        <time>2022-04-03T08:05:01.000Z</time>
      </trkpt>
      <trkpt lat="49.6503" lon="4.73127">
        <ele>267</ele>
        <time>2022-04-03T08:05:02.000Z</time>
      </trkpt>
      <trkpt lat="49.65029" lon="4.73146">
        <ele>267</ele>
        <time>2022-04-03T08:05:03.000Z</time>
      </trkpt>
      <trkpt lat="49.65029" lon="4.73146">
        <ele>267</ele>
        <time>2022-04-03T08:05:04.000Z</time>
      </trkpt>
      <trkpt lat="49.65029" lon="4.73155">
        <ele>267</ele>
        <time>2022-04-03T08:05:05.000Z</time>
      </trkpt>
      <trkpt lat="49.65029" lon="4.73164">
        <ele>266</ele>
        <time>2022-04-03T08:05:06.000Z</time>
      </trkpt>
      <trkpt lat="49.65028" lon="4.73182">
        <ele>266</ele>
        <time>2022-04-03T08:05:07.000Z</time>
      </trkpt>
      <trkpt lat="49.65028" lon="4.73182">
        <ele>266</ele>
        <time>2022-04-03T08:05:08.000Z</time>
      </trkpt>
      <trkpt lat="49.65028" lon="4.73191">
        <ele>266</ele>
        <time>2022-04-03T08:05:09.000Z</time>
      </trkpt>
      <trkpt lat="49.65028" lon="4.73199">
        <ele>265</ele>
        <time>2022-04-03T08:05:10.000Z</time>
      </trkpt>
      <trkpt lat="49.65027" lon="4.73207">
        <ele>265</ele>
        <time>2022-04-03T08:05:11.000Z</time>
      </trkpt>
      <trkpt lat="49.65027" lon="4.73214">
        <ele>265</ele>
        <time>2022-04-03T08:05:12.000Z</time>
      </trkpt>
      <trkpt lat="49.65027" lon="4.73229">
        <ele>264</ele>
        <time>2022-04-03T08:05:13.000Z</time>
      </trkpt>
      <trkpt lat="49.65027" lon="4.73229">
        <ele>264</ele>
        <time>2022-04-03T08:05:14.000Z</time>
      </trkpt>
      <trkpt lat="49.65029" lon="4.73241">
        <ele>263</ele>
        <time>2022-04-03T08:05:15.000Z</time>
      </trkpt>
      <trkpt lat="49.6503" lon="4.73247">
        <ele>263</ele>
        <time>2022-04-03T08:05:16.000Z</time>
      </trkpt>
      <trkpt lat="49.6503" lon="4.73247">
        <ele>263</ele>
        <time>2022-04-03T08:05:17.000Z</time>
      </trkpt>
      <trkpt lat="49.65032" lon="4.73253">
        <ele>263</ele>
        <time>2022-04-03T08:05:18.000Z</time>
      </trkpt>
      <trkpt lat="49.65035" lon="4.73266">
        <ele>262</ele>
        <time>2022-04-03T08:05:19.000Z</time>
      </trkpt>
      <trkpt lat="49.65037" lon="4.73272">
        <ele>262</ele>
        <time>2022-04-03T08:05:20.000Z</time>
      </trkpt>
      <trkpt lat="49.65038" lon="4.73279">
        <ele>261</ele>
        <time>2022-04-03T08:05:21.000Z</time>
      </trkpt>
      <trkpt lat="49.65039" lon="4.73286">
        <ele>261</ele>
        <time>2022-04-03T08:05:22.000Z</time>
      </trkpt>
      <trkpt lat="49.65041" lon="4.73294">
        <ele>260</ele>
        <time>2022-04-03T08:05:23.000Z</time>
      </trkpt>
      <trkpt lat="49.65041" lon="4.73294">
        <ele>260</ele>
        <time>2022-04-03T08:05:24.000Z</time>
      </trkpt>
      <trkpt lat="49.65042" lon="4.73301">
        <ele>260</ele>
        <time>2022-04-03T08:05:25.000Z</time>
      </trkpt>
      <trkpt lat="49.65044" lon="4.73309">
        <ele>259</ele>
        <time>2022-04-03T08:05:26.000Z</time>
      </trkpt>
      <trkpt lat="49.65046" lon="4.73316">
        <ele>259</ele>
        <time>2022-04-03T08:05:27.000Z</time>
      </trkpt>
      <trkpt lat="49.65047" lon="4.73323">
        <ele>258</ele>
        <time>2022-04-03T08:05:28.000Z</time>
      </trkpt>
      <trkpt lat="49.65049" lon="4.73338">
        <ele>258</ele>
        <time>2022-04-03T08:05:29.000Z</time>
      </trkpt>
      <trkpt lat="49.65049" lon="4.73338">
        <ele>258</ele>
        <time>2022-04-03T08:05:30.000Z</time>
      </trkpt>
      <trkpt lat="49.6505" lon="4.73344">
        <ele>257</ele>
        <time>2022-04-03T08:05:31.000Z</time>
      </trkpt>
      <trkpt lat="49.6505" lon="4.73351">
        <ele>257</ele>
        <time>2022-04-03T08:05:32.000Z</time>
      </trkpt>
      <trkpt lat="49.65051" lon="4.73358">
        <ele>257</ele>
        <time>2022-04-03T08:05:33.000Z</time>
      </trkpt>
      <trkpt lat="49.65052" lon="4.73372">
        <ele>257</ele>
        <time>2022-04-03T08:05:34.000Z</time>
      </trkpt>
      <trkpt lat="49.65052" lon="4.73372">
        <ele>257</ele>
        <time>2022-04-03T08:05:35.000Z</time>
      </trkpt>
      <trkpt lat="49.65052" lon="4.73388">
        <ele>256</ele>
        <time>2022-04-03T08:05:36.000Z</time>
      </trkpt>
      <trkpt lat="49.65052" lon="4.73388">
        <ele>256</ele>
        <time>2022-04-03T08:05:37.000Z</time>
      </trkpt>
      <trkpt lat="49.65051" lon="4.73403">
        <ele>256</ele>
        <time>2022-04-03T08:05:38.000Z</time>
      </trkpt>
      <trkpt lat="49.65051" lon="4.73403">
        <ele>256</ele>
        <time>2022-04-03T08:05:39.000Z</time>
      </trkpt>
      <trkpt lat="49.65051" lon="4.7341">
        <ele>256</ele>
        <time>2022-04-03T08:05:40.000Z</time>
      </trkpt>
      <trkpt lat="49.65051" lon="4.73417">
        <ele>256</ele>
        <time>2022-04-03T08:05:41.000Z</time>
      </trkpt>
      <trkpt lat="49.65049" lon="4.73423">
        <ele>256</ele>
        <time>2022-04-03T08:05:42.000Z</time>
      </trkpt>
      <trkpt lat="49.65047" lon="4.73429">
        <ele>256</ele>
        <time>2022-04-03T08:05:43.000Z</time>
      </trkpt>
      <trkpt lat="49.65046" lon="4.73436">
        <ele>256</ele>
        <time>2022-04-03T08:05:44.000Z</time>
      </trkpt>
      <trkpt lat="49.65045" lon="4.73442">
        <ele>256</ele>
        <time>2022-04-03T08:05:45.000Z</time>
      </trkpt>
      <trkpt lat="49.65042" lon="4.73454">
        <ele>256</ele>
        <time>2022-04-03T08:05:46.000Z</time>
      </trkpt>
      <trkpt lat="49.65042" lon="4.73454">
        <ele>256</ele>
        <time>2022-04-03T08:05:47.000Z</time>
      </trkpt>
      <trkpt lat="49.65041" lon="4.7346">
        <ele>256</ele>
        <time>2022-04-03T08:05:48.000Z</time>
      </trkpt>
      <trkpt lat="49.6504" lon="4.73466">
        <ele>256</ele>
        <time>2022-04-03T08:05:49.000Z</time>
      </trkpt>
      <trkpt lat="49.65039" lon="4.73471">
        <ele>257</ele>
        <time>2022-04-03T08:05:50.000Z</time>
      </trkpt>
      <trkpt lat="49.65037" lon="4.73476">
        <ele>257</ele>
        <time>2022-04-03T08:05:51.000Z</time>
      </trkpt>
      <trkpt lat="49.65036" lon="4.73481">
        <ele>257</ele>
        <time>2022-04-03T08:05:52.000Z</time>
      </trkpt>
      <trkpt lat="49.65034" lon="4.73485">
        <ele>257</ele>
        <time>2022-04-03T08:05:53.000Z</time>
      </trkpt>
      <trkpt lat="49.65032" lon="4.7349">
        <ele>257</ele>
        <time>2022-04-03T08:05:54.000Z</time>
      </trkpt>
      <trkpt lat="49.65031" lon="4.73494">
        <ele>257</ele>
        <time>2022-04-03T08:05:55.000Z</time>
      </trkpt>
      <trkpt lat="49.6503" lon="4.73498">
        <ele>257</ele>
        <time>2022-04-03T08:05:56.000Z</time>
      </trkpt>
      <trkpt lat="49.65028" lon="4.73502">
        <ele>257</ele>
        <time>2022-04-03T08:05:57.000Z</time>
      </trkpt>
      <trkpt lat="49.65027" lon="4.73507">
        <ele>257</ele>
        <time>2022-04-03T08:05:58.000Z</time>
      </trkpt>
      <trkpt lat="49.65027" lon="4.73511">
        <ele>257</ele>
        <time>2022-04-03T08:05:59.000Z</time>
      </trkpt>
      <trkpt lat="49.65026" lon="4.73515">
        <ele>258</ele>
        <time>2022-04-03T08:06:00.000Z</time>
      </trkpt>
      <trkpt lat="49.65025" lon="4.73519">
        <ele>258</ele>
        <time>2022-04-03T08:06:01.000Z</time>
      </trkpt>
      <trkpt lat="49.65025" lon="4.73523">
        <ele>258</ele>
        <time>2022-04-03T08:06:02.000Z</time>
      </trkpt>
      <trkpt lat="49.65024" lon="4.73527">
        <ele>258</ele>
        <time>2022-04-03T08:06:03.000Z</time>
      </trkpt>
      <trkpt lat="49.65024" lon="4.73531">
        <ele>259</ele>
        <time>2022-04-03T08:06:04.000Z</time>
      </trkpt>
      <trkpt lat="49.65023" lon="4.73535">
        <ele>259</ele>
        <time>2022-04-03T08:06:05.000Z</time>
      </trkpt>
      <trkpt lat="49.65023" lon="4.73538">
        <ele>259</ele>
        <time>2022-04-03T08:06:06.000Z</time>
      </trkpt>
      <trkpt lat="49.65023" lon="4.73542">
        <ele>259</ele>
        <time>2022-04-03T08:06:07.000Z</time>
      </trkpt>
      <trkpt lat="49.65024" lon="4.73547">
        <ele>259</ele>
        <time>2022-04-03T08:06:08.000Z</time>
      </trkpt>
      <trkpt lat="49.65025" lon="4.73551">
        <ele>259</ele>
        <time>2022-04-03T08:06:09.000Z</time>
      </trkpt>
      <trkpt lat="49.65026" lon="4.73555">
        <ele>260</ele>
        <time>2022-04-03T08:06:10.000Z</time>
      </trkpt>
      <trkpt lat="49.65026" lon="4.73558">
        <ele>260</ele>
        <time>2022-04-03T08:06:11.000Z</time>
      </trkpt>
      <trkpt lat="49.65027" lon="4.73562">
        <ele>260</ele>
        <time>2022-04-03T08:06:12.000Z</time>
      </trkpt>
      <trkpt lat="49.65027" lon="4.73567">
        <ele>261</ele>
        <time>2022-04-03T08:06:13.000Z</time>
      </trkpt>
      <trkpt lat="49.65027" lon="4.73571">
        <ele>261</ele>
        <time>2022-04-03T08:06:14.000Z</time>
      </trkpt>
      <trkpt lat="49.65028" lon="4.73575">
        <ele>261</ele>
        <time>2022-04-03T08:06:15.000Z</time>
      </trkpt>
      <trkpt lat="49.65029" lon="4.73579">
        <ele>261</ele>
        <time>2022-04-03T08:06:16.000Z</time>
      </trkpt>
      <trkpt lat="49.65029" lon="4.73583">
        <ele>262</ele>
        <time>2022-04-03T08:06:17.000Z</time>
      </trkpt>
      <trkpt lat="49.6503" lon="4.73592">
        <ele>262</ele>
        <time>2022-04-03T08:06:18.000Z</time>
      </trkpt>
      <trkpt lat="49.65031" lon="4.73597">
        <ele>263</ele>
        <time>2022-04-03T08:06:19.000Z</time>
      </trkpt>
      <trkpt lat="49.65031" lon="4.73597">
        <ele>263</ele>
        <time>2022-04-03T08:06:20.000Z</time>
      </trkpt>
      <trkpt lat="49.65031" lon="4.73602">
        <ele>263</ele>
        <time>2022-04-03T08:06:21.000Z</time>
      </trkpt>
      <trkpt lat="49.65034" lon="4.73612">
        <ele>263</ele>
        <time>2022-04-03T08:06:22.000Z</time>
      </trkpt>
      <trkpt lat="49.65035" lon="4.73617">
        <ele>264</ele>
        <time>2022-04-03T08:06:23.000Z</time>
      </trkpt>
      <trkpt lat="49.65035" lon="4.73617">
        <ele>264</ele>
        <time>2022-04-03T08:06:24.000Z</time>
      </trkpt>
      <trkpt lat="49.65036" lon="4.73621">
        <ele>264</ele>
        <time>2022-04-03T08:06:25.000Z</time>
      </trkpt>
      <trkpt lat="49.65037" lon="4.73625">
        <ele>264</ele>
        <time>2022-04-03T08:06:26.000Z</time>
      </trkpt>
      <trkpt lat="49.65039" lon="4.73629">
        <ele>265</ele>
        <time>2022-04-03T08:06:27.000Z</time>
      </trkpt>
      <trkpt lat="49.6504" lon="4.73634">
        <ele>265</ele>
        <time>2022-04-03T08:06:28.000Z</time>
      </trkpt>
      <trkpt lat="49.65042" lon="4.73638">
        <ele>265</ele>
        <time>2022-04-03T08:06:29.000Z</time>
      </trkpt>
      <trkpt lat="49.65043" lon="4.73641">
        <ele>265</ele>
        <time>2022-04-03T08:06:30.000Z</time>
      </trkpt>
      <trkpt lat="49.65045" lon="4.73645">
        <ele>266</ele>
        <time>2022-04-03T08:06:31.000Z</time>
      </trkpt>
      <trkpt lat="49.65047" lon="4.73648">
        <ele>266</ele>
        <time>2022-04-03T08:06:32.000Z</time>
      </trkpt>
      <trkpt lat="49.65049" lon="4.73652">
        <ele>266</ele>
        <time>2022-04-03T08:06:33.000Z</time>
      </trkpt>
      <trkpt lat="49.65051" lon="4.73657">
        <ele>267</ele>
        <time>2022-04-03T08:06:34.000Z</time>
      </trkpt>
      <trkpt lat="49.65052" lon="4.73661">
        <ele>267</ele>
        <time>2022-04-03T08:06:35.000Z</time>
      </trkpt>
      <trkpt lat="49.65054" lon="4.73665">
        <ele>267</ele>
        <time>2022-04-03T08:06:36.000Z</time>
      </trkpt>
      <trkpt lat="49.65055" lon="4.73669">
        <ele>267</ele>
        <time>2022-04-03T08:06:37.000Z</time>
      </trkpt>
      <trkpt lat="49.65057" lon="4.73673">
        <ele>268</ele>
        <time>2022-04-03T08:06:38.000Z</time>
      </trkpt>
      <trkpt lat="49.65058" lon="4.73677">
        <ele>268</ele>
        <time>2022-04-03T08:06:39.000Z</time>
      </trkpt>
      <trkpt lat="49.6506" lon="4.73682">
        <ele>268</ele>
        <time>2022-04-03T08:06:40.000Z</time>
      </trkpt>
      <trkpt lat="49.65061" lon="4.73686">
        <ele>268</ele>
        <time>2022-04-03T08:06:41.000Z</time>
      </trkpt>
      <trkpt lat="49.65063" lon="4.7369">
        <ele>268</ele>
        <time>2022-04-03T08:06:42.000Z</time>
      </trkpt>
      <trkpt lat="49.65065" lon="4.73694">
        <ele>269</ele>
        <time>2022-04-03T08:06:43.000Z</time>
      </trkpt>
      <trkpt lat="49.65067" lon="4.73699">
        <ele>269</ele>
        <time>2022-04-03T08:06:44.000Z</time>
      </trkpt>
      <trkpt lat="49.65068" lon="4.73703">
        <ele>269</ele>
        <time>2022-04-03T08:06:45.000Z</time>
      </trkpt>
      <trkpt lat="49.6507" lon="4.73708">
        <ele>269</ele>
        <time>2022-04-03T08:06:46.000Z</time>
      </trkpt>
      <trkpt lat="49.65072" lon="4.73713">
        <ele>269</ele>
        <time>2022-04-03T08:06:47.000Z</time>
      </trkpt>
      <trkpt lat="49.65074" lon="4.73718">
        <ele>269</ele>
        <time>2022-04-03T08:06:48.000Z</time>
      </trkpt>
      <trkpt lat="49.65075" lon="4.73722">
        <ele>270</ele>
        <time>2022-04-03T08:06:49.000Z</time>
      </trkpt>
      <trkpt lat="49.65076" lon="4.73728">
        <ele>270</ele>
        <time>2022-04-03T08:06:50.000Z</time>
      </trkpt>
      <trkpt lat="49.65077" lon="4.73738">
        <ele>270</ele>
        <time>2022-04-03T08:06:51.000Z</time>
      </trkpt>
      <trkpt lat="49.65078" lon="4.73743">
        <ele>271</ele>
        <time>2022-04-03T08:06:52.000Z</time>
      </trkpt>
      <trkpt lat="49.65078" lon="4.73743">
        <ele>271</ele>
        <time>2022-04-03T08:06:53.000Z</time>
      </trkpt>
      <trkpt lat="49.65079" lon="4.73747">
        <ele>271</ele>
        <time>2022-04-03T08:06:54.000Z</time>
      </trkpt>
      <trkpt lat="49.65079" lon="4.73752">
        <ele>271</ele>
        <time>2022-04-03T08:06:55.000Z</time>
      </trkpt>
      <trkpt lat="49.6508" lon="4.73756">
        <ele>271</ele>
        <time>2022-04-03T08:06:56.000Z</time>
      </trkpt>
      <trkpt lat="49.6508" lon="4.73761">
        <ele>272</ele>
        <time>2022-04-03T08:06:57.000Z</time>
      </trkpt>
      <trkpt lat="49.65081" lon="4.73765">
        <ele>272</ele>
        <time>2022-04-03T08:06:58.000Z</time>
      </trkpt>
      <trkpt lat="49.65082" lon="4.7377">
        <ele>272</ele>
        <time>2022-04-03T08:06:59.000Z</time>
      </trkpt>
      <trkpt lat="49.65082" lon="4.73775">
        <ele>272</ele>
        <time>2022-04-03T08:07:00.000Z</time>
      </trkpt>
      <trkpt lat="49.65083" lon="4.73781">
        <ele>272</ele>
        <time>2022-04-03T08:07:01.000Z</time>
      </trkpt>
      <trkpt lat="49.65084" lon="4.73786">
        <ele>273</ele>
        <time>2022-04-03T08:07:02.000Z</time>
      </trkpt>
      <trkpt lat="49.65084" lon="4.73791">
        <ele>273</ele>
        <time>2022-04-03T08:07:03.000Z</time>
      </trkpt>
      <trkpt lat="49.65085" lon="4.73796">
        <ele>273</ele>
        <time>2022-04-03T08:07:04.000Z</time>
      </trkpt>
      <trkpt lat="49.65085" lon="4.73801">
        <ele>273</ele>
        <time>2022-04-03T08:07:05.000Z</time>
      </trkpt>
      <trkpt lat="49.65085" lon="4.73805">
        <ele>274</ele>
        <time>2022-04-03T08:07:06.000Z</time>
      </trkpt>
      <trkpt lat="49.65085" lon="4.73809">
        <ele>274</ele>
        <time>2022-04-03T08:07:07.000Z</time>
      </trkpt>
      <trkpt lat="49.65085" lon="4.73813">
        <ele>274</ele>
        <time>2022-04-03T08:07:08.000Z</time>
      </trkpt>
      <trkpt lat="49.65085" lon="4.73817">
        <ele>274</ele>
        <time>2022-04-03T08:07:09.000Z</time>
      </trkpt>
      <trkpt lat="49.65085" lon="4.73821">
        <ele>275</ele>
        <time>2022-04-03T08:07:10.000Z</time>
      </trkpt>
      <trkpt lat="49.65086" lon="4.73825">
        <ele>275</ele>
        <time>2022-04-03T08:07:11.000Z</time>
      </trkpt>
      <trkpt lat="49.65085" lon="4.73829">
        <ele>275</ele>
        <time>2022-04-03T08:07:12.000Z</time>
      </trkpt>
      <trkpt lat="49.65085" lon="4.73832">
        <ele>275</ele>
        <time>2022-04-03T08:07:13.000Z</time>
      </trkpt>
      <trkpt lat="49.65084" lon="4.73836">
        <ele>275</ele>
        <time>2022-04-03T08:07:14.000Z</time>
      </trkpt>
      <trkpt lat="49.65083" lon="4.73838">
        <ele>276</ele>
        <time>2022-04-03T08:07:15.000Z</time>
      </trkpt>
      <trkpt lat="49.65083" lon="4.7384">
        <ele>276</ele>
        <time>2022-04-03T08:07:16.000Z</time>
      </trkpt>
      <trkpt lat="49.65082" lon="4.73843">
        <ele>276</ele>
        <time>2022-04-03T08:07:17.000Z</time>
      </trkpt>
      <trkpt lat="49.65081" lon="4.73847">
        <ele>276</ele>
        <time>2022-04-03T08:07:18.000Z</time>
      </trkpt>
      <trkpt lat="49.6508" lon="4.73851">
        <ele>276</ele>
        <time>2022-04-03T08:07:19.000Z</time>
      </trkpt>
      <trkpt lat="49.6508" lon="4.73855">
        <ele>276</ele>
        <time>2022-04-03T08:07:20.000Z</time>
      </trkpt>
      <trkpt lat="49.6508" lon="4.73859">
        <ele>276</ele>
        <time>2022-04-03T08:07:21.000Z</time>
      </trkpt>
      <trkpt lat="49.65079" lon="4.73862">
        <ele>276</ele>
        <time>2022-04-03T08:07:22.000Z</time>
      </trkpt>
      <trkpt lat="49.65079" lon="4.73866">
        <ele>277</ele>
        <time>2022-04-03T08:07:23.000Z</time>
      </trkpt>
      <trkpt lat="49.65079" lon="4.7387">
        <ele>277</ele>
        <time>2022-04-03T08:07:24.000Z</time>
      </trkpt>
      <trkpt lat="49.65078" lon="4.73874">
        <ele>277</ele>
        <time>2022-04-03T08:07:25.000Z</time>
      </trkpt>
      <trkpt lat="49.65078" lon="4.73876">
        <ele>277</ele>
        <time>2022-04-03T08:07:26.000Z</time>
      </trkpt>
      <trkpt lat="49.65078" lon="4.7388">
        <ele>277</ele>
        <time>2022-04-03T08:07:27.000Z</time>
      </trkpt>
      <trkpt lat="49.65078" lon="4.73883">
        <ele>277</ele>
        <time>2022-04-03T08:07:28.000Z</time>
      </trkpt>
      <trkpt lat="49.65078" lon="4.73887">
        <ele>278</ele>
        <time>2022-04-03T08:07:29.000Z</time>
      </trkpt>
      <trkpt lat="49.65078" lon="4.73891">
        <ele>278</ele>
        <time>2022-04-03T08:07:30.000Z</time>
      </trkpt>
      <trkpt lat="49.65078" lon="4.73896">
        <ele>278</ele>
        <time>2022-04-03T08:07:31.000Z</time>
      </trkpt>
      <trkpt lat="49.65078" lon="4.739">
        <ele>278</ele>
        <time>2022-04-03T08:07:32.000Z</time>
      </trkpt>
      <trkpt lat="49.65078" lon="4.73904">
        <ele>278</ele>
        <time>2022-04-03T08:07:33.000Z</time>
      </trkpt>
      <trkpt lat="49.65078" lon="4.73908">
        <ele>279</ele>
        <time>2022-04-03T08:07:34.000Z</time>
      </trkpt>
      <trkpt lat="49.65079" lon="4.73912">
        <ele>279</ele>
        <time>2022-04-03T08:07:35.000Z</time>
      </trkpt>
      <trkpt lat="49.65079" lon="4.73916">
        <ele>279</ele>
        <time>2022-04-03T08:07:36.000Z</time>
      </trkpt>
      <trkpt lat="49.6508" lon="4.7392">
        <ele>279</ele>
        <time>2022-04-03T08:07:37.000Z</time>
      </trkpt>
      <trkpt lat="49.6508" lon="4.73924">
        <ele>280</ele>
        <time>2022-04-03T08:07:38.000Z</time>
      </trkpt>
      <trkpt lat="49.65081" lon="4.73928">
        <ele>280</ele>
        <time>2022-04-03T08:07:39.000Z</time>
      </trkpt>
      <trkpt lat="49.65081" lon="4.73932">
        <ele>280</ele>
        <time>2022-04-03T08:07:40.000Z</time>
      </trkpt>
      <trkpt lat="49.65082" lon="4.73937">
        <ele>280</ele>
        <time>2022-04-03T08:07:41.000Z</time>
      </trkpt>
      <trkpt lat="49.65082" lon="4.73941">
        <ele>280</ele>
        <time>2022-04-03T08:07:42.000Z</time>
      </trkpt>
      <trkpt lat="49.65083" lon="4.73945">
        <ele>281</ele>
        <time>2022-04-03T08:07:43.000Z</time>
      </trkpt>
      <trkpt lat="49.65084" lon="4.7395">
        <ele>281</ele>
        <time>2022-04-03T08:07:44.000Z</time>
      </trkpt>
      <trkpt lat="49.65085" lon="4.73953">
        <ele>281</ele>
        <time>2022-04-03T08:07:45.000Z</time>
      </trkpt>
      <trkpt lat="49.65085" lon="4.73957">
        <ele>281</ele>
        <time>2022-04-03T08:07:46.000Z</time>
      </trkpt>
      <trkpt lat="49.65086" lon="4.73961">
        <ele>281</ele>
        <time>2022-04-03T08:07:47.000Z</time>
      </trkpt>
      <trkpt lat="49.65086" lon="4.73965">
        <ele>282</ele>
        <time>2022-04-03T08:07:48.000Z</time>
      </trkpt>
      <trkpt lat="49.65087" lon="4.73969">
        <ele>282</ele>
        <time>2022-04-03T08:07:49.000Z</time>
      </trkpt>
      <trkpt lat="49.65088" lon="4.73972">
        <ele>282</ele>
        <time>2022-04-03T08:07:50.000Z</time>
      </trkpt>
      <trkpt lat="49.65089" lon="4.73975">
        <ele>282</ele>
        <time>2022-04-03T08:07:51.000Z</time>
      </trkpt>
      <trkpt lat="49.6509" lon="4.73978">
        <ele>283</ele>
        <time>2022-04-03T08:07:52.000Z</time>
      </trkpt>
      <trkpt lat="49.6509" lon="4.73981">
        <ele>283</ele>
        <time>2022-04-03T08:07:53.000Z</time>
      </trkpt>
      <trkpt lat="49.6509" lon="4.73984">
        <ele>283</ele>
        <time>2022-04-03T08:07:54.000Z</time>
      </trkpt>
      <trkpt lat="49.65091" lon="4.73988">
        <ele>283</ele>
        <time>2022-04-03T08:07:55.000Z</time>
      </trkpt>
      <trkpt lat="49.65091" lon="4.73992">
        <ele>284</ele>
        <time>2022-04-03T08:07:56.000Z</time>
      </trkpt>
      <trkpt lat="49.65092" lon="4.73996">
        <ele>284</ele>
        <time>2022-04-03T08:07:57.000Z</time>
      </trkpt>
      <trkpt lat="49.65093" lon="4.73999">
        <ele>284</ele>
        <time>2022-04-03T08:07:58.000Z</time>
      </trkpt>
      <trkpt lat="49.65093" lon="4.74003">
        <ele>284</ele>
        <time>2022-04-03T08:07:59.000Z</time>
      </trkpt>
      <trkpt lat="49.65094" lon="4.74007">
        <ele>284</ele>
        <time>2022-04-03T08:08:00.000Z</time>
      </trkpt>
      <trkpt lat="49.65095" lon="4.74011">
        <ele>285</ele>
        <time>2022-04-03T08:08:01.000Z</time>
      </trkpt>
      <trkpt lat="49.65096" lon="4.74015">
        <ele>285</ele>
        <time>2022-04-03T08:08:02.000Z</time>
      </trkpt>
      <trkpt lat="49.65097" lon="4.74018">
        <ele>285</ele>
        <time>2022-04-03T08:08:03.000Z</time>
      </trkpt>
      <trkpt lat="49.65098" lon="4.74022">
        <ele>285</ele>
        <time>2022-04-03T08:08:04.000Z</time>
      </trkpt>
      <trkpt lat="49.65099" lon="4.74027">
        <ele>286</ele>
        <time>2022-04-03T08:08:05.000Z</time>
      </trkpt>
      <trkpt lat="49.651" lon="4.74032">
        <ele>286</ele>
        <time>2022-04-03T08:08:06.000Z</time>
      </trkpt>
      <trkpt lat="49.65101" lon="4.74036">
        <ele>286</ele>
        <time>2022-04-03T08:08:07.000Z</time>
      </trkpt>
      <trkpt lat="49.65101" lon="4.74041">
        <ele>286</ele>
        <time>2022-04-03T08:08:08.000Z</time>
      </trkpt>
      <trkpt lat="49.65101" lon="4.74044">
        <ele>287</ele>
        <time>2022-04-03T08:08:09.000Z</time>
      </trkpt>
      <trkpt lat="49.65101" lon="4.74048">
        <ele>287</ele>
        <time>2022-04-03T08:08:10.000Z</time>
      </trkpt>
      <trkpt lat="49.65101" lon="4.74053">
        <ele>287</ele>
        <time>2022-04-03T08:08:11.000Z</time>
      </trkpt>
      <trkpt lat="49.65101" lon="4.74058">
        <ele>287</ele>
        <time>2022-04-03T08:08:12.000Z</time>
      </trkpt>
      <trkpt lat="49.65101" lon="4.74063">
        <ele>288</ele>
        <time>2022-04-03T08:08:13.000Z</time>
      </trkpt>
      <trkpt lat="49.65101" lon="4.74069">
        <ele>288</ele>
        <time>2022-04-03T08:08:14.000Z</time>
      </trkpt>
      <trkpt lat="49.651" lon="4.74073">
        <ele>288</ele>
        <time>2022-04-03T08:08:15.000Z</time>
      </trkpt>
      <trkpt lat="49.651" lon="4.74079">
        <ele>288</ele>
        <time>2022-04-03T08:08:16.000Z</time>
      </trkpt>
      <trkpt lat="49.65099" lon="4.74084">
        <ele>288</ele>
        <time>2022-04-03T08:08:17.000Z</time>
      </trkpt>
      <trkpt lat="49.65098" lon="4.7409">
        <ele>288</ele>
        <time>2022-04-03T08:08:18.000Z</time>
      </trkpt>
      <trkpt lat="49.65097" lon="4.74096">
        <ele>288</ele>
        <time>2022-04-03T08:08:19.000Z</time>
      </trkpt>
      <trkpt lat="49.65096" lon="4.74102">
        <ele>288</ele>
        <time>2022-04-03T08:08:20.000Z</time>
      </trkpt>
      <trkpt lat="49.65095" lon="4.74108">
        <ele>288</ele>
        <time>2022-04-03T08:08:21.000Z</time>
      </trkpt>
      <trkpt lat="49.65095" lon="4.74114">
        <ele>288</ele>
        <time>2022-04-03T08:08:22.000Z</time>
      </trkpt>
      <trkpt lat="49.65094" lon="4.74121">
        <ele>288</ele>
        <time>2022-04-03T08:08:23.000Z</time>
      </trkpt>
      <trkpt lat="49.65093" lon="4.74127">
        <ele>288</ele>
        <time>2022-04-03T08:08:24.000Z</time>
      </trkpt>
      <trkpt lat="49.65093" lon="4.74133">
        <ele>289</ele>
        <time>2022-04-03T08:08:25.000Z</time>
      </trkpt>
      <trkpt lat="49.65093" lon="4.74139">
        <ele>289</ele>
        <time>2022-04-03T08:08:26.000Z</time>
      </trkpt>
      <trkpt lat="49.65093" lon="4.74146">
        <ele>289</ele>
        <time>2022-04-03T08:08:27.000Z</time>
      </trkpt>
      <trkpt lat="49.65093" lon="4.74152">
        <ele>289</ele>
        <time>2022-04-03T08:08:28.000Z</time>
      </trkpt>
      <trkpt lat="49.65093" lon="4.74158">
        <ele>289</ele>
        <time>2022-04-03T08:08:29.000Z</time>
      </trkpt>
      <trkpt lat="49.65092" lon="4.74165">
        <ele>289</ele>
        <time>2022-04-03T08:08:30.000Z</time>
      </trkpt>
      <trkpt lat="49.65091" lon="4.74172">
        <ele>289</ele>
        <time>2022-04-03T08:08:31.000Z</time>
      </trkpt>
      <trkpt lat="49.6509" lon="4.74179">
        <ele>289</ele>
        <time>2022-04-03T08:08:32.000Z</time>
      </trkpt>
      <trkpt lat="49.65089" lon="4.74187">
        <ele>289</ele>
        <time>2022-04-03T08:08:33.000Z</time>
      </trkpt>
      <trkpt lat="49.65089" lon="4.74193">
        <ele>289</ele>
        <time>2022-04-03T08:08:34.000Z</time>
      </trkpt>
      <trkpt lat="49.65088" lon="4.74199">
        <ele>289</ele>
        <time>2022-04-03T08:08:35.000Z</time>
      </trkpt>
      <trkpt lat="49.65088" lon="4.74205">
        <ele>290</ele>
        <time>2022-04-03T08:08:36.000Z</time>
      </trkpt>
      <trkpt lat="49.65087" lon="4.74212">
        <ele>290</ele>
        <time>2022-04-03T08:08:37.000Z</time>
      </trkpt>
      <trkpt lat="49.65086" lon="4.74219">
        <ele>289</ele>
        <time>2022-04-03T08:08:38.000Z</time>
      </trkpt>
      <trkpt lat="49.65086" lon="4.74226">
        <ele>289</ele>
        <time>2022-04-03T08:08:39.000Z</time>
      </trkpt>
      <trkpt lat="49.65085" lon="4.74233">
        <ele>289</ele>
        <time>2022-04-03T08:08:40.000Z</time>
      </trkpt>
      <trkpt lat="49.65084" lon="4.7424">
        <ele>289</ele>
        <time>2022-04-03T08:08:41.000Z</time>
      </trkpt>
      <trkpt lat="49.65082" lon="4.74247">
        <ele>289</ele>
        <time>2022-04-03T08:08:42.000Z</time>
      </trkpt>
      <trkpt lat="49.6508" lon="4.74254">
        <ele>289</ele>
        <time>2022-04-03T08:08:43.000Z</time>
      </trkpt>
      <trkpt lat="49.65078" lon="4.7426">
        <ele>289</ele>
        <time>2022-04-03T08:08:44.000Z</time>
      </trkpt>
      <trkpt lat="49.65075" lon="4.74268">
        <ele>289</ele>
        <time>2022-04-03T08:08:45.000Z</time>
      </trkpt>
      <trkpt lat="49.65073" lon="4.74275">
        <ele>289</ele>
        <time>2022-04-03T08:08:46.000Z</time>
      </trkpt>
      <trkpt lat="49.6507" lon="4.74281">
        <ele>289</ele>
        <time>2022-04-03T08:08:47.000Z</time>
      </trkpt>
      <trkpt lat="49.65067" lon="4.74288">
        <ele>289</ele>
        <time>2022-04-03T08:08:48.000Z</time>
      </trkpt>
      <trkpt lat="49.65064" lon="4.74295">
        <ele>289</ele>
        <time>2022-04-03T08:08:49.000Z</time>
      </trkpt>
      <trkpt lat="49.6506" lon="4.74302">
        <ele>290</ele>
        <time>2022-04-03T08:08:50.000Z</time>
      </trkpt>
      <trkpt lat="49.65057" lon="4.74308">
        <ele>290</ele>
        <time>2022-04-03T08:08:51.000Z</time>
      </trkpt>
      <trkpt lat="49.65054" lon="4.74315">
        <ele>290</ele>
        <time>2022-04-03T08:08:52.000Z</time>
      </trkpt>
      <trkpt lat="49.6505" lon="4.74321">
        <ele>290</ele>
        <time>2022-04-03T08:08:53.000Z</time>
      </trkpt>
      <trkpt lat="49.65049" lon="4.74329">
        <ele>290</ele>
        <time>2022-04-03T08:08:54.000Z</time>
      </trkpt>
      <trkpt lat="49.65047" lon="4.74337">
        <ele>290</ele>
        <time>2022-04-03T08:08:55.000Z</time>
      </trkpt>
      <trkpt lat="49.65046" lon="4.74345">
        <ele>290</ele>
        <time>2022-04-03T08:08:56.000Z</time>
      </trkpt>
      <trkpt lat="49.65044" lon="4.74353">
        <ele>290</ele>
        <time>2022-04-03T08:08:57.000Z</time>
      </trkpt>
      <trkpt lat="49.65043" lon="4.74361">
        <ele>290</ele>
        <time>2022-04-03T08:08:58.000Z</time>
      </trkpt>
      <trkpt lat="49.65043" lon="4.74367">
        <ele>290</ele>
        <time>2022-04-03T08:08:59.000Z</time>
      </trkpt>
      <trkpt lat="49.65043" lon="4.74372">
        <ele>290</ele>
        <time>2022-04-03T08:09:00.000Z</time>
      </trkpt>
      <trkpt lat="49.65043" lon="4.74377">
        <ele>290</ele>
        <time>2022-04-03T08:09:01.000Z</time>
      </trkpt>
      <trkpt lat="49.65044" lon="4.74381">
        <ele>289</ele>
        <time>2022-04-03T08:09:02.000Z</time>
      </trkpt>
      <trkpt lat="49.65046" lon="4.74384">
        <ele>289</ele>
        <time>2022-04-03T08:09:03.000Z</time>
      </trkpt>
      <trkpt lat="49.65048" lon="4.74388">
        <ele>289</ele>
        <time>2022-04-03T08:09:04.000Z</time>
      </trkpt>
      <trkpt lat="49.65051" lon="4.7439">
        <ele>289</ele>
        <time>2022-04-03T08:09:05.000Z</time>
      </trkpt>
      <trkpt lat="49.65054" lon="4.74392">
        <ele>289</ele>
        <time>2022-04-03T08:09:06.000Z</time>
      </trkpt>
      <trkpt lat="49.65057" lon="4.74394">
        <ele>289</ele>
        <time>2022-04-03T08:09:07.000Z</time>
      </trkpt>
      <trkpt lat="49.65061" lon="4.74397">
        <ele>289</ele>
        <time>2022-04-03T08:09:08.000Z</time>
      </trkpt>
      <trkpt lat="49.65066" lon="4.744">
        <ele>288</ele>
        <time>2022-04-03T08:09:09.000Z</time>
      </trkpt>
      <trkpt lat="49.6507" lon="4.74403">
        <ele>288</ele>
        <time>2022-04-03T08:09:10.000Z</time>
      </trkpt>
      <trkpt lat="49.65075" lon="4.74407">
        <ele>288</ele>
        <time>2022-04-03T08:09:11.000Z</time>
      </trkpt>
      <trkpt lat="49.65081" lon="4.74411">
        <ele>288</ele>
        <time>2022-04-03T08:09:12.000Z</time>
      </trkpt>
      <trkpt lat="49.65085" lon="4.74415">
        <ele>288</ele>
        <time>2022-04-03T08:09:13.000Z</time>
      </trkpt>
      <trkpt lat="49.6509" lon="4.7442">
        <ele>288</ele>
        <time>2022-04-03T08:09:14.000Z</time>
      </trkpt>
      <trkpt lat="49.65095" lon="4.74425">
        <ele>287</ele>
        <time>2022-04-03T08:09:15.000Z</time>
      </trkpt>
      <trkpt lat="49.651" lon="4.74431">
        <ele>287</ele>
        <time>2022-04-03T08:09:16.000Z</time>
      </trkpt>
      <trkpt lat="49.65105" lon="4.74435">
        <ele>287</ele>
        <time>2022-04-03T08:09:17.000Z</time>
      </trkpt>
      <trkpt lat="49.65108" lon="4.74439">
        <ele>286</ele>
        <time>2022-04-03T08:09:18.000Z</time>
      </trkpt>
      <trkpt lat="49.65111" lon="4.74442">
        <ele>286</ele>
        <time>2022-04-03T08:09:19.000Z</time>
      </trkpt>
      <trkpt lat="49.65113" lon="4.74446">
        <ele>286</ele>
        <time>2022-04-03T08:09:20.000Z</time>
      </trkpt>
      <trkpt lat="49.65115" lon="4.7445">
        <ele>286</ele>
        <time>2022-04-03T08:09:21.000Z</time>
      </trkpt>
      <trkpt lat="49.65118" lon="4.74454">
        <ele>285</ele>
        <time>2022-04-03T08:09:22.000Z</time>
      </trkpt>
      <trkpt lat="49.6512" lon="4.74457">
        <ele>285</ele>
        <time>2022-04-03T08:09:23.000Z</time>
      </trkpt>
      <trkpt lat="49.65122" lon="4.74461">
        <ele>285</ele>
        <time>2022-04-03T08:09:24.000Z</time>
      </trkpt>
      <trkpt lat="49.65124" lon="4.74463">
        <ele>285</ele>
        <time>2022-04-03T08:09:25.000Z</time>
      </trkpt>
      <trkpt lat="49.65126" lon="4.74464">
        <ele>284</ele>
        <time>2022-04-03T08:09:26.000Z</time>
      </trkpt>
      <trkpt lat="49.65127" lon="4.74464">
        <ele>284</ele>
        <time>2022-04-03T08:09:27.000Z</time>
      </trkpt>
      <trkpt lat="49.65128" lon="4.74464">
        <ele>284</ele>
        <time>2022-04-03T08:09:28.000Z</time>
      </trkpt>
      <trkpt lat="49.65128" lon="4.74464">
        <ele>284</ele>
        <time>2022-04-03T08:09:29.000Z</time>
      </trkpt>
      <trkpt lat="49.65129" lon="4.74464">
        <ele>284</ele>
        <time>2022-04-03T08:09:30.000Z</time>
      </trkpt>
      <trkpt lat="49.65129" lon="4.74465">
        <ele>285</ele>
        <time>2022-04-03T08:09:31.000Z</time>
      </trkpt>
      <trkpt lat="49.65129" lon="4.74465">
        <ele>284</ele>
        <time>2022-04-03T08:09:32.000Z</time>
      </trkpt>
      <trkpt lat="49.65129" lon="4.74464">
        <ele>284</ele>
        <time>2022-04-03T08:09:33.000Z</time>
      </trkpt>
      <trkpt lat="49.65129" lon="4.74463">
        <ele>285</ele>
        <time>2022-04-03T08:09:34.000Z</time>
      </trkpt>
      <trkpt lat="49.65129" lon="4.74463">
        <ele>285</ele>
        <time>2022-04-03T08:09:35.000Z</time>
      </trkpt>
      <trkpt lat="49.65129" lon="4.74461">
        <ele>285</ele>
        <time>2022-04-03T08:09:36.000Z</time>
      </trkpt>
      <trkpt lat="49.6513" lon="4.74461">
        <ele>285</ele>
        <time>2022-04-03T08:09:37.000Z</time>
      </trkpt>
      <trkpt lat="49.65131" lon="4.7446">
        <ele>285</ele>
        <time>2022-04-03T08:09:38.000Z</time>
      </trkpt>
      <trkpt lat="49.6513" lon="4.7446">
        <ele>285</ele>
        <time>2022-04-03T08:09:39.000Z</time>
      </trkpt>
      <trkpt lat="49.65131" lon="4.7446">
        <ele>285</ele>
        <time>2022-04-03T08:09:40.000Z</time>
      </trkpt>
      <trkpt lat="49.65131" lon="4.74459">
        <ele>285</ele>
        <time>2022-04-03T08:09:41.000Z</time>
      </trkpt>
      <trkpt lat="49.65131" lon="4.74458">
        <ele>285</ele>
        <time>2022-04-03T08:09:42.000Z</time>
      </trkpt>
      <trkpt lat="49.65131" lon="4.74457">
        <ele>285</ele>
        <time>2022-04-03T08:09:43.000Z</time>
      </trkpt>
      <trkpt lat="49.65132" lon="4.74456">
        <ele>285</ele>
        <time>2022-04-03T08:09:44.000Z</time>
      </trkpt>
      <trkpt lat="49.65133" lon="4.74455">
        <ele>285</ele>
        <time>2022-04-03T08:09:45.000Z</time>
      </trkpt>
      <trkpt lat="49.65134" lon="4.74454">
        <ele>286</ele>
        <time>2022-04-03T08:09:46.000Z</time>
      </trkpt>
      <trkpt lat="49.65135" lon="4.74456">
        <ele>285</ele>
        <time>2022-04-03T08:09:47.000Z</time>
      </trkpt>
      <trkpt lat="49.65136" lon="4.74458">
        <ele>285</ele>
        <time>2022-04-03T08:09:48.000Z</time>
      </trkpt>
      <trkpt lat="49.65136" lon="4.74461">
        <ele>285</ele>
        <time>2022-04-03T08:09:49.000Z</time>
      </trkpt>
      <trkpt lat="49.65137" lon="4.74465">
        <ele>285</ele>
        <time>2022-04-03T08:09:50.000Z</time>
      </trkpt>
      <trkpt lat="49.65138" lon="4.74469">
        <ele>285</ele>
        <time>2022-04-03T08:09:51.000Z</time>
      </trkpt>
      <trkpt lat="49.65139" lon="4.74472">
        <ele>285</ele>
        <time>2022-04-03T08:09:52.000Z</time>
      </trkpt>
      <trkpt lat="49.6514" lon="4.74474">
        <ele>285</ele>
        <time>2022-04-03T08:09:53.000Z</time>
      </trkpt>
      <trkpt lat="49.65142" lon="4.74475">
        <ele>285</ele>
        <time>2022-04-03T08:09:54.000Z</time>
      </trkpt>
      <trkpt lat="49.65144" lon="4.74475">
        <ele>285</ele>
        <time>2022-04-03T08:09:55.000Z</time>
      </trkpt>
      <trkpt lat="49.65147" lon="4.74474">
        <ele>285</ele>
        <time>2022-04-03T08:09:56.000Z</time>
      </trkpt>
      <trkpt lat="49.65149" lon="4.74474">
        <ele>285</ele>
        <time>2022-04-03T08:09:57.000Z</time>
      </trkpt>
      <trkpt lat="49.65152" lon="4.74476">
        <ele>285</ele>
        <time>2022-04-03T08:09:58.000Z</time>
      </trkpt>
      <trkpt lat="49.65155" lon="4.74478">
        <ele>285</ele>
        <time>2022-04-03T08:09:59.000Z</time>
      </trkpt>
      <trkpt lat="49.65157" lon="4.74481">
        <ele>285</ele>
        <time>2022-04-03T08:10:00.000Z</time>
      </trkpt>
      <trkpt lat="49.6516" lon="4.74485">
        <ele>285</ele>
        <time>2022-04-03T08:10:01.000Z</time>
      </trkpt>
      <trkpt lat="49.65162" lon="4.7449">
        <ele>285</ele>
        <time>2022-04-03T08:10:02.000Z</time>
      </trkpt>
      <trkpt lat="49.65165" lon="4.74495">
        <ele>284</ele>
        <time>2022-04-03T08:10:03.000Z</time>
      </trkpt>
      <trkpt lat="49.65168" lon="4.745">
        <ele>284</ele>
        <time>2022-04-03T08:10:04.000Z</time>
      </trkpt>
      <trkpt lat="49.6517" lon="4.74504">
        <ele>284</ele>
        <time>2022-04-03T08:10:05.000Z</time>
      </trkpt>
      <trkpt lat="49.65171" lon="4.74506">
        <ele>284</ele>
        <time>2022-04-03T08:10:06.000Z</time>
      </trkpt>
      <trkpt lat="49.65173" lon="4.74506">
        <ele>283</ele>
        <time>2022-04-03T08:10:07.000Z</time>
      </trkpt>
      <trkpt lat="49.65174" lon="4.74507">
        <ele>283</ele>
        <time>2022-04-03T08:10:08.000Z</time>
      </trkpt>
      <trkpt lat="49.65174" lon="4.74507">
        <ele>283</ele>
        <time>2022-04-03T08:10:09.000Z</time>
      </trkpt>
      <trkpt lat="49.65175" lon="4.74507">
        <ele>283</ele>
        <time>2022-04-03T08:10:10.000Z</time>
      </trkpt>
      <trkpt lat="49.65175" lon="4.74506">
        <ele>283</ele>
        <time>2022-04-03T08:10:11.000Z</time>
      </trkpt>
      <trkpt lat="49.65176" lon="4.74506">
        <ele>283</ele>
        <time>2022-04-03T08:10:12.000Z</time>
      </trkpt>
      <trkpt lat="49.65176" lon="4.74505">
        <ele>283</ele>
        <time>2022-04-03T08:10:13.000Z</time>
      </trkpt>
      <trkpt lat="49.65177" lon="4.74505">
        <ele>283</ele>
        <time>2022-04-03T08:10:14.000Z</time>
      </trkpt>
      <trkpt lat="49.65178" lon="4.74505">
        <ele>283</ele>
        <time>2022-04-03T08:10:15.000Z</time>
      </trkpt>
      <trkpt lat="49.65179" lon="4.74505">
        <ele>283</ele>
        <time>2022-04-03T08:10:16.000Z</time>
      </trkpt>
      <trkpt lat="49.6518" lon="4.74506">
        <ele>282</ele>
        <time>2022-04-03T08:10:17.000Z</time>
      </trkpt>
      <trkpt lat="49.65181" lon="4.74507">
        <ele>282</ele>
        <time>2022-04-03T08:10:18.000Z</time>
      </trkpt>
      <trkpt lat="49.65182" lon="4.74511">
        <ele>282</ele>
        <time>2022-04-03T08:10:19.000Z</time>
      </trkpt>
      <trkpt lat="49.65185" lon="4.74515">
        <ele>282</ele>
        <time>2022-04-03T08:10:20.000Z</time>
      </trkpt>
      <trkpt lat="49.65187" lon="4.74517">
        <ele>281</ele>
        <time>2022-04-03T08:10:21.000Z</time>
      </trkpt>
      <trkpt lat="49.65188" lon="4.74519">
        <ele>281</ele>
        <time>2022-04-03T08:10:22.000Z</time>
      </trkpt>
      <trkpt lat="49.65188" lon="4.7452">
        <ele>281</ele>
        <time>2022-04-03T08:10:23.000Z</time>
      </trkpt>
      <trkpt lat="49.65188" lon="4.74522">
        <ele>280</ele>
        <time>2022-04-03T08:10:24.000Z</time>
      </trkpt>
      <trkpt lat="49.65189" lon="4.74524">
        <ele>280</ele>
        <time>2022-04-03T08:10:25.000Z</time>
      </trkpt>
      <trkpt lat="49.6519" lon="4.74525">
        <ele>280</ele>
        <time>2022-04-03T08:10:26.000Z</time>
      </trkpt>
      <trkpt lat="49.65191" lon="4.74525">
        <ele>280</ele>
        <time>2022-04-03T08:10:27.000Z</time>
      </trkpt>
      <trkpt lat="49.65192" lon="4.74524">
        <ele>280</ele>
        <time>2022-04-03T08:10:28.000Z</time>
      </trkpt>
      <trkpt lat="49.65193" lon="4.74523">
        <ele>280</ele>
        <time>2022-04-03T08:10:29.000Z</time>
      </trkpt>
      <trkpt lat="49.65194" lon="4.74522">
        <ele>279</ele>
        <time>2022-04-03T08:10:30.000Z</time>
      </trkpt>
      <trkpt lat="49.65195" lon="4.74522">
        <ele>279</ele>
        <time>2022-04-03T08:10:31.000Z</time>
      </trkpt>
      <trkpt lat="49.65195" lon="4.74522">
        <ele>279</ele>
        <time>2022-04-03T08:10:32.000Z</time>
      </trkpt>
      <trkpt lat="49.65196" lon="4.74521">
        <ele>279</ele>
        <time>2022-04-03T08:10:33.000Z</time>
      </trkpt>
      <trkpt lat="49.65197" lon="4.7452">
        <ele>279</ele>
        <time>2022-04-03T08:10:34.000Z</time>
      </trkpt>
      <trkpt lat="49.65199" lon="4.74518">
        <ele>279</ele>
        <time>2022-04-03T08:10:35.000Z</time>
      </trkpt>
      <trkpt lat="49.65201" lon="4.74515">
        <ele>278</ele>
        <time>2022-04-03T08:10:36.000Z</time>
      </trkpt>
      <trkpt lat="49.65202" lon="4.74512">
        <ele>278</ele>
        <time>2022-04-03T08:10:37.000Z</time>
      </trkpt>
      <trkpt lat="49.65204" lon="4.74511">
        <ele>278</ele>
        <time>2022-04-03T08:10:38.000Z</time>
      </trkpt>
      <trkpt lat="49.65206" lon="4.7451">
        <ele>277</ele>
        <time>2022-04-03T08:10:39.000Z</time>
      </trkpt>
      <trkpt lat="49.65208" lon="4.74509">
        <ele>277</ele>
        <time>2022-04-03T08:10:40.000Z</time>
      </trkpt>
      <trkpt lat="49.6521" lon="4.74508">
        <ele>277</ele>
        <time>2022-04-03T08:10:41.000Z</time>
      </trkpt>
      <trkpt lat="49.65212" lon="4.74506">
        <ele>277</ele>
        <time>2022-04-03T08:10:42.000Z</time>
      </trkpt>
      <trkpt lat="49.65214" lon="4.74503">
        <ele>277</ele>
        <time>2022-04-03T08:10:43.000Z</time>
      </trkpt>
      <trkpt lat="49.65215" lon="4.74501">
        <ele>277</ele>
        <time>2022-04-03T08:10:44.000Z</time>
      </trkpt>
      <trkpt lat="49.65217" lon="4.745">
        <ele>277</ele>
        <time>2022-04-03T08:10:45.000Z</time>
      </trkpt>
      <trkpt lat="49.65219" lon="4.74499">
        <ele>277</ele>
        <time>2022-04-03T08:10:46.000Z</time>
      </trkpt>
      <trkpt lat="49.6522" lon="4.74496">
        <ele>277</ele>
        <time>2022-04-03T08:10:47.000Z</time>
      </trkpt>
      <trkpt lat="49.65221" lon="4.74494">
        <ele>277</ele>
        <time>2022-04-03T08:10:48.000Z</time>
      </trkpt>
      <trkpt lat="49.65223" lon="4.74492">
        <ele>277</ele>
        <time>2022-04-03T08:10:49.000Z</time>
      </trkpt>
      <trkpt lat="49.65224" lon="4.74489">
        <ele>277</ele>
        <time>2022-04-03T08:10:50.000Z</time>
      </trkpt>
      <trkpt lat="49.65225" lon="4.74486">
        <ele>277</ele>
        <time>2022-04-03T08:10:51.000Z</time>
      </trkpt>
      <trkpt lat="49.65226" lon="4.74484">
        <ele>277</ele>
        <time>2022-04-03T08:10:52.000Z</time>
      </trkpt>
      <trkpt lat="49.65229" lon="4.74483">
        <ele>277</ele>
        <time>2022-04-03T08:10:53.000Z</time>
      </trkpt>
      <trkpt lat="49.65232" lon="4.74481">
        <ele>277</ele>
        <time>2022-04-03T08:10:54.000Z</time>
      </trkpt>
      <trkpt lat="49.65236" lon="4.74479">
        <ele>277</ele>
        <time>2022-04-03T08:10:55.000Z</time>
      </trkpt>
      <trkpt lat="49.6524" lon="4.74476">
        <ele>278</ele>
        <time>2022-04-03T08:10:56.000Z</time>
      </trkpt>
      <trkpt lat="49.65242" lon="4.74473">
        <ele>278</ele>
        <time>2022-04-03T08:10:57.000Z</time>
      </trkpt>
      <trkpt lat="49.65245" lon="4.7447">
        <ele>278</ele>
        <time>2022-04-03T08:10:58.000Z</time>
      </trkpt>
      <trkpt lat="49.65248" lon="4.74469">
        <ele>278</ele>
        <time>2022-04-03T08:10:59.000Z</time>
      </trkpt>
      <trkpt lat="49.65252" lon="4.7447">
        <ele>278</ele>
        <time>2022-04-03T08:11:00.000Z</time>
      </trkpt>
      <trkpt lat="49.65255" lon="4.74471">
        <ele>278</ele>
        <time>2022-04-03T08:11:01.000Z</time>
      </trkpt>
      <trkpt lat="49.65259" lon="4.74471">
        <ele>278</ele>
        <time>2022-04-03T08:11:02.000Z</time>
      </trkpt>
      <trkpt lat="49.65263" lon="4.7447">
        <ele>278</ele>
        <time>2022-04-03T08:11:03.000Z</time>
      </trkpt>
      <trkpt lat="49.65267" lon="4.7447">
        <ele>277</ele>
        <time>2022-04-03T08:11:04.000Z</time>
      </trkpt>
      <trkpt lat="49.6527" lon="4.74469">
        <ele>277</ele>
        <time>2022-04-03T08:11:05.000Z</time>
      </trkpt>
      <trkpt lat="49.65273" lon="4.74468">
        <ele>277</ele>
        <time>2022-04-03T08:11:06.000Z</time>
      </trkpt>
      <trkpt lat="49.65277" lon="4.74467">
        <ele>277</ele>
        <time>2022-04-03T08:11:07.000Z</time>
      </trkpt>
      <trkpt lat="49.65281" lon="4.74467">
        <ele>277</ele>
        <time>2022-04-03T08:11:08.000Z</time>
      </trkpt>
      <trkpt lat="49.65284" lon="4.7447">
        <ele>277</ele>
        <time>2022-04-03T08:11:09.000Z</time>
      </trkpt>
      <trkpt lat="49.65287" lon="4.74474">
        <ele>277</ele>
        <time>2022-04-03T08:11:10.000Z</time>
      </trkpt>
      <trkpt lat="49.65289" lon="4.74477">
        <ele>277</ele>
        <time>2022-04-03T08:11:11.000Z</time>
      </trkpt>
      <trkpt lat="49.65291" lon="4.7448">
        <ele>277</ele>
        <time>2022-04-03T08:11:12.000Z</time>
      </trkpt>
      <trkpt lat="49.65294" lon="4.74485">
        <ele>277</ele>
        <time>2022-04-03T08:11:13.000Z</time>
      </trkpt>
      <trkpt lat="49.65297" lon="4.7449">
        <ele>277</ele>
        <time>2022-04-03T08:11:14.000Z</time>
      </trkpt>
      <trkpt lat="49.653" lon="4.74493">
        <ele>277</ele>
        <time>2022-04-03T08:11:15.000Z</time>
      </trkpt>
      <trkpt lat="49.65304" lon="4.74497">
        <ele>277</ele>
        <time>2022-04-03T08:11:16.000Z</time>
      </trkpt>
      <trkpt lat="49.65307" lon="4.745">
        <ele>277</ele>
        <time>2022-04-03T08:11:17.000Z</time>
      </trkpt>
      <trkpt lat="49.6531" lon="4.74503">
        <ele>277</ele>
        <time>2022-04-03T08:11:18.000Z</time>
      </trkpt>
      <trkpt lat="49.65314" lon="4.74506">
        <ele>277</ele>
        <time>2022-04-03T08:11:19.000Z</time>
      </trkpt>
      <trkpt lat="49.65317" lon="4.74509">
        <ele>278</ele>
        <time>2022-04-03T08:11:20.000Z</time>
      </trkpt>
      <trkpt lat="49.65321" lon="4.74513">
        <ele>277</ele>
        <time>2022-04-03T08:11:21.000Z</time>
      </trkpt>
      <trkpt lat="49.65324" lon="4.74517">
        <ele>277</ele>
        <time>2022-04-03T08:11:22.000Z</time>
      </trkpt>
      <trkpt lat="49.65328" lon="4.74521">
        <ele>277</ele>
        <time>2022-04-03T08:11:23.000Z</time>
      </trkpt>
      <trkpt lat="49.65331" lon="4.74525">
        <ele>277</ele>
        <time>2022-04-03T08:11:24.000Z</time>
      </trkpt>
      <trkpt lat="49.65334" lon="4.74529">
        <ele>277</ele>
        <time>2022-04-03T08:11:25.000Z</time>
      </trkpt>
      <trkpt lat="49.65337" lon="4.74533">
        <ele>277</ele>
        <time>2022-04-03T08:11:26.000Z</time>
      </trkpt>
      <trkpt lat="49.65339" lon="4.74535">
        <ele>277</ele>
        <time>2022-04-03T08:11:27.000Z</time>
      </trkpt>
      <trkpt lat="49.6534" lon="4.74538">
        <ele>277</ele>
        <time>2022-04-03T08:11:28.000Z</time>
      </trkpt>
      <trkpt lat="49.65339" lon="4.74543">
        <ele>277</ele>
        <time>2022-04-03T08:11:29.000Z</time>
      </trkpt>
      <trkpt lat="49.65339" lon="4.74548">
        <ele>277</ele>
        <time>2022-04-03T08:11:30.000Z</time>
      </trkpt>
      <trkpt lat="49.65339" lon="4.74551">
        <ele>277</ele>
        <time>2022-04-03T08:11:31.000Z</time>
      </trkpt>
      <trkpt lat="49.65339" lon="4.74553">
        <ele>276</ele>
        <time>2022-04-03T08:11:32.000Z</time>
      </trkpt>
      <trkpt lat="49.65339" lon="4.74555">
        <ele>276</ele>
        <time>2022-04-03T08:11:33.000Z</time>
      </trkpt>
      <trkpt lat="49.6534" lon="4.74558">
        <ele>276</ele>
        <time>2022-04-03T08:11:34.000Z</time>
      </trkpt>
      <trkpt lat="49.65341" lon="4.74561">
        <ele>276</ele>
        <time>2022-04-03T08:11:35.000Z</time>
      </trkpt>
      <trkpt lat="49.65341" lon="4.74566">
        <ele>276</ele>
        <time>2022-04-03T08:11:36.000Z</time>
      </trkpt>
      <trkpt lat="49.65341" lon="4.74572">
        <ele>276</ele>
        <time>2022-04-03T08:11:37.000Z</time>
      </trkpt>
      <trkpt lat="49.65341" lon="4.74577">
        <ele>276</ele>
        <time>2022-04-03T08:11:38.000Z</time>
      </trkpt>
      <trkpt lat="49.6534" lon="4.74582">
        <ele>276</ele>
        <time>2022-04-03T08:11:39.000Z</time>
      </trkpt>
      <trkpt lat="49.65339" lon="4.74586">
        <ele>276</ele>
        <time>2022-04-03T08:11:40.000Z</time>
      </trkpt>
      <trkpt lat="49.65339" lon="4.74589">
        <ele>275</ele>
        <time>2022-04-03T08:11:41.000Z</time>
      </trkpt>
      <trkpt lat="49.6534" lon="4.7459">
        <ele>275</ele>
        <time>2022-04-03T08:11:42.000Z</time>
      </trkpt>
      <trkpt lat="49.6534" lon="4.74591">
        <ele>275</ele>
        <time>2022-04-03T08:11:43.000Z</time>
      </trkpt>
      <trkpt lat="49.6534" lon="4.74592">
        <ele>275</ele>
        <time>2022-04-03T08:11:44.000Z</time>
      </trkpt>
      <trkpt lat="49.65339" lon="4.74594">
        <ele>274</ele>
        <time>2022-04-03T08:11:45.000Z</time>
      </trkpt>
      <trkpt lat="49.65339" lon="4.74597">
        <ele>274</ele>
        <time>2022-04-03T08:11:46.000Z</time>
      </trkpt>
      <trkpt lat="49.65338" lon="4.74601">
        <ele>274</ele>
        <time>2022-04-03T08:11:47.000Z</time>
      </trkpt>
      <trkpt lat="49.65338" lon="4.74604">
        <ele>274</ele>
        <time>2022-04-03T08:11:48.000Z</time>
      </trkpt>
      <trkpt lat="49.65339" lon="4.74605">
        <ele>273</ele>
        <time>2022-04-03T08:11:49.000Z</time>
      </trkpt>
      <trkpt lat="49.6534" lon="4.74606">
        <ele>273</ele>
        <time>2022-04-03T08:11:50.000Z</time>
      </trkpt>
      <trkpt lat="49.65341" lon="4.74607">
        <ele>273</ele>
        <time>2022-04-03T08:11:51.000Z</time>
      </trkpt>
      <trkpt lat="49.65342" lon="4.74607">
        <ele>273</ele>
        <time>2022-04-03T08:11:52.000Z</time>
      </trkpt>
      <trkpt lat="49.65343" lon="4.74607">
        <ele>273</ele>
        <time>2022-04-03T08:11:53.000Z</time>
      </trkpt>
      <trkpt lat="49.65344" lon="4.74607">
        <ele>273</ele>
        <time>2022-04-03T08:11:54.000Z</time>
      </trkpt>
      <trkpt lat="49.65346" lon="4.74609">
        <ele>272</ele>
        <time>2022-04-03T08:11:55.000Z</time>
      </trkpt>
      <trkpt lat="49.65349" lon="4.7461">
        <ele>272</ele>
        <time>2022-04-03T08:11:56.000Z</time>
      </trkpt>
      <trkpt lat="49.65351" lon="4.74612">
        <ele>272</ele>
        <time>2022-04-03T08:11:57.000Z</time>
      </trkpt>
      <trkpt lat="49.65352" lon="4.74613">
        <ele>272</ele>
        <time>2022-04-03T08:11:58.000Z</time>
      </trkpt>
      <trkpt lat="49.65352" lon="4.74614">
        <ele>271</ele>
        <time>2022-04-03T08:11:59.000Z</time>
      </trkpt>
      <trkpt lat="49.65353" lon="4.74615">
        <ele>271</ele>
        <time>2022-04-03T08:12:00.000Z</time>
      </trkpt>
      <trkpt lat="49.65353" lon="4.74616">
        <ele>271</ele>
        <time>2022-04-03T08:12:01.000Z</time>
      </trkpt>
      <trkpt lat="49.65352" lon="4.74617">
        <ele>271</ele>
        <time>2022-04-03T08:12:02.000Z</time>
      </trkpt>
      <trkpt lat="49.65352" lon="4.74618">
        <ele>271</ele>
        <time>2022-04-03T08:12:03.000Z</time>
      </trkpt>
      <trkpt lat="49.65352" lon="4.7462">
        <ele>270</ele>
        <time>2022-04-03T08:12:04.000Z</time>
      </trkpt>
      <trkpt lat="49.65352" lon="4.74622">
        <ele>270</ele>
        <time>2022-04-03T08:12:05.000Z</time>
      </trkpt>
      <trkpt lat="49.65351" lon="4.74624">
        <ele>270</ele>
        <time>2022-04-03T08:12:06.000Z</time>
      </trkpt>
      <trkpt lat="49.6535" lon="4.74626">
        <ele>269</ele>
        <time>2022-04-03T08:12:07.000Z</time>
      </trkpt>
      <trkpt lat="49.65348" lon="4.74629">
        <ele>269</ele>
        <time>2022-04-03T08:12:08.000Z</time>
      </trkpt>
      <trkpt lat="49.65346" lon="4.74632">
        <ele>269</ele>
        <time>2022-04-03T08:12:09.000Z</time>
      </trkpt>
      <trkpt lat="49.65343" lon="4.74635">
        <ele>269</ele>
        <time>2022-04-03T08:12:10.000Z</time>
      </trkpt>
      <trkpt lat="49.65341" lon="4.74637">
        <ele>268</ele>
        <time>2022-04-03T08:12:11.000Z</time>
      </trkpt>
      <trkpt lat="49.6534" lon="4.7464">
        <ele>268</ele>
        <time>2022-04-03T08:12:12.000Z</time>
      </trkpt>
      <trkpt lat="49.65339" lon="4.74643">
        <ele>268</ele>
        <time>2022-04-03T08:12:13.000Z</time>
      </trkpt>
      <trkpt lat="49.65339" lon="4.74646">
        <ele>268</ele>
        <time>2022-04-03T08:12:14.000Z</time>
      </trkpt>
      <trkpt lat="49.6534" lon="4.74651">
        <ele>268</ele>
        <time>2022-04-03T08:12:15.000Z</time>
      </trkpt>
      <trkpt lat="49.65342" lon="4.74656">
        <ele>267</ele>
        <time>2022-04-03T08:12:16.000Z</time>
      </trkpt>
      <trkpt lat="49.65343" lon="4.7466">
        <ele>267</ele>
        <time>2022-04-03T08:12:17.000Z</time>
      </trkpt>
      <trkpt lat="49.65346" lon="4.74665">
        <ele>267</ele>
        <time>2022-04-03T08:12:18.000Z</time>
      </trkpt>
      <trkpt lat="49.65348" lon="4.74667">
        <ele>266</ele>
        <time>2022-04-03T08:12:19.000Z</time>
      </trkpt>
      <trkpt lat="49.6535" lon="4.74668">
        <ele>266</ele>
        <time>2022-04-03T08:12:20.000Z</time>
      </trkpt>
      <trkpt lat="49.65352" lon="4.74669">
        <ele>266</ele>
        <time>2022-04-03T08:12:21.000Z</time>
      </trkpt>
      <trkpt lat="49.65355" lon="4.74671">
        <ele>265</ele>
        <time>2022-04-03T08:12:22.000Z</time>
      </trkpt>
      <trkpt lat="49.65357" lon="4.74673">
        <ele>265</ele>
        <time>2022-04-03T08:12:23.000Z</time>
      </trkpt>
      <trkpt lat="49.65359" lon="4.74675">
        <ele>265</ele>
        <time>2022-04-03T08:12:24.000Z</time>
      </trkpt>
      <trkpt lat="49.6536" lon="4.74677">
        <ele>265</ele>
        <time>2022-04-03T08:12:25.000Z</time>
      </trkpt>
      <trkpt lat="49.65362" lon="4.74678">
        <ele>265</ele>
        <time>2022-04-03T08:12:26.000Z</time>
      </trkpt>
      <trkpt lat="49.65363" lon="4.74678">
        <ele>265</ele>
        <time>2022-04-03T08:12:27.000Z</time>
      </trkpt>
      <trkpt lat="49.65365" lon="4.74678">
        <ele>265</ele>
        <time>2022-04-03T08:12:28.000Z</time>
      </trkpt>
      <trkpt lat="49.65366" lon="4.74677">
        <ele>265</ele>
        <time>2022-04-03T08:12:29.000Z</time>
      </trkpt>
      <trkpt lat="49.65366" lon="4.74677">
        <ele>264</ele>
        <time>2022-04-03T08:12:30.000Z</time>
      </trkpt>
      <trkpt lat="49.65367" lon="4.74676">
        <ele>264</ele>
        <time>2022-04-03T08:12:31.000Z</time>
      </trkpt>
      <trkpt lat="49.65369" lon="4.74674">
        <ele>264</ele>
        <time>2022-04-03T08:12:32.000Z</time>
      </trkpt>
      <trkpt lat="49.65372" lon="4.7467">
        <ele>264</ele>
        <time>2022-04-03T08:12:33.000Z</time>
      </trkpt>
      <trkpt lat="49.65374" lon="4.74669">
        <ele>264</ele>
        <time>2022-04-03T08:12:34.000Z</time>
      </trkpt>
      <trkpt lat="49.65377" lon="4.74669">
        <ele>264</ele>
        <time>2022-04-03T08:12:35.000Z</time>
      </trkpt>
      <trkpt lat="49.65381" lon="4.74669">
        <ele>264</ele>
        <time>2022-04-03T08:12:36.000Z</time>
      </trkpt>
      <trkpt lat="49.65385" lon="4.74671">
        <ele>264</ele>
        <time>2022-04-03T08:12:37.000Z</time>
      </trkpt>
      <trkpt lat="49.65389" lon="4.74673">
        <ele>264</ele>
        <time>2022-04-03T08:12:38.000Z</time>
      </trkpt>
      <trkpt lat="49.65391" lon="4.74675">
        <ele>264</ele>
        <time>2022-04-03T08:12:39.000Z</time>
      </trkpt>
      <trkpt lat="49.65392" lon="4.74676">
        <ele>264</ele>
        <time>2022-04-03T08:12:40.000Z</time>
      </trkpt>
      <trkpt lat="49.65392" lon="4.74677">
        <ele>264</ele>
        <time>2022-04-03T08:12:41.000Z</time>
      </trkpt>
      <trkpt lat="49.65393" lon="4.74678">
        <ele>264</ele>
        <time>2022-04-03T08:12:42.000Z</time>
      </trkpt>
      <trkpt lat="49.65393" lon="4.74679">
        <ele>264</ele>
        <time>2022-04-03T08:12:43.000Z</time>
      </trkpt>
      <trkpt lat="49.65394" lon="4.74681">
        <ele>264</ele>
        <time>2022-04-03T08:12:44.000Z</time>
      </trkpt>
      <trkpt lat="49.65394" lon="4.74682">
        <ele>264</ele>
        <time>2022-04-03T08:12:45.000Z</time>
      </trkpt>
      <trkpt lat="49.65394" lon="4.74683">
        <ele>264</ele>
        <time>2022-04-03T08:12:46.000Z</time>
      </trkpt>
      <trkpt lat="49.65394" lon="4.74684">
        <ele>264</ele>
        <time>2022-04-03T08:12:47.000Z</time>
      </trkpt>
      <trkpt lat="49.65394" lon="4.74685">
        <ele>265</ele>
        <time>2022-04-03T08:12:48.000Z</time>
      </trkpt>
      <trkpt lat="49.65393" lon="4.74687">
        <ele>265</ele>
        <time>2022-04-03T08:12:49.000Z</time>
      </trkpt>
      <trkpt lat="49.65392" lon="4.7469">
        <ele>265</ele>
        <time>2022-04-03T08:12:50.000Z</time>
      </trkpt>
      <trkpt lat="49.65391" lon="4.74694">
        <ele>265</ele>
        <time>2022-04-03T08:12:51.000Z</time>
      </trkpt>
      <trkpt lat="49.6539" lon="4.74698">
        <ele>265</ele>
        <time>2022-04-03T08:12:52.000Z</time>
      </trkpt>
      <trkpt lat="49.65388" lon="4.74703">
        <ele>265</ele>
        <time>2022-04-03T08:12:53.000Z</time>
      </trkpt>
      <trkpt lat="49.65385" lon="4.7471">
        <ele>265</ele>
        <time>2022-04-03T08:12:54.000Z</time>
      </trkpt>
      <trkpt lat="49.65382" lon="4.74718">
        <ele>266</ele>
        <time>2022-04-03T08:12:55.000Z</time>
      </trkpt>
      <trkpt lat="49.65379" lon="4.74725">
        <ele>266</ele>
        <time>2022-04-03T08:12:56.000Z</time>
      </trkpt>
      <trkpt lat="49.65375" lon="4.74731">
        <ele>266</ele>
        <time>2022-04-03T08:12:57.000Z</time>
      </trkpt>
      <trkpt lat="49.65372" lon="4.74737">
        <ele>266</ele>
        <time>2022-04-03T08:12:58.000Z</time>
      </trkpt>
      <trkpt lat="49.65368" lon="4.74743">
        <ele>266</ele>
        <time>2022-04-03T08:12:59.000Z</time>
      </trkpt>
      <trkpt lat="49.65367" lon="4.74749">
        <ele>266</ele>
        <time>2022-04-03T08:13:00.000Z</time>
      </trkpt>
      <trkpt lat="49.65366" lon="4.74755">
        <ele>266</ele>
        <time>2022-04-03T08:13:01.000Z</time>
      </trkpt>
      <trkpt lat="49.65367" lon="4.74761">
        <ele>266</ele>
        <time>2022-04-03T08:13:02.000Z</time>
      </trkpt>
      <trkpt lat="49.65369" lon="4.74766">
        <ele>266</ele>
        <time>2022-04-03T08:13:03.000Z</time>
      </trkpt>
      <trkpt lat="49.65371" lon="4.7477">
        <ele>266</ele>
        <time>2022-04-03T08:13:04.000Z</time>
      </trkpt>
      <trkpt lat="49.65373" lon="4.74771">
        <ele>265</ele>
        <time>2022-04-03T08:13:05.000Z</time>
      </trkpt>
      <trkpt lat="49.65376" lon="4.74772">
        <ele>265</ele>
        <time>2022-04-03T08:13:06.000Z</time>
      </trkpt>
      <trkpt lat="49.6538" lon="4.74772">
        <ele>265</ele>
        <time>2022-04-03T08:13:07.000Z</time>
      </trkpt>
      <trkpt lat="49.65383" lon="4.74773">
        <ele>265</ele>
        <time>2022-04-03T08:13:08.000Z</time>
      </trkpt>
      <trkpt lat="49.65386" lon="4.74773">
        <ele>264</ele>
        <time>2022-04-03T08:13:09.000Z</time>
      </trkpt>
      <trkpt lat="49.65389" lon="4.74775">
        <ele>264</ele>
        <time>2022-04-03T08:13:10.000Z</time>
      </trkpt>
      <trkpt lat="49.65392" lon="4.74776">
        <ele>264</ele>
        <time>2022-04-03T08:13:11.000Z</time>
      </trkpt>
      <trkpt lat="49.65395" lon="4.74778">
        <ele>264</ele>
        <time>2022-04-03T08:13:12.000Z</time>
      </trkpt>
      <trkpt lat="49.65398" lon="4.74781">
        <ele>263</ele>
        <time>2022-04-03T08:13:13.000Z</time>
      </trkpt>
      <trkpt lat="49.65401" lon="4.74784">
        <ele>263</ele>
        <time>2022-04-03T08:13:14.000Z</time>
      </trkpt>
      <trkpt lat="49.65404" lon="4.74787">
        <ele>263</ele>
        <time>2022-04-03T08:13:15.000Z</time>
      </trkpt>
      <trkpt lat="49.65407" lon="4.74787">
        <ele>263</ele>
        <time>2022-04-03T08:13:16.000Z</time>
      </trkpt>
      <trkpt lat="49.6541" lon="4.74786">
        <ele>263</ele>
        <time>2022-04-03T08:13:17.000Z</time>
      </trkpt>
      <trkpt lat="49.65413" lon="4.74784">
        <ele>263</ele>
        <time>2022-04-03T08:13:18.000Z</time>
      </trkpt>
      <trkpt lat="49.65416" lon="4.74782">
        <ele>263</ele>
        <time>2022-04-03T08:13:19.000Z</time>
      </trkpt>
      <trkpt lat="49.65419" lon="4.74781">
        <ele>263</ele>
        <time>2022-04-03T08:13:20.000Z</time>
      </trkpt>
      <trkpt lat="49.65421" lon="4.74782">
        <ele>263</ele>
        <time>2022-04-03T08:13:21.000Z</time>
      </trkpt>
      <trkpt lat="49.65424" lon="4.74784">
        <ele>262</ele>
        <time>2022-04-03T08:13:22.000Z</time>
      </trkpt>
      <trkpt lat="49.65428" lon="4.74786">
        <ele>262</ele>
        <time>2022-04-03T08:13:23.000Z</time>
      </trkpt>
      <trkpt lat="49.65431" lon="4.74787">
        <ele>262</ele>
        <time>2022-04-03T08:13:24.000Z</time>
      </trkpt>
      <trkpt lat="49.65435" lon="4.74787">
        <ele>262</ele>
        <time>2022-04-03T08:13:25.000Z</time>
      </trkpt>
      <trkpt lat="49.65439" lon="4.74786">
        <ele>262</ele>
        <time>2022-04-03T08:13:26.000Z</time>
      </trkpt>
      <trkpt lat="49.65442" lon="4.74785">
        <ele>262</ele>
        <time>2022-04-03T08:13:27.000Z</time>
      </trkpt>
      <trkpt lat="49.65446" lon="4.74785">
        <ele>262</ele>
        <time>2022-04-03T08:13:28.000Z</time>
      </trkpt>
      <trkpt lat="49.6545" lon="4.74783">
        <ele>262</ele>
        <time>2022-04-03T08:13:29.000Z</time>
      </trkpt>
      <trkpt lat="49.65452" lon="4.74781">
        <ele>262</ele>
        <time>2022-04-03T08:13:30.000Z</time>
      </trkpt>
      <trkpt lat="49.65455" lon="4.7478">
        <ele>262</ele>
        <time>2022-04-03T08:13:31.000Z</time>
      </trkpt>
      <trkpt lat="49.65458" lon="4.7478">
        <ele>262</ele>
        <time>2022-04-03T08:13:32.000Z</time>
      </trkpt>
      <trkpt lat="49.65462" lon="4.74782">
        <ele>262</ele>
        <time>2022-04-03T08:13:33.000Z</time>
      </trkpt>
      <trkpt lat="49.65465" lon="4.74784">
        <ele>262</ele>
        <time>2022-04-03T08:13:34.000Z</time>
      </trkpt>
      <trkpt lat="49.65467" lon="4.74788">
        <ele>261</ele>
        <time>2022-04-03T08:13:35.000Z</time>
      </trkpt>
      <trkpt lat="49.65466" lon="4.74792">
        <ele>261</ele>
        <time>2022-04-03T08:13:36.000Z</time>
      </trkpt>
      <trkpt lat="49.65464" lon="4.74796">
        <ele>261</ele>
        <time>2022-04-03T08:13:37.000Z</time>
      </trkpt>
      <trkpt lat="49.65462" lon="4.748">
        <ele>261</ele>
        <time>2022-04-03T08:13:38.000Z</time>
      </trkpt>
      <trkpt lat="49.6546" lon="4.74804">
        <ele>261</ele>
        <time>2022-04-03T08:13:39.000Z</time>
      </trkpt>
      <trkpt lat="49.65458" lon="4.74808">
        <ele>261</ele>
        <time>2022-04-03T08:13:40.000Z</time>
      </trkpt>
      <trkpt lat="49.65457" lon="4.74811">
        <ele>261</ele>
        <time>2022-04-03T08:13:41.000Z</time>
      </trkpt>
      <trkpt lat="49.65456" lon="4.74815">
        <ele>261</ele>
        <time>2022-04-03T08:13:42.000Z</time>
      </trkpt>
      <trkpt lat="49.65454" lon="4.7482">
        <ele>261</ele>
        <time>2022-04-03T08:13:43.000Z</time>
      </trkpt>
      <trkpt lat="49.65453" lon="4.74824">
        <ele>260</ele>
        <time>2022-04-03T08:13:44.000Z</time>
      </trkpt>
      <trkpt lat="49.65451" lon="4.74829">
        <ele>260</ele>
        <time>2022-04-03T08:13:45.000Z</time>
      </trkpt>
      <trkpt lat="49.65449" lon="4.74833">
        <ele>260</ele>
        <time>2022-04-03T08:13:46.000Z</time>
      </trkpt>
      <trkpt lat="49.65447" lon="4.74837">
        <ele>260</ele>
        <time>2022-04-03T08:13:47.000Z</time>
      </trkpt>
      <trkpt lat="49.65445" lon="4.7484">
        <ele>260</ele>
        <time>2022-04-03T08:13:48.000Z</time>
      </trkpt>
      <trkpt lat="49.65444" lon="4.74843">
        <ele>260</ele>
        <time>2022-04-03T08:13:49.000Z</time>
      </trkpt>
      <trkpt lat="49.65443" lon="4.74847">
        <ele>259</ele>
        <time>2022-04-03T08:13:50.000Z</time>
      </trkpt>
      <trkpt lat="49.65442" lon="4.7485">
        <ele>259</ele>
        <time>2022-04-03T08:13:51.000Z</time>
      </trkpt>
      <trkpt lat="49.65441" lon="4.74853">
        <ele>259</ele>
        <time>2022-04-03T08:13:52.000Z</time>
      </trkpt>
      <trkpt lat="49.6544" lon="4.74855">
        <ele>259</ele>
        <time>2022-04-03T08:13:53.000Z</time>
      </trkpt>
      <trkpt lat="49.65438" lon="4.74859">
        <ele>259</ele>
        <time>2022-04-03T08:13:54.000Z</time>
      </trkpt>
      <trkpt lat="49.65436" lon="4.74862">
        <ele>259</ele>
        <time>2022-04-03T08:13:55.000Z</time>
      </trkpt>
      <trkpt lat="49.65435" lon="4.74866">
        <ele>259</ele>
        <time>2022-04-03T08:13:56.000Z</time>
      </trkpt>
      <trkpt lat="49.65434" lon="4.74868">
        <ele>259</ele>
        <time>2022-04-03T08:13:57.000Z</time>
      </trkpt>
      <trkpt lat="49.65433" lon="4.74872">
        <ele>259</ele>
        <time>2022-04-03T08:13:58.000Z</time>
      </trkpt>
      <trkpt lat="49.65432" lon="4.74875">
        <ele>259</ele>
        <time>2022-04-03T08:13:59.000Z</time>
      </trkpt>
      <trkpt lat="49.65429" lon="4.74877">
        <ele>259</ele>
        <time>2022-04-03T08:14:00.000Z</time>
      </trkpt>
      <trkpt lat="49.65426" lon="4.74877">
        <ele>259</ele>
        <time>2022-04-03T08:14:01.000Z</time>
      </trkpt>
      <trkpt lat="49.65422" lon="4.74878">
        <ele>259</ele>
        <time>2022-04-03T08:14:02.000Z</time>
      </trkpt>
      <trkpt lat="49.65419" lon="4.74878">
        <ele>259</ele>
        <time>2022-04-03T08:14:03.000Z</time>
      </trkpt>
      <trkpt lat="49.65415" lon="4.74878">
        <ele>259</ele>
        <time>2022-04-03T08:14:04.000Z</time>
      </trkpt>
      <trkpt lat="49.65411" lon="4.74878">
        <ele>259</ele>
        <time>2022-04-03T08:14:05.000Z</time>
      </trkpt>
      <trkpt lat="49.65408" lon="4.74877">
        <ele>259</ele>
        <time>2022-04-03T08:14:06.000Z</time>
      </trkpt>
      <trkpt lat="49.65404" lon="4.74876">
        <ele>259</ele>
        <time>2022-04-03T08:14:07.000Z</time>
      </trkpt>
      <trkpt lat="49.65401" lon="4.74874">
        <ele>259</ele>
        <time>2022-04-03T08:14:08.000Z</time>
      </trkpt>
      <trkpt lat="49.65397" lon="4.74872">
        <ele>258</ele>
        <time>2022-04-03T08:14:09.000Z</time>
      </trkpt>
      <trkpt lat="49.65394" lon="4.7487">
        <ele>258</ele>
        <time>2022-04-03T08:14:10.000Z</time>
      </trkpt>
      <trkpt lat="49.65391" lon="4.74867">
        <ele>258</ele>
        <time>2022-04-03T08:14:11.000Z</time>
      </trkpt>
      <trkpt lat="49.65389" lon="4.74865">
        <ele>258</ele>
        <time>2022-04-03T08:14:12.000Z</time>
      </trkpt>
      <trkpt lat="49.65386" lon="4.74862">
        <ele>257</ele>
        <time>2022-04-03T08:14:13.000Z</time>
      </trkpt>
      <trkpt lat="49.65383" lon="4.74859">
        <ele>257</ele>
        <time>2022-04-03T08:14:14.000Z</time>
      </trkpt>
      <trkpt lat="49.6538" lon="4.74857">
        <ele>257</ele>
        <time>2022-04-03T08:14:15.000Z</time>
      </trkpt>
      <trkpt lat="49.65377" lon="4.74854">
        <ele>257</ele>
        <time>2022-04-03T08:14:16.000Z</time>
      </trkpt>
      <trkpt lat="49.65374" lon="4.7485">
        <ele>257</ele>
        <time>2022-04-03T08:14:17.000Z</time>
      </trkpt>
      <trkpt lat="49.65371" lon="4.74846">
        <ele>257</ele>
        <time>2022-04-03T08:14:18.000Z</time>
      </trkpt>
      <trkpt lat="49.65368" lon="4.74842">
        <ele>256</ele>
        <time>2022-04-03T08:14:19.000Z</time>
      </trkpt>
      <trkpt lat="49.65365" lon="4.74838">
        <ele>256</ele>
        <time>2022-04-03T08:14:20.000Z</time>
      </trkpt>
      <trkpt lat="49.65361" lon="4.74834">
        <ele>256</ele>
        <time>2022-04-03T08:14:21.000Z</time>
      </trkpt>
      <trkpt lat="49.65359" lon="4.7483">
        <ele>256</ele>
        <time>2022-04-03T08:14:22.000Z</time>
      </trkpt>
      <trkpt lat="49.65356" lon="4.74826">
        <ele>256</ele>
        <time>2022-04-03T08:14:23.000Z</time>
      </trkpt>
      <trkpt lat="49.65353" lon="4.74822">
        <ele>256</ele>
        <time>2022-04-03T08:14:24.000Z</time>
      </trkpt>
      <trkpt lat="49.65351" lon="4.74818">
        <ele>256</ele>
        <time>2022-04-03T08:14:25.000Z</time>
      </trkpt>
      <trkpt lat="49.65348" lon="4.74813">
        <ele>256</ele>
        <time>2022-04-03T08:14:26.000Z</time>
      </trkpt>
      <trkpt lat="49.65346" lon="4.74809">
        <ele>256</ele>
        <time>2022-04-03T08:14:27.000Z</time>
      </trkpt>
      <trkpt lat="49.65343" lon="4.74805">
        <ele>256</ele>
        <time>2022-04-03T08:14:28.000Z</time>
      </trkpt>
      <trkpt lat="49.6534" lon="4.74801">
        <ele>256</ele>
        <time>2022-04-03T08:14:29.000Z</time>
      </trkpt>
      <trkpt lat="49.65337" lon="4.74797">
        <ele>256</ele>
        <time>2022-04-03T08:14:30.000Z</time>
      </trkpt>
      <trkpt lat="49.65334" lon="4.74793">
        <ele>256</ele>
        <time>2022-04-03T08:14:31.000Z</time>
      </trkpt>
      <trkpt lat="49.65332" lon="4.74789">
        <ele>256</ele>
        <time>2022-04-03T08:14:32.000Z</time>
      </trkpt>
      <trkpt lat="49.6533" lon="4.74784">
        <ele>256</ele>
        <time>2022-04-03T08:14:33.000Z</time>
      </trkpt>
      <trkpt lat="49.65328" lon="4.7478">
        <ele>256</ele>
        <time>2022-04-03T08:14:34.000Z</time>
      </trkpt>
      <trkpt lat="49.65326" lon="4.74775">
        <ele>256</ele>
        <time>2022-04-03T08:14:35.000Z</time>
      </trkpt>
      <trkpt lat="49.65324" lon="4.7477">
        <ele>256</ele>
        <time>2022-04-03T08:14:36.000Z</time>
      </trkpt>
      <trkpt lat="49.65322" lon="4.74766">
        <ele>256</ele>
        <time>2022-04-03T08:14:37.000Z</time>
      </trkpt>
      <trkpt lat="49.6532" lon="4.74761">
        <ele>256</ele>
        <time>2022-04-03T08:14:38.000Z</time>
      </trkpt>
      <trkpt lat="49.65319" lon="4.74756">
        <ele>256</ele>
        <time>2022-04-03T08:14:39.000Z</time>
      </trkpt>
      <trkpt lat="49.65317" lon="4.74751">
        <ele>256</ele>
        <time>2022-04-03T08:14:40.000Z</time>
      </trkpt>
      <trkpt lat="49.65315" lon="4.74746">
        <ele>256</ele>
        <time>2022-04-03T08:14:41.000Z</time>
      </trkpt>
      <trkpt lat="49.65314" lon="4.74742">
        <ele>256</ele>
        <time>2022-04-03T08:14:42.000Z</time>
      </trkpt>
      <trkpt lat="49.65313" lon="4.74737">
        <ele>257</ele>
        <time>2022-04-03T08:14:43.000Z</time>
      </trkpt>
      <trkpt lat="49.65312" lon="4.74733">
        <ele>257</ele>
        <time>2022-04-03T08:14:44.000Z</time>
      </trkpt>
      <trkpt lat="49.6531" lon="4.74728">
        <ele>257</ele>
        <time>2022-04-03T08:14:45.000Z</time>
      </trkpt>
      <trkpt lat="49.65309" lon="4.74724">
        <ele>257</ele>
        <time>2022-04-03T08:14:46.000Z</time>
      </trkpt>
      <trkpt lat="49.65307" lon="4.74719">
        <ele>257</ele>
        <time>2022-04-03T08:14:47.000Z</time>
      </trkpt>
      <trkpt lat="49.65306" lon="4.74715">
        <ele>257</ele>
        <time>2022-04-03T08:14:48.000Z</time>
      </trkpt>
      <trkpt lat="49.65304" lon="4.74711">
        <ele>257</ele>
        <time>2022-04-03T08:14:49.000Z</time>
      </trkpt>
      <trkpt lat="49.65303" lon="4.74707">
        <ele>257</ele>
        <time>2022-04-03T08:14:50.000Z</time>
      </trkpt>
      <trkpt lat="49.65302" lon="4.74703">
        <ele>257</ele>
        <time>2022-04-03T08:14:51.000Z</time>
      </trkpt>
      <trkpt lat="49.65301" lon="4.74699">
        <ele>257</ele>
        <time>2022-04-03T08:14:52.000Z</time>
      </trkpt>
      <trkpt lat="49.65299" lon="4.74695">
        <ele>257</ele>
        <time>2022-04-03T08:14:53.000Z</time>
      </trkpt>
      <trkpt lat="49.65298" lon="4.74691">
        <ele>258</ele>
        <time>2022-04-03T08:14:54.000Z</time>
      </trkpt>
      <trkpt lat="49.65297" lon="4.74687">
        <ele>258</ele>
        <time>2022-04-03T08:14:55.000Z</time>
      </trkpt>
      <trkpt lat="49.65295" lon="4.74684">
        <ele>258</ele>
        <time>2022-04-03T08:14:56.000Z</time>
      </trkpt>
      <trkpt lat="49.65294" lon="4.7468">
        <ele>258</ele>
        <time>2022-04-03T08:14:57.000Z</time>
      </trkpt>
      <trkpt lat="49.65293" lon="4.74676">
        <ele>258</ele>
        <time>2022-04-03T08:14:58.000Z</time>
      </trkpt>
      <trkpt lat="49.65291" lon="4.74673">
        <ele>259</ele>
        <time>2022-04-03T08:14:59.000Z</time>
      </trkpt>
      <trkpt lat="49.6529" lon="4.7467">
        <ele>259</ele>
        <time>2022-04-03T08:15:00.000Z</time>
      </trkpt>
      <trkpt lat="49.65288" lon="4.74666">
        <ele>259</ele>
        <time>2022-04-03T08:15:01.000Z</time>
      </trkpt>
      <trkpt lat="49.65286" lon="4.74662">
        <ele>259</ele>
        <time>2022-04-03T08:15:02.000Z</time>
      </trkpt>
      <trkpt lat="49.65284" lon="4.74658">
        <ele>259</ele>
        <time>2022-04-03T08:15:03.000Z</time>
      </trkpt>
      <trkpt lat="49.65282" lon="4.74654">
        <ele>260</ele>
        <time>2022-04-03T08:15:04.000Z</time>
      </trkpt>
      <trkpt lat="49.6528" lon="4.7465">
        <ele>260</ele>
        <time>2022-04-03T08:15:05.000Z</time>
      </trkpt>
      <trkpt lat="49.65278" lon="4.74647">
        <ele>260</ele>
        <time>2022-04-03T08:15:06.000Z</time>
      </trkpt>
      <trkpt lat="49.65276" lon="4.74643">
        <ele>260</ele>
        <time>2022-04-03T08:15:07.000Z</time>
      </trkpt>
      <trkpt lat="49.65274" lon="4.7464">
        <ele>260</ele>
        <time>2022-04-03T08:15:08.000Z</time>
      </trkpt>
      <trkpt lat="49.65272" lon="4.74636">
        <ele>260</ele>
        <time>2022-04-03T08:15:09.000Z</time>
      </trkpt>
      <trkpt lat="49.65271" lon="4.74631">
        <ele>261</ele>
        <time>2022-04-03T08:15:10.000Z</time>
      </trkpt>
      <trkpt lat="49.65269" lon="4.74628">
        <ele>261</ele>
        <time>2022-04-03T08:15:11.000Z</time>
      </trkpt>
      <trkpt lat="49.65267" lon="4.74625">
        <ele>261</ele>
        <time>2022-04-03T08:15:12.000Z</time>
      </trkpt>
      <trkpt lat="49.65265" lon="4.74622">
        <ele>261</ele>
        <time>2022-04-03T08:15:13.000Z</time>
      </trkpt>
      <trkpt lat="49.65264" lon="4.74618">
        <ele>261</ele>
        <time>2022-04-03T08:15:14.000Z</time>
      </trkpt>
      <trkpt lat="49.65262" lon="4.74615">
        <ele>262</ele>
        <time>2022-04-03T08:15:15.000Z</time>
      </trkpt>
      <trkpt lat="49.6526" lon="4.74611">
        <ele>262</ele>
        <time>2022-04-03T08:15:16.000Z</time>
      </trkpt>
      <trkpt lat="49.65258" lon="4.74607">
        <ele>262</ele>
        <time>2022-04-03T08:15:17.000Z</time>
      </trkpt>
      <trkpt lat="49.65256" lon="4.74604">
        <ele>262</ele>
        <time>2022-04-03T08:15:18.000Z</time>
      </trkpt>
      <trkpt lat="49.65254" lon="4.74601">
        <ele>262</ele>
        <time>2022-04-03T08:15:19.000Z</time>
      </trkpt>
      <trkpt lat="49.65252" lon="4.74599">
        <ele>262</ele>
        <time>2022-04-03T08:15:20.000Z</time>
      </trkpt>
      <trkpt lat="49.65249" lon="4.74598">
        <ele>262</ele>
        <time>2022-04-03T08:15:21.000Z</time>
      </trkpt>
      <trkpt lat="49.65247" lon="4.74598">
        <ele>263</ele>
        <time>2022-04-03T08:15:22.000Z</time>
      </trkpt>
      <trkpt lat="49.65245" lon="4.74598">
        <ele>263</ele>
        <time>2022-04-03T08:15:23.000Z</time>
      </trkpt>
      <trkpt lat="49.65243" lon="4.74599">
        <ele>263</ele>
        <time>2022-04-03T08:15:24.000Z</time>
      </trkpt>
      <trkpt lat="49.6524" lon="4.746">
        <ele>263</ele>
        <time>2022-04-03T08:15:25.000Z</time>
      </trkpt>
      <trkpt lat="49.65236" lon="4.74602">
        <ele>263</ele>
        <time>2022-04-03T08:15:26.000Z</time>
      </trkpt>
      <trkpt lat="49.65233" lon="4.74604">
        <ele>263</ele>
        <time>2022-04-03T08:15:27.000Z</time>
      </trkpt>
      <trkpt lat="49.65229" lon="4.74606">
        <ele>263</ele>
        <time>2022-04-03T08:15:28.000Z</time>
      </trkpt>
      <trkpt lat="49.65224" lon="4.74608">
        <ele>264</ele>
        <time>2022-04-03T08:15:29.000Z</time>
      </trkpt>
      <trkpt lat="49.65221" lon="4.74609">
        <ele>264</ele>
        <time>2022-04-03T08:15:30.000Z</time>
      </trkpt>
      <trkpt lat="49.65217" lon="4.7461">
        <ele>264</ele>
        <time>2022-04-03T08:15:31.000Z</time>
      </trkpt>
      <trkpt lat="49.65213" lon="4.74612">
        <ele>264</ele>
        <time>2022-04-03T08:15:32.000Z</time>
      </trkpt>
      <trkpt lat="49.6521" lon="4.74613">
        <ele>264</ele>
        <time>2022-04-03T08:15:33.000Z</time>
      </trkpt>
      <trkpt lat="49.65205" lon="4.74615">
        <ele>264</ele>
        <time>2022-04-03T08:15:34.000Z</time>
      </trkpt>
      <trkpt lat="49.65202" lon="4.74616">
        <ele>265</ele>
        <time>2022-04-03T08:15:35.000Z</time>
      </trkpt>
      <trkpt lat="49.65198" lon="4.74618">
        <ele>265</ele>
        <time>2022-04-03T08:15:36.000Z</time>
      </trkpt>
      <trkpt lat="49.65195" lon="4.7462">
        <ele>265</ele>
        <time>2022-04-03T08:15:37.000Z</time>
      </trkpt>
      <trkpt lat="49.65191" lon="4.74621">
        <ele>265</ele>
        <time>2022-04-03T08:15:38.000Z</time>
      </trkpt>
      <trkpt lat="49.65189" lon="4.74622">
        <ele>266</ele>
        <time>2022-04-03T08:15:39.000Z</time>
      </trkpt>
      <trkpt lat="49.65186" lon="4.74624">
        <ele>266</ele>
        <time>2022-04-03T08:15:40.000Z</time>
      </trkpt>
      <trkpt lat="49.65183" lon="4.74625">
        <ele>266</ele>
        <time>2022-04-03T08:15:41.000Z</time>
      </trkpt>
      <trkpt lat="49.6518" lon="4.74626">
        <ele>267</ele>
        <time>2022-04-03T08:15:42.000Z</time>
      </trkpt>
      <trkpt lat="49.65178" lon="4.74628">
        <ele>267</ele>
        <time>2022-04-03T08:15:43.000Z</time>
      </trkpt>
      <trkpt lat="49.65174" lon="4.7463">
        <ele>267</ele>
        <time>2022-04-03T08:15:44.000Z</time>
      </trkpt>
      <trkpt lat="49.65171" lon="4.74631">
        <ele>267</ele>
        <time>2022-04-03T08:15:45.000Z</time>
      </trkpt>
      <trkpt lat="49.65166" lon="4.74633">
        <ele>268</ele>
        <time>2022-04-03T08:15:46.000Z</time>
      </trkpt>
      <trkpt lat="49.65163" lon="4.74634">
        <ele>268</ele>
        <time>2022-04-03T08:15:47.000Z</time>
      </trkpt>
      <trkpt lat="49.6516" lon="4.74634">
        <ele>268</ele>
        <time>2022-04-03T08:15:48.000Z</time>
      </trkpt>
      <trkpt lat="49.65157" lon="4.74636">
        <ele>268</ele>
        <time>2022-04-03T08:15:49.000Z</time>
      </trkpt>
      <trkpt lat="49.65153" lon="4.74638">
        <ele>268</ele>
        <time>2022-04-03T08:15:50.000Z</time>
      </trkpt>
      <trkpt lat="49.65149" lon="4.7464">
        <ele>268</ele>
        <time>2022-04-03T08:15:51.000Z</time>
      </trkpt>
      <trkpt lat="49.65145" lon="4.74642">
        <ele>268</ele>
        <time>2022-04-03T08:15:52.000Z</time>
      </trkpt>
      <trkpt lat="49.6514" lon="4.74644">
        <ele>269</ele>
        <time>2022-04-03T08:15:53.000Z</time>
      </trkpt>
      <trkpt lat="49.65136" lon="4.74646">
        <ele>269</ele>
        <time>2022-04-03T08:15:54.000Z</time>
      </trkpt>
      <trkpt lat="49.65133" lon="4.74647">
        <ele>269</ele>
        <time>2022-04-03T08:15:55.000Z</time>
      </trkpt>
      <trkpt lat="49.6513" lon="4.74648">
        <ele>269</ele>
        <time>2022-04-03T08:15:56.000Z</time>
      </trkpt>
      <trkpt lat="49.65128" lon="4.74648">
        <ele>269</ele>
        <time>2022-04-03T08:15:57.000Z</time>
      </trkpt>
      <trkpt lat="49.65126" lon="4.74649">
        <ele>269</ele>
        <time>2022-04-03T08:15:58.000Z</time>
      </trkpt>
      <trkpt lat="49.65124" lon="4.7465">
        <ele>269</ele>
        <time>2022-04-03T08:15:59.000Z</time>
      </trkpt>
      <trkpt lat="49.65121" lon="4.74651">
        <ele>269</ele>
        <time>2022-04-03T08:16:00.000Z</time>
      </trkpt>
      <trkpt lat="49.65118" lon="4.74653">
        <ele>269</ele>
        <time>2022-04-03T08:16:01.000Z</time>
      </trkpt>
      <trkpt lat="49.65115" lon="4.74655">
        <ele>269</ele>
        <time>2022-04-03T08:16:02.000Z</time>
      </trkpt>
      <trkpt lat="49.65112" lon="4.74656">
        <ele>269</ele>
        <time>2022-04-03T08:16:03.000Z</time>
      </trkpt>
      <trkpt lat="49.6511" lon="4.74656">
        <ele>269</ele>
        <time>2022-04-03T08:16:04.000Z</time>
      </trkpt>
      <trkpt lat="49.65107" lon="4.74658">
        <ele>269</ele>
        <time>2022-04-03T08:16:05.000Z</time>
      </trkpt>
      <trkpt lat="49.65103" lon="4.74659">
        <ele>270</ele>
        <time>2022-04-03T08:16:06.000Z</time>
      </trkpt>
      <trkpt lat="49.651" lon="4.7466">
        <ele>270</ele>
        <time>2022-04-03T08:16:07.000Z</time>
      </trkpt>
      <trkpt lat="49.65096" lon="4.74661">
        <ele>270</ele>
        <time>2022-04-03T08:16:08.000Z</time>
      </trkpt>
      <trkpt lat="49.65092" lon="4.74662">
        <ele>270</ele>
        <time>2022-04-03T08:16:09.000Z</time>
      </trkpt>
      <trkpt lat="49.65089" lon="4.74663">
        <ele>270</ele>
        <time>2022-04-03T08:16:10.000Z</time>
      </trkpt>
      <trkpt lat="49.65086" lon="4.74665">
        <ele>270</ele>
        <time>2022-04-03T08:16:11.000Z</time>
      </trkpt>
      <trkpt lat="49.65084" lon="4.74665">
        <ele>270</ele>
        <time>2022-04-03T08:16:12.000Z</time>
      </trkpt>
      <trkpt lat="49.65083" lon="4.74666">
        <ele>270</ele>
        <time>2022-04-03T08:16:13.000Z</time>
      </trkpt>
      <trkpt lat="49.65081" lon="4.74666">
        <ele>270</ele>
        <time>2022-04-03T08:16:14.000Z</time>
      </trkpt>
      <trkpt lat="49.65078" lon="4.74667">
        <ele>270</ele>
        <time>2022-04-03T08:16:15.000Z</time>
      </trkpt>
      <trkpt lat="49.65076" lon="4.74668">
        <ele>270</ele>
        <time>2022-04-03T08:16:16.000Z</time>
      </trkpt>
      <trkpt lat="49.65073" lon="4.74669">
        <ele>270</ele>
        <time>2022-04-03T08:16:17.000Z</time>
      </trkpt>
      <trkpt lat="49.65071" lon="4.7467">
        <ele>270</ele>
        <time>2022-04-03T08:16:18.000Z</time>
      </trkpt>
      <trkpt lat="49.65069" lon="4.74672">
        <ele>270</ele>
        <time>2022-04-03T08:16:19.000Z</time>
      </trkpt>
      <trkpt lat="49.65067" lon="4.74673">
        <ele>271</ele>
        <time>2022-04-03T08:16:20.000Z</time>
      </trkpt>
      <trkpt lat="49.65065" lon="4.74674">
        <ele>271</ele>
        <time>2022-04-03T08:16:21.000Z</time>
      </trkpt>
      <trkpt lat="49.65063" lon="4.74674">
        <ele>271</ele>
        <time>2022-04-03T08:16:22.000Z</time>
      </trkpt>
      <trkpt lat="49.65061" lon="4.74675">
        <ele>271</ele>
        <time>2022-04-03T08:16:23.000Z</time>
      </trkpt>
      <trkpt lat="49.6506" lon="4.74676">
        <ele>271</ele>
        <time>2022-04-03T08:16:24.000Z</time>
      </trkpt>
      <trkpt lat="49.65058" lon="4.74676">
        <ele>271</ele>
        <time>2022-04-03T08:16:25.000Z</time>
      </trkpt>
      <trkpt lat="49.65056" lon="4.74676">
        <ele>271</ele>
        <time>2022-04-03T08:16:26.000Z</time>
      </trkpt>
      <trkpt lat="49.65053" lon="4.74676">
        <ele>272</ele>
        <time>2022-04-03T08:16:27.000Z</time>
      </trkpt>
      <trkpt lat="49.6505" lon="4.74676">
        <ele>272</ele>
        <time>2022-04-03T08:16:28.000Z</time>
      </trkpt>
      <trkpt lat="49.65046" lon="4.74676">
        <ele>272</ele>
        <time>2022-04-03T08:16:29.000Z</time>
      </trkpt>
      <trkpt lat="49.65043" lon="4.74677">
        <ele>272</ele>
        <time>2022-04-03T08:16:30.000Z</time>
      </trkpt>
      <trkpt lat="49.6504" lon="4.74679">
        <ele>272</ele>
        <time>2022-04-03T08:16:31.000Z</time>
      </trkpt>
      <trkpt lat="49.65038" lon="4.74681">
        <ele>272</ele>
        <time>2022-04-03T08:16:32.000Z</time>
      </trkpt>
      <trkpt lat="49.65036" lon="4.74683">
        <ele>272</ele>
        <time>2022-04-03T08:16:33.000Z</time>
      </trkpt>
      <trkpt lat="49.65034" lon="4.74684">
        <ele>272</ele>
        <time>2022-04-03T08:16:34.000Z</time>
      </trkpt>
      <trkpt lat="49.65032" lon="4.74685">
        <ele>273</ele>
        <time>2022-04-03T08:16:35.000Z</time>
      </trkpt>
      <trkpt lat="49.6503" lon="4.74686">
        <ele>273</ele>
        <time>2022-04-03T08:16:36.000Z</time>
      </trkpt>
      <trkpt lat="49.65028" lon="4.74686">
        <ele>273</ele>
        <time>2022-04-03T08:16:37.000Z</time>
      </trkpt>
      <trkpt lat="49.65025" lon="4.74688">
        <ele>273</ele>
        <time>2022-04-03T08:16:38.000Z</time>
      </trkpt>
      <trkpt lat="49.65022" lon="4.74693">
        <ele>274</ele>
        <time>2022-04-03T08:16:39.000Z</time>
      </trkpt>
      <trkpt lat="49.65017" lon="4.74699">
        <ele>274</ele>
        <time>2022-04-03T08:16:40.000Z</time>
      </trkpt>
      <trkpt lat="49.65014" lon="4.74708">
        <ele>274</ele>
        <time>2022-04-03T08:16:41.000Z</time>
      </trkpt>
      <trkpt lat="49.6501" lon="4.74717">
        <ele>274</ele>
        <time>2022-04-03T08:16:42.000Z</time>
      </trkpt>
      <trkpt lat="49.65009" lon="4.74724">
        <ele>274</ele>
        <time>2022-04-03T08:16:43.000Z</time>
      </trkpt>
      <trkpt lat="49.65008" lon="4.7473">
        <ele>274</ele>
        <time>2022-04-03T08:16:44.000Z</time>
      </trkpt>
      <trkpt lat="49.65009" lon="4.74732">
        <ele>274</ele>
        <time>2022-04-03T08:16:45.000Z</time>
      </trkpt>
      <trkpt lat="49.6501" lon="4.74734">
        <ele>275</ele>
        <time>2022-04-03T08:16:46.000Z</time>
      </trkpt>
      <trkpt lat="49.65011" lon="4.74737">
        <ele>275</ele>
        <time>2022-04-03T08:16:47.000Z</time>
      </trkpt>
      <trkpt lat="49.65012" lon="4.7474">
        <ele>275</ele>
        <time>2022-04-03T08:16:48.000Z</time>
      </trkpt>
      <trkpt lat="49.65014" lon="4.74743">
        <ele>275</ele>
        <time>2022-04-03T08:16:49.000Z</time>
      </trkpt>
      <trkpt lat="49.65016" lon="4.74746">
        <ele>275</ele>
        <time>2022-04-03T08:16:50.000Z</time>
      </trkpt>
      <trkpt lat="49.65018" lon="4.74749">
        <ele>275</ele>
        <time>2022-04-03T08:16:51.000Z</time>
      </trkpt>
      <trkpt lat="49.6502" lon="4.74754">
        <ele>275</ele>
        <time>2022-04-03T08:16:52.000Z</time>
      </trkpt>
      <trkpt lat="49.65021" lon="4.74759">
        <ele>275</ele>
        <time>2022-04-03T08:16:53.000Z</time>
      </trkpt>
      <trkpt lat="49.65022" lon="4.74765">
        <ele>275</ele>
        <time>2022-04-03T08:16:54.000Z</time>
      </trkpt>
      <trkpt lat="49.65024" lon="4.7477">
        <ele>275</ele>
        <time>2022-04-03T08:16:55.000Z</time>
      </trkpt>
      <trkpt lat="49.65026" lon="4.74776">
        <ele>275</ele>
        <time>2022-04-03T08:16:56.000Z</time>
      </trkpt>
      <trkpt lat="49.6503" lon="4.74781">
        <ele>275</ele>
        <time>2022-04-03T08:16:57.000Z</time>
      </trkpt>
      <trkpt lat="49.65033" lon="4.74785">
        <ele>275</ele>
        <time>2022-04-03T08:16:58.000Z</time>
      </trkpt>
      <trkpt lat="49.65036" lon="4.74788">
        <ele>275</ele>
        <time>2022-04-03T08:16:59.000Z</time>
      </trkpt>
      <trkpt lat="49.65039" lon="4.7479">
        <ele>275</ele>
        <time>2022-04-03T08:17:00.000Z</time>
      </trkpt>
      <trkpt lat="49.65042" lon="4.74792">
        <ele>274</ele>
        <time>2022-04-03T08:17:01.000Z</time>
      </trkpt>
      <trkpt lat="49.65044" lon="4.74795">
        <ele>274</ele>
        <time>2022-04-03T08:17:02.000Z</time>
      </trkpt>
      <trkpt lat="49.65047" lon="4.74798">
        <ele>274</ele>
        <time>2022-04-03T08:17:03.000Z</time>
      </trkpt>
      <trkpt lat="49.6505" lon="4.74801">
        <ele>274</ele>
        <time>2022-04-03T08:17:04.000Z</time>
      </trkpt>
      <trkpt lat="49.65053" lon="4.74806">
        <ele>274</ele>
        <time>2022-04-03T08:17:05.000Z</time>
      </trkpt>
      <trkpt lat="49.65056" lon="4.7481">
        <ele>274</ele>
        <time>2022-04-03T08:17:06.000Z</time>
      </trkpt>
      <trkpt lat="49.65059" lon="4.74813">
        <ele>274</ele>
        <time>2022-04-03T08:17:07.000Z</time>
      </trkpt>
      <trkpt lat="49.65061" lon="4.74815">
        <ele>274</ele>
        <time>2022-04-03T08:17:08.000Z</time>
      </trkpt>
      <trkpt lat="49.65063" lon="4.74816">
        <ele>274</ele>
        <time>2022-04-03T08:17:09.000Z</time>
      </trkpt>
      <trkpt lat="49.65065" lon="4.74815">
        <ele>274</ele>
        <time>2022-04-03T08:17:10.000Z</time>
      </trkpt>
      <trkpt lat="49.65068" lon="4.74815">
        <ele>274</ele>
        <time>2022-04-03T08:17:11.000Z</time>
      </trkpt>
      <trkpt lat="49.65071" lon="4.74814">
        <ele>273</ele>
        <time>2022-04-03T08:17:12.000Z</time>
      </trkpt>
      <trkpt lat="49.65075" lon="4.74813">
        <ele>273</ele>
        <time>2022-04-03T08:17:13.000Z</time>
      </trkpt>
      <trkpt lat="49.65079" lon="4.74815">
        <ele>273</ele>
        <time>2022-04-03T08:17:14.000Z</time>
      </trkpt>
      <trkpt lat="49.65083" lon="4.74817">
        <ele>272</ele>
        <time>2022-04-03T08:17:15.000Z</time>
      </trkpt>
      <trkpt lat="49.65087" lon="4.74819">
        <ele>272</ele>
        <time>2022-04-03T08:17:16.000Z</time>
      </trkpt>
      <trkpt lat="49.6509" lon="4.7482">
        <ele>272</ele>
        <time>2022-04-03T08:17:17.000Z</time>
      </trkpt>
      <trkpt lat="49.65094" lon="4.74823">
        <ele>272</ele>
        <time>2022-04-03T08:17:18.000Z</time>
      </trkpt>
      <trkpt lat="49.65098" lon="4.74827">
        <ele>271</ele>
        <time>2022-04-03T08:17:19.000Z</time>
      </trkpt>
      <trkpt lat="49.65101" lon="4.74832">
        <ele>271</ele>
        <time>2022-04-03T08:17:20.000Z</time>
      </trkpt>
      <trkpt lat="49.65103" lon="4.74835">
        <ele>271</ele>
        <time>2022-04-03T08:17:21.000Z</time>
      </trkpt>
      <trkpt lat="49.65106" lon="4.74838">
        <ele>270</ele>
        <time>2022-04-03T08:17:22.000Z</time>
      </trkpt>
      <trkpt lat="49.65109" lon="4.74841">
        <ele>270</ele>
        <time>2022-04-03T08:17:23.000Z</time>
      </trkpt>
      <trkpt lat="49.65112" lon="4.74842">
        <ele>269</ele>
        <time>2022-04-03T08:17:24.000Z</time>
      </trkpt>
      <trkpt lat="49.65115" lon="4.74845">
        <ele>269</ele>
        <time>2022-04-03T08:17:25.000Z</time>
      </trkpt>
      <trkpt lat="49.6512" lon="4.74848">
        <ele>269</ele>
        <time>2022-04-03T08:17:26.000Z</time>
      </trkpt>
      <trkpt lat="49.65124" lon="4.74851">
        <ele>268</ele>
        <time>2022-04-03T08:17:27.000Z</time>
      </trkpt>
      <trkpt lat="49.65127" lon="4.74852">
        <ele>268</ele>
        <time>2022-04-03T08:17:28.000Z</time>
      </trkpt>
      <trkpt lat="49.65131" lon="4.74851">
        <ele>268</ele>
        <time>2022-04-03T08:17:29.000Z</time>
      </trkpt>
      <trkpt lat="49.65135" lon="4.74848">
        <ele>267</ele>
        <time>2022-04-03T08:17:30.000Z</time>
      </trkpt>
      <trkpt lat="49.65139" lon="4.74846">
        <ele>267</ele>
        <time>2022-04-03T08:17:31.000Z</time>
      </trkpt>
      <trkpt lat="49.65143" lon="4.74843">
        <ele>267</ele>
        <time>2022-04-03T08:17:32.000Z</time>
      </trkpt>
      <trkpt lat="49.65147" lon="4.74843">
        <ele>266</ele>
        <time>2022-04-03T08:17:33.000Z</time>
      </trkpt>
      <trkpt lat="49.65151" lon="4.74842">
        <ele>266</ele>
        <time>2022-04-03T08:17:34.000Z</time>
      </trkpt>
      <trkpt lat="49.65155" lon="4.74841">
        <ele>265</ele>
        <time>2022-04-03T08:17:35.000Z</time>
      </trkpt>
      <trkpt lat="49.65159" lon="4.74839">
        <ele>265</ele>
        <time>2022-04-03T08:17:36.000Z</time>
      </trkpt>
      <trkpt lat="49.65163" lon="4.74836">
        <ele>265</ele>
        <time>2022-04-03T08:17:37.000Z</time>
      </trkpt>
      <trkpt lat="49.65167" lon="4.74832">
        <ele>264</ele>
        <time>2022-04-03T08:17:38.000Z</time>
      </trkpt>
      <trkpt lat="49.65171" lon="4.74827">
        <ele>264</ele>
        <time>2022-04-03T08:17:39.000Z</time>
      </trkpt>
      <trkpt lat="49.65175" lon="4.74824">
        <ele>263</ele>
        <time>2022-04-03T08:17:40.000Z</time>
      </trkpt>
      <trkpt lat="49.6518" lon="4.74822">
        <ele>263</ele>
        <time>2022-04-03T08:17:41.000Z</time>
      </trkpt>
      <trkpt lat="49.65184" lon="4.7482">
        <ele>262</ele>
        <time>2022-04-03T08:17:42.000Z</time>
      </trkpt>
      <trkpt lat="49.65189" lon="4.74817">
        <ele>262</ele>
        <time>2022-04-03T08:17:43.000Z</time>
      </trkpt>
      <trkpt lat="49.65192" lon="4.74813">
        <ele>261</ele>
        <time>2022-04-03T08:17:44.000Z</time>
      </trkpt>
      <trkpt lat="49.65196" lon="4.74809">
        <ele>260</ele>
        <time>2022-04-03T08:17:45.000Z</time>
      </trkpt>
      <trkpt lat="49.65199" lon="4.74805">
        <ele>260</ele>
        <time>2022-04-03T08:17:46.000Z</time>
      </trkpt>
      <trkpt lat="49.65202" lon="4.74801">
        <ele>259</ele>
        <time>2022-04-03T08:17:47.000Z</time>
      </trkpt>
      <trkpt lat="49.65205" lon="4.74798">
        <ele>259</ele>
        <time>2022-04-03T08:17:48.000Z</time>
      </trkpt>
      <trkpt lat="49.65209" lon="4.74795">
        <ele>259</ele>
        <time>2022-04-03T08:17:49.000Z</time>
      </trkpt>
      <trkpt lat="49.65213" lon="4.74792">
        <ele>258</ele>
        <time>2022-04-03T08:17:50.000Z</time>
      </trkpt>
      <trkpt lat="49.65217" lon="4.74789">
        <ele>258</ele>
        <time>2022-04-03T08:17:51.000Z</time>
      </trkpt>
      <trkpt lat="49.6522" lon="4.74787">
        <ele>257</ele>
        <time>2022-04-03T08:17:52.000Z</time>
      </trkpt>
      <trkpt lat="49.65222" lon="4.74784">
        <ele>257</ele>
        <time>2022-04-03T08:17:53.000Z</time>
      </trkpt>
      <trkpt lat="49.65224" lon="4.74782">
        <ele>257</ele>
        <time>2022-04-03T08:17:54.000Z</time>
      </trkpt>
      <trkpt lat="49.65226" lon="4.7478">
        <ele>257</ele>
        <time>2022-04-03T08:17:55.000Z</time>
      </trkpt>
      <trkpt lat="49.65228" lon="4.74778">
        <ele>256</ele>
        <time>2022-04-03T08:17:56.000Z</time>
      </trkpt>
      <trkpt lat="49.65231" lon="4.74777">
        <ele>256</ele>
        <time>2022-04-03T08:17:57.000Z</time>
      </trkpt>
      <trkpt lat="49.65235" lon="4.74776">
        <ele>256</ele>
        <time>2022-04-03T08:17:58.000Z</time>
      </trkpt>
      <trkpt lat="49.65238" lon="4.74774">
        <ele>256</ele>
        <time>2022-04-03T08:17:59.000Z</time>
      </trkpt>
      <trkpt lat="49.65243" lon="4.74774">
        <ele>256</ele>
        <time>2022-04-03T08:18:00.000Z</time>
      </trkpt>
      <trkpt lat="49.65248" lon="4.74774">
        <ele>255</ele>
        <time>2022-04-03T08:18:01.000Z</time>
      </trkpt>
      <trkpt lat="49.65254" lon="4.74776">
        <ele>255</ele>
        <time>2022-04-03T08:18:02.000Z</time>
      </trkpt>
      <trkpt lat="49.6526" lon="4.74778">
        <ele>255</ele>
        <time>2022-04-03T08:18:03.000Z</time>
      </trkpt>
      <trkpt lat="49.65265" lon="4.74781">
        <ele>255</ele>
        <time>2022-04-03T08:18:04.000Z</time>
      </trkpt>
      <trkpt lat="49.6527" lon="4.74785">
        <ele>255</ele>
        <time>2022-04-03T08:18:05.000Z</time>
      </trkpt>
      <trkpt lat="49.65273" lon="4.74789">
        <ele>254</ele>
        <time>2022-04-03T08:18:06.000Z</time>
      </trkpt>
      <trkpt lat="49.65275" lon="4.74794">
        <ele>254</ele>
        <time>2022-04-03T08:18:07.000Z</time>
      </trkpt>
      <trkpt lat="49.65277" lon="4.74798">
        <ele>254</ele>
        <time>2022-04-03T08:18:08.000Z</time>
      </trkpt>
      <trkpt lat="49.6528" lon="4.74801">
        <ele>253</ele>
        <time>2022-04-03T08:18:09.000Z</time>
      </trkpt>
      <trkpt lat="49.65283" lon="4.74804">
        <ele>253</ele>
        <time>2022-04-03T08:18:10.000Z</time>
      </trkpt>
      <trkpt lat="49.65286" lon="4.74807">
        <ele>253</ele>
        <time>2022-04-03T08:18:11.000Z</time>
      </trkpt>
      <trkpt lat="49.65288" lon="4.74808">
        <ele>253</ele>
        <time>2022-04-03T08:18:12.000Z</time>
      </trkpt>
      <trkpt lat="49.65292" lon="4.74808">
        <ele>252</ele>
        <time>2022-04-03T08:18:13.000Z</time>
      </trkpt>
      <trkpt lat="49.65295" lon="4.7481">
        <ele>252</ele>
        <time>2022-04-03T08:18:14.000Z</time>
      </trkpt>
      <trkpt lat="49.653" lon="4.74812">
        <ele>252</ele>
        <time>2022-04-03T08:18:15.000Z</time>
      </trkpt>
      <trkpt lat="49.65305" lon="4.74815">
        <ele>252</ele>
        <time>2022-04-03T08:18:16.000Z</time>
      </trkpt>
      <trkpt lat="49.6531" lon="4.74819">
        <ele>251</ele>
        <time>2022-04-03T08:18:17.000Z</time>
      </trkpt>
      <trkpt lat="49.65315" lon="4.74822">
        <ele>251</ele>
        <time>2022-04-03T08:18:18.000Z</time>
      </trkpt>
      <trkpt lat="49.65319" lon="4.74825">
        <ele>251</ele>
        <time>2022-04-03T08:18:19.000Z</time>
      </trkpt>
      <trkpt lat="49.65323" lon="4.74828">
        <ele>251</ele>
        <time>2022-04-03T08:18:20.000Z</time>
      </trkpt>
      <trkpt lat="49.65327" lon="4.7483">
        <ele>250</ele>
        <time>2022-04-03T08:18:21.000Z</time>
      </trkpt>
      <trkpt lat="49.6533" lon="4.74831">
        <ele>250</ele>
        <time>2022-04-03T08:18:22.000Z</time>
      </trkpt>
      <trkpt lat="49.65332" lon="4.74832">
        <ele>250</ele>
        <time>2022-04-03T08:18:23.000Z</time>
      </trkpt>
      <trkpt lat="49.65335" lon="4.74833">
        <ele>250</ele>
        <time>2022-04-03T08:18:24.000Z</time>
      </trkpt>
      <trkpt lat="49.65338" lon="4.74834">
        <ele>249</ele>
        <time>2022-04-03T08:18:25.000Z</time>
      </trkpt>
      <trkpt lat="49.65341" lon="4.74836">
        <ele>249</ele>
        <time>2022-04-03T08:18:26.000Z</time>
      </trkpt>
      <trkpt lat="49.65345" lon="4.74838">
        <ele>249</ele>
        <time>2022-04-03T08:18:27.000Z</time>
      </trkpt>
      <trkpt lat="49.65348" lon="4.7484">
        <ele>249</ele>
        <time>2022-04-03T08:18:28.000Z</time>
      </trkpt>
      <trkpt lat="49.6535" lon="4.74842">
        <ele>249</ele>
        <time>2022-04-03T08:18:29.000Z</time>
      </trkpt>
      <trkpt lat="49.65352" lon="4.74845">
        <ele>249</ele>
        <time>2022-04-03T08:18:30.000Z</time>
      </trkpt>
      <trkpt lat="49.65353" lon="4.74848">
        <ele>249</ele>
        <time>2022-04-03T08:18:31.000Z</time>
      </trkpt>
      <trkpt lat="49.65353" lon="4.74852">
        <ele>249</ele>
        <time>2022-04-03T08:18:32.000Z</time>
      </trkpt>
      <trkpt lat="49.65355" lon="4.74858">
        <ele>248</ele>
        <time>2022-04-03T08:18:33.000Z</time>
      </trkpt>
      <trkpt lat="49.65356" lon="4.74863">
        <ele>248</ele>
        <time>2022-04-03T08:18:34.000Z</time>
      </trkpt>
      <trkpt lat="49.65358" lon="4.74869">
        <ele>248</ele>
        <time>2022-04-03T08:18:35.000Z</time>
      </trkpt>
      <trkpt lat="49.6536" lon="4.74875">
        <ele>248</ele>
        <time>2022-04-03T08:18:36.000Z</time>
      </trkpt>
      <trkpt lat="49.65362" lon="4.74881">
        <ele>248</ele>
        <time>2022-04-03T08:18:37.000Z</time>
      </trkpt>
      <trkpt lat="49.65364" lon="4.74887">
        <ele>247</ele>
        <time>2022-04-03T08:18:38.000Z</time>
      </trkpt>
      <trkpt lat="49.65366" lon="4.74892">
        <ele>247</ele>
        <time>2022-04-03T08:18:39.000Z</time>
      </trkpt>
      <trkpt lat="49.6537" lon="4.74896">
        <ele>247</ele>
        <time>2022-04-03T08:18:40.000Z</time>
      </trkpt>
      <trkpt lat="49.65373" lon="4.749">
        <ele>247</ele>
        <time>2022-04-03T08:18:41.000Z</time>
      </trkpt>
      <trkpt lat="49.65376" lon="4.74903">
        <ele>247</ele>
        <time>2022-04-03T08:18:42.000Z</time>
      </trkpt>
      <trkpt lat="49.65379" lon="4.74905">
        <ele>247</ele>
        <time>2022-04-03T08:18:43.000Z</time>
      </trkpt>
      <trkpt lat="49.65382" lon="4.74906">
        <ele>247</ele>
        <time>2022-04-03T08:18:44.000Z</time>
      </trkpt>
      <trkpt lat="49.65385" lon="4.74907">
        <ele>247</ele>
        <time>2022-04-03T08:18:45.000Z</time>
      </trkpt>
      <trkpt lat="49.65387" lon="4.74909">
        <ele>247</ele>
        <time>2022-04-03T08:18:46.000Z</time>
      </trkpt>
      <trkpt lat="49.65389" lon="4.74911">
        <ele>247</ele>
        <time>2022-04-03T08:18:47.000Z</time>
      </trkpt>
      <trkpt lat="49.65393" lon="4.74914">
        <ele>247</ele>
        <time>2022-04-03T08:18:48.000Z</time>
      </trkpt>
      <trkpt lat="49.65396" lon="4.74917">
        <ele>247</ele>
        <time>2022-04-03T08:18:49.000Z</time>
      </trkpt>
      <trkpt lat="49.65399" lon="4.7492">
        <ele>247</ele>
        <time>2022-04-03T08:18:50.000Z</time>
      </trkpt>
      <trkpt lat="49.65404" lon="4.74922">
        <ele>247</ele>
        <time>2022-04-03T08:18:51.000Z</time>
      </trkpt>
      <trkpt lat="49.65409" lon="4.74925">
        <ele>247</ele>
        <time>2022-04-03T08:18:52.000Z</time>
      </trkpt>
      <trkpt lat="49.65413" lon="4.74926">
        <ele>247</ele>
        <time>2022-04-03T08:18:53.000Z</time>
      </trkpt>
      <trkpt lat="49.65417" lon="4.74928">
        <ele>246</ele>
        <time>2022-04-03T08:18:54.000Z</time>
      </trkpt>
      <trkpt lat="49.65421" lon="4.74929">
        <ele>246</ele>
        <time>2022-04-03T08:18:55.000Z</time>
      </trkpt>
      <trkpt lat="49.65425" lon="4.74933">
        <ele>246</ele>
        <time>2022-04-03T08:18:56.000Z</time>
      </trkpt>
      <trkpt lat="49.65429" lon="4.74937">
        <ele>246</ele>
        <time>2022-04-03T08:18:57.000Z</time>
      </trkpt>
      <trkpt lat="49.65433" lon="4.74942">
        <ele>246</ele>
        <time>2022-04-03T08:18:58.000Z</time>
      </trkpt>
      <trkpt lat="49.65438" lon="4.74946">
        <ele>246</ele>
        <time>2022-04-03T08:18:59.000Z</time>
      </trkpt>
      <trkpt lat="49.65442" lon="4.7495">
        <ele>246</ele>
        <time>2022-04-03T08:19:00.000Z</time>
      </trkpt>
      <trkpt lat="49.65447" lon="4.74951">
        <ele>246</ele>
        <time>2022-04-03T08:19:01.000Z</time>
      </trkpt>
      <trkpt lat="49.6545" lon="4.74951">
        <ele>246</ele>
        <time>2022-04-03T08:19:02.000Z</time>
      </trkpt>
      <trkpt lat="49.65453" lon="4.7495">
        <ele>245</ele>
        <time>2022-04-03T08:19:03.000Z</time>
      </trkpt>
      <trkpt lat="49.65457" lon="4.74949">
        <ele>245</ele>
        <time>2022-04-03T08:19:04.000Z</time>
      </trkpt>
      <trkpt lat="49.65461" lon="4.74948">
        <ele>245</ele>
        <time>2022-04-03T08:19:05.000Z</time>
      </trkpt>
      <trkpt lat="49.65465" lon="4.74948">
        <ele>245</ele>
        <time>2022-04-03T08:19:06.000Z</time>
      </trkpt>
      <trkpt lat="49.65469" lon="4.74949">
        <ele>245</ele>
        <time>2022-04-03T08:19:07.000Z</time>
      </trkpt>
      <trkpt lat="49.65472" lon="4.74948">
        <ele>245</ele>
        <time>2022-04-03T08:19:08.000Z</time>
      </trkpt>
      <trkpt lat="49.65476" lon="4.74947">
        <ele>245</ele>
        <time>2022-04-03T08:19:09.000Z</time>
      </trkpt>
      <trkpt lat="49.65479" lon="4.74946">
        <ele>245</ele>
        <time>2022-04-03T08:19:10.000Z</time>
      </trkpt>
      <trkpt lat="49.65481" lon="4.74945">
        <ele>245</ele>
        <time>2022-04-03T08:19:11.000Z</time>
      </trkpt>
      <trkpt lat="49.65484" lon="4.74944">
        <ele>244</ele>
        <time>2022-04-03T08:19:12.000Z</time>
      </trkpt>
      <trkpt lat="49.65486" lon="4.74943">
        <ele>244</ele>
        <time>2022-04-03T08:19:13.000Z</time>
      </trkpt>
      <trkpt lat="49.65488" lon="4.74943">
        <ele>244</ele>
        <time>2022-04-03T08:19:14.000Z</time>
      </trkpt>
      <trkpt lat="49.65491" lon="4.74945">
        <ele>244</ele>
        <time>2022-04-03T08:19:15.000Z</time>
      </trkpt>
      <trkpt lat="49.65493" lon="4.74948">
        <ele>244</ele>
        <time>2022-04-03T08:19:16.000Z</time>
      </trkpt>
      <trkpt lat="49.65495" lon="4.7495">
        <ele>244</ele>
        <time>2022-04-03T08:19:17.000Z</time>
      </trkpt>
      <trkpt lat="49.65496" lon="4.74952">
        <ele>244</ele>
        <time>2022-04-03T08:19:18.000Z</time>
      </trkpt>
      <trkpt lat="49.65496" lon="4.74954">
        <ele>243</ele>
        <time>2022-04-03T08:19:19.000Z</time>
      </trkpt>
      <trkpt lat="49.65497" lon="4.74955">
        <ele>243</ele>
        <time>2022-04-03T08:19:20.000Z</time>
      </trkpt>
      <trkpt lat="49.65498" lon="4.74955">
        <ele>243</ele>
        <time>2022-04-03T08:19:21.000Z</time>
      </trkpt>
      <trkpt lat="49.65499" lon="4.74953">
        <ele>243</ele>
        <time>2022-04-03T08:19:22.000Z</time>
      </trkpt>
      <trkpt lat="49.655" lon="4.74954">
        <ele>243</ele>
        <time>2022-04-03T08:19:23.000Z</time>
      </trkpt>
      <trkpt lat="49.65503" lon="4.74955">
        <ele>243</ele>
        <time>2022-04-03T08:19:24.000Z</time>
      </trkpt>
      <trkpt lat="49.65505" lon="4.74958">
        <ele>243</ele>
        <time>2022-04-03T08:19:25.000Z</time>
      </trkpt>
      <trkpt lat="49.65507" lon="4.74962">
        <ele>243</ele>
        <time>2022-04-03T08:19:26.000Z</time>
      </trkpt>
      <trkpt lat="49.6551" lon="4.74966">
        <ele>243</ele>
        <time>2022-04-03T08:19:27.000Z</time>
      </trkpt>
      <trkpt lat="49.65514" lon="4.74969">
        <ele>243</ele>
        <time>2022-04-03T08:19:28.000Z</time>
      </trkpt>
      <trkpt lat="49.65518" lon="4.74973">
        <ele>243</ele>
        <time>2022-04-03T08:19:29.000Z</time>
      </trkpt>
      <trkpt lat="49.65522" lon="4.74975">
        <ele>243</ele>
        <time>2022-04-03T08:19:30.000Z</time>
      </trkpt>
      <trkpt lat="49.65525" lon="4.74978">
        <ele>242</ele>
        <time>2022-04-03T08:19:31.000Z</time>
      </trkpt>
      <trkpt lat="49.65528" lon="4.74978">
        <ele>242</ele>
        <time>2022-04-03T08:19:32.000Z</time>
      </trkpt>
      <trkpt lat="49.6553" lon="4.74977">
        <ele>242</ele>
        <time>2022-04-03T08:19:33.000Z</time>
      </trkpt>
      <trkpt lat="49.65531" lon="4.74976">
        <ele>242</ele>
        <time>2022-04-03T08:19:34.000Z</time>
      </trkpt>
      <trkpt lat="49.65533" lon="4.74975">
        <ele>242</ele>
        <time>2022-04-03T08:19:35.000Z</time>
      </trkpt>
      <trkpt lat="49.65535" lon="4.74975">
        <ele>242</ele>
        <time>2022-04-03T08:19:36.000Z</time>
      </trkpt>
      <trkpt lat="49.65536" lon="4.74974">
        <ele>243</ele>
        <time>2022-04-03T08:19:37.000Z</time>
      </trkpt>
      <trkpt lat="49.65537" lon="4.74975">
        <ele>243</ele>
        <time>2022-04-03T08:19:38.000Z</time>
      </trkpt>
      <trkpt lat="49.65538" lon="4.74976">
        <ele>243</ele>
        <time>2022-04-03T08:19:39.000Z</time>
      </trkpt>
      <trkpt lat="49.65539" lon="4.74978">
        <ele>243</ele>
        <time>2022-04-03T08:19:40.000Z</time>
      </trkpt>
      <trkpt lat="49.6554" lon="4.74979">
        <ele>243</ele>
        <time>2022-04-03T08:19:41.000Z</time>
      </trkpt>
      <trkpt lat="49.65541" lon="4.74982">
        <ele>244</ele>
        <time>2022-04-03T08:19:42.000Z</time>
      </trkpt>
      <trkpt lat="49.65542" lon="4.74985">
        <ele>244</ele>
        <time>2022-04-03T08:19:43.000Z</time>
      </trkpt>
      <trkpt lat="49.65543" lon="4.74987">
        <ele>244</ele>
        <time>2022-04-03T08:19:44.000Z</time>
      </trkpt>
      <trkpt lat="49.65544" lon="4.7499">
        <ele>244</ele>
        <time>2022-04-03T08:19:45.000Z</time>
      </trkpt>
      <trkpt lat="49.65545" lon="4.74994">
        <ele>244</ele>
        <time>2022-04-03T08:19:46.000Z</time>
      </trkpt>
      <trkpt lat="49.65546" lon="4.74997">
        <ele>244</ele>
        <time>2022-04-03T08:19:47.000Z</time>
      </trkpt>
      <trkpt lat="49.65547" lon="4.75001">
        <ele>245</ele>
        <time>2022-04-03T08:19:48.000Z</time>
      </trkpt>
      <trkpt lat="49.65548" lon="4.75004">
        <ele>245</ele>
        <time>2022-04-03T08:19:49.000Z</time>
      </trkpt>
      <trkpt lat="49.65549" lon="4.75008">
        <ele>245</ele>
        <time>2022-04-03T08:19:50.000Z</time>
      </trkpt>
      <trkpt lat="49.65549" lon="4.75012">
        <ele>245</ele>
        <time>2022-04-03T08:19:51.000Z</time>
      </trkpt>
      <trkpt lat="49.6555" lon="4.75016">
        <ele>245</ele>
        <time>2022-04-03T08:19:52.000Z</time>
      </trkpt>
      <trkpt lat="49.6555" lon="4.7502">
        <ele>245</ele>
        <time>2022-04-03T08:19:53.000Z</time>
      </trkpt>
      <trkpt lat="49.65552" lon="4.75023">
        <ele>245</ele>
        <time>2022-04-03T08:19:54.000Z</time>
      </trkpt>
      <trkpt lat="49.65553" lon="4.75026">
        <ele>245</ele>
        <time>2022-04-03T08:19:55.000Z</time>
      </trkpt>
      <trkpt lat="49.65555" lon="4.75028">
        <ele>245</ele>
        <time>2022-04-03T08:19:56.000Z</time>
      </trkpt>
      <trkpt lat="49.65556" lon="4.75031">
        <ele>245</ele>
        <time>2022-04-03T08:19:57.000Z</time>
      </trkpt>
      <trkpt lat="49.65557" lon="4.75033">
        <ele>245</ele>
        <time>2022-04-03T08:19:58.000Z</time>
      </trkpt>
      <trkpt lat="49.65558" lon="4.75035">
        <ele>245</ele>
        <time>2022-04-03T08:19:59.000Z</time>
      </trkpt>
      <trkpt lat="49.65559" lon="4.75037">
        <ele>245</ele>
        <time>2022-04-03T08:20:00.000Z</time>
      </trkpt>
      <trkpt lat="49.65561" lon="4.75041">
        <ele>245</ele>
        <time>2022-04-03T08:20:01.000Z</time>
      </trkpt>
      <trkpt lat="49.65563" lon="4.75043">
        <ele>245</ele>
        <time>2022-04-03T08:20:02.000Z</time>
      </trkpt>
      <trkpt lat="49.65565" lon="4.75045">
        <ele>245</ele>
        <time>2022-04-03T08:20:03.000Z</time>
      </trkpt>
      <trkpt lat="49.65568" lon="4.75047">
        <ele>245</ele>
        <time>2022-04-03T08:20:04.000Z</time>
      </trkpt>
      <trkpt lat="49.65571" lon="4.75049">
        <ele>245</ele>
        <time>2022-04-03T08:20:05.000Z</time>
      </trkpt>
      <trkpt lat="49.65574" lon="4.75052">
        <ele>244</ele>
        <time>2022-04-03T08:20:06.000Z</time>
      </trkpt>
      <trkpt lat="49.65576" lon="4.75055">
        <ele>244</ele>
        <time>2022-04-03T08:20:07.000Z</time>
      </trkpt>
      <trkpt lat="49.65577" lon="4.75057">
        <ele>244</ele>
        <time>2022-04-03T08:20:08.000Z</time>
      </trkpt>
      <trkpt lat="49.65579" lon="4.75059">
        <ele>244</ele>
        <time>2022-04-03T08:20:09.000Z</time>
      </trkpt>
      <trkpt lat="49.6558" lon="4.75062">
        <ele>244</ele>
        <time>2022-04-03T08:20:10.000Z</time>
      </trkpt>
      <trkpt lat="49.65581" lon="4.75063">
        <ele>243</ele>
        <time>2022-04-03T08:20:11.000Z</time>
      </trkpt>
      <trkpt lat="49.65581" lon="4.75065">
        <ele>243</ele>
        <time>2022-04-03T08:20:12.000Z</time>
      </trkpt>
      <trkpt lat="49.65581" lon="4.75067">
        <ele>243</ele>
        <time>2022-04-03T08:20:13.000Z</time>
      </trkpt>
      <trkpt lat="49.65581" lon="4.75067">
        <ele>243</ele>
        <time>2022-04-03T08:20:14.000Z</time>
      </trkpt>
      <trkpt lat="49.65581" lon="4.75069">
        <ele>242</ele>
        <time>2022-04-03T08:20:15.000Z</time>
      </trkpt>
      <trkpt lat="49.6558" lon="4.75072">
        <ele>242</ele>
        <time>2022-04-03T08:20:16.000Z</time>
      </trkpt>
      <trkpt lat="49.65579" lon="4.75075">
        <ele>242</ele>
        <time>2022-04-03T08:20:17.000Z</time>
      </trkpt>
      <trkpt lat="49.65578" lon="4.75078">
        <ele>242</ele>
        <time>2022-04-03T08:20:18.000Z</time>
      </trkpt>
      <trkpt lat="49.65577" lon="4.75081">
        <ele>241</ele>
        <time>2022-04-03T08:20:19.000Z</time>
      </trkpt>
      <trkpt lat="49.65575" lon="4.75083">
        <ele>241</ele>
        <time>2022-04-03T08:20:20.000Z</time>
      </trkpt>
      <trkpt lat="49.65573" lon="4.75083">
        <ele>241</ele>
        <time>2022-04-03T08:20:21.000Z</time>
      </trkpt>
      <trkpt lat="49.65572" lon="4.75085">
        <ele>241</ele>
        <time>2022-04-03T08:20:22.000Z</time>
      </trkpt>
      <trkpt lat="49.65571" lon="4.75086">
        <ele>241</ele>
        <time>2022-04-03T08:20:23.000Z</time>
      </trkpt>
      <trkpt lat="49.65571" lon="4.75089">
        <ele>240</ele>
        <time>2022-04-03T08:20:24.000Z</time>
      </trkpt>
      <trkpt lat="49.65571" lon="4.75092">
        <ele>240</ele>
        <time>2022-04-03T08:20:25.000Z</time>
      </trkpt>
      <trkpt lat="49.65571" lon="4.75095">
        <ele>240</ele>
        <time>2022-04-03T08:20:26.000Z</time>
      </trkpt>
      <trkpt lat="49.65572" lon="4.75099">
        <ele>240</ele>
        <time>2022-04-03T08:20:27.000Z</time>
      </trkpt>
      <trkpt lat="49.65574" lon="4.75103">
        <ele>240</ele>
        <time>2022-04-03T08:20:28.000Z</time>
      </trkpt>
      <trkpt lat="49.65575" lon="4.75107">
        <ele>239</ele>
        <time>2022-04-03T08:20:29.000Z</time>
      </trkpt>
      <trkpt lat="49.65577" lon="4.7511">
        <ele>239</ele>
        <time>2022-04-03T08:20:30.000Z</time>
      </trkpt>
      <trkpt lat="49.65579" lon="4.75113">
        <ele>239</ele>
        <time>2022-04-03T08:20:31.000Z</time>
      </trkpt>
      <trkpt lat="49.65581" lon="4.75116">
        <ele>239</ele>
        <time>2022-04-03T08:20:32.000Z</time>
      </trkpt>
      <trkpt lat="49.65583" lon="4.75119">
        <ele>238</ele>
        <time>2022-04-03T08:20:33.000Z</time>
      </trkpt>
      <trkpt lat="49.65584" lon="4.75124">
        <ele>238</ele>
        <time>2022-04-03T08:20:34.000Z</time>
      </trkpt>
      <trkpt lat="49.65585" lon="4.7513">
        <ele>237</ele>
        <time>2022-04-03T08:20:35.000Z</time>
      </trkpt>
      <trkpt lat="49.65587" lon="4.75136">
        <ele>237</ele>
        <time>2022-04-03T08:20:36.000Z</time>
      </trkpt>
      <trkpt lat="49.65588" lon="4.75142">
        <ele>237</ele>
        <time>2022-04-03T08:20:37.000Z</time>
      </trkpt>
      <trkpt lat="49.65588" lon="4.75148">
        <ele>236</ele>
        <time>2022-04-03T08:20:38.000Z</time>
      </trkpt>
      <trkpt lat="49.65589" lon="4.75155">
        <ele>236</ele>
        <time>2022-04-03T08:20:39.000Z</time>
      </trkpt>
      <trkpt lat="49.6559" lon="4.75163">
        <ele>236</ele>
        <time>2022-04-03T08:20:40.000Z</time>
      </trkpt>
      <trkpt lat="49.65589" lon="4.7517">
        <ele>236</ele>
        <time>2022-04-03T08:20:41.000Z</time>
      </trkpt>
      <trkpt lat="49.6559" lon="4.75178">
        <ele>235</ele>
        <time>2022-04-03T08:20:42.000Z</time>
      </trkpt>
      <trkpt lat="49.6559" lon="4.75186">
        <ele>235</ele>
        <time>2022-04-03T08:20:43.000Z</time>
      </trkpt>
      <trkpt lat="49.65591" lon="4.75193">
        <ele>235</ele>
        <time>2022-04-03T08:20:44.000Z</time>
      </trkpt>
      <trkpt lat="49.65591" lon="4.752">
        <ele>235</ele>
        <time>2022-04-03T08:20:45.000Z</time>
      </trkpt>
      <trkpt lat="49.65593" lon="4.75206">
        <ele>235</ele>
        <time>2022-04-03T08:20:46.000Z</time>
      </trkpt>
      <trkpt lat="49.65595" lon="4.75213">
        <ele>234</ele>
        <time>2022-04-03T08:20:47.000Z</time>
      </trkpt>
      <trkpt lat="49.65597" lon="4.7522">
        <ele>234</ele>
        <time>2022-04-03T08:20:48.000Z</time>
      </trkpt>
      <trkpt lat="49.65599" lon="4.75226">
        <ele>234</ele>
        <time>2022-04-03T08:20:49.000Z</time>
      </trkpt>
      <trkpt lat="49.65601" lon="4.75232">
        <ele>234</ele>
        <time>2022-04-03T08:20:50.000Z</time>
      </trkpt>
      <trkpt lat="49.65603" lon="4.75238">
        <ele>233</ele>
        <time>2022-04-03T08:20:51.000Z</time>
      </trkpt>
      <trkpt lat="49.65603" lon="4.75244">
        <ele>233</ele>
        <time>2022-04-03T08:20:52.000Z</time>
      </trkpt>
      <trkpt lat="49.65602" lon="4.75249">
        <ele>233</ele>
        <time>2022-04-03T08:20:53.000Z</time>
      </trkpt>
      <trkpt lat="49.65601" lon="4.75255">
        <ele>232</ele>
        <time>2022-04-03T08:20:54.000Z</time>
      </trkpt>
      <trkpt lat="49.65601" lon="4.75259">
        <ele>232</ele>
        <time>2022-04-03T08:20:55.000Z</time>
      </trkpt>
      <trkpt lat="49.65601" lon="4.75262">
        <ele>232</ele>
        <time>2022-04-03T08:20:56.000Z</time>
      </trkpt>
      <trkpt lat="49.65602" lon="4.75266">
        <ele>231</ele>
        <time>2022-04-03T08:20:57.000Z</time>
      </trkpt>
      <trkpt lat="49.65603" lon="4.75271">
        <ele>231</ele>
        <time>2022-04-03T08:20:58.000Z</time>
      </trkpt>
      <trkpt lat="49.65604" lon="4.75277">
        <ele>231</ele>
        <time>2022-04-03T08:20:59.000Z</time>
      </trkpt>
      <trkpt lat="49.65606" lon="4.75283">
        <ele>230</ele>
        <time>2022-04-03T08:21:00.000Z</time>
      </trkpt>
      <trkpt lat="49.65607" lon="4.75289">
        <ele>230</ele>
        <time>2022-04-03T08:21:01.000Z</time>
      </trkpt>
      <trkpt lat="49.65608" lon="4.75294">
        <ele>230</ele>
        <time>2022-04-03T08:21:02.000Z</time>
      </trkpt>
      <trkpt lat="49.65608" lon="4.75298">
        <ele>229</ele>
        <time>2022-04-03T08:21:03.000Z</time>
      </trkpt>
      <trkpt lat="49.65609" lon="4.75303">
        <ele>229</ele>
        <time>2022-04-03T08:21:04.000Z</time>
      </trkpt>
      <trkpt lat="49.65609" lon="4.75309">
        <ele>228</ele>
        <time>2022-04-03T08:21:05.000Z</time>
      </trkpt>
      <trkpt lat="49.65609" lon="4.75317">
        <ele>228</ele>
        <time>2022-04-03T08:21:06.000Z</time>
      </trkpt>
      <trkpt lat="49.65608" lon="4.75326">
        <ele>227</ele>
        <time>2022-04-03T08:21:07.000Z</time>
      </trkpt>
      <trkpt lat="49.65607" lon="4.75336">
        <ele>227</ele>
        <time>2022-04-03T08:21:08.000Z</time>
      </trkpt>
      <trkpt lat="49.65606" lon="4.75344">
        <ele>226</ele>
        <time>2022-04-03T08:21:09.000Z</time>
      </trkpt>
      <trkpt lat="49.65604" lon="4.75352">
        <ele>226</ele>
        <time>2022-04-03T08:21:10.000Z</time>
      </trkpt>
      <trkpt lat="49.65602" lon="4.75358">
        <ele>226</ele>
        <time>2022-04-03T08:21:11.000Z</time>
      </trkpt>
      <trkpt lat="49.65599" lon="4.75361">
        <ele>225</ele>
        <time>2022-04-03T08:21:12.000Z</time>
      </trkpt>
      <trkpt lat="49.65596" lon="4.75366">
        <ele>225</ele>
        <time>2022-04-03T08:21:13.000Z</time>
      </trkpt>
      <trkpt lat="49.65593" lon="4.75371">
        <ele>224</ele>
        <time>2022-04-03T08:21:14.000Z</time>
      </trkpt>
      <trkpt lat="49.6559" lon="4.75376">
        <ele>224</ele>
        <time>2022-04-03T08:21:15.000Z</time>
      </trkpt>
      <trkpt lat="49.65588" lon="4.75383">
        <ele>224</ele>
        <time>2022-04-03T08:21:16.000Z</time>
      </trkpt>
      <trkpt lat="49.65586" lon="4.7539">
        <ele>223</ele>
        <time>2022-04-03T08:21:17.000Z</time>
      </trkpt>
      <trkpt lat="49.65585" lon="4.75396">
        <ele>223</ele>
        <time>2022-04-03T08:21:18.000Z</time>
      </trkpt>
      <trkpt lat="49.65584" lon="4.75401">
        <ele>223</ele>
        <time>2022-04-03T08:21:19.000Z</time>
      </trkpt>
      <trkpt lat="49.65583" lon="4.75405">
        <ele>222</ele>
        <time>2022-04-03T08:21:20.000Z</time>
      </trkpt>
      <trkpt lat="49.65581" lon="4.75408">
        <ele>222</ele>
        <time>2022-04-03T08:21:21.000Z</time>
      </trkpt>
      <trkpt lat="49.6558" lon="4.75411">
        <ele>222</ele>
        <time>2022-04-03T08:21:22.000Z</time>
      </trkpt>
      <trkpt lat="49.6558" lon="4.75414">
        <ele>221</ele>
        <time>2022-04-03T08:21:23.000Z</time>
      </trkpt>
      <trkpt lat="49.6558" lon="4.75416">
        <ele>221</ele>
        <time>2022-04-03T08:21:24.000Z</time>
      </trkpt>
      <trkpt lat="49.65581" lon="4.75418">
        <ele>220</ele>
        <time>2022-04-03T08:21:25.000Z</time>
      </trkpt>
      <trkpt lat="49.65581" lon="4.75421">
        <ele>219</ele>
        <time>2022-04-03T08:21:26.000Z</time>
      </trkpt>
      <trkpt lat="49.65582" lon="4.75422">
        <ele>219</ele>
        <time>2022-04-03T08:21:27.000Z</time>
      </trkpt>
      <trkpt lat="49.65583" lon="4.75422">
        <ele>218</ele>
        <time>2022-04-03T08:21:28.000Z</time>
      </trkpt>
      <trkpt lat="49.65585" lon="4.75422">
        <ele>217</ele>
        <time>2022-04-03T08:21:29.000Z</time>
      </trkpt>
      <trkpt lat="49.65586" lon="4.75421">
        <ele>217</ele>
        <time>2022-04-03T08:21:30.000Z</time>
      </trkpt>
      <trkpt lat="49.65586" lon="4.75421">
        <ele>216</ele>
        <time>2022-04-03T08:21:31.000Z</time>
      </trkpt>
      <trkpt lat="49.65587" lon="4.75421">
        <ele>215</ele>
        <time>2022-04-03T08:21:32.000Z</time>
      </trkpt>
      <trkpt lat="49.65587" lon="4.75422">
        <ele>215</ele>
        <time>2022-04-03T08:21:33.000Z</time>
      </trkpt>
      <trkpt lat="49.65587" lon="4.75421">
        <ele>214</ele>
        <time>2022-04-03T08:21:34.000Z</time>
      </trkpt>
      <trkpt lat="49.65588" lon="4.75421">
        <ele>214</ele>
        <time>2022-04-03T08:21:35.000Z</time>
      </trkpt>
      <trkpt lat="49.65588" lon="4.75421">
        <ele>213</ele>
        <time>2022-04-03T08:21:36.000Z</time>
      </trkpt>
      <trkpt lat="49.65589" lon="4.7542">
        <ele>213</ele>
        <time>2022-04-03T08:21:37.000Z</time>
      </trkpt>
      <trkpt lat="49.6559" lon="4.75419">
        <ele>213</ele>
        <time>2022-04-03T08:21:38.000Z</time>
      </trkpt>
      <trkpt lat="49.6559" lon="4.75419">
        <ele>213</ele>
        <time>2022-04-03T08:21:39.000Z</time>
      </trkpt>
      <trkpt lat="49.6559" lon="4.75419">
        <ele>212</ele>
        <time>2022-04-03T08:21:40.000Z</time>
      </trkpt>
      <trkpt lat="49.6559" lon="4.75418">
        <ele>212</ele>
        <time>2022-04-03T08:21:41.000Z</time>
      </trkpt>
      <trkpt lat="49.6559" lon="4.75418">
        <ele>212</ele>
        <time>2022-04-03T08:21:42.000Z</time>
      </trkpt>
      <trkpt lat="49.6559" lon="4.75417">
        <ele>211</ele>
        <time>2022-04-03T08:21:43.000Z</time>
      </trkpt>
      <trkpt lat="49.6559" lon="4.75418">
        <ele>211</ele>
        <time>2022-04-03T08:21:44.000Z</time>
      </trkpt>
      <trkpt lat="49.65589" lon="4.75419">
        <ele>211</ele>
        <time>2022-04-03T08:21:45.000Z</time>
      </trkpt>
      <trkpt lat="49.65589" lon="4.75421">
        <ele>210</ele>
        <time>2022-04-03T08:21:46.000Z</time>
      </trkpt>
      <trkpt lat="49.65589" lon="4.75421">
        <ele>210</ele>
        <time>2022-04-03T08:21:47.000Z</time>
      </trkpt>
      <trkpt lat="49.65588" lon="4.75423">
        <ele>209</ele>
        <time>2022-04-03T08:21:48.000Z</time>
      </trkpt>
      <trkpt lat="49.65588" lon="4.75423">
        <ele>209</ele>
        <time>2022-04-03T08:21:49.000Z</time>
      </trkpt>
      <trkpt lat="49.65588" lon="4.75423">
        <ele>209</ele>
        <time>2022-04-03T08:21:50.000Z</time>
      </trkpt>
      <trkpt lat="49.65588" lon="4.75424">
        <ele>209</ele>
        <time>2022-04-03T08:21:51.000Z</time>
      </trkpt>
      <trkpt lat="49.65588" lon="4.75425">
        <ele>208</ele>
        <time>2022-04-03T08:21:52.000Z</time>
      </trkpt>
      <trkpt lat="49.65588" lon="4.75425">
        <ele>208</ele>
        <time>2022-04-03T08:21:53.000Z</time>
      </trkpt>
      <trkpt lat="49.65587" lon="4.75426">
        <ele>208</ele>
        <time>2022-04-03T08:21:54.000Z</time>
      </trkpt>
      <trkpt lat="49.65587" lon="4.75426">
        <ele>208</ele>
        <time>2022-04-03T08:21:55.000Z</time>
      </trkpt>
      <trkpt lat="49.65587" lon="4.75426">
        <ele>208</ele>
        <time>2022-04-03T08:21:56.000Z</time>
      </trkpt>
      <trkpt lat="49.65587" lon="4.75426">
        <ele>208</ele>
        <time>2022-04-03T08:21:57.000Z</time>
      </trkpt>
      <trkpt lat="49.65587" lon="4.75426">
        <ele>208</ele>
        <time>2022-04-03T08:21:58.000Z</time>
      </trkpt>
      <trkpt lat="49.65587" lon="4.75426">
        <ele>208</ele>
        <time>2022-04-03T08:21:59.000Z</time>
      </trkpt>
      <trkpt lat="49.65587" lon="4.75426">
        <ele>208</ele>
        <time>2022-04-03T08:22:00.000Z</time>
      </trkpt>
      <trkpt lat="49.65587" lon="4.75427">
        <ele>208</ele>
        <time>2022-04-03T08:22:01.000Z</time>
      </trkpt>
      <trkpt lat="49.65588" lon="4.75427">
        <ele>208</ele>
        <time>2022-04-03T08:22:02.000Z</time>
      </trkpt>
      <trkpt lat="49.65588" lon="4.75427">
        <ele>208</ele>
        <time>2022-04-03T08:22:03.000Z</time>
      </trkpt>
      <trkpt lat="49.65588" lon="4.75427">
        <ele>208</ele>
        <time>2022-04-03T08:22:04.000Z</time>
      </trkpt>
      <trkpt lat="49.65588" lon="4.75427">
        <ele>208</ele>
        <time>2022-04-03T08:22:05.000Z</time>
      </trkpt>
      <trkpt lat="49.65587" lon="4.75426">
        <ele>208</ele>
        <time>2022-04-03T08:22:06.000Z</time>
      </trkpt>
      <trkpt lat="49.65587" lon="4.75427">
        <ele>208</ele>
        <time>2022-04-03T08:22:07.000Z</time>
      </trkpt>
      <trkpt lat="49.65587" lon="4.75426">
        <ele>208</ele>
        <time>2022-04-03T08:22:08.000Z</time>
      </trkpt>
      <trkpt lat="49.65587" lon="4.75427">
        <ele>208</ele>
        <time>2022-04-03T08:22:09.000Z</time>
      </trkpt>
      <trkpt lat="49.65587" lon="4.75426">
        <ele>208</ele>
        <time>2022-04-03T08:22:10.000Z</time>
      </trkpt>
      <trkpt lat="49.65587" lon="4.75426">
        <ele>208</ele>
        <time>2022-04-03T08:22:11.000Z</time>
      </trkpt>
      <trkpt lat="49.65587" lon="4.75426">
        <ele>208</ele>
        <time>2022-04-03T08:22:12.000Z</time>
      </trkpt>
      <trkpt lat="49.65587" lon="4.75426">
        <ele>208</ele>
        <time>2022-04-03T08:22:13.000Z</time>
      </trkpt>
      <trkpt lat="49.65587" lon="4.75426">
        <ele>208</ele>
        <time>2022-04-03T08:22:14.000Z</time>
      </trkpt>
      <trkpt lat="49.65587" lon="4.75426">
        <ele>208</ele>
        <time>2022-04-03T08:22:15.000Z</time>
      </trkpt>
      <trkpt lat="49.65587" lon="4.75426">
        <ele>208</ele>
        <time>2022-04-03T08:22:16.000Z</time>
      </trkpt>
      <trkpt lat="49.65587" lon="4.75426">
        <ele>208</ele>
        <time>2022-04-03T08:22:17.000Z</time>
      </trkpt>
      <trkpt lat="49.65587" lon="4.75426">
        <ele>208</ele>
        <time>2022-04-03T08:22:18.000Z</time>
      </trkpt>
      <trkpt lat="49.65587" lon="4.75426">
        <ele>209</ele>
        <time>2022-04-03T08:22:19.000Z</time>
      </trkpt>
      <trkpt lat="49.65586" lon="4.75426">
        <ele>209</ele>
        <time>2022-04-03T08:22:20.000Z</time>
      </trkpt>
      <trkpt lat="49.65586" lon="4.75426">
        <ele>209</ele>
        <time>2022-04-03T08:22:21.000Z</time>
      </trkpt>
      <trkpt lat="49.65586" lon="4.75426">
        <ele>209</ele>
        <time>2022-04-03T08:22:22.000Z</time>
      </trkpt>
      <trkpt lat="49.65586" lon="4.75426">
        <ele>209</ele>
        <time>2022-04-03T08:22:23.000Z</time>
      </trkpt>
      <trkpt lat="49.65586" lon="4.75426">
        <ele>209</ele>
        <time>2022-04-03T08:22:24.000Z</time>
      </trkpt>
      <trkpt lat="49.65585" lon="4.75426">
        <ele>209</ele>
        <time>2022-04-03T08:22:25.000Z</time>
      </trkpt>
      <trkpt lat="49.65585" lon="4.75426">
        <ele>209</ele>
        <time>2022-04-03T08:22:26.000Z</time>
      </trkpt>
      <trkpt lat="49.65585" lon="4.75426">
        <ele>209</ele>
        <time>2022-04-03T08:22:27.000Z</time>
      </trkpt>
      <trkpt lat="49.65585" lon="4.75426">
        <ele>210</ele>
        <time>2022-04-03T08:22:28.000Z</time>
      </trkpt>
      <trkpt lat="49.65585" lon="4.75426">
        <ele>210</ele>
        <time>2022-04-03T08:22:29.000Z</time>
      </trkpt>
      <trkpt lat="49.65584" lon="4.75426">
        <ele>210</ele>
        <time>2022-04-03T08:22:30.000Z</time>
      </trkpt>
      <trkpt lat="49.65584" lon="4.75426">
        <ele>210</ele>
        <time>2022-04-03T08:22:31.000Z</time>
      </trkpt>
      <trkpt lat="49.65584" lon="4.75426">
        <ele>210</ele>
        <time>2022-04-03T08:22:32.000Z</time>
      </trkpt>
      <trkpt lat="49.65584" lon="4.75426">
        <ele>210</ele>
        <time>2022-04-03T08:22:33.000Z</time>
      </trkpt>
      <trkpt lat="49.65584" lon="4.75426">
        <ele>210</ele>
        <time>2022-04-03T08:22:34.000Z</time>
      </trkpt>
      <trkpt lat="49.65584" lon="4.75426">
        <ele>210</ele>
        <time>2022-04-03T08:22:35.000Z</time>
      </trkpt>
      <trkpt lat="49.65584" lon="4.75426">
        <ele>210</ele>
        <time>2022-04-03T08:22:36.000Z</time>
      </trkpt>
      <trkpt lat="49.65584" lon="4.75426">
        <ele>210</ele>
        <time>2022-04-03T08:22:37.000Z</time>
      </trkpt>
      <trkpt lat="49.65584" lon="4.75426">
        <ele>210</ele>
        <time>2022-04-03T08:22:38.000Z</time>
      </trkpt>
      <trkpt lat="49.65584" lon="4.75426">
        <ele>211</ele>
        <time>2022-04-03T08:22:39.000Z</time>
      </trkpt>
      <trkpt lat="49.65584" lon="4.75426">
        <ele>211</ele>
        <time>2022-04-03T08:22:40.000Z</time>
      </trkpt>
      <trkpt lat="49.65585" lon="4.75426">
        <ele>211</ele>
        <time>2022-04-03T08:22:41.000Z</time>
      </trkpt>
      <trkpt lat="49.65585" lon="4.75426">
        <ele>211</ele>
        <time>2022-04-03T08:22:42.000Z</time>
      </trkpt>
      <trkpt lat="49.65584" lon="4.75426">
        <ele>211</ele>
        <time>2022-04-03T08:22:43.000Z</time>
      </trkpt>
      <trkpt lat="49.65584" lon="4.75426">
        <ele>211</ele>
        <time>2022-04-03T08:22:44.000Z</time>
      </trkpt>
      <trkpt lat="49.65584" lon="4.75426">
        <ele>211</ele>
        <time>2022-04-03T08:22:45.000Z</time>
      </trkpt>
      <trkpt lat="49.65584" lon="4.75427">
        <ele>211</ele>
        <time>2022-04-03T08:22:46.000Z</time>
      </trkpt>
      <trkpt lat="49.65584" lon="4.75427">
        <ele>211</ele>
        <time>2022-04-03T08:22:47.000Z</time>
      </trkpt>
      <trkpt lat="49.65584" lon="4.75426">
        <ele>211</ele>
        <time>2022-04-03T08:22:48.000Z</time>
      </trkpt>
      <trkpt lat="49.65584" lon="4.75426">
        <ele>211</ele>
        <time>2022-04-03T08:22:49.000Z</time>
      </trkpt>
      <trkpt lat="49.65584" lon="4.75427">
        <ele>211</ele>
        <time>2022-04-03T08:22:50.000Z</time>
      </trkpt>
      <trkpt lat="49.65584" lon="4.75428">
        <ele>211</ele>
        <time>2022-04-03T08:22:51.000Z</time>
      </trkpt>
      <trkpt lat="49.65584" lon="4.75427">
        <ele>212</ele>
        <time>2022-04-03T08:22:52.000Z</time>
      </trkpt>
      <trkpt lat="49.65584" lon="4.75428">
        <ele>212</ele>
        <time>2022-04-03T08:22:53.000Z</time>
      </trkpt>
      <trkpt lat="49.65584" lon="4.75428">
        <ele>212</ele>
        <time>2022-04-03T08:22:54.000Z</time>
      </trkpt>
      <trkpt lat="49.65584" lon="4.75428">
        <ele>212</ele>
        <time>2022-04-03T08:22:55.000Z</time>
      </trkpt>
      <trkpt lat="49.65584" lon="4.75428">
        <ele>212</ele>
        <time>2022-04-03T08:22:56.000Z</time>
      </trkpt>
      <trkpt lat="49.65584" lon="4.75428">
        <ele>212</ele>
        <time>2022-04-03T08:22:57.000Z</time>
      </trkpt>
      <trkpt lat="49.65584" lon="4.75428">
        <ele>213</ele>
        <time>2022-04-03T08:22:58.000Z</time>
      </trkpt>
      <trkpt lat="49.65584" lon="4.75428">
        <ele>213</ele>
        <time>2022-04-03T08:22:59.000Z</time>
      </trkpt>
      <trkpt lat="49.65584" lon="4.75428">
        <ele>213</ele>
        <time>2022-04-03T08:23:00.000Z</time>
      </trkpt>
      <trkpt lat="49.65584" lon="4.75428">
        <ele>213</ele>
        <time>2022-04-03T08:23:01.000Z</time>
      </trkpt>
      <trkpt lat="49.65584" lon="4.75429">
        <ele>213</ele>
        <time>2022-04-03T08:23:02.000Z</time>
      </trkpt>
      <trkpt lat="49.65584" lon="4.75429">
        <ele>213</ele>
        <time>2022-04-03T08:23:03.000Z</time>
      </trkpt>
      <trkpt lat="49.65584" lon="4.75429">
        <ele>213</ele>
        <time>2022-04-03T08:23:04.000Z</time>
      </trkpt>
      <trkpt lat="49.65584" lon="4.75429">
        <ele>214</ele>
        <time>2022-04-03T08:23:05.000Z</time>
      </trkpt>
      <trkpt lat="49.65585" lon="4.75429">
        <ele>214</ele>
        <time>2022-04-03T08:23:06.000Z</time>
      </trkpt>
      <trkpt lat="49.65585" lon="4.75429">
        <ele>214</ele>
        <time>2022-04-03T08:23:07.000Z</time>
      </trkpt>
      <trkpt lat="49.65585" lon="4.7543">
        <ele>214</ele>
        <time>2022-04-03T08:23:08.000Z</time>
      </trkpt>
      <trkpt lat="49.65585" lon="4.7543">
        <ele>214</ele>
        <time>2022-04-03T08:23:09.000Z</time>
      </trkpt>
      <trkpt lat="49.65584" lon="4.7543">
        <ele>214</ele>
        <time>2022-04-03T08:23:10.000Z</time>
      </trkpt>
      <trkpt lat="49.65584" lon="4.7543">
        <ele>215</ele>
        <time>2022-04-03T08:23:11.000Z</time>
      </trkpt>
      <trkpt lat="49.65584" lon="4.7543">
        <ele>215</ele>
        <time>2022-04-03T08:23:12.000Z</time>
      </trkpt>
      <trkpt lat="49.65584" lon="4.7543">
        <ele>215</ele>
        <time>2022-04-03T08:23:13.000Z</time>
      </trkpt>
      <trkpt lat="49.65584" lon="4.7543">
        <ele>215</ele>
        <time>2022-04-03T08:23:14.000Z</time>
      </trkpt>
      <trkpt lat="49.65584" lon="4.7543">
        <ele>215</ele>
        <time>2022-04-03T08:23:15.000Z</time>
      </trkpt>
      <trkpt lat="49.65583" lon="4.75429">
        <ele>216</ele>
        <time>2022-04-03T08:23:16.000Z</time>
      </trkpt>
      <trkpt lat="49.65583" lon="4.75429">
        <ele>216</ele>
        <time>2022-04-03T08:23:17.000Z</time>
      </trkpt>
      <trkpt lat="49.65583" lon="4.75429">
        <ele>216</ele>
        <time>2022-04-03T08:23:18.000Z</time>
      </trkpt>
      <trkpt lat="49.65583" lon="4.75429">
        <ele>216</ele>
        <time>2022-04-03T08:23:19.000Z</time>
      </trkpt>
      <trkpt lat="49.65583" lon="4.75429">
        <ele>216</ele>
        <time>2022-04-03T08:23:20.000Z</time>
      </trkpt>
      <trkpt lat="49.65583" lon="4.75429">
        <ele>217</ele>
        <time>2022-04-03T08:23:21.000Z</time>
      </trkpt>
      <trkpt lat="49.65582" lon="4.75429">
        <ele>217</ele>
        <time>2022-04-03T08:23:22.000Z</time>
      </trkpt>
      <trkpt lat="49.65583" lon="4.75429">
        <ele>217</ele>
        <time>2022-04-03T08:23:23.000Z</time>
      </trkpt>
      <trkpt lat="49.65582" lon="4.75428">
        <ele>217</ele>
        <time>2022-04-03T08:23:24.000Z</time>
      </trkpt>
      <trkpt lat="49.65582" lon="4.75428">
        <ele>217</ele>
        <time>2022-04-03T08:23:25.000Z</time>
      </trkpt>
      <trkpt lat="49.65582" lon="4.75428">
        <ele>217</ele>
        <time>2022-04-03T08:23:26.000Z</time>
      </trkpt>
      <trkpt lat="49.65583" lon="4.75428">
        <ele>217</ele>
        <time>2022-04-03T08:23:27.000Z</time>
      </trkpt>
      <trkpt lat="49.65583" lon="4.75428">
        <ele>217</ele>
        <time>2022-04-03T08:23:28.000Z</time>
      </trkpt>
      <trkpt lat="49.65583" lon="4.75428">
        <ele>217</ele>
        <time>2022-04-03T08:23:29.000Z</time>
      </trkpt>
      <trkpt lat="49.65583" lon="4.75428">
        <ele>217</ele>
        <time>2022-04-03T08:23:30.000Z</time>
      </trkpt>
      <trkpt lat="49.65583" lon="4.75429">
        <ele>217</ele>
        <time>2022-04-03T08:23:31.000Z</time>
      </trkpt>
      <trkpt lat="49.65583" lon="4.75429">
        <ele>217</ele>
        <time>2022-04-03T08:23:32.000Z</time>
      </trkpt>
      <trkpt lat="49.65583" lon="4.75429">
        <ele>217</ele>
        <time>2022-04-03T08:23:33.000Z</time>
      </trkpt>
      <trkpt lat="49.65583" lon="4.75429">
        <ele>217</ele>
        <time>2022-04-03T08:23:34.000Z</time>
      </trkpt>
      <trkpt lat="49.65583" lon="4.75429">
        <ele>217</ele>
        <time>2022-04-03T08:23:35.000Z</time>
      </trkpt>
      <trkpt lat="49.65583" lon="4.7543">
        <ele>217</ele>
        <time>2022-04-03T08:23:36.000Z</time>
      </trkpt>
      <trkpt lat="49.65584" lon="4.7543">
        <ele>217</ele>
        <time>2022-04-03T08:23:37.000Z</time>
      </trkpt>
      <trkpt lat="49.65584" lon="4.7543">
        <ele>217</ele>
        <time>2022-04-03T08:23:38.000Z</time>
      </trkpt>
      <trkpt lat="49.65584" lon="4.7543">
        <ele>217</ele>
        <time>2022-04-03T08:23:39.000Z</time>
      </trkpt>
      <trkpt lat="49.65584" lon="4.7543">
        <ele>217</ele>
        <time>2022-04-03T08:23:40.000Z</time>
      </trkpt>
      <trkpt lat="49.65584" lon="4.75429">
        <ele>217</ele>
        <time>2022-04-03T08:23:41.000Z</time>
      </trkpt>
      <trkpt lat="49.65584" lon="4.75429">
        <ele>217</ele>
        <time>2022-04-03T08:23:42.000Z</time>
      </trkpt>
      <trkpt lat="49.65584" lon="4.75429">
        <ele>217</ele>
        <time>2022-04-03T08:23:43.000Z</time>
      </trkpt>
      <trkpt lat="49.65585" lon="4.75429">
        <ele>217</ele>
        <time>2022-04-03T08:23:44.000Z</time>
      </trkpt>
      <trkpt lat="49.65585" lon="4.75429">
        <ele>217</ele>
        <time>2022-04-03T08:23:45.000Z</time>
      </trkpt>
      <trkpt lat="49.65584" lon="4.75429">
        <ele>217</ele>
        <time>2022-04-03T08:23:46.000Z</time>
      </trkpt>
      <trkpt lat="49.65583" lon="4.7543">
        <ele>217</ele>
        <time>2022-04-03T08:23:47.000Z</time>
      </trkpt>
      <trkpt lat="49.65583" lon="4.75429">
        <ele>217</ele>
        <time>2022-04-03T08:23:48.000Z</time>
      </trkpt>
      <trkpt lat="49.65583" lon="4.75429">
        <ele>216</ele>
        <time>2022-04-03T08:23:49.000Z</time>
      </trkpt>
      <trkpt lat="49.65583" lon="4.75429">
        <ele>216</ele>
        <time>2022-04-03T08:23:50.000Z</time>
      </trkpt>
      <trkpt lat="49.65583" lon="4.75429">
        <ele>216</ele>
        <time>2022-04-03T08:23:51.000Z</time>
      </trkpt>
      <trkpt lat="49.65583" lon="4.75429">
        <ele>216</ele>
        <time>2022-04-03T08:23:52.000Z</time>
      </trkpt>
      <trkpt lat="49.65583" lon="4.75429">
        <ele>216</ele>
        <time>2022-04-03T08:23:53.000Z</time>
      </trkpt>
      <trkpt lat="49.65583" lon="4.75428">
        <ele>216</ele>
        <time>2022-04-03T08:23:54.000Z</time>
      </trkpt>
      <trkpt lat="49.65584" lon="4.75428">
        <ele>216</ele>
        <time>2022-04-03T08:23:55.000Z</time>
      </trkpt>
      <trkpt lat="49.65584" lon="4.75427">
        <ele>216</ele>
        <time>2022-04-03T08:23:56.000Z</time>
      </trkpt>
      <trkpt lat="49.65584" lon="4.75426">
        <ele>216</ele>
        <time>2022-04-03T08:23:57.000Z</time>
      </trkpt>
      <trkpt lat="49.65585" lon="4.75426">
        <ele>216</ele>
        <time>2022-04-03T08:23:58.000Z</time>
      </trkpt>
      <trkpt lat="49.65586" lon="4.75426">
        <ele>216</ele>
        <time>2022-04-03T08:23:59.000Z</time>
      </trkpt>
      <trkpt lat="49.65586" lon="4.75427">
        <ele>216</ele>
        <time>2022-04-03T08:24:00.000Z</time>
      </trkpt>
      <trkpt lat="49.65585" lon="4.75428">
        <ele>216</ele>
        <time>2022-04-03T08:24:01.000Z</time>
      </trkpt>
      <trkpt lat="49.65585" lon="4.75428">
        <ele>216</ele>
        <time>2022-04-03T08:24:02.000Z</time>
      </trkpt>
      <trkpt lat="49.65585" lon="4.75428">
        <ele>216</ele>
        <time>2022-04-03T08:24:03.000Z</time>
      </trkpt>
      <trkpt lat="49.65585" lon="4.75428">
        <ele>216</ele>
        <time>2022-04-03T08:24:04.000Z</time>
      </trkpt>
      <trkpt lat="49.65585" lon="4.75427">
        <ele>216</ele>
        <time>2022-04-03T08:24:05.000Z</time>
      </trkpt>
      <trkpt lat="49.65585" lon="4.75427">
        <ele>216</ele>
        <time>2022-04-03T08:24:06.000Z</time>
      </trkpt>
      <trkpt lat="49.65585" lon="4.75427">
        <ele>216</ele>
        <time>2022-04-03T08:24:07.000Z</time>
      </trkpt>
      <trkpt lat="49.65584" lon="4.75427">
        <ele>216</ele>
        <time>2022-04-03T08:24:08.000Z</time>
      </trkpt>
      <trkpt lat="49.65583" lon="4.75426">
        <ele>216</ele>
        <time>2022-04-03T08:24:09.000Z</time>
      </trkpt>
      <trkpt lat="49.65582" lon="4.75426">
        <ele>216</ele>
        <time>2022-04-03T08:24:10.000Z</time>
      </trkpt>
      <trkpt lat="49.6558" lon="4.75426">
        <ele>216</ele>
        <time>2022-04-03T08:24:11.000Z</time>
      </trkpt>
      <trkpt lat="49.65579" lon="4.75426">
        <ele>216</ele>
        <time>2022-04-03T08:24:12.000Z</time>
      </trkpt>
      <trkpt lat="49.65578" lon="4.75427">
        <ele>216</ele>
        <time>2022-04-03T08:24:13.000Z</time>
      </trkpt>
      <trkpt lat="49.65576" lon="4.75426">
        <ele>216</ele>
        <time>2022-04-03T08:24:14.000Z</time>
      </trkpt>
      <trkpt lat="49.65574" lon="4.75425">
        <ele>216</ele>
        <time>2022-04-03T08:24:15.000Z</time>
      </trkpt>
      <trkpt lat="49.65574" lon="4.75423">
        <ele>216</ele>
        <time>2022-04-03T08:24:16.000Z</time>
      </trkpt>
      <trkpt lat="49.65572" lon="4.75423">
        <ele>216</ele>
        <time>2022-04-03T08:24:17.000Z</time>
      </trkpt>
      <trkpt lat="49.65571" lon="4.75421">
        <ele>215</ele>
        <time>2022-04-03T08:24:18.000Z</time>
      </trkpt>
      <trkpt lat="49.6557" lon="4.75419">
        <ele>215</ele>
        <time>2022-04-03T08:24:19.000Z</time>
      </trkpt>
      <trkpt lat="49.65569" lon="4.75417">
        <ele>215</ele>
        <time>2022-04-03T08:24:20.000Z</time>
      </trkpt>
      <trkpt lat="49.65568" lon="4.75414">
        <ele>215</ele>
        <time>2022-04-03T08:24:21.000Z</time>
      </trkpt>
      <trkpt lat="49.65568" lon="4.75412">
        <ele>215</ele>
        <time>2022-04-03T08:24:22.000Z</time>
      </trkpt>
      <trkpt lat="49.65568" lon="4.75409">
        <ele>215</ele>
        <time>2022-04-03T08:24:23.000Z</time>
      </trkpt>
      <trkpt lat="49.65568" lon="4.75407">
        <ele>215</ele>
        <time>2022-04-03T08:24:24.000Z</time>
      </trkpt>
      <trkpt lat="49.65568" lon="4.75404">
        <ele>215</ele>
        <time>2022-04-03T08:24:25.000Z</time>
      </trkpt>
      <trkpt lat="49.65568" lon="4.75401">
        <ele>215</ele>
        <time>2022-04-03T08:24:26.000Z</time>
      </trkpt>
      <trkpt lat="49.65569" lon="4.75398">
        <ele>215</ele>
        <time>2022-04-03T08:24:27.000Z</time>
      </trkpt>
      <trkpt lat="49.65569" lon="4.75396">
        <ele>215</ele>
        <time>2022-04-03T08:24:28.000Z</time>
      </trkpt>
      <trkpt lat="49.6557" lon="4.75394">
        <ele>215</ele>
        <time>2022-04-03T08:24:29.000Z</time>
      </trkpt>
      <trkpt lat="49.65571" lon="4.75391">
        <ele>216</ele>
        <time>2022-04-03T08:24:30.000Z</time>
      </trkpt>
      <trkpt lat="49.65571" lon="4.7539">
        <ele>216</ele>
        <time>2022-04-03T08:24:31.000Z</time>
      </trkpt>
      <trkpt lat="49.65572" lon="4.75388">
        <ele>216</ele>
        <time>2022-04-03T08:24:32.000Z</time>
      </trkpt>
      <trkpt lat="49.65572" lon="4.75388">
        <ele>216</ele>
        <time>2022-04-03T08:24:33.000Z</time>
      </trkpt>
      <trkpt lat="49.65572" lon="4.75386">
        <ele>216</ele>
        <time>2022-04-03T08:24:34.000Z</time>
      </trkpt>
      <trkpt lat="49.65573" lon="4.75385">
        <ele>217</ele>
        <time>2022-04-03T08:24:35.000Z</time>
      </trkpt>
      <trkpt lat="49.65574" lon="4.75383">
        <ele>217</ele>
        <time>2022-04-03T08:24:36.000Z</time>
      </trkpt>
      <trkpt lat="49.65574" lon="4.7538">
        <ele>217</ele>
        <time>2022-04-03T08:24:37.000Z</time>
      </trkpt>
      <trkpt lat="49.65575" lon="4.75378">
        <ele>218</ele>
        <time>2022-04-03T08:24:38.000Z</time>
      </trkpt>
      <trkpt lat="49.65575" lon="4.75375">
        <ele>218</ele>
        <time>2022-04-03T08:24:39.000Z</time>
      </trkpt>
      <trkpt lat="49.65575" lon="4.75373">
        <ele>218</ele>
        <time>2022-04-03T08:24:40.000Z</time>
      </trkpt>
      <trkpt lat="49.65575" lon="4.75371">
        <ele>218</ele>
        <time>2022-04-03T08:24:41.000Z</time>
      </trkpt>
      <trkpt lat="49.65576" lon="4.75369">
        <ele>219</ele>
        <time>2022-04-03T08:24:42.000Z</time>
      </trkpt>
      <trkpt lat="49.65577" lon="4.75366">
        <ele>219</ele>
        <time>2022-04-03T08:24:43.000Z</time>
      </trkpt>
      <trkpt lat="49.65579" lon="4.75364">
        <ele>219</ele>
        <time>2022-04-03T08:24:44.000Z</time>
      </trkpt>
      <trkpt lat="49.6558" lon="4.75362">
        <ele>219</ele>
        <time>2022-04-03T08:24:45.000Z</time>
      </trkpt>
      <trkpt lat="49.65581" lon="4.7536">
        <ele>219</ele>
        <time>2022-04-03T08:24:46.000Z</time>
      </trkpt>
      <trkpt lat="49.65582" lon="4.75358">
        <ele>219</ele>
        <time>2022-04-03T08:24:47.000Z</time>
      </trkpt>
      <trkpt lat="49.65583" lon="4.75356">
        <ele>220</ele>
        <time>2022-04-03T08:24:48.000Z</time>
      </trkpt>
      <trkpt lat="49.65584" lon="4.75355">
        <ele>220</ele>
        <time>2022-04-03T08:24:49.000Z</time>
      </trkpt>
      <trkpt lat="49.65585" lon="4.75353">
        <ele>220</ele>
        <time>2022-04-03T08:24:50.000Z</time>
      </trkpt>
      <trkpt lat="49.65585" lon="4.75351">
        <ele>220</ele>
        <time>2022-04-03T08:24:51.000Z</time>
      </trkpt>
      <trkpt lat="49.65586" lon="4.7535">
        <ele>220</ele>
        <time>2022-04-03T08:24:52.000Z</time>
      </trkpt>
      <trkpt lat="49.65587" lon="4.75348">
        <ele>220</ele>
        <time>2022-04-03T08:24:53.000Z</time>
      </trkpt>
      <trkpt lat="49.65588" lon="4.75346">
        <ele>220</ele>
        <time>2022-04-03T08:24:54.000Z</time>
      </trkpt>
      <trkpt lat="49.6559" lon="4.75344">
        <ele>220</ele>
        <time>2022-04-03T08:24:55.000Z</time>
      </trkpt>
      <trkpt lat="49.65592" lon="4.75343">
        <ele>220</ele>
        <time>2022-04-03T08:24:56.000Z</time>
      </trkpt>
      <trkpt lat="49.65594" lon="4.75342">
        <ele>220</ele>
        <time>2022-04-03T08:24:57.000Z</time>
      </trkpt>
      <trkpt lat="49.65597" lon="4.75342">
        <ele>220</ele>
        <time>2022-04-03T08:24:58.000Z</time>
      </trkpt>
      <trkpt lat="49.65599" lon="4.75342">
        <ele>220</ele>
        <time>2022-04-03T08:24:59.000Z</time>
      </trkpt>
      <trkpt lat="49.65602" lon="4.75341">
        <ele>220</ele>
        <time>2022-04-03T08:25:00.000Z</time>
      </trkpt>
      <trkpt lat="49.65605" lon="4.7534">
        <ele>220</ele>
        <time>2022-04-03T08:25:01.000Z</time>
      </trkpt>
      <trkpt lat="49.65608" lon="4.75341">
        <ele>219</ele>
        <time>2022-04-03T08:25:02.000Z</time>
      </trkpt>
      <trkpt lat="49.6561" lon="4.75342">
        <ele>219</ele>
        <time>2022-04-03T08:25:03.000Z</time>
      </trkpt>
      <trkpt lat="49.65612" lon="4.75343">
        <ele>219</ele>
        <time>2022-04-03T08:25:04.000Z</time>
      </trkpt>
      <trkpt lat="49.65614" lon="4.75344">
        <ele>219</ele>
        <time>2022-04-03T08:25:05.000Z</time>
      </trkpt>
      <trkpt lat="49.65615" lon="4.75344">
        <ele>219</ele>
        <time>2022-04-03T08:25:06.000Z</time>
      </trkpt>
      <trkpt lat="49.65617" lon="4.75345">
        <ele>219</ele>
        <time>2022-04-03T08:25:07.000Z</time>
      </trkpt>
      <trkpt lat="49.65617" lon="4.75345">
        <ele>219</ele>
        <time>2022-04-03T08:25:08.000Z</time>
      </trkpt>
      <trkpt lat="49.65619" lon="4.75345">
        <ele>219</ele>
        <time>2022-04-03T08:25:09.000Z</time>
      </trkpt>
      <trkpt lat="49.65621" lon="4.75344">
        <ele>219</ele>
        <time>2022-04-03T08:25:10.000Z</time>
      </trkpt>
      <trkpt lat="49.65622" lon="4.75344">
        <ele>219</ele>
        <time>2022-04-03T08:25:11.000Z</time>
      </trkpt>
      <trkpt lat="49.65623" lon="4.75344">
        <ele>219</ele>
        <time>2022-04-03T08:25:12.000Z</time>
      </trkpt>
      <trkpt lat="49.65624" lon="4.75344">
        <ele>218</ele>
        <time>2022-04-03T08:25:13.000Z</time>
      </trkpt>
      <trkpt lat="49.65624" lon="4.75345">
        <ele>218</ele>
        <time>2022-04-03T08:25:14.000Z</time>
      </trkpt>
      <trkpt lat="49.65625" lon="4.75346">
        <ele>218</ele>
        <time>2022-04-03T08:25:15.000Z</time>
      </trkpt>
      <trkpt lat="49.65626" lon="4.75346">
        <ele>218</ele>
        <time>2022-04-03T08:25:16.000Z</time>
      </trkpt>
      <trkpt lat="49.65627" lon="4.75346">
        <ele>218</ele>
        <time>2022-04-03T08:25:17.000Z</time>
      </trkpt>
      <trkpt lat="49.65629" lon="4.75345">
        <ele>218</ele>
        <time>2022-04-03T08:25:18.000Z</time>
      </trkpt>
      <trkpt lat="49.6563" lon="4.75345">
        <ele>218</ele>
        <time>2022-04-03T08:25:19.000Z</time>
      </trkpt>
      <trkpt lat="49.65631" lon="4.75345">
        <ele>218</ele>
        <time>2022-04-03T08:25:20.000Z</time>
      </trkpt>
      <trkpt lat="49.65633" lon="4.75346">
        <ele>217</ele>
        <time>2022-04-03T08:25:21.000Z</time>
      </trkpt>
      <trkpt lat="49.65634" lon="4.75345">
        <ele>217</ele>
        <time>2022-04-03T08:25:22.000Z</time>
      </trkpt>
      <trkpt lat="49.65636" lon="4.75344">
        <ele>217</ele>
        <time>2022-04-03T08:25:23.000Z</time>
      </trkpt>
      <trkpt lat="49.65638" lon="4.75343">
        <ele>217</ele>
        <time>2022-04-03T08:25:24.000Z</time>
      </trkpt>
      <trkpt lat="49.65639" lon="4.75341">
        <ele>217</ele>
        <time>2022-04-03T08:25:25.000Z</time>
      </trkpt>
      <trkpt lat="49.65639" lon="4.7534">
        <ele>217</ele>
        <time>2022-04-03T08:25:26.000Z</time>
      </trkpt>
      <trkpt lat="49.6564" lon="4.75339">
        <ele>216</ele>
        <time>2022-04-03T08:25:27.000Z</time>
      </trkpt>
      <trkpt lat="49.6564" lon="4.75338">
        <ele>216</ele>
        <time>2022-04-03T08:25:28.000Z</time>
      </trkpt>
      <trkpt lat="49.65641" lon="4.75337">
        <ele>216</ele>
        <time>2022-04-03T08:25:29.000Z</time>
      </trkpt>
      <trkpt lat="49.65641" lon="4.75336">
        <ele>216</ele>
        <time>2022-04-03T08:25:30.000Z</time>
      </trkpt>
      <trkpt lat="49.65641" lon="4.75335">
        <ele>216</ele>
        <time>2022-04-03T08:25:31.000Z</time>
      </trkpt>
      <trkpt lat="49.65642" lon="4.75333">
        <ele>216</ele>
        <time>2022-04-03T08:25:32.000Z</time>
      </trkpt>
      <trkpt lat="49.65642" lon="4.75331">
        <ele>216</ele>
        <time>2022-04-03T08:25:33.000Z</time>
      </trkpt>
      <trkpt lat="49.65642" lon="4.7533">
        <ele>216</ele>
        <time>2022-04-03T08:25:34.000Z</time>
      </trkpt>
      <trkpt lat="49.65643" lon="4.75329">
        <ele>216</ele>
        <time>2022-04-03T08:25:35.000Z</time>
      </trkpt>
      <trkpt lat="49.65643" lon="4.75329">
        <ele>216</ele>
        <time>2022-04-03T08:25:36.000Z</time>
      </trkpt>
      <trkpt lat="49.65643" lon="4.75328">
        <ele>216</ele>
        <time>2022-04-03T08:25:37.000Z</time>
      </trkpt>
      <trkpt lat="49.65643" lon="4.75326">
        <ele>216</ele>
        <time>2022-04-03T08:25:38.000Z</time>
      </trkpt>
      <trkpt lat="49.65643" lon="4.75324">
        <ele>217</ele>
        <time>2022-04-03T08:25:39.000Z</time>
      </trkpt>
      <trkpt lat="49.65642" lon="4.75322">
        <ele>217</ele>
        <time>2022-04-03T08:25:40.000Z</time>
      </trkpt>
      <trkpt lat="49.65642" lon="4.75319">
        <ele>217</ele>
        <time>2022-04-03T08:25:41.000Z</time>
      </trkpt>
      <trkpt lat="49.65641" lon="4.75317">
        <ele>217</ele>
        <time>2022-04-03T08:25:42.000Z</time>
      </trkpt>
      <trkpt lat="49.65641" lon="4.75315">
        <ele>218</ele>
        <time>2022-04-03T08:25:43.000Z</time>
      </trkpt>
      <trkpt lat="49.6564" lon="4.75313">
        <ele>218</ele>
        <time>2022-04-03T08:25:44.000Z</time>
      </trkpt>
      <trkpt lat="49.65639" lon="4.7531">
        <ele>218</ele>
        <time>2022-04-03T08:25:45.000Z</time>
      </trkpt>
      <trkpt lat="49.65639" lon="4.75308">
        <ele>218</ele>
        <time>2022-04-03T08:25:46.000Z</time>
      </trkpt>
      <trkpt lat="49.65638" lon="4.75305">
        <ele>218</ele>
        <time>2022-04-03T08:25:47.000Z</time>
      </trkpt>
      <trkpt lat="49.65638" lon="4.75303">
        <ele>219</ele>
        <time>2022-04-03T08:25:48.000Z</time>
      </trkpt>
      <trkpt lat="49.65638" lon="4.75301">
        <ele>219</ele>
        <time>2022-04-03T08:25:49.000Z</time>
      </trkpt>
      <trkpt lat="49.65637" lon="4.75299">
        <ele>219</ele>
        <time>2022-04-03T08:25:50.000Z</time>
      </trkpt>
      <trkpt lat="49.65637" lon="4.75297">
        <ele>220</ele>
        <time>2022-04-03T08:25:51.000Z</time>
      </trkpt>
      <trkpt lat="49.65636" lon="4.75295">
        <ele>220</ele>
        <time>2022-04-03T08:25:52.000Z</time>
      </trkpt>
      <trkpt lat="49.65636" lon="4.75293">
        <ele>220</ele>
        <time>2022-04-03T08:25:53.000Z</time>
      </trkpt>
      <trkpt lat="49.65637" lon="4.75292">
        <ele>220</ele>
        <time>2022-04-03T08:25:54.000Z</time>
      </trkpt>
      <trkpt lat="49.65636" lon="4.75291">
        <ele>221</ele>
        <time>2022-04-03T08:25:55.000Z</time>
      </trkpt>
      <trkpt lat="49.65636" lon="4.7529">
        <ele>221</ele>
        <time>2022-04-03T08:25:56.000Z</time>
      </trkpt>
      <trkpt lat="49.65636" lon="4.75289">
        <ele>221</ele>
        <time>2022-04-03T08:25:57.000Z</time>
      </trkpt>
      <trkpt lat="49.65635" lon="4.75288">
        <ele>221</ele>
        <time>2022-04-03T08:25:58.000Z</time>
      </trkpt>
      <trkpt lat="49.65635" lon="4.75286">
        <ele>222</ele>
        <time>2022-04-03T08:25:59.000Z</time>
      </trkpt>
      <trkpt lat="49.65635" lon="4.75285">
        <ele>222</ele>
        <time>2022-04-03T08:26:00.000Z</time>
      </trkpt>
      <trkpt lat="49.65635" lon="4.75283">
        <ele>222</ele>
        <time>2022-04-03T08:26:01.000Z</time>
      </trkpt>
      <trkpt lat="49.65634" lon="4.75282">
        <ele>223</ele>
        <time>2022-04-03T08:26:02.000Z</time>
      </trkpt>
      <trkpt lat="49.65634" lon="4.7528">
        <ele>223</ele>
        <time>2022-04-03T08:26:03.000Z</time>
      </trkpt>
      <trkpt lat="49.65633" lon="4.75279">
        <ele>223</ele>
        <time>2022-04-03T08:26:04.000Z</time>
      </trkpt>
      <trkpt lat="49.65634" lon="4.75277">
        <ele>224</ele>
        <time>2022-04-03T08:26:05.000Z</time>
      </trkpt>
      <trkpt lat="49.65633" lon="4.75275">
        <ele>224</ele>
        <time>2022-04-03T08:26:06.000Z</time>
      </trkpt>
      <trkpt lat="49.65633" lon="4.75273">
        <ele>224</ele>
        <time>2022-04-03T08:26:07.000Z</time>
      </trkpt>
      <trkpt lat="49.65633" lon="4.75272">
        <ele>225</ele>
        <time>2022-04-03T08:26:08.000Z</time>
      </trkpt>
      <trkpt lat="49.65633" lon="4.7527">
        <ele>225</ele>
        <time>2022-04-03T08:26:09.000Z</time>
      </trkpt>
      <trkpt lat="49.65632" lon="4.75268">
        <ele>225</ele>
        <time>2022-04-03T08:26:10.000Z</time>
      </trkpt>
      <trkpt lat="49.65632" lon="4.75267">
        <ele>225</ele>
        <time>2022-04-03T08:26:11.000Z</time>
      </trkpt>
      <trkpt lat="49.65631" lon="4.75265">
        <ele>225</ele>
        <time>2022-04-03T08:26:12.000Z</time>
      </trkpt>
      <trkpt lat="49.65631" lon="4.75263">
        <ele>226</ele>
        <time>2022-04-03T08:26:13.000Z</time>
      </trkpt>
      <trkpt lat="49.6563" lon="4.75262">
        <ele>226</ele>
        <time>2022-04-03T08:26:14.000Z</time>
      </trkpt>
      <trkpt lat="49.65629" lon="4.75261">
        <ele>226</ele>
        <time>2022-04-03T08:26:15.000Z</time>
      </trkpt>
      <trkpt lat="49.65628" lon="4.7526">
        <ele>226</ele>
        <time>2022-04-03T08:26:16.000Z</time>
      </trkpt>
      <trkpt lat="49.65627" lon="4.75259">
        <ele>226</ele>
        <time>2022-04-03T08:26:17.000Z</time>
      </trkpt>
      <trkpt lat="49.65626" lon="4.75258">
        <ele>226</ele>
        <time>2022-04-03T08:26:18.000Z</time>
      </trkpt>
      <trkpt lat="49.65625" lon="4.75257">
        <ele>226</ele>
        <time>2022-04-03T08:26:19.000Z</time>
      </trkpt>
      <trkpt lat="49.65624" lon="4.75257">
        <ele>227</ele>
        <time>2022-04-03T08:26:20.000Z</time>
      </trkpt>
      <trkpt lat="49.65623" lon="4.75256">
        <ele>227</ele>
        <time>2022-04-03T08:26:21.000Z</time>
      </trkpt>
      <trkpt lat="49.65623" lon="4.75255">
        <ele>227</ele>
        <time>2022-04-03T08:26:22.000Z</time>
      </trkpt>
      <trkpt lat="49.65622" lon="4.75254">
        <ele>227</ele>
        <time>2022-04-03T08:26:23.000Z</time>
      </trkpt>
      <trkpt lat="49.65621" lon="4.75253">
        <ele>227</ele>
        <time>2022-04-03T08:26:24.000Z</time>
      </trkpt>
      <trkpt lat="49.6562" lon="4.75251">
        <ele>227</ele>
        <time>2022-04-03T08:26:25.000Z</time>
      </trkpt>
      <trkpt lat="49.65619" lon="4.75249">
        <ele>228</ele>
        <time>2022-04-03T08:26:26.000Z</time>
      </trkpt>
      <trkpt lat="49.65618" lon="4.75248">
        <ele>228</ele>
        <time>2022-04-03T08:26:27.000Z</time>
      </trkpt>
      <trkpt lat="49.65617" lon="4.75247">
        <ele>228</ele>
        <time>2022-04-03T08:26:28.000Z</time>
      </trkpt>
      <trkpt lat="49.65617" lon="4.75245">
        <ele>228</ele>
        <time>2022-04-03T08:26:29.000Z</time>
      </trkpt>
      <trkpt lat="49.65616" lon="4.75244">
        <ele>229</ele>
        <time>2022-04-03T08:26:30.000Z</time>
      </trkpt>
      <trkpt lat="49.65615" lon="4.75242">
        <ele>229</ele>
        <time>2022-04-03T08:26:31.000Z</time>
      </trkpt>
      <trkpt lat="49.65615" lon="4.75241">
        <ele>229</ele>
        <time>2022-04-03T08:26:32.000Z</time>
      </trkpt>
      <trkpt lat="49.65614" lon="4.75239">
        <ele>230</ele>
        <time>2022-04-03T08:26:33.000Z</time>
      </trkpt>
      <trkpt lat="49.65614" lon="4.75237">
        <ele>230</ele>
        <time>2022-04-03T08:26:34.000Z</time>
      </trkpt>
      <trkpt lat="49.65614" lon="4.75235">
        <ele>230</ele>
        <time>2022-04-03T08:26:35.000Z</time>
      </trkpt>
      <trkpt lat="49.65613" lon="4.75233">
        <ele>231</ele>
        <time>2022-04-03T08:26:36.000Z</time>
      </trkpt>
      <trkpt lat="49.65613" lon="4.75231">
        <ele>231</ele>
        <time>2022-04-03T08:26:37.000Z</time>
      </trkpt>
      <trkpt lat="49.65612" lon="4.7523">
        <ele>231</ele>
        <time>2022-04-03T08:26:38.000Z</time>
      </trkpt>
      <trkpt lat="49.65611" lon="4.75228">
        <ele>231</ele>
        <time>2022-04-03T08:26:39.000Z</time>
      </trkpt>
      <trkpt lat="49.65611" lon="4.75226">
        <ele>231</ele>
        <time>2022-04-03T08:26:40.000Z</time>
      </trkpt>
      <trkpt lat="49.6561" lon="4.75224">
        <ele>231</ele>
        <time>2022-04-03T08:26:41.000Z</time>
      </trkpt>
      <trkpt lat="49.6561" lon="4.75222">
        <ele>231</ele>
        <time>2022-04-03T08:26:42.000Z</time>
      </trkpt>
      <trkpt lat="49.65609" lon="4.7522">
        <ele>232</ele>
        <time>2022-04-03T08:26:43.000Z</time>
      </trkpt>
      <trkpt lat="49.65609" lon="4.75218">
        <ele>232</ele>
        <time>2022-04-03T08:26:44.000Z</time>
      </trkpt>
      <trkpt lat="49.65608" lon="4.75215">
        <ele>232</ele>
        <time>2022-04-03T08:26:45.000Z</time>
      </trkpt>
      <trkpt lat="49.65608" lon="4.75213">
        <ele>232</ele>
        <time>2022-04-03T08:26:46.000Z</time>
      </trkpt>
      <trkpt lat="49.65607" lon="4.75211">
        <ele>232</ele>
        <time>2022-04-03T08:26:47.000Z</time>
      </trkpt>
      <trkpt lat="49.65606" lon="4.75209">
        <ele>232</ele>
        <time>2022-04-03T08:26:48.000Z</time>
      </trkpt>
      <trkpt lat="49.65605" lon="4.75207">
        <ele>232</ele>
        <time>2022-04-03T08:26:49.000Z</time>
      </trkpt>
      <trkpt lat="49.65605" lon="4.75205">
        <ele>232</ele>
        <time>2022-04-03T08:26:50.000Z</time>
      </trkpt>
      <trkpt lat="49.65604" lon="4.75203">
        <ele>232</ele>
        <time>2022-04-03T08:26:51.000Z</time>
      </trkpt>
      <trkpt lat="49.65604" lon="4.75201">
        <ele>232</ele>
        <time>2022-04-03T08:26:52.000Z</time>
      </trkpt>
      <trkpt lat="49.65603" lon="4.75198">
        <ele>233</ele>
        <time>2022-04-03T08:26:53.000Z</time>
      </trkpt>
      <trkpt lat="49.65602" lon="4.75195">
        <ele>233</ele>
        <time>2022-04-03T08:26:54.000Z</time>
      </trkpt>
      <trkpt lat="49.65601" lon="4.75192">
        <ele>233</ele>
        <time>2022-04-03T08:26:55.000Z</time>
      </trkpt>
      <trkpt lat="49.65599" lon="4.75188">
        <ele>233</ele>
        <time>2022-04-03T08:26:56.000Z</time>
      </trkpt>
      <trkpt lat="49.65597" lon="4.75185">
        <ele>233</ele>
        <time>2022-04-03T08:26:57.000Z</time>
      </trkpt>
      <trkpt lat="49.65595" lon="4.75181">
        <ele>233</ele>
        <time>2022-04-03T08:26:58.000Z</time>
      </trkpt>
      <trkpt lat="49.65593" lon="4.75177">
        <ele>234</ele>
        <time>2022-04-03T08:26:59.000Z</time>
      </trkpt>
      <trkpt lat="49.65592" lon="4.75174">
        <ele>234</ele>
        <time>2022-04-03T08:27:00.000Z</time>
      </trkpt>
      <trkpt lat="49.6559" lon="4.75171">
        <ele>234</ele>
        <time>2022-04-03T08:27:01.000Z</time>
      </trkpt>
      <trkpt lat="49.65588" lon="4.75167">
        <ele>234</ele>
        <time>2022-04-03T08:27:02.000Z</time>
      </trkpt>
      <trkpt lat="49.65587" lon="4.75162">
        <ele>234</ele>
        <time>2022-04-03T08:27:03.000Z</time>
      </trkpt>
      <trkpt lat="49.65585" lon="4.75158">
        <ele>234</ele>
        <time>2022-04-03T08:27:04.000Z</time>
      </trkpt>
      <trkpt lat="49.65584" lon="4.75154">
        <ele>234</ele>
        <time>2022-04-03T08:27:05.000Z</time>
      </trkpt>
      <trkpt lat="49.65583" lon="4.7515">
        <ele>234</ele>
        <time>2022-04-03T08:27:06.000Z</time>
      </trkpt>
      <trkpt lat="49.65582" lon="4.75146">
        <ele>235</ele>
        <time>2022-04-03T08:27:07.000Z</time>
      </trkpt>
      <trkpt lat="49.65581" lon="4.75142">
        <ele>235</ele>
        <time>2022-04-03T08:27:08.000Z</time>
      </trkpt>
      <trkpt lat="49.6558" lon="4.75138">
        <ele>235</ele>
        <time>2022-04-03T08:27:09.000Z</time>
      </trkpt>
      <trkpt lat="49.65579" lon="4.75135">
        <ele>235</ele>
        <time>2022-04-03T08:27:10.000Z</time>
      </trkpt>
      <trkpt lat="49.65579" lon="4.7513">
        <ele>235</ele>
        <time>2022-04-03T08:27:11.000Z</time>
      </trkpt>
      <trkpt lat="49.65579" lon="4.75126">
        <ele>236</ele>
        <time>2022-04-03T08:27:12.000Z</time>
      </trkpt>
      <trkpt lat="49.65579" lon="4.75121">
        <ele>236</ele>
        <time>2022-04-03T08:27:13.000Z</time>
      </trkpt>
      <trkpt lat="49.6558" lon="4.75117">
        <ele>236</ele>
        <time>2022-04-03T08:27:14.000Z</time>
      </trkpt>
      <trkpt lat="49.65581" lon="4.75114">
        <ele>236</ele>
        <time>2022-04-03T08:27:15.000Z</time>
      </trkpt>
      <trkpt lat="49.65582" lon="4.7511">
        <ele>236</ele>
        <time>2022-04-03T08:27:16.000Z</time>
      </trkpt>
      <trkpt lat="49.65583" lon="4.75107">
        <ele>236</ele>
        <time>2022-04-03T08:27:17.000Z</time>
      </trkpt>
      <trkpt lat="49.65583" lon="4.75103">
        <ele>236</ele>
        <time>2022-04-03T08:27:18.000Z</time>
      </trkpt>
      <trkpt lat="49.65584" lon="4.751">
        <ele>236</ele>
        <time>2022-04-03T08:27:19.000Z</time>
      </trkpt>
      <trkpt lat="49.65585" lon="4.75097">
        <ele>236</ele>
        <time>2022-04-03T08:27:20.000Z</time>
      </trkpt>
      <trkpt lat="49.65586" lon="4.75093">
        <ele>236</ele>
        <time>2022-04-03T08:27:21.000Z</time>
      </trkpt>
      <trkpt lat="49.65588" lon="4.7509">
        <ele>236</ele>
        <time>2022-04-03T08:27:22.000Z</time>
      </trkpt>
      <trkpt lat="49.65589" lon="4.75087">
        <ele>236</ele>
        <time>2022-04-03T08:27:23.000Z</time>
      </trkpt>
      <trkpt lat="49.65591" lon="4.75083">
        <ele>236</ele>
        <time>2022-04-03T08:27:24.000Z</time>
      </trkpt>
      <trkpt lat="49.65592" lon="4.7508">
        <ele>236</ele>
        <time>2022-04-03T08:27:25.000Z</time>
      </trkpt>
      <trkpt lat="49.65594" lon="4.75078">
        <ele>237</ele>
        <time>2022-04-03T08:27:26.000Z</time>
      </trkpt>
      <trkpt lat="49.65594" lon="4.75076">
        <ele>237</ele>
        <time>2022-04-03T08:27:27.000Z</time>
      </trkpt>
      <trkpt lat="49.65595" lon="4.75074">
        <ele>237</ele>
        <time>2022-04-03T08:27:28.000Z</time>
      </trkpt>
      <trkpt lat="49.65595" lon="4.75071">
        <ele>237</ele>
        <time>2022-04-03T08:27:29.000Z</time>
      </trkpt>
      <trkpt lat="49.65596" lon="4.75069">
        <ele>237</ele>
        <time>2022-04-03T08:27:30.000Z</time>
      </trkpt>
      <trkpt lat="49.65596" lon="4.75066">
        <ele>237</ele>
        <time>2022-04-03T08:27:31.000Z</time>
      </trkpt>
      <trkpt lat="49.65595" lon="4.75063">
        <ele>237</ele>
        <time>2022-04-03T08:27:32.000Z</time>
      </trkpt>
      <trkpt lat="49.65595" lon="4.75059">
        <ele>237</ele>
        <time>2022-04-03T08:27:33.000Z</time>
      </trkpt>
      <trkpt lat="49.65594" lon="4.75054">
        <ele>238</ele>
        <time>2022-04-03T08:27:34.000Z</time>
      </trkpt>
      <trkpt lat="49.65594" lon="4.7505">
        <ele>238</ele>
        <time>2022-04-03T08:27:35.000Z</time>
      </trkpt>
      <trkpt lat="49.65593" lon="4.75046">
        <ele>238</ele>
        <time>2022-04-03T08:27:36.000Z</time>
      </trkpt>
      <trkpt lat="49.65593" lon="4.75043">
        <ele>239</ele>
        <time>2022-04-03T08:27:37.000Z</time>
      </trkpt>
      <trkpt lat="49.65592" lon="4.75041">
        <ele>239</ele>
        <time>2022-04-03T08:27:38.000Z</time>
      </trkpt>
      <trkpt lat="49.65592" lon="4.75039">
        <ele>239</ele>
        <time>2022-04-03T08:27:39.000Z</time>
      </trkpt>
      <trkpt lat="49.65592" lon="4.75036">
        <ele>239</ele>
        <time>2022-04-03T08:27:40.000Z</time>
      </trkpt>
      <trkpt lat="49.65591" lon="4.75033">
        <ele>240</ele>
        <time>2022-04-03T08:27:41.000Z</time>
      </trkpt>
      <trkpt lat="49.65591" lon="4.7503">
        <ele>240</ele>
        <time>2022-04-03T08:27:42.000Z</time>
      </trkpt>
      <trkpt lat="49.65592" lon="4.75027">
        <ele>240</ele>
        <time>2022-04-03T08:27:43.000Z</time>
      </trkpt>
      <trkpt lat="49.65591" lon="4.75024">
        <ele>240</ele>
        <time>2022-04-03T08:27:44.000Z</time>
      </trkpt>
      <trkpt lat="49.65591" lon="4.75022">
        <ele>240</ele>
        <time>2022-04-03T08:27:45.000Z</time>
      </trkpt>
      <trkpt lat="49.65591" lon="4.75019">
        <ele>240</ele>
        <time>2022-04-03T08:27:46.000Z</time>
      </trkpt>
      <trkpt lat="49.6559" lon="4.75017">
        <ele>241</ele>
        <time>2022-04-03T08:27:47.000Z</time>
      </trkpt>
      <trkpt lat="49.65591" lon="4.75014">
        <ele>241</ele>
        <time>2022-04-03T08:27:48.000Z</time>
      </trkpt>
      <trkpt lat="49.6559" lon="4.75011">
        <ele>241</ele>
        <time>2022-04-03T08:27:49.000Z</time>
      </trkpt>
      <trkpt lat="49.6559" lon="4.75008">
        <ele>241</ele>
        <time>2022-04-03T08:27:50.000Z</time>
      </trkpt>
      <trkpt lat="49.65591" lon="4.75005">
        <ele>241</ele>
        <time>2022-04-03T08:27:51.000Z</time>
      </trkpt>
      <trkpt lat="49.65592" lon="4.75002">
        <ele>241</ele>
        <time>2022-04-03T08:27:52.000Z</time>
      </trkpt>
      <trkpt lat="49.65594" lon="4.75001">
        <ele>241</ele>
        <time>2022-04-03T08:27:53.000Z</time>
      </trkpt>
      <trkpt lat="49.65596" lon="4.75002">
        <ele>241</ele>
        <time>2022-04-03T08:27:54.000Z</time>
      </trkpt>
      <trkpt lat="49.65598" lon="4.75002">
        <ele>242</ele>
        <time>2022-04-03T08:27:55.000Z</time>
      </trkpt>
      <trkpt lat="49.65599" lon="4.75003">
        <ele>242</ele>
        <time>2022-04-03T08:27:56.000Z</time>
      </trkpt>
      <trkpt lat="49.65601" lon="4.75002">
        <ele>242</ele>
        <time>2022-04-03T08:27:57.000Z</time>
      </trkpt>
      <trkpt lat="49.65603" lon="4.75001">
        <ele>242</ele>
        <time>2022-04-03T08:27:58.000Z</time>
      </trkpt>
      <trkpt lat="49.65605" lon="4.74999">
        <ele>242</ele>
        <time>2022-04-03T08:27:59.000Z</time>
      </trkpt>
      <trkpt lat="49.65608" lon="4.75">
        <ele>242</ele>
        <time>2022-04-03T08:28:00.000Z</time>
      </trkpt>
      <trkpt lat="49.65609" lon="4.75001">
        <ele>242</ele>
        <time>2022-04-03T08:28:01.000Z</time>
      </trkpt>
      <trkpt lat="49.65611" lon="4.75001">
        <ele>242</ele>
        <time>2022-04-03T08:28:02.000Z</time>
      </trkpt>
      <trkpt lat="49.65613" lon="4.75001">
        <ele>241</ele>
        <time>2022-04-03T08:28:03.000Z</time>
      </trkpt>
      <trkpt lat="49.65616" lon="4.75">
        <ele>241</ele>
        <time>2022-04-03T08:28:04.000Z</time>
      </trkpt>
      <trkpt lat="49.65618" lon="4.75">
        <ele>241</ele>
        <time>2022-04-03T08:28:05.000Z</time>
      </trkpt>
      <trkpt lat="49.6562" lon="4.75">
        <ele>241</ele>
        <time>2022-04-03T08:28:06.000Z</time>
      </trkpt>
      <trkpt lat="49.65623" lon="4.75">
        <ele>241</ele>
        <time>2022-04-03T08:28:07.000Z</time>
      </trkpt>
      <trkpt lat="49.65625" lon="4.75001">
        <ele>241</ele>
        <time>2022-04-03T08:28:08.000Z</time>
      </trkpt>
      <trkpt lat="49.65627" lon="4.75003">
        <ele>241</ele>
        <time>2022-04-03T08:28:09.000Z</time>
      </trkpt>
      <trkpt lat="49.65629" lon="4.75005">
        <ele>241</ele>
        <time>2022-04-03T08:28:10.000Z</time>
      </trkpt>
      <trkpt lat="49.6563" lon="4.75007">
        <ele>241</ele>
        <time>2022-04-03T08:28:11.000Z</time>
      </trkpt>
      <trkpt lat="49.65632" lon="4.7501">
        <ele>242</ele>
        <time>2022-04-03T08:28:12.000Z</time>
      </trkpt>
      <trkpt lat="49.65634" lon="4.75011">
        <ele>242</ele>
        <time>2022-04-03T08:28:13.000Z</time>
      </trkpt>
      <trkpt lat="49.65635" lon="4.75013">
        <ele>242</ele>
        <time>2022-04-03T08:28:14.000Z</time>
      </trkpt>
      <trkpt lat="49.65637" lon="4.75015">
        <ele>242</ele>
        <time>2022-04-03T08:28:15.000Z</time>
      </trkpt>
      <trkpt lat="49.65638" lon="4.75018">
        <ele>242</ele>
        <time>2022-04-03T08:28:16.000Z</time>
      </trkpt>
      <trkpt lat="49.65639" lon="4.7502">
        <ele>242</ele>
        <time>2022-04-03T08:28:17.000Z</time>
      </trkpt>
      <trkpt lat="49.65641" lon="4.75022">
        <ele>242</ele>
        <time>2022-04-03T08:28:18.000Z</time>
      </trkpt>
      <trkpt lat="49.65642" lon="4.75025">
        <ele>242</ele>
        <time>2022-04-03T08:28:19.000Z</time>
      </trkpt>
      <trkpt lat="49.65644" lon="4.75029">
        <ele>243</ele>
        <time>2022-04-03T08:28:20.000Z</time>
      </trkpt>
      <trkpt lat="49.65645" lon="4.75032">
        <ele>243</ele>
        <time>2022-04-03T08:28:21.000Z</time>
      </trkpt>
      <trkpt lat="49.65647" lon="4.75035">
        <ele>243</ele>
        <time>2022-04-03T08:28:22.000Z</time>
      </trkpt>
      <trkpt lat="49.6565" lon="4.75038">
        <ele>243</ele>
        <time>2022-04-03T08:28:23.000Z</time>
      </trkpt>
      <trkpt lat="49.65653" lon="4.75039">
        <ele>243</ele>
        <time>2022-04-03T08:28:24.000Z</time>
      </trkpt>
      <trkpt lat="49.65656" lon="4.75039">
        <ele>243</ele>
        <time>2022-04-03T08:28:25.000Z</time>
      </trkpt>
      <trkpt lat="49.6566" lon="4.7504">
        <ele>243</ele>
        <time>2022-04-03T08:28:26.000Z</time>
      </trkpt>
      <trkpt lat="49.65663" lon="4.7504">
        <ele>243</ele>
        <time>2022-04-03T08:28:27.000Z</time>
      </trkpt>
      <trkpt lat="49.65667" lon="4.75041">
        <ele>243</ele>
        <time>2022-04-03T08:28:28.000Z</time>
      </trkpt>
      <trkpt lat="49.65671" lon="4.75044">
        <ele>243</ele>
        <time>2022-04-03T08:28:29.000Z</time>
      </trkpt>
      <trkpt lat="49.65675" lon="4.75047">
        <ele>244</ele>
        <time>2022-04-03T08:28:30.000Z</time>
      </trkpt>
      <trkpt lat="49.6568" lon="4.7505">
        <ele>244</ele>
        <time>2022-04-03T08:28:31.000Z</time>
      </trkpt>
      <trkpt lat="49.65684" lon="4.75054">
        <ele>244</ele>
        <time>2022-04-03T08:28:32.000Z</time>
      </trkpt>
      <trkpt lat="49.65689" lon="4.75058">
        <ele>244</ele>
        <time>2022-04-03T08:28:33.000Z</time>
      </trkpt>
      <trkpt lat="49.65695" lon="4.75062">
        <ele>244</ele>
        <time>2022-04-03T08:28:34.000Z</time>
      </trkpt>
      <trkpt lat="49.657" lon="4.75066">
        <ele>244</ele>
        <time>2022-04-03T08:28:35.000Z</time>
      </trkpt>
      <trkpt lat="49.65704" lon="4.75071">
        <ele>244</ele>
        <time>2022-04-03T08:28:36.000Z</time>
      </trkpt>
      <trkpt lat="49.65709" lon="4.75075">
        <ele>244</ele>
        <time>2022-04-03T08:28:37.000Z</time>
      </trkpt>
      <trkpt lat="49.65714" lon="4.75078">
        <ele>245</ele>
        <time>2022-04-03T08:28:38.000Z</time>
      </trkpt>
      <trkpt lat="49.6572" lon="4.75081">
        <ele>245</ele>
        <time>2022-04-03T08:28:39.000Z</time>
      </trkpt>
      <trkpt lat="49.65726" lon="4.75085">
        <ele>245</ele>
        <time>2022-04-03T08:28:40.000Z</time>
      </trkpt>
      <trkpt lat="49.65733" lon="4.75088">
        <ele>245</ele>
        <time>2022-04-03T08:28:41.000Z</time>
      </trkpt>
      <trkpt lat="49.65741" lon="4.75091">
        <ele>245</ele>
        <time>2022-04-03T08:28:42.000Z</time>
      </trkpt>
      <trkpt lat="49.65749" lon="4.75095">
        <ele>245</ele>
        <time>2022-04-03T08:28:43.000Z</time>
      </trkpt>
      <trkpt lat="49.65757" lon="4.75098">
        <ele>245</ele>
        <time>2022-04-03T08:28:44.000Z</time>
      </trkpt>
      <trkpt lat="49.65766" lon="4.75101">
        <ele>245</ele>
        <time>2022-04-03T08:28:45.000Z</time>
      </trkpt>
      <trkpt lat="49.65774" lon="4.75104">
        <ele>245</ele>
        <time>2022-04-03T08:28:46.000Z</time>
      </trkpt>
      <trkpt lat="49.65782" lon="4.75107">
        <ele>245</ele>
        <time>2022-04-03T08:28:47.000Z</time>
      </trkpt>
      <trkpt lat="49.6579" lon="4.75111">
        <ele>246</ele>
        <time>2022-04-03T08:28:48.000Z</time>
      </trkpt>
      <trkpt lat="49.65797" lon="4.75115">
        <ele>246</ele>
        <time>2022-04-03T08:28:49.000Z</time>
      </trkpt>
      <trkpt lat="49.65805" lon="4.7512">
        <ele>245</ele>
        <time>2022-04-03T08:28:50.000Z</time>
      </trkpt>
      <trkpt lat="49.65812" lon="4.75124">
        <ele>245</ele>
        <time>2022-04-03T08:28:51.000Z</time>
      </trkpt>
      <trkpt lat="49.65819" lon="4.75128">
        <ele>245</ele>
        <time>2022-04-03T08:28:52.000Z</time>
      </trkpt>
      <trkpt lat="49.65825" lon="4.75133">
        <ele>245</ele>
        <time>2022-04-03T08:28:53.000Z</time>
      </trkpt>
      <trkpt lat="49.65831" lon="4.75137">
        <ele>245</ele>
        <time>2022-04-03T08:28:54.000Z</time>
      </trkpt>
      <trkpt lat="49.65836" lon="4.7514">
        <ele>245</ele>
        <time>2022-04-03T08:28:55.000Z</time>
      </trkpt>
      <trkpt lat="49.65842" lon="4.75143">
        <ele>245</ele>
        <time>2022-04-03T08:28:56.000Z</time>
      </trkpt>
      <trkpt lat="49.65847" lon="4.75147">
        <ele>245</ele>
        <time>2022-04-03T08:28:57.000Z</time>
      </trkpt>
      <trkpt lat="49.65853" lon="4.7515">
        <ele>245</ele>
        <time>2022-04-03T08:28:58.000Z</time>
      </trkpt>
      <trkpt lat="49.65858" lon="4.75154">
        <ele>245</ele>
        <time>2022-04-03T08:28:59.000Z</time>
      </trkpt>
      <trkpt lat="49.65864" lon="4.75158">
        <ele>244</ele>
        <time>2022-04-03T08:29:00.000Z</time>
      </trkpt>
      <trkpt lat="49.65869" lon="4.75163">
        <ele>244</ele>
        <time>2022-04-03T08:29:01.000Z</time>
      </trkpt>
      <trkpt lat="49.65874" lon="4.75167">
        <ele>244</ele>
        <time>2022-04-03T08:29:02.000Z</time>
      </trkpt>
      <trkpt lat="49.65879" lon="4.75171">
        <ele>244</ele>
        <time>2022-04-03T08:29:03.000Z</time>
      </trkpt>
      <trkpt lat="49.65884" lon="4.75175">
        <ele>244</ele>
        <time>2022-04-03T08:29:04.000Z</time>
      </trkpt>
      <trkpt lat="49.65889" lon="4.75178">
        <ele>244</ele>
        <time>2022-04-03T08:29:05.000Z</time>
      </trkpt>
      <trkpt lat="49.65894" lon="4.75183">
        <ele>244</ele>
        <time>2022-04-03T08:29:06.000Z</time>
      </trkpt>
      <trkpt lat="49.65899" lon="4.75187">
        <ele>244</ele>
        <time>2022-04-03T08:29:07.000Z</time>
      </trkpt>
      <trkpt lat="49.65904" lon="4.7519">
        <ele>244</ele>
        <time>2022-04-03T08:29:08.000Z</time>
      </trkpt>
      <trkpt lat="49.65908" lon="4.75194">
        <ele>244</ele>
        <time>2022-04-03T08:29:09.000Z</time>
      </trkpt>
      <trkpt lat="49.65912" lon="4.75198">
        <ele>244</ele>
        <time>2022-04-03T08:29:10.000Z</time>
      </trkpt>
      <trkpt lat="49.65917" lon="4.75201">
        <ele>244</ele>
        <time>2022-04-03T08:29:11.000Z</time>
      </trkpt>
      <trkpt lat="49.65922" lon="4.75203">
        <ele>244</ele>
        <time>2022-04-03T08:29:12.000Z</time>
      </trkpt>
      <trkpt lat="49.65927" lon="4.75206">
        <ele>244</ele>
        <time>2022-04-03T08:29:13.000Z</time>
      </trkpt>
      <trkpt lat="49.65931" lon="4.75208">
        <ele>244</ele>
        <time>2022-04-03T08:29:14.000Z</time>
      </trkpt>
      <trkpt lat="49.65935" lon="4.75211">
        <ele>244</ele>
        <time>2022-04-03T08:29:15.000Z</time>
      </trkpt>
      <trkpt lat="49.6594" lon="4.75213">
        <ele>244</ele>
        <time>2022-04-03T08:29:16.000Z</time>
      </trkpt>
      <trkpt lat="49.65945" lon="4.75216">
        <ele>244</ele>
        <time>2022-04-03T08:29:17.000Z</time>
      </trkpt>
      <trkpt lat="49.6595" lon="4.75217">
        <ele>244</ele>
        <time>2022-04-03T08:29:18.000Z</time>
      </trkpt>
      <trkpt lat="49.65956" lon="4.75219">
        <ele>244</ele>
        <time>2022-04-03T08:29:19.000Z</time>
      </trkpt>
      <trkpt lat="49.6596" lon="4.75222">
        <ele>244</ele>
        <time>2022-04-03T08:29:20.000Z</time>
      </trkpt>
      <trkpt lat="49.65964" lon="4.75225">
        <ele>244</ele>
        <time>2022-04-03T08:29:21.000Z</time>
      </trkpt>
      <trkpt lat="49.65968" lon="4.75229">
        <ele>244</ele>
        <time>2022-04-03T08:29:22.000Z</time>
      </trkpt>
      <trkpt lat="49.65971" lon="4.75234">
        <ele>244</ele>
        <time>2022-04-03T08:29:23.000Z</time>
      </trkpt>
      <trkpt lat="49.65975" lon="4.75238">
        <ele>244</ele>
        <time>2022-04-03T08:29:24.000Z</time>
      </trkpt>
      <trkpt lat="49.65979" lon="4.75241">
        <ele>244</ele>
        <time>2022-04-03T08:29:25.000Z</time>
      </trkpt>
      <trkpt lat="49.65983" lon="4.75245">
        <ele>244</ele>
        <time>2022-04-03T08:29:26.000Z</time>
      </trkpt>
      <trkpt lat="49.65988" lon="4.75249">
        <ele>244</ele>
        <time>2022-04-03T08:29:27.000Z</time>
      </trkpt>
      <trkpt lat="49.65993" lon="4.75253">
        <ele>244</ele>
        <time>2022-04-03T08:29:28.000Z</time>
      </trkpt>
      <trkpt lat="49.65998" lon="4.75259">
        <ele>244</ele>
        <time>2022-04-03T08:29:29.000Z</time>
      </trkpt>
      <trkpt lat="49.66004" lon="4.75264">
        <ele>244</ele>
        <time>2022-04-03T08:29:30.000Z</time>
      </trkpt>
      <trkpt lat="49.6601" lon="4.7527">
        <ele>244</ele>
        <time>2022-04-03T08:29:31.000Z</time>
      </trkpt>
      <trkpt lat="49.66016" lon="4.75276">
        <ele>244</ele>
        <time>2022-04-03T08:29:32.000Z</time>
      </trkpt>
      <trkpt lat="49.66023" lon="4.75282">
        <ele>244</ele>
        <time>2022-04-03T08:29:33.000Z</time>
      </trkpt>
      <trkpt lat="49.6603" lon="4.75288">
        <ele>244</ele>
        <time>2022-04-03T08:29:34.000Z</time>
      </trkpt>
      <trkpt lat="49.66037" lon="4.75294">
        <ele>244</ele>
        <time>2022-04-03T08:29:35.000Z</time>
      </trkpt>
      <trkpt lat="49.66044" lon="4.75299">
        <ele>244</ele>
        <time>2022-04-03T08:29:36.000Z</time>
      </trkpt>
      <trkpt lat="49.66051" lon="4.75305">
        <ele>244</ele>
        <time>2022-04-03T08:29:37.000Z</time>
      </trkpt>
      <trkpt lat="49.66059" lon="4.75311">
        <ele>244</ele>
        <time>2022-04-03T08:29:38.000Z</time>
      </trkpt>
      <trkpt lat="49.66066" lon="4.75317">
        <ele>244</ele>
        <time>2022-04-03T08:29:39.000Z</time>
      </trkpt>
      <trkpt lat="49.66073" lon="4.75323">
        <ele>244</ele>
        <time>2022-04-03T08:29:40.000Z</time>
      </trkpt>
      <trkpt lat="49.6608" lon="4.75328">
        <ele>244</ele>
        <time>2022-04-03T08:29:41.000Z</time>
      </trkpt>
      <trkpt lat="49.66086" lon="4.75334">
        <ele>244</ele>
        <time>2022-04-03T08:29:42.000Z</time>
      </trkpt>
      <trkpt lat="49.66092" lon="4.75339">
        <ele>243</ele>
        <time>2022-04-03T08:29:43.000Z</time>
      </trkpt>
      <trkpt lat="49.66099" lon="4.75345">
        <ele>243</ele>
        <time>2022-04-03T08:29:44.000Z</time>
      </trkpt>
      <trkpt lat="49.66105" lon="4.75351">
        <ele>243</ele>
        <time>2022-04-03T08:29:45.000Z</time>
      </trkpt>
      <trkpt lat="49.66112" lon="4.75357">
        <ele>242</ele>
        <time>2022-04-03T08:29:46.000Z</time>
      </trkpt>
      <trkpt lat="49.66119" lon="4.75364">
        <ele>242</ele>
        <time>2022-04-03T08:29:47.000Z</time>
      </trkpt>
      <trkpt lat="49.66125" lon="4.75371">
        <ele>241</ele>
        <time>2022-04-03T08:29:48.000Z</time>
      </trkpt>
      <trkpt lat="49.66131" lon="4.75378">
        <ele>241</ele>
        <time>2022-04-03T08:29:49.000Z</time>
      </trkpt>
      <trkpt lat="49.66136" lon="4.75386">
        <ele>240</ele>
        <time>2022-04-03T08:29:50.000Z</time>
      </trkpt>
      <trkpt lat="49.66142" lon="4.75394">
        <ele>240</ele>
        <time>2022-04-03T08:29:51.000Z</time>
      </trkpt>
      <trkpt lat="49.66148" lon="4.75402">
        <ele>239</ele>
        <time>2022-04-03T08:29:52.000Z</time>
      </trkpt>
      <trkpt lat="49.66153" lon="4.7541">
        <ele>238</ele>
        <time>2022-04-03T08:29:53.000Z</time>
      </trkpt>
      <trkpt lat="49.66159" lon="4.75418">
        <ele>237</ele>
        <time>2022-04-03T08:29:54.000Z</time>
      </trkpt>
      <trkpt lat="49.66164" lon="4.75424">
        <ele>237</ele>
        <time>2022-04-03T08:29:55.000Z</time>
      </trkpt>
      <trkpt lat="49.6617" lon="4.7543">
        <ele>236</ele>
        <time>2022-04-03T08:29:56.000Z</time>
      </trkpt>
      <trkpt lat="49.66177" lon="4.75435">
        <ele>235</ele>
        <time>2022-04-03T08:29:57.000Z</time>
      </trkpt>
      <trkpt lat="49.66184" lon="4.7544">
        <ele>234</ele>
        <time>2022-04-03T08:29:58.000Z</time>
      </trkpt>
      <trkpt lat="49.6619" lon="4.75445">
        <ele>234</ele>
        <time>2022-04-03T08:29:59.000Z</time>
      </trkpt>
      <trkpt lat="49.66197" lon="4.7545">
        <ele>233</ele>
        <time>2022-04-03T08:30:00.000Z</time>
      </trkpt>
      <trkpt lat="49.66203" lon="4.75454">
        <ele>232</ele>
        <time>2022-04-03T08:30:01.000Z</time>
      </trkpt>
      <trkpt lat="49.66209" lon="4.75458">
        <ele>231</ele>
        <time>2022-04-03T08:30:02.000Z</time>
      </trkpt>
      <trkpt lat="49.66215" lon="4.75461">
        <ele>230</ele>
        <time>2022-04-03T08:30:03.000Z</time>
      </trkpt>
      <trkpt lat="49.66221" lon="4.75464">
        <ele>229</ele>
        <time>2022-04-03T08:30:04.000Z</time>
      </trkpt>
      <trkpt lat="49.66228" lon="4.75466">
        <ele>228</ele>
        <time>2022-04-03T08:30:05.000Z</time>
      </trkpt>
      <trkpt lat="49.66234" lon="4.7547">
        <ele>228</ele>
        <time>2022-04-03T08:30:06.000Z</time>
      </trkpt>
      <trkpt lat="49.66241" lon="4.75474">
        <ele>227</ele>
        <time>2022-04-03T08:30:07.000Z</time>
      </trkpt>
      <trkpt lat="49.66248" lon="4.75477">
        <ele>226</ele>
        <time>2022-04-03T08:30:08.000Z</time>
      </trkpt>
      <trkpt lat="49.66255" lon="4.75481">
        <ele>225</ele>
        <time>2022-04-03T08:30:09.000Z</time>
      </trkpt>
      <trkpt lat="49.66262" lon="4.75484">
        <ele>224</ele>
        <time>2022-04-03T08:30:10.000Z</time>
      </trkpt>
      <trkpt lat="49.66268" lon="4.75487">
        <ele>222</ele>
        <time>2022-04-03T08:30:11.000Z</time>
      </trkpt>
      <trkpt lat="49.66274" lon="4.7549">
        <ele>221</ele>
        <time>2022-04-03T08:30:12.000Z</time>
      </trkpt>
      <trkpt lat="49.6628" lon="4.75493">
        <ele>220</ele>
        <time>2022-04-03T08:30:13.000Z</time>
      </trkpt>
      <trkpt lat="49.66286" lon="4.75495">
        <ele>219</ele>
        <time>2022-04-03T08:30:14.000Z</time>
      </trkpt>
      <trkpt lat="49.66291" lon="4.75497">
        <ele>217</ele>
        <time>2022-04-03T08:30:15.000Z</time>
      </trkpt>
      <trkpt lat="49.66297" lon="4.75498">
        <ele>216</ele>
        <time>2022-04-03T08:30:16.000Z</time>
      </trkpt>
      <trkpt lat="49.66303" lon="4.75499">
        <ele>215</ele>
        <time>2022-04-03T08:30:17.000Z</time>
      </trkpt>
      <trkpt lat="49.66309" lon="4.755">
        <ele>213</ele>
        <time>2022-04-03T08:30:18.000Z</time>
      </trkpt>
      <trkpt lat="49.66316" lon="4.755">
        <ele>212</ele>
        <time>2022-04-03T08:30:19.000Z</time>
      </trkpt>
      <trkpt lat="49.66322" lon="4.75502">
        <ele>211</ele>
        <time>2022-04-03T08:30:20.000Z</time>
      </trkpt>
      <trkpt lat="49.66328" lon="4.75503">
        <ele>209</ele>
        <time>2022-04-03T08:30:21.000Z</time>
      </trkpt>
      <trkpt lat="49.66335" lon="4.75504">
        <ele>208</ele>
        <time>2022-04-03T08:30:22.000Z</time>
      </trkpt>
      <trkpt lat="49.66341" lon="4.75505">
        <ele>207</ele>
        <time>2022-04-03T08:30:23.000Z</time>
      </trkpt>
      <trkpt lat="49.66348" lon="4.75506">
        <ele>206</ele>
        <time>2022-04-03T08:30:24.000Z</time>
      </trkpt>
      <trkpt lat="49.66355" lon="4.75508">
        <ele>205</ele>
        <time>2022-04-03T08:30:25.000Z</time>
      </trkpt>
      <trkpt lat="49.66361" lon="4.75509">
        <ele>204</ele>
        <time>2022-04-03T08:30:26.000Z</time>
      </trkpt>
      <trkpt lat="49.66368" lon="4.7551">
        <ele>203</ele>
        <time>2022-04-03T08:30:27.000Z</time>
      </trkpt>
      <trkpt lat="49.66375" lon="4.75512">
        <ele>202</ele>
        <time>2022-04-03T08:30:28.000Z</time>
      </trkpt>
      <trkpt lat="49.66381" lon="4.75514">
        <ele>202</ele>
        <time>2022-04-03T08:30:29.000Z</time>
      </trkpt>
      <trkpt lat="49.66388" lon="4.75515">
        <ele>201</ele>
        <time>2022-04-03T08:30:30.000Z</time>
      </trkpt>
      <trkpt lat="49.66395" lon="4.75515">
        <ele>201</ele>
        <time>2022-04-03T08:30:31.000Z</time>
      </trkpt>
      <trkpt lat="49.664" lon="4.75515">
        <ele>201</ele>
        <time>2022-04-03T08:30:32.000Z</time>
      </trkpt>
      <trkpt lat="49.66405" lon="4.75515">
        <ele>200</ele>
        <time>2022-04-03T08:30:33.000Z</time>
      </trkpt>
      <trkpt lat="49.66408" lon="4.75515">
        <ele>200</ele>
        <time>2022-04-03T08:30:34.000Z</time>
      </trkpt>
      <trkpt lat="49.66411" lon="4.75514">
        <ele>200</ele>
        <time>2022-04-03T08:30:35.000Z</time>
      </trkpt>
      <trkpt lat="49.66413" lon="4.75513">
        <ele>200</ele>
        <time>2022-04-03T08:30:36.000Z</time>
      </trkpt>
      <trkpt lat="49.66415" lon="4.75513">
        <ele>200</ele>
        <time>2022-04-03T08:30:37.000Z</time>
      </trkpt>
      <trkpt lat="49.66417" lon="4.75514">
        <ele>200</ele>
        <time>2022-04-03T08:30:38.000Z</time>
      </trkpt>
      <trkpt lat="49.66419" lon="4.75516">
        <ele>199</ele>
        <time>2022-04-03T08:30:39.000Z</time>
      </trkpt>
      <trkpt lat="49.6642" lon="4.75517">
        <ele>199</ele>
        <time>2022-04-03T08:30:40.000Z</time>
      </trkpt>
      <trkpt lat="49.66422" lon="4.75518">
        <ele>199</ele>
        <time>2022-04-03T08:30:41.000Z</time>
      </trkpt>
      <trkpt lat="49.66423" lon="4.75518">
        <ele>199</ele>
        <time>2022-04-03T08:30:42.000Z</time>
      </trkpt>
      <trkpt lat="49.66425" lon="4.75518">
        <ele>198</ele>
        <time>2022-04-03T08:30:43.000Z</time>
      </trkpt>
      <trkpt lat="49.66428" lon="4.75517">
        <ele>198</ele>
        <time>2022-04-03T08:30:44.000Z</time>
      </trkpt>
      <trkpt lat="49.6643" lon="4.75517">
        <ele>198</ele>
        <time>2022-04-03T08:30:45.000Z</time>
      </trkpt>
      <trkpt lat="49.66432" lon="4.75516">
        <ele>198</ele>
        <time>2022-04-03T08:30:46.000Z</time>
      </trkpt>
      <trkpt lat="49.66434" lon="4.75516">
        <ele>198</ele>
        <time>2022-04-03T08:30:47.000Z</time>
      </trkpt>
      <trkpt lat="49.66436" lon="4.75516">
        <ele>198</ele>
        <time>2022-04-03T08:30:48.000Z</time>
      </trkpt>
      <trkpt lat="49.66438" lon="4.75515">
        <ele>198</ele>
        <time>2022-04-03T08:30:49.000Z</time>
      </trkpt>
      <trkpt lat="49.6644" lon="4.75514">
        <ele>198</ele>
        <time>2022-04-03T08:30:50.000Z</time>
      </trkpt>
      <trkpt lat="49.66441" lon="4.75514">
        <ele>198</ele>
        <time>2022-04-03T08:30:51.000Z</time>
      </trkpt>
      <trkpt lat="49.66442" lon="4.75513">
        <ele>198</ele>
        <time>2022-04-03T08:30:52.000Z</time>
      </trkpt>
      <trkpt lat="49.66443" lon="4.75512">
        <ele>199</ele>
        <time>2022-04-03T08:30:53.000Z</time>
      </trkpt>
      <trkpt lat="49.66443" lon="4.75511">
        <ele>199</ele>
        <time>2022-04-03T08:30:54.000Z</time>
      </trkpt>
      <trkpt lat="49.66443" lon="4.7551">
        <ele>199</ele>
        <time>2022-04-03T08:30:55.000Z</time>
      </trkpt>
      <trkpt lat="49.66443" lon="4.75508">
        <ele>199</ele>
        <time>2022-04-03T08:30:56.000Z</time>
      </trkpt>
      <trkpt lat="49.66444" lon="4.75507">
        <ele>199</ele>
        <time>2022-04-03T08:30:57.000Z</time>
      </trkpt>
      <trkpt lat="49.66444" lon="4.75505">
        <ele>199</ele>
        <time>2022-04-03T08:30:58.000Z</time>
      </trkpt>
      <trkpt lat="49.66445" lon="4.75502">
        <ele>199</ele>
        <time>2022-04-03T08:30:59.000Z</time>
      </trkpt>
      <trkpt lat="49.66445" lon="4.755">
        <ele>200</ele>
        <time>2022-04-03T08:31:00.000Z</time>
      </trkpt>
      <trkpt lat="49.66445" lon="4.75498">
        <ele>200</ele>
        <time>2022-04-03T08:31:01.000Z</time>
      </trkpt>
      <trkpt lat="49.66445" lon="4.75495">
        <ele>200</ele>
        <time>2022-04-03T08:31:02.000Z</time>
      </trkpt>
      <trkpt lat="49.66445" lon="4.75492">
        <ele>201</ele>
        <time>2022-04-03T08:31:03.000Z</time>
      </trkpt>
      <trkpt lat="49.66445" lon="4.7549">
        <ele>201</ele>
        <time>2022-04-03T08:31:04.000Z</time>
      </trkpt>
      <trkpt lat="49.66445" lon="4.75488">
        <ele>201</ele>
        <time>2022-04-03T08:31:05.000Z</time>
      </trkpt>
      <trkpt lat="49.66446" lon="4.75486">
        <ele>202</ele>
        <time>2022-04-03T08:31:06.000Z</time>
      </trkpt>
      <trkpt lat="49.66446" lon="4.75483">
        <ele>202</ele>
        <time>2022-04-03T08:31:07.000Z</time>
      </trkpt>
      <trkpt lat="49.66446" lon="4.75482">
        <ele>202</ele>
        <time>2022-04-03T08:31:08.000Z</time>
      </trkpt>
      <trkpt lat="49.66446" lon="4.75481">
        <ele>202</ele>
        <time>2022-04-03T08:31:09.000Z</time>
      </trkpt>
      <trkpt lat="49.66446" lon="4.75479">
        <ele>202</ele>
        <time>2022-04-03T08:31:10.000Z</time>
      </trkpt>
      <trkpt lat="49.66447" lon="4.75477">
        <ele>203</ele>
        <time>2022-04-03T08:31:11.000Z</time>
      </trkpt>
      <trkpt lat="49.66447" lon="4.75475">
        <ele>203</ele>
        <time>2022-04-03T08:31:12.000Z</time>
      </trkpt>
      <trkpt lat="49.66447" lon="4.75472">
        <ele>203</ele>
        <time>2022-04-03T08:31:13.000Z</time>
      </trkpt>
      <trkpt lat="49.66448" lon="4.7547">
        <ele>204</ele>
        <time>2022-04-03T08:31:14.000Z</time>
      </trkpt>
      <trkpt lat="49.66448" lon="4.75468">
        <ele>204</ele>
        <time>2022-04-03T08:31:15.000Z</time>
      </trkpt>
      <trkpt lat="49.66449" lon="4.75465">
        <ele>204</ele>
        <time>2022-04-03T08:31:16.000Z</time>
      </trkpt>
      <trkpt lat="49.6645" lon="4.75462">
        <ele>205</ele>
        <time>2022-04-03T08:31:17.000Z</time>
      </trkpt>
      <trkpt lat="49.6645" lon="4.7546">
        <ele>205</ele>
        <time>2022-04-03T08:31:18.000Z</time>
      </trkpt>
      <trkpt lat="49.6645" lon="4.75457">
        <ele>205</ele>
        <time>2022-04-03T08:31:19.000Z</time>
      </trkpt>
      <trkpt lat="49.66451" lon="4.75455">
        <ele>205</ele>
        <time>2022-04-03T08:31:20.000Z</time>
      </trkpt>
      <trkpt lat="49.66452" lon="4.75452">
        <ele>206</ele>
        <time>2022-04-03T08:31:21.000Z</time>
      </trkpt>
      <trkpt lat="49.66452" lon="4.7545">
        <ele>206</ele>
        <time>2022-04-03T08:31:22.000Z</time>
      </trkpt>
      <trkpt lat="49.66453" lon="4.75448">
        <ele>206</ele>
        <time>2022-04-03T08:31:23.000Z</time>
      </trkpt>
      <trkpt lat="49.66454" lon="4.75446">
        <ele>207</ele>
        <time>2022-04-03T08:31:24.000Z</time>
      </trkpt>
      <trkpt lat="49.66455" lon="4.75444">
        <ele>207</ele>
        <time>2022-04-03T08:31:25.000Z</time>
      </trkpt>
      <trkpt lat="49.66456" lon="4.75441">
        <ele>207</ele>
        <time>2022-04-03T08:31:26.000Z</time>
      </trkpt>
      <trkpt lat="49.66457" lon="4.75439">
        <ele>208</ele>
        <time>2022-04-03T08:31:27.000Z</time>
      </trkpt>
      <trkpt lat="49.66457" lon="4.75437">
        <ele>208</ele>
        <time>2022-04-03T08:31:28.000Z</time>
      </trkpt>
      <trkpt lat="49.66458" lon="4.75435">
        <ele>208</ele>
        <time>2022-04-03T08:31:29.000Z</time>
      </trkpt>
      <trkpt lat="49.66458" lon="4.75433">
        <ele>208</ele>
        <time>2022-04-03T08:31:30.000Z</time>
      </trkpt>
      <trkpt lat="49.66459" lon="4.75431">
        <ele>209</ele>
        <time>2022-04-03T08:31:31.000Z</time>
      </trkpt>
      <trkpt lat="49.6646" lon="4.75428">
        <ele>209</ele>
        <time>2022-04-03T08:31:32.000Z</time>
      </trkpt>
      <trkpt lat="49.6646" lon="4.75426">
        <ele>209</ele>
        <time>2022-04-03T08:31:33.000Z</time>
      </trkpt>
      <trkpt lat="49.66461" lon="4.75424">
        <ele>210</ele>
        <time>2022-04-03T08:31:34.000Z</time>
      </trkpt>
      <trkpt lat="49.66461" lon="4.75422">
        <ele>210</ele>
        <time>2022-04-03T08:31:35.000Z</time>
      </trkpt>
      <trkpt lat="49.66462" lon="4.75419">
        <ele>210</ele>
        <time>2022-04-03T08:31:36.000Z</time>
      </trkpt>
      <trkpt lat="49.66463" lon="4.75417">
        <ele>211</ele>
        <time>2022-04-03T08:31:37.000Z</time>
      </trkpt>
      <trkpt lat="49.66463" lon="4.75415">
        <ele>211</ele>
        <time>2022-04-03T08:31:38.000Z</time>
      </trkpt>
      <trkpt lat="49.66463" lon="4.75413">
        <ele>212</ele>
        <time>2022-04-03T08:31:39.000Z</time>
      </trkpt>
      <trkpt lat="49.66464" lon="4.75411">
        <ele>212</ele>
        <time>2022-04-03T08:31:40.000Z</time>
      </trkpt>
      <trkpt lat="49.66464" lon="4.75409">
        <ele>213</ele>
        <time>2022-04-03T08:31:41.000Z</time>
      </trkpt>
      <trkpt lat="49.66465" lon="4.75407">
        <ele>214</ele>
        <time>2022-04-03T08:31:42.000Z</time>
      </trkpt>
      <trkpt lat="49.66465" lon="4.75405">
        <ele>214</ele>
        <time>2022-04-03T08:31:43.000Z</time>
      </trkpt>
      <trkpt lat="49.66466" lon="4.75403">
        <ele>215</ele>
        <time>2022-04-03T08:31:44.000Z</time>
      </trkpt>
      <trkpt lat="49.66467" lon="4.754">
        <ele>215</ele>
        <time>2022-04-03T08:31:45.000Z</time>
      </trkpt>
      <trkpt lat="49.66467" lon="4.75398">
        <ele>216</ele>
        <time>2022-04-03T08:31:46.000Z</time>
      </trkpt>
      <trkpt lat="49.66468" lon="4.75395">
        <ele>216</ele>
        <time>2022-04-03T08:31:47.000Z</time>
      </trkpt>
      <trkpt lat="49.66468" lon="4.75393">
        <ele>216</ele>
        <time>2022-04-03T08:31:48.000Z</time>
      </trkpt>
      <trkpt lat="49.66469" lon="4.7539">
        <ele>217</ele>
        <time>2022-04-03T08:31:49.000Z</time>
      </trkpt>
      <trkpt lat="49.66469" lon="4.75387">
        <ele>217</ele>
        <time>2022-04-03T08:31:50.000Z</time>
      </trkpt>
      <trkpt lat="49.66468" lon="4.75384">
        <ele>217</ele>
        <time>2022-04-03T08:31:51.000Z</time>
      </trkpt>
      <trkpt lat="49.66468" lon="4.75381">
        <ele>218</ele>
        <time>2022-04-03T08:31:52.000Z</time>
      </trkpt>
      <trkpt lat="49.66468" lon="4.75379">
        <ele>218</ele>
        <time>2022-04-03T08:31:53.000Z</time>
      </trkpt>
      <trkpt lat="49.66468" lon="4.75376">
        <ele>218</ele>
        <time>2022-04-03T08:31:54.000Z</time>
      </trkpt>
      <trkpt lat="49.66468" lon="4.75374">
        <ele>219</ele>
        <time>2022-04-03T08:31:55.000Z</time>
      </trkpt>
      <trkpt lat="49.66468" lon="4.75371">
        <ele>219</ele>
        <time>2022-04-03T08:31:56.000Z</time>
      </trkpt>
      <trkpt lat="49.66467" lon="4.75368">
        <ele>220</ele>
        <time>2022-04-03T08:31:57.000Z</time>
      </trkpt>
      <trkpt lat="49.66466" lon="4.75366">
        <ele>220</ele>
        <time>2022-04-03T08:31:58.000Z</time>
      </trkpt>
      <trkpt lat="49.66465" lon="4.75363">
        <ele>220</ele>
        <time>2022-04-03T08:31:59.000Z</time>
      </trkpt>
      <trkpt lat="49.66464" lon="4.75359">
        <ele>221</ele>
        <time>2022-04-03T08:32:00.000Z</time>
      </trkpt>
      <trkpt lat="49.66463" lon="4.75356">
        <ele>221</ele>
        <time>2022-04-03T08:32:01.000Z</time>
      </trkpt>
      <trkpt lat="49.66463" lon="4.75353">
        <ele>221</ele>
        <time>2022-04-03T08:32:02.000Z</time>
      </trkpt>
      <trkpt lat="49.66462" lon="4.7535">
        <ele>222</ele>
        <time>2022-04-03T08:32:03.000Z</time>
      </trkpt>
      <trkpt lat="49.66462" lon="4.75347">
        <ele>222</ele>
        <time>2022-04-03T08:32:04.000Z</time>
      </trkpt>
      <trkpt lat="49.66461" lon="4.75344">
        <ele>223</ele>
        <time>2022-04-03T08:32:05.000Z</time>
      </trkpt>
      <trkpt lat="49.66461" lon="4.75341">
        <ele>223</ele>
        <time>2022-04-03T08:32:06.000Z</time>
      </trkpt>
      <trkpt lat="49.66461" lon="4.75338">
        <ele>223</ele>
        <time>2022-04-03T08:32:07.000Z</time>
      </trkpt>
      <trkpt lat="49.6646" lon="4.75336">
        <ele>224</ele>
        <time>2022-04-03T08:32:08.000Z</time>
      </trkpt>
      <trkpt lat="49.6646" lon="4.75332">
        <ele>224</ele>
        <time>2022-04-03T08:32:09.000Z</time>
      </trkpt>
      <trkpt lat="49.6646" lon="4.75329">
        <ele>225</ele>
        <time>2022-04-03T08:32:10.000Z</time>
      </trkpt>
      <trkpt lat="49.6646" lon="4.75324">
        <ele>225</ele>
        <time>2022-04-03T08:32:11.000Z</time>
      </trkpt>
      <trkpt lat="49.6646" lon="4.75321">
        <ele>226</ele>
        <time>2022-04-03T08:32:12.000Z</time>
      </trkpt>
      <trkpt lat="49.6646" lon="4.75317">
        <ele>227</ele>
        <time>2022-04-03T08:32:13.000Z</time>
      </trkpt>
      <trkpt lat="49.66459" lon="4.75313">
        <ele>227</ele>
        <time>2022-04-03T08:32:14.000Z</time>
      </trkpt>
      <trkpt lat="49.66458" lon="4.75309">
        <ele>228</ele>
        <time>2022-04-03T08:32:15.000Z</time>
      </trkpt>
      <trkpt lat="49.66457" lon="4.75304">
        <ele>228</ele>
        <time>2022-04-03T08:32:16.000Z</time>
      </trkpt>
      <trkpt lat="49.66457" lon="4.75299">
        <ele>229</ele>
        <time>2022-04-03T08:32:17.000Z</time>
      </trkpt>
      <trkpt lat="49.66457" lon="4.75294">
        <ele>229</ele>
        <time>2022-04-03T08:32:18.000Z</time>
      </trkpt>
      <trkpt lat="49.66457" lon="4.7529">
        <ele>229</ele>
        <time>2022-04-03T08:32:19.000Z</time>
      </trkpt>
      <trkpt lat="49.66457" lon="4.75285">
        <ele>230</ele>
        <time>2022-04-03T08:32:20.000Z</time>
      </trkpt>
      <trkpt lat="49.66457" lon="4.7528">
        <ele>230</ele>
        <time>2022-04-03T08:32:21.000Z</time>
      </trkpt>
      <trkpt lat="49.66457" lon="4.75274">
        <ele>230</ele>
        <time>2022-04-03T08:32:22.000Z</time>
      </trkpt>
      <trkpt lat="49.66458" lon="4.75269">
        <ele>230</ele>
        <time>2022-04-03T08:32:23.000Z</time>
      </trkpt>
      <trkpt lat="49.66458" lon="4.75265">
        <ele>230</ele>
        <time>2022-04-03T08:32:24.000Z</time>
      </trkpt>
      <trkpt lat="49.66459" lon="4.7526">
        <ele>231</ele>
        <time>2022-04-03T08:32:25.000Z</time>
      </trkpt>
      <trkpt lat="49.66458" lon="4.75257">
        <ele>231</ele>
        <time>2022-04-03T08:32:26.000Z</time>
      </trkpt>
      <trkpt lat="49.66458" lon="4.75253">
        <ele>231</ele>
        <time>2022-04-03T08:32:27.000Z</time>
      </trkpt>
      <trkpt lat="49.66457" lon="4.75249">
        <ele>232</ele>
        <time>2022-04-03T08:32:28.000Z</time>
      </trkpt>
      <trkpt lat="49.66457" lon="4.75245">
        <ele>232</ele>
        <time>2022-04-03T08:32:29.000Z</time>
      </trkpt>
      <trkpt lat="49.66456" lon="4.75242">
        <ele>232</ele>
        <time>2022-04-03T08:32:30.000Z</time>
      </trkpt>
      <trkpt lat="49.66456" lon="4.75238">
        <ele>233</ele>
        <time>2022-04-03T08:32:31.000Z</time>
      </trkpt>
      <trkpt lat="49.66455" lon="4.75235">
        <ele>233</ele>
        <time>2022-04-03T08:32:32.000Z</time>
      </trkpt>
      <trkpt lat="49.66455" lon="4.75232">
        <ele>233</ele>
        <time>2022-04-03T08:32:33.000Z</time>
      </trkpt>
      <trkpt lat="49.66455" lon="4.75229">
        <ele>234</ele>
        <time>2022-04-03T08:32:34.000Z</time>
      </trkpt>
      <trkpt lat="49.66455" lon="4.75226">
        <ele>234</ele>
        <time>2022-04-03T08:32:35.000Z</time>
      </trkpt>
      <trkpt lat="49.66455" lon="4.75222">
        <ele>234</ele>
        <time>2022-04-03T08:32:36.000Z</time>
      </trkpt>
      <trkpt lat="49.66455" lon="4.75218">
        <ele>234</ele>
        <time>2022-04-03T08:32:37.000Z</time>
      </trkpt>
      <trkpt lat="49.66455" lon="4.75215">
        <ele>234</ele>
        <time>2022-04-03T08:32:38.000Z</time>
      </trkpt>
      <trkpt lat="49.66455" lon="4.7521">
        <ele>235</ele>
        <time>2022-04-03T08:32:39.000Z</time>
      </trkpt>
      <trkpt lat="49.66455" lon="4.75206">
        <ele>235</ele>
        <time>2022-04-03T08:32:40.000Z</time>
      </trkpt>
      <trkpt lat="49.66454" lon="4.75203">
        <ele>235</ele>
        <time>2022-04-03T08:32:41.000Z</time>
      </trkpt>
      <trkpt lat="49.66454" lon="4.75199">
        <ele>235</ele>
        <time>2022-04-03T08:32:42.000Z</time>
      </trkpt>
      <trkpt lat="49.66454" lon="4.75195">
        <ele>235</ele>
        <time>2022-04-03T08:32:43.000Z</time>
      </trkpt>
      <trkpt lat="49.66455" lon="4.75192">
        <ele>236</ele>
        <time>2022-04-03T08:32:44.000Z</time>
      </trkpt>
      <trkpt lat="49.66455" lon="4.75188">
        <ele>236</ele>
        <time>2022-04-03T08:32:45.000Z</time>
      </trkpt>
      <trkpt lat="49.66455" lon="4.75184">
        <ele>236</ele>
        <time>2022-04-03T08:32:46.000Z</time>
      </trkpt>
      <trkpt lat="49.66454" lon="4.7518">
        <ele>236</ele>
        <time>2022-04-03T08:32:47.000Z</time>
      </trkpt>
      <trkpt lat="49.66454" lon="4.75176">
        <ele>236</ele>
        <time>2022-04-03T08:32:48.000Z</time>
      </trkpt>
      <trkpt lat="49.66454" lon="4.75172">
        <ele>236</ele>
        <time>2022-04-03T08:32:49.000Z</time>
      </trkpt>
      <trkpt lat="49.66454" lon="4.75168">
        <ele>236</ele>
        <time>2022-04-03T08:32:50.000Z</time>
      </trkpt>
      <trkpt lat="49.66455" lon="4.75165">
        <ele>236</ele>
        <time>2022-04-03T08:32:51.000Z</time>
      </trkpt>
      <trkpt lat="49.66455" lon="4.75161">
        <ele>236</ele>
        <time>2022-04-03T08:32:52.000Z</time>
      </trkpt>
      <trkpt lat="49.66456" lon="4.75157">
        <ele>237</ele>
        <time>2022-04-03T08:32:53.000Z</time>
      </trkpt>
      <trkpt lat="49.66456" lon="4.75153">
        <ele>237</ele>
        <time>2022-04-03T08:32:54.000Z</time>
      </trkpt>
      <trkpt lat="49.66457" lon="4.75149">
        <ele>237</ele>
        <time>2022-04-03T08:32:55.000Z</time>
      </trkpt>
      <trkpt lat="49.66458" lon="4.75146">
        <ele>237</ele>
        <time>2022-04-03T08:32:56.000Z</time>
      </trkpt>
      <trkpt lat="49.66458" lon="4.75142">
        <ele>237</ele>
        <time>2022-04-03T08:32:57.000Z</time>
      </trkpt>
      <trkpt lat="49.66459" lon="4.75138">
        <ele>238</ele>
        <time>2022-04-03T08:32:58.000Z</time>
      </trkpt>
      <trkpt lat="49.66458" lon="4.75135">
        <ele>238</ele>
        <time>2022-04-03T08:32:59.000Z</time>
      </trkpt>
      <trkpt lat="49.66458" lon="4.75132">
        <ele>238</ele>
        <time>2022-04-03T08:33:00.000Z</time>
      </trkpt>
      <trkpt lat="49.66458" lon="4.75129">
        <ele>238</ele>
        <time>2022-04-03T08:33:01.000Z</time>
      </trkpt>
      <trkpt lat="49.66458" lon="4.75126">
        <ele>239</ele>
        <time>2022-04-03T08:33:02.000Z</time>
      </trkpt>
      <trkpt lat="49.66459" lon="4.75122">
        <ele>239</ele>
        <time>2022-04-03T08:33:03.000Z</time>
      </trkpt>
      <trkpt lat="49.66459" lon="4.75118">
        <ele>239</ele>
        <time>2022-04-03T08:33:04.000Z</time>
      </trkpt>
      <trkpt lat="49.6646" lon="4.75114">
        <ele>240</ele>
        <time>2022-04-03T08:33:05.000Z</time>
      </trkpt>
      <trkpt lat="49.6646" lon="4.7511">
        <ele>240</ele>
        <time>2022-04-03T08:33:06.000Z</time>
      </trkpt>
      <trkpt lat="49.6646" lon="4.75106">
        <ele>240</ele>
        <time>2022-04-03T08:33:07.000Z</time>
      </trkpt>
      <trkpt lat="49.6646" lon="4.75104">
        <ele>240</ele>
        <time>2022-04-03T08:33:08.000Z</time>
      </trkpt>
      <trkpt lat="49.66461" lon="4.75101">
        <ele>241</ele>
        <time>2022-04-03T08:33:09.000Z</time>
      </trkpt>
      <trkpt lat="49.66462" lon="4.75097">
        <ele>241</ele>
        <time>2022-04-03T08:33:10.000Z</time>
      </trkpt>
      <trkpt lat="49.66462" lon="4.75094">
        <ele>241</ele>
        <time>2022-04-03T08:33:11.000Z</time>
      </trkpt>
      <trkpt lat="49.66463" lon="4.7509">
        <ele>241</ele>
        <time>2022-04-03T08:33:12.000Z</time>
      </trkpt>
      <trkpt lat="49.66464" lon="4.75087">
        <ele>242</ele>
        <time>2022-04-03T08:33:13.000Z</time>
      </trkpt>
      <trkpt lat="49.66465" lon="4.75083">
        <ele>242</ele>
        <time>2022-04-03T08:33:14.000Z</time>
      </trkpt>
      <trkpt lat="49.66466" lon="4.7508">
        <ele>242</ele>
        <time>2022-04-03T08:33:15.000Z</time>
      </trkpt>
      <trkpt lat="49.66466" lon="4.75078">
        <ele>243</ele>
        <time>2022-04-03T08:33:16.000Z</time>
      </trkpt>
      <trkpt lat="49.66467" lon="4.75075">
        <ele>243</ele>
        <time>2022-04-03T08:33:17.000Z</time>
      </trkpt>
      <trkpt lat="49.66468" lon="4.75072">
        <ele>243</ele>
        <time>2022-04-03T08:33:18.000Z</time>
      </trkpt>
      <trkpt lat="49.66469" lon="4.7507">
        <ele>244</ele>
        <time>2022-04-03T08:33:19.000Z</time>
      </trkpt>
      <trkpt lat="49.66469" lon="4.75067">
        <ele>244</ele>
        <time>2022-04-03T08:33:20.000Z</time>
      </trkpt>
      <trkpt lat="49.6647" lon="4.75065">
        <ele>244</ele>
        <time>2022-04-03T08:33:21.000Z</time>
      </trkpt>
      <trkpt lat="49.66471" lon="4.75062">
        <ele>245</ele>
        <time>2022-04-03T08:33:22.000Z</time>
      </trkpt>
      <trkpt lat="49.66472" lon="4.75059">
        <ele>245</ele>
        <time>2022-04-03T08:33:23.000Z</time>
      </trkpt>
      <trkpt lat="49.66472" lon="4.75056">
        <ele>245</ele>
        <time>2022-04-03T08:33:24.000Z</time>
      </trkpt>
      <trkpt lat="49.66473" lon="4.75053">
        <ele>246</ele>
        <time>2022-04-03T08:33:25.000Z</time>
      </trkpt>
      <trkpt lat="49.66474" lon="4.7505">
        <ele>246</ele>
        <time>2022-04-03T08:33:26.000Z</time>
      </trkpt>
      <trkpt lat="49.66474" lon="4.75046">
        <ele>246</ele>
        <time>2022-04-03T08:33:27.000Z</time>
      </trkpt>
      <trkpt lat="49.66475" lon="4.75044">
        <ele>246</ele>
        <time>2022-04-03T08:33:28.000Z</time>
      </trkpt>
      <trkpt lat="49.66476" lon="4.75041">
        <ele>247</ele>
        <time>2022-04-03T08:33:29.000Z</time>
      </trkpt>
      <trkpt lat="49.66477" lon="4.75038">
        <ele>247</ele>
        <time>2022-04-03T08:33:30.000Z</time>
      </trkpt>
      <trkpt lat="49.66477" lon="4.75036">
        <ele>247</ele>
        <time>2022-04-03T08:33:31.000Z</time>
      </trkpt>
      <trkpt lat="49.66479" lon="4.75034">
        <ele>247</ele>
        <time>2022-04-03T08:33:32.000Z</time>
      </trkpt>
      <trkpt lat="49.6648" lon="4.75031">
        <ele>248</ele>
        <time>2022-04-03T08:33:33.000Z</time>
      </trkpt>
      <trkpt lat="49.66481" lon="4.75027">
        <ele>248</ele>
        <time>2022-04-03T08:33:34.000Z</time>
      </trkpt>
      <trkpt lat="49.66482" lon="4.75024">
        <ele>248</ele>
        <time>2022-04-03T08:33:35.000Z</time>
      </trkpt>
      <trkpt lat="49.66483" lon="4.75021">
        <ele>248</ele>
        <time>2022-04-03T08:33:36.000Z</time>
      </trkpt>
      <trkpt lat="49.66484" lon="4.75019">
        <ele>249</ele>
        <time>2022-04-03T08:33:37.000Z</time>
      </trkpt>
      <trkpt lat="49.66485" lon="4.75017">
        <ele>249</ele>
        <time>2022-04-03T08:33:38.000Z</time>
      </trkpt>
      <trkpt lat="49.66486" lon="4.75014">
        <ele>249</ele>
        <time>2022-04-03T08:33:39.000Z</time>
      </trkpt>
      <trkpt lat="49.66487" lon="4.75012">
        <ele>250</ele>
        <time>2022-04-03T08:33:40.000Z</time>
      </trkpt>
      <trkpt lat="49.66487" lon="4.75009">
        <ele>250</ele>
        <time>2022-04-03T08:33:41.000Z</time>
      </trkpt>
      <trkpt lat="49.66488" lon="4.75006">
        <ele>250</ele>
        <time>2022-04-03T08:33:42.000Z</time>
      </trkpt>
      <trkpt lat="49.66489" lon="4.75004">
        <ele>251</ele>
        <time>2022-04-03T08:33:43.000Z</time>
      </trkpt>
      <trkpt lat="49.66489" lon="4.75001">
        <ele>251</ele>
        <time>2022-04-03T08:33:44.000Z</time>
      </trkpt>
      <trkpt lat="49.6649" lon="4.74999">
        <ele>251</ele>
        <time>2022-04-03T08:33:45.000Z</time>
      </trkpt>
      <trkpt lat="49.6649" lon="4.74998">
        <ele>251</ele>
        <time>2022-04-03T08:33:46.000Z</time>
      </trkpt>
      <trkpt lat="49.66491" lon="4.74995">
        <ele>252</ele>
        <time>2022-04-03T08:33:47.000Z</time>
      </trkpt>
      <trkpt lat="49.66492" lon="4.74992">
        <ele>252</ele>
        <time>2022-04-03T08:33:48.000Z</time>
      </trkpt>
      <trkpt lat="49.66493" lon="4.74988">
        <ele>252</ele>
        <time>2022-04-03T08:33:49.000Z</time>
      </trkpt>
      <trkpt lat="49.66494" lon="4.74985">
        <ele>252</ele>
        <time>2022-04-03T08:33:50.000Z</time>
      </trkpt>
      <trkpt lat="49.66495" lon="4.74982">
        <ele>252</ele>
        <time>2022-04-03T08:33:51.000Z</time>
      </trkpt>
      <trkpt lat="49.66495" lon="4.74979">
        <ele>253</ele>
        <time>2022-04-03T08:33:52.000Z</time>
      </trkpt>
      <trkpt lat="49.66496" lon="4.74976">
        <ele>253</ele>
        <time>2022-04-03T08:33:53.000Z</time>
      </trkpt>
      <trkpt lat="49.66497" lon="4.74972">
        <ele>253</ele>
        <time>2022-04-03T08:33:54.000Z</time>
      </trkpt>
      <trkpt lat="49.66497" lon="4.74969">
        <ele>253</ele>
        <time>2022-04-03T08:33:55.000Z</time>
      </trkpt>
      <trkpt lat="49.66498" lon="4.74965">
        <ele>253</ele>
        <time>2022-04-03T08:33:56.000Z</time>
      </trkpt>
      <trkpt lat="49.66498" lon="4.74961">
        <ele>254</ele>
        <time>2022-04-03T08:33:57.000Z</time>
      </trkpt>
      <trkpt lat="49.66498" lon="4.74958">
        <ele>254</ele>
        <time>2022-04-03T08:33:58.000Z</time>
      </trkpt>
      <trkpt lat="49.66498" lon="4.74954">
        <ele>254</ele>
        <time>2022-04-03T08:33:59.000Z</time>
      </trkpt>
      <trkpt lat="49.66499" lon="4.7495">
        <ele>254</ele>
        <time>2022-04-03T08:34:00.000Z</time>
      </trkpt>
      <trkpt lat="49.66499" lon="4.74946">
        <ele>254</ele>
        <time>2022-04-03T08:34:01.000Z</time>
      </trkpt>
      <trkpt lat="49.665" lon="4.74942">
        <ele>255</ele>
        <time>2022-04-03T08:34:02.000Z</time>
      </trkpt>
      <trkpt lat="49.665" lon="4.74939">
        <ele>255</ele>
        <time>2022-04-03T08:34:03.000Z</time>
      </trkpt>
      <trkpt lat="49.66501" lon="4.74935">
        <ele>255</ele>
        <time>2022-04-03T08:34:04.000Z</time>
      </trkpt>
      <trkpt lat="49.66501" lon="4.74932">
        <ele>255</ele>
        <time>2022-04-03T08:34:05.000Z</time>
      </trkpt>
      <trkpt lat="49.66502" lon="4.74929">
        <ele>255</ele>
        <time>2022-04-03T08:34:06.000Z</time>
      </trkpt>
      <trkpt lat="49.66503" lon="4.74925">
        <ele>255</ele>
        <time>2022-04-03T08:34:07.000Z</time>
      </trkpt>
      <trkpt lat="49.66503" lon="4.74922">
        <ele>254</ele>
        <time>2022-04-03T08:34:08.000Z</time>
      </trkpt>
      <trkpt lat="49.66504" lon="4.74918">
        <ele>254</ele>
        <time>2022-04-03T08:34:09.000Z</time>
      </trkpt>
      <trkpt lat="49.66504" lon="4.74914">
        <ele>254</ele>
        <time>2022-04-03T08:34:10.000Z</time>
      </trkpt>
      <trkpt lat="49.66505" lon="4.7491">
        <ele>254</ele>
        <time>2022-04-03T08:34:11.000Z</time>
      </trkpt>
      <trkpt lat="49.66506" lon="4.74906">
        <ele>254</ele>
        <time>2022-04-03T08:34:12.000Z</time>
      </trkpt>
      <trkpt lat="49.66506" lon="4.74901">
        <ele>253</ele>
        <time>2022-04-03T08:34:13.000Z</time>
      </trkpt>
      <trkpt lat="49.66507" lon="4.74897">
        <ele>253</ele>
        <time>2022-04-03T08:34:14.000Z</time>
      </trkpt>
      <trkpt lat="49.66507" lon="4.74894">
        <ele>253</ele>
        <time>2022-04-03T08:34:15.000Z</time>
      </trkpt>
      <trkpt lat="49.66508" lon="4.7489">
        <ele>253</ele>
        <time>2022-04-03T08:34:16.000Z</time>
      </trkpt>
      <trkpt lat="49.66508" lon="4.74887">
        <ele>253</ele>
        <time>2022-04-03T08:34:17.000Z</time>
      </trkpt>
      <trkpt lat="49.66509" lon="4.74884">
        <ele>253</ele>
        <time>2022-04-03T08:34:18.000Z</time>
      </trkpt>
      <trkpt lat="49.66509" lon="4.74881">
        <ele>253</ele>
        <time>2022-04-03T08:34:19.000Z</time>
      </trkpt>
      <trkpt lat="49.6651" lon="4.74879">
        <ele>253</ele>
        <time>2022-04-03T08:34:20.000Z</time>
      </trkpt>
      <trkpt lat="49.66511" lon="4.74875">
        <ele>253</ele>
        <time>2022-04-03T08:34:21.000Z</time>
      </trkpt>
      <trkpt lat="49.66511" lon="4.74872">
        <ele>254</ele>
        <time>2022-04-03T08:34:22.000Z</time>
      </trkpt>
      <trkpt lat="49.66512" lon="4.7487">
        <ele>254</ele>
        <time>2022-04-03T08:34:23.000Z</time>
      </trkpt>
      <trkpt lat="49.66513" lon="4.74867">
        <ele>254</ele>
        <time>2022-04-03T08:34:24.000Z</time>
      </trkpt>
      <trkpt lat="49.66514" lon="4.74864">
        <ele>254</ele>
        <time>2022-04-03T08:34:25.000Z</time>
      </trkpt>
      <trkpt lat="49.66514" lon="4.74861">
        <ele>255</ele>
        <time>2022-04-03T08:34:26.000Z</time>
      </trkpt>
      <trkpt lat="49.66515" lon="4.74858">
        <ele>255</ele>
        <time>2022-04-03T08:34:27.000Z</time>
      </trkpt>
      <trkpt lat="49.66515" lon="4.74855">
        <ele>255</ele>
        <time>2022-04-03T08:34:28.000Z</time>
      </trkpt>
      <trkpt lat="49.66516" lon="4.74852">
        <ele>255</ele>
        <time>2022-04-03T08:34:29.000Z</time>
      </trkpt>
      <trkpt lat="49.66516" lon="4.74849">
        <ele>255</ele>
        <time>2022-04-03T08:34:30.000Z</time>
      </trkpt>
      <trkpt lat="49.66516" lon="4.74847">
        <ele>256</ele>
        <time>2022-04-03T08:34:31.000Z</time>
      </trkpt>
      <trkpt lat="49.66517" lon="4.74843">
        <ele>256</ele>
        <time>2022-04-03T08:34:32.000Z</time>
      </trkpt>
      <trkpt lat="49.66517" lon="4.7484">
        <ele>256</ele>
        <time>2022-04-03T08:34:33.000Z</time>
      </trkpt>
      <trkpt lat="49.66518" lon="4.74837">
        <ele>256</ele>
        <time>2022-04-03T08:34:34.000Z</time>
      </trkpt>
      <trkpt lat="49.66518" lon="4.74833">
        <ele>256</ele>
        <time>2022-04-03T08:34:35.000Z</time>
      </trkpt>
      <trkpt lat="49.66519" lon="4.7483">
        <ele>256</ele>
        <time>2022-04-03T08:34:36.000Z</time>
      </trkpt>
      <trkpt lat="49.66519" lon="4.74827">
        <ele>256</ele>
        <time>2022-04-03T08:34:37.000Z</time>
      </trkpt>
      <trkpt lat="49.6652" lon="4.74823">
        <ele>257</ele>
        <time>2022-04-03T08:34:38.000Z</time>
      </trkpt>
      <trkpt lat="49.66521" lon="4.7482">
        <ele>257</ele>
        <time>2022-04-03T08:34:39.000Z</time>
      </trkpt>
      <trkpt lat="49.66522" lon="4.74816">
        <ele>257</ele>
        <time>2022-04-03T08:34:40.000Z</time>
      </trkpt>
      <trkpt lat="49.66522" lon="4.74813">
        <ele>257</ele>
        <time>2022-04-03T08:34:41.000Z</time>
      </trkpt>
      <trkpt lat="49.66523" lon="4.7481">
        <ele>258</ele>
        <time>2022-04-03T08:34:42.000Z</time>
      </trkpt>
      <trkpt lat="49.66524" lon="4.74807">
        <ele>258</ele>
        <time>2022-04-03T08:34:43.000Z</time>
      </trkpt>
      <trkpt lat="49.66524" lon="4.74804">
        <ele>258</ele>
        <time>2022-04-03T08:34:44.000Z</time>
      </trkpt>
      <trkpt lat="49.66525" lon="4.74801">
        <ele>258</ele>
        <time>2022-04-03T08:34:45.000Z</time>
      </trkpt>
      <trkpt lat="49.66525" lon="4.74798">
        <ele>258</ele>
        <time>2022-04-03T08:34:46.000Z</time>
      </trkpt>
      <trkpt lat="49.66526" lon="4.74795">
        <ele>258</ele>
        <time>2022-04-03T08:34:47.000Z</time>
      </trkpt>
      <trkpt lat="49.66527" lon="4.74791">
        <ele>259</ele>
        <time>2022-04-03T08:34:48.000Z</time>
      </trkpt>
      <trkpt lat="49.66527" lon="4.74789">
        <ele>259</ele>
        <time>2022-04-03T08:34:49.000Z</time>
      </trkpt>
      <trkpt lat="49.66528" lon="4.74785">
        <ele>259</ele>
        <time>2022-04-03T08:34:50.000Z</time>
      </trkpt>
      <trkpt lat="49.66529" lon="4.74782">
        <ele>259</ele>
        <time>2022-04-03T08:34:51.000Z</time>
      </trkpt>
      <trkpt lat="49.66529" lon="4.74779">
        <ele>260</ele>
        <time>2022-04-03T08:34:52.000Z</time>
      </trkpt>
      <trkpt lat="49.6653" lon="4.74776">
        <ele>260</ele>
        <time>2022-04-03T08:34:53.000Z</time>
      </trkpt>
      <trkpt lat="49.66531" lon="4.74774">
        <ele>261</ele>
        <time>2022-04-03T08:34:54.000Z</time>
      </trkpt>
      <trkpt lat="49.66531" lon="4.74772">
        <ele>261</ele>
        <time>2022-04-03T08:34:55.000Z</time>
      </trkpt>
      <trkpt lat="49.66532" lon="4.74769">
        <ele>261</ele>
        <time>2022-04-03T08:34:56.000Z</time>
      </trkpt>
      <trkpt lat="49.66533" lon="4.74766">
        <ele>262</ele>
        <time>2022-04-03T08:34:57.000Z</time>
      </trkpt>
      <trkpt lat="49.66534" lon="4.74762">
        <ele>262</ele>
        <time>2022-04-03T08:34:58.000Z</time>
      </trkpt>
      <trkpt lat="49.66535" lon="4.7476">
        <ele>262</ele>
        <time>2022-04-03T08:34:59.000Z</time>
      </trkpt>
      <trkpt lat="49.66535" lon="4.74757">
        <ele>263</ele>
        <time>2022-04-03T08:35:00.000Z</time>
      </trkpt>
      <trkpt lat="49.66536" lon="4.74755">
        <ele>263</ele>
        <time>2022-04-03T08:35:01.000Z</time>
      </trkpt>
      <trkpt lat="49.66537" lon="4.74752">
        <ele>263</ele>
        <time>2022-04-03T08:35:02.000Z</time>
      </trkpt>
      <trkpt lat="49.66537" lon="4.7475">
        <ele>264</ele>
        <time>2022-04-03T08:35:03.000Z</time>
      </trkpt>
      <trkpt lat="49.66537" lon="4.74746">
        <ele>264</ele>
        <time>2022-04-03T08:35:04.000Z</time>
      </trkpt>
      <trkpt lat="49.66537" lon="4.74743">
        <ele>265</ele>
        <time>2022-04-03T08:35:05.000Z</time>
      </trkpt>
      <trkpt lat="49.66537" lon="4.7474">
        <ele>265</ele>
        <time>2022-04-03T08:35:06.000Z</time>
      </trkpt>
      <trkpt lat="49.66537" lon="4.74738">
        <ele>265</ele>
        <time>2022-04-03T08:35:07.000Z</time>
      </trkpt>
      <trkpt lat="49.66537" lon="4.74735">
        <ele>266</ele>
        <time>2022-04-03T08:35:08.000Z</time>
      </trkpt>
      <trkpt lat="49.66538" lon="4.74733">
        <ele>266</ele>
        <time>2022-04-03T08:35:09.000Z</time>
      </trkpt>
      <trkpt lat="49.66538" lon="4.7473">
        <ele>266</ele>
        <time>2022-04-03T08:35:10.000Z</time>
      </trkpt>
      <trkpt lat="49.66539" lon="4.74727">
        <ele>266</ele>
        <time>2022-04-03T08:35:11.000Z</time>
      </trkpt>
      <trkpt lat="49.66539" lon="4.74724">
        <ele>267</ele>
        <time>2022-04-03T08:35:12.000Z</time>
      </trkpt>
      <trkpt lat="49.66539" lon="4.74721">
        <ele>267</ele>
        <time>2022-04-03T08:35:13.000Z</time>
      </trkpt>
      <trkpt lat="49.6654" lon="4.74717">
        <ele>267</ele>
        <time>2022-04-03T08:35:14.000Z</time>
      </trkpt>
      <trkpt lat="49.6654" lon="4.74714">
        <ele>267</ele>
        <time>2022-04-03T08:35:15.000Z</time>
      </trkpt>
      <trkpt lat="49.6654" lon="4.7471">
        <ele>268</ele>
        <time>2022-04-03T08:35:16.000Z</time>
      </trkpt>
      <trkpt lat="49.6654" lon="4.74707">
        <ele>268</ele>
        <time>2022-04-03T08:35:17.000Z</time>
      </trkpt>
      <trkpt lat="49.66541" lon="4.74704">
        <ele>268</ele>
        <time>2022-04-03T08:35:18.000Z</time>
      </trkpt>
      <trkpt lat="49.66541" lon="4.747">
        <ele>268</ele>
        <time>2022-04-03T08:35:19.000Z</time>
      </trkpt>
      <trkpt lat="49.66542" lon="4.74697">
        <ele>269</ele>
        <time>2022-04-03T08:35:20.000Z</time>
      </trkpt>
      <trkpt lat="49.66542" lon="4.74693">
        <ele>269</ele>
        <time>2022-04-03T08:35:21.000Z</time>
      </trkpt>
      <trkpt lat="49.66542" lon="4.7469">
        <ele>269</ele>
        <time>2022-04-03T08:35:22.000Z</time>
      </trkpt>
      <trkpt lat="49.66542" lon="4.74686">
        <ele>269</ele>
        <time>2022-04-03T08:35:23.000Z</time>
      </trkpt>
      <trkpt lat="49.66543" lon="4.74683">
        <ele>270</ele>
        <time>2022-04-03T08:35:24.000Z</time>
      </trkpt>
      <trkpt lat="49.66544" lon="4.74679">
        <ele>270</ele>
        <time>2022-04-03T08:35:25.000Z</time>
      </trkpt>
      <trkpt lat="49.66544" lon="4.74675">
        <ele>270</ele>
        <time>2022-04-03T08:35:26.000Z</time>
      </trkpt>
      <trkpt lat="49.66544" lon="4.74671">
        <ele>270</ele>
        <time>2022-04-03T08:35:27.000Z</time>
      </trkpt>
      <trkpt lat="49.66545" lon="4.74667">
        <ele>270</ele>
        <time>2022-04-03T08:35:28.000Z</time>
      </trkpt>
      <trkpt lat="49.66545" lon="4.74663">
        <ele>271</ele>
        <time>2022-04-03T08:35:29.000Z</time>
      </trkpt>
      <trkpt lat="49.66546" lon="4.74658">
        <ele>271</ele>
        <time>2022-04-03T08:35:30.000Z</time>
      </trkpt>
      <trkpt lat="49.66546" lon="4.74653">
        <ele>271</ele>
        <time>2022-04-03T08:35:31.000Z</time>
      </trkpt>
      <trkpt lat="49.66547" lon="4.74649">
        <ele>271</ele>
        <time>2022-04-03T08:35:32.000Z</time>
      </trkpt>
      <trkpt lat="49.66547" lon="4.74644">
        <ele>271</ele>
        <time>2022-04-03T08:35:33.000Z</time>
      </trkpt>
      <trkpt lat="49.66548" lon="4.7464">
        <ele>271</ele>
        <time>2022-04-03T08:35:34.000Z</time>
      </trkpt>
      <trkpt lat="49.66549" lon="4.74635">
        <ele>271</ele>
        <time>2022-04-03T08:35:35.000Z</time>
      </trkpt>
      <trkpt lat="49.6655" lon="4.74631">
        <ele>271</ele>
        <time>2022-04-03T08:35:36.000Z</time>
      </trkpt>
      <trkpt lat="49.66551" lon="4.74627">
        <ele>271</ele>
        <time>2022-04-03T08:35:37.000Z</time>
      </trkpt>
      <trkpt lat="49.66552" lon="4.74623">
        <ele>271</ele>
        <time>2022-04-03T08:35:38.000Z</time>
      </trkpt>
      <trkpt lat="49.66553" lon="4.74619">
        <ele>272</ele>
        <time>2022-04-03T08:35:39.000Z</time>
      </trkpt>
      <trkpt lat="49.66553" lon="4.74615">
        <ele>272</ele>
        <time>2022-04-03T08:35:40.000Z</time>
      </trkpt>
      <trkpt lat="49.66554" lon="4.74611">
        <ele>272</ele>
        <time>2022-04-03T08:35:41.000Z</time>
      </trkpt>
      <trkpt lat="49.66555" lon="4.74608">
        <ele>272</ele>
        <time>2022-04-03T08:35:42.000Z</time>
      </trkpt>
      <trkpt lat="49.66555" lon="4.74605">
        <ele>272</ele>
        <time>2022-04-03T08:35:43.000Z</time>
      </trkpt>
      <trkpt lat="49.66556" lon="4.74601">
        <ele>272</ele>
        <time>2022-04-03T08:35:44.000Z</time>
      </trkpt>
      <trkpt lat="49.66556" lon="4.74597">
        <ele>272</ele>
        <time>2022-04-03T08:35:45.000Z</time>
      </trkpt>
      <trkpt lat="49.66557" lon="4.74594">
        <ele>272</ele>
        <time>2022-04-03T08:35:46.000Z</time>
      </trkpt>
      <trkpt lat="49.66557" lon="4.7459">
        <ele>272</ele>
        <time>2022-04-03T08:35:47.000Z</time>
      </trkpt>
      <trkpt lat="49.66559" lon="4.74586">
        <ele>272</ele>
        <time>2022-04-03T08:35:48.000Z</time>
      </trkpt>
      <trkpt lat="49.66559" lon="4.74583">
        <ele>272</ele>
        <time>2022-04-03T08:35:49.000Z</time>
      </trkpt>
      <trkpt lat="49.66559" lon="4.7458">
        <ele>272</ele>
        <time>2022-04-03T08:35:50.000Z</time>
      </trkpt>
      <trkpt lat="49.6656" lon="4.74577">
        <ele>272</ele>
        <time>2022-04-03T08:35:51.000Z</time>
      </trkpt>
      <trkpt lat="49.66561" lon="4.74573">
        <ele>272</ele>
        <time>2022-04-03T08:35:52.000Z</time>
      </trkpt>
      <trkpt lat="49.66561" lon="4.74569">
        <ele>273</ele>
        <time>2022-04-03T08:35:53.000Z</time>
      </trkpt>
      <trkpt lat="49.66561" lon="4.74565">
        <ele>273</ele>
        <time>2022-04-03T08:35:54.000Z</time>
      </trkpt>
      <trkpt lat="49.66562" lon="4.7456">
        <ele>273</ele>
        <time>2022-04-03T08:35:55.000Z</time>
      </trkpt>
      <trkpt lat="49.66562" lon="4.74556">
        <ele>274</ele>
        <time>2022-04-03T08:35:56.000Z</time>
      </trkpt>
      <trkpt lat="49.66563" lon="4.74553">
        <ele>274</ele>
        <time>2022-04-03T08:35:57.000Z</time>
      </trkpt>
      <trkpt lat="49.66564" lon="4.74549">
        <ele>275</ele>
        <time>2022-04-03T08:35:58.000Z</time>
      </trkpt>
      <trkpt lat="49.66564" lon="4.74547">
        <ele>275</ele>
        <time>2022-04-03T08:35:59.000Z</time>
      </trkpt>
      <trkpt lat="49.66565" lon="4.74544">
        <ele>276</ele>
        <time>2022-04-03T08:36:00.000Z</time>
      </trkpt>
      <trkpt lat="49.66566" lon="4.74542">
        <ele>276</ele>
        <time>2022-04-03T08:36:01.000Z</time>
      </trkpt>
      <trkpt lat="49.66566" lon="4.74539">
        <ele>276</ele>
        <time>2022-04-03T08:36:02.000Z</time>
      </trkpt>
      <trkpt lat="49.66567" lon="4.74537">
        <ele>276</ele>
        <time>2022-04-03T08:36:03.000Z</time>
      </trkpt>
      <trkpt lat="49.66567" lon="4.74535">
        <ele>276</ele>
        <time>2022-04-03T08:36:04.000Z</time>
      </trkpt>
      <trkpt lat="49.66568" lon="4.74532">
        <ele>277</ele>
        <time>2022-04-03T08:36:05.000Z</time>
      </trkpt>
      <trkpt lat="49.66568" lon="4.7453">
        <ele>277</ele>
        <time>2022-04-03T08:36:06.000Z</time>
      </trkpt>
      <trkpt lat="49.66569" lon="4.74526">
        <ele>277</ele>
        <time>2022-04-03T08:36:07.000Z</time>
      </trkpt>
      <trkpt lat="49.66569" lon="4.74523">
        <ele>277</ele>
        <time>2022-04-03T08:36:08.000Z</time>
      </trkpt>
      <trkpt lat="49.6657" lon="4.74519">
        <ele>277</ele>
        <time>2022-04-03T08:36:09.000Z</time>
      </trkpt>
      <trkpt lat="49.6657" lon="4.74515">
        <ele>278</ele>
        <time>2022-04-03T08:36:10.000Z</time>
      </trkpt>
      <trkpt lat="49.66571" lon="4.74511">
        <ele>278</ele>
        <time>2022-04-03T08:36:11.000Z</time>
      </trkpt>
      <trkpt lat="49.66571" lon="4.74507">
        <ele>278</ele>
        <time>2022-04-03T08:36:12.000Z</time>
      </trkpt>
      <trkpt lat="49.66572" lon="4.74504">
        <ele>278</ele>
        <time>2022-04-03T08:36:13.000Z</time>
      </trkpt>
      <trkpt lat="49.66572" lon="4.745">
        <ele>278</ele>
        <time>2022-04-03T08:36:14.000Z</time>
      </trkpt>
      <trkpt lat="49.66572" lon="4.74496">
        <ele>279</ele>
        <time>2022-04-03T08:36:15.000Z</time>
      </trkpt>
      <trkpt lat="49.66573" lon="4.74491">
        <ele>279</ele>
        <time>2022-04-03T08:36:16.000Z</time>
      </trkpt>
      <trkpt lat="49.66573" lon="4.74487">
        <ele>279</ele>
        <time>2022-04-03T08:36:17.000Z</time>
      </trkpt>
      <trkpt lat="49.66574" lon="4.74483">
        <ele>279</ele>
        <time>2022-04-03T08:36:18.000Z</time>
      </trkpt>
      <trkpt lat="49.66574" lon="4.74479">
        <ele>279</ele>
        <time>2022-04-03T08:36:19.000Z</time>
      </trkpt>
      <trkpt lat="49.66575" lon="4.74476">
        <ele>279</ele>
        <time>2022-04-03T08:36:20.000Z</time>
      </trkpt>
      <trkpt lat="49.66576" lon="4.74472">
        <ele>279</ele>
        <time>2022-04-03T08:36:21.000Z</time>
      </trkpt>
      <trkpt lat="49.66577" lon="4.74468">
        <ele>280</ele>
        <time>2022-04-03T08:36:22.000Z</time>
      </trkpt>
      <trkpt lat="49.66578" lon="4.74464">
        <ele>280</ele>
        <time>2022-04-03T08:36:23.000Z</time>
      </trkpt>
      <trkpt lat="49.6658" lon="4.7446">
        <ele>280</ele>
        <time>2022-04-03T08:36:24.000Z</time>
      </trkpt>
      <trkpt lat="49.6658" lon="4.74456">
        <ele>280</ele>
        <time>2022-04-03T08:36:25.000Z</time>
      </trkpt>
      <trkpt lat="49.66581" lon="4.74452">
        <ele>280</ele>
        <time>2022-04-03T08:36:26.000Z</time>
      </trkpt>
      <trkpt lat="49.66581" lon="4.74448">
        <ele>280</ele>
        <time>2022-04-03T08:36:27.000Z</time>
      </trkpt>
      <trkpt lat="49.66581" lon="4.74442">
        <ele>280</ele>
        <time>2022-04-03T08:36:28.000Z</time>
      </trkpt>
      <trkpt lat="49.66581" lon="4.74436">
        <ele>281</ele>
        <time>2022-04-03T08:36:29.000Z</time>
      </trkpt>
      <trkpt lat="49.66581" lon="4.74432">
        <ele>281</ele>
        <time>2022-04-03T08:36:30.000Z</time>
      </trkpt>
      <trkpt lat="49.66581" lon="4.74428">
        <ele>281</ele>
        <time>2022-04-03T08:36:31.000Z</time>
      </trkpt>
      <trkpt lat="49.66581" lon="4.74424">
        <ele>281</ele>
        <time>2022-04-03T08:36:32.000Z</time>
      </trkpt>
      <trkpt lat="49.66582" lon="4.74419">
        <ele>281</ele>
        <time>2022-04-03T08:36:33.000Z</time>
      </trkpt>
      <trkpt lat="49.66582" lon="4.74414">
        <ele>281</ele>
        <time>2022-04-03T08:36:34.000Z</time>
      </trkpt>
      <trkpt lat="49.66583" lon="4.74409">
        <ele>281</ele>
        <time>2022-04-03T08:36:35.000Z</time>
      </trkpt>
      <trkpt lat="49.66585" lon="4.74404">
        <ele>281</ele>
        <time>2022-04-03T08:36:36.000Z</time>
      </trkpt>
      <trkpt lat="49.66586" lon="4.74399">
        <ele>281</ele>
        <time>2022-04-03T08:36:37.000Z</time>
      </trkpt>
      <trkpt lat="49.66587" lon="4.74395">
        <ele>281</ele>
        <time>2022-04-03T08:36:38.000Z</time>
      </trkpt>
      <trkpt lat="49.66588" lon="4.74392">
        <ele>281</ele>
        <time>2022-04-03T08:36:39.000Z</time>
      </trkpt>
      <trkpt lat="49.66588" lon="4.74389">
        <ele>281</ele>
        <time>2022-04-03T08:36:40.000Z</time>
      </trkpt>
      <trkpt lat="49.66588" lon="4.74386">
        <ele>281</ele>
        <time>2022-04-03T08:36:41.000Z</time>
      </trkpt>
      <trkpt lat="49.66587" lon="4.74382">
        <ele>281</ele>
        <time>2022-04-03T08:36:42.000Z</time>
      </trkpt>
      <trkpt lat="49.66586" lon="4.74377">
        <ele>282</ele>
        <time>2022-04-03T08:36:43.000Z</time>
      </trkpt>
      <trkpt lat="49.66584" lon="4.74372">
        <ele>282</ele>
        <time>2022-04-03T08:36:44.000Z</time>
      </trkpt>
      <trkpt lat="49.66582" lon="4.74367">
        <ele>282</ele>
        <time>2022-04-03T08:36:45.000Z</time>
      </trkpt>
      <trkpt lat="49.6658" lon="4.74362">
        <ele>282</ele>
        <time>2022-04-03T08:36:46.000Z</time>
      </trkpt>
      <trkpt lat="49.66578" lon="4.74358">
        <ele>282</ele>
        <time>2022-04-03T08:36:47.000Z</time>
      </trkpt>
      <trkpt lat="49.66577" lon="4.74353">
        <ele>282</ele>
        <time>2022-04-03T08:36:48.000Z</time>
      </trkpt>
      <trkpt lat="49.66576" lon="4.74348">
        <ele>282</ele>
        <time>2022-04-03T08:36:49.000Z</time>
      </trkpt>
      <trkpt lat="49.66574" lon="4.74344">
        <ele>283</ele>
        <time>2022-04-03T08:36:50.000Z</time>
      </trkpt>
      <trkpt lat="49.66573" lon="4.7434">
        <ele>283</ele>
        <time>2022-04-03T08:36:51.000Z</time>
      </trkpt>
      <trkpt lat="49.66571" lon="4.74336">
        <ele>283</ele>
        <time>2022-04-03T08:36:52.000Z</time>
      </trkpt>
      <trkpt lat="49.6657" lon="4.74332">
        <ele>283</ele>
        <time>2022-04-03T08:36:53.000Z</time>
      </trkpt>
      <trkpt lat="49.66568" lon="4.74328">
        <ele>283</ele>
        <time>2022-04-03T08:36:54.000Z</time>
      </trkpt>
      <trkpt lat="49.66567" lon="4.74324">
        <ele>283</ele>
        <time>2022-04-03T08:36:55.000Z</time>
      </trkpt>
      <trkpt lat="49.66565" lon="4.7432">
        <ele>283</ele>
        <time>2022-04-03T08:36:56.000Z</time>
      </trkpt>
      <trkpt lat="49.66563" lon="4.74316">
        <ele>283</ele>
        <time>2022-04-03T08:36:57.000Z</time>
      </trkpt>
      <trkpt lat="49.66561" lon="4.74312">
        <ele>283</ele>
        <time>2022-04-03T08:36:58.000Z</time>
      </trkpt>
      <trkpt lat="49.66559" lon="4.74309">
        <ele>283</ele>
        <time>2022-04-03T08:36:59.000Z</time>
      </trkpt>
      <trkpt lat="49.66558" lon="4.74306">
        <ele>283</ele>
        <time>2022-04-03T08:37:00.000Z</time>
      </trkpt>
      <trkpt lat="49.66557" lon="4.74302">
        <ele>283</ele>
        <time>2022-04-03T08:37:01.000Z</time>
      </trkpt>
      <trkpt lat="49.66556" lon="4.74298">
        <ele>283</ele>
        <time>2022-04-03T08:37:02.000Z</time>
      </trkpt>
      <trkpt lat="49.66555" lon="4.74294">
        <ele>283</ele>
        <time>2022-04-03T08:37:03.000Z</time>
      </trkpt>
      <trkpt lat="49.66554" lon="4.74289">
        <ele>283</ele>
        <time>2022-04-03T08:37:04.000Z</time>
      </trkpt>
      <trkpt lat="49.66554" lon="4.74284">
        <ele>283</ele>
        <time>2022-04-03T08:37:05.000Z</time>
      </trkpt>
      <trkpt lat="49.66552" lon="4.7428">
        <ele>283</ele>
        <time>2022-04-03T08:37:06.000Z</time>
      </trkpt>
      <trkpt lat="49.66551" lon="4.74276">
        <ele>284</ele>
        <time>2022-04-03T08:37:07.000Z</time>
      </trkpt>
      <trkpt lat="49.6655" lon="4.74272">
        <ele>284</ele>
        <time>2022-04-03T08:37:08.000Z</time>
      </trkpt>
      <trkpt lat="49.66548" lon="4.74267">
        <ele>284</ele>
        <time>2022-04-03T08:37:09.000Z</time>
      </trkpt>
      <trkpt lat="49.66547" lon="4.74263">
        <ele>285</ele>
        <time>2022-04-03T08:37:10.000Z</time>
      </trkpt>
      <trkpt lat="49.66545" lon="4.74258">
        <ele>285</ele>
        <time>2022-04-03T08:37:11.000Z</time>
      </trkpt>
      <trkpt lat="49.66544" lon="4.74253">
        <ele>285</ele>
        <time>2022-04-03T08:37:12.000Z</time>
      </trkpt>
      <trkpt lat="49.66544" lon="4.74247">
        <ele>286</ele>
        <time>2022-04-03T08:37:13.000Z</time>
      </trkpt>
      <trkpt lat="49.66543" lon="4.74242">
        <ele>286</ele>
        <time>2022-04-03T08:37:14.000Z</time>
      </trkpt>
      <trkpt lat="49.66542" lon="4.74237">
        <ele>286</ele>
        <time>2022-04-03T08:37:15.000Z</time>
      </trkpt>
      <trkpt lat="49.6654" lon="4.74232">
        <ele>287</ele>
        <time>2022-04-03T08:37:16.000Z</time>
      </trkpt>
      <trkpt lat="49.66539" lon="4.74228">
        <ele>287</ele>
        <time>2022-04-03T08:37:17.000Z</time>
      </trkpt>
      <trkpt lat="49.66537" lon="4.74223">
        <ele>287</ele>
        <time>2022-04-03T08:37:18.000Z</time>
      </trkpt>
      <trkpt lat="49.66535" lon="4.74219">
        <ele>288</ele>
        <time>2022-04-03T08:37:19.000Z</time>
      </trkpt>
      <trkpt lat="49.66534" lon="4.74214">
        <ele>288</ele>
        <time>2022-04-03T08:37:20.000Z</time>
      </trkpt>
      <trkpt lat="49.66533" lon="4.74209">
        <ele>288</ele>
        <time>2022-04-03T08:37:21.000Z</time>
      </trkpt>
      <trkpt lat="49.66531" lon="4.74204">
        <ele>288</ele>
        <time>2022-04-03T08:37:22.000Z</time>
      </trkpt>
      <trkpt lat="49.66529" lon="4.742">
        <ele>289</ele>
        <time>2022-04-03T08:37:23.000Z</time>
      </trkpt>
      <trkpt lat="49.66528" lon="4.74196">
        <ele>289</ele>
        <time>2022-04-03T08:37:24.000Z</time>
      </trkpt>
      <trkpt lat="49.66527" lon="4.74191">
        <ele>290</ele>
        <time>2022-04-03T08:37:25.000Z</time>
      </trkpt>
      <trkpt lat="49.66525" lon="4.74187">
        <ele>290</ele>
        <time>2022-04-03T08:37:26.000Z</time>
      </trkpt>
      <trkpt lat="49.66523" lon="4.74183">
        <ele>290</ele>
        <time>2022-04-03T08:37:27.000Z</time>
      </trkpt>
      <trkpt lat="49.66521" lon="4.74179">
        <ele>290</ele>
        <time>2022-04-03T08:37:28.000Z</time>
      </trkpt>
      <trkpt lat="49.6652" lon="4.74175">
        <ele>290</ele>
        <time>2022-04-03T08:37:29.000Z</time>
      </trkpt>
      <trkpt lat="49.66518" lon="4.7417">
        <ele>290</ele>
        <time>2022-04-03T08:37:30.000Z</time>
      </trkpt>
      <trkpt lat="49.66517" lon="4.74165">
        <ele>290</ele>
        <time>2022-04-03T08:37:31.000Z</time>
      </trkpt>
      <trkpt lat="49.66516" lon="4.7416">
        <ele>290</ele>
        <time>2022-04-03T08:37:32.000Z</time>
      </trkpt>
      <trkpt lat="49.66515" lon="4.74156">
        <ele>290</ele>
        <time>2022-04-03T08:37:33.000Z</time>
      </trkpt>
      <trkpt lat="49.66513" lon="4.74151">
        <ele>290</ele>
        <time>2022-04-03T08:37:34.000Z</time>
      </trkpt>
      <trkpt lat="49.66512" lon="4.74146">
        <ele>290</ele>
        <time>2022-04-03T08:37:35.000Z</time>
      </trkpt>
      <trkpt lat="49.66511" lon="4.74141">
        <ele>290</ele>
        <time>2022-04-03T08:37:36.000Z</time>
      </trkpt>
      <trkpt lat="49.6651" lon="4.74137">
        <ele>290</ele>
        <time>2022-04-03T08:37:37.000Z</time>
      </trkpt>
      <trkpt lat="49.66509" lon="4.74132">
        <ele>290</ele>
        <time>2022-04-03T08:37:38.000Z</time>
      </trkpt>
      <trkpt lat="49.66508" lon="4.74127">
        <ele>290</ele>
        <time>2022-04-03T08:37:39.000Z</time>
      </trkpt>
      <trkpt lat="49.66506" lon="4.74121">
        <ele>289</ele>
        <time>2022-04-03T08:37:40.000Z</time>
      </trkpt>
      <trkpt lat="49.66504" lon="4.74116">
        <ele>290</ele>
        <time>2022-04-03T08:37:41.000Z</time>
      </trkpt>
      <trkpt lat="49.66503" lon="4.74111">
        <ele>290</ele>
        <time>2022-04-03T08:37:42.000Z</time>
      </trkpt>
      <trkpt lat="49.66501" lon="4.74105">
        <ele>290</ele>
        <time>2022-04-03T08:37:43.000Z</time>
      </trkpt>
      <trkpt lat="49.665" lon="4.741">
        <ele>290</ele>
        <time>2022-04-03T08:37:44.000Z</time>
      </trkpt>
      <trkpt lat="49.66499" lon="4.74095">
        <ele>290</ele>
        <time>2022-04-03T08:37:45.000Z</time>
      </trkpt>
      <trkpt lat="49.66498" lon="4.74091">
        <ele>290</ele>
        <time>2022-04-03T08:37:46.000Z</time>
      </trkpt>
      <trkpt lat="49.66497" lon="4.74087">
        <ele>290</ele>
        <time>2022-04-03T08:37:47.000Z</time>
      </trkpt>
      <trkpt lat="49.66495" lon="4.74082">
        <ele>290</ele>
        <time>2022-04-03T08:37:48.000Z</time>
      </trkpt>
      <trkpt lat="49.66494" lon="4.74077">
        <ele>290</ele>
        <time>2022-04-03T08:37:49.000Z</time>
      </trkpt>
      <trkpt lat="49.66492" lon="4.74073">
        <ele>290</ele>
        <time>2022-04-03T08:37:50.000Z</time>
      </trkpt>
      <trkpt lat="49.66491" lon="4.74069">
        <ele>290</ele>
        <time>2022-04-03T08:37:51.000Z</time>
      </trkpt>
      <trkpt lat="49.66489" lon="4.74064">
        <ele>290</ele>
        <time>2022-04-03T08:37:52.000Z</time>
      </trkpt>
      <trkpt lat="49.66487" lon="4.7406">
        <ele>290</ele>
        <time>2022-04-03T08:37:53.000Z</time>
      </trkpt>
      <trkpt lat="49.66485" lon="4.74056">
        <ele>290</ele>
        <time>2022-04-03T08:37:54.000Z</time>
      </trkpt>
      <trkpt lat="49.66482" lon="4.74053">
        <ele>290</ele>
        <time>2022-04-03T08:37:55.000Z</time>
      </trkpt>
      <trkpt lat="49.66481" lon="4.74049">
        <ele>290</ele>
        <time>2022-04-03T08:37:56.000Z</time>
      </trkpt>
      <trkpt lat="49.6648" lon="4.74045">
        <ele>290</ele>
        <time>2022-04-03T08:37:57.000Z</time>
      </trkpt>
      <trkpt lat="49.66479" lon="4.74041">
        <ele>291</ele>
        <time>2022-04-03T08:37:58.000Z</time>
      </trkpt>
      <trkpt lat="49.66477" lon="4.74037">
        <ele>291</ele>
        <time>2022-04-03T08:37:59.000Z</time>
      </trkpt>
      <trkpt lat="49.66475" lon="4.74033">
        <ele>291</ele>
        <time>2022-04-03T08:38:00.000Z</time>
      </trkpt>
      <trkpt lat="49.66473" lon="4.7403">
        <ele>291</ele>
        <time>2022-04-03T08:38:01.000Z</time>
      </trkpt>
      <trkpt lat="49.66472" lon="4.74026">
        <ele>292</ele>
        <time>2022-04-03T08:38:02.000Z</time>
      </trkpt>
      <trkpt lat="49.6647" lon="4.74022">
        <ele>292</ele>
        <time>2022-04-03T08:38:03.000Z</time>
      </trkpt>
      <trkpt lat="49.66468" lon="4.74019">
        <ele>292</ele>
        <time>2022-04-03T08:38:04.000Z</time>
      </trkpt>
      <trkpt lat="49.66466" lon="4.74015">
        <ele>292</ele>
        <time>2022-04-03T08:38:05.000Z</time>
      </trkpt>
      <trkpt lat="49.66464" lon="4.74012">
        <ele>292</ele>
        <time>2022-04-03T08:38:06.000Z</time>
      </trkpt>
      <trkpt lat="49.66462" lon="4.74008">
        <ele>292</ele>
        <time>2022-04-03T08:38:07.000Z</time>
      </trkpt>
      <trkpt lat="49.66461" lon="4.74005">
        <ele>292</ele>
        <time>2022-04-03T08:38:08.000Z</time>
      </trkpt>
      <trkpt lat="49.66459" lon="4.74002">
        <ele>292</ele>
        <time>2022-04-03T08:38:09.000Z</time>
      </trkpt>
      <trkpt lat="49.66458" lon="4.73998">
        <ele>293</ele>
        <time>2022-04-03T08:38:10.000Z</time>
      </trkpt>
      <trkpt lat="49.66456" lon="4.73994">
        <ele>293</ele>
        <time>2022-04-03T08:38:11.000Z</time>
      </trkpt>
      <trkpt lat="49.66454" lon="4.73989">
        <ele>293</ele>
        <time>2022-04-03T08:38:12.000Z</time>
      </trkpt>
      <trkpt lat="49.66453" lon="4.73985">
        <ele>293</ele>
        <time>2022-04-03T08:38:13.000Z</time>
      </trkpt>
      <trkpt lat="49.66452" lon="4.73981">
        <ele>293</ele>
        <time>2022-04-03T08:38:14.000Z</time>
      </trkpt>
      <trkpt lat="49.66451" lon="4.7398">
        <ele>293</ele>
        <time>2022-04-03T08:38:15.000Z</time>
      </trkpt>
      <trkpt lat="49.66451" lon="4.73979">
        <ele>293</ele>
        <time>2022-04-03T08:38:16.000Z</time>
      </trkpt>
      <trkpt lat="49.6645" lon="4.73978">
        <ele>294</ele>
        <time>2022-04-03T08:38:17.000Z</time>
      </trkpt>
      <trkpt lat="49.6645" lon="4.73978">
        <ele>294</ele>
        <time>2022-04-03T08:38:18.000Z</time>
      </trkpt>
      <trkpt lat="49.6645" lon="4.73977">
        <ele>294</ele>
        <time>2022-04-03T08:38:19.000Z</time>
      </trkpt>
      <trkpt lat="49.6645" lon="4.73977">
        <ele>294</ele>
        <time>2022-04-03T08:38:20.000Z</time>
      </trkpt>
      <trkpt lat="49.66449" lon="4.73976">
        <ele>294</ele>
        <time>2022-04-03T08:38:21.000Z</time>
      </trkpt>
      <trkpt lat="49.66449" lon="4.73976">
        <ele>294</ele>
        <time>2022-04-03T08:38:22.000Z</time>
      </trkpt>
      <trkpt lat="49.66449" lon="4.73975">
        <ele>294</ele>
        <time>2022-04-03T08:38:23.000Z</time>
      </trkpt>
      <trkpt lat="49.66449" lon="4.73975">
        <ele>294</ele>
        <time>2022-04-03T08:38:24.000Z</time>
      </trkpt>
      <trkpt lat="49.66449" lon="4.73974">
        <ele>294</ele>
        <time>2022-04-03T08:38:25.000Z</time>
      </trkpt>
      <trkpt lat="49.66449" lon="4.73974">
        <ele>294</ele>
        <time>2022-04-03T08:38:26.000Z</time>
      </trkpt>
      <trkpt lat="49.66448" lon="4.73974">
        <ele>294</ele>
        <time>2022-04-03T08:38:27.000Z</time>
      </trkpt>
      <trkpt lat="49.66448" lon="4.73974">
        <ele>294</ele>
        <time>2022-04-03T08:38:28.000Z</time>
      </trkpt>
      <trkpt lat="49.66448" lon="4.73973">
        <ele>294</ele>
        <time>2022-04-03T08:38:29.000Z</time>
      </trkpt>
      <trkpt lat="49.66448" lon="4.73973">
        <ele>294</ele>
        <time>2022-04-03T08:38:30.000Z</time>
      </trkpt>
      <trkpt lat="49.66447" lon="4.73973">
        <ele>294</ele>
        <time>2022-04-03T08:38:31.000Z</time>
      </trkpt>
      <trkpt lat="49.66447" lon="4.73973">
        <ele>294</ele>
        <time>2022-04-03T08:38:32.000Z</time>
      </trkpt>
      <trkpt lat="49.66447" lon="4.73972">
        <ele>294</ele>
        <time>2022-04-03T08:38:33.000Z</time>
      </trkpt>
      <trkpt lat="49.66447" lon="4.73972">
        <ele>294</ele>
        <time>2022-04-03T08:38:34.000Z</time>
      </trkpt>
      <trkpt lat="49.66447" lon="4.73972">
        <ele>294</ele>
        <time>2022-04-03T08:38:35.000Z</time>
      </trkpt>
      <trkpt lat="49.66447" lon="4.73972">
        <ele>294</ele>
        <time>2022-04-03T08:38:36.000Z</time>
      </trkpt>
      <trkpt lat="49.66447" lon="4.73971">
        <ele>294</ele>
        <time>2022-04-03T08:38:37.000Z</time>
      </trkpt>
      <trkpt lat="49.66447" lon="4.73971">
        <ele>294</ele>
        <time>2022-04-03T08:38:38.000Z</time>
      </trkpt>
      <trkpt lat="49.66447" lon="4.73971">
        <ele>294</ele>
        <time>2022-04-03T08:38:39.000Z</time>
      </trkpt>
      <trkpt lat="49.66447" lon="4.73969">
        <ele>294</ele>
        <time>2022-04-03T08:38:40.000Z</time>
      </trkpt>
      <trkpt lat="49.66445" lon="4.73967">
        <ele>294</ele>
        <time>2022-04-03T08:38:41.000Z</time>
      </trkpt>
      <trkpt lat="49.66444" lon="4.73964">
        <ele>294</ele>
        <time>2022-04-03T08:38:42.000Z</time>
      </trkpt>
      <trkpt lat="49.66443" lon="4.7396">
        <ele>293</ele>
        <time>2022-04-03T08:38:43.000Z</time>
      </trkpt>
      <trkpt lat="49.66442" lon="4.73955">
        <ele>293</ele>
        <time>2022-04-03T08:38:44.000Z</time>
      </trkpt>
      <trkpt lat="49.6644" lon="4.7395">
        <ele>293</ele>
        <time>2022-04-03T08:38:45.000Z</time>
      </trkpt>
      <trkpt lat="49.66438" lon="4.73945">
        <ele>293</ele>
        <time>2022-04-03T08:38:46.000Z</time>
      </trkpt>
      <trkpt lat="49.66437" lon="4.73941">
        <ele>293</ele>
        <time>2022-04-03T08:38:47.000Z</time>
      </trkpt>
      <trkpt lat="49.66436" lon="4.73936">
        <ele>293</ele>
        <time>2022-04-03T08:38:48.000Z</time>
      </trkpt>
      <trkpt lat="49.66434" lon="4.73932">
        <ele>293</ele>
        <time>2022-04-03T08:38:49.000Z</time>
      </trkpt>
      <trkpt lat="49.66431" lon="4.73929">
        <ele>293</ele>
        <time>2022-04-03T08:38:50.000Z</time>
      </trkpt>
      <trkpt lat="49.6643" lon="4.73925">
        <ele>293</ele>
        <time>2022-04-03T08:38:51.000Z</time>
      </trkpt>
      <trkpt lat="49.66428" lon="4.7392">
        <ele>293</ele>
        <time>2022-04-03T08:38:52.000Z</time>
      </trkpt>
      <trkpt lat="49.66426" lon="4.73916">
        <ele>293</ele>
        <time>2022-04-03T08:38:53.000Z</time>
      </trkpt>
      <trkpt lat="49.66425" lon="4.73911">
        <ele>293</ele>
        <time>2022-04-03T08:38:54.000Z</time>
      </trkpt>
      <trkpt lat="49.66423" lon="4.73907">
        <ele>293</ele>
        <time>2022-04-03T08:38:55.000Z</time>
      </trkpt>
      <trkpt lat="49.66421" lon="4.73903">
        <ele>293</ele>
        <time>2022-04-03T08:38:56.000Z</time>
      </trkpt>
      <trkpt lat="49.66419" lon="4.73899">
        <ele>293</ele>
        <time>2022-04-03T08:38:57.000Z</time>
      </trkpt>
      <trkpt lat="49.66418" lon="4.73895">
        <ele>294</ele>
        <time>2022-04-03T08:38:58.000Z</time>
      </trkpt>
      <trkpt lat="49.66417" lon="4.7389">
        <ele>294</ele>
        <time>2022-04-03T08:38:59.000Z</time>
      </trkpt>
      <trkpt lat="49.66415" lon="4.73885">
        <ele>294</ele>
        <time>2022-04-03T08:39:00.000Z</time>
      </trkpt>
      <trkpt lat="49.66414" lon="4.7388">
        <ele>294</ele>
        <time>2022-04-03T08:39:01.000Z</time>
      </trkpt>
      <trkpt lat="49.66412" lon="4.73875">
        <ele>294</ele>
        <time>2022-04-03T08:39:02.000Z</time>
      </trkpt>
      <trkpt lat="49.66411" lon="4.7387">
        <ele>294</ele>
        <time>2022-04-03T08:39:03.000Z</time>
      </trkpt>
      <trkpt lat="49.6641" lon="4.73865">
        <ele>294</ele>
        <time>2022-04-03T08:39:04.000Z</time>
      </trkpt>
      <trkpt lat="49.66408" lon="4.73861">
        <ele>294</ele>
        <time>2022-04-03T08:39:05.000Z</time>
      </trkpt>
      <trkpt lat="49.66406" lon="4.73856">
        <ele>295</ele>
        <time>2022-04-03T08:39:06.000Z</time>
      </trkpt>
      <trkpt lat="49.66405" lon="4.73852">
        <ele>295</ele>
        <time>2022-04-03T08:39:07.000Z</time>
      </trkpt>
      <trkpt lat="49.66403" lon="4.73847">
        <ele>295</ele>
        <time>2022-04-03T08:39:08.000Z</time>
      </trkpt>
      <trkpt lat="49.66402" lon="4.73843">
        <ele>295</ele>
        <time>2022-04-03T08:39:09.000Z</time>
      </trkpt>
      <trkpt lat="49.664" lon="4.73839">
        <ele>295</ele>
        <time>2022-04-03T08:39:10.000Z</time>
      </trkpt>
      <trkpt lat="49.66398" lon="4.73834">
        <ele>295</ele>
        <time>2022-04-03T08:39:11.000Z</time>
      </trkpt>
      <trkpt lat="49.66397" lon="4.7383">
        <ele>295</ele>
        <time>2022-04-03T08:39:12.000Z</time>
      </trkpt>
      <trkpt lat="49.66395" lon="4.73825">
        <ele>295</ele>
        <time>2022-04-03T08:39:13.000Z</time>
      </trkpt>
      <trkpt lat="49.66394" lon="4.73821">
        <ele>295</ele>
        <time>2022-04-03T08:39:14.000Z</time>
      </trkpt>
      <trkpt lat="49.66392" lon="4.73816">
        <ele>295</ele>
        <time>2022-04-03T08:39:15.000Z</time>
      </trkpt>
      <trkpt lat="49.6639" lon="4.73812">
        <ele>295</ele>
        <time>2022-04-03T08:39:16.000Z</time>
      </trkpt>
      <trkpt lat="49.66389" lon="4.73807">
        <ele>295</ele>
        <time>2022-04-03T08:39:17.000Z</time>
      </trkpt>
      <trkpt lat="49.66387" lon="4.73803">
        <ele>295</ele>
        <time>2022-04-03T08:39:18.000Z</time>
      </trkpt>
      <trkpt lat="49.66385" lon="4.73799">
        <ele>295</ele>
        <time>2022-04-03T08:39:19.000Z</time>
      </trkpt>
      <trkpt lat="49.66383" lon="4.73795">
        <ele>296</ele>
        <time>2022-04-03T08:39:20.000Z</time>
      </trkpt>
      <trkpt lat="49.66382" lon="4.7379">
        <ele>296</ele>
        <time>2022-04-03T08:39:21.000Z</time>
      </trkpt>
      <trkpt lat="49.66381" lon="4.73785">
        <ele>296</ele>
        <time>2022-04-03T08:39:22.000Z</time>
      </trkpt>
      <trkpt lat="49.6638" lon="4.7378">
        <ele>296</ele>
        <time>2022-04-03T08:39:23.000Z</time>
      </trkpt>
      <trkpt lat="49.66379" lon="4.73775">
        <ele>296</ele>
        <time>2022-04-03T08:39:24.000Z</time>
      </trkpt>
      <trkpt lat="49.66379" lon="4.73771">
        <ele>296</ele>
        <time>2022-04-03T08:39:25.000Z</time>
      </trkpt>
      <trkpt lat="49.66378" lon="4.73766">
        <ele>296</ele>
        <time>2022-04-03T08:39:26.000Z</time>
      </trkpt>
      <trkpt lat="49.66377" lon="4.73761">
        <ele>296</ele>
        <time>2022-04-03T08:39:27.000Z</time>
      </trkpt>
      <trkpt lat="49.66376" lon="4.73756">
        <ele>296</ele>
        <time>2022-04-03T08:39:28.000Z</time>
      </trkpt>
      <trkpt lat="49.66374" lon="4.73752">
        <ele>296</ele>
        <time>2022-04-03T08:39:29.000Z</time>
      </trkpt>
      <trkpt lat="49.66373" lon="4.73747">
        <ele>296</ele>
        <time>2022-04-03T08:39:30.000Z</time>
      </trkpt>
      <trkpt lat="49.66371" lon="4.73743">
        <ele>296</ele>
        <time>2022-04-03T08:39:31.000Z</time>
      </trkpt>
      <trkpt lat="49.6637" lon="4.73738">
        <ele>296</ele>
        <time>2022-04-03T08:39:32.000Z</time>
      </trkpt>
      <trkpt lat="49.66368" lon="4.73733">
        <ele>296</ele>
        <time>2022-04-03T08:39:33.000Z</time>
      </trkpt>
      <trkpt lat="49.66366" lon="4.73729">
        <ele>296</ele>
        <time>2022-04-03T08:39:34.000Z</time>
      </trkpt>
      <trkpt lat="49.66365" lon="4.73725">
        <ele>296</ele>
        <time>2022-04-03T08:39:35.000Z</time>
      </trkpt>
      <trkpt lat="49.66363" lon="4.73721">
        <ele>296</ele>
        <time>2022-04-03T08:39:36.000Z</time>
      </trkpt>
      <trkpt lat="49.66361" lon="4.73717">
        <ele>296</ele>
        <time>2022-04-03T08:39:37.000Z</time>
      </trkpt>
      <trkpt lat="49.6636" lon="4.73713">
        <ele>297</ele>
        <time>2022-04-03T08:39:38.000Z</time>
      </trkpt>
      <trkpt lat="49.66358" lon="4.73709">
        <ele>297</ele>
        <time>2022-04-03T08:39:39.000Z</time>
      </trkpt>
      <trkpt lat="49.66355" lon="4.73705">
        <ele>297</ele>
        <time>2022-04-03T08:39:40.000Z</time>
      </trkpt>
      <trkpt lat="49.66352" lon="4.73701">
        <ele>297</ele>
        <time>2022-04-03T08:39:41.000Z</time>
      </trkpt>
      <trkpt lat="49.6635" lon="4.73698">
        <ele>297</ele>
        <time>2022-04-03T08:39:42.000Z</time>
      </trkpt>
      <trkpt lat="49.66348" lon="4.73694">
        <ele>297</ele>
        <time>2022-04-03T08:39:43.000Z</time>
      </trkpt>
      <trkpt lat="49.66346" lon="4.7369">
        <ele>297</ele>
        <time>2022-04-03T08:39:44.000Z</time>
      </trkpt>
      <trkpt lat="49.66344" lon="4.73687">
        <ele>297</ele>
        <time>2022-04-03T08:39:45.000Z</time>
      </trkpt>
      <trkpt lat="49.66342" lon="4.73684">
        <ele>297</ele>
        <time>2022-04-03T08:39:46.000Z</time>
      </trkpt>
      <trkpt lat="49.6634" lon="4.73681">
        <ele>297</ele>
        <time>2022-04-03T08:39:47.000Z</time>
      </trkpt>
      <trkpt lat="49.66339" lon="4.73679">
        <ele>297</ele>
        <time>2022-04-03T08:39:48.000Z</time>
      </trkpt>
      <trkpt lat="49.66337" lon="4.73676">
        <ele>298</ele>
        <time>2022-04-03T08:39:49.000Z</time>
      </trkpt>
      <trkpt lat="49.66335" lon="4.73674">
        <ele>298</ele>
        <time>2022-04-03T08:39:50.000Z</time>
      </trkpt>
      <trkpt lat="49.66334" lon="4.73671">
        <ele>298</ele>
        <time>2022-04-03T08:39:51.000Z</time>
      </trkpt>
      <trkpt lat="49.66332" lon="4.73669">
        <ele>298</ele>
        <time>2022-04-03T08:39:52.000Z</time>
      </trkpt>
      <trkpt lat="49.6633" lon="4.73666">
        <ele>298</ele>
        <time>2022-04-03T08:39:53.000Z</time>
      </trkpt>
      <trkpt lat="49.66329" lon="4.73663">
        <ele>298</ele>
        <time>2022-04-03T08:39:54.000Z</time>
      </trkpt>
      <trkpt lat="49.66327" lon="4.7366">
        <ele>299</ele>
        <time>2022-04-03T08:39:55.000Z</time>
      </trkpt>
      <trkpt lat="49.66326" lon="4.73656">
        <ele>299</ele>
        <time>2022-04-03T08:39:56.000Z</time>
      </trkpt>
      <trkpt lat="49.66324" lon="4.73653">
        <ele>299</ele>
        <time>2022-04-03T08:39:57.000Z</time>
      </trkpt>
      <trkpt lat="49.66323" lon="4.73649">
        <ele>299</ele>
        <time>2022-04-03T08:39:58.000Z</time>
      </trkpt>
      <trkpt lat="49.66322" lon="4.73645">
        <ele>300</ele>
        <time>2022-04-03T08:39:59.000Z</time>
      </trkpt>
      <trkpt lat="49.6632" lon="4.73642">
        <ele>300</ele>
        <time>2022-04-03T08:40:00.000Z</time>
      </trkpt>
      <trkpt lat="49.66319" lon="4.73638">
        <ele>300</ele>
        <time>2022-04-03T08:40:01.000Z</time>
      </trkpt>
      <trkpt lat="49.66317" lon="4.73634">
        <ele>300</ele>
        <time>2022-04-03T08:40:02.000Z</time>
      </trkpt>
      <trkpt lat="49.66316" lon="4.7363">
        <ele>300</ele>
        <time>2022-04-03T08:40:03.000Z</time>
      </trkpt>
      <trkpt lat="49.66314" lon="4.73626">
        <ele>300</ele>
        <time>2022-04-03T08:40:04.000Z</time>
      </trkpt>
      <trkpt lat="49.66312" lon="4.73622">
        <ele>301</ele>
        <time>2022-04-03T08:40:05.000Z</time>
      </trkpt>
      <trkpt lat="49.66311" lon="4.73617">
        <ele>301</ele>
        <time>2022-04-03T08:40:06.000Z</time>
      </trkpt>
      <trkpt lat="49.66309" lon="4.73613">
        <ele>301</ele>
        <time>2022-04-03T08:40:07.000Z</time>
      </trkpt>
      <trkpt lat="49.66308" lon="4.73609">
        <ele>301</ele>
        <time>2022-04-03T08:40:08.000Z</time>
      </trkpt>
      <trkpt lat="49.66306" lon="4.73605">
        <ele>301</ele>
        <time>2022-04-03T08:40:09.000Z</time>
      </trkpt>
      <trkpt lat="49.66304" lon="4.73601">
        <ele>302</ele>
        <time>2022-04-03T08:40:10.000Z</time>
      </trkpt>
      <trkpt lat="49.66303" lon="4.73596">
        <ele>302</ele>
        <time>2022-04-03T08:40:11.000Z</time>
      </trkpt>
      <trkpt lat="49.66302" lon="4.73592">
        <ele>302</ele>
        <time>2022-04-03T08:40:12.000Z</time>
      </trkpt>
      <trkpt lat="49.66301" lon="4.73588">
        <ele>302</ele>
        <time>2022-04-03T08:40:13.000Z</time>
      </trkpt>
      <trkpt lat="49.663" lon="4.73584">
        <ele>302</ele>
        <time>2022-04-03T08:40:14.000Z</time>
      </trkpt>
      <trkpt lat="49.66299" lon="4.73579">
        <ele>302</ele>
        <time>2022-04-03T08:40:15.000Z</time>
      </trkpt>
      <trkpt lat="49.66298" lon="4.73575">
        <ele>303</ele>
        <time>2022-04-03T08:40:16.000Z</time>
      </trkpt>
      <trkpt lat="49.66297" lon="4.73571">
        <ele>303</ele>
        <time>2022-04-03T08:40:17.000Z</time>
      </trkpt>
      <trkpt lat="49.66296" lon="4.73567">
        <ele>303</ele>
        <time>2022-04-03T08:40:18.000Z</time>
      </trkpt>
      <trkpt lat="49.66295" lon="4.73562">
        <ele>303</ele>
        <time>2022-04-03T08:40:19.000Z</time>
      </trkpt>
      <trkpt lat="49.66294" lon="4.73558">
        <ele>303</ele>
        <time>2022-04-03T08:40:20.000Z</time>
      </trkpt>
      <trkpt lat="49.66292" lon="4.73554">
        <ele>303</ele>
        <time>2022-04-03T08:40:21.000Z</time>
      </trkpt>
      <trkpt lat="49.6629" lon="4.73549">
        <ele>304</ele>
        <time>2022-04-03T08:40:22.000Z</time>
      </trkpt>
      <trkpt lat="49.66288" lon="4.73545">
        <ele>304</ele>
        <time>2022-04-03T08:40:23.000Z</time>
      </trkpt>
      <trkpt lat="49.66287" lon="4.73541">
        <ele>304</ele>
        <time>2022-04-03T08:40:24.000Z</time>
      </trkpt>
      <trkpt lat="49.66285" lon="4.73537">
        <ele>304</ele>
        <time>2022-04-03T08:40:25.000Z</time>
      </trkpt>
      <trkpt lat="49.66283" lon="4.73533">
        <ele>304</ele>
        <time>2022-04-03T08:40:26.000Z</time>
      </trkpt>
      <trkpt lat="49.66281" lon="4.7353">
        <ele>304</ele>
        <time>2022-04-03T08:40:27.000Z</time>
      </trkpt>
      <trkpt lat="49.66279" lon="4.73527">
        <ele>304</ele>
        <time>2022-04-03T08:40:28.000Z</time>
      </trkpt>
      <trkpt lat="49.66277" lon="4.73524">
        <ele>304</ele>
        <time>2022-04-03T08:40:29.000Z</time>
      </trkpt>
      <trkpt lat="49.66274" lon="4.73523">
        <ele>304</ele>
        <time>2022-04-03T08:40:30.000Z</time>
      </trkpt>
      <trkpt lat="49.66272" lon="4.73521">
        <ele>304</ele>
        <time>2022-04-03T08:40:31.000Z</time>
      </trkpt>
      <trkpt lat="49.66269" lon="4.73518">
        <ele>304</ele>
        <time>2022-04-03T08:40:32.000Z</time>
      </trkpt>
      <trkpt lat="49.66267" lon="4.73516">
        <ele>304</ele>
        <time>2022-04-03T08:40:33.000Z</time>
      </trkpt>
      <trkpt lat="49.66265" lon="4.73515">
        <ele>305</ele>
        <time>2022-04-03T08:40:34.000Z</time>
      </trkpt>
      <trkpt lat="49.66262" lon="4.73513">
        <ele>304</ele>
        <time>2022-04-03T08:40:35.000Z</time>
      </trkpt>
      <trkpt lat="49.66259" lon="4.7351">
        <ele>304</ele>
        <time>2022-04-03T08:40:36.000Z</time>
      </trkpt>
      <trkpt lat="49.66257" lon="4.73506">
        <ele>304</ele>
        <time>2022-04-03T08:40:37.000Z</time>
      </trkpt>
      <trkpt lat="49.66256" lon="4.73502">
        <ele>304</ele>
        <time>2022-04-03T08:40:38.000Z</time>
      </trkpt>
      <trkpt lat="49.66256" lon="4.73499">
        <ele>304</ele>
        <time>2022-04-03T08:40:39.000Z</time>
      </trkpt>
      <trkpt lat="49.66258" lon="4.73497">
        <ele>304</ele>
        <time>2022-04-03T08:40:40.000Z</time>
      </trkpt>
      <trkpt lat="49.66259" lon="4.73495">
        <ele>304</ele>
        <time>2022-04-03T08:40:41.000Z</time>
      </trkpt>
      <trkpt lat="49.66261" lon="4.73494">
        <ele>304</ele>
        <time>2022-04-03T08:40:42.000Z</time>
      </trkpt>
      <trkpt lat="49.66263" lon="4.73493">
        <ele>304</ele>
        <time>2022-04-03T08:40:43.000Z</time>
      </trkpt>
      <trkpt lat="49.66266" lon="4.73492">
        <ele>305</ele>
        <time>2022-04-03T08:40:44.000Z</time>
      </trkpt>
      <trkpt lat="49.66269" lon="4.73492">
        <ele>305</ele>
        <time>2022-04-03T08:40:45.000Z</time>
      </trkpt>
      <trkpt lat="49.66272" lon="4.73491">
        <ele>305</ele>
        <time>2022-04-03T08:40:46.000Z</time>
      </trkpt>
      <trkpt lat="49.66276" lon="4.7349">
        <ele>305</ele>
        <time>2022-04-03T08:40:47.000Z</time>
      </trkpt>
      <trkpt lat="49.6628" lon="4.73488">
        <ele>305</ele>
        <time>2022-04-03T08:40:48.000Z</time>
      </trkpt>
      <trkpt lat="49.66284" lon="4.73486">
        <ele>305</ele>
        <time>2022-04-03T08:40:49.000Z</time>
      </trkpt>
      <trkpt lat="49.66288" lon="4.73483">
        <ele>305</ele>
        <time>2022-04-03T08:40:50.000Z</time>
      </trkpt>
      <trkpt lat="49.66291" lon="4.7348">
        <ele>305</ele>
        <time>2022-04-03T08:40:51.000Z</time>
      </trkpt>
      <trkpt lat="49.66295" lon="4.73477">
        <ele>305</ele>
        <time>2022-04-03T08:40:52.000Z</time>
      </trkpt>
      <trkpt lat="49.663" lon="4.73474">
        <ele>305</ele>
        <time>2022-04-03T08:40:53.000Z</time>
      </trkpt>
      <trkpt lat="49.66304" lon="4.73472">
        <ele>305</ele>
        <time>2022-04-03T08:40:54.000Z</time>
      </trkpt>
      <trkpt lat="49.66309" lon="4.7347">
        <ele>305</ele>
        <time>2022-04-03T08:40:55.000Z</time>
      </trkpt>
      <trkpt lat="49.66313" lon="4.73469">
        <ele>305</ele>
        <time>2022-04-03T08:40:56.000Z</time>
      </trkpt>
      <trkpt lat="49.66318" lon="4.73468">
        <ele>305</ele>
        <time>2022-04-03T08:40:57.000Z</time>
      </trkpt>
      <trkpt lat="49.66323" lon="4.73466">
        <ele>305</ele>
        <time>2022-04-03T08:40:58.000Z</time>
      </trkpt>
      <trkpt lat="49.66328" lon="4.73463">
        <ele>305</ele>
        <time>2022-04-03T08:40:59.000Z</time>
      </trkpt>
      <trkpt lat="49.66334" lon="4.73459">
        <ele>305</ele>
        <time>2022-04-03T08:41:00.000Z</time>
      </trkpt>
      <trkpt lat="49.6634" lon="4.73454">
        <ele>305</ele>
        <time>2022-04-03T08:41:01.000Z</time>
      </trkpt>
      <trkpt lat="49.66346" lon="4.73449">
        <ele>305</ele>
        <time>2022-04-03T08:41:02.000Z</time>
      </trkpt>
      <trkpt lat="49.66352" lon="4.73443">
        <ele>304</ele>
        <time>2022-04-03T08:41:03.000Z</time>
      </trkpt>
      <trkpt lat="49.66359" lon="4.73438">
        <ele>304</ele>
        <time>2022-04-03T08:41:04.000Z</time>
      </trkpt>
      <trkpt lat="49.66366" lon="4.73432">
        <ele>304</ele>
        <time>2022-04-03T08:41:05.000Z</time>
      </trkpt>
      <trkpt lat="49.66372" lon="4.73427">
        <ele>304</ele>
        <time>2022-04-03T08:41:06.000Z</time>
      </trkpt>
      <trkpt lat="49.66378" lon="4.73422">
        <ele>303</ele>
        <time>2022-04-03T08:41:07.000Z</time>
      </trkpt>
      <trkpt lat="49.66384" lon="4.73416">
        <ele>303</ele>
        <time>2022-04-03T08:41:08.000Z</time>
      </trkpt>
      <trkpt lat="49.66389" lon="4.7341">
        <ele>303</ele>
        <time>2022-04-03T08:41:09.000Z</time>
      </trkpt>
      <trkpt lat="49.66395" lon="4.73404">
        <ele>302</ele>
        <time>2022-04-03T08:41:10.000Z</time>
      </trkpt>
      <trkpt lat="49.664" lon="4.73397">
        <ele>302</ele>
        <time>2022-04-03T08:41:11.000Z</time>
      </trkpt>
      <trkpt lat="49.66405" lon="4.73391">
        <ele>301</ele>
        <time>2022-04-03T08:41:12.000Z</time>
      </trkpt>
      <trkpt lat="49.6641" lon="4.73386">
        <ele>300</ele>
        <time>2022-04-03T08:41:13.000Z</time>
      </trkpt>
      <trkpt lat="49.66414" lon="4.73381">
        <ele>300</ele>
        <time>2022-04-03T08:41:14.000Z</time>
      </trkpt>
      <trkpt lat="49.66418" lon="4.73377">
        <ele>300</ele>
        <time>2022-04-03T08:41:15.000Z</time>
      </trkpt>
      <trkpt lat="49.6642" lon="4.73373">
        <ele>299</ele>
        <time>2022-04-03T08:41:16.000Z</time>
      </trkpt>
      <trkpt lat="49.66423" lon="4.73368">
        <ele>299</ele>
        <time>2022-04-03T08:41:17.000Z</time>
      </trkpt>
      <trkpt lat="49.66424" lon="4.73364">
        <ele>298</ele>
        <time>2022-04-03T08:41:18.000Z</time>
      </trkpt>
      <trkpt lat="49.66425" lon="4.7336">
        <ele>298</ele>
        <time>2022-04-03T08:41:19.000Z</time>
      </trkpt>
      <trkpt lat="49.66425" lon="4.73355">
        <ele>297</ele>
        <time>2022-04-03T08:41:20.000Z</time>
      </trkpt>
      <trkpt lat="49.66426" lon="4.7335">
        <ele>297</ele>
        <time>2022-04-03T08:41:21.000Z</time>
      </trkpt>
      <trkpt lat="49.66427" lon="4.73344">
        <ele>296</ele>
        <time>2022-04-03T08:41:22.000Z</time>
      </trkpt>
      <trkpt lat="49.66428" lon="4.73338">
        <ele>296</ele>
        <time>2022-04-03T08:41:23.000Z</time>
      </trkpt>
      <trkpt lat="49.66429" lon="4.73332">
        <ele>295</ele>
        <time>2022-04-03T08:41:24.000Z</time>
      </trkpt>
      <trkpt lat="49.6643" lon="4.73326">
        <ele>295</ele>
        <time>2022-04-03T08:41:25.000Z</time>
      </trkpt>
      <trkpt lat="49.66431" lon="4.73322">
        <ele>294</ele>
        <time>2022-04-03T08:41:26.000Z</time>
      </trkpt>
      <trkpt lat="49.66431" lon="4.73318">
        <ele>294</ele>
        <time>2022-04-03T08:41:27.000Z</time>
      </trkpt>
      <trkpt lat="49.66431" lon="4.73314">
        <ele>294</ele>
        <time>2022-04-03T08:41:28.000Z</time>
      </trkpt>
      <trkpt lat="49.6643" lon="4.7331">
        <ele>293</ele>
        <time>2022-04-03T08:41:29.000Z</time>
      </trkpt>
      <trkpt lat="49.66428" lon="4.73306">
        <ele>293</ele>
        <time>2022-04-03T08:41:30.000Z</time>
      </trkpt>
      <trkpt lat="49.66425" lon="4.73301">
        <ele>292</ele>
        <time>2022-04-03T08:41:31.000Z</time>
      </trkpt>
      <trkpt lat="49.66423" lon="4.73297">
        <ele>292</ele>
        <time>2022-04-03T08:41:32.000Z</time>
      </trkpt>
      <trkpt lat="49.66421" lon="4.73291">
        <ele>291</ele>
        <time>2022-04-03T08:41:33.000Z</time>
      </trkpt>
      <trkpt lat="49.66417" lon="4.73285">
        <ele>291</ele>
        <time>2022-04-03T08:41:34.000Z</time>
      </trkpt>
      <trkpt lat="49.66414" lon="4.73278">
        <ele>290</ele>
        <time>2022-04-03T08:41:35.000Z</time>
      </trkpt>
      <trkpt lat="49.66412" lon="4.73273">
        <ele>289</ele>
        <time>2022-04-03T08:41:36.000Z</time>
      </trkpt>
      <trkpt lat="49.66409" lon="4.73268">
        <ele>289</ele>
        <time>2022-04-03T08:41:37.000Z</time>
      </trkpt>
      <trkpt lat="49.66406" lon="4.73263">
        <ele>288</ele>
        <time>2022-04-03T08:41:38.000Z</time>
      </trkpt>
      <trkpt lat="49.66403" lon="4.73257">
        <ele>288</ele>
        <time>2022-04-03T08:41:39.000Z</time>
      </trkpt>
      <trkpt lat="49.664" lon="4.73251">
        <ele>287</ele>
        <time>2022-04-03T08:41:40.000Z</time>
      </trkpt>
      <trkpt lat="49.66397" lon="4.73244">
        <ele>287</ele>
        <time>2022-04-03T08:41:41.000Z</time>
      </trkpt>
      <trkpt lat="49.66395" lon="4.73237">
        <ele>286</ele>
        <time>2022-04-03T08:41:42.000Z</time>
      </trkpt>
      <trkpt lat="49.66391" lon="4.73231">
        <ele>285</ele>
        <time>2022-04-03T08:41:43.000Z</time>
      </trkpt>
      <trkpt lat="49.66389" lon="4.73225">
        <ele>285</ele>
        <time>2022-04-03T08:41:44.000Z</time>
      </trkpt>
      <trkpt lat="49.66385" lon="4.73219">
        <ele>284</ele>
        <time>2022-04-03T08:41:45.000Z</time>
      </trkpt>
      <trkpt lat="49.66382" lon="4.73213">
        <ele>284</ele>
        <time>2022-04-03T08:41:46.000Z</time>
      </trkpt>
      <trkpt lat="49.66379" lon="4.73207">
        <ele>283</ele>
        <time>2022-04-03T08:41:47.000Z</time>
      </trkpt>
      <trkpt lat="49.66376" lon="4.732">
        <ele>282</ele>
        <time>2022-04-03T08:41:48.000Z</time>
      </trkpt>
      <trkpt lat="49.66373" lon="4.73194">
        <ele>281</ele>
        <time>2022-04-03T08:41:49.000Z</time>
      </trkpt>
      <trkpt lat="49.66371" lon="4.73189">
        <ele>281</ele>
        <time>2022-04-03T08:41:50.000Z</time>
      </trkpt>
      <trkpt lat="49.66368" lon="4.73184">
        <ele>280</ele>
        <time>2022-04-03T08:41:51.000Z</time>
      </trkpt>
      <trkpt lat="49.66366" lon="4.73179">
        <ele>280</ele>
        <time>2022-04-03T08:41:52.000Z</time>
      </trkpt>
      <trkpt lat="49.66364" lon="4.73173">
        <ele>279</ele>
        <time>2022-04-03T08:41:53.000Z</time>
      </trkpt>
      <trkpt lat="49.66362" lon="4.73167">
        <ele>279</ele>
        <time>2022-04-03T08:41:54.000Z</time>
      </trkpt>
      <trkpt lat="49.66361" lon="4.73162">
        <ele>278</ele>
        <time>2022-04-03T08:41:55.000Z</time>
      </trkpt>
      <trkpt lat="49.6636" lon="4.73156">
        <ele>277</ele>
        <time>2022-04-03T08:41:56.000Z</time>
      </trkpt>
      <trkpt lat="49.66358" lon="4.73151">
        <ele>277</ele>
        <time>2022-04-03T08:41:57.000Z</time>
      </trkpt>
      <trkpt lat="49.66357" lon="4.73145">
        <ele>277</ele>
        <time>2022-04-03T08:41:58.000Z</time>
      </trkpt>
      <trkpt lat="49.66356" lon="4.73139">
        <ele>276</ele>
        <time>2022-04-03T08:41:59.000Z</time>
      </trkpt>
      <trkpt lat="49.66355" lon="4.73132">
        <ele>276</ele>
        <time>2022-04-03T08:42:00.000Z</time>
      </trkpt>
      <trkpt lat="49.66354" lon="4.73126">
        <ele>275</ele>
        <time>2022-04-03T08:42:01.000Z</time>
      </trkpt>
      <trkpt lat="49.66354" lon="4.73121">
        <ele>274</ele>
        <time>2022-04-03T08:42:02.000Z</time>
      </trkpt>
      <trkpt lat="49.66353" lon="4.73117">
        <ele>274</ele>
        <time>2022-04-03T08:42:03.000Z</time>
      </trkpt>
      <trkpt lat="49.66353" lon="4.73112">
        <ele>273</ele>
        <time>2022-04-03T08:42:04.000Z</time>
      </trkpt>
      <trkpt lat="49.66353" lon="4.73107">
        <ele>273</ele>
        <time>2022-04-03T08:42:05.000Z</time>
      </trkpt>
      <trkpt lat="49.66353" lon="4.73102">
        <ele>272</ele>
        <time>2022-04-03T08:42:06.000Z</time>
      </trkpt>
      <trkpt lat="49.66354" lon="4.731">
        <ele>271</ele>
        <time>2022-04-03T08:42:07.000Z</time>
      </trkpt>
      <trkpt lat="49.66356" lon="4.73098">
        <ele>271</ele>
        <time>2022-04-03T08:42:08.000Z</time>
      </trkpt>
      <trkpt lat="49.66357" lon="4.73098">
        <ele>270</ele>
        <time>2022-04-03T08:42:09.000Z</time>
      </trkpt>
      <trkpt lat="49.66358" lon="4.73099">
        <ele>269</ele>
        <time>2022-04-03T08:42:10.000Z</time>
      </trkpt>
      <trkpt lat="49.66359" lon="4.73101">
        <ele>269</ele>
        <time>2022-04-03T08:42:11.000Z</time>
      </trkpt>
      <trkpt lat="49.6636" lon="4.73102">
        <ele>268</ele>
        <time>2022-04-03T08:42:12.000Z</time>
      </trkpt>
      <trkpt lat="49.6636" lon="4.73103">
        <ele>267</ele>
        <time>2022-04-03T08:42:13.000Z</time>
      </trkpt>
      <trkpt lat="49.66362" lon="4.73103">
        <ele>266</ele>
        <time>2022-04-03T08:42:14.000Z</time>
      </trkpt>
      <trkpt lat="49.66363" lon="4.73104">
        <ele>266</ele>
        <time>2022-04-03T08:42:15.000Z</time>
      </trkpt>
      <trkpt lat="49.66365" lon="4.73105">
        <ele>265</ele>
        <time>2022-04-03T08:42:16.000Z</time>
      </trkpt>
      <trkpt lat="49.66367" lon="4.73105">
        <ele>265</ele>
        <time>2022-04-03T08:42:17.000Z</time>
      </trkpt>
      <trkpt lat="49.66368" lon="4.73103">
        <ele>264</ele>
        <time>2022-04-03T08:42:18.000Z</time>
      </trkpt>
      <trkpt lat="49.6637" lon="4.731">
        <ele>263</ele>
        <time>2022-04-03T08:42:19.000Z</time>
      </trkpt>
      <trkpt lat="49.66371" lon="4.73096">
        <ele>263</ele>
        <time>2022-04-03T08:42:20.000Z</time>
      </trkpt>
      <trkpt lat="49.66373" lon="4.73093">
        <ele>262</ele>
        <time>2022-04-03T08:42:21.000Z</time>
      </trkpt>
      <trkpt lat="49.66375" lon="4.73091">
        <ele>262</ele>
        <time>2022-04-03T08:42:22.000Z</time>
      </trkpt>
      <trkpt lat="49.66377" lon="4.73089">
        <ele>261</ele>
        <time>2022-04-03T08:42:23.000Z</time>
      </trkpt>
      <trkpt lat="49.66379" lon="4.73089">
        <ele>261</ele>
        <time>2022-04-03T08:42:24.000Z</time>
      </trkpt>
      <trkpt lat="49.66381" lon="4.7309">
        <ele>260</ele>
        <time>2022-04-03T08:42:25.000Z</time>
      </trkpt>
      <trkpt lat="49.66382" lon="4.73092">
        <ele>260</ele>
        <time>2022-04-03T08:42:26.000Z</time>
      </trkpt>
      <trkpt lat="49.66383" lon="4.73094">
        <ele>259</ele>
        <time>2022-04-03T08:42:27.000Z</time>
      </trkpt>
      <trkpt lat="49.66385" lon="4.73096">
        <ele>259</ele>
        <time>2022-04-03T08:42:28.000Z</time>
      </trkpt>
      <trkpt lat="49.66386" lon="4.73098">
        <ele>259</ele>
        <time>2022-04-03T08:42:29.000Z</time>
      </trkpt>
      <trkpt lat="49.66387" lon="4.73099">
        <ele>258</ele>
        <time>2022-04-03T08:42:30.000Z</time>
      </trkpt>
      <trkpt lat="49.66388" lon="4.731">
        <ele>258</ele>
        <time>2022-04-03T08:42:31.000Z</time>
      </trkpt>
      <trkpt lat="49.66389" lon="4.73101">
        <ele>258</ele>
        <time>2022-04-03T08:42:32.000Z</time>
      </trkpt>
      <trkpt lat="49.6639" lon="4.73102">
        <ele>258</ele>
        <time>2022-04-03T08:42:33.000Z</time>
      </trkpt>
      <trkpt lat="49.66391" lon="4.73103">
        <ele>258</ele>
        <time>2022-04-03T08:42:34.000Z</time>
      </trkpt>
      <trkpt lat="49.66391" lon="4.73103">
        <ele>258</ele>
        <time>2022-04-03T08:42:35.000Z</time>
      </trkpt>
      <trkpt lat="49.66392" lon="4.73104">
        <ele>257</ele>
        <time>2022-04-03T08:42:36.000Z</time>
      </trkpt>
      <trkpt lat="49.66393" lon="4.73104">
        <ele>257</ele>
        <time>2022-04-03T08:42:37.000Z</time>
      </trkpt>
      <trkpt lat="49.66395" lon="4.73105">
        <ele>257</ele>
        <time>2022-04-03T08:42:38.000Z</time>
      </trkpt>
      <trkpt lat="49.66397" lon="4.73106">
        <ele>257</ele>
        <time>2022-04-03T08:42:39.000Z</time>
      </trkpt>
      <trkpt lat="49.66398" lon="4.73106">
        <ele>257</ele>
        <time>2022-04-03T08:42:40.000Z</time>
      </trkpt>
      <trkpt lat="49.66399" lon="4.73107">
        <ele>257</ele>
        <time>2022-04-03T08:42:41.000Z</time>
      </trkpt>
      <trkpt lat="49.664" lon="4.73107">
        <ele>257</ele>
        <time>2022-04-03T08:42:42.000Z</time>
      </trkpt>
      <trkpt lat="49.66402" lon="4.73108">
        <ele>257</ele>
        <time>2022-04-03T08:42:43.000Z</time>
      </trkpt>
      <trkpt lat="49.66403" lon="4.73107">
        <ele>257</ele>
        <time>2022-04-03T08:42:44.000Z</time>
      </trkpt>
      <trkpt lat="49.66404" lon="4.73105">
        <ele>256</ele>
        <time>2022-04-03T08:42:45.000Z</time>
      </trkpt>
      <trkpt lat="49.66406" lon="4.73103">
        <ele>256</ele>
        <time>2022-04-03T08:42:46.000Z</time>
      </trkpt>
      <trkpt lat="49.66408" lon="4.73102">
        <ele>256</ele>
        <time>2022-04-03T08:42:47.000Z</time>
      </trkpt>
      <trkpt lat="49.66408" lon="4.73102">
        <ele>256</ele>
        <time>2022-04-03T08:42:48.000Z</time>
      </trkpt>
      <trkpt lat="49.66409" lon="4.731">
        <ele>256</ele>
        <time>2022-04-03T08:42:49.000Z</time>
      </trkpt>
      <trkpt lat="49.66409" lon="4.73099">
        <ele>256</ele>
        <time>2022-04-03T08:42:50.000Z</time>
      </trkpt>
      <trkpt lat="49.66409" lon="4.73097">
        <ele>255</ele>
        <time>2022-04-03T08:42:51.000Z</time>
      </trkpt>
      <trkpt lat="49.6641" lon="4.73096">
        <ele>255</ele>
        <time>2022-04-03T08:42:52.000Z</time>
      </trkpt>
      <trkpt lat="49.66412" lon="4.73096">
        <ele>255</ele>
        <time>2022-04-03T08:42:53.000Z</time>
      </trkpt>
      <trkpt lat="49.66413" lon="4.73097">
        <ele>255</ele>
        <time>2022-04-03T08:42:54.000Z</time>
      </trkpt>
      <trkpt lat="49.66415" lon="4.73098">
        <ele>255</ele>
        <time>2022-04-03T08:42:55.000Z</time>
      </trkpt>
      <trkpt lat="49.66416" lon="4.731">
        <ele>255</ele>
        <time>2022-04-03T08:42:56.000Z</time>
      </trkpt>
      <trkpt lat="49.66417" lon="4.73102">
        <ele>255</ele>
        <time>2022-04-03T08:42:57.000Z</time>
      </trkpt>
      <trkpt lat="49.66418" lon="4.73104">
        <ele>255</ele>
        <time>2022-04-03T08:42:58.000Z</time>
      </trkpt>
      <trkpt lat="49.66419" lon="4.73105">
        <ele>255</ele>
        <time>2022-04-03T08:42:59.000Z</time>
      </trkpt>
      <trkpt lat="49.6642" lon="4.73106">
        <ele>255</ele>
        <time>2022-04-03T08:43:00.000Z</time>
      </trkpt>
      <trkpt lat="49.66422" lon="4.73106">
        <ele>255</ele>
        <time>2022-04-03T08:43:01.000Z</time>
      </trkpt>
      <trkpt lat="49.66424" lon="4.73105">
        <ele>255</ele>
        <time>2022-04-03T08:43:02.000Z</time>
      </trkpt>
      <trkpt lat="49.66426" lon="4.73105">
        <ele>255</ele>
        <time>2022-04-03T08:43:03.000Z</time>
      </trkpt>
      <trkpt lat="49.66429" lon="4.73105">
        <ele>255</ele>
        <time>2022-04-03T08:43:04.000Z</time>
      </trkpt>
      <trkpt lat="49.66431" lon="4.73104">
        <ele>255</ele>
        <time>2022-04-03T08:43:05.000Z</time>
      </trkpt>
      <trkpt lat="49.66434" lon="4.73105">
        <ele>255</ele>
        <time>2022-04-03T08:43:06.000Z</time>
      </trkpt>
      <trkpt lat="49.66436" lon="4.73105">
        <ele>255</ele>
        <time>2022-04-03T08:43:07.000Z</time>
      </trkpt>
      <trkpt lat="49.66439" lon="4.73106">
        <ele>255</ele>
        <time>2022-04-03T08:43:08.000Z</time>
      </trkpt>
      <trkpt lat="49.66441" lon="4.73106">
        <ele>255</ele>
        <time>2022-04-03T08:43:09.000Z</time>
      </trkpt>
      <trkpt lat="49.66444" lon="4.73107">
        <ele>254</ele>
        <time>2022-04-03T08:43:10.000Z</time>
      </trkpt>
      <trkpt lat="49.66447" lon="4.73107">
        <ele>254</ele>
        <time>2022-04-03T08:43:11.000Z</time>
      </trkpt>
      <trkpt lat="49.6645" lon="4.73107">
        <ele>254</ele>
        <time>2022-04-03T08:43:12.000Z</time>
      </trkpt>
      <trkpt lat="49.66452" lon="4.73107">
        <ele>254</ele>
        <time>2022-04-03T08:43:13.000Z</time>
      </trkpt>
      <trkpt lat="49.66454" lon="4.73109">
        <ele>254</ele>
        <time>2022-04-03T08:43:14.000Z</time>
      </trkpt>
      <trkpt lat="49.66456" lon="4.73108">
        <ele>254</ele>
        <time>2022-04-03T08:43:15.000Z</time>
      </trkpt>
      <trkpt lat="49.66458" lon="4.73107">
        <ele>254</ele>
        <time>2022-04-03T08:43:16.000Z</time>
      </trkpt>
      <trkpt lat="49.6646" lon="4.73105">
        <ele>254</ele>
        <time>2022-04-03T08:43:17.000Z</time>
      </trkpt>
      <trkpt lat="49.66463" lon="4.73103">
        <ele>254</ele>
        <time>2022-04-03T08:43:18.000Z</time>
      </trkpt>
      <trkpt lat="49.66465" lon="4.73101">
        <ele>254</ele>
        <time>2022-04-03T08:43:19.000Z</time>
      </trkpt>
      <trkpt lat="49.66468" lon="4.73099">
        <ele>254</ele>
        <time>2022-04-03T08:43:20.000Z</time>
      </trkpt>
      <trkpt lat="49.6647" lon="4.73095">
        <ele>254</ele>
        <time>2022-04-03T08:43:21.000Z</time>
      </trkpt>
      <trkpt lat="49.66473" lon="4.73092">
        <ele>254</ele>
        <time>2022-04-03T08:43:22.000Z</time>
      </trkpt>
      <trkpt lat="49.66474" lon="4.73089">
        <ele>254</ele>
        <time>2022-04-03T08:43:23.000Z</time>
      </trkpt>
      <trkpt lat="49.66476" lon="4.73087">
        <ele>254</ele>
        <time>2022-04-03T08:43:24.000Z</time>
      </trkpt>
      <trkpt lat="49.66477" lon="4.73084">
        <ele>254</ele>
        <time>2022-04-03T08:43:25.000Z</time>
      </trkpt>
      <trkpt lat="49.66478" lon="4.7308">
        <ele>254</ele>
        <time>2022-04-03T08:43:26.000Z</time>
      </trkpt>
      <trkpt lat="49.66479" lon="4.73078">
        <ele>254</ele>
        <time>2022-04-03T08:43:27.000Z</time>
      </trkpt>
      <trkpt lat="49.66481" lon="4.73076">
        <ele>254</ele>
        <time>2022-04-03T08:43:28.000Z</time>
      </trkpt>
      <trkpt lat="49.66482" lon="4.73075">
        <ele>254</ele>
        <time>2022-04-03T08:43:29.000Z</time>
      </trkpt>
      <trkpt lat="49.66484" lon="4.73073">
        <ele>254</ele>
        <time>2022-04-03T08:43:30.000Z</time>
      </trkpt>
      <trkpt lat="49.66486" lon="4.73071">
        <ele>254</ele>
        <time>2022-04-03T08:43:31.000Z</time>
      </trkpt>
      <trkpt lat="49.66487" lon="4.73066">
        <ele>253</ele>
        <time>2022-04-03T08:43:32.000Z</time>
      </trkpt>
      <trkpt lat="49.66488" lon="4.73061">
        <ele>253</ele>
        <time>2022-04-03T08:43:33.000Z</time>
      </trkpt>
      <trkpt lat="49.66488" lon="4.73055">
        <ele>253</ele>
        <time>2022-04-03T08:43:34.000Z</time>
      </trkpt>
      <trkpt lat="49.66489" lon="4.73049">
        <ele>253</ele>
        <time>2022-04-03T08:43:35.000Z</time>
      </trkpt>
      <trkpt lat="49.6649" lon="4.73041">
        <ele>253</ele>
        <time>2022-04-03T08:43:36.000Z</time>
      </trkpt>
      <trkpt lat="49.66491" lon="4.73032">
        <ele>253</ele>
        <time>2022-04-03T08:43:37.000Z</time>
      </trkpt>
      <trkpt lat="49.66493" lon="4.73023">
        <ele>253</ele>
        <time>2022-04-03T08:43:38.000Z</time>
      </trkpt>
      <trkpt lat="49.66496" lon="4.73016">
        <ele>253</ele>
        <time>2022-04-03T08:43:39.000Z</time>
      </trkpt>
      <trkpt lat="49.66499" lon="4.73008">
        <ele>253</ele>
        <time>2022-04-03T08:43:40.000Z</time>
      </trkpt>
      <trkpt lat="49.66502" lon="4.73001">
        <ele>253</ele>
        <time>2022-04-03T08:43:41.000Z</time>
      </trkpt>
      <trkpt lat="49.66505" lon="4.72995">
        <ele>253</ele>
        <time>2022-04-03T08:43:42.000Z</time>
      </trkpt>
      <trkpt lat="49.66508" lon="4.72991">
        <ele>253</ele>
        <time>2022-04-03T08:43:43.000Z</time>
      </trkpt>
      <trkpt lat="49.66509" lon="4.72987">
        <ele>253</ele>
        <time>2022-04-03T08:43:44.000Z</time>
      </trkpt>
      <trkpt lat="49.66509" lon="4.72984">
        <ele>253</ele>
        <time>2022-04-03T08:43:45.000Z</time>
      </trkpt>
      <trkpt lat="49.66509" lon="4.72982">
        <ele>253</ele>
        <time>2022-04-03T08:43:46.000Z</time>
      </trkpt>
      <trkpt lat="49.66508" lon="4.7298">
        <ele>253</ele>
        <time>2022-04-03T08:43:47.000Z</time>
      </trkpt>
      <trkpt lat="49.66507" lon="4.72979">
        <ele>252</ele>
        <time>2022-04-03T08:43:48.000Z</time>
      </trkpt>
      <trkpt lat="49.66505" lon="4.7298">
        <ele>252</ele>
        <time>2022-04-03T08:43:49.000Z</time>
      </trkpt>
      <trkpt lat="49.66504" lon="4.72981">
        <ele>252</ele>
        <time>2022-04-03T08:43:50.000Z</time>
      </trkpt>
      <trkpt lat="49.66503" lon="4.72983">
        <ele>252</ele>
        <time>2022-04-03T08:43:51.000Z</time>
      </trkpt>
      <trkpt lat="49.66501" lon="4.72985">
        <ele>252</ele>
        <time>2022-04-03T08:43:52.000Z</time>
      </trkpt>
      <trkpt lat="49.665" lon="4.72987">
        <ele>252</ele>
        <time>2022-04-03T08:43:53.000Z</time>
      </trkpt>
      <trkpt lat="49.66498" lon="4.72989">
        <ele>252</ele>
        <time>2022-04-03T08:43:54.000Z</time>
      </trkpt>
      <trkpt lat="49.66496" lon="4.7299">
        <ele>252</ele>
        <time>2022-04-03T08:43:55.000Z</time>
      </trkpt>
      <trkpt lat="49.66495" lon="4.7299">
        <ele>252</ele>
        <time>2022-04-03T08:43:56.000Z</time>
      </trkpt>
      <trkpt lat="49.66494" lon="4.72989">
        <ele>252</ele>
        <time>2022-04-03T08:43:57.000Z</time>
      </trkpt>
      <trkpt lat="49.66492" lon="4.72987">
        <ele>252</ele>
        <time>2022-04-03T08:43:58.000Z</time>
      </trkpt>
      <trkpt lat="49.6649" lon="4.72986">
        <ele>252</ele>
        <time>2022-04-03T08:43:59.000Z</time>
      </trkpt>
      <trkpt lat="49.66488" lon="4.72985">
        <ele>252</ele>
        <time>2022-04-03T08:44:00.000Z</time>
      </trkpt>
      <trkpt lat="49.66486" lon="4.72984">
        <ele>251</ele>
        <time>2022-04-03T08:44:01.000Z</time>
      </trkpt>
      <trkpt lat="49.66484" lon="4.72983">
        <ele>251</ele>
        <time>2022-04-03T08:44:02.000Z</time>
      </trkpt>
      <trkpt lat="49.66482" lon="4.72983">
        <ele>251</ele>
        <time>2022-04-03T08:44:03.000Z</time>
      </trkpt>
      <trkpt lat="49.66479" lon="4.72984">
        <ele>251</ele>
        <time>2022-04-03T08:44:04.000Z</time>
      </trkpt>
      <trkpt lat="49.66475" lon="4.72986">
        <ele>250</ele>
        <time>2022-04-03T08:44:05.000Z</time>
      </trkpt>
      <trkpt lat="49.66472" lon="4.72988">
        <ele>250</ele>
        <time>2022-04-03T08:44:06.000Z</time>
      </trkpt>
      <trkpt lat="49.66468" lon="4.7299">
        <ele>249</ele>
        <time>2022-04-03T08:44:07.000Z</time>
      </trkpt>
      <trkpt lat="49.66465" lon="4.72992">
        <ele>249</ele>
        <time>2022-04-03T08:44:08.000Z</time>
      </trkpt>
      <trkpt lat="49.66461" lon="4.72995">
        <ele>248</ele>
        <time>2022-04-03T08:44:09.000Z</time>
      </trkpt>
      <trkpt lat="49.66457" lon="4.72997">
        <ele>248</ele>
        <time>2022-04-03T08:44:10.000Z</time>
      </trkpt>
      <trkpt lat="49.66452" lon="4.72999">
        <ele>248</ele>
        <time>2022-04-03T08:44:11.000Z</time>
      </trkpt>
      <trkpt lat="49.66448" lon="4.73001">
        <ele>247</ele>
        <time>2022-04-03T08:44:12.000Z</time>
      </trkpt>
      <trkpt lat="49.66443" lon="4.73002">
        <ele>247</ele>
        <time>2022-04-03T08:44:13.000Z</time>
      </trkpt>
      <trkpt lat="49.66437" lon="4.73005">
        <ele>246</ele>
        <time>2022-04-03T08:44:14.000Z</time>
      </trkpt>
      <trkpt lat="49.66431" lon="4.73007">
        <ele>246</ele>
        <time>2022-04-03T08:44:15.000Z</time>
      </trkpt>
      <trkpt lat="49.66425" lon="4.7301">
        <ele>246</ele>
        <time>2022-04-03T08:44:16.000Z</time>
      </trkpt>
      <trkpt lat="49.6642" lon="4.73012">
        <ele>245</ele>
        <time>2022-04-03T08:44:17.000Z</time>
      </trkpt>
      <trkpt lat="49.66414" lon="4.73015">
        <ele>245</ele>
        <time>2022-04-03T08:44:18.000Z</time>
      </trkpt>
      <trkpt lat="49.6641" lon="4.73018">
        <ele>244</ele>
        <time>2022-04-03T08:44:19.000Z</time>
      </trkpt>
      <trkpt lat="49.66405" lon="4.73022">
        <ele>244</ele>
        <time>2022-04-03T08:44:20.000Z</time>
      </trkpt>
      <trkpt lat="49.66401" lon="4.73027">
        <ele>244</ele>
        <time>2022-04-03T08:44:21.000Z</time>
      </trkpt>
      <trkpt lat="49.66397" lon="4.73032">
        <ele>243</ele>
        <time>2022-04-03T08:44:22.000Z</time>
      </trkpt>
      <trkpt lat="49.66393" lon="4.73036">
        <ele>243</ele>
        <time>2022-04-03T08:44:23.000Z</time>
      </trkpt>
      <trkpt lat="49.66389" lon="4.73041">
        <ele>243</ele>
        <time>2022-04-03T08:44:24.000Z</time>
      </trkpt>
      <trkpt lat="49.66385" lon="4.73045">
        <ele>243</ele>
        <time>2022-04-03T08:44:25.000Z</time>
      </trkpt>
      <trkpt lat="49.66382" lon="4.7305">
        <ele>243</ele>
        <time>2022-04-03T08:44:26.000Z</time>
      </trkpt>
      <trkpt lat="49.66379" lon="4.73054">
        <ele>243</ele>
        <time>2022-04-03T08:44:27.000Z</time>
      </trkpt>
      <trkpt lat="49.66375" lon="4.73058">
        <ele>243</ele>
        <time>2022-04-03T08:44:28.000Z</time>
      </trkpt>
      <trkpt lat="49.6637" lon="4.73061">
        <ele>243</ele>
        <time>2022-04-03T08:44:29.000Z</time>
      </trkpt>
      <trkpt lat="49.66366" lon="4.73064">
        <ele>243</ele>
        <time>2022-04-03T08:44:30.000Z</time>
      </trkpt>
      <trkpt lat="49.66362" lon="4.73065">
        <ele>243</ele>
        <time>2022-04-03T08:44:31.000Z</time>
      </trkpt>
      <trkpt lat="49.66358" lon="4.73067">
        <ele>243</ele>
        <time>2022-04-03T08:44:32.000Z</time>
      </trkpt>
      <trkpt lat="49.66354" lon="4.73068">
        <ele>243</ele>
        <time>2022-04-03T08:44:33.000Z</time>
      </trkpt>
      <trkpt lat="49.66349" lon="4.7307">
        <ele>243</ele>
        <time>2022-04-03T08:44:34.000Z</time>
      </trkpt>
      <trkpt lat="49.66345" lon="4.7307">
        <ele>243</ele>
        <time>2022-04-03T08:44:35.000Z</time>
      </trkpt>
      <trkpt lat="49.66342" lon="4.73071">
        <ele>243</ele>
        <time>2022-04-03T08:44:36.000Z</time>
      </trkpt>
      <trkpt lat="49.6634" lon="4.73071">
        <ele>243</ele>
        <time>2022-04-03T08:44:37.000Z</time>
      </trkpt>
      <trkpt lat="49.66337" lon="4.73071">
        <ele>243</ele>
        <time>2022-04-03T08:44:38.000Z</time>
      </trkpt>
      <trkpt lat="49.66334" lon="4.7307">
        <ele>243</ele>
        <time>2022-04-03T08:44:39.000Z</time>
      </trkpt>
      <trkpt lat="49.66331" lon="4.73069">
        <ele>243</ele>
        <time>2022-04-03T08:44:40.000Z</time>
      </trkpt>
      <trkpt lat="49.66329" lon="4.73068">
        <ele>244</ele>
        <time>2022-04-03T08:44:41.000Z</time>
      </trkpt>
      <trkpt lat="49.66326" lon="4.73066">
        <ele>244</ele>
        <time>2022-04-03T08:44:42.000Z</time>
      </trkpt>
      <trkpt lat="49.66322" lon="4.73065">
        <ele>244</ele>
        <time>2022-04-03T08:44:43.000Z</time>
      </trkpt>
      <trkpt lat="49.66318" lon="4.73063">
        <ele>244</ele>
        <time>2022-04-03T08:44:44.000Z</time>
      </trkpt>
      <trkpt lat="49.66314" lon="4.73061">
        <ele>244</ele>
        <time>2022-04-03T08:44:45.000Z</time>
      </trkpt>
      <trkpt lat="49.6631" lon="4.73059">
        <ele>244</ele>
        <time>2022-04-03T08:44:46.000Z</time>
      </trkpt>
      <trkpt lat="49.66306" lon="4.73057">
        <ele>244</ele>
        <time>2022-04-03T08:44:47.000Z</time>
      </trkpt>
      <trkpt lat="49.66302" lon="4.73056">
        <ele>244</ele>
        <time>2022-04-03T08:44:48.000Z</time>
      </trkpt>
      <trkpt lat="49.66298" lon="4.73054">
        <ele>245</ele>
        <time>2022-04-03T08:44:49.000Z</time>
      </trkpt>
      <trkpt lat="49.66294" lon="4.73052">
        <ele>245</ele>
        <time>2022-04-03T08:44:50.000Z</time>
      </trkpt>
      <trkpt lat="49.6629" lon="4.7305">
        <ele>245</ele>
        <time>2022-04-03T08:44:51.000Z</time>
      </trkpt>
      <trkpt lat="49.66286" lon="4.73049">
        <ele>245</ele>
        <time>2022-04-03T08:44:52.000Z</time>
      </trkpt>
      <trkpt lat="49.66282" lon="4.73047">
        <ele>245</ele>
        <time>2022-04-03T08:44:53.000Z</time>
      </trkpt>
      <trkpt lat="49.66278" lon="4.73045">
        <ele>245</ele>
        <time>2022-04-03T08:44:54.000Z</time>
      </trkpt>
      <trkpt lat="49.66275" lon="4.73042">
        <ele>245</ele>
        <time>2022-04-03T08:44:55.000Z</time>
      </trkpt>
      <trkpt lat="49.66271" lon="4.73039">
        <ele>245</ele>
        <time>2022-04-03T08:44:56.000Z</time>
      </trkpt>
      <trkpt lat="49.66267" lon="4.73036">
        <ele>245</ele>
        <time>2022-04-03T08:44:57.000Z</time>
      </trkpt>
      <trkpt lat="49.66264" lon="4.73033">
        <ele>245</ele>
        <time>2022-04-03T08:44:58.000Z</time>
      </trkpt>
      <trkpt lat="49.66261" lon="4.73029">
        <ele>244</ele>
        <time>2022-04-03T08:44:59.000Z</time>
      </trkpt>
      <trkpt lat="49.66257" lon="4.73026">
        <ele>244</ele>
        <time>2022-04-03T08:45:00.000Z</time>
      </trkpt>
      <trkpt lat="49.66254" lon="4.73022">
        <ele>244</ele>
        <time>2022-04-03T08:45:01.000Z</time>
      </trkpt>
      <trkpt lat="49.66251" lon="4.73018">
        <ele>244</ele>
        <time>2022-04-03T08:45:02.000Z</time>
      </trkpt>
      <trkpt lat="49.66247" lon="4.73015">
        <ele>244</ele>
        <time>2022-04-03T08:45:03.000Z</time>
      </trkpt>
      <trkpt lat="49.66243" lon="4.73013">
        <ele>244</ele>
        <time>2022-04-03T08:45:04.000Z</time>
      </trkpt>
      <trkpt lat="49.66239" lon="4.73012">
        <ele>244</ele>
        <time>2022-04-03T08:45:05.000Z</time>
      </trkpt>
      <trkpt lat="49.66235" lon="4.73011">
        <ele>244</ele>
        <time>2022-04-03T08:45:06.000Z</time>
      </trkpt>
      <trkpt lat="49.66231" lon="4.73009">
        <ele>244</ele>
        <time>2022-04-03T08:45:07.000Z</time>
      </trkpt>
      <trkpt lat="49.66227" lon="4.73007">
        <ele>244</ele>
        <time>2022-04-03T08:45:08.000Z</time>
      </trkpt>
      <trkpt lat="49.66223" lon="4.73005">
        <ele>244</ele>
        <time>2022-04-03T08:45:09.000Z</time>
      </trkpt>
      <trkpt lat="49.6622" lon="4.73004">
        <ele>244</ele>
        <time>2022-04-03T08:45:10.000Z</time>
      </trkpt>
      <trkpt lat="49.66217" lon="4.73003">
        <ele>244</ele>
        <time>2022-04-03T08:45:11.000Z</time>
      </trkpt>
      <trkpt lat="49.66214" lon="4.73002">
        <ele>244</ele>
        <time>2022-04-03T08:45:12.000Z</time>
      </trkpt>
      <trkpt lat="49.6621" lon="4.73001">
        <ele>244</ele>
        <time>2022-04-03T08:45:13.000Z</time>
      </trkpt>
      <trkpt lat="49.66208" lon="4.73">
        <ele>244</ele>
        <time>2022-04-03T08:45:14.000Z</time>
      </trkpt>
      <trkpt lat="49.66204" lon="4.72998">
        <ele>244</ele>
        <time>2022-04-03T08:45:15.000Z</time>
      </trkpt>
      <trkpt lat="49.66199" lon="4.72995">
        <ele>244</ele>
        <time>2022-04-03T08:45:16.000Z</time>
      </trkpt>
      <trkpt lat="49.66194" lon="4.72991">
        <ele>244</ele>
        <time>2022-04-03T08:45:17.000Z</time>
      </trkpt>
      <trkpt lat="49.66189" lon="4.72985">
        <ele>244</ele>
        <time>2022-04-03T08:45:18.000Z</time>
      </trkpt>
      <trkpt lat="49.66184" lon="4.72977">
        <ele>244</ele>
        <time>2022-04-03T08:45:19.000Z</time>
      </trkpt>
      <trkpt lat="49.6618" lon="4.72968">
        <ele>244</ele>
        <time>2022-04-03T08:45:20.000Z</time>
      </trkpt>
      <trkpt lat="49.66177" lon="4.72958">
        <ele>244</ele>
        <time>2022-04-03T08:45:21.000Z</time>
      </trkpt>
      <trkpt lat="49.66174" lon="4.7295">
        <ele>243</ele>
        <time>2022-04-03T08:45:22.000Z</time>
      </trkpt>
      <trkpt lat="49.66172" lon="4.72941">
        <ele>243</ele>
        <time>2022-04-03T08:45:23.000Z</time>
      </trkpt>
      <trkpt lat="49.6617" lon="4.72932">
        <ele>242</ele>
        <time>2022-04-03T08:45:24.000Z</time>
      </trkpt>
      <trkpt lat="49.66169" lon="4.72924">
        <ele>242</ele>
        <time>2022-04-03T08:45:25.000Z</time>
      </trkpt>
      <trkpt lat="49.66168" lon="4.72915">
        <ele>241</ele>
        <time>2022-04-03T08:45:26.000Z</time>
      </trkpt>
      <trkpt lat="49.66166" lon="4.72907">
        <ele>241</ele>
        <time>2022-04-03T08:45:27.000Z</time>
      </trkpt>
      <trkpt lat="49.66163" lon="4.729">
        <ele>241</ele>
        <time>2022-04-03T08:45:28.000Z</time>
      </trkpt>
      <trkpt lat="49.6616" lon="4.72895">
        <ele>240</ele>
        <time>2022-04-03T08:45:29.000Z</time>
      </trkpt>
      <trkpt lat="49.66157" lon="4.7289">
        <ele>240</ele>
        <time>2022-04-03T08:45:30.000Z</time>
      </trkpt>
      <trkpt lat="49.66153" lon="4.72887">
        <ele>240</ele>
        <time>2022-04-03T08:45:31.000Z</time>
      </trkpt>
      <trkpt lat="49.66151" lon="4.72884">
        <ele>240</ele>
        <time>2022-04-03T08:45:32.000Z</time>
      </trkpt>
      <trkpt lat="49.66148" lon="4.72881">
        <ele>240</ele>
        <time>2022-04-03T08:45:33.000Z</time>
      </trkpt>
      <trkpt lat="49.66146" lon="4.72878">
        <ele>240</ele>
        <time>2022-04-03T08:45:34.000Z</time>
      </trkpt>
      <trkpt lat="49.66143" lon="4.72876">
        <ele>240</ele>
        <time>2022-04-03T08:45:35.000Z</time>
      </trkpt>
      <trkpt lat="49.66141" lon="4.72873">
        <ele>240</ele>
        <time>2022-04-03T08:45:36.000Z</time>
      </trkpt>
      <trkpt lat="49.66139" lon="4.7287">
        <ele>240</ele>
        <time>2022-04-03T08:45:37.000Z</time>
      </trkpt>
      <trkpt lat="49.66137" lon="4.72868">
        <ele>240</ele>
        <time>2022-04-03T08:45:38.000Z</time>
      </trkpt>
      <trkpt lat="49.66135" lon="4.72865">
        <ele>240</ele>
        <time>2022-04-03T08:45:39.000Z</time>
      </trkpt>
      <trkpt lat="49.66133" lon="4.72863">
        <ele>240</ele>
        <time>2022-04-03T08:45:40.000Z</time>
      </trkpt>
      <trkpt lat="49.66131" lon="4.7286">
        <ele>240</ele>
        <time>2022-04-03T08:45:41.000Z</time>
      </trkpt>
      <trkpt lat="49.66129" lon="4.72857">
        <ele>241</ele>
        <time>2022-04-03T08:45:42.000Z</time>
      </trkpt>
      <trkpt lat="49.66127" lon="4.72855">
        <ele>241</ele>
        <time>2022-04-03T08:45:43.000Z</time>
      </trkpt>
      <trkpt lat="49.66125" lon="4.72852">
        <ele>241</ele>
        <time>2022-04-03T08:45:44.000Z</time>
      </trkpt>
      <trkpt lat="49.66123" lon="4.72849">
        <ele>241</ele>
        <time>2022-04-03T08:45:45.000Z</time>
      </trkpt>
      <trkpt lat="49.66122" lon="4.72846">
        <ele>241</ele>
        <time>2022-04-03T08:45:46.000Z</time>
      </trkpt>
      <trkpt lat="49.6612" lon="4.72843">
        <ele>241</ele>
        <time>2022-04-03T08:45:47.000Z</time>
      </trkpt>
      <trkpt lat="49.66118" lon="4.7284">
        <ele>242</ele>
        <time>2022-04-03T08:45:48.000Z</time>
      </trkpt>
      <trkpt lat="49.66116" lon="4.72837">
        <ele>242</ele>
        <time>2022-04-03T08:45:49.000Z</time>
      </trkpt>
      <trkpt lat="49.66114" lon="4.72835">
        <ele>242</ele>
        <time>2022-04-03T08:45:50.000Z</time>
      </trkpt>
      <trkpt lat="49.66112" lon="4.72831">
        <ele>242</ele>
        <time>2022-04-03T08:45:51.000Z</time>
      </trkpt>
      <trkpt lat="49.66111" lon="4.72828">
        <ele>243</ele>
        <time>2022-04-03T08:45:52.000Z</time>
      </trkpt>
      <trkpt lat="49.66109" lon="4.72826">
        <ele>243</ele>
        <time>2022-04-03T08:45:53.000Z</time>
      </trkpt>
      <trkpt lat="49.66108" lon="4.72824">
        <ele>243</ele>
        <time>2022-04-03T08:45:54.000Z</time>
      </trkpt>
      <trkpt lat="49.66106" lon="4.72822">
        <ele>243</ele>
        <time>2022-04-03T08:45:55.000Z</time>
      </trkpt>
      <trkpt lat="49.66104" lon="4.72819">
        <ele>243</ele>
        <time>2022-04-03T08:45:56.000Z</time>
      </trkpt>
      <trkpt lat="49.66102" lon="4.72816">
        <ele>244</ele>
        <time>2022-04-03T08:45:57.000Z</time>
      </trkpt>
      <trkpt lat="49.66099" lon="4.72814">
        <ele>244</ele>
        <time>2022-04-03T08:45:58.000Z</time>
      </trkpt>
      <trkpt lat="49.66096" lon="4.72811">
        <ele>244</ele>
        <time>2022-04-03T08:45:59.000Z</time>
      </trkpt>
      <trkpt lat="49.66093" lon="4.72809">
        <ele>244</ele>
        <time>2022-04-03T08:46:00.000Z</time>
      </trkpt>
      <trkpt lat="49.66091" lon="4.72807">
        <ele>244</ele>
        <time>2022-04-03T08:46:01.000Z</time>
      </trkpt>
      <trkpt lat="49.66089" lon="4.72805">
        <ele>244</ele>
        <time>2022-04-03T08:46:02.000Z</time>
      </trkpt>
      <trkpt lat="49.66086" lon="4.72802">
        <ele>245</ele>
        <time>2022-04-03T08:46:03.000Z</time>
      </trkpt>
      <trkpt lat="49.66084" lon="4.72799">
        <ele>245</ele>
        <time>2022-04-03T08:46:04.000Z</time>
      </trkpt>
      <trkpt lat="49.66082" lon="4.72797">
        <ele>245</ele>
        <time>2022-04-03T08:46:05.000Z</time>
      </trkpt>
      <trkpt lat="49.6608" lon="4.72796">
        <ele>245</ele>
        <time>2022-04-03T08:46:06.000Z</time>
      </trkpt>
      <trkpt lat="49.66078" lon="4.72794">
        <ele>245</ele>
        <time>2022-04-03T08:46:07.000Z</time>
      </trkpt>
      <trkpt lat="49.66075" lon="4.72792">
        <ele>245</ele>
        <time>2022-04-03T08:46:08.000Z</time>
      </trkpt>
      <trkpt lat="49.66072" lon="4.7279">
        <ele>245</ele>
        <time>2022-04-03T08:46:09.000Z</time>
      </trkpt>
      <trkpt lat="49.6607" lon="4.72788">
        <ele>245</ele>
        <time>2022-04-03T08:46:10.000Z</time>
      </trkpt>
      <trkpt lat="49.66067" lon="4.72787">
        <ele>245</ele>
        <time>2022-04-03T08:46:11.000Z</time>
      </trkpt>
      <trkpt lat="49.66065" lon="4.72786">
        <ele>245</ele>
        <time>2022-04-03T08:46:12.000Z</time>
      </trkpt>
      <trkpt lat="49.66064" lon="4.72785">
        <ele>245</ele>
        <time>2022-04-03T08:46:13.000Z</time>
      </trkpt>
      <trkpt lat="49.66062" lon="4.72784">
        <ele>245</ele>
        <time>2022-04-03T08:46:14.000Z</time>
      </trkpt>
      <trkpt lat="49.66061" lon="4.72783">
        <ele>245</ele>
        <time>2022-04-03T08:46:15.000Z</time>
      </trkpt>
      <trkpt lat="49.66059" lon="4.72782">
        <ele>245</ele>
        <time>2022-04-03T08:46:16.000Z</time>
      </trkpt>
      <trkpt lat="49.66057" lon="4.72781">
        <ele>246</ele>
        <time>2022-04-03T08:46:17.000Z</time>
      </trkpt>
      <trkpt lat="49.66056" lon="4.7278">
        <ele>246</ele>
        <time>2022-04-03T08:46:18.000Z</time>
      </trkpt>
      <trkpt lat="49.66053" lon="4.72778">
        <ele>246</ele>
        <time>2022-04-03T08:46:19.000Z</time>
      </trkpt>
      <trkpt lat="49.66051" lon="4.72777">
        <ele>246</ele>
        <time>2022-04-03T08:46:20.000Z</time>
      </trkpt>
      <trkpt lat="49.66048" lon="4.72776">
        <ele>246</ele>
        <time>2022-04-03T08:46:21.000Z</time>
      </trkpt>
      <trkpt lat="49.66045" lon="4.72775">
        <ele>245</ele>
        <time>2022-04-03T08:46:22.000Z</time>
      </trkpt>
      <trkpt lat="49.66043" lon="4.72774">
        <ele>245</ele>
        <time>2022-04-03T08:46:23.000Z</time>
      </trkpt>
      <trkpt lat="49.6604" lon="4.72773">
        <ele>245</ele>
        <time>2022-04-03T08:46:24.000Z</time>
      </trkpt>
      <trkpt lat="49.66037" lon="4.72771">
        <ele>245</ele>
        <time>2022-04-03T08:46:25.000Z</time>
      </trkpt>
      <trkpt lat="49.66034" lon="4.7277">
        <ele>245</ele>
        <time>2022-04-03T08:46:26.000Z</time>
      </trkpt>
      <trkpt lat="49.66031" lon="4.72769">
        <ele>245</ele>
        <time>2022-04-03T08:46:27.000Z</time>
      </trkpt>
      <trkpt lat="49.66028" lon="4.72768">
        <ele>245</ele>
        <time>2022-04-03T08:46:28.000Z</time>
      </trkpt>
      <trkpt lat="49.66024" lon="4.72766">
        <ele>246</ele>
        <time>2022-04-03T08:46:29.000Z</time>
      </trkpt>
      <trkpt lat="49.6602" lon="4.72765">
        <ele>246</ele>
        <time>2022-04-03T08:46:30.000Z</time>
      </trkpt>
      <trkpt lat="49.66016" lon="4.72765">
        <ele>246</ele>
        <time>2022-04-03T08:46:31.000Z</time>
      </trkpt>
      <trkpt lat="49.66013" lon="4.72764">
        <ele>246</ele>
        <time>2022-04-03T08:46:32.000Z</time>
      </trkpt>
      <trkpt lat="49.66009" lon="4.72765">
        <ele>246</ele>
        <time>2022-04-03T08:46:33.000Z</time>
      </trkpt>
      <trkpt lat="49.66006" lon="4.72765">
        <ele>246</ele>
        <time>2022-04-03T08:46:34.000Z</time>
      </trkpt>
      <trkpt lat="49.66002" lon="4.72765">
        <ele>246</ele>
        <time>2022-04-03T08:46:35.000Z</time>
      </trkpt>
      <trkpt lat="49.65998" lon="4.72765">
        <ele>246</ele>
        <time>2022-04-03T08:46:36.000Z</time>
      </trkpt>
      <trkpt lat="49.65994" lon="4.72766">
        <ele>246</ele>
        <time>2022-04-03T08:46:37.000Z</time>
      </trkpt>
      <trkpt lat="49.6599" lon="4.72767">
        <ele>246</ele>
        <time>2022-04-03T08:46:38.000Z</time>
      </trkpt>
      <trkpt lat="49.65986" lon="4.72768">
        <ele>247</ele>
        <time>2022-04-03T08:46:39.000Z</time>
      </trkpt>
      <trkpt lat="49.65983" lon="4.72769">
        <ele>247</ele>
        <time>2022-04-03T08:46:40.000Z</time>
      </trkpt>
      <trkpt lat="49.65979" lon="4.72769">
        <ele>247</ele>
        <time>2022-04-03T08:46:41.000Z</time>
      </trkpt>
      <trkpt lat="49.65976" lon="4.72768">
        <ele>247</ele>
        <time>2022-04-03T08:46:42.000Z</time>
      </trkpt>
      <trkpt lat="49.65973" lon="4.72766">
        <ele>247</ele>
        <time>2022-04-03T08:46:43.000Z</time>
      </trkpt>
      <trkpt lat="49.6597" lon="4.72764">
        <ele>248</ele>
        <time>2022-04-03T08:46:44.000Z</time>
      </trkpt>
      <trkpt lat="49.65967" lon="4.72761">
        <ele>248</ele>
        <time>2022-04-03T08:46:45.000Z</time>
      </trkpt>
      <trkpt lat="49.65964" lon="4.72758">
        <ele>249</ele>
        <time>2022-04-03T08:46:46.000Z</time>
      </trkpt>
      <trkpt lat="49.65961" lon="4.72756">
        <ele>249</ele>
        <time>2022-04-03T08:46:47.000Z</time>
      </trkpt>
      <trkpt lat="49.65958" lon="4.72752">
        <ele>249</ele>
        <time>2022-04-03T08:46:48.000Z</time>
      </trkpt>
      <trkpt lat="49.65955" lon="4.72749">
        <ele>250</ele>
        <time>2022-04-03T08:46:49.000Z</time>
      </trkpt>
      <trkpt lat="49.65952" lon="4.72745">
        <ele>250</ele>
        <time>2022-04-03T08:46:50.000Z</time>
      </trkpt>
      <trkpt lat="49.65949" lon="4.72742">
        <ele>251</ele>
        <time>2022-04-03T08:46:51.000Z</time>
      </trkpt>
      <trkpt lat="49.65946" lon="4.72738">
        <ele>251</ele>
        <time>2022-04-03T08:46:52.000Z</time>
      </trkpt>
      <trkpt lat="49.65944" lon="4.72736">
        <ele>251</ele>
        <time>2022-04-03T08:46:53.000Z</time>
      </trkpt>
      <trkpt lat="49.65941" lon="4.72733">
        <ele>252</ele>
        <time>2022-04-03T08:46:54.000Z</time>
      </trkpt>
      <trkpt lat="49.65938" lon="4.72731">
        <ele>252</ele>
        <time>2022-04-03T08:46:55.000Z</time>
      </trkpt>
      <trkpt lat="49.65935" lon="4.72729">
        <ele>252</ele>
        <time>2022-04-03T08:46:56.000Z</time>
      </trkpt>
      <trkpt lat="49.65931" lon="4.72727">
        <ele>253</ele>
        <time>2022-04-03T08:46:57.000Z</time>
      </trkpt>
      <trkpt lat="49.65928" lon="4.72724">
        <ele>253</ele>
        <time>2022-04-03T08:46:58.000Z</time>
      </trkpt>
      <trkpt lat="49.65925" lon="4.72722">
        <ele>253</ele>
        <time>2022-04-03T08:46:59.000Z</time>
      </trkpt>
      <trkpt lat="49.65923" lon="4.7272">
        <ele>253</ele>
        <time>2022-04-03T08:47:00.000Z</time>
      </trkpt>
      <trkpt lat="49.65922" lon="4.72718">
        <ele>254</ele>
        <time>2022-04-03T08:47:01.000Z</time>
      </trkpt>
      <trkpt lat="49.65919" lon="4.72716">
        <ele>254</ele>
        <time>2022-04-03T08:47:02.000Z</time>
      </trkpt>
      <trkpt lat="49.65916" lon="4.72714">
        <ele>254</ele>
        <time>2022-04-03T08:47:03.000Z</time>
      </trkpt>
      <trkpt lat="49.65914" lon="4.72713">
        <ele>254</ele>
        <time>2022-04-03T08:47:04.000Z</time>
      </trkpt>
      <trkpt lat="49.65912" lon="4.72712">
        <ele>255</ele>
        <time>2022-04-03T08:47:05.000Z</time>
      </trkpt>
      <trkpt lat="49.6591" lon="4.7271">
        <ele>255</ele>
        <time>2022-04-03T08:47:06.000Z</time>
      </trkpt>
      <trkpt lat="49.65907" lon="4.72709">
        <ele>256</ele>
        <time>2022-04-03T08:47:07.000Z</time>
      </trkpt>
      <trkpt lat="49.65905" lon="4.72708">
        <ele>256</ele>
        <time>2022-04-03T08:47:08.000Z</time>
      </trkpt>
      <trkpt lat="49.65902" lon="4.72706">
        <ele>257</ele>
        <time>2022-04-03T08:47:09.000Z</time>
      </trkpt>
      <trkpt lat="49.65899" lon="4.72704">
        <ele>257</ele>
        <time>2022-04-03T08:47:10.000Z</time>
      </trkpt>
      <trkpt lat="49.65896" lon="4.72703">
        <ele>257</ele>
        <time>2022-04-03T08:47:11.000Z</time>
      </trkpt>
      <trkpt lat="49.65893" lon="4.72702">
        <ele>258</ele>
        <time>2022-04-03T08:47:12.000Z</time>
      </trkpt>
      <trkpt lat="49.65891" lon="4.72701">
        <ele>258</ele>
        <time>2022-04-03T08:47:13.000Z</time>
      </trkpt>
      <trkpt lat="49.65889" lon="4.72699">
        <ele>258</ele>
        <time>2022-04-03T08:47:14.000Z</time>
      </trkpt>
      <trkpt lat="49.65886" lon="4.72698">
        <ele>258</ele>
        <time>2022-04-03T08:47:15.000Z</time>
      </trkpt>
      <trkpt lat="49.65884" lon="4.72696">
        <ele>259</ele>
        <time>2022-04-03T08:47:16.000Z</time>
      </trkpt>
      <trkpt lat="49.65881" lon="4.72695">
        <ele>259</ele>
        <time>2022-04-03T08:47:17.000Z</time>
      </trkpt>
      <trkpt lat="49.65879" lon="4.72694">
        <ele>259</ele>
        <time>2022-04-03T08:47:18.000Z</time>
      </trkpt>
      <trkpt lat="49.65877" lon="4.72693">
        <ele>259</ele>
        <time>2022-04-03T08:47:19.000Z</time>
      </trkpt>
      <trkpt lat="49.65875" lon="4.72691">
        <ele>259</ele>
        <time>2022-04-03T08:47:20.000Z</time>
      </trkpt>
      <trkpt lat="49.65873" lon="4.7269">
        <ele>260</ele>
        <time>2022-04-03T08:47:21.000Z</time>
      </trkpt>
      <trkpt lat="49.65871" lon="4.72689">
        <ele>260</ele>
        <time>2022-04-03T08:47:22.000Z</time>
      </trkpt>
      <trkpt lat="49.65869" lon="4.72688">
        <ele>260</ele>
        <time>2022-04-03T08:47:23.000Z</time>
      </trkpt>
      <trkpt lat="49.65867" lon="4.72687">
        <ele>260</ele>
        <time>2022-04-03T08:47:24.000Z</time>
      </trkpt>
      <trkpt lat="49.65866" lon="4.72686">
        <ele>261</ele>
        <time>2022-04-03T08:47:25.000Z</time>
      </trkpt>
      <trkpt lat="49.65864" lon="4.72685">
        <ele>261</ele>
        <time>2022-04-03T08:47:26.000Z</time>
      </trkpt>
      <trkpt lat="49.65863" lon="4.72683">
        <ele>261</ele>
        <time>2022-04-03T08:47:27.000Z</time>
      </trkpt>
      <trkpt lat="49.65861" lon="4.72682">
        <ele>261</ele>
        <time>2022-04-03T08:47:28.000Z</time>
      </trkpt>
      <trkpt lat="49.65859" lon="4.7268">
        <ele>262</ele>
        <time>2022-04-03T08:47:29.000Z</time>
      </trkpt>
      <trkpt lat="49.65857" lon="4.72679">
        <ele>262</ele>
        <time>2022-04-03T08:47:30.000Z</time>
      </trkpt>
      <trkpt lat="49.65856" lon="4.72678">
        <ele>262</ele>
        <time>2022-04-03T08:47:31.000Z</time>
      </trkpt>
      <trkpt lat="49.65854" lon="4.72676">
        <ele>263</ele>
        <time>2022-04-03T08:47:32.000Z</time>
      </trkpt>
      <trkpt lat="49.65852" lon="4.72674">
        <ele>263</ele>
        <time>2022-04-03T08:47:33.000Z</time>
      </trkpt>
      <trkpt lat="49.6585" lon="4.72672">
        <ele>263</ele>
        <time>2022-04-03T08:47:34.000Z</time>
      </trkpt>
      <trkpt lat="49.65848" lon="4.7267">
        <ele>264</ele>
        <time>2022-04-03T08:47:35.000Z</time>
      </trkpt>
      <trkpt lat="49.65846" lon="4.72668">
        <ele>264</ele>
        <time>2022-04-03T08:47:36.000Z</time>
      </trkpt>
      <trkpt lat="49.65844" lon="4.72667">
        <ele>265</ele>
        <time>2022-04-03T08:47:37.000Z</time>
      </trkpt>
      <trkpt lat="49.65841" lon="4.72666">
        <ele>265</ele>
        <time>2022-04-03T08:47:38.000Z</time>
      </trkpt>
      <trkpt lat="49.65839" lon="4.72665">
        <ele>266</ele>
        <time>2022-04-03T08:47:39.000Z</time>
      </trkpt>
      <trkpt lat="49.65836" lon="4.72664">
        <ele>266</ele>
        <time>2022-04-03T08:47:40.000Z</time>
      </trkpt>
      <trkpt lat="49.65834" lon="4.72662">
        <ele>266</ele>
        <time>2022-04-03T08:47:41.000Z</time>
      </trkpt>
      <trkpt lat="49.65832" lon="4.72661">
        <ele>267</ele>
        <time>2022-04-03T08:47:42.000Z</time>
      </trkpt>
      <trkpt lat="49.6583" lon="4.72659">
        <ele>267</ele>
        <time>2022-04-03T08:47:43.000Z</time>
      </trkpt>
      <trkpt lat="49.65828" lon="4.72657">
        <ele>267</ele>
        <time>2022-04-03T08:47:44.000Z</time>
      </trkpt>
      <trkpt lat="49.65825" lon="4.72655">
        <ele>268</ele>
        <time>2022-04-03T08:47:45.000Z</time>
      </trkpt>
      <trkpt lat="49.65823" lon="4.72653">
        <ele>268</ele>
        <time>2022-04-03T08:47:46.000Z</time>
      </trkpt>
      <trkpt lat="49.6582" lon="4.72652">
        <ele>268</ele>
        <time>2022-04-03T08:47:47.000Z</time>
      </trkpt>
      <trkpt lat="49.65818" lon="4.7265">
        <ele>268</ele>
        <time>2022-04-03T08:47:48.000Z</time>
      </trkpt>
      <trkpt lat="49.65816" lon="4.72648">
        <ele>268</ele>
        <time>2022-04-03T08:47:49.000Z</time>
      </trkpt>
      <trkpt lat="49.65813" lon="4.72646">
        <ele>268</ele>
        <time>2022-04-03T08:47:50.000Z</time>
      </trkpt>
      <trkpt lat="49.65811" lon="4.72645">
        <ele>268</ele>
        <time>2022-04-03T08:47:51.000Z</time>
      </trkpt>
      <trkpt lat="49.65809" lon="4.72644">
        <ele>268</ele>
        <time>2022-04-03T08:47:52.000Z</time>
      </trkpt>
      <trkpt lat="49.65806" lon="4.72642">
        <ele>268</ele>
        <time>2022-04-03T08:47:53.000Z</time>
      </trkpt>
      <trkpt lat="49.65804" lon="4.7264">
        <ele>268</ele>
        <time>2022-04-03T08:47:54.000Z</time>
      </trkpt>
      <trkpt lat="49.65802" lon="4.72639">
        <ele>268</ele>
        <time>2022-04-03T08:47:55.000Z</time>
      </trkpt>
      <trkpt lat="49.658" lon="4.72638">
        <ele>268</ele>
        <time>2022-04-03T08:47:56.000Z</time>
      </trkpt>
      <trkpt lat="49.65797" lon="4.72636">
        <ele>268</ele>
        <time>2022-04-03T08:47:57.000Z</time>
      </trkpt>
      <trkpt lat="49.65795" lon="4.72634">
        <ele>269</ele>
        <time>2022-04-03T08:47:58.000Z</time>
      </trkpt>
      <trkpt lat="49.65792" lon="4.72633">
        <ele>269</ele>
        <time>2022-04-03T08:47:59.000Z</time>
      </trkpt>
      <trkpt lat="49.6579" lon="4.72631">
        <ele>269</ele>
        <time>2022-04-03T08:48:00.000Z</time>
      </trkpt>
      <trkpt lat="49.65788" lon="4.7263">
        <ele>269</ele>
        <time>2022-04-03T08:48:01.000Z</time>
      </trkpt>
      <trkpt lat="49.65785" lon="4.72628">
        <ele>269</ele>
        <time>2022-04-03T08:48:02.000Z</time>
      </trkpt>
      <trkpt lat="49.65782" lon="4.72627">
        <ele>269</ele>
        <time>2022-04-03T08:48:03.000Z</time>
      </trkpt>
      <trkpt lat="49.6578" lon="4.72626">
        <ele>269</ele>
        <time>2022-04-03T08:48:04.000Z</time>
      </trkpt>
      <trkpt lat="49.65779" lon="4.72624">
        <ele>269</ele>
        <time>2022-04-03T08:48:05.000Z</time>
      </trkpt>
      <trkpt lat="49.65777" lon="4.72623">
        <ele>270</ele>
        <time>2022-04-03T08:48:06.000Z</time>
      </trkpt>
      <trkpt lat="49.65776" lon="4.72622">
        <ele>270</ele>
        <time>2022-04-03T08:48:07.000Z</time>
      </trkpt>
      <trkpt lat="49.65774" lon="4.72621">
        <ele>270</ele>
        <time>2022-04-03T08:48:08.000Z</time>
      </trkpt>
      <trkpt lat="49.65772" lon="4.7262">
        <ele>270</ele>
        <time>2022-04-03T08:48:09.000Z</time>
      </trkpt>
      <trkpt lat="49.65771" lon="4.72618">
        <ele>270</ele>
        <time>2022-04-03T08:48:10.000Z</time>
      </trkpt>
      <trkpt lat="49.65769" lon="4.72617">
        <ele>271</ele>
        <time>2022-04-03T08:48:11.000Z</time>
      </trkpt>
      <trkpt lat="49.65768" lon="4.72615">
        <ele>271</ele>
        <time>2022-04-03T08:48:12.000Z</time>
      </trkpt>
      <trkpt lat="49.65767" lon="4.72613">
        <ele>271</ele>
        <time>2022-04-03T08:48:13.000Z</time>
      </trkpt>
      <trkpt lat="49.65766" lon="4.72611">
        <ele>271</ele>
        <time>2022-04-03T08:48:14.000Z</time>
      </trkpt>
      <trkpt lat="49.65764" lon="4.72609">
        <ele>271</ele>
        <time>2022-04-03T08:48:15.000Z</time>
      </trkpt>
      <trkpt lat="49.65762" lon="4.72606">
        <ele>272</ele>
        <time>2022-04-03T08:48:16.000Z</time>
      </trkpt>
      <trkpt lat="49.6576" lon="4.72603">
        <ele>272</ele>
        <time>2022-04-03T08:48:17.000Z</time>
      </trkpt>
      <trkpt lat="49.65757" lon="4.726">
        <ele>272</ele>
        <time>2022-04-03T08:48:18.000Z</time>
      </trkpt>
      <trkpt lat="49.65755" lon="4.72597">
        <ele>272</ele>
        <time>2022-04-03T08:48:19.000Z</time>
      </trkpt>
      <trkpt lat="49.65752" lon="4.72595">
        <ele>273</ele>
        <time>2022-04-03T08:48:20.000Z</time>
      </trkpt>
      <trkpt lat="49.6575" lon="4.72593">
        <ele>273</ele>
        <time>2022-04-03T08:48:21.000Z</time>
      </trkpt>
      <trkpt lat="49.65747" lon="4.7259">
        <ele>273</ele>
        <time>2022-04-03T08:48:22.000Z</time>
      </trkpt>
      <trkpt lat="49.65745" lon="4.72588">
        <ele>273</ele>
        <time>2022-04-03T08:48:23.000Z</time>
      </trkpt>
      <trkpt lat="49.65743" lon="4.72587">
        <ele>273</ele>
        <time>2022-04-03T08:48:24.000Z</time>
      </trkpt>
      <trkpt lat="49.65742" lon="4.72584">
        <ele>273</ele>
        <time>2022-04-03T08:48:25.000Z</time>
      </trkpt>
      <trkpt lat="49.6574" lon="4.72582">
        <ele>274</ele>
        <time>2022-04-03T08:48:26.000Z</time>
      </trkpt>
      <trkpt lat="49.65739" lon="4.72579">
        <ele>274</ele>
        <time>2022-04-03T08:48:27.000Z</time>
      </trkpt>
      <trkpt lat="49.65738" lon="4.72577">
        <ele>274</ele>
        <time>2022-04-03T08:48:28.000Z</time>
      </trkpt>
      <trkpt lat="49.65736" lon="4.72574">
        <ele>274</ele>
        <time>2022-04-03T08:48:29.000Z</time>
      </trkpt>
      <trkpt lat="49.65735" lon="4.72572">
        <ele>274</ele>
        <time>2022-04-03T08:48:30.000Z</time>
      </trkpt>
      <trkpt lat="49.65734" lon="4.7257">
        <ele>274</ele>
        <time>2022-04-03T08:48:31.000Z</time>
      </trkpt>
      <trkpt lat="49.65732" lon="4.72568">
        <ele>275</ele>
        <time>2022-04-03T08:48:32.000Z</time>
      </trkpt>
      <trkpt lat="49.65731" lon="4.72565">
        <ele>275</ele>
        <time>2022-04-03T08:48:33.000Z</time>
      </trkpt>
      <trkpt lat="49.65728" lon="4.72561">
        <ele>275</ele>
        <time>2022-04-03T08:48:34.000Z</time>
      </trkpt>
      <trkpt lat="49.65726" lon="4.72557">
        <ele>275</ele>
        <time>2022-04-03T08:48:35.000Z</time>
      </trkpt>
      <trkpt lat="49.65724" lon="4.72553">
        <ele>275</ele>
        <time>2022-04-03T08:48:36.000Z</time>
      </trkpt>
      <trkpt lat="49.65721" lon="4.72549">
        <ele>275</ele>
        <time>2022-04-03T08:48:37.000Z</time>
      </trkpt>
      <trkpt lat="49.65719" lon="4.72546">
        <ele>275</ele>
        <time>2022-04-03T08:48:38.000Z</time>
      </trkpt>
      <trkpt lat="49.65716" lon="4.72543">
        <ele>276</ele>
        <time>2022-04-03T08:48:39.000Z</time>
      </trkpt>
      <trkpt lat="49.65714" lon="4.72541">
        <ele>276</ele>
        <time>2022-04-03T08:48:40.000Z</time>
      </trkpt>
      <trkpt lat="49.65712" lon="4.72539">
        <ele>276</ele>
        <time>2022-04-03T08:48:41.000Z</time>
      </trkpt>
      <trkpt lat="49.6571" lon="4.72536">
        <ele>276</ele>
        <time>2022-04-03T08:48:42.000Z</time>
      </trkpt>
      <trkpt lat="49.65708" lon="4.72534">
        <ele>276</ele>
        <time>2022-04-03T08:48:43.000Z</time>
      </trkpt>
      <trkpt lat="49.65706" lon="4.72531">
        <ele>277</ele>
        <time>2022-04-03T08:48:44.000Z</time>
      </trkpt>
      <trkpt lat="49.65704" lon="4.72528">
        <ele>277</ele>
        <time>2022-04-03T08:48:45.000Z</time>
      </trkpt>
      <trkpt lat="49.65702" lon="4.72526">
        <ele>277</ele>
        <time>2022-04-03T08:48:46.000Z</time>
      </trkpt>
      <trkpt lat="49.657" lon="4.72523">
        <ele>277</ele>
        <time>2022-04-03T08:48:47.000Z</time>
      </trkpt>
      <trkpt lat="49.65699" lon="4.72521">
        <ele>277</ele>
        <time>2022-04-03T08:48:48.000Z</time>
      </trkpt>
      <trkpt lat="49.65698" lon="4.72518">
        <ele>277</ele>
        <time>2022-04-03T08:48:49.000Z</time>
      </trkpt>
      <trkpt lat="49.65696" lon="4.72516">
        <ele>277</ele>
        <time>2022-04-03T08:48:50.000Z</time>
      </trkpt>
      <trkpt lat="49.65695" lon="4.72514">
        <ele>278</ele>
        <time>2022-04-03T08:48:51.000Z</time>
      </trkpt>
      <trkpt lat="49.65693" lon="4.72511">
        <ele>278</ele>
        <time>2022-04-03T08:48:52.000Z</time>
      </trkpt>
      <trkpt lat="49.65691" lon="4.72509">
        <ele>278</ele>
        <time>2022-04-03T08:48:53.000Z</time>
      </trkpt>
      <trkpt lat="49.6569" lon="4.72506">
        <ele>278</ele>
        <time>2022-04-03T08:48:54.000Z</time>
      </trkpt>
      <trkpt lat="49.65689" lon="4.72504">
        <ele>278</ele>
        <time>2022-04-03T08:48:55.000Z</time>
      </trkpt>
      <trkpt lat="49.65687" lon="4.72501">
        <ele>278</ele>
        <time>2022-04-03T08:48:56.000Z</time>
      </trkpt>
      <trkpt lat="49.65686" lon="4.72499">
        <ele>278</ele>
        <time>2022-04-03T08:48:57.000Z</time>
      </trkpt>
      <trkpt lat="49.65684" lon="4.72497">
        <ele>279</ele>
        <time>2022-04-03T08:48:58.000Z</time>
      </trkpt>
      <trkpt lat="49.65683" lon="4.72495">
        <ele>279</ele>
        <time>2022-04-03T08:48:59.000Z</time>
      </trkpt>
      <trkpt lat="49.65682" lon="4.72494">
        <ele>279</ele>
        <time>2022-04-03T08:49:00.000Z</time>
      </trkpt>
      <trkpt lat="49.6568" lon="4.72492">
        <ele>279</ele>
        <time>2022-04-03T08:49:01.000Z</time>
      </trkpt>
      <trkpt lat="49.65679" lon="4.72491">
        <ele>279</ele>
        <time>2022-04-03T08:49:02.000Z</time>
      </trkpt>
      <trkpt lat="49.65678" lon="4.72489">
        <ele>280</ele>
        <time>2022-04-03T08:49:03.000Z</time>
      </trkpt>
      <trkpt lat="49.65676" lon="4.72488">
        <ele>280</ele>
        <time>2022-04-03T08:49:04.000Z</time>
      </trkpt>
      <trkpt lat="49.65674" lon="4.72486">
        <ele>280</ele>
        <time>2022-04-03T08:49:05.000Z</time>
      </trkpt>
      <trkpt lat="49.65672" lon="4.72485">
        <ele>280</ele>
        <time>2022-04-03T08:49:06.000Z</time>
      </trkpt>
      <trkpt lat="49.65671" lon="4.72484">
        <ele>281</ele>
        <time>2022-04-03T08:49:07.000Z</time>
      </trkpt>
      <trkpt lat="49.65669" lon="4.72483">
        <ele>281</ele>
        <time>2022-04-03T08:49:08.000Z</time>
      </trkpt>
      <trkpt lat="49.65668" lon="4.72482">
        <ele>281</ele>
        <time>2022-04-03T08:49:09.000Z</time>
      </trkpt>
      <trkpt lat="49.65666" lon="4.72481">
        <ele>281</ele>
        <time>2022-04-03T08:49:10.000Z</time>
      </trkpt>
      <trkpt lat="49.65665" lon="4.7248">
        <ele>281</ele>
        <time>2022-04-03T08:49:11.000Z</time>
      </trkpt>
      <trkpt lat="49.65664" lon="4.72479">
        <ele>282</ele>
        <time>2022-04-03T08:49:12.000Z</time>
      </trkpt>
      <trkpt lat="49.65662" lon="4.72478">
        <ele>282</ele>
        <time>2022-04-03T08:49:13.000Z</time>
      </trkpt>
      <trkpt lat="49.65661" lon="4.72477">
        <ele>282</ele>
        <time>2022-04-03T08:49:14.000Z</time>
      </trkpt>
      <trkpt lat="49.6566" lon="4.72475">
        <ele>282</ele>
        <time>2022-04-03T08:49:15.000Z</time>
      </trkpt>
      <trkpt lat="49.6566" lon="4.72474">
        <ele>283</ele>
        <time>2022-04-03T08:49:16.000Z</time>
      </trkpt>
      <trkpt lat="49.65659" lon="4.72473">
        <ele>283</ele>
        <time>2022-04-03T08:49:17.000Z</time>
      </trkpt>
      <trkpt lat="49.65657" lon="4.72472">
        <ele>283</ele>
        <time>2022-04-03T08:49:18.000Z</time>
      </trkpt>
      <trkpt lat="49.65656" lon="4.72471">
        <ele>283</ele>
        <time>2022-04-03T08:49:19.000Z</time>
      </trkpt>
      <trkpt lat="49.65655" lon="4.72471">
        <ele>284</ele>
        <time>2022-04-03T08:49:20.000Z</time>
      </trkpt>
      <trkpt lat="49.65654" lon="4.7247">
        <ele>284</ele>
        <time>2022-04-03T08:49:21.000Z</time>
      </trkpt>
      <trkpt lat="49.65652" lon="4.72469">
        <ele>284</ele>
        <time>2022-04-03T08:49:22.000Z</time>
      </trkpt>
      <trkpt lat="49.65651" lon="4.72469">
        <ele>284</ele>
        <time>2022-04-03T08:49:23.000Z</time>
      </trkpt>
      <trkpt lat="49.65649" lon="4.72468">
        <ele>284</ele>
        <time>2022-04-03T08:49:24.000Z</time>
      </trkpt>
      <trkpt lat="49.65648" lon="4.72468">
        <ele>285</ele>
        <time>2022-04-03T08:49:25.000Z</time>
      </trkpt>
      <trkpt lat="49.65647" lon="4.72467">
        <ele>285</ele>
        <time>2022-04-03T08:49:26.000Z</time>
      </trkpt>
      <trkpt lat="49.65644" lon="4.72467">
        <ele>285</ele>
        <time>2022-04-03T08:49:27.000Z</time>
      </trkpt>
      <trkpt lat="49.65643" lon="4.72467">
        <ele>285</ele>
        <time>2022-04-03T08:49:28.000Z</time>
      </trkpt>
      <trkpt lat="49.65641" lon="4.72467">
        <ele>286</ele>
        <time>2022-04-03T08:49:29.000Z</time>
      </trkpt>
      <trkpt lat="49.65639" lon="4.72466">
        <ele>286</ele>
        <time>2022-04-03T08:49:30.000Z</time>
      </trkpt>
      <trkpt lat="49.65637" lon="4.72466">
        <ele>286</ele>
        <time>2022-04-03T08:49:31.000Z</time>
      </trkpt>
      <trkpt lat="49.65636" lon="4.72466">
        <ele>287</ele>
        <time>2022-04-03T08:49:32.000Z</time>
      </trkpt>
      <trkpt lat="49.65634" lon="4.72466">
        <ele>287</ele>
        <time>2022-04-03T08:49:33.000Z</time>
      </trkpt>
      <trkpt lat="49.65632" lon="4.72466">
        <ele>287</ele>
        <time>2022-04-03T08:49:34.000Z</time>
      </trkpt>
      <trkpt lat="49.6563" lon="4.72466">
        <ele>287</ele>
        <time>2022-04-03T08:49:35.000Z</time>
      </trkpt>
      <trkpt lat="49.65628" lon="4.72465">
        <ele>288</ele>
        <time>2022-04-03T08:49:36.000Z</time>
      </trkpt>
      <trkpt lat="49.65626" lon="4.72465">
        <ele>288</ele>
        <time>2022-04-03T08:49:37.000Z</time>
      </trkpt>
      <trkpt lat="49.65625" lon="4.72465">
        <ele>288</ele>
        <time>2022-04-03T08:49:38.000Z</time>
      </trkpt>
      <trkpt lat="49.65624" lon="4.72465">
        <ele>288</ele>
        <time>2022-04-03T08:49:39.000Z</time>
      </trkpt>
      <trkpt lat="49.65622" lon="4.72465">
        <ele>289</ele>
        <time>2022-04-03T08:49:40.000Z</time>
      </trkpt>
      <trkpt lat="49.6562" lon="4.72464">
        <ele>289</ele>
        <time>2022-04-03T08:49:41.000Z</time>
      </trkpt>
      <trkpt lat="49.65618" lon="4.72464">
        <ele>289</ele>
        <time>2022-04-03T08:49:42.000Z</time>
      </trkpt>
      <trkpt lat="49.65617" lon="4.72463">
        <ele>290</ele>
        <time>2022-04-03T08:49:43.000Z</time>
      </trkpt>
      <trkpt lat="49.65615" lon="4.72462">
        <ele>290</ele>
        <time>2022-04-03T08:49:44.000Z</time>
      </trkpt>
      <trkpt lat="49.65613" lon="4.72461">
        <ele>290</ele>
        <time>2022-04-03T08:49:45.000Z</time>
      </trkpt>
      <trkpt lat="49.65611" lon="4.7246">
        <ele>291</ele>
        <time>2022-04-03T08:49:46.000Z</time>
      </trkpt>
      <trkpt lat="49.65609" lon="4.72459">
        <ele>291</ele>
        <time>2022-04-03T08:49:47.000Z</time>
      </trkpt>
      <trkpt lat="49.65607" lon="4.72458">
        <ele>291</ele>
        <time>2022-04-03T08:49:48.000Z</time>
      </trkpt>
      <trkpt lat="49.65606" lon="4.72457">
        <ele>292</ele>
        <time>2022-04-03T08:49:49.000Z</time>
      </trkpt>
      <trkpt lat="49.65604" lon="4.72456">
        <ele>292</ele>
        <time>2022-04-03T08:49:50.000Z</time>
      </trkpt>
      <trkpt lat="49.65602" lon="4.72456">
        <ele>292</ele>
        <time>2022-04-03T08:49:51.000Z</time>
      </trkpt>
      <trkpt lat="49.65599" lon="4.72455">
        <ele>293</ele>
        <time>2022-04-03T08:49:52.000Z</time>
      </trkpt>
      <trkpt lat="49.65597" lon="4.72454">
        <ele>293</ele>
        <time>2022-04-03T08:49:53.000Z</time>
      </trkpt>
      <trkpt lat="49.65595" lon="4.72453">
        <ele>294</ele>
        <time>2022-04-03T08:49:54.000Z</time>
      </trkpt>
      <trkpt lat="49.65593" lon="4.72453">
        <ele>294</ele>
        <time>2022-04-03T08:49:55.000Z</time>
      </trkpt>
      <trkpt lat="49.65591" lon="4.72453">
        <ele>295</ele>
        <time>2022-04-03T08:49:56.000Z</time>
      </trkpt>
      <trkpt lat="49.65589" lon="4.72454">
        <ele>295</ele>
        <time>2022-04-03T08:49:57.000Z</time>
      </trkpt>
      <trkpt lat="49.65587" lon="4.72453">
        <ele>295</ele>
        <time>2022-04-03T08:49:58.000Z</time>
      </trkpt>
      <trkpt lat="49.65585" lon="4.72452">
        <ele>295</ele>
        <time>2022-04-03T08:49:59.000Z</time>
      </trkpt>
      <trkpt lat="49.65583" lon="4.72451">
        <ele>296</ele>
        <time>2022-04-03T08:50:00.000Z</time>
      </trkpt>
      <trkpt lat="49.65581" lon="4.72449">
        <ele>296</ele>
        <time>2022-04-03T08:50:01.000Z</time>
      </trkpt>
      <trkpt lat="49.6558" lon="4.72447">
        <ele>296</ele>
        <time>2022-04-03T08:50:02.000Z</time>
      </trkpt>
      <trkpt lat="49.65578" lon="4.72445">
        <ele>296</ele>
        <time>2022-04-03T08:50:03.000Z</time>
      </trkpt>
      <trkpt lat="49.65576" lon="4.72442">
        <ele>296</ele>
        <time>2022-04-03T08:50:04.000Z</time>
      </trkpt>
      <trkpt lat="49.65575" lon="4.7244">
        <ele>297</ele>
        <time>2022-04-03T08:50:05.000Z</time>
      </trkpt>
      <trkpt lat="49.65574" lon="4.72437">
        <ele>297</ele>
        <time>2022-04-03T08:50:06.000Z</time>
      </trkpt>
      <trkpt lat="49.65574" lon="4.72435">
        <ele>297</ele>
        <time>2022-04-03T08:50:07.000Z</time>
      </trkpt>
      <trkpt lat="49.65574" lon="4.72432">
        <ele>297</ele>
        <time>2022-04-03T08:50:08.000Z</time>
      </trkpt>
      <trkpt lat="49.65574" lon="4.7243">
        <ele>297</ele>
        <time>2022-04-03T08:50:09.000Z</time>
      </trkpt>
      <trkpt lat="49.65575" lon="4.72428">
        <ele>297</ele>
        <time>2022-04-03T08:50:10.000Z</time>
      </trkpt>
      <trkpt lat="49.65576" lon="4.72426">
        <ele>297</ele>
        <time>2022-04-03T08:50:11.000Z</time>
      </trkpt>
      <trkpt lat="49.65576" lon="4.72425">
        <ele>297</ele>
        <time>2022-04-03T08:50:12.000Z</time>
      </trkpt>
      <trkpt lat="49.65577" lon="4.72425">
        <ele>297</ele>
        <time>2022-04-03T08:50:13.000Z</time>
      </trkpt>
      <trkpt lat="49.65578" lon="4.72423">
        <ele>297</ele>
        <time>2022-04-03T08:50:14.000Z</time>
      </trkpt>
      <trkpt lat="49.65579" lon="4.72422">
        <ele>297</ele>
        <time>2022-04-03T08:50:15.000Z</time>
      </trkpt>
      <trkpt lat="49.6558" lon="4.7242">
        <ele>297</ele>
        <time>2022-04-03T08:50:16.000Z</time>
      </trkpt>
      <trkpt lat="49.65582" lon="4.72419">
        <ele>297</ele>
        <time>2022-04-03T08:50:17.000Z</time>
      </trkpt>
      <trkpt lat="49.65583" lon="4.72417">
        <ele>297</ele>
        <time>2022-04-03T08:50:18.000Z</time>
      </trkpt>
      <trkpt lat="49.65585" lon="4.72416">
        <ele>298</ele>
        <time>2022-04-03T08:50:19.000Z</time>
      </trkpt>
      <trkpt lat="49.65586" lon="4.72416">
        <ele>298</ele>
        <time>2022-04-03T08:50:20.000Z</time>
      </trkpt>
      <trkpt lat="49.65588" lon="4.72415">
        <ele>298</ele>
        <time>2022-04-03T08:50:21.000Z</time>
      </trkpt>
      <trkpt lat="49.6559" lon="4.72413">
        <ele>298</ele>
        <time>2022-04-03T08:50:22.000Z</time>
      </trkpt>
      <trkpt lat="49.65592" lon="4.72412">
        <ele>298</ele>
        <time>2022-04-03T08:50:23.000Z</time>
      </trkpt>
      <trkpt lat="49.65594" lon="4.7241">
        <ele>298</ele>
        <time>2022-04-03T08:50:24.000Z</time>
      </trkpt>
      <trkpt lat="49.65597" lon="4.72408">
        <ele>299</ele>
        <time>2022-04-03T08:50:25.000Z</time>
      </trkpt>
      <trkpt lat="49.65599" lon="4.72406">
        <ele>299</ele>
        <time>2022-04-03T08:50:26.000Z</time>
      </trkpt>
      <trkpt lat="49.65602" lon="4.72404">
        <ele>299</ele>
        <time>2022-04-03T08:50:27.000Z</time>
      </trkpt>
      <trkpt lat="49.65605" lon="4.72401">
        <ele>299</ele>
        <time>2022-04-03T08:50:28.000Z</time>
      </trkpt>
      <trkpt lat="49.65608" lon="4.72399">
        <ele>299</ele>
        <time>2022-04-03T08:50:29.000Z</time>
      </trkpt>
      <trkpt lat="49.6561" lon="4.72397">
        <ele>299</ele>
        <time>2022-04-03T08:50:30.000Z</time>
      </trkpt>
      <trkpt lat="49.65613" lon="4.72395">
        <ele>299</ele>
        <time>2022-04-03T08:50:31.000Z</time>
      </trkpt>
      <trkpt lat="49.65616" lon="4.72393">
        <ele>299</ele>
        <time>2022-04-03T08:50:32.000Z</time>
      </trkpt>
      <trkpt lat="49.65618" lon="4.7239">
        <ele>299</ele>
        <time>2022-04-03T08:50:33.000Z</time>
      </trkpt>
      <trkpt lat="49.65621" lon="4.72387">
        <ele>299</ele>
        <time>2022-04-03T08:50:34.000Z</time>
      </trkpt>
      <trkpt lat="49.65623" lon="4.72385">
        <ele>298</ele>
        <time>2022-04-03T08:50:35.000Z</time>
      </trkpt>
      <trkpt lat="49.65626" lon="4.72382">
        <ele>298</ele>
        <time>2022-04-03T08:50:36.000Z</time>
      </trkpt>
      <trkpt lat="49.65628" lon="4.7238">
        <ele>298</ele>
        <time>2022-04-03T08:50:37.000Z</time>
      </trkpt>
      <trkpt lat="49.65631" lon="4.72376">
        <ele>298</ele>
        <time>2022-04-03T08:50:38.000Z</time>
      </trkpt>
      <trkpt lat="49.65634" lon="4.72373">
        <ele>298</ele>
        <time>2022-04-03T08:50:39.000Z</time>
      </trkpt>
      <trkpt lat="49.65637" lon="4.7237">
        <ele>298</ele>
        <time>2022-04-03T08:50:40.000Z</time>
      </trkpt>
      <trkpt lat="49.6564" lon="4.72367">
        <ele>298</ele>
        <time>2022-04-03T08:50:41.000Z</time>
      </trkpt>
      <trkpt lat="49.65644" lon="4.72363">
        <ele>298</ele>
        <time>2022-04-03T08:50:42.000Z</time>
      </trkpt>
      <trkpt lat="49.65648" lon="4.72359">
        <ele>298</ele>
        <time>2022-04-03T08:50:43.000Z</time>
      </trkpt>
      <trkpt lat="49.65652" lon="4.72354">
        <ele>298</ele>
        <time>2022-04-03T08:50:44.000Z</time>
      </trkpt>
      <trkpt lat="49.65656" lon="4.7235">
        <ele>298</ele>
        <time>2022-04-03T08:50:45.000Z</time>
      </trkpt>
      <trkpt lat="49.6566" lon="4.72345">
        <ele>298</ele>
        <time>2022-04-03T08:50:46.000Z</time>
      </trkpt>
      <trkpt lat="49.65664" lon="4.7234">
        <ele>298</ele>
        <time>2022-04-03T08:50:47.000Z</time>
      </trkpt>
      <trkpt lat="49.65669" lon="4.72334">
        <ele>298</ele>
        <time>2022-04-03T08:50:48.000Z</time>
      </trkpt>
      <trkpt lat="49.65672" lon="4.7233">
        <ele>298</ele>
        <time>2022-04-03T08:50:49.000Z</time>
      </trkpt>
      <trkpt lat="49.65676" lon="4.72326">
        <ele>298</ele>
        <time>2022-04-03T08:50:50.000Z</time>
      </trkpt>
      <trkpt lat="49.65679" lon="4.72321">
        <ele>298</ele>
        <time>2022-04-03T08:50:51.000Z</time>
      </trkpt>
      <trkpt lat="49.65683" lon="4.72317">
        <ele>298</ele>
        <time>2022-04-03T08:50:52.000Z</time>
      </trkpt>
      <trkpt lat="49.65686" lon="4.72313">
        <ele>298</ele>
        <time>2022-04-03T08:50:53.000Z</time>
      </trkpt>
      <trkpt lat="49.65689" lon="4.72309">
        <ele>298</ele>
        <time>2022-04-03T08:50:54.000Z</time>
      </trkpt>
      <trkpt lat="49.65692" lon="4.72305">
        <ele>298</ele>
        <time>2022-04-03T08:50:55.000Z</time>
      </trkpt>
      <trkpt lat="49.65695" lon="4.72303">
        <ele>298</ele>
        <time>2022-04-03T08:50:56.000Z</time>
      </trkpt>
      <trkpt lat="49.65697" lon="4.723">
        <ele>298</ele>
        <time>2022-04-03T08:50:57.000Z</time>
      </trkpt>
      <trkpt lat="49.65699" lon="4.72297">
        <ele>298</ele>
        <time>2022-04-03T08:50:58.000Z</time>
      </trkpt>
      <trkpt lat="49.65702" lon="4.72295">
        <ele>298</ele>
        <time>2022-04-03T08:50:59.000Z</time>
      </trkpt>
      <trkpt lat="49.65704" lon="4.72292">
        <ele>298</ele>
        <time>2022-04-03T08:51:00.000Z</time>
      </trkpt>
      <trkpt lat="49.65706" lon="4.7229">
        <ele>298</ele>
        <time>2022-04-03T08:51:01.000Z</time>
      </trkpt>
      <trkpt lat="49.65708" lon="4.72287">
        <ele>298</ele>
        <time>2022-04-03T08:51:02.000Z</time>
      </trkpt>
      <trkpt lat="49.65711" lon="4.72283">
        <ele>298</ele>
        <time>2022-04-03T08:51:03.000Z</time>
      </trkpt>
      <trkpt lat="49.65713" lon="4.7228">
        <ele>298</ele>
        <time>2022-04-03T08:51:04.000Z</time>
      </trkpt>
      <trkpt lat="49.65715" lon="4.72277">
        <ele>298</ele>
        <time>2022-04-03T08:51:05.000Z</time>
      </trkpt>
      <trkpt lat="49.65718" lon="4.72274">
        <ele>298</ele>
        <time>2022-04-03T08:51:06.000Z</time>
      </trkpt>
      <trkpt lat="49.65721" lon="4.72271">
        <ele>298</ele>
        <time>2022-04-03T08:51:07.000Z</time>
      </trkpt>
      <trkpt lat="49.65725" lon="4.72267">
        <ele>298</ele>
        <time>2022-04-03T08:51:08.000Z</time>
      </trkpt>
      <trkpt lat="49.65728" lon="4.72264">
        <ele>298</ele>
        <time>2022-04-03T08:51:09.000Z</time>
      </trkpt>
      <trkpt lat="49.65731" lon="4.72261">
        <ele>298</ele>
        <time>2022-04-03T08:51:10.000Z</time>
      </trkpt>
      <trkpt lat="49.65735" lon="4.72258">
        <ele>298</ele>
        <time>2022-04-03T08:51:11.000Z</time>
      </trkpt>
      <trkpt lat="49.65739" lon="4.72254">
        <ele>298</ele>
        <time>2022-04-03T08:51:12.000Z</time>
      </trkpt>
      <trkpt lat="49.65743" lon="4.72251">
        <ele>298</ele>
        <time>2022-04-03T08:51:13.000Z</time>
      </trkpt>
      <trkpt lat="49.65746" lon="4.72249">
        <ele>298</ele>
        <time>2022-04-03T08:51:14.000Z</time>
      </trkpt>
      <trkpt lat="49.65749" lon="4.72248">
        <ele>298</ele>
        <time>2022-04-03T08:51:15.000Z</time>
      </trkpt>
      <trkpt lat="49.65753" lon="4.72249">
        <ele>298</ele>
        <time>2022-04-03T08:51:16.000Z</time>
      </trkpt>
      <trkpt lat="49.65757" lon="4.72251">
        <ele>298</ele>
        <time>2022-04-03T08:51:17.000Z</time>
      </trkpt>
      <trkpt lat="49.65761" lon="4.72254">
        <ele>299</ele>
        <time>2022-04-03T08:51:18.000Z</time>
      </trkpt>
      <trkpt lat="49.65765" lon="4.72258">
        <ele>299</ele>
        <time>2022-04-03T08:51:19.000Z</time>
      </trkpt>
      <trkpt lat="49.65769" lon="4.72263">
        <ele>299</ele>
        <time>2022-04-03T08:51:20.000Z</time>
      </trkpt>
      <trkpt lat="49.65773" lon="4.72268">
        <ele>299</ele>
        <time>2022-04-03T08:51:21.000Z</time>
      </trkpt>
      <trkpt lat="49.65777" lon="4.72273">
        <ele>299</ele>
        <time>2022-04-03T08:51:22.000Z</time>
      </trkpt>
      <trkpt lat="49.6578" lon="4.72278">
        <ele>299</ele>
        <time>2022-04-03T08:51:23.000Z</time>
      </trkpt>
      <trkpt lat="49.65784" lon="4.72283">
        <ele>299</ele>
        <time>2022-04-03T08:51:24.000Z</time>
      </trkpt>
      <trkpt lat="49.65788" lon="4.72288">
        <ele>299</ele>
        <time>2022-04-03T08:51:25.000Z</time>
      </trkpt>
      <trkpt lat="49.65791" lon="4.72294">
        <ele>299</ele>
        <time>2022-04-03T08:51:26.000Z</time>
      </trkpt>
      <trkpt lat="49.65795" lon="4.72299">
        <ele>299</ele>
        <time>2022-04-03T08:51:27.000Z</time>
      </trkpt>
      <trkpt lat="49.65799" lon="4.72304">
        <ele>299</ele>
        <time>2022-04-03T08:51:28.000Z</time>
      </trkpt>
      <trkpt lat="49.65802" lon="4.7231">
        <ele>299</ele>
        <time>2022-04-03T08:51:29.000Z</time>
      </trkpt>
      <trkpt lat="49.65807" lon="4.72314">
        <ele>299</ele>
        <time>2022-04-03T08:51:30.000Z</time>
      </trkpt>
      <trkpt lat="49.65811" lon="4.72318">
        <ele>298</ele>
        <time>2022-04-03T08:51:31.000Z</time>
      </trkpt>
      <trkpt lat="49.65815" lon="4.72323">
        <ele>298</ele>
        <time>2022-04-03T08:51:32.000Z</time>
      </trkpt>
      <trkpt lat="49.65819" lon="4.72329">
        <ele>298</ele>
        <time>2022-04-03T08:51:33.000Z</time>
      </trkpt>
      <trkpt lat="49.65823" lon="4.72335">
        <ele>298</ele>
        <time>2022-04-03T08:51:34.000Z</time>
      </trkpt>
      <trkpt lat="49.65827" lon="4.72341">
        <ele>298</ele>
        <time>2022-04-03T08:51:35.000Z</time>
      </trkpt>
      <trkpt lat="49.65832" lon="4.72348">
        <ele>298</ele>
        <time>2022-04-03T08:51:36.000Z</time>
      </trkpt>
      <trkpt lat="49.65836" lon="4.72355">
        <ele>298</ele>
        <time>2022-04-03T08:51:37.000Z</time>
      </trkpt>
      <trkpt lat="49.65841" lon="4.72362">
        <ele>298</ele>
        <time>2022-04-03T08:51:38.000Z</time>
      </trkpt>
      <trkpt lat="49.65845" lon="4.72369">
        <ele>298</ele>
        <time>2022-04-03T08:51:39.000Z</time>
      </trkpt>
      <trkpt lat="49.65849" lon="4.72376">
        <ele>298</ele>
        <time>2022-04-03T08:51:40.000Z</time>
      </trkpt>
      <trkpt lat="49.65853" lon="4.72383">
        <ele>298</ele>
        <time>2022-04-03T08:51:41.000Z</time>
      </trkpt>
      <trkpt lat="49.65859" lon="4.72389">
        <ele>298</ele>
        <time>2022-04-03T08:51:42.000Z</time>
      </trkpt>
      <trkpt lat="49.65864" lon="4.72397">
        <ele>297</ele>
        <time>2022-04-03T08:51:43.000Z</time>
      </trkpt>
      <trkpt lat="49.65869" lon="4.72405">
        <ele>297</ele>
        <time>2022-04-03T08:51:44.000Z</time>
      </trkpt>
      <trkpt lat="49.65875" lon="4.72413">
        <ele>297</ele>
        <time>2022-04-03T08:51:45.000Z</time>
      </trkpt>
      <trkpt lat="49.65881" lon="4.72421">
        <ele>297</ele>
        <time>2022-04-03T08:51:46.000Z</time>
      </trkpt>
      <trkpt lat="49.65888" lon="4.72429">
        <ele>297</ele>
        <time>2022-04-03T08:51:47.000Z</time>
      </trkpt>
      <trkpt lat="49.65893" lon="4.72438">
        <ele>296</ele>
        <time>2022-04-03T08:51:48.000Z</time>
      </trkpt>
      <trkpt lat="49.65899" lon="4.72445">
        <ele>296</ele>
        <time>2022-04-03T08:51:49.000Z</time>
      </trkpt>
      <trkpt lat="49.65903" lon="4.72452">
        <ele>296</ele>
        <time>2022-04-03T08:51:50.000Z</time>
      </trkpt>
      <trkpt lat="49.65909" lon="4.72458">
        <ele>296</ele>
        <time>2022-04-03T08:51:51.000Z</time>
      </trkpt>
      <trkpt lat="49.65914" lon="4.72466">
        <ele>295</ele>
        <time>2022-04-03T08:51:52.000Z</time>
      </trkpt>
      <trkpt lat="49.65918" lon="4.72474">
        <ele>295</ele>
        <time>2022-04-03T08:51:53.000Z</time>
      </trkpt>
      <trkpt lat="49.65923" lon="4.7248">
        <ele>295</ele>
        <time>2022-04-03T08:51:54.000Z</time>
      </trkpt>
      <trkpt lat="49.65927" lon="4.72487">
        <ele>294</ele>
        <time>2022-04-03T08:51:55.000Z</time>
      </trkpt>
      <trkpt lat="49.65931" lon="4.72492">
        <ele>294</ele>
        <time>2022-04-03T08:51:56.000Z</time>
      </trkpt>
      <trkpt lat="49.65935" lon="4.72498">
        <ele>293</ele>
        <time>2022-04-03T08:51:57.000Z</time>
      </trkpt>
      <trkpt lat="49.65939" lon="4.72504">
        <ele>293</ele>
        <time>2022-04-03T08:51:58.000Z</time>
      </trkpt>
      <trkpt lat="49.65942" lon="4.72509">
        <ele>292</ele>
        <time>2022-04-03T08:51:59.000Z</time>
      </trkpt>
      <trkpt lat="49.65946" lon="4.72516">
        <ele>292</ele>
        <time>2022-04-03T08:52:00.000Z</time>
      </trkpt>
      <trkpt lat="49.6595" lon="4.72522">
        <ele>292</ele>
        <time>2022-04-03T08:52:01.000Z</time>
      </trkpt>
      <trkpt lat="49.65954" lon="4.72527">
        <ele>291</ele>
        <time>2022-04-03T08:52:02.000Z</time>
      </trkpt>
      <trkpt lat="49.65957" lon="4.72532">
        <ele>291</ele>
        <time>2022-04-03T08:52:03.000Z</time>
      </trkpt>
      <trkpt lat="49.65961" lon="4.72536">
        <ele>290</ele>
        <time>2022-04-03T08:52:04.000Z</time>
      </trkpt>
      <trkpt lat="49.65965" lon="4.7254">
        <ele>289</ele>
        <time>2022-04-03T08:52:05.000Z</time>
      </trkpt>
      <trkpt lat="49.65968" lon="4.72545">
        <ele>289</ele>
        <time>2022-04-03T08:52:06.000Z</time>
      </trkpt>
      <trkpt lat="49.65973" lon="4.72549">
        <ele>288</ele>
        <time>2022-04-03T08:52:07.000Z</time>
      </trkpt>
      <trkpt lat="49.65976" lon="4.72554">
        <ele>287</ele>
        <time>2022-04-03T08:52:08.000Z</time>
      </trkpt>
      <trkpt lat="49.65979" lon="4.7256">
        <ele>287</ele>
        <time>2022-04-03T08:52:09.000Z</time>
      </trkpt>
      <trkpt lat="49.65982" lon="4.72565">
        <ele>286</ele>
        <time>2022-04-03T08:52:10.000Z</time>
      </trkpt>
      <trkpt lat="49.65986" lon="4.7257">
        <ele>285</ele>
        <time>2022-04-03T08:52:11.000Z</time>
      </trkpt>
      <trkpt lat="49.65989" lon="4.72575">
        <ele>285</ele>
        <time>2022-04-03T08:52:12.000Z</time>
      </trkpt>
      <trkpt lat="49.65993" lon="4.7258">
        <ele>284</ele>
        <time>2022-04-03T08:52:13.000Z</time>
      </trkpt>
      <trkpt lat="49.65998" lon="4.72586">
        <ele>283</ele>
        <time>2022-04-03T08:52:14.000Z</time>
      </trkpt>
      <trkpt lat="49.66002" lon="4.7259">
        <ele>283</ele>
        <time>2022-04-03T08:52:15.000Z</time>
      </trkpt>
      <trkpt lat="49.66005" lon="4.72594">
        <ele>282</ele>
        <time>2022-04-03T08:52:16.000Z</time>
      </trkpt>
      <trkpt lat="49.66008" lon="4.72599">
        <ele>281</ele>
        <time>2022-04-03T08:52:17.000Z</time>
      </trkpt>
      <trkpt lat="49.66011" lon="4.72603">
        <ele>281</ele>
        <time>2022-04-03T08:52:18.000Z</time>
      </trkpt>
      <trkpt lat="49.66014" lon="4.72609">
        <ele>280</ele>
        <time>2022-04-03T08:52:19.000Z</time>
      </trkpt>
      <trkpt lat="49.66018" lon="4.72614">
        <ele>280</ele>
        <time>2022-04-03T08:52:20.000Z</time>
      </trkpt>
      <trkpt lat="49.66023" lon="4.7262">
        <ele>279</ele>
        <time>2022-04-03T08:52:21.000Z</time>
      </trkpt>
      <trkpt lat="49.66028" lon="4.72626">
        <ele>279</ele>
        <time>2022-04-03T08:52:22.000Z</time>
      </trkpt>
      <trkpt lat="49.66033" lon="4.72634">
        <ele>278</ele>
        <time>2022-04-03T08:52:23.000Z</time>
      </trkpt>
      <trkpt lat="49.66037" lon="4.72641">
        <ele>278</ele>
        <time>2022-04-03T08:52:24.000Z</time>
      </trkpt>
      <trkpt lat="49.66042" lon="4.72647">
        <ele>277</ele>
        <time>2022-04-03T08:52:25.000Z</time>
      </trkpt>
      <trkpt lat="49.66045" lon="4.72653">
        <ele>276</ele>
        <time>2022-04-03T08:52:26.000Z</time>
      </trkpt>
      <trkpt lat="49.66048" lon="4.72659">
        <ele>276</ele>
        <time>2022-04-03T08:52:27.000Z</time>
      </trkpt>
      <trkpt lat="49.6605" lon="4.72663">
        <ele>275</ele>
        <time>2022-04-03T08:52:28.000Z</time>
      </trkpt>
      <trkpt lat="49.66053" lon="4.72667">
        <ele>274</ele>
        <time>2022-04-03T08:52:29.000Z</time>
      </trkpt>
      <trkpt lat="49.66055" lon="4.72671">
        <ele>274</ele>
        <time>2022-04-03T08:52:30.000Z</time>
      </trkpt>
      <trkpt lat="49.66057" lon="4.72674">
        <ele>273</ele>
        <time>2022-04-03T08:52:31.000Z</time>
      </trkpt>
      <trkpt lat="49.66059" lon="4.72677">
        <ele>272</ele>
        <time>2022-04-03T08:52:32.000Z</time>
      </trkpt>
      <trkpt lat="49.66061" lon="4.72681">
        <ele>271</ele>
        <time>2022-04-03T08:52:33.000Z</time>
      </trkpt>
      <trkpt lat="49.66063" lon="4.72685">
        <ele>271</ele>
        <time>2022-04-03T08:52:34.000Z</time>
      </trkpt>
      <trkpt lat="49.66066" lon="4.7269">
        <ele>270</ele>
        <time>2022-04-03T08:52:35.000Z</time>
      </trkpt>
      <trkpt lat="49.66067" lon="4.72694">
        <ele>269</ele>
        <time>2022-04-03T08:52:36.000Z</time>
      </trkpt>
      <trkpt lat="49.66069" lon="4.72698">
        <ele>268</ele>
        <time>2022-04-03T08:52:37.000Z</time>
      </trkpt>
      <trkpt lat="49.6607" lon="4.72701">
        <ele>268</ele>
        <time>2022-04-03T08:52:38.000Z</time>
      </trkpt>
      <trkpt lat="49.66071" lon="4.72703">
        <ele>267</ele>
        <time>2022-04-03T08:52:39.000Z</time>
      </trkpt>
      <trkpt lat="49.66072" lon="4.72705">
        <ele>266</ele>
        <time>2022-04-03T08:52:40.000Z</time>
      </trkpt>
      <trkpt lat="49.66073" lon="4.72707">
        <ele>266</ele>
        <time>2022-04-03T08:52:41.000Z</time>
      </trkpt>
      <trkpt lat="49.66074" lon="4.7271">
        <ele>265</ele>
        <time>2022-04-03T08:52:42.000Z</time>
      </trkpt>
      <trkpt lat="49.66076" lon="4.72713">
        <ele>264</ele>
        <time>2022-04-03T08:52:43.000Z</time>
      </trkpt>
      <trkpt lat="49.66077" lon="4.72716">
        <ele>264</ele>
        <time>2022-04-03T08:52:44.000Z</time>
      </trkpt>
      <trkpt lat="49.66078" lon="4.72718">
        <ele>263</ele>
        <time>2022-04-03T08:52:45.000Z</time>
      </trkpt>
      <trkpt lat="49.6608" lon="4.72717">
        <ele>262</ele>
        <time>2022-04-03T08:52:46.000Z</time>
      </trkpt>
      <trkpt lat="49.66082" lon="4.72717">
        <ele>262</ele>
        <time>2022-04-03T08:52:47.000Z</time>
      </trkpt>
      <trkpt lat="49.66085" lon="4.72714">
        <ele>261</ele>
        <time>2022-04-03T08:52:48.000Z</time>
      </trkpt>
      <trkpt lat="49.66088" lon="4.72711">
        <ele>261</ele>
        <time>2022-04-03T08:52:49.000Z</time>
      </trkpt>
      <trkpt lat="49.66092" lon="4.72707">
        <ele>260</ele>
        <time>2022-04-03T08:52:50.000Z</time>
      </trkpt>
      <trkpt lat="49.66096" lon="4.72703">
        <ele>259</ele>
        <time>2022-04-03T08:52:51.000Z</time>
      </trkpt>
      <trkpt lat="49.661" lon="4.72697">
        <ele>259</ele>
        <time>2022-04-03T08:52:52.000Z</time>
      </trkpt>
      <trkpt lat="49.66104" lon="4.72691">
        <ele>258</ele>
        <time>2022-04-03T08:52:53.000Z</time>
      </trkpt>
      <trkpt lat="49.66109" lon="4.72686">
        <ele>258</ele>
        <time>2022-04-03T08:52:54.000Z</time>
      </trkpt>
      <trkpt lat="49.66113" lon="4.72681">
        <ele>257</ele>
        <time>2022-04-03T08:52:55.000Z</time>
      </trkpt>
      <trkpt lat="49.66117" lon="4.72676">
        <ele>257</ele>
        <time>2022-04-03T08:52:56.000Z</time>
      </trkpt>
      <trkpt lat="49.6612" lon="4.72672">
        <ele>256</ele>
        <time>2022-04-03T08:52:57.000Z</time>
      </trkpt>
      <trkpt lat="49.66123" lon="4.72668">
        <ele>256</ele>
        <time>2022-04-03T08:52:58.000Z</time>
      </trkpt>
      <trkpt lat="49.66127" lon="4.72664">
        <ele>255</ele>
        <time>2022-04-03T08:52:59.000Z</time>
      </trkpt>
      <trkpt lat="49.66131" lon="4.7266">
        <ele>255</ele>
        <time>2022-04-03T08:53:00.000Z</time>
      </trkpt>
      <trkpt lat="49.66134" lon="4.72657">
        <ele>254</ele>
        <time>2022-04-03T08:53:01.000Z</time>
      </trkpt>
      <trkpt lat="49.66136" lon="4.72654">
        <ele>254</ele>
        <time>2022-04-03T08:53:02.000Z</time>
      </trkpt>
      <trkpt lat="49.66138" lon="4.72652">
        <ele>253</ele>
        <time>2022-04-03T08:53:03.000Z</time>
      </trkpt>
      <trkpt lat="49.66139" lon="4.72649">
        <ele>253</ele>
        <time>2022-04-03T08:53:04.000Z</time>
      </trkpt>
      <trkpt lat="49.66139" lon="4.72645">
        <ele>252</ele>
        <time>2022-04-03T08:53:05.000Z</time>
      </trkpt>
      <trkpt lat="49.66139" lon="4.72641">
        <ele>251</ele>
        <time>2022-04-03T08:53:06.000Z</time>
      </trkpt>
      <trkpt lat="49.6614" lon="4.72638">
        <ele>251</ele>
        <time>2022-04-03T08:53:07.000Z</time>
      </trkpt>
      <trkpt lat="49.6614" lon="4.72636">
        <ele>251</ele>
        <time>2022-04-03T08:53:08.000Z</time>
      </trkpt>
      <trkpt lat="49.6614" lon="4.72633">
        <ele>250</ele>
        <time>2022-04-03T08:53:09.000Z</time>
      </trkpt>
      <trkpt lat="49.6614" lon="4.72631">
        <ele>250</ele>
        <time>2022-04-03T08:53:10.000Z</time>
      </trkpt>
      <trkpt lat="49.6614" lon="4.72629">
        <ele>249</ele>
        <time>2022-04-03T08:53:11.000Z</time>
      </trkpt>
      <trkpt lat="49.6614" lon="4.72627">
        <ele>248</ele>
        <time>2022-04-03T08:53:12.000Z</time>
      </trkpt>
      <trkpt lat="49.66138" lon="4.72626">
        <ele>248</ele>
        <time>2022-04-03T08:53:13.000Z</time>
      </trkpt>
      <trkpt lat="49.66137" lon="4.72626">
        <ele>247</ele>
        <time>2022-04-03T08:53:14.000Z</time>
      </trkpt>
      <trkpt lat="49.66136" lon="4.72628">
        <ele>247</ele>
        <time>2022-04-03T08:53:15.000Z</time>
      </trkpt>
      <trkpt lat="49.66136" lon="4.7263">
        <ele>246</ele>
        <time>2022-04-03T08:53:16.000Z</time>
      </trkpt>
      <trkpt lat="49.66135" lon="4.72633">
        <ele>246</ele>
        <time>2022-04-03T08:53:17.000Z</time>
      </trkpt>
      <trkpt lat="49.66134" lon="4.72636">
        <ele>245</ele>
        <time>2022-04-03T08:53:18.000Z</time>
      </trkpt>
      <trkpt lat="49.66134" lon="4.72639">
        <ele>245</ele>
        <time>2022-04-03T08:53:19.000Z</time>
      </trkpt>
      <trkpt lat="49.66133" lon="4.72643">
        <ele>245</ele>
        <time>2022-04-03T08:53:20.000Z</time>
      </trkpt>
      <trkpt lat="49.66133" lon="4.72644">
        <ele>244</ele>
        <time>2022-04-03T08:53:21.000Z</time>
      </trkpt>
      <trkpt lat="49.66134" lon="4.72645">
        <ele>244</ele>
        <time>2022-04-03T08:53:22.000Z</time>
      </trkpt>
      <trkpt lat="49.66133" lon="4.72645">
        <ele>244</ele>
        <time>2022-04-03T08:53:23.000Z</time>
      </trkpt>
      <trkpt lat="49.66134" lon="4.72644">
        <ele>243</ele>
        <time>2022-04-03T08:53:24.000Z</time>
      </trkpt>
      <trkpt lat="49.66133" lon="4.72641">
        <ele>243</ele>
        <time>2022-04-03T08:53:25.000Z</time>
      </trkpt>
      <trkpt lat="49.66133" lon="4.72637">
        <ele>242</ele>
        <time>2022-04-03T08:53:26.000Z</time>
      </trkpt>
      <trkpt lat="49.66135" lon="4.72632">
        <ele>242</ele>
        <time>2022-04-03T08:53:27.000Z</time>
      </trkpt>
      <trkpt lat="49.66138" lon="4.72628">
        <ele>242</ele>
        <time>2022-04-03T08:53:28.000Z</time>
      </trkpt>
      <trkpt lat="49.66143" lon="4.72625">
        <ele>241</ele>
        <time>2022-04-03T08:53:29.000Z</time>
      </trkpt>
      <trkpt lat="49.66147" lon="4.72624">
        <ele>240</ele>
        <time>2022-04-03T08:53:30.000Z</time>
      </trkpt>
      <trkpt lat="49.66152" lon="4.72624">
        <ele>240</ele>
        <time>2022-04-03T08:53:31.000Z</time>
      </trkpt>
      <trkpt lat="49.66157" lon="4.72625">
        <ele>239</ele>
        <time>2022-04-03T08:53:32.000Z</time>
      </trkpt>
      <trkpt lat="49.66162" lon="4.72626">
        <ele>239</ele>
        <time>2022-04-03T08:53:33.000Z</time>
      </trkpt>
      <trkpt lat="49.66166" lon="4.72627">
        <ele>238</ele>
        <time>2022-04-03T08:53:34.000Z</time>
      </trkpt>
      <trkpt lat="49.66167" lon="4.72628">
        <ele>238</ele>
        <time>2022-04-03T08:53:35.000Z</time>
      </trkpt>
      <trkpt lat="49.66167" lon="4.72628">
        <ele>237</ele>
        <time>2022-04-03T08:53:36.000Z</time>
      </trkpt>
      <trkpt lat="49.66167" lon="4.72627">
        <ele>237</ele>
        <time>2022-04-03T08:53:37.000Z</time>
      </trkpt>
      <trkpt lat="49.66167" lon="4.72627">
        <ele>236</ele>
        <time>2022-04-03T08:53:38.000Z</time>
      </trkpt>
      <trkpt lat="49.66166" lon="4.72627">
        <ele>236</ele>
        <time>2022-04-03T08:53:39.000Z</time>
      </trkpt>
      <trkpt lat="49.66165" lon="4.72626">
        <ele>236</ele>
        <time>2022-04-03T08:53:40.000Z</time>
      </trkpt>
      <trkpt lat="49.66164" lon="4.72626">
        <ele>235</ele>
        <time>2022-04-03T08:53:41.000Z</time>
      </trkpt>
      <trkpt lat="49.66162" lon="4.72625">
        <ele>235</ele>
        <time>2022-04-03T08:53:42.000Z</time>
      </trkpt>
      <trkpt lat="49.66159" lon="4.72624">
        <ele>235</ele>
        <time>2022-04-03T08:53:43.000Z</time>
      </trkpt>
      <trkpt lat="49.66157" lon="4.72623">
        <ele>235</ele>
        <time>2022-04-03T08:53:44.000Z</time>
      </trkpt>
      <trkpt lat="49.66154" lon="4.72623">
        <ele>234</ele>
        <time>2022-04-03T08:53:45.000Z</time>
      </trkpt>
      <trkpt lat="49.66152" lon="4.72623">
        <ele>234</ele>
        <time>2022-04-03T08:53:46.000Z</time>
      </trkpt>
      <trkpt lat="49.6615" lon="4.72623">
        <ele>234</ele>
        <time>2022-04-03T08:53:47.000Z</time>
      </trkpt>
      <trkpt lat="49.66147" lon="4.72624">
        <ele>234</ele>
        <time>2022-04-03T08:53:48.000Z</time>
      </trkpt>
      <trkpt lat="49.66145" lon="4.72625">
        <ele>234</ele>
        <time>2022-04-03T08:53:49.000Z</time>
      </trkpt>
      <trkpt lat="49.66142" lon="4.72626">
        <ele>233</ele>
        <time>2022-04-03T08:53:50.000Z</time>
      </trkpt>
      <trkpt lat="49.6614" lon="4.72627">
        <ele>233</ele>
        <time>2022-04-03T08:53:51.000Z</time>
      </trkpt>
      <trkpt lat="49.66138" lon="4.7263">
        <ele>233</ele>
        <time>2022-04-03T08:53:52.000Z</time>
      </trkpt>
      <trkpt lat="49.66136" lon="4.72633">
        <ele>233</ele>
        <time>2022-04-03T08:53:53.000Z</time>
      </trkpt>
      <trkpt lat="49.66135" lon="4.72636">
        <ele>233</ele>
        <time>2022-04-03T08:53:54.000Z</time>
      </trkpt>
      <trkpt lat="49.66134" lon="4.72639">
        <ele>233</ele>
        <time>2022-04-03T08:53:55.000Z</time>
      </trkpt>
      <trkpt lat="49.66133" lon="4.72643">
        <ele>233</ele>
        <time>2022-04-03T08:53:56.000Z</time>
      </trkpt>
      <trkpt lat="49.66133" lon="4.72647">
        <ele>233</ele>
        <time>2022-04-03T08:53:57.000Z</time>
      </trkpt>
      <trkpt lat="49.66133" lon="4.72652">
        <ele>233</ele>
        <time>2022-04-03T08:53:58.000Z</time>
      </trkpt>
      <trkpt lat="49.66133" lon="4.72656">
        <ele>233</ele>
        <time>2022-04-03T08:53:59.000Z</time>
      </trkpt>
      <trkpt lat="49.66133" lon="4.7266">
        <ele>233</ele>
        <time>2022-04-03T08:54:00.000Z</time>
      </trkpt>
      <trkpt lat="49.66133" lon="4.72664">
        <ele>233</ele>
        <time>2022-04-03T08:54:01.000Z</time>
      </trkpt>
      <trkpt lat="49.66133" lon="4.72667">
        <ele>233</ele>
        <time>2022-04-03T08:54:02.000Z</time>
      </trkpt>
      <trkpt lat="49.66133" lon="4.7267">
        <ele>233</ele>
        <time>2022-04-03T08:54:03.000Z</time>
      </trkpt>
      <trkpt lat="49.66133" lon="4.72673">
        <ele>233</ele>
        <time>2022-04-03T08:54:04.000Z</time>
      </trkpt>
      <trkpt lat="49.66133" lon="4.72676">
        <ele>234</ele>
        <time>2022-04-03T08:54:05.000Z</time>
      </trkpt>
      <trkpt lat="49.66134" lon="4.72679">
        <ele>234</ele>
        <time>2022-04-03T08:54:06.000Z</time>
      </trkpt>
      <trkpt lat="49.66135" lon="4.72682">
        <ele>234</ele>
        <time>2022-04-03T08:54:07.000Z</time>
      </trkpt>
      <trkpt lat="49.66135" lon="4.72686">
        <ele>234</ele>
        <time>2022-04-03T08:54:08.000Z</time>
      </trkpt>
      <trkpt lat="49.66136" lon="4.72689">
        <ele>234</ele>
        <time>2022-04-03T08:54:09.000Z</time>
      </trkpt>
      <trkpt lat="49.66136" lon="4.72693">
        <ele>234</ele>
        <time>2022-04-03T08:54:10.000Z</time>
      </trkpt>
      <trkpt lat="49.66137" lon="4.72697">
        <ele>234</ele>
        <time>2022-04-03T08:54:11.000Z</time>
      </trkpt>
      <trkpt lat="49.66138" lon="4.72701">
        <ele>234</ele>
        <time>2022-04-03T08:54:12.000Z</time>
      </trkpt>
      <trkpt lat="49.66139" lon="4.72706">
        <ele>234</ele>
        <time>2022-04-03T08:54:13.000Z</time>
      </trkpt>
      <trkpt lat="49.66139" lon="4.7271">
        <ele>234</ele>
        <time>2022-04-03T08:54:14.000Z</time>
      </trkpt>
      <trkpt lat="49.6614" lon="4.72714">
        <ele>234</ele>
        <time>2022-04-03T08:54:15.000Z</time>
      </trkpt>
      <trkpt lat="49.6614" lon="4.72718">
        <ele>234</ele>
        <time>2022-04-03T08:54:16.000Z</time>
      </trkpt>
      <trkpt lat="49.66141" lon="4.72721">
        <ele>234</ele>
        <time>2022-04-03T08:54:17.000Z</time>
      </trkpt>
      <trkpt lat="49.66142" lon="4.72724">
        <ele>234</ele>
        <time>2022-04-03T08:54:18.000Z</time>
      </trkpt>
      <trkpt lat="49.66143" lon="4.72728">
        <ele>234</ele>
        <time>2022-04-03T08:54:19.000Z</time>
      </trkpt>
      <trkpt lat="49.66144" lon="4.72732">
        <ele>234</ele>
        <time>2022-04-03T08:54:20.000Z</time>
      </trkpt>
      <trkpt lat="49.66145" lon="4.72735">
        <ele>234</ele>
        <time>2022-04-03T08:54:21.000Z</time>
      </trkpt>
      <trkpt lat="49.66146" lon="4.72739">
        <ele>234</ele>
        <time>2022-04-03T08:54:22.000Z</time>
      </trkpt>
      <trkpt lat="49.66146" lon="4.72743">
        <ele>234</ele>
        <time>2022-04-03T08:54:23.000Z</time>
      </trkpt>
      <trkpt lat="49.66147" lon="4.72746">
        <ele>234</ele>
        <time>2022-04-03T08:54:24.000Z</time>
      </trkpt>
      <trkpt lat="49.66148" lon="4.7275">
        <ele>235</ele>
        <time>2022-04-03T08:54:25.000Z</time>
      </trkpt>
      <trkpt lat="49.66148" lon="4.72753">
        <ele>235</ele>
        <time>2022-04-03T08:54:26.000Z</time>
      </trkpt>
      <trkpt lat="49.66149" lon="4.72757">
        <ele>235</ele>
        <time>2022-04-03T08:54:27.000Z</time>
      </trkpt>
      <trkpt lat="49.6615" lon="4.72761">
        <ele>235</ele>
        <time>2022-04-03T08:54:28.000Z</time>
      </trkpt>
      <trkpt lat="49.66151" lon="4.72765">
        <ele>235</ele>
        <time>2022-04-03T08:54:29.000Z</time>
      </trkpt>
      <trkpt lat="49.66152" lon="4.72769">
        <ele>235</ele>
        <time>2022-04-03T08:54:30.000Z</time>
      </trkpt>
      <trkpt lat="49.66153" lon="4.72773">
        <ele>235</ele>
        <time>2022-04-03T08:54:31.000Z</time>
      </trkpt>
      <trkpt lat="49.66154" lon="4.72777">
        <ele>235</ele>
        <time>2022-04-03T08:54:32.000Z</time>
      </trkpt>
      <trkpt lat="49.66154" lon="4.72781">
        <ele>235</ele>
        <time>2022-04-03T08:54:33.000Z</time>
      </trkpt>
      <trkpt lat="49.66155" lon="4.72785">
        <ele>236</ele>
        <time>2022-04-03T08:54:34.000Z</time>
      </trkpt>
      <trkpt lat="49.66156" lon="4.72789">
        <ele>236</ele>
        <time>2022-04-03T08:54:35.000Z</time>
      </trkpt>
      <trkpt lat="49.66156" lon="4.72793">
        <ele>236</ele>
        <time>2022-04-03T08:54:36.000Z</time>
      </trkpt>
      <trkpt lat="49.66157" lon="4.72798">
        <ele>236</ele>
        <time>2022-04-03T08:54:37.000Z</time>
      </trkpt>
      <trkpt lat="49.66158" lon="4.72802">
        <ele>236</ele>
        <time>2022-04-03T08:54:38.000Z</time>
      </trkpt>
      <trkpt lat="49.66159" lon="4.72806">
        <ele>236</ele>
        <time>2022-04-03T08:54:39.000Z</time>
      </trkpt>
      <trkpt lat="49.66159" lon="4.7281">
        <ele>236</ele>
        <time>2022-04-03T08:54:40.000Z</time>
      </trkpt>
      <trkpt lat="49.6616" lon="4.72814">
        <ele>236</ele>
        <time>2022-04-03T08:54:41.000Z</time>
      </trkpt>
      <trkpt lat="49.6616" lon="4.72819">
        <ele>236</ele>
        <time>2022-04-03T08:54:42.000Z</time>
      </trkpt>
      <trkpt lat="49.66161" lon="4.72823">
        <ele>236</ele>
        <time>2022-04-03T08:54:43.000Z</time>
      </trkpt>
      <trkpt lat="49.66161" lon="4.72827">
        <ele>236</ele>
        <time>2022-04-03T08:54:44.000Z</time>
      </trkpt>
      <trkpt lat="49.66161" lon="4.72831">
        <ele>237</ele>
        <time>2022-04-03T08:54:45.000Z</time>
      </trkpt>
      <trkpt lat="49.66161" lon="4.72835">
        <ele>237</ele>
        <time>2022-04-03T08:54:46.000Z</time>
      </trkpt>
      <trkpt lat="49.66161" lon="4.72839">
        <ele>237</ele>
        <time>2022-04-03T08:54:47.000Z</time>
      </trkpt>
      <trkpt lat="49.66162" lon="4.72843">
        <ele>237</ele>
        <time>2022-04-03T08:54:48.000Z</time>
      </trkpt>
      <trkpt lat="49.66162" lon="4.72847">
        <ele>237</ele>
        <time>2022-04-03T08:54:49.000Z</time>
      </trkpt>
      <trkpt lat="49.66162" lon="4.7285">
        <ele>237</ele>
        <time>2022-04-03T08:54:50.000Z</time>
      </trkpt>
      <trkpt lat="49.66163" lon="4.72854">
        <ele>237</ele>
        <time>2022-04-03T08:54:51.000Z</time>
      </trkpt>
      <trkpt lat="49.66163" lon="4.72859">
        <ele>237</ele>
        <time>2022-04-03T08:54:52.000Z</time>
      </trkpt>
      <trkpt lat="49.66163" lon="4.72863">
        <ele>237</ele>
        <time>2022-04-03T08:54:53.000Z</time>
      </trkpt>
      <trkpt lat="49.66163" lon="4.72867">
        <ele>238</ele>
        <time>2022-04-03T08:54:54.000Z</time>
      </trkpt>
      <trkpt lat="49.66163" lon="4.72871">
        <ele>238</ele>
        <time>2022-04-03T08:54:55.000Z</time>
      </trkpt>
      <trkpt lat="49.66163" lon="4.72874">
        <ele>238</ele>
        <time>2022-04-03T08:54:56.000Z</time>
      </trkpt>
      <trkpt lat="49.66163" lon="4.72878">
        <ele>238</ele>
        <time>2022-04-03T08:54:57.000Z</time>
      </trkpt>
      <trkpt lat="49.66163" lon="4.7288">
        <ele>238</ele>
        <time>2022-04-03T08:54:58.000Z</time>
      </trkpt>
      <trkpt lat="49.66163" lon="4.72883">
        <ele>238</ele>
        <time>2022-04-03T08:54:59.000Z</time>
      </trkpt>
      <trkpt lat="49.66163" lon="4.72885">
        <ele>238</ele>
        <time>2022-04-03T08:55:00.000Z</time>
      </trkpt>
      <trkpt lat="49.66162" lon="4.72887">
        <ele>239</ele>
        <time>2022-04-03T08:55:01.000Z</time>
      </trkpt>
      <trkpt lat="49.66161" lon="4.72889">
        <ele>239</ele>
        <time>2022-04-03T08:55:02.000Z</time>
      </trkpt>
      <trkpt lat="49.66161" lon="4.7289">
        <ele>239</ele>
        <time>2022-04-03T08:55:03.000Z</time>
      </trkpt>
      <trkpt lat="49.66161" lon="4.72891">
        <ele>239</ele>
        <time>2022-04-03T08:55:04.000Z</time>
      </trkpt>
      <trkpt lat="49.66161" lon="4.72893">
        <ele>239</ele>
        <time>2022-04-03T08:55:05.000Z</time>
      </trkpt>
      <trkpt lat="49.66161" lon="4.72894">
        <ele>240</ele>
        <time>2022-04-03T08:55:06.000Z</time>
      </trkpt>
      <trkpt lat="49.66161" lon="4.72896">
        <ele>240</ele>
        <time>2022-04-03T08:55:07.000Z</time>
      </trkpt>
      <trkpt lat="49.66161" lon="4.72897">
        <ele>240</ele>
        <time>2022-04-03T08:55:08.000Z</time>
      </trkpt>
      <trkpt lat="49.6616" lon="4.72898">
        <ele>240</ele>
        <time>2022-04-03T08:55:09.000Z</time>
      </trkpt>
      <trkpt lat="49.6616" lon="4.72898">
        <ele>240</ele>
        <time>2022-04-03T08:55:10.000Z</time>
      </trkpt>
      <trkpt lat="49.6616" lon="4.72898">
        <ele>240</ele>
        <time>2022-04-03T08:55:11.000Z</time>
      </trkpt>
      <trkpt lat="49.6616" lon="4.72898">
        <ele>241</ele>
        <time>2022-04-03T08:55:12.000Z</time>
      </trkpt>
      <trkpt lat="49.6616" lon="4.72898">
        <ele>241</ele>
        <time>2022-04-03T08:55:13.000Z</time>
      </trkpt>
      <trkpt lat="49.6616" lon="4.72897">
        <ele>241</ele>
        <time>2022-04-03T08:55:14.000Z</time>
      </trkpt>
      <trkpt lat="49.6616" lon="4.72895">
        <ele>241</ele>
        <time>2022-04-03T08:55:15.000Z</time>
      </trkpt>
      <trkpt lat="49.6616" lon="4.72892">
        <ele>241</ele>
        <time>2022-04-03T08:55:16.000Z</time>
      </trkpt>
      <trkpt lat="49.6616" lon="4.72889">
        <ele>241</ele>
        <time>2022-04-03T08:55:17.000Z</time>
      </trkpt>
      <trkpt lat="49.66159" lon="4.72886">
        <ele>241</ele>
        <time>2022-04-03T08:55:18.000Z</time>
      </trkpt>
      <trkpt lat="49.66159" lon="4.72882">
        <ele>241</ele>
        <time>2022-04-03T08:55:19.000Z</time>
      </trkpt>
      <trkpt lat="49.66159" lon="4.72878">
        <ele>241</ele>
        <time>2022-04-03T08:55:20.000Z</time>
      </trkpt>
      <trkpt lat="49.66159" lon="4.72874">
        <ele>241</ele>
        <time>2022-04-03T08:55:21.000Z</time>
      </trkpt>
      <trkpt lat="49.66159" lon="4.72869">
        <ele>241</ele>
        <time>2022-04-03T08:55:22.000Z</time>
      </trkpt>
      <trkpt lat="49.66159" lon="4.72864">
        <ele>241</ele>
        <time>2022-04-03T08:55:23.000Z</time>
      </trkpt>
      <trkpt lat="49.66158" lon="4.72858">
        <ele>241</ele>
        <time>2022-04-03T08:55:24.000Z</time>
      </trkpt>
      <trkpt lat="49.66157" lon="4.72852">
        <ele>241</ele>
        <time>2022-04-03T08:55:25.000Z</time>
      </trkpt>
      <trkpt lat="49.66157" lon="4.72847">
        <ele>241</ele>
        <time>2022-04-03T08:55:26.000Z</time>
      </trkpt>
      <trkpt lat="49.66156" lon="4.72842">
        <ele>241</ele>
        <time>2022-04-03T08:55:27.000Z</time>
      </trkpt>
      <trkpt lat="49.66156" lon="4.72838">
        <ele>241</ele>
        <time>2022-04-03T08:55:28.000Z</time>
      </trkpt>
      <trkpt lat="49.66156" lon="4.72834">
        <ele>241</ele>
        <time>2022-04-03T08:55:29.000Z</time>
      </trkpt>
      <trkpt lat="49.66155" lon="4.7283">
        <ele>241</ele>
        <time>2022-04-03T08:55:30.000Z</time>
      </trkpt>
      <trkpt lat="49.66154" lon="4.72826">
        <ele>241</ele>
        <time>2022-04-03T08:55:31.000Z</time>
      </trkpt>
      <trkpt lat="49.66154" lon="4.72822">
        <ele>241</ele>
        <time>2022-04-03T08:55:32.000Z</time>
      </trkpt>
      <trkpt lat="49.66153" lon="4.72817">
        <ele>241</ele>
        <time>2022-04-03T08:55:33.000Z</time>
      </trkpt>
      <trkpt lat="49.66153" lon="4.72812">
        <ele>241</ele>
        <time>2022-04-03T08:55:34.000Z</time>
      </trkpt>
      <trkpt lat="49.66152" lon="4.72807">
        <ele>241</ele>
        <time>2022-04-03T08:55:35.000Z</time>
      </trkpt>
      <trkpt lat="49.66151" lon="4.72801">
        <ele>241</ele>
        <time>2022-04-03T08:55:36.000Z</time>
      </trkpt>
      <trkpt lat="49.6615" lon="4.72796">
        <ele>241</ele>
        <time>2022-04-03T08:55:37.000Z</time>
      </trkpt>
      <trkpt lat="49.66149" lon="4.7279">
        <ele>240</ele>
        <time>2022-04-03T08:55:38.000Z</time>
      </trkpt>
      <trkpt lat="49.66148" lon="4.72785">
        <ele>240</ele>
        <time>2022-04-03T08:55:39.000Z</time>
      </trkpt>
      <trkpt lat="49.66147" lon="4.72779">
        <ele>240</ele>
        <time>2022-04-03T08:55:40.000Z</time>
      </trkpt>
      <trkpt lat="49.66146" lon="4.72774">
        <ele>240</ele>
        <time>2022-04-03T08:55:41.000Z</time>
      </trkpt>
      <trkpt lat="49.66145" lon="4.72769">
        <ele>240</ele>
        <time>2022-04-03T08:55:42.000Z</time>
      </trkpt>
      <trkpt lat="49.66144" lon="4.72765">
        <ele>239</ele>
        <time>2022-04-03T08:55:43.000Z</time>
      </trkpt>
      <trkpt lat="49.66144" lon="4.72761">
        <ele>239</ele>
        <time>2022-04-03T08:55:44.000Z</time>
      </trkpt>
      <trkpt lat="49.66143" lon="4.72759">
        <ele>239</ele>
        <time>2022-04-03T08:55:45.000Z</time>
      </trkpt>
      <trkpt lat="49.66143" lon="4.72759">
        <ele>239</ele>
        <time>2022-04-03T08:55:46.000Z</time>
      </trkpt>
      <trkpt lat="49.66143" lon="4.72759">
        <ele>239</ele>
        <time>2022-04-03T08:55:47.000Z</time>
      </trkpt>
      <trkpt lat="49.66143" lon="4.7276">
        <ele>239</ele>
        <time>2022-04-03T08:55:48.000Z</time>
      </trkpt>
      <trkpt lat="49.66143" lon="4.72761">
        <ele>239</ele>
        <time>2022-04-03T08:55:49.000Z</time>
      </trkpt>
      <trkpt lat="49.66143" lon="4.72761">
        <ele>238</ele>
        <time>2022-04-03T08:55:50.000Z</time>
      </trkpt>
      <trkpt lat="49.66143" lon="4.72761">
        <ele>238</ele>
        <time>2022-04-03T08:55:51.000Z</time>
      </trkpt>
      <trkpt lat="49.66143" lon="4.72762">
        <ele>238</ele>
        <time>2022-04-03T08:55:52.000Z</time>
      </trkpt>
      <trkpt lat="49.66143" lon="4.72763">
        <ele>238</ele>
        <time>2022-04-03T08:55:53.000Z</time>
      </trkpt>
      <trkpt lat="49.66144" lon="4.72766">
        <ele>238</ele>
        <time>2022-04-03T08:55:54.000Z</time>
      </trkpt>
      <trkpt lat="49.66145" lon="4.7277">
        <ele>238</ele>
        <time>2022-04-03T08:55:55.000Z</time>
      </trkpt>
      <trkpt lat="49.66146" lon="4.72775">
        <ele>237</ele>
        <time>2022-04-03T08:55:56.000Z</time>
      </trkpt>
      <trkpt lat="49.66147" lon="4.72778">
        <ele>237</ele>
        <time>2022-04-03T08:55:57.000Z</time>
      </trkpt>
      <trkpt lat="49.66148" lon="4.72783">
        <ele>237</ele>
        <time>2022-04-03T08:55:58.000Z</time>
      </trkpt>
      <trkpt lat="49.66149" lon="4.72788">
        <ele>237</ele>
        <time>2022-04-03T08:55:59.000Z</time>
      </trkpt>
      <trkpt lat="49.6615" lon="4.72792">
        <ele>237</ele>
        <time>2022-04-03T08:56:00.000Z</time>
      </trkpt>
      <trkpt lat="49.66151" lon="4.72797">
        <ele>237</ele>
        <time>2022-04-03T08:56:01.000Z</time>
      </trkpt>
      <trkpt lat="49.66152" lon="4.72802">
        <ele>237</ele>
        <time>2022-04-03T08:56:02.000Z</time>
      </trkpt>
      <trkpt lat="49.66152" lon="4.72808">
        <ele>237</ele>
        <time>2022-04-03T08:56:03.000Z</time>
      </trkpt>
      <trkpt lat="49.66153" lon="4.72813">
        <ele>237</ele>
        <time>2022-04-03T08:56:04.000Z</time>
      </trkpt>
      <trkpt lat="49.66154" lon="4.72817">
        <ele>237</ele>
        <time>2022-04-03T08:56:05.000Z</time>
      </trkpt>
      <trkpt lat="49.66155" lon="4.72822">
        <ele>237</ele>
        <time>2022-04-03T08:56:06.000Z</time>
      </trkpt>
      <trkpt lat="49.66155" lon="4.72827">
        <ele>237</ele>
        <time>2022-04-03T08:56:07.000Z</time>
      </trkpt>
      <trkpt lat="49.66156" lon="4.72831">
        <ele>237</ele>
        <time>2022-04-03T08:56:08.000Z</time>
      </trkpt>
      <trkpt lat="49.66156" lon="4.72834">
        <ele>237</ele>
        <time>2022-04-03T08:56:09.000Z</time>
      </trkpt>
      <trkpt lat="49.66157" lon="4.72838">
        <ele>236</ele>
        <time>2022-04-03T08:56:10.000Z</time>
      </trkpt>
      <trkpt lat="49.66157" lon="4.72842">
        <ele>236</ele>
        <time>2022-04-03T08:56:11.000Z</time>
      </trkpt>
      <trkpt lat="49.66157" lon="4.72846">
        <ele>236</ele>
        <time>2022-04-03T08:56:12.000Z</time>
      </trkpt>
      <trkpt lat="49.66158" lon="4.7285">
        <ele>236</ele>
        <time>2022-04-03T08:56:13.000Z</time>
      </trkpt>
      <trkpt lat="49.66159" lon="4.72854">
        <ele>236</ele>
        <time>2022-04-03T08:56:14.000Z</time>
      </trkpt>
      <trkpt lat="49.66159" lon="4.72858">
        <ele>236</ele>
        <time>2022-04-03T08:56:15.000Z</time>
      </trkpt>
      <trkpt lat="49.66159" lon="4.72862">
        <ele>236</ele>
        <time>2022-04-03T08:56:16.000Z</time>
      </trkpt>
      <trkpt lat="49.6616" lon="4.72867">
        <ele>236</ele>
        <time>2022-04-03T08:56:17.000Z</time>
      </trkpt>
      <trkpt lat="49.6616" lon="4.72871">
        <ele>236</ele>
        <time>2022-04-03T08:56:18.000Z</time>
      </trkpt>
      <trkpt lat="49.6616" lon="4.72875">
        <ele>236</ele>
        <time>2022-04-03T08:56:19.000Z</time>
      </trkpt>
      <trkpt lat="49.6616" lon="4.72879">
        <ele>236</ele>
        <time>2022-04-03T08:56:20.000Z</time>
      </trkpt>
      <trkpt lat="49.6616" lon="4.72883">
        <ele>236</ele>
        <time>2022-04-03T08:56:21.000Z</time>
      </trkpt>
      <trkpt lat="49.6616" lon="4.72887">
        <ele>236</ele>
        <time>2022-04-03T08:56:22.000Z</time>
      </trkpt>
      <trkpt lat="49.66161" lon="4.72892">
        <ele>236</ele>
        <time>2022-04-03T08:56:23.000Z</time>
      </trkpt>
      <trkpt lat="49.66161" lon="4.72896">
        <ele>236</ele>
        <time>2022-04-03T08:56:24.000Z</time>
      </trkpt>
      <trkpt lat="49.66162" lon="4.729">
        <ele>236</ele>
        <time>2022-04-03T08:56:25.000Z</time>
      </trkpt>
      <trkpt lat="49.66162" lon="4.72904">
        <ele>236</ele>
        <time>2022-04-03T08:56:26.000Z</time>
      </trkpt>
      <trkpt lat="49.66163" lon="4.72908">
        <ele>236</ele>
        <time>2022-04-03T08:56:27.000Z</time>
      </trkpt>
      <trkpt lat="49.66163" lon="4.72912">
        <ele>236</ele>
        <time>2022-04-03T08:56:28.000Z</time>
      </trkpt>
      <trkpt lat="49.66164" lon="4.72915">
        <ele>236</ele>
        <time>2022-04-03T08:56:29.000Z</time>
      </trkpt>
      <trkpt lat="49.66165" lon="4.72919">
        <ele>236</ele>
        <time>2022-04-03T08:56:30.000Z</time>
      </trkpt>
      <trkpt lat="49.66166" lon="4.72921">
        <ele>236</ele>
        <time>2022-04-03T08:56:31.000Z</time>
      </trkpt>
      <trkpt lat="49.66168" lon="4.72922">
        <ele>236</ele>
        <time>2022-04-03T08:56:32.000Z</time>
      </trkpt>
      <trkpt lat="49.66171" lon="4.72923">
        <ele>236</ele>
        <time>2022-04-03T08:56:33.000Z</time>
      </trkpt>
      <trkpt lat="49.66174" lon="4.72927">
        <ele>236</ele>
        <time>2022-04-03T08:56:34.000Z</time>
      </trkpt>
      <trkpt lat="49.66178" lon="4.7293">
        <ele>236</ele>
        <time>2022-04-03T08:56:35.000Z</time>
      </trkpt>
      <trkpt lat="49.66182" lon="4.72934">
        <ele>236</ele>
        <time>2022-04-03T08:56:36.000Z</time>
      </trkpt>
      <trkpt lat="49.66186" lon="4.72937">
        <ele>236</ele>
        <time>2022-04-03T08:56:37.000Z</time>
      </trkpt>
      <trkpt lat="49.66191" lon="4.72941">
        <ele>236</ele>
        <time>2022-04-03T08:56:38.000Z</time>
      </trkpt>
      <trkpt lat="49.66195" lon="4.72943">
        <ele>236</ele>
        <time>2022-04-03T08:56:39.000Z</time>
      </trkpt>
      <trkpt lat="49.66199" lon="4.72944">
        <ele>236</ele>
        <time>2022-04-03T08:56:40.000Z</time>
      </trkpt>
      <trkpt lat="49.66203" lon="4.72944">
        <ele>236</ele>
        <time>2022-04-03T08:56:41.000Z</time>
      </trkpt>
      <trkpt lat="49.66208" lon="4.72944">
        <ele>235</ele>
        <time>2022-04-03T08:56:42.000Z</time>
      </trkpt>
      <trkpt lat="49.66212" lon="4.72944">
        <ele>235</ele>
        <time>2022-04-03T08:56:43.000Z</time>
      </trkpt>
      <trkpt lat="49.66217" lon="4.72943">
        <ele>235</ele>
        <time>2022-04-03T08:56:44.000Z</time>
      </trkpt>
      <trkpt lat="49.66222" lon="4.72942">
        <ele>235</ele>
        <time>2022-04-03T08:56:45.000Z</time>
      </trkpt>
      <trkpt lat="49.66227" lon="4.72942">
        <ele>235</ele>
        <time>2022-04-03T08:56:46.000Z</time>
      </trkpt>
      <trkpt lat="49.66232" lon="4.72943">
        <ele>235</ele>
        <time>2022-04-03T08:56:47.000Z</time>
      </trkpt>
      <trkpt lat="49.66236" lon="4.72943">
        <ele>235</ele>
        <time>2022-04-03T08:56:48.000Z</time>
      </trkpt>
      <trkpt lat="49.6624" lon="4.72942">
        <ele>235</ele>
        <time>2022-04-03T08:56:49.000Z</time>
      </trkpt>
      <trkpt lat="49.66245" lon="4.72939">
        <ele>235</ele>
        <time>2022-04-03T08:56:50.000Z</time>
      </trkpt>
      <trkpt lat="49.6625" lon="4.72932">
        <ele>235</ele>
        <time>2022-04-03T08:56:51.000Z</time>
      </trkpt>
      <trkpt lat="49.66256" lon="4.72926">
        <ele>235</ele>
        <time>2022-04-03T08:56:52.000Z</time>
      </trkpt>
      <trkpt lat="49.66262" lon="4.72919">
        <ele>235</ele>
        <time>2022-04-03T08:56:53.000Z</time>
      </trkpt>
      <trkpt lat="49.66268" lon="4.72911">
        <ele>235</ele>
        <time>2022-04-03T08:56:54.000Z</time>
      </trkpt>
      <trkpt lat="49.66274" lon="4.72904">
        <ele>234</ele>
        <time>2022-04-03T08:56:55.000Z</time>
      </trkpt>
      <trkpt lat="49.6628" lon="4.72896">
        <ele>234</ele>
        <time>2022-04-03T08:56:56.000Z</time>
      </trkpt>
      <trkpt lat="49.66286" lon="4.72887">
        <ele>234</ele>
        <time>2022-04-03T08:56:57.000Z</time>
      </trkpt>
      <trkpt lat="49.66293" lon="4.72878">
        <ele>234</ele>
        <time>2022-04-03T08:56:58.000Z</time>
      </trkpt>
      <trkpt lat="49.66299" lon="4.72869">
        <ele>233</ele>
        <time>2022-04-03T08:56:59.000Z</time>
      </trkpt>
      <trkpt lat="49.66306" lon="4.7286">
        <ele>233</ele>
        <time>2022-04-03T08:57:00.000Z</time>
      </trkpt>
      <trkpt lat="49.66313" lon="4.72851">
        <ele>232</ele>
        <time>2022-04-03T08:57:01.000Z</time>
      </trkpt>
      <trkpt lat="49.66319" lon="4.72842">
        <ele>232</ele>
        <time>2022-04-03T08:57:02.000Z</time>
      </trkpt>
      <trkpt lat="49.66325" lon="4.72834">
        <ele>231</ele>
        <time>2022-04-03T08:57:03.000Z</time>
      </trkpt>
      <trkpt lat="49.6633" lon="4.72827">
        <ele>231</ele>
        <time>2022-04-03T08:57:04.000Z</time>
      </trkpt>
      <trkpt lat="49.66334" lon="4.7282">
        <ele>230</ele>
        <time>2022-04-03T08:57:05.000Z</time>
      </trkpt>
      <trkpt lat="49.66339" lon="4.72812">
        <ele>230</ele>
        <time>2022-04-03T08:57:06.000Z</time>
      </trkpt>
      <trkpt lat="49.66344" lon="4.72804">
        <ele>229</ele>
        <time>2022-04-03T08:57:07.000Z</time>
      </trkpt>
      <trkpt lat="49.66349" lon="4.72796">
        <ele>228</ele>
        <time>2022-04-03T08:57:08.000Z</time>
      </trkpt>
      <trkpt lat="49.66354" lon="4.72788">
        <ele>228</ele>
        <time>2022-04-03T08:57:09.000Z</time>
      </trkpt>
      <trkpt lat="49.66359" lon="4.72781">
        <ele>227</ele>
        <time>2022-04-03T08:57:10.000Z</time>
      </trkpt>
      <trkpt lat="49.66363" lon="4.72774">
        <ele>227</ele>
        <time>2022-04-03T08:57:11.000Z</time>
      </trkpt>
      <trkpt lat="49.66367" lon="4.72767">
        <ele>226</ele>
        <time>2022-04-03T08:57:12.000Z</time>
      </trkpt>
      <trkpt lat="49.66371" lon="4.72761">
        <ele>226</ele>
        <time>2022-04-03T08:57:13.000Z</time>
      </trkpt>
      <trkpt lat="49.66374" lon="4.72755">
        <ele>225</ele>
        <time>2022-04-03T08:57:14.000Z</time>
      </trkpt>
      <trkpt lat="49.66378" lon="4.72749">
        <ele>225</ele>
        <time>2022-04-03T08:57:15.000Z</time>
      </trkpt>
      <trkpt lat="49.66382" lon="4.72742">
        <ele>224</ele>
        <time>2022-04-03T08:57:16.000Z</time>
      </trkpt>
      <trkpt lat="49.66386" lon="4.72736">
        <ele>224</ele>
        <time>2022-04-03T08:57:17.000Z</time>
      </trkpt>
      <trkpt lat="49.6639" lon="4.72729">
        <ele>223</ele>
        <time>2022-04-03T08:57:18.000Z</time>
      </trkpt>
      <trkpt lat="49.66395" lon="4.72722">
        <ele>223</ele>
        <time>2022-04-03T08:57:19.000Z</time>
      </trkpt>
      <trkpt lat="49.664" lon="4.72713">
        <ele>222</ele>
        <time>2022-04-03T08:57:20.000Z</time>
      </trkpt>
      <trkpt lat="49.66405" lon="4.72706">
        <ele>222</ele>
        <time>2022-04-03T08:57:21.000Z</time>
      </trkpt>
      <trkpt lat="49.6641" lon="4.72699">
        <ele>221</ele>
        <time>2022-04-03T08:57:22.000Z</time>
      </trkpt>
      <trkpt lat="49.66413" lon="4.72693">
        <ele>221</ele>
        <time>2022-04-03T08:57:23.000Z</time>
      </trkpt>
      <trkpt lat="49.66417" lon="4.72687">
        <ele>220</ele>
        <time>2022-04-03T08:57:24.000Z</time>
      </trkpt>
      <trkpt lat="49.66421" lon="4.72683">
        <ele>220</ele>
        <time>2022-04-03T08:57:25.000Z</time>
      </trkpt>
      <trkpt lat="49.66425" lon="4.7268">
        <ele>220</ele>
        <time>2022-04-03T08:57:26.000Z</time>
      </trkpt>
      <trkpt lat="49.66429" lon="4.72679">
        <ele>219</ele>
        <time>2022-04-03T08:57:27.000Z</time>
      </trkpt>
      <trkpt lat="49.66434" lon="4.72678">
        <ele>219</ele>
        <time>2022-04-03T08:57:28.000Z</time>
      </trkpt>
      <trkpt lat="49.66438" lon="4.72677">
        <ele>219</ele>
        <time>2022-04-03T08:57:29.000Z</time>
      </trkpt>
      <trkpt lat="49.66443" lon="4.72676">
        <ele>219</ele>
        <time>2022-04-03T08:57:30.000Z</time>
      </trkpt>
      <trkpt lat="49.66448" lon="4.72674">
        <ele>219</ele>
        <time>2022-04-03T08:57:31.000Z</time>
      </trkpt>
      <trkpt lat="49.66453" lon="4.72673">
        <ele>218</ele>
        <time>2022-04-03T08:57:32.000Z</time>
      </trkpt>
      <trkpt lat="49.66459" lon="4.72671">
        <ele>218</ele>
        <time>2022-04-03T08:57:33.000Z</time>
      </trkpt>
      <trkpt lat="49.66464" lon="4.7267">
        <ele>218</ele>
        <time>2022-04-03T08:57:34.000Z</time>
      </trkpt>
      <trkpt lat="49.66469" lon="4.72668">
        <ele>217</ele>
        <time>2022-04-03T08:57:35.000Z</time>
      </trkpt>
      <trkpt lat="49.66472" lon="4.72667">
        <ele>217</ele>
        <time>2022-04-03T08:57:36.000Z</time>
      </trkpt>
      <trkpt lat="49.66473" lon="4.72667">
        <ele>216</ele>
        <time>2022-04-03T08:57:37.000Z</time>
      </trkpt>
      <trkpt lat="49.66474" lon="4.72668">
        <ele>216</ele>
        <time>2022-04-03T08:57:38.000Z</time>
      </trkpt>
      <trkpt lat="49.66475" lon="4.72668">
        <ele>216</ele>
        <time>2022-04-03T08:57:39.000Z</time>
      </trkpt>
      <trkpt lat="49.66475" lon="4.72668">
        <ele>215</ele>
        <time>2022-04-03T08:57:40.000Z</time>
      </trkpt>
      <trkpt lat="49.66475" lon="4.72668">
        <ele>215</ele>
        <time>2022-04-03T08:57:41.000Z</time>
      </trkpt>
      <trkpt lat="49.66475" lon="4.72668">
        <ele>215</ele>
        <time>2022-04-03T08:57:42.000Z</time>
      </trkpt>
      <trkpt lat="49.66475" lon="4.72668">
        <ele>215</ele>
        <time>2022-04-03T08:57:43.000Z</time>
      </trkpt>
      <trkpt lat="49.66476" lon="4.72667">
        <ele>215</ele>
        <time>2022-04-03T08:57:44.000Z</time>
      </trkpt>
      <trkpt lat="49.66477" lon="4.72667">
        <ele>214</ele>
        <time>2022-04-03T08:57:45.000Z</time>
      </trkpt>
      <trkpt lat="49.66479" lon="4.72666">
        <ele>214</ele>
        <time>2022-04-03T08:57:46.000Z</time>
      </trkpt>
      <trkpt lat="49.66482" lon="4.72664">
        <ele>214</ele>
        <time>2022-04-03T08:57:47.000Z</time>
      </trkpt>
      <trkpt lat="49.66484" lon="4.72663">
        <ele>213</ele>
        <time>2022-04-03T08:57:48.000Z</time>
      </trkpt>
      <trkpt lat="49.66487" lon="4.72662">
        <ele>213</ele>
        <time>2022-04-03T08:57:49.000Z</time>
      </trkpt>
      <trkpt lat="49.66489" lon="4.7266">
        <ele>213</ele>
        <time>2022-04-03T08:57:50.000Z</time>
      </trkpt>
      <trkpt lat="49.66492" lon="4.72659">
        <ele>212</ele>
        <time>2022-04-03T08:57:51.000Z</time>
      </trkpt>
      <trkpt lat="49.66495" lon="4.72656">
        <ele>212</ele>
        <time>2022-04-03T08:57:52.000Z</time>
      </trkpt>
      <trkpt lat="49.66497" lon="4.72655">
        <ele>212</ele>
        <time>2022-04-03T08:57:53.000Z</time>
      </trkpt>
      <trkpt lat="49.66499" lon="4.72654">
        <ele>211</ele>
        <time>2022-04-03T08:57:54.000Z</time>
      </trkpt>
      <trkpt lat="49.66499" lon="4.72653">
        <ele>211</ele>
        <time>2022-04-03T08:57:55.000Z</time>
      </trkpt>
      <trkpt lat="49.66499" lon="4.72653">
        <ele>211</ele>
        <time>2022-04-03T08:57:56.000Z</time>
      </trkpt>
      <trkpt lat="49.66499" lon="4.72653">
        <ele>210</ele>
        <time>2022-04-03T08:57:57.000Z</time>
      </trkpt>
      <trkpt lat="49.66499" lon="4.72653">
        <ele>210</ele>
        <time>2022-04-03T08:57:58.000Z</time>
      </trkpt>
      <trkpt lat="49.66499" lon="4.72654">
        <ele>210</ele>
        <time>2022-04-03T08:57:59.000Z</time>
      </trkpt>
      <trkpt lat="49.665" lon="4.72653">
        <ele>210</ele>
        <time>2022-04-03T08:58:00.000Z</time>
      </trkpt>
      <trkpt lat="49.66501" lon="4.72653">
        <ele>210</ele>
        <time>2022-04-03T08:58:01.000Z</time>
      </trkpt>
      <trkpt lat="49.66502" lon="4.72652">
        <ele>209</ele>
        <time>2022-04-03T08:58:02.000Z</time>
      </trkpt>
      <trkpt lat="49.66504" lon="4.72651">
        <ele>209</ele>
        <time>2022-04-03T08:58:03.000Z</time>
      </trkpt>
      <trkpt lat="49.66507" lon="4.72649">
        <ele>209</ele>
        <time>2022-04-03T08:58:04.000Z</time>
      </trkpt>
      <trkpt lat="49.6651" lon="4.72646">
        <ele>209</ele>
        <time>2022-04-03T08:58:05.000Z</time>
      </trkpt>
      <trkpt lat="49.66514" lon="4.72644">
        <ele>208</ele>
        <time>2022-04-03T08:58:06.000Z</time>
      </trkpt>
      <trkpt lat="49.66518" lon="4.72643">
        <ele>208</ele>
        <time>2022-04-03T08:58:07.000Z</time>
      </trkpt>
      <trkpt lat="49.66522" lon="4.72644">
        <ele>208</ele>
        <time>2022-04-03T08:58:08.000Z</time>
      </trkpt>
      <trkpt lat="49.66526" lon="4.72646">
        <ele>208</ele>
        <time>2022-04-03T08:58:09.000Z</time>
      </trkpt>
      <trkpt lat="49.66531" lon="4.72649">
        <ele>207</ele>
        <time>2022-04-03T08:58:10.000Z</time>
      </trkpt>
      <trkpt lat="49.66535" lon="4.72653">
        <ele>207</ele>
        <time>2022-04-03T08:58:11.000Z</time>
      </trkpt>
      <trkpt lat="49.6654" lon="4.72657">
        <ele>207</ele>
        <time>2022-04-03T08:58:12.000Z</time>
      </trkpt>
      <trkpt lat="49.66544" lon="4.72661">
        <ele>207</ele>
        <time>2022-04-03T08:58:13.000Z</time>
      </trkpt>
      <trkpt lat="49.66547" lon="4.72665">
        <ele>207</ele>
        <time>2022-04-03T08:58:14.000Z</time>
      </trkpt>
      <trkpt lat="49.6655" lon="4.72669">
        <ele>207</ele>
        <time>2022-04-03T08:58:15.000Z</time>
      </trkpt>
      <trkpt lat="49.66554" lon="4.72673">
        <ele>207</ele>
        <time>2022-04-03T08:58:16.000Z</time>
      </trkpt>
      <trkpt lat="49.66556" lon="4.72677">
        <ele>207</ele>
        <time>2022-04-03T08:58:17.000Z</time>
      </trkpt>
      <trkpt lat="49.6656" lon="4.72681">
        <ele>207</ele>
        <time>2022-04-03T08:58:18.000Z</time>
      </trkpt>
      <trkpt lat="49.66563" lon="4.72685">
        <ele>207</ele>
        <time>2022-04-03T08:58:19.000Z</time>
      </trkpt>
      <trkpt lat="49.66565" lon="4.72689">
        <ele>207</ele>
        <time>2022-04-03T08:58:20.000Z</time>
      </trkpt>
      <trkpt lat="49.66568" lon="4.72692">
        <ele>207</ele>
        <time>2022-04-03T08:58:21.000Z</time>
      </trkpt>
      <trkpt lat="49.6657" lon="4.72695">
        <ele>207</ele>
        <time>2022-04-03T08:58:22.000Z</time>
      </trkpt>
      <trkpt lat="49.66573" lon="4.72698">
        <ele>207</ele>
        <time>2022-04-03T08:58:23.000Z</time>
      </trkpt>
      <trkpt lat="49.66574" lon="4.72699">
        <ele>207</ele>
        <time>2022-04-03T08:58:24.000Z</time>
      </trkpt>
      <trkpt lat="49.66575" lon="4.727">
        <ele>207</ele>
        <time>2022-04-03T08:58:25.000Z</time>
      </trkpt>
      <trkpt lat="49.66577" lon="4.72702">
        <ele>206</ele>
        <time>2022-04-03T08:58:26.000Z</time>
      </trkpt>
      <trkpt lat="49.66578" lon="4.72703">
        <ele>206</ele>
        <time>2022-04-03T08:58:27.000Z</time>
      </trkpt>
      <trkpt lat="49.6658" lon="4.72704">
        <ele>206</ele>
        <time>2022-04-03T08:58:28.000Z</time>
      </trkpt>
      <trkpt lat="49.66581" lon="4.72706">
        <ele>206</ele>
        <time>2022-04-03T08:58:29.000Z</time>
      </trkpt>
      <trkpt lat="49.66582" lon="4.72707">
        <ele>207</ele>
        <time>2022-04-03T08:58:30.000Z</time>
      </trkpt>
      <trkpt lat="49.66582" lon="4.72708">
        <ele>207</ele>
        <time>2022-04-03T08:58:31.000Z</time>
      </trkpt>
      <trkpt lat="49.66583" lon="4.72709">
        <ele>207</ele>
        <time>2022-04-03T08:58:32.000Z</time>
      </trkpt>
      <trkpt lat="49.66583" lon="4.7271">
        <ele>207</ele>
        <time>2022-04-03T08:58:33.000Z</time>
      </trkpt>
      <trkpt lat="49.66584" lon="4.7271">
        <ele>207</ele>
        <time>2022-04-03T08:58:34.000Z</time>
      </trkpt>
      <trkpt lat="49.66585" lon="4.72711">
        <ele>207</ele>
        <time>2022-04-03T08:58:35.000Z</time>
      </trkpt>
      <trkpt lat="49.66588" lon="4.72712">
        <ele>207</ele>
        <time>2022-04-03T08:58:36.000Z</time>
      </trkpt>
      <trkpt lat="49.66589" lon="4.72713">
        <ele>207</ele>
        <time>2022-04-03T08:58:37.000Z</time>
      </trkpt>
      <trkpt lat="49.6659" lon="4.72715">
        <ele>207</ele>
        <time>2022-04-03T08:58:38.000Z</time>
      </trkpt>
      <trkpt lat="49.66592" lon="4.72716">
        <ele>207</ele>
        <time>2022-04-03T08:58:39.000Z</time>
      </trkpt>
      <trkpt lat="49.66593" lon="4.72718">
        <ele>207</ele>
        <time>2022-04-03T08:58:40.000Z</time>
      </trkpt>
      <trkpt lat="49.66595" lon="4.7272">
        <ele>207</ele>
        <time>2022-04-03T08:58:41.000Z</time>
      </trkpt>
      <trkpt lat="49.66597" lon="4.72722">
        <ele>207</ele>
        <time>2022-04-03T08:58:42.000Z</time>
      </trkpt>
      <trkpt lat="49.666" lon="4.72725">
        <ele>207</ele>
        <time>2022-04-03T08:58:43.000Z</time>
      </trkpt>
      <trkpt lat="49.66602" lon="4.72728">
        <ele>207</ele>
        <time>2022-04-03T08:58:44.000Z</time>
      </trkpt>
      <trkpt lat="49.66605" lon="4.7273">
        <ele>207</ele>
        <time>2022-04-03T08:58:45.000Z</time>
      </trkpt>
      <trkpt lat="49.66607" lon="4.72731">
        <ele>207</ele>
        <time>2022-04-03T08:58:46.000Z</time>
      </trkpt>
      <trkpt lat="49.66609" lon="4.72733">
        <ele>207</ele>
        <time>2022-04-03T08:58:47.000Z</time>
      </trkpt>
      <trkpt lat="49.66611" lon="4.72735">
        <ele>207</ele>
        <time>2022-04-03T08:58:48.000Z</time>
      </trkpt>
      <trkpt lat="49.66613" lon="4.72737">
        <ele>206</ele>
        <time>2022-04-03T08:58:49.000Z</time>
      </trkpt>
      <trkpt lat="49.66615" lon="4.72739">
        <ele>206</ele>
        <time>2022-04-03T08:58:50.000Z</time>
      </trkpt>
      <trkpt lat="49.66617" lon="4.72741">
        <ele>206</ele>
        <time>2022-04-03T08:58:51.000Z</time>
      </trkpt>
      <trkpt lat="49.66619" lon="4.72742">
        <ele>206</ele>
        <time>2022-04-03T08:58:52.000Z</time>
      </trkpt>
      <trkpt lat="49.66621" lon="4.72744">
        <ele>206</ele>
        <time>2022-04-03T08:58:53.000Z</time>
      </trkpt>
      <trkpt lat="49.66623" lon="4.72746">
        <ele>206</ele>
        <time>2022-04-03T08:58:54.000Z</time>
      </trkpt>
      <trkpt lat="49.66625" lon="4.72748">
        <ele>206</ele>
        <time>2022-04-03T08:58:55.000Z</time>
      </trkpt>
      <trkpt lat="49.66628" lon="4.7275">
        <ele>206</ele>
        <time>2022-04-03T08:58:56.000Z</time>
      </trkpt>
      <trkpt lat="49.66631" lon="4.72752">
        <ele>206</ele>
        <time>2022-04-03T08:58:57.000Z</time>
      </trkpt>
      <trkpt lat="49.66634" lon="4.72753">
        <ele>206</ele>
        <time>2022-04-03T08:58:58.000Z</time>
      </trkpt>
      <trkpt lat="49.66637" lon="4.72754">
        <ele>206</ele>
        <time>2022-04-03T08:58:59.000Z</time>
      </trkpt>
      <trkpt lat="49.6664" lon="4.72755">
        <ele>206</ele>
        <time>2022-04-03T08:59:00.000Z</time>
      </trkpt>
      <trkpt lat="49.66643" lon="4.72757">
        <ele>206</ele>
        <time>2022-04-03T08:59:01.000Z</time>
      </trkpt>
      <trkpt lat="49.66646" lon="4.72758">
        <ele>206</ele>
        <time>2022-04-03T08:59:02.000Z</time>
      </trkpt>
      <trkpt lat="49.66649" lon="4.7276">
        <ele>206</ele>
        <time>2022-04-03T08:59:03.000Z</time>
      </trkpt>
      <trkpt lat="49.66652" lon="4.72761">
        <ele>206</ele>
        <time>2022-04-03T08:59:04.000Z</time>
      </trkpt>
      <trkpt lat="49.66656" lon="4.72763">
        <ele>206</ele>
        <time>2022-04-03T08:59:05.000Z</time>
      </trkpt>
      <trkpt lat="49.6666" lon="4.72766">
        <ele>206</ele>
        <time>2022-04-03T08:59:06.000Z</time>
      </trkpt>
      <trkpt lat="49.66664" lon="4.72769">
        <ele>206</ele>
        <time>2022-04-03T08:59:07.000Z</time>
      </trkpt>
      <trkpt lat="49.66668" lon="4.72771">
        <ele>206</ele>
        <time>2022-04-03T08:59:08.000Z</time>
      </trkpt>
      <trkpt lat="49.6667" lon="4.72774">
        <ele>206</ele>
        <time>2022-04-03T08:59:09.000Z</time>
      </trkpt>
      <trkpt lat="49.66673" lon="4.72776">
        <ele>206</ele>
        <time>2022-04-03T08:59:10.000Z</time>
      </trkpt>
      <trkpt lat="49.66676" lon="4.72779">
        <ele>206</ele>
        <time>2022-04-03T08:59:11.000Z</time>
      </trkpt>
      <trkpt lat="49.66679" lon="4.72781">
        <ele>206</ele>
        <time>2022-04-03T08:59:12.000Z</time>
      </trkpt>
      <trkpt lat="49.66682" lon="4.72783">
        <ele>206</ele>
        <time>2022-04-03T08:59:13.000Z</time>
      </trkpt>
      <trkpt lat="49.66685" lon="4.72786">
        <ele>205</ele>
        <time>2022-04-03T08:59:14.000Z</time>
      </trkpt>
      <trkpt lat="49.66688" lon="4.72788">
        <ele>205</ele>
        <time>2022-04-03T08:59:15.000Z</time>
      </trkpt>
      <trkpt lat="49.66691" lon="4.72792">
        <ele>205</ele>
        <time>2022-04-03T08:59:16.000Z</time>
      </trkpt>
      <trkpt lat="49.66693" lon="4.72795">
        <ele>205</ele>
        <time>2022-04-03T08:59:17.000Z</time>
      </trkpt>
      <trkpt lat="49.66696" lon="4.72797">
        <ele>205</ele>
        <time>2022-04-03T08:59:18.000Z</time>
      </trkpt>
      <trkpt lat="49.66698" lon="4.728">
        <ele>205</ele>
        <time>2022-04-03T08:59:19.000Z</time>
      </trkpt>
      <trkpt lat="49.66701" lon="4.72802">
        <ele>205</ele>
        <time>2022-04-03T08:59:20.000Z</time>
      </trkpt>
      <trkpt lat="49.66704" lon="4.72804">
        <ele>205</ele>
        <time>2022-04-03T08:59:21.000Z</time>
      </trkpt>
      <trkpt lat="49.66707" lon="4.72806">
        <ele>205</ele>
        <time>2022-04-03T08:59:22.000Z</time>
      </trkpt>
      <trkpt lat="49.66709" lon="4.72808">
        <ele>205</ele>
        <time>2022-04-03T08:59:23.000Z</time>
      </trkpt>
      <trkpt lat="49.66711" lon="4.72809">
        <ele>205</ele>
        <time>2022-04-03T08:59:24.000Z</time>
      </trkpt>
      <trkpt lat="49.66714" lon="4.7281">
        <ele>205</ele>
        <time>2022-04-03T08:59:25.000Z</time>
      </trkpt>
      <trkpt lat="49.66717" lon="4.72812">
        <ele>205</ele>
        <time>2022-04-03T08:59:26.000Z</time>
      </trkpt>
      <trkpt lat="49.6672" lon="4.72813">
        <ele>205</ele>
        <time>2022-04-03T08:59:27.000Z</time>
      </trkpt>
      <trkpt lat="49.66723" lon="4.72815">
        <ele>205</ele>
        <time>2022-04-03T08:59:28.000Z</time>
      </trkpt>
      <trkpt lat="49.66727" lon="4.72816">
        <ele>205</ele>
        <time>2022-04-03T08:59:29.000Z</time>
      </trkpt>
      <trkpt lat="49.6673" lon="4.72818">
        <ele>205</ele>
        <time>2022-04-03T08:59:30.000Z</time>
      </trkpt>
      <trkpt lat="49.66734" lon="4.72821">
        <ele>205</ele>
        <time>2022-04-03T08:59:31.000Z</time>
      </trkpt>
      <trkpt lat="49.66738" lon="4.72823">
        <ele>205</ele>
        <time>2022-04-03T08:59:32.000Z</time>
      </trkpt>
      <trkpt lat="49.66741" lon="4.72826">
        <ele>205</ele>
        <time>2022-04-03T08:59:33.000Z</time>
      </trkpt>
      <trkpt lat="49.66744" lon="4.72828">
        <ele>205</ele>
        <time>2022-04-03T08:59:34.000Z</time>
      </trkpt>
      <trkpt lat="49.66748" lon="4.7283">
        <ele>205</ele>
        <time>2022-04-03T08:59:35.000Z</time>
      </trkpt>
      <trkpt lat="49.66751" lon="4.72832">
        <ele>205</ele>
        <time>2022-04-03T08:59:36.000Z</time>
      </trkpt>
      <trkpt lat="49.66755" lon="4.72836">
        <ele>205</ele>
        <time>2022-04-03T08:59:37.000Z</time>
      </trkpt>
      <trkpt lat="49.66759" lon="4.72839">
        <ele>205</ele>
        <time>2022-04-03T08:59:38.000Z</time>
      </trkpt>
      <trkpt lat="49.66764" lon="4.72842">
        <ele>205</ele>
        <time>2022-04-03T08:59:39.000Z</time>
      </trkpt>
      <trkpt lat="49.66768" lon="4.72846">
        <ele>204</ele>
        <time>2022-04-03T08:59:40.000Z</time>
      </trkpt>
      <trkpt lat="49.66771" lon="4.72849">
        <ele>204</ele>
        <time>2022-04-03T08:59:41.000Z</time>
      </trkpt>
      <trkpt lat="49.66775" lon="4.72853">
        <ele>204</ele>
        <time>2022-04-03T08:59:42.000Z</time>
      </trkpt>
      <trkpt lat="49.66778" lon="4.72856">
        <ele>204</ele>
        <time>2022-04-03T08:59:43.000Z</time>
      </trkpt>
      <trkpt lat="49.66782" lon="4.7286">
        <ele>204</ele>
        <time>2022-04-03T08:59:44.000Z</time>
      </trkpt>
      <trkpt lat="49.66786" lon="4.72865">
        <ele>203</ele>
        <time>2022-04-03T08:59:45.000Z</time>
      </trkpt>
      <trkpt lat="49.6679" lon="4.7287">
        <ele>203</ele>
        <time>2022-04-03T08:59:46.000Z</time>
      </trkpt>
      <trkpt lat="49.66794" lon="4.72874">
        <ele>203</ele>
        <time>2022-04-03T08:59:47.000Z</time>
      </trkpt>
      <trkpt lat="49.66798" lon="4.72879">
        <ele>202</ele>
        <time>2022-04-03T08:59:48.000Z</time>
      </trkpt>
      <trkpt lat="49.66802" lon="4.72883">
        <ele>202</ele>
        <time>2022-04-03T08:59:49.000Z</time>
      </trkpt>
      <trkpt lat="49.66806" lon="4.72888">
        <ele>202</ele>
        <time>2022-04-03T08:59:50.000Z</time>
      </trkpt>
      <trkpt lat="49.66809" lon="4.72892">
        <ele>202</ele>
        <time>2022-04-03T08:59:51.000Z</time>
      </trkpt>
      <trkpt lat="49.66813" lon="4.72896">
        <ele>202</ele>
        <time>2022-04-03T08:59:52.000Z</time>
      </trkpt>
      <trkpt lat="49.66817" lon="4.729">
        <ele>201</ele>
        <time>2022-04-03T08:59:53.000Z</time>
      </trkpt>
      <trkpt lat="49.6682" lon="4.72905">
        <ele>201</ele>
        <time>2022-04-03T08:59:54.000Z</time>
      </trkpt>
      <trkpt lat="49.66824" lon="4.72909">
        <ele>201</ele>
        <time>2022-04-03T08:59:55.000Z</time>
      </trkpt>
      <trkpt lat="49.66828" lon="4.72913">
        <ele>201</ele>
        <time>2022-04-03T08:59:56.000Z</time>
      </trkpt>
      <trkpt lat="49.66831" lon="4.72917">
        <ele>200</ele>
        <time>2022-04-03T08:59:57.000Z</time>
      </trkpt>
      <trkpt lat="49.66835" lon="4.72922">
        <ele>200</ele>
        <time>2022-04-03T08:59:58.000Z</time>
      </trkpt>
      <trkpt lat="49.66838" lon="4.72926">
        <ele>200</ele>
        <time>2022-04-03T08:59:59.000Z</time>
      </trkpt>
      <trkpt lat="49.66842" lon="4.7293">
        <ele>200</ele>
        <time>2022-04-03T09:00:00.000Z</time>
      </trkpt>
      <trkpt lat="49.66845" lon="4.72934">
        <ele>200</ele>
        <time>2022-04-03T09:00:01.000Z</time>
      </trkpt>
      <trkpt lat="49.66849" lon="4.72939">
        <ele>199</ele>
        <time>2022-04-03T09:00:02.000Z</time>
      </trkpt>
      <trkpt lat="49.66852" lon="4.72942">
        <ele>199</ele>
        <time>2022-04-03T09:00:03.000Z</time>
      </trkpt>
      <trkpt lat="49.66856" lon="4.72946">
        <ele>199</ele>
        <time>2022-04-03T09:00:04.000Z</time>
      </trkpt>
      <trkpt lat="49.66859" lon="4.7295">
        <ele>199</ele>
        <time>2022-04-03T09:00:05.000Z</time>
      </trkpt>
      <trkpt lat="49.66862" lon="4.72954">
        <ele>199</ele>
        <time>2022-04-03T09:00:06.000Z</time>
      </trkpt>
      <trkpt lat="49.66865" lon="4.72957">
        <ele>198</ele>
        <time>2022-04-03T09:00:07.000Z</time>
      </trkpt>
      <trkpt lat="49.66868" lon="4.7296">
        <ele>198</ele>
        <time>2022-04-03T09:00:08.000Z</time>
      </trkpt>
      <trkpt lat="49.6687" lon="4.72963">
        <ele>198</ele>
        <time>2022-04-03T09:00:09.000Z</time>
      </trkpt>
      <trkpt lat="49.66872" lon="4.72965">
        <ele>198</ele>
        <time>2022-04-03T09:00:10.000Z</time>
      </trkpt>
      <trkpt lat="49.66874" lon="4.72968">
        <ele>198</ele>
        <time>2022-04-03T09:00:11.000Z</time>
      </trkpt>
      <trkpt lat="49.66877" lon="4.72971">
        <ele>197</ele>
        <time>2022-04-03T09:00:12.000Z</time>
      </trkpt>
      <trkpt lat="49.66879" lon="4.72974">
        <ele>197</ele>
        <time>2022-04-03T09:00:13.000Z</time>
      </trkpt>
      <trkpt lat="49.66882" lon="4.72976">
        <ele>197</ele>
        <time>2022-04-03T09:00:14.000Z</time>
      </trkpt>
      <trkpt lat="49.66884" lon="4.72979">
        <ele>197</ele>
        <time>2022-04-03T09:00:15.000Z</time>
      </trkpt>
      <trkpt lat="49.66887" lon="4.72982">
        <ele>197</ele>
        <time>2022-04-03T09:00:16.000Z</time>
      </trkpt>
      <trkpt lat="49.66889" lon="4.72985">
        <ele>196</ele>
        <time>2022-04-03T09:00:17.000Z</time>
      </trkpt>
      <trkpt lat="49.66892" lon="4.72989">
        <ele>196</ele>
        <time>2022-04-03T09:00:18.000Z</time>
      </trkpt>
      <trkpt lat="49.66895" lon="4.72993">
        <ele>196</ele>
        <time>2022-04-03T09:00:19.000Z</time>
      </trkpt>
      <trkpt lat="49.66897" lon="4.72996">
        <ele>196</ele>
        <time>2022-04-03T09:00:20.000Z</time>
      </trkpt>
      <trkpt lat="49.669" lon="4.72999">
        <ele>196</ele>
        <time>2022-04-03T09:00:21.000Z</time>
      </trkpt>
      <trkpt lat="49.66903" lon="4.73003">
        <ele>196</ele>
        <time>2022-04-03T09:00:22.000Z</time>
      </trkpt>
      <trkpt lat="49.66906" lon="4.73006">
        <ele>196</ele>
        <time>2022-04-03T09:00:23.000Z</time>
      </trkpt>
      <trkpt lat="49.66909" lon="4.7301">
        <ele>196</ele>
        <time>2022-04-03T09:00:24.000Z</time>
      </trkpt>
      <trkpt lat="49.66911" lon="4.73013">
        <ele>196</ele>
        <time>2022-04-03T09:00:25.000Z</time>
      </trkpt>
      <trkpt lat="49.66914" lon="4.73017">
        <ele>196</ele>
        <time>2022-04-03T09:00:26.000Z</time>
      </trkpt>
      <trkpt lat="49.66917" lon="4.7302">
        <ele>195</ele>
        <time>2022-04-03T09:00:27.000Z</time>
      </trkpt>
      <trkpt lat="49.66919" lon="4.73024">
        <ele>195</ele>
        <time>2022-04-03T09:00:28.000Z</time>
      </trkpt>
      <trkpt lat="49.66922" lon="4.73027">
        <ele>195</ele>
        <time>2022-04-03T09:00:29.000Z</time>
      </trkpt>
      <trkpt lat="49.66925" lon="4.73031">
        <ele>195</ele>
        <time>2022-04-03T09:00:30.000Z</time>
      </trkpt>
      <trkpt lat="49.66928" lon="4.73034">
        <ele>195</ele>
        <time>2022-04-03T09:00:31.000Z</time>
      </trkpt>
      <trkpt lat="49.6693" lon="4.73038">
        <ele>195</ele>
        <time>2022-04-03T09:00:32.000Z</time>
      </trkpt>
      <trkpt lat="49.66932" lon="4.73041">
        <ele>195</ele>
        <time>2022-04-03T09:00:33.000Z</time>
      </trkpt>
      <trkpt lat="49.66934" lon="4.73044">
        <ele>195</ele>
        <time>2022-04-03T09:00:34.000Z</time>
      </trkpt>
      <trkpt lat="49.66937" lon="4.73047">
        <ele>195</ele>
        <time>2022-04-03T09:00:35.000Z</time>
      </trkpt>
      <trkpt lat="49.66939" lon="4.73049">
        <ele>195</ele>
        <time>2022-04-03T09:00:36.000Z</time>
      </trkpt>
      <trkpt lat="49.66942" lon="4.73052">
        <ele>195</ele>
        <time>2022-04-03T09:00:37.000Z</time>
      </trkpt>
      <trkpt lat="49.66944" lon="4.73055">
        <ele>195</ele>
        <time>2022-04-03T09:00:38.000Z</time>
      </trkpt>
      <trkpt lat="49.66947" lon="4.73059">
        <ele>195</ele>
        <time>2022-04-03T09:00:39.000Z</time>
      </trkpt>
      <trkpt lat="49.6695" lon="4.73062">
        <ele>195</ele>
        <time>2022-04-03T09:00:40.000Z</time>
      </trkpt>
      <trkpt lat="49.66952" lon="4.73065">
        <ele>195</ele>
        <time>2022-04-03T09:00:41.000Z</time>
      </trkpt>
      <trkpt lat="49.66955" lon="4.73067">
        <ele>195</ele>
        <time>2022-04-03T09:00:42.000Z</time>
      </trkpt>
      <trkpt lat="49.66957" lon="4.7307">
        <ele>195</ele>
        <time>2022-04-03T09:00:43.000Z</time>
      </trkpt>
      <trkpt lat="49.6696" lon="4.73073">
        <ele>195</ele>
        <time>2022-04-03T09:00:44.000Z</time>
      </trkpt>
      <trkpt lat="49.66962" lon="4.73076">
        <ele>195</ele>
        <time>2022-04-03T09:00:45.000Z</time>
      </trkpt>
      <trkpt lat="49.66965" lon="4.73079">
        <ele>195</ele>
        <time>2022-04-03T09:00:46.000Z</time>
      </trkpt>
      <trkpt lat="49.66967" lon="4.73081">
        <ele>195</ele>
        <time>2022-04-03T09:00:47.000Z</time>
      </trkpt>
      <trkpt lat="49.66969" lon="4.73084">
        <ele>195</ele>
        <time>2022-04-03T09:00:48.000Z</time>
      </trkpt>
      <trkpt lat="49.66972" lon="4.73087">
        <ele>195</ele>
        <time>2022-04-03T09:00:49.000Z</time>
      </trkpt>
      <trkpt lat="49.66974" lon="4.7309">
        <ele>195</ele>
        <time>2022-04-03T09:00:50.000Z</time>
      </trkpt>
      <trkpt lat="49.66976" lon="4.73093">
        <ele>195</ele>
        <time>2022-04-03T09:00:51.000Z</time>
      </trkpt>
      <trkpt lat="49.66979" lon="4.73096">
        <ele>195</ele>
        <time>2022-04-03T09:00:52.000Z</time>
      </trkpt>
      <trkpt lat="49.66981" lon="4.73099">
        <ele>195</ele>
        <time>2022-04-03T09:00:53.000Z</time>
      </trkpt>
      <trkpt lat="49.66984" lon="4.73102">
        <ele>195</ele>
        <time>2022-04-03T09:00:54.000Z</time>
      </trkpt>
      <trkpt lat="49.66986" lon="4.73105">
        <ele>195</ele>
        <time>2022-04-03T09:00:55.000Z</time>
      </trkpt>
      <trkpt lat="49.66988" lon="4.73108">
        <ele>195</ele>
        <time>2022-04-03T09:00:56.000Z</time>
      </trkpt>
      <trkpt lat="49.66991" lon="4.73111">
        <ele>195</ele>
        <time>2022-04-03T09:00:57.000Z</time>
      </trkpt>
      <trkpt lat="49.66993" lon="4.73113">
        <ele>195</ele>
        <time>2022-04-03T09:00:58.000Z</time>
      </trkpt>
      <trkpt lat="49.66995" lon="4.73116">
        <ele>195</ele>
        <time>2022-04-03T09:00:59.000Z</time>
      </trkpt>
      <trkpt lat="49.66997" lon="4.73118">
        <ele>195</ele>
        <time>2022-04-03T09:01:00.000Z</time>
      </trkpt>
      <trkpt lat="49.66999" lon="4.73121">
        <ele>195</ele>
        <time>2022-04-03T09:01:01.000Z</time>
      </trkpt>
      <trkpt lat="49.67001" lon="4.73123">
        <ele>195</ele>
        <time>2022-04-03T09:01:02.000Z</time>
      </trkpt>
      <trkpt lat="49.67003" lon="4.73126">
        <ele>195</ele>
        <time>2022-04-03T09:01:03.000Z</time>
      </trkpt>
      <trkpt lat="49.67006" lon="4.73129">
        <ele>195</ele>
        <time>2022-04-03T09:01:04.000Z</time>
      </trkpt>
      <trkpt lat="49.67008" lon="4.73131">
        <ele>195</ele>
        <time>2022-04-03T09:01:05.000Z</time>
      </trkpt>
      <trkpt lat="49.6701" lon="4.73134">
        <ele>195</ele>
        <time>2022-04-03T09:01:06.000Z</time>
      </trkpt>
      <trkpt lat="49.67012" lon="4.73137">
        <ele>195</ele>
        <time>2022-04-03T09:01:07.000Z</time>
      </trkpt>
      <trkpt lat="49.67015" lon="4.73139">
        <ele>195</ele>
        <time>2022-04-03T09:01:08.000Z</time>
      </trkpt>
      <trkpt lat="49.67017" lon="4.73142">
        <ele>195</ele>
        <time>2022-04-03T09:01:09.000Z</time>
      </trkpt>
      <trkpt lat="49.67019" lon="4.73144">
        <ele>196</ele>
        <time>2022-04-03T09:01:10.000Z</time>
      </trkpt>
      <trkpt lat="49.67022" lon="4.73147">
        <ele>196</ele>
        <time>2022-04-03T09:01:11.000Z</time>
      </trkpt>
      <trkpt lat="49.67024" lon="4.7315">
        <ele>196</ele>
        <time>2022-04-03T09:01:12.000Z</time>
      </trkpt>
      <trkpt lat="49.67026" lon="4.73152">
        <ele>196</ele>
        <time>2022-04-03T09:01:13.000Z</time>
      </trkpt>
      <trkpt lat="49.67028" lon="4.73155">
        <ele>196</ele>
        <time>2022-04-03T09:01:14.000Z</time>
      </trkpt>
      <trkpt lat="49.6703" lon="4.73157">
        <ele>196</ele>
        <time>2022-04-03T09:01:15.000Z</time>
      </trkpt>
      <trkpt lat="49.67031" lon="4.7316">
        <ele>196</ele>
        <time>2022-04-03T09:01:16.000Z</time>
      </trkpt>
      <trkpt lat="49.67033" lon="4.73162">
        <ele>196</ele>
        <time>2022-04-03T09:01:17.000Z</time>
      </trkpt>
      <trkpt lat="49.67035" lon="4.73164">
        <ele>196</ele>
        <time>2022-04-03T09:01:18.000Z</time>
      </trkpt>
      <trkpt lat="49.67036" lon="4.73166">
        <ele>196</ele>
        <time>2022-04-03T09:01:19.000Z</time>
      </trkpt>
      <trkpt lat="49.67037" lon="4.73168">
        <ele>196</ele>
        <time>2022-04-03T09:01:20.000Z</time>
      </trkpt>
      <trkpt lat="49.67038" lon="4.7317">
        <ele>196</ele>
        <time>2022-04-03T09:01:21.000Z</time>
      </trkpt>
      <trkpt lat="49.67039" lon="4.73172">
        <ele>196</ele>
        <time>2022-04-03T09:01:22.000Z</time>
      </trkpt>
      <trkpt lat="49.67039" lon="4.73174">
        <ele>196</ele>
        <time>2022-04-03T09:01:23.000Z</time>
      </trkpt>
      <trkpt lat="49.67041" lon="4.73176">
        <ele>196</ele>
        <time>2022-04-03T09:01:24.000Z</time>
      </trkpt>
      <trkpt lat="49.67043" lon="4.73177">
        <ele>196</ele>
        <time>2022-04-03T09:01:25.000Z</time>
      </trkpt>
      <trkpt lat="49.67045" lon="4.73178">
        <ele>196</ele>
        <time>2022-04-03T09:01:26.000Z</time>
      </trkpt>
      <trkpt lat="49.67048" lon="4.73179">
        <ele>196</ele>
        <time>2022-04-03T09:01:27.000Z</time>
      </trkpt>
      <trkpt lat="49.6705" lon="4.73181">
        <ele>195</ele>
        <time>2022-04-03T09:01:28.000Z</time>
      </trkpt>
      <trkpt lat="49.67053" lon="4.73182">
        <ele>195</ele>
        <time>2022-04-03T09:01:29.000Z</time>
      </trkpt>
      <trkpt lat="49.67057" lon="4.73184">
        <ele>195</ele>
        <time>2022-04-03T09:01:30.000Z</time>
      </trkpt>
      <trkpt lat="49.6706" lon="4.73187">
        <ele>195</ele>
        <time>2022-04-03T09:01:31.000Z</time>
      </trkpt>
      <trkpt lat="49.67063" lon="4.7319">
        <ele>195</ele>
        <time>2022-04-03T09:01:32.000Z</time>
      </trkpt>
      <trkpt lat="49.67067" lon="4.73192">
        <ele>194</ele>
        <time>2022-04-03T09:01:33.000Z</time>
      </trkpt>
      <trkpt lat="49.67071" lon="4.73196">
        <ele>194</ele>
        <time>2022-04-03T09:01:34.000Z</time>
      </trkpt>
      <trkpt lat="49.67075" lon="4.73199">
        <ele>194</ele>
        <time>2022-04-03T09:01:35.000Z</time>
      </trkpt>
      <trkpt lat="49.6708" lon="4.73203">
        <ele>194</ele>
        <time>2022-04-03T09:01:36.000Z</time>
      </trkpt>
      <trkpt lat="49.67085" lon="4.73206">
        <ele>193</ele>
        <time>2022-04-03T09:01:37.000Z</time>
      </trkpt>
      <trkpt lat="49.67089" lon="4.73211">
        <ele>193</ele>
        <time>2022-04-03T09:01:38.000Z</time>
      </trkpt>
      <trkpt lat="49.67094" lon="4.73215">
        <ele>193</ele>
        <time>2022-04-03T09:01:39.000Z</time>
      </trkpt>
      <trkpt lat="49.67099" lon="4.7322">
        <ele>193</ele>
        <time>2022-04-03T09:01:40.000Z</time>
      </trkpt>
      <trkpt lat="49.67104" lon="4.73225">
        <ele>192</ele>
        <time>2022-04-03T09:01:41.000Z</time>
      </trkpt>
      <trkpt lat="49.67109" lon="4.7323">
        <ele>192</ele>
        <time>2022-04-03T09:01:42.000Z</time>
      </trkpt>
      <trkpt lat="49.67115" lon="4.73235">
        <ele>192</ele>
        <time>2022-04-03T09:01:43.000Z</time>
      </trkpt>
      <trkpt lat="49.6712" lon="4.73241">
        <ele>192</ele>
        <time>2022-04-03T09:01:44.000Z</time>
      </trkpt>
      <trkpt lat="49.67125" lon="4.73248">
        <ele>192</ele>
        <time>2022-04-03T09:01:45.000Z</time>
      </trkpt>
      <trkpt lat="49.67129" lon="4.73255">
        <ele>191</ele>
        <time>2022-04-03T09:01:46.000Z</time>
      </trkpt>
      <trkpt lat="49.67134" lon="4.73263">
        <ele>191</ele>
        <time>2022-04-03T09:01:47.000Z</time>
      </trkpt>
      <trkpt lat="49.67138" lon="4.73271">
        <ele>191</ele>
        <time>2022-04-03T09:01:48.000Z</time>
      </trkpt>
      <trkpt lat="49.67142" lon="4.7328">
        <ele>190</ele>
        <time>2022-04-03T09:01:49.000Z</time>
      </trkpt>
      <trkpt lat="49.67145" lon="4.7329">
        <ele>190</ele>
        <time>2022-04-03T09:01:50.000Z</time>
      </trkpt>
      <trkpt lat="49.67149" lon="4.733">
        <ele>189</ele>
        <time>2022-04-03T09:01:51.000Z</time>
      </trkpt>
      <trkpt lat="49.67152" lon="4.73311">
        <ele>189</ele>
        <time>2022-04-03T09:01:52.000Z</time>
      </trkpt>
      <trkpt lat="49.67155" lon="4.73322">
        <ele>188</ele>
        <time>2022-04-03T09:01:53.000Z</time>
      </trkpt>
      <trkpt lat="49.67158" lon="4.73332">
        <ele>188</ele>
        <time>2022-04-03T09:01:54.000Z</time>
      </trkpt>
      <trkpt lat="49.67162" lon="4.73342">
        <ele>187</ele>
        <time>2022-04-03T09:01:55.000Z</time>
      </trkpt>
      <trkpt lat="49.67167" lon="4.7335">
        <ele>187</ele>
        <time>2022-04-03T09:01:56.000Z</time>
      </trkpt>
      <trkpt lat="49.67173" lon="4.73356">
        <ele>186</ele>
        <time>2022-04-03T09:01:57.000Z</time>
      </trkpt>
      <trkpt lat="49.67179" lon="4.73359">
        <ele>186</ele>
        <time>2022-04-03T09:01:58.000Z</time>
      </trkpt>
      <trkpt lat="49.67186" lon="4.7336">
        <ele>186</ele>
        <time>2022-04-03T09:01:59.000Z</time>
      </trkpt>
      <trkpt lat="49.67192" lon="4.73362">
        <ele>186</ele>
        <time>2022-04-03T09:02:00.000Z</time>
      </trkpt>
      <trkpt lat="49.67198" lon="4.73363">
        <ele>186</ele>
        <time>2022-04-03T09:02:01.000Z</time>
      </trkpt>
      <trkpt lat="49.67204" lon="4.73365">
        <ele>186</ele>
        <time>2022-04-03T09:02:02.000Z</time>
      </trkpt>
      <trkpt lat="49.6721" lon="4.73365">
        <ele>186</ele>
        <time>2022-04-03T09:02:03.000Z</time>
      </trkpt>
      <trkpt lat="49.67216" lon="4.73364">
        <ele>186</ele>
        <time>2022-04-03T09:02:04.000Z</time>
      </trkpt>
      <trkpt lat="49.67222" lon="4.7336">
        <ele>185</ele>
        <time>2022-04-03T09:02:05.000Z</time>
      </trkpt>
      <trkpt lat="49.67227" lon="4.73354">
        <ele>185</ele>
        <time>2022-04-03T09:02:06.000Z</time>
      </trkpt>
      <trkpt lat="49.67231" lon="4.73347">
        <ele>185</ele>
        <time>2022-04-03T09:02:07.000Z</time>
      </trkpt>
      <trkpt lat="49.67234" lon="4.7334">
        <ele>185</ele>
        <time>2022-04-03T09:02:08.000Z</time>
      </trkpt>
      <trkpt lat="49.67238" lon="4.73332">
        <ele>185</ele>
        <time>2022-04-03T09:02:09.000Z</time>
      </trkpt>
      <trkpt lat="49.67242" lon="4.73325">
        <ele>185</ele>
        <time>2022-04-03T09:02:10.000Z</time>
      </trkpt>
      <trkpt lat="49.67246" lon="4.73318">
        <ele>185</ele>
        <time>2022-04-03T09:02:11.000Z</time>
      </trkpt>
      <trkpt lat="49.6725" lon="4.73312">
        <ele>185</ele>
        <time>2022-04-03T09:02:12.000Z</time>
      </trkpt>
      <trkpt lat="49.67254" lon="4.73306">
        <ele>185</ele>
        <time>2022-04-03T09:02:13.000Z</time>
      </trkpt>
      <trkpt lat="49.67257" lon="4.73301">
        <ele>185</ele>
        <time>2022-04-03T09:02:14.000Z</time>
      </trkpt>
      <trkpt lat="49.67258" lon="4.73294">
        <ele>185</ele>
        <time>2022-04-03T09:02:15.000Z</time>
      </trkpt>
      <trkpt lat="49.67259" lon="4.73289">
        <ele>185</ele>
        <time>2022-04-03T09:02:16.000Z</time>
      </trkpt>
      <trkpt lat="49.67258" lon="4.73284">
        <ele>185</ele>
        <time>2022-04-03T09:02:17.000Z</time>
      </trkpt>
      <trkpt lat="49.67257" lon="4.7328">
        <ele>185</ele>
        <time>2022-04-03T09:02:18.000Z</time>
      </trkpt>
      <trkpt lat="49.67255" lon="4.73274">
        <ele>185</ele>
        <time>2022-04-03T09:02:19.000Z</time>
      </trkpt>
      <trkpt lat="49.67252" lon="4.73269">
        <ele>185</ele>
        <time>2022-04-03T09:02:20.000Z</time>
      </trkpt>
      <trkpt lat="49.67249" lon="4.73263">
        <ele>185</ele>
        <time>2022-04-03T09:02:21.000Z</time>
      </trkpt>
      <trkpt lat="49.67246" lon="4.73258">
        <ele>185</ele>
        <time>2022-04-03T09:02:22.000Z</time>
      </trkpt>
      <trkpt lat="49.67242" lon="4.73252">
        <ele>186</ele>
        <time>2022-04-03T09:02:23.000Z</time>
      </trkpt>
      <trkpt lat="49.67239" lon="4.73246">
        <ele>186</ele>
        <time>2022-04-03T09:02:24.000Z</time>
      </trkpt>
      <trkpt lat="49.67237" lon="4.73238">
        <ele>186</ele>
        <time>2022-04-03T09:02:25.000Z</time>
      </trkpt>
      <trkpt lat="49.67236" lon="4.73231">
        <ele>186</ele>
        <time>2022-04-03T09:02:26.000Z</time>
      </trkpt>
      <trkpt lat="49.67236" lon="4.73224">
        <ele>186</ele>
        <time>2022-04-03T09:02:27.000Z</time>
      </trkpt>
      <trkpt lat="49.67237" lon="4.73218">
        <ele>186</ele>
        <time>2022-04-03T09:02:28.000Z</time>
      </trkpt>
      <trkpt lat="49.67238" lon="4.73212">
        <ele>186</ele>
        <time>2022-04-03T09:02:29.000Z</time>
      </trkpt>
      <trkpt lat="49.6724" lon="4.73207">
        <ele>187</ele>
        <time>2022-04-03T09:02:30.000Z</time>
      </trkpt>
      <trkpt lat="49.67242" lon="4.73203">
        <ele>187</ele>
        <time>2022-04-03T09:02:31.000Z</time>
      </trkpt>
      <trkpt lat="49.67244" lon="4.73199">
        <ele>188</ele>
        <time>2022-04-03T09:02:32.000Z</time>
      </trkpt>
      <trkpt lat="49.67246" lon="4.73195">
        <ele>188</ele>
        <time>2022-04-03T09:02:33.000Z</time>
      </trkpt>
      <trkpt lat="49.67248" lon="4.73191">
        <ele>188</ele>
        <time>2022-04-03T09:02:34.000Z</time>
      </trkpt>
      <trkpt lat="49.6725" lon="4.73187">
        <ele>188</ele>
        <time>2022-04-03T09:02:35.000Z</time>
      </trkpt>
      <trkpt lat="49.67251" lon="4.73183">
        <ele>189</ele>
        <time>2022-04-03T09:02:36.000Z</time>
      </trkpt>
      <trkpt lat="49.67252" lon="4.73179">
        <ele>189</ele>
        <time>2022-04-03T09:02:37.000Z</time>
      </trkpt>
      <trkpt lat="49.67253" lon="4.73175">
        <ele>189</ele>
        <time>2022-04-03T09:02:38.000Z</time>
      </trkpt>
      <trkpt lat="49.67254" lon="4.73171">
        <ele>189</ele>
        <time>2022-04-03T09:02:39.000Z</time>
      </trkpt>
      <trkpt lat="49.67255" lon="4.73166">
        <ele>190</ele>
        <time>2022-04-03T09:02:40.000Z</time>
      </trkpt>
      <trkpt lat="49.67256" lon="4.73162">
        <ele>190</ele>
        <time>2022-04-03T09:02:41.000Z</time>
      </trkpt>
      <trkpt lat="49.67256" lon="4.73158">
        <ele>190</ele>
        <time>2022-04-03T09:02:42.000Z</time>
      </trkpt>
      <trkpt lat="49.67257" lon="4.73155">
        <ele>191</ele>
        <time>2022-04-03T09:02:43.000Z</time>
      </trkpt>
      <trkpt lat="49.67258" lon="4.73151">
        <ele>191</ele>
        <time>2022-04-03T09:02:44.000Z</time>
      </trkpt>
      <trkpt lat="49.67258" lon="4.73146">
        <ele>191</ele>
        <time>2022-04-03T09:02:45.000Z</time>
      </trkpt>
      <trkpt lat="49.67259" lon="4.73142">
        <ele>192</ele>
        <time>2022-04-03T09:02:46.000Z</time>
      </trkpt>
      <trkpt lat="49.67259" lon="4.73138">
        <ele>192</ele>
        <time>2022-04-03T09:02:47.000Z</time>
      </trkpt>
      <trkpt lat="49.67259" lon="4.73134">
        <ele>193</ele>
        <time>2022-04-03T09:02:48.000Z</time>
      </trkpt>
      <trkpt lat="49.67259" lon="4.7313">
        <ele>193</ele>
        <time>2022-04-03T09:02:49.000Z</time>
      </trkpt>
      <trkpt lat="49.67259" lon="4.73126">
        <ele>193</ele>
        <time>2022-04-03T09:02:50.000Z</time>
      </trkpt>
      <trkpt lat="49.67258" lon="4.73122">
        <ele>194</ele>
        <time>2022-04-03T09:02:51.000Z</time>
      </trkpt>
      <trkpt lat="49.67258" lon="4.73118">
        <ele>194</ele>
        <time>2022-04-03T09:02:52.000Z</time>
      </trkpt>
      <trkpt lat="49.67258" lon="4.73114">
        <ele>195</ele>
        <time>2022-04-03T09:02:53.000Z</time>
      </trkpt>
      <trkpt lat="49.67257" lon="4.7311">
        <ele>195</ele>
        <time>2022-04-03T09:02:54.000Z</time>
      </trkpt>
      <trkpt lat="49.67257" lon="4.73106">
        <ele>195</ele>
        <time>2022-04-03T09:02:55.000Z</time>
      </trkpt>
      <trkpt lat="49.67257" lon="4.73102">
        <ele>196</ele>
        <time>2022-04-03T09:02:56.000Z</time>
      </trkpt>
      <trkpt lat="49.67256" lon="4.73098">
        <ele>196</ele>
        <time>2022-04-03T09:02:57.000Z</time>
      </trkpt>
      <trkpt lat="49.67256" lon="4.73095">
        <ele>196</ele>
        <time>2022-04-03T09:02:58.000Z</time>
      </trkpt>
      <trkpt lat="49.67255" lon="4.73091">
        <ele>197</ele>
        <time>2022-04-03T09:02:59.000Z</time>
      </trkpt>
      <trkpt lat="49.67255" lon="4.73087">
        <ele>197</ele>
        <time>2022-04-03T09:03:00.000Z</time>
      </trkpt>
      <trkpt lat="49.67255" lon="4.73083">
        <ele>198</ele>
        <time>2022-04-03T09:03:01.000Z</time>
      </trkpt>
      <trkpt lat="49.67255" lon="4.73079">
        <ele>198</ele>
        <time>2022-04-03T09:03:02.000Z</time>
      </trkpt>
      <trkpt lat="49.67254" lon="4.73075">
        <ele>198</ele>
        <time>2022-04-03T09:03:03.000Z</time>
      </trkpt>
      <trkpt lat="49.67254" lon="4.73071">
        <ele>198</ele>
        <time>2022-04-03T09:03:04.000Z</time>
      </trkpt>
      <trkpt lat="49.67254" lon="4.73067">
        <ele>199</ele>
        <time>2022-04-03T09:03:05.000Z</time>
      </trkpt>
      <trkpt lat="49.67253" lon="4.73063">
        <ele>199</ele>
        <time>2022-04-03T09:03:06.000Z</time>
      </trkpt>
      <trkpt lat="49.67253" lon="4.73059">
        <ele>199</ele>
        <time>2022-04-03T09:03:07.000Z</time>
      </trkpt>
      <trkpt lat="49.67253" lon="4.73055">
        <ele>200</ele>
        <time>2022-04-03T09:03:08.000Z</time>
      </trkpt>
      <trkpt lat="49.67252" lon="4.73051">
        <ele>200</ele>
        <time>2022-04-03T09:03:09.000Z</time>
      </trkpt>
      <trkpt lat="49.67252" lon="4.73048">
        <ele>200</ele>
        <time>2022-04-03T09:03:10.000Z</time>
      </trkpt>
      <trkpt lat="49.67251" lon="4.73045">
        <ele>200</ele>
        <time>2022-04-03T09:03:11.000Z</time>
      </trkpt>
      <trkpt lat="49.67251" lon="4.73042">
        <ele>200</ele>
        <time>2022-04-03T09:03:12.000Z</time>
      </trkpt>
      <trkpt lat="49.6725" lon="4.73039">
        <ele>201</ele>
        <time>2022-04-03T09:03:13.000Z</time>
      </trkpt>
      <trkpt lat="49.6725" lon="4.73035">
        <ele>201</ele>
        <time>2022-04-03T09:03:14.000Z</time>
      </trkpt>
      <trkpt lat="49.6725" lon="4.73031">
        <ele>201</ele>
        <time>2022-04-03T09:03:15.000Z</time>
      </trkpt>
      <trkpt lat="49.67249" lon="4.73028">
        <ele>201</ele>
        <time>2022-04-03T09:03:16.000Z</time>
      </trkpt>
      <trkpt lat="49.67249" lon="4.73024">
        <ele>202</ele>
        <time>2022-04-03T09:03:17.000Z</time>
      </trkpt>
      <trkpt lat="49.67248" lon="4.73022">
        <ele>202</ele>
        <time>2022-04-03T09:03:18.000Z</time>
      </trkpt>
      <trkpt lat="49.67248" lon="4.73018">
        <ele>202</ele>
        <time>2022-04-03T09:03:19.000Z</time>
      </trkpt>
      <trkpt lat="49.67247" lon="4.73016">
        <ele>203</ele>
        <time>2022-04-03T09:03:20.000Z</time>
      </trkpt>
      <trkpt lat="49.67247" lon="4.73013">
        <ele>203</ele>
        <time>2022-04-03T09:03:21.000Z</time>
      </trkpt>
      <trkpt lat="49.67247" lon="4.7301">
        <ele>203</ele>
        <time>2022-04-03T09:03:22.000Z</time>
      </trkpt>
      <trkpt lat="49.67247" lon="4.73006">
        <ele>203</ele>
        <time>2022-04-03T09:03:23.000Z</time>
      </trkpt>
      <trkpt lat="49.67247" lon="4.73003">
        <ele>203</ele>
        <time>2022-04-03T09:03:24.000Z</time>
      </trkpt>
      <trkpt lat="49.67245" lon="4.73">
        <ele>203</ele>
        <time>2022-04-03T09:03:25.000Z</time>
      </trkpt>
      <trkpt lat="49.67244" lon="4.72997">
        <ele>204</ele>
        <time>2022-04-03T09:03:26.000Z</time>
      </trkpt>
      <trkpt lat="49.67243" lon="4.72993">
        <ele>204</ele>
        <time>2022-04-03T09:03:27.000Z</time>
      </trkpt>
      <trkpt lat="49.67243" lon="4.72991">
        <ele>204</ele>
        <time>2022-04-03T09:03:28.000Z</time>
      </trkpt>
      <trkpt lat="49.67242" lon="4.72988">
        <ele>204</ele>
        <time>2022-04-03T09:03:29.000Z</time>
      </trkpt>
      <trkpt lat="49.67241" lon="4.72986">
        <ele>204</ele>
        <time>2022-04-03T09:03:30.000Z</time>
      </trkpt>
      <trkpt lat="49.6724" lon="4.72983">
        <ele>204</ele>
        <time>2022-04-03T09:03:31.000Z</time>
      </trkpt>
      <trkpt lat="49.6724" lon="4.72981">
        <ele>205</ele>
        <time>2022-04-03T09:03:32.000Z</time>
      </trkpt>
      <trkpt lat="49.67239" lon="4.72978">
        <ele>205</ele>
        <time>2022-04-03T09:03:33.000Z</time>
      </trkpt>
      <trkpt lat="49.67238" lon="4.72975">
        <ele>205</ele>
        <time>2022-04-03T09:03:34.000Z</time>
      </trkpt>
      <trkpt lat="49.67238" lon="4.72973">
        <ele>205</ele>
        <time>2022-04-03T09:03:35.000Z</time>
      </trkpt>
      <trkpt lat="49.67237" lon="4.7297">
        <ele>205</ele>
        <time>2022-04-03T09:03:36.000Z</time>
      </trkpt>
      <trkpt lat="49.67236" lon="4.72968">
        <ele>205</ele>
        <time>2022-04-03T09:03:37.000Z</time>
      </trkpt>
      <trkpt lat="49.67236" lon="4.72965">
        <ele>206</ele>
        <time>2022-04-03T09:03:38.000Z</time>
      </trkpt>
      <trkpt lat="49.67235" lon="4.72963">
        <ele>206</ele>
        <time>2022-04-03T09:03:39.000Z</time>
      </trkpt>
      <trkpt lat="49.67235" lon="4.7296">
        <ele>206</ele>
        <time>2022-04-03T09:03:40.000Z</time>
      </trkpt>
      <trkpt lat="49.67234" lon="4.72958">
        <ele>206</ele>
        <time>2022-04-03T09:03:41.000Z</time>
      </trkpt>
      <trkpt lat="49.67233" lon="4.72955">
        <ele>206</ele>
        <time>2022-04-03T09:03:42.000Z</time>
      </trkpt>
      <trkpt lat="49.67232" lon="4.72952">
        <ele>206</ele>
        <time>2022-04-03T09:03:43.000Z</time>
      </trkpt>
      <trkpt lat="49.67231" lon="4.7295">
        <ele>206</ele>
        <time>2022-04-03T09:03:44.000Z</time>
      </trkpt>
      <trkpt lat="49.67231" lon="4.72948">
        <ele>207</ele>
        <time>2022-04-03T09:03:45.000Z</time>
      </trkpt>
      <trkpt lat="49.6723" lon="4.72946">
        <ele>207</ele>
        <time>2022-04-03T09:03:46.000Z</time>
      </trkpt>
      <trkpt lat="49.6723" lon="4.72944">
        <ele>207</ele>
        <time>2022-04-03T09:03:47.000Z</time>
      </trkpt>
      <trkpt lat="49.6723" lon="4.72942">
        <ele>207</ele>
        <time>2022-04-03T09:03:48.000Z</time>
      </trkpt>
      <trkpt lat="49.67229" lon="4.7294">
        <ele>207</ele>
        <time>2022-04-03T09:03:49.000Z</time>
      </trkpt>
      <trkpt lat="49.67228" lon="4.72938">
        <ele>207</ele>
        <time>2022-04-03T09:03:50.000Z</time>
      </trkpt>
      <trkpt lat="49.67228" lon="4.72936">
        <ele>208</ele>
        <time>2022-04-03T09:03:51.000Z</time>
      </trkpt>
      <trkpt lat="49.67227" lon="4.72935">
        <ele>208</ele>
        <time>2022-04-03T09:03:52.000Z</time>
      </trkpt>
      <trkpt lat="49.67227" lon="4.72933">
        <ele>208</ele>
        <time>2022-04-03T09:03:53.000Z</time>
      </trkpt>
      <trkpt lat="49.67226" lon="4.72931">
        <ele>208</ele>
        <time>2022-04-03T09:03:54.000Z</time>
      </trkpt>
      <trkpt lat="49.67226" lon="4.72929">
        <ele>209</ele>
        <time>2022-04-03T09:03:55.000Z</time>
      </trkpt>
      <trkpt lat="49.67225" lon="4.72927">
        <ele>209</ele>
        <time>2022-04-03T09:03:56.000Z</time>
      </trkpt>
      <trkpt lat="49.67225" lon="4.72925">
        <ele>209</ele>
        <time>2022-04-03T09:03:57.000Z</time>
      </trkpt>
      <trkpt lat="49.67224" lon="4.72922">
        <ele>210</ele>
        <time>2022-04-03T09:03:58.000Z</time>
      </trkpt>
      <trkpt lat="49.67224" lon="4.7292">
        <ele>210</ele>
        <time>2022-04-03T09:03:59.000Z</time>
      </trkpt>
      <trkpt lat="49.67223" lon="4.72917">
        <ele>210</ele>
        <time>2022-04-03T09:04:00.000Z</time>
      </trkpt>
      <trkpt lat="49.67222" lon="4.72915">
        <ele>210</ele>
        <time>2022-04-03T09:04:01.000Z</time>
      </trkpt>
      <trkpt lat="49.67222" lon="4.72912">
        <ele>210</ele>
        <time>2022-04-03T09:04:02.000Z</time>
      </trkpt>
      <trkpt lat="49.6722" lon="4.72909">
        <ele>210</ele>
        <time>2022-04-03T09:04:03.000Z</time>
      </trkpt>
      <trkpt lat="49.67219" lon="4.72907">
        <ele>210</ele>
        <time>2022-04-03T09:04:04.000Z</time>
      </trkpt>
      <trkpt lat="49.67219" lon="4.72905">
        <ele>211</ele>
        <time>2022-04-03T09:04:05.000Z</time>
      </trkpt>
      <trkpt lat="49.67218" lon="4.72902">
        <ele>211</ele>
        <time>2022-04-03T09:04:06.000Z</time>
      </trkpt>
      <trkpt lat="49.67217" lon="4.729">
        <ele>211</ele>
        <time>2022-04-03T09:04:07.000Z</time>
      </trkpt>
      <trkpt lat="49.67215" lon="4.72897">
        <ele>211</ele>
        <time>2022-04-03T09:04:08.000Z</time>
      </trkpt>
      <trkpt lat="49.67215" lon="4.72894">
        <ele>211</ele>
        <time>2022-04-03T09:04:09.000Z</time>
      </trkpt>
      <trkpt lat="49.67214" lon="4.72892">
        <ele>212</ele>
        <time>2022-04-03T09:04:10.000Z</time>
      </trkpt>
      <trkpt lat="49.67213" lon="4.7289">
        <ele>212</ele>
        <time>2022-04-03T09:04:11.000Z</time>
      </trkpt>
      <trkpt lat="49.67212" lon="4.72887">
        <ele>212</ele>
        <time>2022-04-03T09:04:12.000Z</time>
      </trkpt>
      <trkpt lat="49.67211" lon="4.72884">
        <ele>213</ele>
        <time>2022-04-03T09:04:13.000Z</time>
      </trkpt>
      <trkpt lat="49.6721" lon="4.72882">
        <ele>213</ele>
        <time>2022-04-03T09:04:14.000Z</time>
      </trkpt>
      <trkpt lat="49.67208" lon="4.7288">
        <ele>214</ele>
        <time>2022-04-03T09:04:15.000Z</time>
      </trkpt>
      <trkpt lat="49.67207" lon="4.72878">
        <ele>214</ele>
        <time>2022-04-03T09:04:16.000Z</time>
      </trkpt>
      <trkpt lat="49.67206" lon="4.72875">
        <ele>214</ele>
        <time>2022-04-03T09:04:17.000Z</time>
      </trkpt>
      <trkpt lat="49.67204" lon="4.72873">
        <ele>215</ele>
        <time>2022-04-03T09:04:18.000Z</time>
      </trkpt>
      <trkpt lat="49.67203" lon="4.72871">
        <ele>215</ele>
        <time>2022-04-03T09:04:19.000Z</time>
      </trkpt>
      <trkpt lat="49.67202" lon="4.72869">
        <ele>215</ele>
        <time>2022-04-03T09:04:20.000Z</time>
      </trkpt>
      <trkpt lat="49.67201" lon="4.72867">
        <ele>216</ele>
        <time>2022-04-03T09:04:21.000Z</time>
      </trkpt>
      <trkpt lat="49.672" lon="4.72865">
        <ele>216</ele>
        <time>2022-04-03T09:04:22.000Z</time>
      </trkpt>
      <trkpt lat="49.67198" lon="4.72863">
        <ele>216</ele>
        <time>2022-04-03T09:04:23.000Z</time>
      </trkpt>
      <trkpt lat="49.67197" lon="4.7286">
        <ele>217</ele>
        <time>2022-04-03T09:04:24.000Z</time>
      </trkpt>
      <trkpt lat="49.67196" lon="4.72858">
        <ele>217</ele>
        <time>2022-04-03T09:04:25.000Z</time>
      </trkpt>
      <trkpt lat="49.67195" lon="4.72856">
        <ele>217</ele>
        <time>2022-04-03T09:04:26.000Z</time>
      </trkpt>
      <trkpt lat="49.67193" lon="4.72854">
        <ele>217</ele>
        <time>2022-04-03T09:04:27.000Z</time>
      </trkpt>
      <trkpt lat="49.67193" lon="4.72852">
        <ele>217</ele>
        <time>2022-04-03T09:04:28.000Z</time>
      </trkpt>
      <trkpt lat="49.67192" lon="4.7285">
        <ele>218</ele>
        <time>2022-04-03T09:04:29.000Z</time>
      </trkpt>
      <trkpt lat="49.6719" lon="4.72848">
        <ele>218</ele>
        <time>2022-04-03T09:04:30.000Z</time>
      </trkpt>
      <trkpt lat="49.67189" lon="4.72846">
        <ele>218</ele>
        <time>2022-04-03T09:04:31.000Z</time>
      </trkpt>
      <trkpt lat="49.67188" lon="4.72843">
        <ele>218</ele>
        <time>2022-04-03T09:04:32.000Z</time>
      </trkpt>
      <trkpt lat="49.67186" lon="4.72841">
        <ele>218</ele>
        <time>2022-04-03T09:04:33.000Z</time>
      </trkpt>
      <trkpt lat="49.67185" lon="4.72839">
        <ele>219</ele>
        <time>2022-04-03T09:04:34.000Z</time>
      </trkpt>
      <trkpt lat="49.67183" lon="4.72836">
        <ele>219</ele>
        <time>2022-04-03T09:04:35.000Z</time>
      </trkpt>
      <trkpt lat="49.67182" lon="4.72834">
        <ele>219</ele>
        <time>2022-04-03T09:04:36.000Z</time>
      </trkpt>
      <trkpt lat="49.6718" lon="4.72832">
        <ele>219</ele>
        <time>2022-04-03T09:04:37.000Z</time>
      </trkpt>
      <trkpt lat="49.67179" lon="4.72829">
        <ele>219</ele>
        <time>2022-04-03T09:04:38.000Z</time>
      </trkpt>
      <trkpt lat="49.67177" lon="4.72826">
        <ele>220</ele>
        <time>2022-04-03T09:04:39.000Z</time>
      </trkpt>
      <trkpt lat="49.67176" lon="4.72824">
        <ele>220</ele>
        <time>2022-04-03T09:04:40.000Z</time>
      </trkpt>
      <trkpt lat="49.67174" lon="4.72822">
        <ele>220</ele>
        <time>2022-04-03T09:04:41.000Z</time>
      </trkpt>
      <trkpt lat="49.67173" lon="4.72819">
        <ele>220</ele>
        <time>2022-04-03T09:04:42.000Z</time>
      </trkpt>
      <trkpt lat="49.67171" lon="4.72817">
        <ele>220</ele>
        <time>2022-04-03T09:04:43.000Z</time>
      </trkpt>
      <trkpt lat="49.6717" lon="4.72814">
        <ele>221</ele>
        <time>2022-04-03T09:04:44.000Z</time>
      </trkpt>
      <trkpt lat="49.67168" lon="4.72811">
        <ele>221</ele>
        <time>2022-04-03T09:04:45.000Z</time>
      </trkpt>
      <trkpt lat="49.67167" lon="4.72809">
        <ele>221</ele>
        <time>2022-04-03T09:04:46.000Z</time>
      </trkpt>
      <trkpt lat="49.67165" lon="4.72807">
        <ele>221</ele>
        <time>2022-04-03T09:04:47.000Z</time>
      </trkpt>
      <trkpt lat="49.67164" lon="4.72804">
        <ele>221</ele>
        <time>2022-04-03T09:04:48.000Z</time>
      </trkpt>
      <trkpt lat="49.67162" lon="4.72802">
        <ele>222</ele>
        <time>2022-04-03T09:04:49.000Z</time>
      </trkpt>
      <trkpt lat="49.6716" lon="4.728">
        <ele>222</ele>
        <time>2022-04-03T09:04:50.000Z</time>
      </trkpt>
      <trkpt lat="49.67158" lon="4.72798">
        <ele>222</ele>
        <time>2022-04-03T09:04:51.000Z</time>
      </trkpt>
      <trkpt lat="49.67157" lon="4.72795">
        <ele>222</ele>
        <time>2022-04-03T09:04:52.000Z</time>
      </trkpt>
      <trkpt lat="49.67155" lon="4.72793">
        <ele>222</ele>
        <time>2022-04-03T09:04:53.000Z</time>
      </trkpt>
      <trkpt lat="49.67154" lon="4.72791">
        <ele>222</ele>
        <time>2022-04-03T09:04:54.000Z</time>
      </trkpt>
      <trkpt lat="49.67154" lon="4.72788">
        <ele>222</ele>
        <time>2022-04-03T09:04:55.000Z</time>
      </trkpt>
      <trkpt lat="49.67152" lon="4.72786">
        <ele>223</ele>
        <time>2022-04-03T09:04:56.000Z</time>
      </trkpt>
      <trkpt lat="49.67151" lon="4.72784">
        <ele>223</ele>
        <time>2022-04-03T09:04:57.000Z</time>
      </trkpt>
      <trkpt lat="49.67149" lon="4.72782">
        <ele>223</ele>
        <time>2022-04-03T09:04:58.000Z</time>
      </trkpt>
      <trkpt lat="49.67147" lon="4.72779">
        <ele>223</ele>
        <time>2022-04-03T09:04:59.000Z</time>
      </trkpt>
      <trkpt lat="49.67146" lon="4.72777">
        <ele>223</ele>
        <time>2022-04-03T09:05:00.000Z</time>
      </trkpt>
      <trkpt lat="49.67144" lon="4.72775">
        <ele>223</ele>
        <time>2022-04-03T09:05:01.000Z</time>
      </trkpt>
      <trkpt lat="49.67142" lon="4.72773">
        <ele>224</ele>
        <time>2022-04-03T09:05:02.000Z</time>
      </trkpt>
      <trkpt lat="49.6714" lon="4.72771">
        <ele>224</ele>
        <time>2022-04-03T09:05:03.000Z</time>
      </trkpt>
      <trkpt lat="49.67138" lon="4.7277">
        <ele>224</ele>
        <time>2022-04-03T09:05:04.000Z</time>
      </trkpt>
      <trkpt lat="49.67136" lon="4.72771">
        <ele>224</ele>
        <time>2022-04-03T09:05:05.000Z</time>
      </trkpt>
      <trkpt lat="49.67134" lon="4.72772">
        <ele>224</ele>
        <time>2022-04-03T09:05:06.000Z</time>
      </trkpt>
      <trkpt lat="49.67132" lon="4.72773">
        <ele>225</ele>
        <time>2022-04-03T09:05:07.000Z</time>
      </trkpt>
      <trkpt lat="49.6713" lon="4.72772">
        <ele>225</ele>
        <time>2022-04-03T09:05:08.000Z</time>
      </trkpt>
      <trkpt lat="49.67128" lon="4.7277">
        <ele>225</ele>
        <time>2022-04-03T09:05:09.000Z</time>
      </trkpt>
      <trkpt lat="49.67126" lon="4.72768">
        <ele>225</ele>
        <time>2022-04-03T09:05:10.000Z</time>
      </trkpt>
      <trkpt lat="49.67123" lon="4.72765">
        <ele>225</ele>
        <time>2022-04-03T09:05:11.000Z</time>
      </trkpt>
      <trkpt lat="49.67121" lon="4.72763">
        <ele>226</ele>
        <time>2022-04-03T09:05:12.000Z</time>
      </trkpt>
      <trkpt lat="49.67119" lon="4.7276">
        <ele>226</ele>
        <time>2022-04-03T09:05:13.000Z</time>
      </trkpt>
      <trkpt lat="49.67117" lon="4.72758">
        <ele>226</ele>
        <time>2022-04-03T09:05:14.000Z</time>
      </trkpt>
      <trkpt lat="49.67115" lon="4.72757">
        <ele>226</ele>
        <time>2022-04-03T09:05:15.000Z</time>
      </trkpt>
      <trkpt lat="49.67113" lon="4.72755">
        <ele>226</ele>
        <time>2022-04-03T09:05:16.000Z</time>
      </trkpt>
      <trkpt lat="49.67111" lon="4.72754">
        <ele>227</ele>
        <time>2022-04-03T09:05:17.000Z</time>
      </trkpt>
      <trkpt lat="49.67109" lon="4.72753">
        <ele>227</ele>
        <time>2022-04-03T09:05:18.000Z</time>
      </trkpt>
      <trkpt lat="49.67107" lon="4.72752">
        <ele>227</ele>
        <time>2022-04-03T09:05:19.000Z</time>
      </trkpt>
      <trkpt lat="49.67105" lon="4.7275">
        <ele>228</ele>
        <time>2022-04-03T09:05:20.000Z</time>
      </trkpt>
      <trkpt lat="49.67103" lon="4.72749">
        <ele>228</ele>
        <time>2022-04-03T09:05:21.000Z</time>
      </trkpt>
      <trkpt lat="49.67101" lon="4.72747">
        <ele>228</ele>
        <time>2022-04-03T09:05:22.000Z</time>
      </trkpt>
      <trkpt lat="49.67099" lon="4.72746">
        <ele>228</ele>
        <time>2022-04-03T09:05:23.000Z</time>
      </trkpt>
      <trkpt lat="49.67096" lon="4.72744">
        <ele>228</ele>
        <time>2022-04-03T09:05:24.000Z</time>
      </trkpt>
      <trkpt lat="49.67094" lon="4.72743">
        <ele>229</ele>
        <time>2022-04-03T09:05:25.000Z</time>
      </trkpt>
      <trkpt lat="49.67092" lon="4.72742">
        <ele>229</ele>
        <time>2022-04-03T09:05:26.000Z</time>
      </trkpt>
      <trkpt lat="49.67089" lon="4.7274">
        <ele>229</ele>
        <time>2022-04-03T09:05:27.000Z</time>
      </trkpt>
      <trkpt lat="49.67086" lon="4.72738">
        <ele>229</ele>
        <time>2022-04-03T09:05:28.000Z</time>
      </trkpt>
      <trkpt lat="49.67083" lon="4.72737">
        <ele>230</ele>
        <time>2022-04-03T09:05:29.000Z</time>
      </trkpt>
      <trkpt lat="49.6708" lon="4.72735">
        <ele>230</ele>
        <time>2022-04-03T09:05:30.000Z</time>
      </trkpt>
      <trkpt lat="49.67077" lon="4.72733">
        <ele>230</ele>
        <time>2022-04-03T09:05:31.000Z</time>
      </trkpt>
      <trkpt lat="49.67075" lon="4.72732">
        <ele>231</ele>
        <time>2022-04-03T09:05:32.000Z</time>
      </trkpt>
      <trkpt lat="49.67073" lon="4.72731">
        <ele>231</ele>
        <time>2022-04-03T09:05:33.000Z</time>
      </trkpt>
      <trkpt lat="49.67071" lon="4.72731">
        <ele>231</ele>
        <time>2022-04-03T09:05:34.000Z</time>
      </trkpt>
      <trkpt lat="49.67068" lon="4.72731">
        <ele>232</ele>
        <time>2022-04-03T09:05:35.000Z</time>
      </trkpt>
      <trkpt lat="49.67065" lon="4.72729">
        <ele>232</ele>
        <time>2022-04-03T09:05:36.000Z</time>
      </trkpt>
      <trkpt lat="49.67062" lon="4.72727">
        <ele>232</ele>
        <time>2022-04-03T09:05:37.000Z</time>
      </trkpt>
      <trkpt lat="49.67059" lon="4.72726">
        <ele>232</ele>
        <time>2022-04-03T09:05:38.000Z</time>
      </trkpt>
      <trkpt lat="49.67056" lon="4.72724">
        <ele>232</ele>
        <time>2022-04-03T09:05:39.000Z</time>
      </trkpt>
      <trkpt lat="49.67053" lon="4.72723">
        <ele>232</ele>
        <time>2022-04-03T09:05:40.000Z</time>
      </trkpt>
      <trkpt lat="49.67051" lon="4.72721">
        <ele>232</ele>
        <time>2022-04-03T09:05:41.000Z</time>
      </trkpt>
      <trkpt lat="49.67048" lon="4.7272">
        <ele>232</ele>
        <time>2022-04-03T09:05:42.000Z</time>
      </trkpt>
      <trkpt lat="49.67046" lon="4.72718">
        <ele>232</ele>
        <time>2022-04-03T09:05:43.000Z</time>
      </trkpt>
      <trkpt lat="49.67044" lon="4.72717">
        <ele>233</ele>
        <time>2022-04-03T09:05:44.000Z</time>
      </trkpt>
      <trkpt lat="49.67041" lon="4.72715">
        <ele>233</ele>
        <time>2022-04-03T09:05:45.000Z</time>
      </trkpt>
      <trkpt lat="49.67038" lon="4.72714">
        <ele>233</ele>
        <time>2022-04-03T09:05:46.000Z</time>
      </trkpt>
      <trkpt lat="49.67036" lon="4.72713">
        <ele>233</ele>
        <time>2022-04-03T09:05:47.000Z</time>
      </trkpt>
      <trkpt lat="49.67033" lon="4.72711">
        <ele>233</ele>
        <time>2022-04-03T09:05:48.000Z</time>
      </trkpt>
      <trkpt lat="49.6703" lon="4.72709">
        <ele>233</ele>
        <time>2022-04-03T09:05:49.000Z</time>
      </trkpt>
      <trkpt lat="49.67027" lon="4.72708">
        <ele>234</ele>
        <time>2022-04-03T09:05:50.000Z</time>
      </trkpt>
      <trkpt lat="49.67025" lon="4.72707">
        <ele>234</ele>
        <time>2022-04-03T09:05:51.000Z</time>
      </trkpt>
      <trkpt lat="49.67022" lon="4.72705">
        <ele>234</ele>
        <time>2022-04-03T09:05:52.000Z</time>
      </trkpt>
      <trkpt lat="49.6702" lon="4.72703">
        <ele>234</ele>
        <time>2022-04-03T09:05:53.000Z</time>
      </trkpt>
      <trkpt lat="49.67016" lon="4.72702">
        <ele>234</ele>
        <time>2022-04-03T09:05:54.000Z</time>
      </trkpt>
      <trkpt lat="49.67013" lon="4.72701">
        <ele>234</ele>
        <time>2022-04-03T09:05:55.000Z</time>
      </trkpt>
      <trkpt lat="49.6701" lon="4.72699">
        <ele>234</ele>
        <time>2022-04-03T09:05:56.000Z</time>
      </trkpt>
      <trkpt lat="49.67007" lon="4.72696">
        <ele>235</ele>
        <time>2022-04-03T09:05:57.000Z</time>
      </trkpt>
      <trkpt lat="49.67005" lon="4.72695">
        <ele>235</ele>
        <time>2022-04-03T09:05:58.000Z</time>
      </trkpt>
      <trkpt lat="49.67003" lon="4.72694">
        <ele>235</ele>
        <time>2022-04-03T09:05:59.000Z</time>
      </trkpt>
      <trkpt lat="49.67" lon="4.72693">
        <ele>235</ele>
        <time>2022-04-03T09:06:00.000Z</time>
      </trkpt>
      <trkpt lat="49.66997" lon="4.72691">
        <ele>235</ele>
        <time>2022-04-03T09:06:01.000Z</time>
      </trkpt>
      <trkpt lat="49.66995" lon="4.7269">
        <ele>235</ele>
        <time>2022-04-03T09:06:02.000Z</time>
      </trkpt>
      <trkpt lat="49.66991" lon="4.72689">
        <ele>235</ele>
        <time>2022-04-03T09:06:03.000Z</time>
      </trkpt>
      <trkpt lat="49.66988" lon="4.72688">
        <ele>235</ele>
        <time>2022-04-03T09:06:04.000Z</time>
      </trkpt>
      <trkpt lat="49.66984" lon="4.72687">
        <ele>235</ele>
        <time>2022-04-03T09:06:05.000Z</time>
      </trkpt>
      <trkpt lat="49.6698" lon="4.72686">
        <ele>235</ele>
        <time>2022-04-03T09:06:06.000Z</time>
      </trkpt>
      <trkpt lat="49.66976" lon="4.72685">
        <ele>235</ele>
        <time>2022-04-03T09:06:07.000Z</time>
      </trkpt>
      <trkpt lat="49.66973" lon="4.72685">
        <ele>236</ele>
        <time>2022-04-03T09:06:08.000Z</time>
      </trkpt>
      <trkpt lat="49.66968" lon="4.72684">
        <ele>236</ele>
        <time>2022-04-03T09:06:09.000Z</time>
      </trkpt>
      <trkpt lat="49.66962" lon="4.72684">
        <ele>236</ele>
        <time>2022-04-03T09:06:10.000Z</time>
      </trkpt>
      <trkpt lat="49.66956" lon="4.72683">
        <ele>236</ele>
        <time>2022-04-03T09:06:11.000Z</time>
      </trkpt>
      <trkpt lat="49.6695" lon="4.72681">
        <ele>236</ele>
        <time>2022-04-03T09:06:12.000Z</time>
      </trkpt>
      <trkpt lat="49.66944" lon="4.72678">
        <ele>236</ele>
        <time>2022-04-03T09:06:13.000Z</time>
      </trkpt>
      <trkpt lat="49.66938" lon="4.72675">
        <ele>236</ele>
        <time>2022-04-03T09:06:14.000Z</time>
      </trkpt>
      <trkpt lat="49.66933" lon="4.72671">
        <ele>236</ele>
        <time>2022-04-03T09:06:15.000Z</time>
      </trkpt>
      <trkpt lat="49.66929" lon="4.72667">
        <ele>236</ele>
        <time>2022-04-03T09:06:16.000Z</time>
      </trkpt>
      <trkpt lat="49.66925" lon="4.72664">
        <ele>236</ele>
        <time>2022-04-03T09:06:17.000Z</time>
      </trkpt>
      <trkpt lat="49.66921" lon="4.72662">
        <ele>236</ele>
        <time>2022-04-03T09:06:18.000Z</time>
      </trkpt>
      <trkpt lat="49.66917" lon="4.72659">
        <ele>236</ele>
        <time>2022-04-03T09:06:19.000Z</time>
      </trkpt>
      <trkpt lat="49.66912" lon="4.72657">
        <ele>236</ele>
        <time>2022-04-03T09:06:20.000Z</time>
      </trkpt>
      <trkpt lat="49.66906" lon="4.72654">
        <ele>236</ele>
        <time>2022-04-03T09:06:21.000Z</time>
      </trkpt>
      <trkpt lat="49.66901" lon="4.72653">
        <ele>236</ele>
        <time>2022-04-03T09:06:22.000Z</time>
      </trkpt>
      <trkpt lat="49.66897" lon="4.72653">
        <ele>236</ele>
        <time>2022-04-03T09:06:23.000Z</time>
      </trkpt>
      <trkpt lat="49.66892" lon="4.72654">
        <ele>236</ele>
        <time>2022-04-03T09:06:24.000Z</time>
      </trkpt>
      <trkpt lat="49.66888" lon="4.72657">
        <ele>235</ele>
        <time>2022-04-03T09:06:25.000Z</time>
      </trkpt>
      <trkpt lat="49.66884" lon="4.7266">
        <ele>235</ele>
        <time>2022-04-03T09:06:26.000Z</time>
      </trkpt>
      <trkpt lat="49.6688" lon="4.72664">
        <ele>235</ele>
        <time>2022-04-03T09:06:27.000Z</time>
      </trkpt>
      <trkpt lat="49.66877" lon="4.72668">
        <ele>235</ele>
        <time>2022-04-03T09:06:28.000Z</time>
      </trkpt>
      <trkpt lat="49.66873" lon="4.72671">
        <ele>234</ele>
        <time>2022-04-03T09:06:29.000Z</time>
      </trkpt>
      <trkpt lat="49.66869" lon="4.72675">
        <ele>234</ele>
        <time>2022-04-03T09:06:30.000Z</time>
      </trkpt>
      <trkpt lat="49.66866" lon="4.7268">
        <ele>233</ele>
        <time>2022-04-03T09:06:31.000Z</time>
      </trkpt>
      <trkpt lat="49.66864" lon="4.72684">
        <ele>233</ele>
        <time>2022-04-03T09:06:32.000Z</time>
      </trkpt>
      <trkpt lat="49.66861" lon="4.72688">
        <ele>232</ele>
        <time>2022-04-03T09:06:33.000Z</time>
      </trkpt>
      <trkpt lat="49.66857" lon="4.72692">
        <ele>232</ele>
        <time>2022-04-03T09:06:34.000Z</time>
      </trkpt>
      <trkpt lat="49.66854" lon="4.72693">
        <ele>231</ele>
        <time>2022-04-03T09:06:35.000Z</time>
      </trkpt>
      <trkpt lat="49.66849" lon="4.72693">
        <ele>231</ele>
        <time>2022-04-03T09:06:36.000Z</time>
      </trkpt>
      <trkpt lat="49.66845" lon="4.7269">
        <ele>230</ele>
        <time>2022-04-03T09:06:37.000Z</time>
      </trkpt>
      <trkpt lat="49.66841" lon="4.72686">
        <ele>230</ele>
        <time>2022-04-03T09:06:38.000Z</time>
      </trkpt>
      <trkpt lat="49.66837" lon="4.72682">
        <ele>229</ele>
        <time>2022-04-03T09:06:39.000Z</time>
      </trkpt>
      <trkpt lat="49.66833" lon="4.72678">
        <ele>229</ele>
        <time>2022-04-03T09:06:40.000Z</time>
      </trkpt>
      <trkpt lat="49.66829" lon="4.72674">
        <ele>228</ele>
        <time>2022-04-03T09:06:41.000Z</time>
      </trkpt>
      <trkpt lat="49.66825" lon="4.72669">
        <ele>228</ele>
        <time>2022-04-03T09:06:42.000Z</time>
      </trkpt>
      <trkpt lat="49.6682" lon="4.72664">
        <ele>227</ele>
        <time>2022-04-03T09:06:43.000Z</time>
      </trkpt>
      <trkpt lat="49.66816" lon="4.7266">
        <ele>226</ele>
        <time>2022-04-03T09:06:44.000Z</time>
      </trkpt>
      <trkpt lat="49.66811" lon="4.72656">
        <ele>226</ele>
        <time>2022-04-03T09:06:45.000Z</time>
      </trkpt>
      <trkpt lat="49.66805" lon="4.72653">
        <ele>225</ele>
        <time>2022-04-03T09:06:46.000Z</time>
      </trkpt>
      <trkpt lat="49.66799" lon="4.7265">
        <ele>224</ele>
        <time>2022-04-03T09:06:47.000Z</time>
      </trkpt>
      <trkpt lat="49.66794" lon="4.72647">
        <ele>224</ele>
        <time>2022-04-03T09:06:48.000Z</time>
      </trkpt>
      <trkpt lat="49.66789" lon="4.72643">
        <ele>223</ele>
        <time>2022-04-03T09:06:49.000Z</time>
      </trkpt>
      <trkpt lat="49.66784" lon="4.72639">
        <ele>223</ele>
        <time>2022-04-03T09:06:50.000Z</time>
      </trkpt>
      <trkpt lat="49.6678" lon="4.72635">
        <ele>222</ele>
        <time>2022-04-03T09:06:51.000Z</time>
      </trkpt>
      <trkpt lat="49.66777" lon="4.72634">
        <ele>222</ele>
        <time>2022-04-03T09:06:52.000Z</time>
      </trkpt>
      <trkpt lat="49.66772" lon="4.72633">
        <ele>221</ele>
        <time>2022-04-03T09:06:53.000Z</time>
      </trkpt>
      <trkpt lat="49.66768" lon="4.72631">
        <ele>221</ele>
        <time>2022-04-03T09:06:54.000Z</time>
      </trkpt>
      <trkpt lat="49.66763" lon="4.72629">
        <ele>221</ele>
        <time>2022-04-03T09:06:55.000Z</time>
      </trkpt>
      <trkpt lat="49.66759" lon="4.72627">
        <ele>220</ele>
        <time>2022-04-03T09:06:56.000Z</time>
      </trkpt>
      <trkpt lat="49.66754" lon="4.72625">
        <ele>220</ele>
        <time>2022-04-03T09:06:57.000Z</time>
      </trkpt>
      <trkpt lat="49.6675" lon="4.72622">
        <ele>220</ele>
        <time>2022-04-03T09:06:58.000Z</time>
      </trkpt>
      <trkpt lat="49.66746" lon="4.7262">
        <ele>219</ele>
        <time>2022-04-03T09:06:59.000Z</time>
      </trkpt>
      <trkpt lat="49.66742" lon="4.72619">
        <ele>219</ele>
        <time>2022-04-03T09:07:00.000Z</time>
      </trkpt>
      <trkpt lat="49.66737" lon="4.7262">
        <ele>218</ele>
        <time>2022-04-03T09:07:01.000Z</time>
      </trkpt>
      <trkpt lat="49.66733" lon="4.72621">
        <ele>218</ele>
        <time>2022-04-03T09:07:02.000Z</time>
      </trkpt>
      <trkpt lat="49.66728" lon="4.72623">
        <ele>217</ele>
        <time>2022-04-03T09:07:03.000Z</time>
      </trkpt>
      <trkpt lat="49.66723" lon="4.72623">
        <ele>216</ele>
        <time>2022-04-03T09:07:04.000Z</time>
      </trkpt>
      <trkpt lat="49.66718" lon="4.72621">
        <ele>216</ele>
        <time>2022-04-03T09:07:05.000Z</time>
      </trkpt>
      <trkpt lat="49.66712" lon="4.72619">
        <ele>216</ele>
        <time>2022-04-03T09:07:06.000Z</time>
      </trkpt>
      <trkpt lat="49.66708" lon="4.72616">
        <ele>215</ele>
        <time>2022-04-03T09:07:07.000Z</time>
      </trkpt>
      <trkpt lat="49.66703" lon="4.72614">
        <ele>215</ele>
        <time>2022-04-03T09:07:08.000Z</time>
      </trkpt>
      <trkpt lat="49.66699" lon="4.72612">
        <ele>214</ele>
        <time>2022-04-03T09:07:09.000Z</time>
      </trkpt>
      <trkpt lat="49.66694" lon="4.7261">
        <ele>214</ele>
        <time>2022-04-03T09:07:10.000Z</time>
      </trkpt>
      <trkpt lat="49.66689" lon="4.72608">
        <ele>214</ele>
        <time>2022-04-03T09:07:11.000Z</time>
      </trkpt>
      <trkpt lat="49.66683" lon="4.72607">
        <ele>213</ele>
        <time>2022-04-03T09:07:12.000Z</time>
      </trkpt>
      <trkpt lat="49.66677" lon="4.72605">
        <ele>213</ele>
        <time>2022-04-03T09:07:13.000Z</time>
      </trkpt>
      <trkpt lat="49.66671" lon="4.72604">
        <ele>213</ele>
        <time>2022-04-03T09:07:14.000Z</time>
      </trkpt>
      <trkpt lat="49.66665" lon="4.72602">
        <ele>212</ele>
        <time>2022-04-03T09:07:15.000Z</time>
      </trkpt>
      <trkpt lat="49.6666" lon="4.726">
        <ele>212</ele>
        <time>2022-04-03T09:07:16.000Z</time>
      </trkpt>
      <trkpt lat="49.66654" lon="4.72599">
        <ele>212</ele>
        <time>2022-04-03T09:07:17.000Z</time>
      </trkpt>
      <trkpt lat="49.66649" lon="4.72597">
        <ele>211</ele>
        <time>2022-04-03T09:07:18.000Z</time>
      </trkpt>
      <trkpt lat="49.66645" lon="4.72595">
        <ele>211</ele>
        <time>2022-04-03T09:07:19.000Z</time>
      </trkpt>
      <trkpt lat="49.66641" lon="4.72594">
        <ele>211</ele>
        <time>2022-04-03T09:07:20.000Z</time>
      </trkpt>
      <trkpt lat="49.66636" lon="4.72594">
        <ele>211</ele>
        <time>2022-04-03T09:07:21.000Z</time>
      </trkpt>
      <trkpt lat="49.66631" lon="4.72596">
        <ele>210</ele>
        <time>2022-04-03T09:07:22.000Z</time>
      </trkpt>
      <trkpt lat="49.66625" lon="4.72598">
        <ele>210</ele>
        <time>2022-04-03T09:07:23.000Z</time>
      </trkpt>
      <trkpt lat="49.66621" lon="4.72602">
        <ele>210</ele>
        <time>2022-04-03T09:07:24.000Z</time>
      </trkpt>
      <trkpt lat="49.66617" lon="4.72605">
        <ele>209</ele>
        <time>2022-04-03T09:07:25.000Z</time>
      </trkpt>
      <trkpt lat="49.66614" lon="4.72608">
        <ele>209</ele>
        <time>2022-04-03T09:07:26.000Z</time>
      </trkpt>
      <trkpt lat="49.6661" lon="4.72611">
        <ele>209</ele>
        <time>2022-04-03T09:07:27.000Z</time>
      </trkpt>
      <trkpt lat="49.66606" lon="4.72616">
        <ele>209</ele>
        <time>2022-04-03T09:07:28.000Z</time>
      </trkpt>
      <trkpt lat="49.66602" lon="4.72624">
        <ele>209</ele>
        <time>2022-04-03T09:07:29.000Z</time>
      </trkpt>
      <trkpt lat="49.66598" lon="4.72632">
        <ele>209</ele>
        <time>2022-04-03T09:07:30.000Z</time>
      </trkpt>
      <trkpt lat="49.66593" lon="4.72639">
        <ele>209</ele>
        <time>2022-04-03T09:07:31.000Z</time>
      </trkpt>
      <trkpt lat="49.66589" lon="4.72646">
        <ele>208</ele>
        <time>2022-04-03T09:07:32.000Z</time>
      </trkpt>
      <trkpt lat="49.66584" lon="4.72652">
        <ele>208</ele>
        <time>2022-04-03T09:07:33.000Z</time>
      </trkpt>
      <trkpt lat="49.66579" lon="4.72656">
        <ele>208</ele>
        <time>2022-04-03T09:07:34.000Z</time>
      </trkpt>
      <trkpt lat="49.66573" lon="4.72659">
        <ele>208</ele>
        <time>2022-04-03T09:07:35.000Z</time>
      </trkpt>
      <trkpt lat="49.66568" lon="4.72662">
        <ele>208</ele>
        <time>2022-04-03T09:07:36.000Z</time>
      </trkpt>
      <trkpt lat="49.66562" lon="4.72664">
        <ele>208</ele>
        <time>2022-04-03T09:07:37.000Z</time>
      </trkpt>
      <trkpt lat="49.66557" lon="4.72665">
        <ele>208</ele>
        <time>2022-04-03T09:07:38.000Z</time>
      </trkpt>
      <trkpt lat="49.66553" lon="4.72665">
        <ele>208</ele>
        <time>2022-04-03T09:07:39.000Z</time>
      </trkpt>
      <trkpt lat="49.66549" lon="4.72664">
        <ele>207</ele>
        <time>2022-04-03T09:07:40.000Z</time>
      </trkpt>
      <trkpt lat="49.66546" lon="4.72662">
        <ele>207</ele>
        <time>2022-04-03T09:07:41.000Z</time>
      </trkpt>
      <trkpt lat="49.66543" lon="4.72659">
        <ele>207</ele>
        <time>2022-04-03T09:07:42.000Z</time>
      </trkpt>
      <trkpt lat="49.66539" lon="4.72657">
        <ele>207</ele>
        <time>2022-04-03T09:07:43.000Z</time>
      </trkpt>
      <trkpt lat="49.66536" lon="4.72656">
        <ele>207</ele>
        <time>2022-04-03T09:07:44.000Z</time>
      </trkpt>
      <trkpt lat="49.66533" lon="4.72655">
        <ele>207</ele>
        <time>2022-04-03T09:07:45.000Z</time>
      </trkpt>
      <trkpt lat="49.66531" lon="4.72654">
        <ele>207</ele>
        <time>2022-04-03T09:07:46.000Z</time>
      </trkpt>
      <trkpt lat="49.66527" lon="4.72654">
        <ele>206</ele>
        <time>2022-04-03T09:07:47.000Z</time>
      </trkpt>
      <trkpt lat="49.66524" lon="4.72654">
        <ele>206</ele>
        <time>2022-04-03T09:07:48.000Z</time>
      </trkpt>
      <trkpt lat="49.66521" lon="4.72655">
        <ele>206</ele>
        <time>2022-04-03T09:07:49.000Z</time>
      </trkpt>
      <trkpt lat="49.66518" lon="4.72656">
        <ele>207</ele>
        <time>2022-04-03T09:07:50.000Z</time>
      </trkpt>
      <trkpt lat="49.66514" lon="4.72657">
        <ele>207</ele>
        <time>2022-04-03T09:07:51.000Z</time>
      </trkpt>
      <trkpt lat="49.6651" lon="4.7266">
        <ele>207</ele>
        <time>2022-04-03T09:07:52.000Z</time>
      </trkpt>
      <trkpt lat="49.66507" lon="4.72662">
        <ele>207</ele>
        <time>2022-04-03T09:07:53.000Z</time>
      </trkpt>
      <trkpt lat="49.66503" lon="4.72663">
        <ele>207</ele>
        <time>2022-04-03T09:07:54.000Z</time>
      </trkpt>
      <trkpt lat="49.66499" lon="4.72666">
        <ele>207</ele>
        <time>2022-04-03T09:07:55.000Z</time>
      </trkpt>
      <trkpt lat="49.66495" lon="4.72667">
        <ele>207</ele>
        <time>2022-04-03T09:07:56.000Z</time>
      </trkpt>
      <trkpt lat="49.66492" lon="4.72668">
        <ele>207</ele>
        <time>2022-04-03T09:07:57.000Z</time>
      </trkpt>
      <trkpt lat="49.66489" lon="4.7267">
        <ele>207</ele>
        <time>2022-04-03T09:07:58.000Z</time>
      </trkpt>
      <trkpt lat="49.66485" lon="4.72671">
        <ele>207</ele>
        <time>2022-04-03T09:07:59.000Z</time>
      </trkpt>
      <trkpt lat="49.66481" lon="4.72673">
        <ele>207</ele>
        <time>2022-04-03T09:08:00.000Z</time>
      </trkpt>
      <trkpt lat="49.66477" lon="4.72674">
        <ele>207</ele>
        <time>2022-04-03T09:08:01.000Z</time>
      </trkpt>
      <trkpt lat="49.66474" lon="4.72675">
        <ele>207</ele>
        <time>2022-04-03T09:08:02.000Z</time>
      </trkpt>
      <trkpt lat="49.6647" lon="4.72677">
        <ele>207</ele>
        <time>2022-04-03T09:08:03.000Z</time>
      </trkpt>
      <trkpt lat="49.66466" lon="4.72678">
        <ele>207</ele>
        <time>2022-04-03T09:08:04.000Z</time>
      </trkpt>
      <trkpt lat="49.66463" lon="4.72679">
        <ele>207</ele>
        <time>2022-04-03T09:08:05.000Z</time>
      </trkpt>
      <trkpt lat="49.6646" lon="4.72679">
        <ele>207</ele>
        <time>2022-04-03T09:08:06.000Z</time>
      </trkpt>
      <trkpt lat="49.66457" lon="4.7268">
        <ele>207</ele>
        <time>2022-04-03T09:08:07.000Z</time>
      </trkpt>
      <trkpt lat="49.66454" lon="4.7268">
        <ele>208</ele>
        <time>2022-04-03T09:08:08.000Z</time>
      </trkpt>
      <trkpt lat="49.66452" lon="4.72681">
        <ele>208</ele>
        <time>2022-04-03T09:08:09.000Z</time>
      </trkpt>
      <trkpt lat="49.66448" lon="4.72681">
        <ele>208</ele>
        <time>2022-04-03T09:08:10.000Z</time>
      </trkpt>
      <trkpt lat="49.66445" lon="4.72682">
        <ele>208</ele>
        <time>2022-04-03T09:08:11.000Z</time>
      </trkpt>
      <trkpt lat="49.66441" lon="4.72683">
        <ele>208</ele>
        <time>2022-04-03T09:08:12.000Z</time>
      </trkpt>
      <trkpt lat="49.66438" lon="4.72684">
        <ele>209</ele>
        <time>2022-04-03T09:08:13.000Z</time>
      </trkpt>
      <trkpt lat="49.66434" lon="4.72685">
        <ele>209</ele>
        <time>2022-04-03T09:08:14.000Z</time>
      </trkpt>
      <trkpt lat="49.6643" lon="4.72686">
        <ele>209</ele>
        <time>2022-04-03T09:08:15.000Z</time>
      </trkpt>
      <trkpt lat="49.66427" lon="4.72686">
        <ele>209</ele>
        <time>2022-04-03T09:08:16.000Z</time>
      </trkpt>
      <trkpt lat="49.66423" lon="4.72687">
        <ele>209</ele>
        <time>2022-04-03T09:08:17.000Z</time>
      </trkpt>
      <trkpt lat="49.6642" lon="4.72688">
        <ele>209</ele>
        <time>2022-04-03T09:08:18.000Z</time>
      </trkpt>
      <trkpt lat="49.66417" lon="4.72688">
        <ele>210</ele>
        <time>2022-04-03T09:08:19.000Z</time>
      </trkpt>
      <trkpt lat="49.66415" lon="4.72688">
        <ele>210</ele>
        <time>2022-04-03T09:08:20.000Z</time>
      </trkpt>
      <trkpt lat="49.66412" lon="4.72689">
        <ele>210</ele>
        <time>2022-04-03T09:08:21.000Z</time>
      </trkpt>
      <trkpt lat="49.6641" lon="4.7269">
        <ele>210</ele>
        <time>2022-04-03T09:08:22.000Z</time>
      </trkpt>
      <trkpt lat="49.66406" lon="4.72691">
        <ele>211</ele>
        <time>2022-04-03T09:08:23.000Z</time>
      </trkpt>
      <trkpt lat="49.66403" lon="4.72691">
        <ele>211</ele>
        <time>2022-04-03T09:08:24.000Z</time>
      </trkpt>
      <trkpt lat="49.664" lon="4.72691">
        <ele>211</ele>
        <time>2022-04-03T09:08:25.000Z</time>
      </trkpt>
      <trkpt lat="49.66397" lon="4.72692">
        <ele>212</ele>
        <time>2022-04-03T09:08:26.000Z</time>
      </trkpt>
      <trkpt lat="49.66394" lon="4.72693">
        <ele>212</ele>
        <time>2022-04-03T09:08:27.000Z</time>
      </trkpt>
      <trkpt lat="49.66391" lon="4.72694">
        <ele>212</ele>
        <time>2022-04-03T09:08:28.000Z</time>
      </trkpt>
      <trkpt lat="49.66388" lon="4.72695">
        <ele>213</ele>
        <time>2022-04-03T09:08:29.000Z</time>
      </trkpt>
      <trkpt lat="49.66385" lon="4.72697">
        <ele>213</ele>
        <time>2022-04-03T09:08:30.000Z</time>
      </trkpt>
      <trkpt lat="49.66382" lon="4.72699">
        <ele>213</ele>
        <time>2022-04-03T09:08:31.000Z</time>
      </trkpt>
      <trkpt lat="49.66379" lon="4.727">
        <ele>213</ele>
        <time>2022-04-03T09:08:32.000Z</time>
      </trkpt>
      <trkpt lat="49.66377" lon="4.72702">
        <ele>214</ele>
        <time>2022-04-03T09:08:33.000Z</time>
      </trkpt>
      <trkpt lat="49.66374" lon="4.72705">
        <ele>214</ele>
        <time>2022-04-03T09:08:34.000Z</time>
      </trkpt>
      <trkpt lat="49.66372" lon="4.72707">
        <ele>214</ele>
        <time>2022-04-03T09:08:35.000Z</time>
      </trkpt>
      <trkpt lat="49.66369" lon="4.72709">
        <ele>215</ele>
        <time>2022-04-03T09:08:36.000Z</time>
      </trkpt>
      <trkpt lat="49.66366" lon="4.72711">
        <ele>215</ele>
        <time>2022-04-03T09:08:37.000Z</time>
      </trkpt>
      <trkpt lat="49.66363" lon="4.72714">
        <ele>215</ele>
        <time>2022-04-03T09:08:38.000Z</time>
      </trkpt>
      <trkpt lat="49.6636" lon="4.72716">
        <ele>216</ele>
        <time>2022-04-03T09:08:39.000Z</time>
      </trkpt>
      <trkpt lat="49.66357" lon="4.72719">
        <ele>216</ele>
        <time>2022-04-03T09:08:40.000Z</time>
      </trkpt>
      <trkpt lat="49.66354" lon="4.72721">
        <ele>216</ele>
        <time>2022-04-03T09:08:41.000Z</time>
      </trkpt>
      <trkpt lat="49.66351" lon="4.72724">
        <ele>216</ele>
        <time>2022-04-03T09:08:42.000Z</time>
      </trkpt>
      <trkpt lat="49.66349" lon="4.72727">
        <ele>217</ele>
        <time>2022-04-03T09:08:43.000Z</time>
      </trkpt>
      <trkpt lat="49.66346" lon="4.72729">
        <ele>217</ele>
        <time>2022-04-03T09:08:44.000Z</time>
      </trkpt>
      <trkpt lat="49.66343" lon="4.72732">
        <ele>217</ele>
        <time>2022-04-03T09:08:45.000Z</time>
      </trkpt>
      <trkpt lat="49.6634" lon="4.72734">
        <ele>218</ele>
        <time>2022-04-03T09:08:46.000Z</time>
      </trkpt>
      <trkpt lat="49.66337" lon="4.72736">
        <ele>218</ele>
        <time>2022-04-03T09:08:47.000Z</time>
      </trkpt>
      <trkpt lat="49.66334" lon="4.72737">
        <ele>218</ele>
        <time>2022-04-03T09:08:48.000Z</time>
      </trkpt>
      <trkpt lat="49.66331" lon="4.72739">
        <ele>218</ele>
        <time>2022-04-03T09:08:49.000Z</time>
      </trkpt>
      <trkpt lat="49.66328" lon="4.72739">
        <ele>219</ele>
        <time>2022-04-03T09:08:50.000Z</time>
      </trkpt>
      <trkpt lat="49.66326" lon="4.7274">
        <ele>219</ele>
        <time>2022-04-03T09:08:51.000Z</time>
      </trkpt>
      <trkpt lat="49.66323" lon="4.7274">
        <ele>219</ele>
        <time>2022-04-03T09:08:52.000Z</time>
      </trkpt>
      <trkpt lat="49.6632" lon="4.72741">
        <ele>219</ele>
        <time>2022-04-03T09:08:53.000Z</time>
      </trkpt>
      <trkpt lat="49.66317" lon="4.72742">
        <ele>219</ele>
        <time>2022-04-03T09:08:54.000Z</time>
      </trkpt>
      <trkpt lat="49.66314" lon="4.72742">
        <ele>219</ele>
        <time>2022-04-03T09:08:55.000Z</time>
      </trkpt>
      <trkpt lat="49.66312" lon="4.72742">
        <ele>219</ele>
        <time>2022-04-03T09:08:56.000Z</time>
      </trkpt>
      <trkpt lat="49.66309" lon="4.72742">
        <ele>219</ele>
        <time>2022-04-03T09:08:57.000Z</time>
      </trkpt>
      <trkpt lat="49.66305" lon="4.72743">
        <ele>219</ele>
        <time>2022-04-03T09:08:58.000Z</time>
      </trkpt>
      <trkpt lat="49.66302" lon="4.72743">
        <ele>219</ele>
        <time>2022-04-03T09:08:59.000Z</time>
      </trkpt>
      <trkpt lat="49.66299" lon="4.72743">
        <ele>219</ele>
        <time>2022-04-03T09:09:00.000Z</time>
      </trkpt>
      <trkpt lat="49.66295" lon="4.72743">
        <ele>220</ele>
        <time>2022-04-03T09:09:01.000Z</time>
      </trkpt>
      <trkpt lat="49.66292" lon="4.72743">
        <ele>220</ele>
        <time>2022-04-03T09:09:02.000Z</time>
      </trkpt>
      <trkpt lat="49.66289" lon="4.72743">
        <ele>220</ele>
        <time>2022-04-03T09:09:03.000Z</time>
      </trkpt>
      <trkpt lat="49.66286" lon="4.72743">
        <ele>220</ele>
        <time>2022-04-03T09:09:04.000Z</time>
      </trkpt>
      <trkpt lat="49.66283" lon="4.72742">
        <ele>220</ele>
        <time>2022-04-03T09:09:05.000Z</time>
      </trkpt>
      <trkpt lat="49.6628" lon="4.72742">
        <ele>220</ele>
        <time>2022-04-03T09:09:06.000Z</time>
      </trkpt>
      <trkpt lat="49.66278" lon="4.72743">
        <ele>221</ele>
        <time>2022-04-03T09:09:07.000Z</time>
      </trkpt>
      <trkpt lat="49.66276" lon="4.72743">
        <ele>221</ele>
        <time>2022-04-03T09:09:08.000Z</time>
      </trkpt>
      <trkpt lat="49.66273" lon="4.72744">
        <ele>221</ele>
        <time>2022-04-03T09:09:09.000Z</time>
      </trkpt>
      <trkpt lat="49.6627" lon="4.72743">
        <ele>221</ele>
        <time>2022-04-03T09:09:10.000Z</time>
      </trkpt>
      <trkpt lat="49.66267" lon="4.72743">
        <ele>221</ele>
        <time>2022-04-03T09:09:11.000Z</time>
      </trkpt>
      <trkpt lat="49.66263" lon="4.72742">
        <ele>222</ele>
        <time>2022-04-03T09:09:12.000Z</time>
      </trkpt>
      <trkpt lat="49.6626" lon="4.72742">
        <ele>222</ele>
        <time>2022-04-03T09:09:13.000Z</time>
      </trkpt>
      <trkpt lat="49.66256" lon="4.72741">
        <ele>222</ele>
        <time>2022-04-03T09:09:14.000Z</time>
      </trkpt>
      <trkpt lat="49.66252" lon="4.7274">
        <ele>222</ele>
        <time>2022-04-03T09:09:15.000Z</time>
      </trkpt>
      <trkpt lat="49.66249" lon="4.72739">
        <ele>222</ele>
        <time>2022-04-03T09:09:16.000Z</time>
      </trkpt>
      <trkpt lat="49.66246" lon="4.72738">
        <ele>222</ele>
        <time>2022-04-03T09:09:17.000Z</time>
      </trkpt>
      <trkpt lat="49.66243" lon="4.72737">
        <ele>222</ele>
        <time>2022-04-03T09:09:18.000Z</time>
      </trkpt>
      <trkpt lat="49.66241" lon="4.72735">
        <ele>222</ele>
        <time>2022-04-03T09:09:19.000Z</time>
      </trkpt>
      <trkpt lat="49.66238" lon="4.72733">
        <ele>222</ele>
        <time>2022-04-03T09:09:20.000Z</time>
      </trkpt>
      <trkpt lat="49.66236" lon="4.72732">
        <ele>222</ele>
        <time>2022-04-03T09:09:21.000Z</time>
      </trkpt>
      <trkpt lat="49.66233" lon="4.72729">
        <ele>222</ele>
        <time>2022-04-03T09:09:22.000Z</time>
      </trkpt>
      <trkpt lat="49.66231" lon="4.72727">
        <ele>222</ele>
        <time>2022-04-03T09:09:23.000Z</time>
      </trkpt>
      <trkpt lat="49.66228" lon="4.72724">
        <ele>222</ele>
        <time>2022-04-03T09:09:24.000Z</time>
      </trkpt>
      <trkpt lat="49.66226" lon="4.72722">
        <ele>222</ele>
        <time>2022-04-03T09:09:25.000Z</time>
      </trkpt>
      <trkpt lat="49.66224" lon="4.72719">
        <ele>223</ele>
        <time>2022-04-03T09:09:26.000Z</time>
      </trkpt>
      <trkpt lat="49.66221" lon="4.72716">
        <ele>223</ele>
        <time>2022-04-03T09:09:27.000Z</time>
      </trkpt>
      <trkpt lat="49.66219" lon="4.72713">
        <ele>223</ele>
        <time>2022-04-03T09:09:28.000Z</time>
      </trkpt>
      <trkpt lat="49.66216" lon="4.7271">
        <ele>223</ele>
        <time>2022-04-03T09:09:29.000Z</time>
      </trkpt>
      <trkpt lat="49.66214" lon="4.72706">
        <ele>223</ele>
        <time>2022-04-03T09:09:30.000Z</time>
      </trkpt>
      <trkpt lat="49.66212" lon="4.72702">
        <ele>223</ele>
        <time>2022-04-03T09:09:31.000Z</time>
      </trkpt>
      <trkpt lat="49.6621" lon="4.72699">
        <ele>223</ele>
        <time>2022-04-03T09:09:32.000Z</time>
      </trkpt>
      <trkpt lat="49.66207" lon="4.72695">
        <ele>223</ele>
        <time>2022-04-03T09:09:33.000Z</time>
      </trkpt>
      <trkpt lat="49.66205" lon="4.72692">
        <ele>223</ele>
        <time>2022-04-03T09:09:34.000Z</time>
      </trkpt>
      <trkpt lat="49.66202" lon="4.72689">
        <ele>223</ele>
        <time>2022-04-03T09:09:35.000Z</time>
      </trkpt>
      <trkpt lat="49.66201" lon="4.72685">
        <ele>223</ele>
        <time>2022-04-03T09:09:36.000Z</time>
      </trkpt>
      <trkpt lat="49.66199" lon="4.72682">
        <ele>223</ele>
        <time>2022-04-03T09:09:37.000Z</time>
      </trkpt>
      <trkpt lat="49.66196" lon="4.72679">
        <ele>223</ele>
        <time>2022-04-03T09:09:38.000Z</time>
      </trkpt>
      <trkpt lat="49.66194" lon="4.72676">
        <ele>223</ele>
        <time>2022-04-03T09:09:39.000Z</time>
      </trkpt>
      <trkpt lat="49.66193" lon="4.72673">
        <ele>223</ele>
        <time>2022-04-03T09:09:40.000Z</time>
      </trkpt>
      <trkpt lat="49.66191" lon="4.72669">
        <ele>223</ele>
        <time>2022-04-03T09:09:41.000Z</time>
      </trkpt>
      <trkpt lat="49.66189" lon="4.72666">
        <ele>223</ele>
        <time>2022-04-03T09:09:42.000Z</time>
      </trkpt>
      <trkpt lat="49.66187" lon="4.72663">
        <ele>223</ele>
        <time>2022-04-03T09:09:43.000Z</time>
      </trkpt>
      <trkpt lat="49.66185" lon="4.72661">
        <ele>223</ele>
        <time>2022-04-03T09:09:44.000Z</time>
      </trkpt>
      <trkpt lat="49.66183" lon="4.72657">
        <ele>223</ele>
        <time>2022-04-03T09:09:45.000Z</time>
      </trkpt>
      <trkpt lat="49.66181" lon="4.72655">
        <ele>223</ele>
        <time>2022-04-03T09:09:46.000Z</time>
      </trkpt>
      <trkpt lat="49.66179" lon="4.72652">
        <ele>223</ele>
        <time>2022-04-03T09:09:47.000Z</time>
      </trkpt>
      <trkpt lat="49.66177" lon="4.72649">
        <ele>223</ele>
        <time>2022-04-03T09:09:48.000Z</time>
      </trkpt>
      <trkpt lat="49.66176" lon="4.72646">
        <ele>223</ele>
        <time>2022-04-03T09:09:49.000Z</time>
      </trkpt>
      <trkpt lat="49.66173" lon="4.72643">
        <ele>223</ele>
        <time>2022-04-03T09:09:50.000Z</time>
      </trkpt>
      <trkpt lat="49.66171" lon="4.72641">
        <ele>223</ele>
        <time>2022-04-03T09:09:51.000Z</time>
      </trkpt>
      <trkpt lat="49.66169" lon="4.72639">
        <ele>223</ele>
        <time>2022-04-03T09:09:52.000Z</time>
      </trkpt>
      <trkpt lat="49.66167" lon="4.72637">
        <ele>223</ele>
        <time>2022-04-03T09:09:53.000Z</time>
      </trkpt>
      <trkpt lat="49.66164" lon="4.72635">
        <ele>223</ele>
        <time>2022-04-03T09:09:54.000Z</time>
      </trkpt>
      <trkpt lat="49.66162" lon="4.72633">
        <ele>224</ele>
        <time>2022-04-03T09:09:55.000Z</time>
      </trkpt>
      <trkpt lat="49.6616" lon="4.72631">
        <ele>224</ele>
        <time>2022-04-03T09:09:56.000Z</time>
      </trkpt>
      <trkpt lat="49.66157" lon="4.7263">
        <ele>224</ele>
        <time>2022-04-03T09:09:57.000Z</time>
      </trkpt>
      <trkpt lat="49.66155" lon="4.7263">
        <ele>224</ele>
        <time>2022-04-03T09:09:58.000Z</time>
      </trkpt>
      <trkpt lat="49.66152" lon="4.72629">
        <ele>224</ele>
        <time>2022-04-03T09:09:59.000Z</time>
      </trkpt>
      <trkpt lat="49.6615" lon="4.72629">
        <ele>224</ele>
        <time>2022-04-03T09:10:00.000Z</time>
      </trkpt>
      <trkpt lat="49.66147" lon="4.72629">
        <ele>224</ele>
        <time>2022-04-03T09:10:01.000Z</time>
      </trkpt>
      <trkpt lat="49.66145" lon="4.72629">
        <ele>224</ele>
        <time>2022-04-03T09:10:02.000Z</time>
      </trkpt>
      <trkpt lat="49.66142" lon="4.72629">
        <ele>224</ele>
        <time>2022-04-03T09:10:03.000Z</time>
      </trkpt>
      <trkpt lat="49.66141" lon="4.7263">
        <ele>224</ele>
        <time>2022-04-03T09:10:04.000Z</time>
      </trkpt>
      <trkpt lat="49.66139" lon="4.7263">
        <ele>224</ele>
        <time>2022-04-03T09:10:05.000Z</time>
      </trkpt>
      <trkpt lat="49.66137" lon="4.7263">
        <ele>224</ele>
        <time>2022-04-03T09:10:06.000Z</time>
      </trkpt>
      <trkpt lat="49.66135" lon="4.72629">
        <ele>224</ele>
        <time>2022-04-03T09:10:07.000Z</time>
      </trkpt>
      <trkpt lat="49.66134" lon="4.72627">
        <ele>224</ele>
        <time>2022-04-03T09:10:08.000Z</time>
      </trkpt>
      <trkpt lat="49.66132" lon="4.72625">
        <ele>224</ele>
        <time>2022-04-03T09:10:09.000Z</time>
      </trkpt>
      <trkpt lat="49.66131" lon="4.72622">
        <ele>224</ele>
        <time>2022-04-03T09:10:10.000Z</time>
      </trkpt>
      <trkpt lat="49.6613" lon="4.72619">
        <ele>223</ele>
        <time>2022-04-03T09:10:11.000Z</time>
      </trkpt>
      <trkpt lat="49.6613" lon="4.72616">
        <ele>223</ele>
        <time>2022-04-03T09:10:12.000Z</time>
      </trkpt>
      <trkpt lat="49.66131" lon="4.72613">
        <ele>223</ele>
        <time>2022-04-03T09:10:13.000Z</time>
      </trkpt>
      <trkpt lat="49.66132" lon="4.72608">
        <ele>223</ele>
        <time>2022-04-03T09:10:14.000Z</time>
      </trkpt>
      <trkpt lat="49.66133" lon="4.72602">
        <ele>223</ele>
        <time>2022-04-03T09:10:15.000Z</time>
      </trkpt>
      <trkpt lat="49.66135" lon="4.72597">
        <ele>223</ele>
        <time>2022-04-03T09:10:16.000Z</time>
      </trkpt>
      <trkpt lat="49.66137" lon="4.72592">
        <ele>223</ele>
        <time>2022-04-03T09:10:17.000Z</time>
      </trkpt>
      <trkpt lat="49.66139" lon="4.72588">
        <ele>223</ele>
        <time>2022-04-03T09:10:18.000Z</time>
      </trkpt>
      <trkpt lat="49.66142" lon="4.72584">
        <ele>223</ele>
        <time>2022-04-03T09:10:19.000Z</time>
      </trkpt>
      <trkpt lat="49.66146" lon="4.7258">
        <ele>223</ele>
        <time>2022-04-03T09:10:20.000Z</time>
      </trkpt>
      <trkpt lat="49.66148" lon="4.72577">
        <ele>223</ele>
        <time>2022-04-03T09:10:21.000Z</time>
      </trkpt>
      <trkpt lat="49.66151" lon="4.72575">
        <ele>223</ele>
        <time>2022-04-03T09:10:22.000Z</time>
      </trkpt>
      <trkpt lat="49.66154" lon="4.72575">
        <ele>223</ele>
        <time>2022-04-03T09:10:23.000Z</time>
      </trkpt>
      <trkpt lat="49.66157" lon="4.72576">
        <ele>223</ele>
        <time>2022-04-03T09:10:24.000Z</time>
      </trkpt>
      <trkpt lat="49.6616" lon="4.72576">
        <ele>223</ele>
        <time>2022-04-03T09:10:25.000Z</time>
      </trkpt>
      <trkpt lat="49.66162" lon="4.72577">
        <ele>224</ele>
        <time>2022-04-03T09:10:26.000Z</time>
      </trkpt>
      <trkpt lat="49.66165" lon="4.72577">
        <ele>224</ele>
        <time>2022-04-03T09:10:27.000Z</time>
      </trkpt>
      <trkpt lat="49.66167" lon="4.72578">
        <ele>224</ele>
        <time>2022-04-03T09:10:28.000Z</time>
      </trkpt>
      <trkpt lat="49.66169" lon="4.72579">
        <ele>224</ele>
        <time>2022-04-03T09:10:29.000Z</time>
      </trkpt>
      <trkpt lat="49.66172" lon="4.72581">
        <ele>224</ele>
        <time>2022-04-03T09:10:30.000Z</time>
      </trkpt>
      <trkpt lat="49.66172" lon="4.72581">
        <ele>224</ele>
        <time>2022-04-03T09:10:31.000Z</time>
      </trkpt>
      <trkpt lat="49.66173" lon="4.72582">
        <ele>224</ele>
        <time>2022-04-03T09:10:32.000Z</time>
      </trkpt>
      <trkpt lat="49.66175" lon="4.72583">
        <ele>224</ele>
        <time>2022-04-03T09:10:33.000Z</time>
      </trkpt>
      <trkpt lat="49.66177" lon="4.72584">
        <ele>224</ele>
        <time>2022-04-03T09:10:34.000Z</time>
      </trkpt>
      <trkpt lat="49.6618" lon="4.72587">
        <ele>224</ele>
        <time>2022-04-03T09:10:35.000Z</time>
      </trkpt>
      <trkpt lat="49.66182" lon="4.72589">
        <ele>224</ele>
        <time>2022-04-03T09:10:36.000Z</time>
      </trkpt>
      <trkpt lat="49.66184" lon="4.72591">
        <ele>224</ele>
        <time>2022-04-03T09:10:37.000Z</time>
      </trkpt>
      <trkpt lat="49.66187" lon="4.72593">
        <ele>224</ele>
        <time>2022-04-03T09:10:38.000Z</time>
      </trkpt>
      <trkpt lat="49.6619" lon="4.72596">
        <ele>224</ele>
        <time>2022-04-03T09:10:39.000Z</time>
      </trkpt>
      <trkpt lat="49.66193" lon="4.72599">
        <ele>224</ele>
        <time>2022-04-03T09:10:40.000Z</time>
      </trkpt>
      <trkpt lat="49.66195" lon="4.72601">
        <ele>224</ele>
        <time>2022-04-03T09:10:41.000Z</time>
      </trkpt>
      <trkpt lat="49.66197" lon="4.72603">
        <ele>224</ele>
        <time>2022-04-03T09:10:42.000Z</time>
      </trkpt>
      <trkpt lat="49.662" lon="4.72604">
        <ele>224</ele>
        <time>2022-04-03T09:10:43.000Z</time>
      </trkpt>
      <trkpt lat="49.66202" lon="4.72606">
        <ele>224</ele>
        <time>2022-04-03T09:10:44.000Z</time>
      </trkpt>
      <trkpt lat="49.66204" lon="4.72608">
        <ele>225</ele>
        <time>2022-04-03T09:10:45.000Z</time>
      </trkpt>
      <trkpt lat="49.66207" lon="4.7261">
        <ele>225</ele>
        <time>2022-04-03T09:10:46.000Z</time>
      </trkpt>
      <trkpt lat="49.66209" lon="4.72613">
        <ele>225</ele>
        <time>2022-04-03T09:10:47.000Z</time>
      </trkpt>
      <trkpt lat="49.66212" lon="4.72615">
        <ele>225</ele>
        <time>2022-04-03T09:10:48.000Z</time>
      </trkpt>
      <trkpt lat="49.66215" lon="4.72616">
        <ele>225</ele>
        <time>2022-04-03T09:10:49.000Z</time>
      </trkpt>
      <trkpt lat="49.66217" lon="4.72618">
        <ele>226</ele>
        <time>2022-04-03T09:10:50.000Z</time>
      </trkpt>
      <trkpt lat="49.66219" lon="4.72619">
        <ele>226</ele>
        <time>2022-04-03T09:10:51.000Z</time>
      </trkpt>
      <trkpt lat="49.66222" lon="4.72619">
        <ele>226</ele>
        <time>2022-04-03T09:10:52.000Z</time>
      </trkpt>
      <trkpt lat="49.66225" lon="4.72619">
        <ele>227</ele>
        <time>2022-04-03T09:10:53.000Z</time>
      </trkpt>
      <trkpt lat="49.66228" lon="4.72619">
        <ele>227</ele>
        <time>2022-04-03T09:10:54.000Z</time>
      </trkpt>
      <trkpt lat="49.6623" lon="4.72619">
        <ele>227</ele>
        <time>2022-04-03T09:10:55.000Z</time>
      </trkpt>
      <trkpt lat="49.66233" lon="4.72619">
        <ele>228</ele>
        <time>2022-04-03T09:10:56.000Z</time>
      </trkpt>
      <trkpt lat="49.66235" lon="4.72618">
        <ele>228</ele>
        <time>2022-04-03T09:10:57.000Z</time>
      </trkpt>
      <trkpt lat="49.66238" lon="4.72617">
        <ele>228</ele>
        <time>2022-04-03T09:10:58.000Z</time>
      </trkpt>
      <trkpt lat="49.66241" lon="4.72615">
        <ele>228</ele>
        <time>2022-04-03T09:10:59.000Z</time>
      </trkpt>
      <trkpt lat="49.66243" lon="4.72614">
        <ele>229</ele>
        <time>2022-04-03T09:11:00.000Z</time>
      </trkpt>
      <trkpt lat="49.66245" lon="4.72612">
        <ele>229</ele>
        <time>2022-04-03T09:11:01.000Z</time>
      </trkpt>
      <trkpt lat="49.66248" lon="4.7261">
        <ele>229</ele>
        <time>2022-04-03T09:11:02.000Z</time>
      </trkpt>
      <trkpt lat="49.6625" lon="4.72607">
        <ele>229</ele>
        <time>2022-04-03T09:11:03.000Z</time>
      </trkpt>
      <trkpt lat="49.66252" lon="4.72604">
        <ele>230</ele>
        <time>2022-04-03T09:11:04.000Z</time>
      </trkpt>
      <trkpt lat="49.66254" lon="4.72601">
        <ele>230</ele>
        <time>2022-04-03T09:11:05.000Z</time>
      </trkpt>
      <trkpt lat="49.66255" lon="4.72599">
        <ele>230</ele>
        <time>2022-04-03T09:11:06.000Z</time>
      </trkpt>
      <trkpt lat="49.66257" lon="4.72596">
        <ele>230</ele>
        <time>2022-04-03T09:11:07.000Z</time>
      </trkpt>
      <trkpt lat="49.66259" lon="4.72593">
        <ele>230</ele>
        <time>2022-04-03T09:11:08.000Z</time>
      </trkpt>
      <trkpt lat="49.6626" lon="4.7259">
        <ele>231</ele>
        <time>2022-04-03T09:11:09.000Z</time>
      </trkpt>
      <trkpt lat="49.66261" lon="4.72587">
        <ele>231</ele>
        <time>2022-04-03T09:11:10.000Z</time>
      </trkpt>
      <trkpt lat="49.66263" lon="4.72584">
        <ele>231</ele>
        <time>2022-04-03T09:11:11.000Z</time>
      </trkpt>
      <trkpt lat="49.66263" lon="4.72581">
        <ele>231</ele>
        <time>2022-04-03T09:11:12.000Z</time>
      </trkpt>
      <trkpt lat="49.66265" lon="4.72578">
        <ele>231</ele>
        <time>2022-04-03T09:11:13.000Z</time>
      </trkpt>
      <trkpt lat="49.66266" lon="4.72575">
        <ele>231</ele>
        <time>2022-04-03T09:11:14.000Z</time>
      </trkpt>
      <trkpt lat="49.66267" lon="4.72572">
        <ele>232</ele>
        <time>2022-04-03T09:11:15.000Z</time>
      </trkpt>
      <trkpt lat="49.66268" lon="4.72569">
        <ele>232</ele>
        <time>2022-04-03T09:11:16.000Z</time>
      </trkpt>
      <trkpt lat="49.66268" lon="4.72566">
        <ele>232</ele>
        <time>2022-04-03T09:11:17.000Z</time>
      </trkpt>
      <trkpt lat="49.6627" lon="4.72563">
        <ele>232</ele>
        <time>2022-04-03T09:11:18.000Z</time>
      </trkpt>
      <trkpt lat="49.6627" lon="4.7256">
        <ele>232</ele>
        <time>2022-04-03T09:11:19.000Z</time>
      </trkpt>
      <trkpt lat="49.66271" lon="4.72556">
        <ele>233</ele>
        <time>2022-04-03T09:11:20.000Z</time>
      </trkpt>
      <trkpt lat="49.66273" lon="4.72553">
        <ele>233</ele>
        <time>2022-04-03T09:11:21.000Z</time>
      </trkpt>
      <trkpt lat="49.66274" lon="4.7255">
        <ele>233</ele>
        <time>2022-04-03T09:11:22.000Z</time>
      </trkpt>
      <trkpt lat="49.66275" lon="4.72547">
        <ele>234</ele>
        <time>2022-04-03T09:11:23.000Z</time>
      </trkpt>
      <trkpt lat="49.66276" lon="4.72544">
        <ele>234</ele>
        <time>2022-04-03T09:11:24.000Z</time>
      </trkpt>
      <trkpt lat="49.66277" lon="4.72541">
        <ele>234</ele>
        <time>2022-04-03T09:11:25.000Z</time>
      </trkpt>
      <trkpt lat="49.66278" lon="4.72538">
        <ele>234</ele>
        <time>2022-04-03T09:11:26.000Z</time>
      </trkpt>
      <trkpt lat="49.66279" lon="4.72535">
        <ele>235</ele>
        <time>2022-04-03T09:11:27.000Z</time>
      </trkpt>
      <trkpt lat="49.6628" lon="4.72532">
        <ele>235</ele>
        <time>2022-04-03T09:11:28.000Z</time>
      </trkpt>
      <trkpt lat="49.66281" lon="4.72528">
        <ele>235</ele>
        <time>2022-04-03T09:11:29.000Z</time>
      </trkpt>
      <trkpt lat="49.66281" lon="4.72525">
        <ele>236</ele>
        <time>2022-04-03T09:11:30.000Z</time>
      </trkpt>
      <trkpt lat="49.66282" lon="4.72521">
        <ele>236</ele>
        <time>2022-04-03T09:11:31.000Z</time>
      </trkpt>
      <trkpt lat="49.66283" lon="4.72518">
        <ele>236</ele>
        <time>2022-04-03T09:11:32.000Z</time>
      </trkpt>
      <trkpt lat="49.66285" lon="4.72516">
        <ele>237</ele>
        <time>2022-04-03T09:11:33.000Z</time>
      </trkpt>
      <trkpt lat="49.66285" lon="4.72512">
        <ele>237</ele>
        <time>2022-04-03T09:11:34.000Z</time>
      </trkpt>
      <trkpt lat="49.66286" lon="4.72508">
        <ele>237</ele>
        <time>2022-04-03T09:11:35.000Z</time>
      </trkpt>
      <trkpt lat="49.66287" lon="4.72504">
        <ele>237</ele>
        <time>2022-04-03T09:11:36.000Z</time>
      </trkpt>
      <trkpt lat="49.66287" lon="4.72501">
        <ele>238</ele>
        <time>2022-04-03T09:11:37.000Z</time>
      </trkpt>
      <trkpt lat="49.66288" lon="4.72497">
        <ele>238</ele>
        <time>2022-04-03T09:11:38.000Z</time>
      </trkpt>
      <trkpt lat="49.66289" lon="4.72494">
        <ele>238</ele>
        <time>2022-04-03T09:11:39.000Z</time>
      </trkpt>
      <trkpt lat="49.6629" lon="4.7249">
        <ele>238</ele>
        <time>2022-04-03T09:11:40.000Z</time>
      </trkpt>
      <trkpt lat="49.66291" lon="4.72487">
        <ele>238</ele>
        <time>2022-04-03T09:11:41.000Z</time>
      </trkpt>
      <trkpt lat="49.66291" lon="4.72484">
        <ele>239</ele>
        <time>2022-04-03T09:11:42.000Z</time>
      </trkpt>
      <trkpt lat="49.66292" lon="4.7248">
        <ele>239</ele>
        <time>2022-04-03T09:11:43.000Z</time>
      </trkpt>
      <trkpt lat="49.66293" lon="4.72477">
        <ele>239</ele>
        <time>2022-04-03T09:11:44.000Z</time>
      </trkpt>
      <trkpt lat="49.66294" lon="4.72473">
        <ele>239</ele>
        <time>2022-04-03T09:11:45.000Z</time>
      </trkpt>
      <trkpt lat="49.66294" lon="4.72469">
        <ele>239</ele>
        <time>2022-04-03T09:11:46.000Z</time>
      </trkpt>
      <trkpt lat="49.66294" lon="4.72465">
        <ele>239</ele>
        <time>2022-04-03T09:11:47.000Z</time>
      </trkpt>
      <trkpt lat="49.66296" lon="4.72462">
        <ele>239</ele>
        <time>2022-04-03T09:11:48.000Z</time>
      </trkpt>
      <trkpt lat="49.66297" lon="4.7246">
        <ele>239</ele>
        <time>2022-04-03T09:11:49.000Z</time>
      </trkpt>
      <trkpt lat="49.66298" lon="4.72457">
        <ele>239</ele>
        <time>2022-04-03T09:11:50.000Z</time>
      </trkpt>
      <trkpt lat="49.66299" lon="4.72454">
        <ele>239</ele>
        <time>2022-04-03T09:11:51.000Z</time>
      </trkpt>
      <trkpt lat="49.663" lon="4.72451">
        <ele>239</ele>
        <time>2022-04-03T09:11:52.000Z</time>
      </trkpt>
      <trkpt lat="49.66301" lon="4.72448">
        <ele>240</ele>
        <time>2022-04-03T09:11:53.000Z</time>
      </trkpt>
      <trkpt lat="49.66302" lon="4.72445">
        <ele>240</ele>
        <time>2022-04-03T09:11:54.000Z</time>
      </trkpt>
      <trkpt lat="49.66303" lon="4.72442">
        <ele>240</ele>
        <time>2022-04-03T09:11:55.000Z</time>
      </trkpt>
      <trkpt lat="49.66304" lon="4.7244">
        <ele>241</ele>
        <time>2022-04-03T09:11:56.000Z</time>
      </trkpt>
      <trkpt lat="49.66305" lon="4.72437">
        <ele>241</ele>
        <time>2022-04-03T09:11:57.000Z</time>
      </trkpt>
      <trkpt lat="49.66306" lon="4.72434">
        <ele>241</ele>
        <time>2022-04-03T09:11:58.000Z</time>
      </trkpt>
      <trkpt lat="49.66307" lon="4.72431">
        <ele>241</ele>
        <time>2022-04-03T09:11:59.000Z</time>
      </trkpt>
      <trkpt lat="49.66309" lon="4.72428">
        <ele>241</ele>
        <time>2022-04-03T09:12:00.000Z</time>
      </trkpt>
      <trkpt lat="49.6631" lon="4.72425">
        <ele>241</ele>
        <time>2022-04-03T09:12:01.000Z</time>
      </trkpt>
      <trkpt lat="49.66311" lon="4.72422">
        <ele>242</ele>
        <time>2022-04-03T09:12:02.000Z</time>
      </trkpt>
      <trkpt lat="49.66313" lon="4.7242">
        <ele>242</ele>
        <time>2022-04-03T09:12:03.000Z</time>
      </trkpt>
      <trkpt lat="49.66315" lon="4.72417">
        <ele>242</ele>
        <time>2022-04-03T09:12:04.000Z</time>
      </trkpt>
      <trkpt lat="49.66316" lon="4.72414">
        <ele>242</ele>
        <time>2022-04-03T09:12:05.000Z</time>
      </trkpt>
      <trkpt lat="49.66318" lon="4.72411">
        <ele>242</ele>
        <time>2022-04-03T09:12:06.000Z</time>
      </trkpt>
      <trkpt lat="49.6632" lon="4.72407">
        <ele>243</ele>
        <time>2022-04-03T09:12:07.000Z</time>
      </trkpt>
      <trkpt lat="49.66321" lon="4.72405">
        <ele>243</ele>
        <time>2022-04-03T09:12:08.000Z</time>
      </trkpt>
      <trkpt lat="49.66324" lon="4.72402">
        <ele>243</ele>
        <time>2022-04-03T09:12:09.000Z</time>
      </trkpt>
      <trkpt lat="49.66326" lon="4.72399">
        <ele>243</ele>
        <time>2022-04-03T09:12:10.000Z</time>
      </trkpt>
      <trkpt lat="49.66328" lon="4.72395">
        <ele>243</ele>
        <time>2022-04-03T09:12:11.000Z</time>
      </trkpt>
      <trkpt lat="49.66329" lon="4.72392">
        <ele>243</ele>
        <time>2022-04-03T09:12:12.000Z</time>
      </trkpt>
      <trkpt lat="49.66332" lon="4.72389">
        <ele>244</ele>
        <time>2022-04-03T09:12:13.000Z</time>
      </trkpt>
      <trkpt lat="49.66333" lon="4.72385">
        <ele>244</ele>
        <time>2022-04-03T09:12:14.000Z</time>
      </trkpt>
      <trkpt lat="49.66335" lon="4.72382">
        <ele>244</ele>
        <time>2022-04-03T09:12:15.000Z</time>
      </trkpt>
      <trkpt lat="49.66337" lon="4.72379">
        <ele>244</ele>
        <time>2022-04-03T09:12:16.000Z</time>
      </trkpt>
      <trkpt lat="49.6634" lon="4.72376">
        <ele>244</ele>
        <time>2022-04-03T09:12:17.000Z</time>
      </trkpt>
      <trkpt lat="49.66342" lon="4.72374">
        <ele>244</ele>
        <time>2022-04-03T09:12:18.000Z</time>
      </trkpt>
      <trkpt lat="49.66344" lon="4.7237">
        <ele>245</ele>
        <time>2022-04-03T09:12:19.000Z</time>
      </trkpt>
      <trkpt lat="49.66347" lon="4.72367">
        <ele>245</ele>
        <time>2022-04-03T09:12:20.000Z</time>
      </trkpt>
      <trkpt lat="49.66349" lon="4.72365">
        <ele>245</ele>
        <time>2022-04-03T09:12:21.000Z</time>
      </trkpt>
      <trkpt lat="49.66352" lon="4.72362">
        <ele>246</ele>
        <time>2022-04-03T09:12:22.000Z</time>
      </trkpt>
      <trkpt lat="49.66354" lon="4.7236">
        <ele>246</ele>
        <time>2022-04-03T09:12:23.000Z</time>
      </trkpt>
      <trkpt lat="49.66357" lon="4.72358">
        <ele>246</ele>
        <time>2022-04-03T09:12:24.000Z</time>
      </trkpt>
      <trkpt lat="49.6636" lon="4.72355">
        <ele>247</ele>
        <time>2022-04-03T09:12:25.000Z</time>
      </trkpt>
      <trkpt lat="49.66363" lon="4.72353">
        <ele>247</ele>
        <time>2022-04-03T09:12:26.000Z</time>
      </trkpt>
      <trkpt lat="49.66366" lon="4.72351">
        <ele>247</ele>
        <time>2022-04-03T09:12:27.000Z</time>
      </trkpt>
      <trkpt lat="49.66368" lon="4.72349">
        <ele>247</ele>
        <time>2022-04-03T09:12:28.000Z</time>
      </trkpt>
      <trkpt lat="49.66371" lon="4.72348">
        <ele>247</ele>
        <time>2022-04-03T09:12:29.000Z</time>
      </trkpt>
      <trkpt lat="49.66373" lon="4.72346">
        <ele>248</ele>
        <time>2022-04-03T09:12:30.000Z</time>
      </trkpt>
      <trkpt lat="49.66376" lon="4.72344">
        <ele>248</ele>
        <time>2022-04-03T09:12:31.000Z</time>
      </trkpt>
      <trkpt lat="49.66378" lon="4.72343">
        <ele>248</ele>
        <time>2022-04-03T09:12:32.000Z</time>
      </trkpt>
      <trkpt lat="49.66381" lon="4.72341">
        <ele>248</ele>
        <time>2022-04-03T09:12:33.000Z</time>
      </trkpt>
      <trkpt lat="49.66384" lon="4.72338">
        <ele>248</ele>
        <time>2022-04-03T09:12:34.000Z</time>
      </trkpt>
      <trkpt lat="49.66387" lon="4.72336">
        <ele>248</ele>
        <time>2022-04-03T09:12:35.000Z</time>
      </trkpt>
      <trkpt lat="49.66389" lon="4.72333">
        <ele>248</ele>
        <time>2022-04-03T09:12:36.000Z</time>
      </trkpt>
      <trkpt lat="49.66392" lon="4.7233">
        <ele>248</ele>
        <time>2022-04-03T09:12:37.000Z</time>
      </trkpt>
      <trkpt lat="49.66395" lon="4.72328">
        <ele>248</ele>
        <time>2022-04-03T09:12:38.000Z</time>
      </trkpt>
      <trkpt lat="49.66398" lon="4.72326">
        <ele>248</ele>
        <time>2022-04-03T09:12:39.000Z</time>
      </trkpt>
      <trkpt lat="49.66401" lon="4.72324">
        <ele>248</ele>
        <time>2022-04-03T09:12:40.000Z</time>
      </trkpt>
      <trkpt lat="49.66404" lon="4.72322">
        <ele>248</ele>
        <time>2022-04-03T09:12:41.000Z</time>
      </trkpt>
      <trkpt lat="49.66407" lon="4.72319">
        <ele>249</ele>
        <time>2022-04-03T09:12:42.000Z</time>
      </trkpt>
      <trkpt lat="49.6641" lon="4.72316">
        <ele>249</ele>
        <time>2022-04-03T09:12:43.000Z</time>
      </trkpt>
      <trkpt lat="49.66412" lon="4.72314">
        <ele>249</ele>
        <time>2022-04-03T09:12:44.000Z</time>
      </trkpt>
      <trkpt lat="49.66415" lon="4.72311">
        <ele>249</ele>
        <time>2022-04-03T09:12:45.000Z</time>
      </trkpt>
      <trkpt lat="49.66418" lon="4.72309">
        <ele>249</ele>
        <time>2022-04-03T09:12:46.000Z</time>
      </trkpt>
      <trkpt lat="49.66421" lon="4.72307">
        <ele>249</ele>
        <time>2022-04-03T09:12:47.000Z</time>
      </trkpt>
      <trkpt lat="49.66424" lon="4.72304">
        <ele>249</ele>
        <time>2022-04-03T09:12:48.000Z</time>
      </trkpt>
      <trkpt lat="49.66428" lon="4.72302">
        <ele>249</ele>
        <time>2022-04-03T09:12:49.000Z</time>
      </trkpt>
      <trkpt lat="49.66431" lon="4.72299">
        <ele>249</ele>
        <time>2022-04-03T09:12:50.000Z</time>
      </trkpt>
      <trkpt lat="49.66434" lon="4.72297">
        <ele>250</ele>
        <time>2022-04-03T09:12:51.000Z</time>
      </trkpt>
      <trkpt lat="49.66437" lon="4.72295">
        <ele>250</ele>
        <time>2022-04-03T09:12:52.000Z</time>
      </trkpt>
      <trkpt lat="49.6644" lon="4.72293">
        <ele>250</ele>
        <time>2022-04-03T09:12:53.000Z</time>
      </trkpt>
      <trkpt lat="49.66443" lon="4.72292">
        <ele>250</ele>
        <time>2022-04-03T09:12:54.000Z</time>
      </trkpt>
      <trkpt lat="49.66447" lon="4.7229">
        <ele>250</ele>
        <time>2022-04-03T09:12:55.000Z</time>
      </trkpt>
      <trkpt lat="49.6645" lon="4.72288">
        <ele>250</ele>
        <time>2022-04-03T09:12:56.000Z</time>
      </trkpt>
      <trkpt lat="49.66453" lon="4.72287">
        <ele>250</ele>
        <time>2022-04-03T09:12:57.000Z</time>
      </trkpt>
      <trkpt lat="49.66456" lon="4.72285">
        <ele>251</ele>
        <time>2022-04-03T09:12:58.000Z</time>
      </trkpt>
      <trkpt lat="49.66459" lon="4.72284">
        <ele>251</ele>
        <time>2022-04-03T09:12:59.000Z</time>
      </trkpt>
      <trkpt lat="49.66462" lon="4.72282">
        <ele>251</ele>
        <time>2022-04-03T09:13:00.000Z</time>
      </trkpt>
      <trkpt lat="49.66465" lon="4.7228">
        <ele>251</ele>
        <time>2022-04-03T09:13:01.000Z</time>
      </trkpt>
      <trkpt lat="49.66468" lon="4.7228">
        <ele>251</ele>
        <time>2022-04-03T09:13:02.000Z</time>
      </trkpt>
      <trkpt lat="49.66471" lon="4.72278">
        <ele>251</ele>
        <time>2022-04-03T09:13:03.000Z</time>
      </trkpt>
      <trkpt lat="49.66474" lon="4.72278">
        <ele>251</ele>
        <time>2022-04-03T09:13:04.000Z</time>
      </trkpt>
      <trkpt lat="49.66477" lon="4.72277">
        <ele>251</ele>
        <time>2022-04-03T09:13:05.000Z</time>
      </trkpt>
      <trkpt lat="49.6648" lon="4.72276">
        <ele>251</ele>
        <time>2022-04-03T09:13:06.000Z</time>
      </trkpt>
      <trkpt lat="49.66483" lon="4.72275">
        <ele>251</ele>
        <time>2022-04-03T09:13:07.000Z</time>
      </trkpt>
      <trkpt lat="49.66486" lon="4.72275">
        <ele>251</ele>
        <time>2022-04-03T09:13:08.000Z</time>
      </trkpt>
      <trkpt lat="49.66489" lon="4.72274">
        <ele>251</ele>
        <time>2022-04-03T09:13:09.000Z</time>
      </trkpt>
      <trkpt lat="49.66492" lon="4.72272">
        <ele>251</ele>
        <time>2022-04-03T09:13:10.000Z</time>
      </trkpt>
      <trkpt lat="49.66494" lon="4.72271">
        <ele>252</ele>
        <time>2022-04-03T09:13:11.000Z</time>
      </trkpt>
      <trkpt lat="49.66496" lon="4.7227">
        <ele>252</ele>
        <time>2022-04-03T09:13:12.000Z</time>
      </trkpt>
      <trkpt lat="49.66499" lon="4.72268">
        <ele>252</ele>
        <time>2022-04-03T09:13:13.000Z</time>
      </trkpt>
      <trkpt lat="49.66501" lon="4.72267">
        <ele>252</ele>
        <time>2022-04-03T09:13:14.000Z</time>
      </trkpt>
      <trkpt lat="49.66504" lon="4.72266">
        <ele>252</ele>
        <time>2022-04-03T09:13:15.000Z</time>
      </trkpt>
      <trkpt lat="49.66506" lon="4.72265">
        <ele>252</ele>
        <time>2022-04-03T09:13:16.000Z</time>
      </trkpt>
      <trkpt lat="49.66509" lon="4.72264">
        <ele>252</ele>
        <time>2022-04-03T09:13:17.000Z</time>
      </trkpt>
      <trkpt lat="49.66512" lon="4.72263">
        <ele>253</ele>
        <time>2022-04-03T09:13:18.000Z</time>
      </trkpt>
      <trkpt lat="49.66514" lon="4.72262">
        <ele>253</ele>
        <time>2022-04-03T09:13:19.000Z</time>
      </trkpt>
      <trkpt lat="49.66517" lon="4.72261">
        <ele>253</ele>
        <time>2022-04-03T09:13:20.000Z</time>
      </trkpt>
      <trkpt lat="49.6652" lon="4.7226">
        <ele>253</ele>
        <time>2022-04-03T09:13:21.000Z</time>
      </trkpt>
      <trkpt lat="49.66524" lon="4.72259">
        <ele>253</ele>
        <time>2022-04-03T09:13:22.000Z</time>
      </trkpt>
      <trkpt lat="49.66527" lon="4.72257">
        <ele>254</ele>
        <time>2022-04-03T09:13:23.000Z</time>
      </trkpt>
      <trkpt lat="49.66529" lon="4.72256">
        <ele>254</ele>
        <time>2022-04-03T09:13:24.000Z</time>
      </trkpt>
      <trkpt lat="49.66532" lon="4.72254">
        <ele>254</ele>
        <time>2022-04-03T09:13:25.000Z</time>
      </trkpt>
      <trkpt lat="49.66535" lon="4.72253">
        <ele>254</ele>
        <time>2022-04-03T09:13:26.000Z</time>
      </trkpt>
      <trkpt lat="49.66538" lon="4.72251">
        <ele>254</ele>
        <time>2022-04-03T09:13:27.000Z</time>
      </trkpt>
      <trkpt lat="49.66541" lon="4.72248">
        <ele>254</ele>
        <time>2022-04-03T09:13:28.000Z</time>
      </trkpt>
      <trkpt lat="49.66544" lon="4.72246">
        <ele>254</ele>
        <time>2022-04-03T09:13:29.000Z</time>
      </trkpt>
      <trkpt lat="49.66546" lon="4.72244">
        <ele>254</ele>
        <time>2022-04-03T09:13:30.000Z</time>
      </trkpt>
      <trkpt lat="49.66549" lon="4.72242">
        <ele>255</ele>
        <time>2022-04-03T09:13:31.000Z</time>
      </trkpt>
      <trkpt lat="49.66552" lon="4.7224">
        <ele>255</ele>
        <time>2022-04-03T09:13:32.000Z</time>
      </trkpt>
      <trkpt lat="49.66554" lon="4.72238">
        <ele>255</ele>
        <time>2022-04-03T09:13:33.000Z</time>
      </trkpt>
      <trkpt lat="49.66557" lon="4.72236">
        <ele>255</ele>
        <time>2022-04-03T09:13:34.000Z</time>
      </trkpt>
      <trkpt lat="49.6656" lon="4.72234">
        <ele>255</ele>
        <time>2022-04-03T09:13:35.000Z</time>
      </trkpt>
      <trkpt lat="49.66563" lon="4.72233">
        <ele>255</ele>
        <time>2022-04-03T09:13:36.000Z</time>
      </trkpt>
      <trkpt lat="49.66566" lon="4.72231">
        <ele>255</ele>
        <time>2022-04-03T09:13:37.000Z</time>
      </trkpt>
      <trkpt lat="49.66568" lon="4.7223">
        <ele>256</ele>
        <time>2022-04-03T09:13:38.000Z</time>
      </trkpt>
      <trkpt lat="49.66571" lon="4.72228">
        <ele>256</ele>
        <time>2022-04-03T09:13:39.000Z</time>
      </trkpt>
      <trkpt lat="49.66573" lon="4.72226">
        <ele>256</ele>
        <time>2022-04-03T09:13:40.000Z</time>
      </trkpt>
      <trkpt lat="49.66576" lon="4.72224">
        <ele>256</ele>
        <time>2022-04-03T09:13:41.000Z</time>
      </trkpt>
      <trkpt lat="49.66579" lon="4.72223">
        <ele>256</ele>
        <time>2022-04-03T09:13:42.000Z</time>
      </trkpt>
      <trkpt lat="49.66581" lon="4.72221">
        <ele>256</ele>
        <time>2022-04-03T09:13:43.000Z</time>
      </trkpt>
      <trkpt lat="49.66584" lon="4.7222">
        <ele>256</ele>
        <time>2022-04-03T09:13:44.000Z</time>
      </trkpt>
      <trkpt lat="49.66587" lon="4.72219">
        <ele>257</ele>
        <time>2022-04-03T09:13:45.000Z</time>
      </trkpt>
      <trkpt lat="49.6659" lon="4.72218">
        <ele>257</ele>
        <time>2022-04-03T09:13:46.000Z</time>
      </trkpt>
      <trkpt lat="49.66593" lon="4.72217">
        <ele>257</ele>
        <time>2022-04-03T09:13:47.000Z</time>
      </trkpt>
      <trkpt lat="49.66595" lon="4.72216">
        <ele>257</ele>
        <time>2022-04-03T09:13:48.000Z</time>
      </trkpt>
      <trkpt lat="49.66598" lon="4.72215">
        <ele>257</ele>
        <time>2022-04-03T09:13:49.000Z</time>
      </trkpt>
      <trkpt lat="49.66601" lon="4.72214">
        <ele>257</ele>
        <time>2022-04-03T09:13:50.000Z</time>
      </trkpt>
      <trkpt lat="49.66603" lon="4.72213">
        <ele>257</ele>
        <time>2022-04-03T09:13:51.000Z</time>
      </trkpt>
      <trkpt lat="49.66606" lon="4.72212">
        <ele>257</ele>
        <time>2022-04-03T09:13:52.000Z</time>
      </trkpt>
      <trkpt lat="49.66608" lon="4.72211">
        <ele>258</ele>
        <time>2022-04-03T09:13:53.000Z</time>
      </trkpt>
      <trkpt lat="49.66611" lon="4.7221">
        <ele>258</ele>
        <time>2022-04-03T09:13:54.000Z</time>
      </trkpt>
      <trkpt lat="49.66614" lon="4.72209">
        <ele>258</ele>
        <time>2022-04-03T09:13:55.000Z</time>
      </trkpt>
      <trkpt lat="49.66617" lon="4.72208">
        <ele>258</ele>
        <time>2022-04-03T09:13:56.000Z</time>
      </trkpt>
      <trkpt lat="49.6662" lon="4.72208">
        <ele>258</ele>
        <time>2022-04-03T09:13:57.000Z</time>
      </trkpt>
      <trkpt lat="49.66623" lon="4.72208">
        <ele>258</ele>
        <time>2022-04-03T09:13:58.000Z</time>
      </trkpt>
      <trkpt lat="49.66625" lon="4.72207">
        <ele>259</ele>
        <time>2022-04-03T09:13:59.000Z</time>
      </trkpt>
      <trkpt lat="49.66628" lon="4.72207">
        <ele>259</ele>
        <time>2022-04-03T09:14:00.000Z</time>
      </trkpt>
      <trkpt lat="49.66631" lon="4.72206">
        <ele>259</ele>
        <time>2022-04-03T09:14:01.000Z</time>
      </trkpt>
      <trkpt lat="49.66634" lon="4.72205">
        <ele>259</ele>
        <time>2022-04-03T09:14:02.000Z</time>
      </trkpt>
      <trkpt lat="49.66637" lon="4.72205">
        <ele>259</ele>
        <time>2022-04-03T09:14:03.000Z</time>
      </trkpt>
      <trkpt lat="49.66639" lon="4.72205">
        <ele>260</ele>
        <time>2022-04-03T09:14:04.000Z</time>
      </trkpt>
      <trkpt lat="49.66642" lon="4.72206">
        <ele>260</ele>
        <time>2022-04-03T09:14:05.000Z</time>
      </trkpt>
      <trkpt lat="49.66645" lon="4.72206">
        <ele>260</ele>
        <time>2022-04-03T09:14:06.000Z</time>
      </trkpt>
      <trkpt lat="49.66647" lon="4.72206">
        <ele>260</ele>
        <time>2022-04-03T09:14:07.000Z</time>
      </trkpt>
      <trkpt lat="49.6665" lon="4.72206">
        <ele>261</ele>
        <time>2022-04-03T09:14:08.000Z</time>
      </trkpt>
      <trkpt lat="49.66653" lon="4.72206">
        <ele>261</ele>
        <time>2022-04-03T09:14:09.000Z</time>
      </trkpt>
      <trkpt lat="49.66656" lon="4.72207">
        <ele>261</ele>
        <time>2022-04-03T09:14:10.000Z</time>
      </trkpt>
      <trkpt lat="49.66659" lon="4.72207">
        <ele>261</ele>
        <time>2022-04-03T09:14:11.000Z</time>
      </trkpt>
      <trkpt lat="49.66662" lon="4.72207">
        <ele>261</ele>
        <time>2022-04-03T09:14:12.000Z</time>
      </trkpt>
      <trkpt lat="49.66665" lon="4.72208">
        <ele>261</ele>
        <time>2022-04-03T09:14:13.000Z</time>
      </trkpt>
      <trkpt lat="49.66668" lon="4.72209">
        <ele>261</ele>
        <time>2022-04-03T09:14:14.000Z</time>
      </trkpt>
      <trkpt lat="49.66671" lon="4.7221">
        <ele>261</ele>
        <time>2022-04-03T09:14:15.000Z</time>
      </trkpt>
      <trkpt lat="49.66674" lon="4.72211">
        <ele>261</ele>
        <time>2022-04-03T09:14:16.000Z</time>
      </trkpt>
      <trkpt lat="49.66677" lon="4.72213">
        <ele>261</ele>
        <time>2022-04-03T09:14:17.000Z</time>
      </trkpt>
      <trkpt lat="49.6668" lon="4.72214">
        <ele>261</ele>
        <time>2022-04-03T09:14:18.000Z</time>
      </trkpt>
      <trkpt lat="49.66683" lon="4.72215">
        <ele>261</ele>
        <time>2022-04-03T09:14:19.000Z</time>
      </trkpt>
      <trkpt lat="49.66686" lon="4.72217">
        <ele>261</ele>
        <time>2022-04-03T09:14:20.000Z</time>
      </trkpt>
      <trkpt lat="49.66688" lon="4.72219">
        <ele>261</ele>
        <time>2022-04-03T09:14:21.000Z</time>
      </trkpt>
      <trkpt lat="49.6669" lon="4.72221">
        <ele>261</ele>
        <time>2022-04-03T09:14:22.000Z</time>
      </trkpt>
      <trkpt lat="49.66693" lon="4.72222">
        <ele>261</ele>
        <time>2022-04-03T09:14:23.000Z</time>
      </trkpt>
      <trkpt lat="49.66695" lon="4.72224">
        <ele>261</ele>
        <time>2022-04-03T09:14:24.000Z</time>
      </trkpt>
      <trkpt lat="49.66698" lon="4.72226">
        <ele>261</ele>
        <time>2022-04-03T09:14:25.000Z</time>
      </trkpt>
      <trkpt lat="49.667" lon="4.72228">
        <ele>261</ele>
        <time>2022-04-03T09:14:26.000Z</time>
      </trkpt>
      <trkpt lat="49.66702" lon="4.7223">
        <ele>261</ele>
        <time>2022-04-03T09:14:27.000Z</time>
      </trkpt>
      <trkpt lat="49.66704" lon="4.72231">
        <ele>261</ele>
        <time>2022-04-03T09:14:28.000Z</time>
      </trkpt>
      <trkpt lat="49.66706" lon="4.72233">
        <ele>261</ele>
        <time>2022-04-03T09:14:29.000Z</time>
      </trkpt>
      <trkpt lat="49.66708" lon="4.72235">
        <ele>261</ele>
        <time>2022-04-03T09:14:30.000Z</time>
      </trkpt>
      <trkpt lat="49.6671" lon="4.72236">
        <ele>261</ele>
        <time>2022-04-03T09:14:31.000Z</time>
      </trkpt>
      <trkpt lat="49.66712" lon="4.72239">
        <ele>261</ele>
        <time>2022-04-03T09:14:32.000Z</time>
      </trkpt>
      <trkpt lat="49.66715" lon="4.7224">
        <ele>261</ele>
        <time>2022-04-03T09:14:33.000Z</time>
      </trkpt>
      <trkpt lat="49.66717" lon="4.72242">
        <ele>261</ele>
        <time>2022-04-03T09:14:34.000Z</time>
      </trkpt>
      <trkpt lat="49.66719" lon="4.72243">
        <ele>261</ele>
        <time>2022-04-03T09:14:35.000Z</time>
      </trkpt>
      <trkpt lat="49.66721" lon="4.72245">
        <ele>261</ele>
        <time>2022-04-03T09:14:36.000Z</time>
      </trkpt>
      <trkpt lat="49.66724" lon="4.72246">
        <ele>261</ele>
        <time>2022-04-03T09:14:37.000Z</time>
      </trkpt>
      <trkpt lat="49.66726" lon="4.72248">
        <ele>262</ele>
        <time>2022-04-03T09:14:38.000Z</time>
      </trkpt>
      <trkpt lat="49.66729" lon="4.72249">
        <ele>262</ele>
        <time>2022-04-03T09:14:39.000Z</time>
      </trkpt>
      <trkpt lat="49.66731" lon="4.7225">
        <ele>262</ele>
        <time>2022-04-03T09:14:40.000Z</time>
      </trkpt>
      <trkpt lat="49.66734" lon="4.72251">
        <ele>262</ele>
        <time>2022-04-03T09:14:41.000Z</time>
      </trkpt>
      <trkpt lat="49.66737" lon="4.72253">
        <ele>262</ele>
        <time>2022-04-03T09:14:42.000Z</time>
      </trkpt>
      <trkpt lat="49.66739" lon="4.72253">
        <ele>262</ele>
        <time>2022-04-03T09:14:43.000Z</time>
      </trkpt>
      <trkpt lat="49.66742" lon="4.72254">
        <ele>262</ele>
        <time>2022-04-03T09:14:44.000Z</time>
      </trkpt>
      <trkpt lat="49.66745" lon="4.72254">
        <ele>262</ele>
        <time>2022-04-03T09:14:45.000Z</time>
      </trkpt>
      <trkpt lat="49.66747" lon="4.72254">
        <ele>262</ele>
        <time>2022-04-03T09:14:46.000Z</time>
      </trkpt>
      <trkpt lat="49.6675" lon="4.72254">
        <ele>262</ele>
        <time>2022-04-03T09:14:47.000Z</time>
      </trkpt>
      <trkpt lat="49.66752" lon="4.72254">
        <ele>262</ele>
        <time>2022-04-03T09:14:48.000Z</time>
      </trkpt>
      <trkpt lat="49.66755" lon="4.72253">
        <ele>262</ele>
        <time>2022-04-03T09:14:49.000Z</time>
      </trkpt>
      <trkpt lat="49.66757" lon="4.72253">
        <ele>262</ele>
        <time>2022-04-03T09:14:50.000Z</time>
      </trkpt>
      <trkpt lat="49.6676" lon="4.72252">
        <ele>263</ele>
        <time>2022-04-03T09:14:51.000Z</time>
      </trkpt>
      <trkpt lat="49.66762" lon="4.72251">
        <ele>263</ele>
        <time>2022-04-03T09:14:52.000Z</time>
      </trkpt>
      <trkpt lat="49.66765" lon="4.72249">
        <ele>263</ele>
        <time>2022-04-03T09:14:53.000Z</time>
      </trkpt>
      <trkpt lat="49.66767" lon="4.72247">
        <ele>263</ele>
        <time>2022-04-03T09:14:54.000Z</time>
      </trkpt>
      <trkpt lat="49.66769" lon="4.72245">
        <ele>263</ele>
        <time>2022-04-03T09:14:55.000Z</time>
      </trkpt>
      <trkpt lat="49.66771" lon="4.72243">
        <ele>263</ele>
        <time>2022-04-03T09:14:56.000Z</time>
      </trkpt>
      <trkpt lat="49.66773" lon="4.7224">
        <ele>263</ele>
        <time>2022-04-03T09:14:57.000Z</time>
      </trkpt>
      <trkpt lat="49.66775" lon="4.72238">
        <ele>263</ele>
        <time>2022-04-03T09:14:58.000Z</time>
      </trkpt>
      <trkpt lat="49.66776" lon="4.72235">
        <ele>263</ele>
        <time>2022-04-03T09:14:59.000Z</time>
      </trkpt>
      <trkpt lat="49.66777" lon="4.72232">
        <ele>263</ele>
        <time>2022-04-03T09:15:00.000Z</time>
      </trkpt>
      <trkpt lat="49.66779" lon="4.72229">
        <ele>263</ele>
        <time>2022-04-03T09:15:01.000Z</time>
      </trkpt>
      <trkpt lat="49.6678" lon="4.72225">
        <ele>263</ele>
        <time>2022-04-03T09:15:02.000Z</time>
      </trkpt>
      <trkpt lat="49.66782" lon="4.72222">
        <ele>264</ele>
        <time>2022-04-03T09:15:03.000Z</time>
      </trkpt>
      <trkpt lat="49.66783" lon="4.72218">
        <ele>264</ele>
        <time>2022-04-03T09:15:04.000Z</time>
      </trkpt>
      <trkpt lat="49.66784" lon="4.72214">
        <ele>264</ele>
        <time>2022-04-03T09:15:05.000Z</time>
      </trkpt>
      <trkpt lat="49.66785" lon="4.72211">
        <ele>264</ele>
        <time>2022-04-03T09:15:06.000Z</time>
      </trkpt>
      <trkpt lat="49.66786" lon="4.72207">
        <ele>265</ele>
        <time>2022-04-03T09:15:07.000Z</time>
      </trkpt>
      <trkpt lat="49.66788" lon="4.72204">
        <ele>265</ele>
        <time>2022-04-03T09:15:08.000Z</time>
      </trkpt>
      <trkpt lat="49.66789" lon="4.72201">
        <ele>265</ele>
        <time>2022-04-03T09:15:09.000Z</time>
      </trkpt>
      <trkpt lat="49.66791" lon="4.72198">
        <ele>265</ele>
        <time>2022-04-03T09:15:10.000Z</time>
      </trkpt>
      <trkpt lat="49.66791" lon="4.72194">
        <ele>265</ele>
        <time>2022-04-03T09:15:11.000Z</time>
      </trkpt>
      <trkpt lat="49.66792" lon="4.72191">
        <ele>265</ele>
        <time>2022-04-03T09:15:12.000Z</time>
      </trkpt>
      <trkpt lat="49.66793" lon="4.72188">
        <ele>265</ele>
        <time>2022-04-03T09:15:13.000Z</time>
      </trkpt>
      <trkpt lat="49.66793" lon="4.72185">
        <ele>265</ele>
        <time>2022-04-03T09:15:14.000Z</time>
      </trkpt>
      <trkpt lat="49.66794" lon="4.72182">
        <ele>265</ele>
        <time>2022-04-03T09:15:15.000Z</time>
      </trkpt>
      <trkpt lat="49.66795" lon="4.72179">
        <ele>265</ele>
        <time>2022-04-03T09:15:16.000Z</time>
      </trkpt>
      <trkpt lat="49.66796" lon="4.72175">
        <ele>265</ele>
        <time>2022-04-03T09:15:17.000Z</time>
      </trkpt>
      <trkpt lat="49.66797" lon="4.72172">
        <ele>265</ele>
        <time>2022-04-03T09:15:18.000Z</time>
      </trkpt>
      <trkpt lat="49.66799" lon="4.72168">
        <ele>265</ele>
        <time>2022-04-03T09:15:19.000Z</time>
      </trkpt>
      <trkpt lat="49.668" lon="4.72165">
        <ele>265</ele>
        <time>2022-04-03T09:15:20.000Z</time>
      </trkpt>
      <trkpt lat="49.66802" lon="4.72161">
        <ele>265</ele>
        <time>2022-04-03T09:15:21.000Z</time>
      </trkpt>
      <trkpt lat="49.66805" lon="4.72157">
        <ele>265</ele>
        <time>2022-04-03T09:15:22.000Z</time>
      </trkpt>
      <trkpt lat="49.66806" lon="4.72153">
        <ele>265</ele>
        <time>2022-04-03T09:15:23.000Z</time>
      </trkpt>
      <trkpt lat="49.66806" lon="4.72148">
        <ele>265</ele>
        <time>2022-04-03T09:15:24.000Z</time>
      </trkpt>
      <trkpt lat="49.66805" lon="4.72145">
        <ele>265</ele>
        <time>2022-04-03T09:15:25.000Z</time>
      </trkpt>
      <trkpt lat="49.66803" lon="4.72143">
        <ele>265</ele>
        <time>2022-04-03T09:15:26.000Z</time>
      </trkpt>
      <trkpt lat="49.66801" lon="4.72141">
        <ele>265</ele>
        <time>2022-04-03T09:15:27.000Z</time>
      </trkpt>
      <trkpt lat="49.66799" lon="4.72139">
        <ele>265</ele>
        <time>2022-04-03T09:15:28.000Z</time>
      </trkpt>
      <trkpt lat="49.66797" lon="4.72138">
        <ele>265</ele>
        <time>2022-04-03T09:15:29.000Z</time>
      </trkpt>
      <trkpt lat="49.66796" lon="4.72137">
        <ele>265</ele>
        <time>2022-04-03T09:15:30.000Z</time>
      </trkpt>
      <trkpt lat="49.66794" lon="4.72135">
        <ele>265</ele>
        <time>2022-04-03T09:15:31.000Z</time>
      </trkpt>
      <trkpt lat="49.66793" lon="4.72134">
        <ele>265</ele>
        <time>2022-04-03T09:15:32.000Z</time>
      </trkpt>
      <trkpt lat="49.66792" lon="4.72132">
        <ele>265</ele>
        <time>2022-04-03T09:15:33.000Z</time>
      </trkpt>
      <trkpt lat="49.66791" lon="4.72131">
        <ele>265</ele>
        <time>2022-04-03T09:15:34.000Z</time>
      </trkpt>
      <trkpt lat="49.6679" lon="4.7213">
        <ele>265</ele>
        <time>2022-04-03T09:15:35.000Z</time>
      </trkpt>
      <trkpt lat="49.66788" lon="4.72129">
        <ele>266</ele>
        <time>2022-04-03T09:15:36.000Z</time>
      </trkpt>
      <trkpt lat="49.66787" lon="4.72128">
        <ele>266</ele>
        <time>2022-04-03T09:15:37.000Z</time>
      </trkpt>
      <trkpt lat="49.66785" lon="4.72127">
        <ele>266</ele>
        <time>2022-04-03T09:15:38.000Z</time>
      </trkpt>
      <trkpt lat="49.66784" lon="4.72127">
        <ele>266</ele>
        <time>2022-04-03T09:15:39.000Z</time>
      </trkpt>
      <trkpt lat="49.66782" lon="4.72126">
        <ele>266</ele>
        <time>2022-04-03T09:15:40.000Z</time>
      </trkpt>
      <trkpt lat="49.6678" lon="4.72124">
        <ele>266</ele>
        <time>2022-04-03T09:15:41.000Z</time>
      </trkpt>
      <trkpt lat="49.66779" lon="4.72124">
        <ele>267</ele>
        <time>2022-04-03T09:15:42.000Z</time>
      </trkpt>
      <trkpt lat="49.66778" lon="4.72123">
        <ele>267</ele>
        <time>2022-04-03T09:15:43.000Z</time>
      </trkpt>
      <trkpt lat="49.66776" lon="4.72122">
        <ele>267</ele>
        <time>2022-04-03T09:15:44.000Z</time>
      </trkpt>
      <trkpt lat="49.66774" lon="4.72121">
        <ele>267</ele>
        <time>2022-04-03T09:15:45.000Z</time>
      </trkpt>
      <trkpt lat="49.66773" lon="4.72119">
        <ele>267</ele>
        <time>2022-04-03T09:15:46.000Z</time>
      </trkpt>
      <trkpt lat="49.66771" lon="4.72119">
        <ele>268</ele>
        <time>2022-04-03T09:15:47.000Z</time>
      </trkpt>
      <trkpt lat="49.6677" lon="4.72118">
        <ele>268</ele>
        <time>2022-04-03T09:15:48.000Z</time>
      </trkpt>
      <trkpt lat="49.66769" lon="4.72116">
        <ele>268</ele>
        <time>2022-04-03T09:15:49.000Z</time>
      </trkpt>
      <trkpt lat="49.66767" lon="4.72115">
        <ele>268</ele>
        <time>2022-04-03T09:15:50.000Z</time>
      </trkpt>
      <trkpt lat="49.66766" lon="4.72114">
        <ele>268</ele>
        <time>2022-04-03T09:15:51.000Z</time>
      </trkpt>
      <trkpt lat="49.66764" lon="4.72113">
        <ele>269</ele>
        <time>2022-04-03T09:15:52.000Z</time>
      </trkpt>
      <trkpt lat="49.66762" lon="4.72112">
        <ele>269</ele>
        <time>2022-04-03T09:15:53.000Z</time>
      </trkpt>
      <trkpt lat="49.6676" lon="4.7211">
        <ele>269</ele>
        <time>2022-04-03T09:15:54.000Z</time>
      </trkpt>
      <trkpt lat="49.66759" lon="4.72108">
        <ele>269</ele>
        <time>2022-04-03T09:15:55.000Z</time>
      </trkpt>
      <trkpt lat="49.66757" lon="4.72107">
        <ele>269</ele>
        <time>2022-04-03T09:15:56.000Z</time>
      </trkpt>
      <trkpt lat="49.66756" lon="4.72106">
        <ele>269</ele>
        <time>2022-04-03T09:15:57.000Z</time>
      </trkpt>
      <trkpt lat="49.66755" lon="4.72104">
        <ele>269</ele>
        <time>2022-04-03T09:15:58.000Z</time>
      </trkpt>
      <trkpt lat="49.66753" lon="4.72103">
        <ele>270</ele>
        <time>2022-04-03T09:15:59.000Z</time>
      </trkpt>
      <trkpt lat="49.66752" lon="4.72101">
        <ele>270</ele>
        <time>2022-04-03T09:16:00.000Z</time>
      </trkpt>
      <trkpt lat="49.66751" lon="4.721">
        <ele>270</ele>
        <time>2022-04-03T09:16:01.000Z</time>
      </trkpt>
      <trkpt lat="49.6675" lon="4.72099">
        <ele>270</ele>
        <time>2022-04-03T09:16:02.000Z</time>
      </trkpt>
      <trkpt lat="49.66748" lon="4.72098">
        <ele>270</ele>
        <time>2022-04-03T09:16:03.000Z</time>
      </trkpt>
      <trkpt lat="49.66747" lon="4.72097">
        <ele>271</ele>
        <time>2022-04-03T09:16:04.000Z</time>
      </trkpt>
      <trkpt lat="49.66746" lon="4.72096">
        <ele>271</ele>
        <time>2022-04-03T09:16:05.000Z</time>
      </trkpt>
      <trkpt lat="49.66746" lon="4.72095">
        <ele>271</ele>
        <time>2022-04-03T09:16:06.000Z</time>
      </trkpt>
      <trkpt lat="49.66744" lon="4.72094">
        <ele>271</ele>
        <time>2022-04-03T09:16:07.000Z</time>
      </trkpt>
      <trkpt lat="49.66743" lon="4.72093">
        <ele>271</ele>
        <time>2022-04-03T09:16:08.000Z</time>
      </trkpt>
      <trkpt lat="49.66741" lon="4.72092">
        <ele>271</ele>
        <time>2022-04-03T09:16:09.000Z</time>
      </trkpt>
      <trkpt lat="49.6674" lon="4.72091">
        <ele>272</ele>
        <time>2022-04-03T09:16:10.000Z</time>
      </trkpt>
      <trkpt lat="49.66739" lon="4.7209">
        <ele>272</ele>
        <time>2022-04-03T09:16:11.000Z</time>
      </trkpt>
      <trkpt lat="49.66737" lon="4.72089">
        <ele>272</ele>
        <time>2022-04-03T09:16:12.000Z</time>
      </trkpt>
      <trkpt lat="49.66736" lon="4.72088">
        <ele>273</ele>
        <time>2022-04-03T09:16:13.000Z</time>
      </trkpt>
      <trkpt lat="49.66735" lon="4.72087">
        <ele>273</ele>
        <time>2022-04-03T09:16:14.000Z</time>
      </trkpt>
      <trkpt lat="49.66733" lon="4.72085">
        <ele>273</ele>
        <time>2022-04-03T09:16:15.000Z</time>
      </trkpt>
      <trkpt lat="49.66732" lon="4.72084">
        <ele>273</ele>
        <time>2022-04-03T09:16:16.000Z</time>
      </trkpt>
      <trkpt lat="49.66731" lon="4.72083">
        <ele>274</ele>
        <time>2022-04-03T09:16:17.000Z</time>
      </trkpt>
      <trkpt lat="49.66729" lon="4.72081">
        <ele>274</ele>
        <time>2022-04-03T09:16:18.000Z</time>
      </trkpt>
      <trkpt lat="49.66728" lon="4.7208">
        <ele>274</ele>
        <time>2022-04-03T09:16:19.000Z</time>
      </trkpt>
      <trkpt lat="49.66727" lon="4.72079">
        <ele>274</ele>
        <time>2022-04-03T09:16:20.000Z</time>
      </trkpt>
      <trkpt lat="49.66726" lon="4.72078">
        <ele>275</ele>
        <time>2022-04-03T09:16:21.000Z</time>
      </trkpt>
      <trkpt lat="49.66725" lon="4.72076">
        <ele>275</ele>
        <time>2022-04-03T09:16:22.000Z</time>
      </trkpt>
      <trkpt lat="49.66724" lon="4.72075">
        <ele>275</ele>
        <time>2022-04-03T09:16:23.000Z</time>
      </trkpt>
      <trkpt lat="49.66722" lon="4.72074">
        <ele>275</ele>
        <time>2022-04-03T09:16:24.000Z</time>
      </trkpt>
      <trkpt lat="49.66721" lon="4.72072">
        <ele>276</ele>
        <time>2022-04-03T09:16:25.000Z</time>
      </trkpt>
      <trkpt lat="49.6672" lon="4.72071">
        <ele>276</ele>
        <time>2022-04-03T09:16:26.000Z</time>
      </trkpt>
      <trkpt lat="49.6672" lon="4.72071">
        <ele>276</ele>
        <time>2022-04-03T09:16:27.000Z</time>
      </trkpt>
      <trkpt lat="49.66719" lon="4.72071">
        <ele>277</ele>
        <time>2022-04-03T09:16:28.000Z</time>
      </trkpt>
      <trkpt lat="49.66718" lon="4.7207">
        <ele>277</ele>
        <time>2022-04-03T09:16:29.000Z</time>
      </trkpt>
      <trkpt lat="49.66718" lon="4.72069">
        <ele>277</ele>
        <time>2022-04-03T09:16:30.000Z</time>
      </trkpt>
      <trkpt lat="49.66717" lon="4.72068">
        <ele>277</ele>
        <time>2022-04-03T09:16:31.000Z</time>
      </trkpt>
      <trkpt lat="49.66715" lon="4.72067">
        <ele>277</ele>
        <time>2022-04-03T09:16:32.000Z</time>
      </trkpt>
      <trkpt lat="49.66714" lon="4.72066">
        <ele>277</ele>
        <time>2022-04-03T09:16:33.000Z</time>
      </trkpt>
      <trkpt lat="49.66713" lon="4.72064">
        <ele>278</ele>
        <time>2022-04-03T09:16:34.000Z</time>
      </trkpt>
      <trkpt lat="49.66711" lon="4.72063">
        <ele>278</ele>
        <time>2022-04-03T09:16:35.000Z</time>
      </trkpt>
      <trkpt lat="49.6671" lon="4.72062">
        <ele>278</ele>
        <time>2022-04-03T09:16:36.000Z</time>
      </trkpt>
      <trkpt lat="49.66709" lon="4.72061">
        <ele>278</ele>
        <time>2022-04-03T09:16:37.000Z</time>
      </trkpt>
      <trkpt lat="49.66707" lon="4.7206">
        <ele>278</ele>
        <time>2022-04-03T09:16:38.000Z</time>
      </trkpt>
      <trkpt lat="49.66706" lon="4.7206">
        <ele>278</ele>
        <time>2022-04-03T09:16:39.000Z</time>
      </trkpt>
      <trkpt lat="49.66704" lon="4.72059">
        <ele>278</ele>
        <time>2022-04-03T09:16:40.000Z</time>
      </trkpt>
      <trkpt lat="49.66703" lon="4.72059">
        <ele>279</ele>
        <time>2022-04-03T09:16:41.000Z</time>
      </trkpt>
      <trkpt lat="49.66701" lon="4.72058">
        <ele>279</ele>
        <time>2022-04-03T09:16:42.000Z</time>
      </trkpt>
      <trkpt lat="49.667" lon="4.72058">
        <ele>279</ele>
        <time>2022-04-03T09:16:43.000Z</time>
      </trkpt>
      <trkpt lat="49.66699" lon="4.72057">
        <ele>279</ele>
        <time>2022-04-03T09:16:44.000Z</time>
      </trkpt>
      <trkpt lat="49.66698" lon="4.72057">
        <ele>280</ele>
        <time>2022-04-03T09:16:45.000Z</time>
      </trkpt>
      <trkpt lat="49.66696" lon="4.72057">
        <ele>280</ele>
        <time>2022-04-03T09:16:46.000Z</time>
      </trkpt>
      <trkpt lat="49.66695" lon="4.72057">
        <ele>280</ele>
        <time>2022-04-03T09:16:47.000Z</time>
      </trkpt>
      <trkpt lat="49.66694" lon="4.72057">
        <ele>281</ele>
        <time>2022-04-03T09:16:48.000Z</time>
      </trkpt>
      <trkpt lat="49.66692" lon="4.72056">
        <ele>281</ele>
        <time>2022-04-03T09:16:49.000Z</time>
      </trkpt>
      <trkpt lat="49.6669" lon="4.72056">
        <ele>281</ele>
        <time>2022-04-03T09:16:50.000Z</time>
      </trkpt>
      <trkpt lat="49.66689" lon="4.72055">
        <ele>281</ele>
        <time>2022-04-03T09:16:51.000Z</time>
      </trkpt>
      <trkpt lat="49.66687" lon="4.72055">
        <ele>282</ele>
        <time>2022-04-03T09:16:52.000Z</time>
      </trkpt>
      <trkpt lat="49.66686" lon="4.72055">
        <ele>282</ele>
        <time>2022-04-03T09:16:53.000Z</time>
      </trkpt>
      <trkpt lat="49.66685" lon="4.72055">
        <ele>282</ele>
        <time>2022-04-03T09:16:54.000Z</time>
      </trkpt>
      <trkpt lat="49.66683" lon="4.72055">
        <ele>283</ele>
        <time>2022-04-03T09:16:55.000Z</time>
      </trkpt>
      <trkpt lat="49.66681" lon="4.72054">
        <ele>283</ele>
        <time>2022-04-03T09:16:56.000Z</time>
      </trkpt>
      <trkpt lat="49.6668" lon="4.72054">
        <ele>283</ele>
        <time>2022-04-03T09:16:57.000Z</time>
      </trkpt>
      <trkpt lat="49.66678" lon="4.72054">
        <ele>283</ele>
        <time>2022-04-03T09:16:58.000Z</time>
      </trkpt>
      <trkpt lat="49.66677" lon="4.72053">
        <ele>283</ele>
        <time>2022-04-03T09:16:59.000Z</time>
      </trkpt>
      <trkpt lat="49.66676" lon="4.72052">
        <ele>284</ele>
        <time>2022-04-03T09:17:00.000Z</time>
      </trkpt>
      <trkpt lat="49.66674" lon="4.72051">
        <ele>284</ele>
        <time>2022-04-03T09:17:01.000Z</time>
      </trkpt>
      <trkpt lat="49.66672" lon="4.72051">
        <ele>284</ele>
        <time>2022-04-03T09:17:02.000Z</time>
      </trkpt>
      <trkpt lat="49.6667" lon="4.7205">
        <ele>284</ele>
        <time>2022-04-03T09:17:03.000Z</time>
      </trkpt>
      <trkpt lat="49.66669" lon="4.72049">
        <ele>285</ele>
        <time>2022-04-03T09:17:04.000Z</time>
      </trkpt>
      <trkpt lat="49.66667" lon="4.72048">
        <ele>285</ele>
        <time>2022-04-03T09:17:05.000Z</time>
      </trkpt>
      <trkpt lat="49.66665" lon="4.72047">
        <ele>285</ele>
        <time>2022-04-03T09:17:06.000Z</time>
      </trkpt>
      <trkpt lat="49.66664" lon="4.72047">
        <ele>285</ele>
        <time>2022-04-03T09:17:07.000Z</time>
      </trkpt>
      <trkpt lat="49.66662" lon="4.72046">
        <ele>285</ele>
        <time>2022-04-03T09:17:08.000Z</time>
      </trkpt>
      <trkpt lat="49.6666" lon="4.72045">
        <ele>285</ele>
        <time>2022-04-03T09:17:09.000Z</time>
      </trkpt>
      <trkpt lat="49.66659" lon="4.72044">
        <ele>285</ele>
        <time>2022-04-03T09:17:10.000Z</time>
      </trkpt>
      <trkpt lat="49.66657" lon="4.72042">
        <ele>286</ele>
        <time>2022-04-03T09:17:11.000Z</time>
      </trkpt>
      <trkpt lat="49.66655" lon="4.72041">
        <ele>286</ele>
        <time>2022-04-03T09:17:12.000Z</time>
      </trkpt>
      <trkpt lat="49.66654" lon="4.72041">
        <ele>286</ele>
        <time>2022-04-03T09:17:13.000Z</time>
      </trkpt>
      <trkpt lat="49.66652" lon="4.72039">
        <ele>286</ele>
        <time>2022-04-03T09:17:14.000Z</time>
      </trkpt>
      <trkpt lat="49.66651" lon="4.72038">
        <ele>286</ele>
        <time>2022-04-03T09:17:15.000Z</time>
      </trkpt>
      <trkpt lat="49.6665" lon="4.72037">
        <ele>286</ele>
        <time>2022-04-03T09:17:16.000Z</time>
      </trkpt>
      <trkpt lat="49.66649" lon="4.72036">
        <ele>286</ele>
        <time>2022-04-03T09:17:17.000Z</time>
      </trkpt>
      <trkpt lat="49.66647" lon="4.72035">
        <ele>287</ele>
        <time>2022-04-03T09:17:18.000Z</time>
      </trkpt>
      <trkpt lat="49.66645" lon="4.72034">
        <ele>287</ele>
        <time>2022-04-03T09:17:19.000Z</time>
      </trkpt>
      <trkpt lat="49.66644" lon="4.72033">
        <ele>287</ele>
        <time>2022-04-03T09:17:20.000Z</time>
      </trkpt>
      <trkpt lat="49.66642" lon="4.72031">
        <ele>287</ele>
        <time>2022-04-03T09:17:21.000Z</time>
      </trkpt>
      <trkpt lat="49.66641" lon="4.7203">
        <ele>288</ele>
        <time>2022-04-03T09:17:22.000Z</time>
      </trkpt>
      <trkpt lat="49.66639" lon="4.72028">
        <ele>288</ele>
        <time>2022-04-03T09:17:23.000Z</time>
      </trkpt>
      <trkpt lat="49.66638" lon="4.72027">
        <ele>289</ele>
        <time>2022-04-03T09:17:24.000Z</time>
      </trkpt>
      <trkpt lat="49.66637" lon="4.72026">
        <ele>289</ele>
        <time>2022-04-03T09:17:25.000Z</time>
      </trkpt>
      <trkpt lat="49.66636" lon="4.72025">
        <ele>289</ele>
        <time>2022-04-03T09:17:26.000Z</time>
      </trkpt>
      <trkpt lat="49.66634" lon="4.72024">
        <ele>290</ele>
        <time>2022-04-03T09:17:27.000Z</time>
      </trkpt>
      <trkpt lat="49.66632" lon="4.72023">
        <ele>290</ele>
        <time>2022-04-03T09:17:28.000Z</time>
      </trkpt>
      <trkpt lat="49.66631" lon="4.72021">
        <ele>291</ele>
        <time>2022-04-03T09:17:29.000Z</time>
      </trkpt>
      <trkpt lat="49.66629" lon="4.7202">
        <ele>291</ele>
        <time>2022-04-03T09:17:30.000Z</time>
      </trkpt>
      <trkpt lat="49.66628" lon="4.72019">
        <ele>292</ele>
        <time>2022-04-03T09:17:31.000Z</time>
      </trkpt>
      <trkpt lat="49.66627" lon="4.72018">
        <ele>292</ele>
        <time>2022-04-03T09:17:32.000Z</time>
      </trkpt>
      <trkpt lat="49.66626" lon="4.72016">
        <ele>293</ele>
        <time>2022-04-03T09:17:33.000Z</time>
      </trkpt>
      <trkpt lat="49.66624" lon="4.72015">
        <ele>293</ele>
        <time>2022-04-03T09:17:34.000Z</time>
      </trkpt>
      <trkpt lat="49.66623" lon="4.72013">
        <ele>293</ele>
        <time>2022-04-03T09:17:35.000Z</time>
      </trkpt>
      <trkpt lat="49.66622" lon="4.72011">
        <ele>294</ele>
        <time>2022-04-03T09:17:36.000Z</time>
      </trkpt>
      <trkpt lat="49.66621" lon="4.72009">
        <ele>294</ele>
        <time>2022-04-03T09:17:37.000Z</time>
      </trkpt>
      <trkpt lat="49.66619" lon="4.72008">
        <ele>294</ele>
        <time>2022-04-03T09:17:38.000Z</time>
      </trkpt>
      <trkpt lat="49.66618" lon="4.72007">
        <ele>294</ele>
        <time>2022-04-03T09:17:39.000Z</time>
      </trkpt>
      <trkpt lat="49.66617" lon="4.72005">
        <ele>295</ele>
        <time>2022-04-03T09:17:40.000Z</time>
      </trkpt>
      <trkpt lat="49.66615" lon="4.72003">
        <ele>295</ele>
        <time>2022-04-03T09:17:41.000Z</time>
      </trkpt>
      <trkpt lat="49.66613" lon="4.72001">
        <ele>295</ele>
        <time>2022-04-03T09:17:42.000Z</time>
      </trkpt>
      <trkpt lat="49.66612" lon="4.71999">
        <ele>296</ele>
        <time>2022-04-03T09:17:43.000Z</time>
      </trkpt>
      <trkpt lat="49.66611" lon="4.71998">
        <ele>296</ele>
        <time>2022-04-03T09:17:44.000Z</time>
      </trkpt>
      <trkpt lat="49.66609" lon="4.71996">
        <ele>296</ele>
        <time>2022-04-03T09:17:45.000Z</time>
      </trkpt>
      <trkpt lat="49.66607" lon="4.71994">
        <ele>296</ele>
        <time>2022-04-03T09:17:46.000Z</time>
      </trkpt>
      <trkpt lat="49.66605" lon="4.71993">
        <ele>296</ele>
        <time>2022-04-03T09:17:47.000Z</time>
      </trkpt>
      <trkpt lat="49.66604" lon="4.71991">
        <ele>297</ele>
        <time>2022-04-03T09:17:48.000Z</time>
      </trkpt>
      <trkpt lat="49.66602" lon="4.71989">
        <ele>297</ele>
        <time>2022-04-03T09:17:49.000Z</time>
      </trkpt>
      <trkpt lat="49.666" lon="4.71987">
        <ele>297</ele>
        <time>2022-04-03T09:17:50.000Z</time>
      </trkpt>
      <trkpt lat="49.66598" lon="4.71985">
        <ele>297</ele>
        <time>2022-04-03T09:17:51.000Z</time>
      </trkpt>
      <trkpt lat="49.66596" lon="4.71983">
        <ele>297</ele>
        <time>2022-04-03T09:17:52.000Z</time>
      </trkpt>
      <trkpt lat="49.66594" lon="4.71982">
        <ele>297</ele>
        <time>2022-04-03T09:17:53.000Z</time>
      </trkpt>
      <trkpt lat="49.66592" lon="4.7198">
        <ele>297</ele>
        <time>2022-04-03T09:17:54.000Z</time>
      </trkpt>
      <trkpt lat="49.66591" lon="4.71977">
        <ele>297</ele>
        <time>2022-04-03T09:17:55.000Z</time>
      </trkpt>
      <trkpt lat="49.66589" lon="4.71974">
        <ele>297</ele>
        <time>2022-04-03T09:17:56.000Z</time>
      </trkpt>
      <trkpt lat="49.66588" lon="4.71971">
        <ele>297</ele>
        <time>2022-04-03T09:17:57.000Z</time>
      </trkpt>
      <trkpt lat="49.66587" lon="4.71968">
        <ele>297</ele>
        <time>2022-04-03T09:17:58.000Z</time>
      </trkpt>
      <trkpt lat="49.66585" lon="4.71966">
        <ele>297</ele>
        <time>2022-04-03T09:17:59.000Z</time>
      </trkpt>
      <trkpt lat="49.66584" lon="4.71962">
        <ele>297</ele>
        <time>2022-04-03T09:18:00.000Z</time>
      </trkpt>
      <trkpt lat="49.66582" lon="4.71958">
        <ele>297</ele>
        <time>2022-04-03T09:18:01.000Z</time>
      </trkpt>
      <trkpt lat="49.6658" lon="4.71955">
        <ele>297</ele>
        <time>2022-04-03T09:18:02.000Z</time>
      </trkpt>
      <trkpt lat="49.66578" lon="4.71951">
        <ele>297</ele>
        <time>2022-04-03T09:18:03.000Z</time>
      </trkpt>
      <trkpt lat="49.66576" lon="4.71948">
        <ele>297</ele>
        <time>2022-04-03T09:18:04.000Z</time>
      </trkpt>
      <trkpt lat="49.66574" lon="4.71944">
        <ele>297</ele>
        <time>2022-04-03T09:18:05.000Z</time>
      </trkpt>
      <trkpt lat="49.66572" lon="4.71941">
        <ele>297</ele>
        <time>2022-04-03T09:18:06.000Z</time>
      </trkpt>
      <trkpt lat="49.66569" lon="4.71938">
        <ele>297</ele>
        <time>2022-04-03T09:18:07.000Z</time>
      </trkpt>
      <trkpt lat="49.66567" lon="4.71934">
        <ele>297</ele>
        <time>2022-04-03T09:18:08.000Z</time>
      </trkpt>
      <trkpt lat="49.66565" lon="4.71932">
        <ele>297</ele>
        <time>2022-04-03T09:18:09.000Z</time>
      </trkpt>
      <trkpt lat="49.66564" lon="4.71929">
        <ele>298</ele>
        <time>2022-04-03T09:18:10.000Z</time>
      </trkpt>
      <trkpt lat="49.66562" lon="4.71927">
        <ele>298</ele>
        <time>2022-04-03T09:18:11.000Z</time>
      </trkpt>
      <trkpt lat="49.6656" lon="4.71923">
        <ele>298</ele>
        <time>2022-04-03T09:18:12.000Z</time>
      </trkpt>
      <trkpt lat="49.66558" lon="4.7192">
        <ele>298</ele>
        <time>2022-04-03T09:18:13.000Z</time>
      </trkpt>
      <trkpt lat="49.66557" lon="4.71917">
        <ele>298</ele>
        <time>2022-04-03T09:18:14.000Z</time>
      </trkpt>
      <trkpt lat="49.66555" lon="4.71914">
        <ele>298</ele>
        <time>2022-04-03T09:18:15.000Z</time>
      </trkpt>
      <trkpt lat="49.66552" lon="4.7191">
        <ele>298</ele>
        <time>2022-04-03T09:18:16.000Z</time>
      </trkpt>
      <trkpt lat="49.6655" lon="4.71906">
        <ele>298</ele>
        <time>2022-04-03T09:18:17.000Z</time>
      </trkpt>
      <trkpt lat="49.66548" lon="4.71902">
        <ele>298</ele>
        <time>2022-04-03T09:18:18.000Z</time>
      </trkpt>
      <trkpt lat="49.66545" lon="4.71898">
        <ele>298</ele>
        <time>2022-04-03T09:18:19.000Z</time>
      </trkpt>
      <trkpt lat="49.66542" lon="4.71893">
        <ele>298</ele>
        <time>2022-04-03T09:18:20.000Z</time>
      </trkpt>
      <trkpt lat="49.66539" lon="4.7189">
        <ele>298</ele>
        <time>2022-04-03T09:18:21.000Z</time>
      </trkpt>
      <trkpt lat="49.66537" lon="4.71886">
        <ele>298</ele>
        <time>2022-04-03T09:18:22.000Z</time>
      </trkpt>
      <trkpt lat="49.66534" lon="4.71881">
        <ele>299</ele>
        <time>2022-04-03T09:18:23.000Z</time>
      </trkpt>
      <trkpt lat="49.66532" lon="4.71878">
        <ele>299</ele>
        <time>2022-04-03T09:18:24.000Z</time>
      </trkpt>
      <trkpt lat="49.6653" lon="4.71875">
        <ele>299</ele>
        <time>2022-04-03T09:18:25.000Z</time>
      </trkpt>
      <trkpt lat="49.66528" lon="4.7187">
        <ele>299</ele>
        <time>2022-04-03T09:18:26.000Z</time>
      </trkpt>
      <trkpt lat="49.66525" lon="4.71866">
        <ele>299</ele>
        <time>2022-04-03T09:18:27.000Z</time>
      </trkpt>
      <trkpt lat="49.66522" lon="4.71861">
        <ele>299</ele>
        <time>2022-04-03T09:18:28.000Z</time>
      </trkpt>
      <trkpt lat="49.66519" lon="4.71857">
        <ele>299</ele>
        <time>2022-04-03T09:18:29.000Z</time>
      </trkpt>
      <trkpt lat="49.66516" lon="4.71853">
        <ele>299</ele>
        <time>2022-04-03T09:18:30.000Z</time>
      </trkpt>
      <trkpt lat="49.66513" lon="4.71848">
        <ele>299</ele>
        <time>2022-04-03T09:18:31.000Z</time>
      </trkpt>
      <trkpt lat="49.6651" lon="4.71842">
        <ele>299</ele>
        <time>2022-04-03T09:18:32.000Z</time>
      </trkpt>
      <trkpt lat="49.66507" lon="4.71837">
        <ele>299</ele>
        <time>2022-04-03T09:18:33.000Z</time>
      </trkpt>
      <trkpt lat="49.66504" lon="4.71832">
        <ele>299</ele>
        <time>2022-04-03T09:18:34.000Z</time>
      </trkpt>
      <trkpt lat="49.66501" lon="4.71827">
        <ele>299</ele>
        <time>2022-04-03T09:18:35.000Z</time>
      </trkpt>
      <trkpt lat="49.66498" lon="4.71823">
        <ele>299</ele>
        <time>2022-04-03T09:18:36.000Z</time>
      </trkpt>
      <trkpt lat="49.66495" lon="4.71818">
        <ele>299</ele>
        <time>2022-04-03T09:18:37.000Z</time>
      </trkpt>
      <trkpt lat="49.66492" lon="4.71814">
        <ele>299</ele>
        <time>2022-04-03T09:18:38.000Z</time>
      </trkpt>
      <trkpt lat="49.66489" lon="4.71809">
        <ele>299</ele>
        <time>2022-04-03T09:18:39.000Z</time>
      </trkpt>
      <trkpt lat="49.66485" lon="4.71806">
        <ele>299</ele>
        <time>2022-04-03T09:18:40.000Z</time>
      </trkpt>
      <trkpt lat="49.66482" lon="4.71805">
        <ele>299</ele>
        <time>2022-04-03T09:18:41.000Z</time>
      </trkpt>
      <trkpt lat="49.66479" lon="4.71805">
        <ele>299</ele>
        <time>2022-04-03T09:18:42.000Z</time>
      </trkpt>
      <trkpt lat="49.66476" lon="4.71807">
        <ele>299</ele>
        <time>2022-04-03T09:18:43.000Z</time>
      </trkpt>
      <trkpt lat="49.66473" lon="4.71808">
        <ele>299</ele>
        <time>2022-04-03T09:18:44.000Z</time>
      </trkpt>
      <trkpt lat="49.6647" lon="4.71811">
        <ele>300</ele>
        <time>2022-04-03T09:18:45.000Z</time>
      </trkpt>
      <trkpt lat="49.66467" lon="4.71814">
        <ele>300</ele>
        <time>2022-04-03T09:18:46.000Z</time>
      </trkpt>
      <trkpt lat="49.66465" lon="4.71816">
        <ele>300</ele>
        <time>2022-04-03T09:18:47.000Z</time>
      </trkpt>
      <trkpt lat="49.66463" lon="4.71819">
        <ele>300</ele>
        <time>2022-04-03T09:18:48.000Z</time>
      </trkpt>
      <trkpt lat="49.66461" lon="4.71822">
        <ele>301</ele>
        <time>2022-04-03T09:18:49.000Z</time>
      </trkpt>
      <trkpt lat="49.66459" lon="4.71824">
        <ele>301</ele>
        <time>2022-04-03T09:18:50.000Z</time>
      </trkpt>
      <trkpt lat="49.66457" lon="4.71827">
        <ele>301</ele>
        <time>2022-04-03T09:18:51.000Z</time>
      </trkpt>
      <trkpt lat="49.66455" lon="4.7183">
        <ele>301</ele>
        <time>2022-04-03T09:18:52.000Z</time>
      </trkpt>
      <trkpt lat="49.66454" lon="4.71833">
        <ele>302</ele>
        <time>2022-04-03T09:18:53.000Z</time>
      </trkpt>
      <trkpt lat="49.66452" lon="4.71836">
        <ele>302</ele>
        <time>2022-04-03T09:18:54.000Z</time>
      </trkpt>
      <trkpt lat="49.6645" lon="4.71839">
        <ele>302</ele>
        <time>2022-04-03T09:18:55.000Z</time>
      </trkpt>
      <trkpt lat="49.66448" lon="4.71841">
        <ele>302</ele>
        <time>2022-04-03T09:18:56.000Z</time>
      </trkpt>
      <trkpt lat="49.66446" lon="4.71842">
        <ele>303</ele>
        <time>2022-04-03T09:18:57.000Z</time>
      </trkpt>
      <trkpt lat="49.66444" lon="4.71844">
        <ele>303</ele>
        <time>2022-04-03T09:18:58.000Z</time>
      </trkpt>
      <trkpt lat="49.66443" lon="4.71847">
        <ele>303</ele>
        <time>2022-04-03T09:18:59.000Z</time>
      </trkpt>
      <trkpt lat="49.6644" lon="4.71849">
        <ele>304</ele>
        <time>2022-04-03T09:19:00.000Z</time>
      </trkpt>
      <trkpt lat="49.66438" lon="4.71853">
        <ele>304</ele>
        <time>2022-04-03T09:19:01.000Z</time>
      </trkpt>
      <trkpt lat="49.66436" lon="4.71855">
        <ele>304</ele>
        <time>2022-04-03T09:19:02.000Z</time>
      </trkpt>
      <trkpt lat="49.66434" lon="4.71859">
        <ele>304</ele>
        <time>2022-04-03T09:19:03.000Z</time>
      </trkpt>
      <trkpt lat="49.66433" lon="4.71863">
        <ele>305</ele>
        <time>2022-04-03T09:19:04.000Z</time>
      </trkpt>
      <trkpt lat="49.66431" lon="4.71866">
        <ele>305</ele>
        <time>2022-04-03T09:19:05.000Z</time>
      </trkpt>
      <trkpt lat="49.66429" lon="4.71869">
        <ele>305</ele>
        <time>2022-04-03T09:19:06.000Z</time>
      </trkpt>
      <trkpt lat="49.66427" lon="4.71872">
        <ele>305</ele>
        <time>2022-04-03T09:19:07.000Z</time>
      </trkpt>
      <trkpt lat="49.66426" lon="4.71876">
        <ele>305</ele>
        <time>2022-04-03T09:19:08.000Z</time>
      </trkpt>
      <trkpt lat="49.66423" lon="4.7188">
        <ele>305</ele>
        <time>2022-04-03T09:19:09.000Z</time>
      </trkpt>
      <trkpt lat="49.66421" lon="4.71884">
        <ele>306</ele>
        <time>2022-04-03T09:19:10.000Z</time>
      </trkpt>
      <trkpt lat="49.66419" lon="4.71888">
        <ele>306</ele>
        <time>2022-04-03T09:19:11.000Z</time>
      </trkpt>
      <trkpt lat="49.66416" lon="4.71892">
        <ele>306</ele>
        <time>2022-04-03T09:19:12.000Z</time>
      </trkpt>
      <trkpt lat="49.66414" lon="4.71896">
        <ele>306</ele>
        <time>2022-04-03T09:19:13.000Z</time>
      </trkpt>
      <trkpt lat="49.66411" lon="4.71901">
        <ele>306</ele>
        <time>2022-04-03T09:19:14.000Z</time>
      </trkpt>
      <trkpt lat="49.66409" lon="4.71904">
        <ele>306</ele>
        <time>2022-04-03T09:19:15.000Z</time>
      </trkpt>
      <trkpt lat="49.66405" lon="4.71908">
        <ele>306</ele>
        <time>2022-04-03T09:19:16.000Z</time>
      </trkpt>
      <trkpt lat="49.66402" lon="4.71911">
        <ele>306</ele>
        <time>2022-04-03T09:19:17.000Z</time>
      </trkpt>
      <trkpt lat="49.66399" lon="4.71915">
        <ele>307</ele>
        <time>2022-04-03T09:19:18.000Z</time>
      </trkpt>
      <trkpt lat="49.66396" lon="4.7192">
        <ele>307</ele>
        <time>2022-04-03T09:19:19.000Z</time>
      </trkpt>
      <trkpt lat="49.66393" lon="4.71924">
        <ele>307</ele>
        <time>2022-04-03T09:19:20.000Z</time>
      </trkpt>
      <trkpt lat="49.66389" lon="4.71928">
        <ele>307</ele>
        <time>2022-04-03T09:19:21.000Z</time>
      </trkpt>
      <trkpt lat="49.66386" lon="4.71931">
        <ele>307</ele>
        <time>2022-04-03T09:19:22.000Z</time>
      </trkpt>
      <trkpt lat="49.66382" lon="4.71936">
        <ele>307</ele>
        <time>2022-04-03T09:19:23.000Z</time>
      </trkpt>
      <trkpt lat="49.66378" lon="4.7194">
        <ele>307</ele>
        <time>2022-04-03T09:19:24.000Z</time>
      </trkpt>
      <trkpt lat="49.66374" lon="4.71943">
        <ele>307</ele>
        <time>2022-04-03T09:19:25.000Z</time>
      </trkpt>
      <trkpt lat="49.66371" lon="4.71948">
        <ele>307</ele>
        <time>2022-04-03T09:19:26.000Z</time>
      </trkpt>
      <trkpt lat="49.66367" lon="4.71953">
        <ele>307</ele>
        <time>2022-04-03T09:19:27.000Z</time>
      </trkpt>
      <trkpt lat="49.66364" lon="4.71959">
        <ele>307</ele>
        <time>2022-04-03T09:19:28.000Z</time>
      </trkpt>
      <trkpt lat="49.66361" lon="4.71964">
        <ele>307</ele>
        <time>2022-04-03T09:19:29.000Z</time>
      </trkpt>
      <trkpt lat="49.66358" lon="4.71969">
        <ele>307</ele>
        <time>2022-04-03T09:19:30.000Z</time>
      </trkpt>
      <trkpt lat="49.66356" lon="4.71975">
        <ele>307</ele>
        <time>2022-04-03T09:19:31.000Z</time>
      </trkpt>
      <trkpt lat="49.66353" lon="4.71981">
        <ele>307</ele>
        <time>2022-04-03T09:19:32.000Z</time>
      </trkpt>
      <trkpt lat="49.66349" lon="4.71987">
        <ele>307</ele>
        <time>2022-04-03T09:19:33.000Z</time>
      </trkpt>
      <trkpt lat="49.66344" lon="4.71993">
        <ele>306</ele>
        <time>2022-04-03T09:19:34.000Z</time>
      </trkpt>
      <trkpt lat="49.6634" lon="4.71998">
        <ele>306</ele>
        <time>2022-04-03T09:19:35.000Z</time>
      </trkpt>
      <trkpt lat="49.66335" lon="4.72003">
        <ele>306</ele>
        <time>2022-04-03T09:19:36.000Z</time>
      </trkpt>
      <trkpt lat="49.66331" lon="4.72007">
        <ele>306</ele>
        <time>2022-04-03T09:19:37.000Z</time>
      </trkpt>
      <trkpt lat="49.66326" lon="4.72013">
        <ele>306</ele>
        <time>2022-04-03T09:19:38.000Z</time>
      </trkpt>
      <trkpt lat="49.66321" lon="4.7202">
        <ele>306</ele>
        <time>2022-04-03T09:19:39.000Z</time>
      </trkpt>
      <trkpt lat="49.66317" lon="4.72028">
        <ele>306</ele>
        <time>2022-04-03T09:19:40.000Z</time>
      </trkpt>
      <trkpt lat="49.66313" lon="4.72036">
        <ele>306</ele>
        <time>2022-04-03T09:19:41.000Z</time>
      </trkpt>
      <trkpt lat="49.66309" lon="4.72044">
        <ele>305</ele>
        <time>2022-04-03T09:19:42.000Z</time>
      </trkpt>
      <trkpt lat="49.66304" lon="4.72052">
        <ele>305</ele>
        <time>2022-04-03T09:19:43.000Z</time>
      </trkpt>
      <trkpt lat="49.66299" lon="4.7206">
        <ele>305</ele>
        <time>2022-04-03T09:19:44.000Z</time>
      </trkpt>
      <trkpt lat="49.66294" lon="4.72068">
        <ele>305</ele>
        <time>2022-04-03T09:19:45.000Z</time>
      </trkpt>
      <trkpt lat="49.66289" lon="4.72076">
        <ele>305</ele>
        <time>2022-04-03T09:19:46.000Z</time>
      </trkpt>
      <trkpt lat="49.66284" lon="4.72084">
        <ele>304</ele>
        <time>2022-04-03T09:19:47.000Z</time>
      </trkpt>
      <trkpt lat="49.66279" lon="4.72092">
        <ele>304</ele>
        <time>2022-04-03T09:19:48.000Z</time>
      </trkpt>
      <trkpt lat="49.66275" lon="4.72101">
        <ele>304</ele>
        <time>2022-04-03T09:19:49.000Z</time>
      </trkpt>
      <trkpt lat="49.6627" lon="4.72109">
        <ele>304</ele>
        <time>2022-04-03T09:19:50.000Z</time>
      </trkpt>
      <trkpt lat="49.66265" lon="4.72117">
        <ele>304</ele>
        <time>2022-04-03T09:19:51.000Z</time>
      </trkpt>
      <trkpt lat="49.6626" lon="4.72125">
        <ele>303</ele>
        <time>2022-04-03T09:19:52.000Z</time>
      </trkpt>
      <trkpt lat="49.66254" lon="4.72133">
        <ele>303</ele>
        <time>2022-04-03T09:19:53.000Z</time>
      </trkpt>
      <trkpt lat="49.66249" lon="4.72141">
        <ele>303</ele>
        <time>2022-04-03T09:19:54.000Z</time>
      </trkpt>
      <trkpt lat="49.66244" lon="4.72147">
        <ele>303</ele>
        <time>2022-04-03T09:19:55.000Z</time>
      </trkpt>
      <trkpt lat="49.6624" lon="4.72153">
        <ele>303</ele>
        <time>2022-04-03T09:19:56.000Z</time>
      </trkpt>
      <trkpt lat="49.66236" lon="4.72159">
        <ele>302</ele>
        <time>2022-04-03T09:19:57.000Z</time>
      </trkpt>
      <trkpt lat="49.66231" lon="4.72164">
        <ele>302</ele>
        <time>2022-04-03T09:19:58.000Z</time>
      </trkpt>
      <trkpt lat="49.66228" lon="4.7217">
        <ele>302</ele>
        <time>2022-04-03T09:19:59.000Z</time>
      </trkpt>
      <trkpt lat="49.66224" lon="4.72176">
        <ele>302</ele>
        <time>2022-04-03T09:20:00.000Z</time>
      </trkpt>
      <trkpt lat="49.66221" lon="4.72184">
        <ele>302</ele>
        <time>2022-04-03T09:20:01.000Z</time>
      </trkpt>
      <trkpt lat="49.66217" lon="4.7219">
        <ele>302</ele>
        <time>2022-04-03T09:20:02.000Z</time>
      </trkpt>
      <trkpt lat="49.66213" lon="4.72195">
        <ele>302</ele>
        <time>2022-04-03T09:20:03.000Z</time>
      </trkpt>
      <trkpt lat="49.6621" lon="4.722">
        <ele>302</ele>
        <time>2022-04-03T09:20:04.000Z</time>
      </trkpt>
      <trkpt lat="49.66206" lon="4.72204">
        <ele>301</ele>
        <time>2022-04-03T09:20:05.000Z</time>
      </trkpt>
      <trkpt lat="49.66203" lon="4.72208">
        <ele>301</ele>
        <time>2022-04-03T09:20:06.000Z</time>
      </trkpt>
      <trkpt lat="49.66199" lon="4.72211">
        <ele>301</ele>
        <time>2022-04-03T09:20:07.000Z</time>
      </trkpt>
      <trkpt lat="49.66195" lon="4.72212">
        <ele>301</ele>
        <time>2022-04-03T09:20:08.000Z</time>
      </trkpt>
      <trkpt lat="49.66191" lon="4.72211">
        <ele>301</ele>
        <time>2022-04-03T09:20:09.000Z</time>
      </trkpt>
      <trkpt lat="49.66188" lon="4.72208">
        <ele>301</ele>
        <time>2022-04-03T09:20:10.000Z</time>
      </trkpt>
      <trkpt lat="49.66185" lon="4.72206">
        <ele>300</ele>
        <time>2022-04-03T09:20:11.000Z</time>
      </trkpt>
      <trkpt lat="49.66183" lon="4.72204">
        <ele>300</ele>
        <time>2022-04-03T09:20:12.000Z</time>
      </trkpt>
      <trkpt lat="49.6618" lon="4.722">
        <ele>300</ele>
        <time>2022-04-03T09:20:13.000Z</time>
      </trkpt>
      <trkpt lat="49.66177" lon="4.72197">
        <ele>300</ele>
        <time>2022-04-03T09:20:14.000Z</time>
      </trkpt>
      <trkpt lat="49.66174" lon="4.72195">
        <ele>299</ele>
        <time>2022-04-03T09:20:15.000Z</time>
      </trkpt>
      <trkpt lat="49.66171" lon="4.72192">
        <ele>299</ele>
        <time>2022-04-03T09:20:16.000Z</time>
      </trkpt>
      <trkpt lat="49.66169" lon="4.72189">
        <ele>299</ele>
        <time>2022-04-03T09:20:17.000Z</time>
      </trkpt>
      <trkpt lat="49.66166" lon="4.72186">
        <ele>299</ele>
        <time>2022-04-03T09:20:18.000Z</time>
      </trkpt>
      <trkpt lat="49.66163" lon="4.72183">
        <ele>299</ele>
        <time>2022-04-03T09:20:19.000Z</time>
      </trkpt>
      <trkpt lat="49.66161" lon="4.72181">
        <ele>299</ele>
        <time>2022-04-03T09:20:20.000Z</time>
      </trkpt>
      <trkpt lat="49.66159" lon="4.7218">
        <ele>299</ele>
        <time>2022-04-03T09:20:21.000Z</time>
      </trkpt>
      <trkpt lat="49.66158" lon="4.72178">
        <ele>298</ele>
        <time>2022-04-03T09:20:22.000Z</time>
      </trkpt>
      <trkpt lat="49.66156" lon="4.72176">
        <ele>298</ele>
        <time>2022-04-03T09:20:23.000Z</time>
      </trkpt>
      <trkpt lat="49.66154" lon="4.72174">
        <ele>298</ele>
        <time>2022-04-03T09:20:24.000Z</time>
      </trkpt>
      <trkpt lat="49.66152" lon="4.72171">
        <ele>298</ele>
        <time>2022-04-03T09:20:25.000Z</time>
      </trkpt>
      <trkpt lat="49.66151" lon="4.72169">
        <ele>298</ele>
        <time>2022-04-03T09:20:26.000Z</time>
      </trkpt>
      <trkpt lat="49.6615" lon="4.72168">
        <ele>298</ele>
        <time>2022-04-03T09:20:27.000Z</time>
      </trkpt>
      <trkpt lat="49.66148" lon="4.72166">
        <ele>298</ele>
        <time>2022-04-03T09:20:28.000Z</time>
      </trkpt>
      <trkpt lat="49.66146" lon="4.72163">
        <ele>297</ele>
        <time>2022-04-03T09:20:29.000Z</time>
      </trkpt>
      <trkpt lat="49.66143" lon="4.7216">
        <ele>297</ele>
        <time>2022-04-03T09:20:30.000Z</time>
      </trkpt>
      <trkpt lat="49.66141" lon="4.72157">
        <ele>297</ele>
        <time>2022-04-03T09:20:31.000Z</time>
      </trkpt>
      <trkpt lat="49.66138" lon="4.72154">
        <ele>297</ele>
        <time>2022-04-03T09:20:32.000Z</time>
      </trkpt>
      <trkpt lat="49.66136" lon="4.72151">
        <ele>297</ele>
        <time>2022-04-03T09:20:33.000Z</time>
      </trkpt>
      <trkpt lat="49.66133" lon="4.72147">
        <ele>297</ele>
        <time>2022-04-03T09:20:34.000Z</time>
      </trkpt>
      <trkpt lat="49.66131" lon="4.72144">
        <ele>297</ele>
        <time>2022-04-03T09:20:35.000Z</time>
      </trkpt>
      <trkpt lat="49.66129" lon="4.72141">
        <ele>297</ele>
        <time>2022-04-03T09:20:36.000Z</time>
      </trkpt>
      <trkpt lat="49.66126" lon="4.72137">
        <ele>296</ele>
        <time>2022-04-03T09:20:37.000Z</time>
      </trkpt>
      <trkpt lat="49.66124" lon="4.72134">
        <ele>296</ele>
        <time>2022-04-03T09:20:38.000Z</time>
      </trkpt>
      <trkpt lat="49.66122" lon="4.72131">
        <ele>296</ele>
        <time>2022-04-03T09:20:39.000Z</time>
      </trkpt>
      <trkpt lat="49.6612" lon="4.72127">
        <ele>296</ele>
        <time>2022-04-03T09:20:40.000Z</time>
      </trkpt>
      <trkpt lat="49.66117" lon="4.72124">
        <ele>296</ele>
        <time>2022-04-03T09:20:41.000Z</time>
      </trkpt>
      <trkpt lat="49.66115" lon="4.72121">
        <ele>296</ele>
        <time>2022-04-03T09:20:42.000Z</time>
      </trkpt>
      <trkpt lat="49.66113" lon="4.72118">
        <ele>296</ele>
        <time>2022-04-03T09:20:43.000Z</time>
      </trkpt>
      <trkpt lat="49.66111" lon="4.72114">
        <ele>296</ele>
        <time>2022-04-03T09:20:44.000Z</time>
      </trkpt>
      <trkpt lat="49.66108" lon="4.72111">
        <ele>296</ele>
        <time>2022-04-03T09:20:45.000Z</time>
      </trkpt>
      <trkpt lat="49.66105" lon="4.72108">
        <ele>296</ele>
        <time>2022-04-03T09:20:46.000Z</time>
      </trkpt>
      <trkpt lat="49.66103" lon="4.72105">
        <ele>296</ele>
        <time>2022-04-03T09:20:47.000Z</time>
      </trkpt>
      <trkpt lat="49.66101" lon="4.72102">
        <ele>296</ele>
        <time>2022-04-03T09:20:48.000Z</time>
      </trkpt>
      <trkpt lat="49.66098" lon="4.72099">
        <ele>296</ele>
        <time>2022-04-03T09:20:49.000Z</time>
      </trkpt>
      <trkpt lat="49.66096" lon="4.72095">
        <ele>296</ele>
        <time>2022-04-03T09:20:50.000Z</time>
      </trkpt>
      <trkpt lat="49.66095" lon="4.72092">
        <ele>296</ele>
        <time>2022-04-03T09:20:51.000Z</time>
      </trkpt>
      <trkpt lat="49.66092" lon="4.72089">
        <ele>296</ele>
        <time>2022-04-03T09:20:52.000Z</time>
      </trkpt>
      <trkpt lat="49.6609" lon="4.72085">
        <ele>297</ele>
        <time>2022-04-03T09:20:53.000Z</time>
      </trkpt>
      <trkpt lat="49.66087" lon="4.72081">
        <ele>297</ele>
        <time>2022-04-03T09:20:54.000Z</time>
      </trkpt>
      <trkpt lat="49.66085" lon="4.72077">
        <ele>297</ele>
        <time>2022-04-03T09:20:55.000Z</time>
      </trkpt>
      <trkpt lat="49.66083" lon="4.72073">
        <ele>297</ele>
        <time>2022-04-03T09:20:56.000Z</time>
      </trkpt>
      <trkpt lat="49.66081" lon="4.7207">
        <ele>297</ele>
        <time>2022-04-03T09:20:57.000Z</time>
      </trkpt>
      <trkpt lat="49.6608" lon="4.72067">
        <ele>297</ele>
        <time>2022-04-03T09:20:58.000Z</time>
      </trkpt>
      <trkpt lat="49.66077" lon="4.72064">
        <ele>297</ele>
        <time>2022-04-03T09:20:59.000Z</time>
      </trkpt>
      <trkpt lat="49.66076" lon="4.72061">
        <ele>297</ele>
        <time>2022-04-03T09:21:00.000Z</time>
      </trkpt>
      <trkpt lat="49.66073" lon="4.72058">
        <ele>297</ele>
        <time>2022-04-03T09:21:01.000Z</time>
      </trkpt>
      <trkpt lat="49.66071" lon="4.72054">
        <ele>297</ele>
        <time>2022-04-03T09:21:02.000Z</time>
      </trkpt>
      <trkpt lat="49.66068" lon="4.7205">
        <ele>297</ele>
        <time>2022-04-03T09:21:03.000Z</time>
      </trkpt>
      <trkpt lat="49.66065" lon="4.72046">
        <ele>296</ele>
        <time>2022-04-03T09:21:04.000Z</time>
      </trkpt>
      <trkpt lat="49.66063" lon="4.72042">
        <ele>297</ele>
        <time>2022-04-03T09:21:05.000Z</time>
      </trkpt>
      <trkpt lat="49.66059" lon="4.72038">
        <ele>297</ele>
        <time>2022-04-03T09:21:06.000Z</time>
      </trkpt>
      <trkpt lat="49.66057" lon="4.72034">
        <ele>296</ele>
        <time>2022-04-03T09:21:07.000Z</time>
      </trkpt>
      <trkpt lat="49.66054" lon="4.7203">
        <ele>297</ele>
        <time>2022-04-03T09:21:08.000Z</time>
      </trkpt>
      <trkpt lat="49.66052" lon="4.72025">
        <ele>297</ele>
        <time>2022-04-03T09:21:09.000Z</time>
      </trkpt>
      <trkpt lat="49.66049" lon="4.72021">
        <ele>297</ele>
        <time>2022-04-03T09:21:10.000Z</time>
      </trkpt>
      <trkpt lat="49.66046" lon="4.72017">
        <ele>297</ele>
        <time>2022-04-03T09:21:11.000Z</time>
      </trkpt>
      <trkpt lat="49.66043" lon="4.72013">
        <ele>297</ele>
        <time>2022-04-03T09:21:12.000Z</time>
      </trkpt>
      <trkpt lat="49.6604" lon="4.72008">
        <ele>297</ele>
        <time>2022-04-03T09:21:13.000Z</time>
      </trkpt>
      <trkpt lat="49.66037" lon="4.72004">
        <ele>297</ele>
        <time>2022-04-03T09:21:14.000Z</time>
      </trkpt>
      <trkpt lat="49.66034" lon="4.72">
        <ele>297</ele>
        <time>2022-04-03T09:21:15.000Z</time>
      </trkpt>
      <trkpt lat="49.66031" lon="4.71996">
        <ele>297</ele>
        <time>2022-04-03T09:21:16.000Z</time>
      </trkpt>
      <trkpt lat="49.66029" lon="4.71992">
        <ele>297</ele>
        <time>2022-04-03T09:21:17.000Z</time>
      </trkpt>
      <trkpt lat="49.66026" lon="4.71987">
        <ele>297</ele>
        <time>2022-04-03T09:21:18.000Z</time>
      </trkpt>
      <trkpt lat="49.66024" lon="4.71983">
        <ele>297</ele>
        <time>2022-04-03T09:21:19.000Z</time>
      </trkpt>
      <trkpt lat="49.66021" lon="4.71979">
        <ele>297</ele>
        <time>2022-04-03T09:21:20.000Z</time>
      </trkpt>
      <trkpt lat="49.6602" lon="4.71976">
        <ele>297</ele>
        <time>2022-04-03T09:21:21.000Z</time>
      </trkpt>
      <trkpt lat="49.66017" lon="4.71972">
        <ele>297</ele>
        <time>2022-04-03T09:21:22.000Z</time>
      </trkpt>
      <trkpt lat="49.66015" lon="4.71968">
        <ele>297</ele>
        <time>2022-04-03T09:21:23.000Z</time>
      </trkpt>
      <trkpt lat="49.66012" lon="4.71964">
        <ele>297</ele>
        <time>2022-04-03T09:21:24.000Z</time>
      </trkpt>
      <trkpt lat="49.6601" lon="4.71961">
        <ele>297</ele>
        <time>2022-04-03T09:21:25.000Z</time>
      </trkpt>
      <trkpt lat="49.66009" lon="4.71958">
        <ele>297</ele>
        <time>2022-04-03T09:21:26.000Z</time>
      </trkpt>
      <trkpt lat="49.66008" lon="4.71954">
        <ele>297</ele>
        <time>2022-04-03T09:21:27.000Z</time>
      </trkpt>
      <trkpt lat="49.66007" lon="4.7195">
        <ele>297</ele>
        <time>2022-04-03T09:21:28.000Z</time>
      </trkpt>
      <trkpt lat="49.66006" lon="4.71945">
        <ele>297</ele>
        <time>2022-04-03T09:21:29.000Z</time>
      </trkpt>
      <trkpt lat="49.66005" lon="4.71943">
        <ele>297</ele>
        <time>2022-04-03T09:21:30.000Z</time>
      </trkpt>
      <trkpt lat="49.66005" lon="4.71942">
        <ele>298</ele>
        <time>2022-04-03T09:21:31.000Z</time>
      </trkpt>
      <trkpt lat="49.66006" lon="4.71941">
        <ele>298</ele>
        <time>2022-04-03T09:21:32.000Z</time>
      </trkpt>
      <trkpt lat="49.66006" lon="4.71941">
        <ele>298</ele>
        <time>2022-04-03T09:21:33.000Z</time>
      </trkpt>
      <trkpt lat="49.66008" lon="4.7194">
        <ele>298</ele>
        <time>2022-04-03T09:21:34.000Z</time>
      </trkpt>
      <trkpt lat="49.66009" lon="4.7194">
        <ele>298</ele>
        <time>2022-04-03T09:21:35.000Z</time>
      </trkpt>
      <trkpt lat="49.66011" lon="4.71939">
        <ele>298</ele>
        <time>2022-04-03T09:21:36.000Z</time>
      </trkpt>
      <trkpt lat="49.66013" lon="4.71939">
        <ele>298</ele>
        <time>2022-04-03T09:21:37.000Z</time>
      </trkpt>
      <trkpt lat="49.66014" lon="4.71939">
        <ele>298</ele>
        <time>2022-04-03T09:21:38.000Z</time>
      </trkpt>
      <trkpt lat="49.66016" lon="4.71939">
        <ele>298</ele>
        <time>2022-04-03T09:21:39.000Z</time>
      </trkpt>
      <trkpt lat="49.66018" lon="4.7194">
        <ele>298</ele>
        <time>2022-04-03T09:21:40.000Z</time>
      </trkpt>
      <trkpt lat="49.6602" lon="4.7194">
        <ele>298</ele>
        <time>2022-04-03T09:21:41.000Z</time>
      </trkpt>
      <trkpt lat="49.66022" lon="4.7194">
        <ele>298</ele>
        <time>2022-04-03T09:21:42.000Z</time>
      </trkpt>
      <trkpt lat="49.66025" lon="4.7194">
        <ele>298</ele>
        <time>2022-04-03T09:21:43.000Z</time>
      </trkpt>
      <trkpt lat="49.66028" lon="4.7194">
        <ele>299</ele>
        <time>2022-04-03T09:21:44.000Z</time>
      </trkpt>
      <trkpt lat="49.66031" lon="4.71941">
        <ele>299</ele>
        <time>2022-04-03T09:21:45.000Z</time>
      </trkpt>
      <trkpt lat="49.66033" lon="4.71941">
        <ele>299</ele>
        <time>2022-04-03T09:21:46.000Z</time>
      </trkpt>
      <trkpt lat="49.66035" lon="4.71942">
        <ele>299</ele>
        <time>2022-04-03T09:21:47.000Z</time>
      </trkpt>
      <trkpt lat="49.66037" lon="4.71942">
        <ele>299</ele>
        <time>2022-04-03T09:21:48.000Z</time>
      </trkpt>
      <trkpt lat="49.6604" lon="4.71941">
        <ele>299</ele>
        <time>2022-04-03T09:21:49.000Z</time>
      </trkpt>
      <trkpt lat="49.66042" lon="4.71941">
        <ele>299</ele>
        <time>2022-04-03T09:21:50.000Z</time>
      </trkpt>
      <trkpt lat="49.66045" lon="4.71941">
        <ele>299</ele>
        <time>2022-04-03T09:21:51.000Z</time>
      </trkpt>
      <trkpt lat="49.66048" lon="4.7194">
        <ele>299</ele>
        <time>2022-04-03T09:21:52.000Z</time>
      </trkpt>
      <trkpt lat="49.6605" lon="4.7194">
        <ele>299</ele>
        <time>2022-04-03T09:21:53.000Z</time>
      </trkpt>
      <trkpt lat="49.66052" lon="4.7194">
        <ele>299</ele>
        <time>2022-04-03T09:21:54.000Z</time>
      </trkpt>
      <trkpt lat="49.66054" lon="4.71939">
        <ele>299</ele>
        <time>2022-04-03T09:21:55.000Z</time>
      </trkpt>
      <trkpt lat="49.66057" lon="4.71939">
        <ele>299</ele>
        <time>2022-04-03T09:21:56.000Z</time>
      </trkpt>
      <trkpt lat="49.6606" lon="4.71938">
        <ele>299</ele>
        <time>2022-04-03T09:21:57.000Z</time>
      </trkpt>
      <trkpt lat="49.66062" lon="4.71937">
        <ele>299</ele>
        <time>2022-04-03T09:21:58.000Z</time>
      </trkpt>
      <trkpt lat="49.66065" lon="4.71936">
        <ele>299</ele>
        <time>2022-04-03T09:21:59.000Z</time>
      </trkpt>
      <trkpt lat="49.66068" lon="4.71935">
        <ele>300</ele>
        <time>2022-04-03T09:22:00.000Z</time>
      </trkpt>
      <trkpt lat="49.6607" lon="4.71934">
        <ele>300</ele>
        <time>2022-04-03T09:22:01.000Z</time>
      </trkpt>
      <trkpt lat="49.66073" lon="4.71934">
        <ele>300</ele>
        <time>2022-04-03T09:22:02.000Z</time>
      </trkpt>
      <trkpt lat="49.66076" lon="4.71933">
        <ele>300</ele>
        <time>2022-04-03T09:22:03.000Z</time>
      </trkpt>
      <trkpt lat="49.66079" lon="4.71932">
        <ele>301</ele>
        <time>2022-04-03T09:22:04.000Z</time>
      </trkpt>
      <trkpt lat="49.66082" lon="4.71931">
        <ele>301</ele>
        <time>2022-04-03T09:22:05.000Z</time>
      </trkpt>
      <trkpt lat="49.66085" lon="4.7193">
        <ele>301</ele>
        <time>2022-04-03T09:22:06.000Z</time>
      </trkpt>
      <trkpt lat="49.66088" lon="4.71929">
        <ele>301</ele>
        <time>2022-04-03T09:22:07.000Z</time>
      </trkpt>
      <trkpt lat="49.66092" lon="4.71929">
        <ele>301</ele>
        <time>2022-04-03T09:22:08.000Z</time>
      </trkpt>
      <trkpt lat="49.66095" lon="4.71928">
        <ele>301</ele>
        <time>2022-04-03T09:22:09.000Z</time>
      </trkpt>
      <trkpt lat="49.66098" lon="4.71927">
        <ele>302</ele>
        <time>2022-04-03T09:22:10.000Z</time>
      </trkpt>
      <trkpt lat="49.66101" lon="4.71926">
        <ele>302</ele>
        <time>2022-04-03T09:22:11.000Z</time>
      </trkpt>
      <trkpt lat="49.66104" lon="4.71924">
        <ele>302</ele>
        <time>2022-04-03T09:22:12.000Z</time>
      </trkpt>
      <trkpt lat="49.66107" lon="4.71922">
        <ele>302</ele>
        <time>2022-04-03T09:22:13.000Z</time>
      </trkpt>
      <trkpt lat="49.66111" lon="4.71921">
        <ele>302</ele>
        <time>2022-04-03T09:22:14.000Z</time>
      </trkpt>
      <trkpt lat="49.66115" lon="4.7192">
        <ele>302</ele>
        <time>2022-04-03T09:22:15.000Z</time>
      </trkpt>
      <trkpt lat="49.66118" lon="4.7192">
        <ele>302</ele>
        <time>2022-04-03T09:22:16.000Z</time>
      </trkpt>
      <trkpt lat="49.66121" lon="4.71919">
        <ele>302</ele>
        <time>2022-04-03T09:22:17.000Z</time>
      </trkpt>
      <trkpt lat="49.66125" lon="4.71918">
        <ele>302</ele>
        <time>2022-04-03T09:22:18.000Z</time>
      </trkpt>
      <trkpt lat="49.66129" lon="4.71917">
        <ele>302</ele>
        <time>2022-04-03T09:22:19.000Z</time>
      </trkpt>
      <trkpt lat="49.66132" lon="4.71916">
        <ele>302</ele>
        <time>2022-04-03T09:22:20.000Z</time>
      </trkpt>
      <trkpt lat="49.66136" lon="4.71916">
        <ele>302</ele>
        <time>2022-04-03T09:22:21.000Z</time>
      </trkpt>
      <trkpt lat="49.66139" lon="4.71916">
        <ele>302</ele>
        <time>2022-04-03T09:22:22.000Z</time>
      </trkpt>
      <trkpt lat="49.66143" lon="4.71914">
        <ele>302</ele>
        <time>2022-04-03T09:22:23.000Z</time>
      </trkpt>
      <trkpt lat="49.66146" lon="4.71913">
        <ele>302</ele>
        <time>2022-04-03T09:22:24.000Z</time>
      </trkpt>
      <trkpt lat="49.66149" lon="4.71911">
        <ele>302</ele>
        <time>2022-04-03T09:22:25.000Z</time>
      </trkpt>
      <trkpt lat="49.66152" lon="4.71908">
        <ele>302</ele>
        <time>2022-04-03T09:22:26.000Z</time>
      </trkpt>
      <trkpt lat="49.66156" lon="4.71905">
        <ele>303</ele>
        <time>2022-04-03T09:22:27.000Z</time>
      </trkpt>
      <trkpt lat="49.66159" lon="4.71902">
        <ele>303</ele>
        <time>2022-04-03T09:22:28.000Z</time>
      </trkpt>
      <trkpt lat="49.66163" lon="4.71899">
        <ele>303</ele>
        <time>2022-04-03T09:22:29.000Z</time>
      </trkpt>
      <trkpt lat="49.66167" lon="4.71896">
        <ele>303</ele>
        <time>2022-04-03T09:22:30.000Z</time>
      </trkpt>
      <trkpt lat="49.66171" lon="4.71894">
        <ele>303</ele>
        <time>2022-04-03T09:22:31.000Z</time>
      </trkpt>
      <trkpt lat="49.66175" lon="4.71891">
        <ele>303</ele>
        <time>2022-04-03T09:22:32.000Z</time>
      </trkpt>
      <trkpt lat="49.66179" lon="4.71888">
        <ele>303</ele>
        <time>2022-04-03T09:22:33.000Z</time>
      </trkpt>
      <trkpt lat="49.66183" lon="4.71886">
        <ele>303</ele>
        <time>2022-04-03T09:22:34.000Z</time>
      </trkpt>
      <trkpt lat="49.66186" lon="4.71883">
        <ele>303</ele>
        <time>2022-04-03T09:22:35.000Z</time>
      </trkpt>
      <trkpt lat="49.6619" lon="4.71881">
        <ele>303</ele>
        <time>2022-04-03T09:22:36.000Z</time>
      </trkpt>
      <trkpt lat="49.66194" lon="4.7188">
        <ele>303</ele>
        <time>2022-04-03T09:22:37.000Z</time>
      </trkpt>
      <trkpt lat="49.66198" lon="4.71878">
        <ele>303</ele>
        <time>2022-04-03T09:22:38.000Z</time>
      </trkpt>
      <trkpt lat="49.66202" lon="4.71877">
        <ele>303</ele>
        <time>2022-04-03T09:22:39.000Z</time>
      </trkpt>
      <trkpt lat="49.66205" lon="4.71875">
        <ele>303</ele>
        <time>2022-04-03T09:22:40.000Z</time>
      </trkpt>
      <trkpt lat="49.66209" lon="4.71874">
        <ele>303</ele>
        <time>2022-04-03T09:22:41.000Z</time>
      </trkpt>
      <trkpt lat="49.66212" lon="4.71873">
        <ele>303</ele>
        <time>2022-04-03T09:22:42.000Z</time>
      </trkpt>
      <trkpt lat="49.66216" lon="4.71871">
        <ele>303</ele>
        <time>2022-04-03T09:22:43.000Z</time>
      </trkpt>
      <trkpt lat="49.6622" lon="4.71871">
        <ele>303</ele>
        <time>2022-04-03T09:22:44.000Z</time>
      </trkpt>
      <trkpt lat="49.66224" lon="4.71869">
        <ele>303</ele>
        <time>2022-04-03T09:22:45.000Z</time>
      </trkpt>
      <trkpt lat="49.66228" lon="4.71868">
        <ele>303</ele>
        <time>2022-04-03T09:22:46.000Z</time>
      </trkpt>
      <trkpt lat="49.66231" lon="4.71867">
        <ele>303</ele>
        <time>2022-04-03T09:22:47.000Z</time>
      </trkpt>
      <trkpt lat="49.66235" lon="4.71866">
        <ele>303</ele>
        <time>2022-04-03T09:22:48.000Z</time>
      </trkpt>
      <trkpt lat="49.6624" lon="4.71865">
        <ele>303</ele>
        <time>2022-04-03T09:22:49.000Z</time>
      </trkpt>
      <trkpt lat="49.66244" lon="4.71863">
        <ele>303</ele>
        <time>2022-04-03T09:22:50.000Z</time>
      </trkpt>
      <trkpt lat="49.66247" lon="4.71862">
        <ele>303</ele>
        <time>2022-04-03T09:22:51.000Z</time>
      </trkpt>
      <trkpt lat="49.6625" lon="4.71861">
        <ele>303</ele>
        <time>2022-04-03T09:22:52.000Z</time>
      </trkpt>
      <trkpt lat="49.66252" lon="4.7186">
        <ele>302</ele>
        <time>2022-04-03T09:22:53.000Z</time>
      </trkpt>
      <trkpt lat="49.66254" lon="4.71858">
        <ele>302</ele>
        <time>2022-04-03T09:22:54.000Z</time>
      </trkpt>
      <trkpt lat="49.66256" lon="4.71857">
        <ele>302</ele>
        <time>2022-04-03T09:22:55.000Z</time>
      </trkpt>
      <trkpt lat="49.66259" lon="4.71854">
        <ele>302</ele>
        <time>2022-04-03T09:22:56.000Z</time>
      </trkpt>
      <trkpt lat="49.66262" lon="4.71851">
        <ele>303</ele>
        <time>2022-04-03T09:22:57.000Z</time>
      </trkpt>
      <trkpt lat="49.66265" lon="4.71849">
        <ele>303</ele>
        <time>2022-04-03T09:22:58.000Z</time>
      </trkpt>
      <trkpt lat="49.66269" lon="4.71846">
        <ele>302</ele>
        <time>2022-04-03T09:22:59.000Z</time>
      </trkpt>
      <trkpt lat="49.66272" lon="4.71841">
        <ele>302</ele>
        <time>2022-04-03T09:23:00.000Z</time>
      </trkpt>
      <trkpt lat="49.66276" lon="4.71837">
        <ele>302</ele>
        <time>2022-04-03T09:23:01.000Z</time>
      </trkpt>
      <trkpt lat="49.66279" lon="4.71832">
        <ele>302</ele>
        <time>2022-04-03T09:23:02.000Z</time>
      </trkpt>
      <trkpt lat="49.66282" lon="4.71827">
        <ele>302</ele>
        <time>2022-04-03T09:23:03.000Z</time>
      </trkpt>
      <trkpt lat="49.66285" lon="4.71822">
        <ele>302</ele>
        <time>2022-04-03T09:23:04.000Z</time>
      </trkpt>
      <trkpt lat="49.66287" lon="4.71817">
        <ele>302</ele>
        <time>2022-04-03T09:23:05.000Z</time>
      </trkpt>
      <trkpt lat="49.6629" lon="4.71812">
        <ele>302</ele>
        <time>2022-04-03T09:23:06.000Z</time>
      </trkpt>
      <trkpt lat="49.66293" lon="4.71806">
        <ele>302</ele>
        <time>2022-04-03T09:23:07.000Z</time>
      </trkpt>
      <trkpt lat="49.66295" lon="4.718">
        <ele>302</ele>
        <time>2022-04-03T09:23:08.000Z</time>
      </trkpt>
      <trkpt lat="49.66295" lon="4.71794">
        <ele>302</ele>
        <time>2022-04-03T09:23:09.000Z</time>
      </trkpt>
      <trkpt lat="49.66296" lon="4.71789">
        <ele>302</ele>
        <time>2022-04-03T09:23:10.000Z</time>
      </trkpt>
      <trkpt lat="49.66296" lon="4.71784">
        <ele>302</ele>
        <time>2022-04-03T09:23:11.000Z</time>
      </trkpt>
      <trkpt lat="49.66297" lon="4.71779">
        <ele>302</ele>
        <time>2022-04-03T09:23:12.000Z</time>
      </trkpt>
      <trkpt lat="49.66297" lon="4.71774">
        <ele>302</ele>
        <time>2022-04-03T09:23:13.000Z</time>
      </trkpt>
      <trkpt lat="49.66298" lon="4.71769">
        <ele>302</ele>
        <time>2022-04-03T09:23:14.000Z</time>
      </trkpt>
      <trkpt lat="49.66298" lon="4.71764">
        <ele>302</ele>
        <time>2022-04-03T09:23:15.000Z</time>
      </trkpt>
      <trkpt lat="49.66298" lon="4.71759">
        <ele>302</ele>
        <time>2022-04-03T09:23:16.000Z</time>
      </trkpt>
      <trkpt lat="49.66298" lon="4.71752">
        <ele>302</ele>
        <time>2022-04-03T09:23:17.000Z</time>
      </trkpt>
      <trkpt lat="49.66299" lon="4.71745">
        <ele>302</ele>
        <time>2022-04-03T09:23:18.000Z</time>
      </trkpt>
      <trkpt lat="49.66301" lon="4.7174">
        <ele>301</ele>
        <time>2022-04-03T09:23:19.000Z</time>
      </trkpt>
      <trkpt lat="49.66303" lon="4.71735">
        <ele>301</ele>
        <time>2022-04-03T09:23:20.000Z</time>
      </trkpt>
      <trkpt lat="49.66306" lon="4.7173">
        <ele>301</ele>
        <time>2022-04-03T09:23:21.000Z</time>
      </trkpt>
      <trkpt lat="49.66309" lon="4.71724">
        <ele>301</ele>
        <time>2022-04-03T09:23:22.000Z</time>
      </trkpt>
      <trkpt lat="49.66312" lon="4.71718">
        <ele>301</ele>
        <time>2022-04-03T09:23:23.000Z</time>
      </trkpt>
      <trkpt lat="49.66316" lon="4.71712">
        <ele>301</ele>
        <time>2022-04-03T09:23:24.000Z</time>
      </trkpt>
      <trkpt lat="49.66321" lon="4.71707">
        <ele>301</ele>
        <time>2022-04-03T09:23:25.000Z</time>
      </trkpt>
      <trkpt lat="49.66325" lon="4.71702">
        <ele>301</ele>
        <time>2022-04-03T09:23:26.000Z</time>
      </trkpt>
      <trkpt lat="49.6633" lon="4.71697">
        <ele>301</ele>
        <time>2022-04-03T09:23:27.000Z</time>
      </trkpt>
      <trkpt lat="49.66334" lon="4.71692">
        <ele>300</ele>
        <time>2022-04-03T09:23:28.000Z</time>
      </trkpt>
      <trkpt lat="49.66338" lon="4.71688">
        <ele>300</ele>
        <time>2022-04-03T09:23:29.000Z</time>
      </trkpt>
      <trkpt lat="49.66342" lon="4.71683">
        <ele>300</ele>
        <time>2022-04-03T09:23:30.000Z</time>
      </trkpt>
      <trkpt lat="49.66346" lon="4.71679">
        <ele>300</ele>
        <time>2022-04-03T09:23:31.000Z</time>
      </trkpt>
      <trkpt lat="49.66349" lon="4.71674">
        <ele>299</ele>
        <time>2022-04-03T09:23:32.000Z</time>
      </trkpt>
      <trkpt lat="49.66353" lon="4.71669">
        <ele>299</ele>
        <time>2022-04-03T09:23:33.000Z</time>
      </trkpt>
      <trkpt lat="49.66357" lon="4.71664">
        <ele>299</ele>
        <time>2022-04-03T09:23:34.000Z</time>
      </trkpt>
      <trkpt lat="49.6636" lon="4.71659">
        <ele>299</ele>
        <time>2022-04-03T09:23:35.000Z</time>
      </trkpt>
      <trkpt lat="49.66364" lon="4.71652">
        <ele>298</ele>
        <time>2022-04-03T09:23:36.000Z</time>
      </trkpt>
      <trkpt lat="49.66367" lon="4.71647">
        <ele>298</ele>
        <time>2022-04-03T09:23:37.000Z</time>
      </trkpt>
      <trkpt lat="49.66368" lon="4.71642">
        <ele>298</ele>
        <time>2022-04-03T09:23:38.000Z</time>
      </trkpt>
      <trkpt lat="49.66368" lon="4.71637">
        <ele>297</ele>
        <time>2022-04-03T09:23:39.000Z</time>
      </trkpt>
      <trkpt lat="49.66369" lon="4.71632">
        <ele>297</ele>
        <time>2022-04-03T09:23:40.000Z</time>
      </trkpt>
      <trkpt lat="49.66372" lon="4.71627">
        <ele>297</ele>
        <time>2022-04-03T09:23:41.000Z</time>
      </trkpt>
      <trkpt lat="49.66375" lon="4.71624">
        <ele>296</ele>
        <time>2022-04-03T09:23:42.000Z</time>
      </trkpt>
      <trkpt lat="49.66377" lon="4.71621">
        <ele>296</ele>
        <time>2022-04-03T09:23:43.000Z</time>
      </trkpt>
      <trkpt lat="49.66381" lon="4.71616">
        <ele>296</ele>
        <time>2022-04-03T09:23:44.000Z</time>
      </trkpt>
      <trkpt lat="49.66384" lon="4.71612">
        <ele>295</ele>
        <time>2022-04-03T09:23:45.000Z</time>
      </trkpt>
      <trkpt lat="49.66388" lon="4.71607">
        <ele>295</ele>
        <time>2022-04-03T09:23:46.000Z</time>
      </trkpt>
      <trkpt lat="49.66392" lon="4.716">
        <ele>295</ele>
        <time>2022-04-03T09:23:47.000Z</time>
      </trkpt>
      <trkpt lat="49.66397" lon="4.71593">
        <ele>294</ele>
        <time>2022-04-03T09:23:48.000Z</time>
      </trkpt>
      <trkpt lat="49.66402" lon="4.71586">
        <ele>294</ele>
        <time>2022-04-03T09:23:49.000Z</time>
      </trkpt>
      <trkpt lat="49.66407" lon="4.7158">
        <ele>294</ele>
        <time>2022-04-03T09:23:50.000Z</time>
      </trkpt>
      <trkpt lat="49.66411" lon="4.71575">
        <ele>293</ele>
        <time>2022-04-03T09:23:51.000Z</time>
      </trkpt>
      <trkpt lat="49.66415" lon="4.7157">
        <ele>293</ele>
        <time>2022-04-03T09:23:52.000Z</time>
      </trkpt>
      <trkpt lat="49.66419" lon="4.71565">
        <ele>292</ele>
        <time>2022-04-03T09:23:53.000Z</time>
      </trkpt>
      <trkpt lat="49.66421" lon="4.7156">
        <ele>291</ele>
        <time>2022-04-03T09:23:54.000Z</time>
      </trkpt>
      <trkpt lat="49.66424" lon="4.71556">
        <ele>291</ele>
        <time>2022-04-03T09:23:55.000Z</time>
      </trkpt>
      <trkpt lat="49.66426" lon="4.71554">
        <ele>291</ele>
        <time>2022-04-03T09:23:56.000Z</time>
      </trkpt>
      <trkpt lat="49.66429" lon="4.71552">
        <ele>290</ele>
        <time>2022-04-03T09:23:57.000Z</time>
      </trkpt>
      <trkpt lat="49.66433" lon="4.71548">
        <ele>290</ele>
        <time>2022-04-03T09:23:58.000Z</time>
      </trkpt>
      <trkpt lat="49.66436" lon="4.71545">
        <ele>289</ele>
        <time>2022-04-03T09:23:59.000Z</time>
      </trkpt>
      <trkpt lat="49.66439" lon="4.71541">
        <ele>289</ele>
        <time>2022-04-03T09:24:00.000Z</time>
      </trkpt>
      <trkpt lat="49.66441" lon="4.71537">
        <ele>288</ele>
        <time>2022-04-03T09:24:01.000Z</time>
      </trkpt>
      <trkpt lat="49.66444" lon="4.71534">
        <ele>288</ele>
        <time>2022-04-03T09:24:02.000Z</time>
      </trkpt>
      <trkpt lat="49.66447" lon="4.7153">
        <ele>287</ele>
        <time>2022-04-03T09:24:03.000Z</time>
      </trkpt>
      <trkpt lat="49.66451" lon="4.71525">
        <ele>287</ele>
        <time>2022-04-03T09:24:04.000Z</time>
      </trkpt>
      <trkpt lat="49.66455" lon="4.7152">
        <ele>286</ele>
        <time>2022-04-03T09:24:05.000Z</time>
      </trkpt>
      <trkpt lat="49.66458" lon="4.71517">
        <ele>286</ele>
        <time>2022-04-03T09:24:06.000Z</time>
      </trkpt>
      <trkpt lat="49.66462" lon="4.71514">
        <ele>286</ele>
        <time>2022-04-03T09:24:07.000Z</time>
      </trkpt>
      <trkpt lat="49.66466" lon="4.71511">
        <ele>285</ele>
        <time>2022-04-03T09:24:08.000Z</time>
      </trkpt>
      <trkpt lat="49.6647" lon="4.71507">
        <ele>285</ele>
        <time>2022-04-03T09:24:09.000Z</time>
      </trkpt>
      <trkpt lat="49.66475" lon="4.71503">
        <ele>285</ele>
        <time>2022-04-03T09:24:10.000Z</time>
      </trkpt>
      <trkpt lat="49.6648" lon="4.715">
        <ele>284</ele>
        <time>2022-04-03T09:24:11.000Z</time>
      </trkpt>
      <trkpt lat="49.66485" lon="4.71497">
        <ele>284</ele>
        <time>2022-04-03T09:24:12.000Z</time>
      </trkpt>
      <trkpt lat="49.66489" lon="4.71494">
        <ele>283</ele>
        <time>2022-04-03T09:24:13.000Z</time>
      </trkpt>
      <trkpt lat="49.66493" lon="4.71491">
        <ele>283</ele>
        <time>2022-04-03T09:24:14.000Z</time>
      </trkpt>
      <trkpt lat="49.66497" lon="4.71489">
        <ele>283</ele>
        <time>2022-04-03T09:24:15.000Z</time>
      </trkpt>
      <trkpt lat="49.665" lon="4.71485">
        <ele>282</ele>
        <time>2022-04-03T09:24:16.000Z</time>
      </trkpt>
      <trkpt lat="49.66503" lon="4.7148">
        <ele>282</ele>
        <time>2022-04-03T09:24:17.000Z</time>
      </trkpt>
      <trkpt lat="49.66506" lon="4.71474">
        <ele>282</ele>
        <time>2022-04-03T09:24:18.000Z</time>
      </trkpt>
      <trkpt lat="49.66507" lon="4.71469">
        <ele>281</ele>
        <time>2022-04-03T09:24:19.000Z</time>
      </trkpt>
      <trkpt lat="49.66508" lon="4.71463">
        <ele>281</ele>
        <time>2022-04-03T09:24:20.000Z</time>
      </trkpt>
      <trkpt lat="49.66509" lon="4.71457">
        <ele>280</ele>
        <time>2022-04-03T09:24:21.000Z</time>
      </trkpt>
      <trkpt lat="49.66509" lon="4.7145">
        <ele>280</ele>
        <time>2022-04-03T09:24:22.000Z</time>
      </trkpt>
      <trkpt lat="49.66508" lon="4.71445">
        <ele>279</ele>
        <time>2022-04-03T09:24:23.000Z</time>
      </trkpt>
      <trkpt lat="49.66507" lon="4.7144">
        <ele>279</ele>
        <time>2022-04-03T09:24:24.000Z</time>
      </trkpt>
      <trkpt lat="49.66507" lon="4.71436">
        <ele>279</ele>
        <time>2022-04-03T09:24:25.000Z</time>
      </trkpt>
      <trkpt lat="49.66508" lon="4.71433">
        <ele>279</ele>
        <time>2022-04-03T09:24:26.000Z</time>
      </trkpt>
      <trkpt lat="49.66509" lon="4.7143">
        <ele>278</ele>
        <time>2022-04-03T09:24:27.000Z</time>
      </trkpt>
      <trkpt lat="49.6651" lon="4.71428">
        <ele>278</ele>
        <time>2022-04-03T09:24:28.000Z</time>
      </trkpt>
      <trkpt lat="49.66512" lon="4.71426">
        <ele>278</ele>
        <time>2022-04-03T09:24:29.000Z</time>
      </trkpt>
      <trkpt lat="49.66513" lon="4.71423">
        <ele>277</ele>
        <time>2022-04-03T09:24:30.000Z</time>
      </trkpt>
      <trkpt lat="49.66515" lon="4.7142">
        <ele>277</ele>
        <time>2022-04-03T09:24:31.000Z</time>
      </trkpt>
      <trkpt lat="49.66518" lon="4.71418">
        <ele>277</ele>
        <time>2022-04-03T09:24:32.000Z</time>
      </trkpt>
      <trkpt lat="49.66521" lon="4.71417">
        <ele>276</ele>
        <time>2022-04-03T09:24:33.000Z</time>
      </trkpt>
      <trkpt lat="49.66523" lon="4.71418">
        <ele>276</ele>
        <time>2022-04-03T09:24:34.000Z</time>
      </trkpt>
      <trkpt lat="49.66525" lon="4.71418">
        <ele>276</ele>
        <time>2022-04-03T09:24:35.000Z</time>
      </trkpt>
      <trkpt lat="49.66526" lon="4.71419">
        <ele>276</ele>
        <time>2022-04-03T09:24:36.000Z</time>
      </trkpt>
      <trkpt lat="49.66528" lon="4.71422">
        <ele>276</ele>
        <time>2022-04-03T09:24:37.000Z</time>
      </trkpt>
      <trkpt lat="49.6653" lon="4.71424">
        <ele>276</ele>
        <time>2022-04-03T09:24:38.000Z</time>
      </trkpt>
      <trkpt lat="49.66532" lon="4.71425">
        <ele>275</ele>
        <time>2022-04-03T09:24:39.000Z</time>
      </trkpt>
      <trkpt lat="49.66534" lon="4.71426">
        <ele>275</ele>
        <time>2022-04-03T09:24:40.000Z</time>
      </trkpt>
      <trkpt lat="49.66536" lon="4.71426">
        <ele>275</ele>
        <time>2022-04-03T09:24:41.000Z</time>
      </trkpt>
      <trkpt lat="49.66538" lon="4.71425">
        <ele>275</ele>
        <time>2022-04-03T09:24:42.000Z</time>
      </trkpt>
      <trkpt lat="49.6654" lon="4.71424">
        <ele>275</ele>
        <time>2022-04-03T09:24:43.000Z</time>
      </trkpt>
      <trkpt lat="49.66543" lon="4.71422">
        <ele>274</ele>
        <time>2022-04-03T09:24:44.000Z</time>
      </trkpt>
      <trkpt lat="49.66545" lon="4.71421">
        <ele>274</ele>
        <time>2022-04-03T09:24:45.000Z</time>
      </trkpt>
      <trkpt lat="49.66546" lon="4.71418">
        <ele>274</ele>
        <time>2022-04-03T09:24:46.000Z</time>
      </trkpt>
      <trkpt lat="49.66547" lon="4.71415">
        <ele>274</ele>
        <time>2022-04-03T09:24:47.000Z</time>
      </trkpt>
      <trkpt lat="49.66549" lon="4.71412">
        <ele>274</ele>
        <time>2022-04-03T09:24:48.000Z</time>
      </trkpt>
      <trkpt lat="49.66549" lon="4.71407">
        <ele>273</ele>
        <time>2022-04-03T09:24:49.000Z</time>
      </trkpt>
      <trkpt lat="49.6655" lon="4.71402">
        <ele>273</ele>
        <time>2022-04-03T09:24:50.000Z</time>
      </trkpt>
      <trkpt lat="49.66551" lon="4.71396">
        <ele>273</ele>
        <time>2022-04-03T09:24:51.000Z</time>
      </trkpt>
      <trkpt lat="49.66552" lon="4.7139">
        <ele>273</ele>
        <time>2022-04-03T09:24:52.000Z</time>
      </trkpt>
      <trkpt lat="49.66554" lon="4.71386">
        <ele>272</ele>
        <time>2022-04-03T09:24:53.000Z</time>
      </trkpt>
      <trkpt lat="49.66558" lon="4.71383">
        <ele>272</ele>
        <time>2022-04-03T09:24:54.000Z</time>
      </trkpt>
      <trkpt lat="49.66562" lon="4.71379">
        <ele>272</ele>
        <time>2022-04-03T09:24:55.000Z</time>
      </trkpt>
      <trkpt lat="49.66566" lon="4.71375">
        <ele>272</ele>
        <time>2022-04-03T09:24:56.000Z</time>
      </trkpt>
      <trkpt lat="49.66569" lon="4.71372">
        <ele>272</ele>
        <time>2022-04-03T09:24:57.000Z</time>
      </trkpt>
      <trkpt lat="49.66573" lon="4.71369">
        <ele>272</ele>
        <time>2022-04-03T09:24:58.000Z</time>
      </trkpt>
      <trkpt lat="49.66576" lon="4.71366">
        <ele>272</ele>
        <time>2022-04-03T09:24:59.000Z</time>
      </trkpt>
      <trkpt lat="49.66579" lon="4.71363">
        <ele>272</ele>
        <time>2022-04-03T09:25:00.000Z</time>
      </trkpt>
      <trkpt lat="49.66583" lon="4.71359">
        <ele>271</ele>
        <time>2022-04-03T09:25:01.000Z</time>
      </trkpt>
      <trkpt lat="49.66587" lon="4.71357">
        <ele>271</ele>
        <time>2022-04-03T09:25:02.000Z</time>
      </trkpt>
      <trkpt lat="49.66592" lon="4.71354">
        <ele>271</ele>
        <time>2022-04-03T09:25:03.000Z</time>
      </trkpt>
      <trkpt lat="49.66596" lon="4.71351">
        <ele>271</ele>
        <time>2022-04-03T09:25:04.000Z</time>
      </trkpt>
      <trkpt lat="49.66601" lon="4.71348">
        <ele>271</ele>
        <time>2022-04-03T09:25:05.000Z</time>
      </trkpt>
      <trkpt lat="49.66605" lon="4.71345">
        <ele>271</ele>
        <time>2022-04-03T09:25:06.000Z</time>
      </trkpt>
      <trkpt lat="49.66611" lon="4.71342">
        <ele>270</ele>
        <time>2022-04-03T09:25:07.000Z</time>
      </trkpt>
      <trkpt lat="49.66616" lon="4.71339">
        <ele>270</ele>
        <time>2022-04-03T09:25:08.000Z</time>
      </trkpt>
      <trkpt lat="49.6662" lon="4.71337">
        <ele>270</ele>
        <time>2022-04-03T09:25:09.000Z</time>
      </trkpt>
      <trkpt lat="49.66625" lon="4.71333">
        <ele>270</ele>
        <time>2022-04-03T09:25:10.000Z</time>
      </trkpt>
      <trkpt lat="49.66629" lon="4.7133">
        <ele>270</ele>
        <time>2022-04-03T09:25:11.000Z</time>
      </trkpt>
      <trkpt lat="49.66633" lon="4.71328">
        <ele>269</ele>
        <time>2022-04-03T09:25:12.000Z</time>
      </trkpt>
      <trkpt lat="49.66638" lon="4.71326">
        <ele>269</ele>
        <time>2022-04-03T09:25:13.000Z</time>
      </trkpt>
      <trkpt lat="49.66642" lon="4.71323">
        <ele>269</ele>
        <time>2022-04-03T09:25:14.000Z</time>
      </trkpt>
      <trkpt lat="49.66646" lon="4.71319">
        <ele>269</ele>
        <time>2022-04-03T09:25:15.000Z</time>
      </trkpt>
      <trkpt lat="49.66651" lon="4.71316">
        <ele>268</ele>
        <time>2022-04-03T09:25:16.000Z</time>
      </trkpt>
      <trkpt lat="49.66655" lon="4.71313">
        <ele>268</ele>
        <time>2022-04-03T09:25:17.000Z</time>
      </trkpt>
      <trkpt lat="49.6666" lon="4.71309">
        <ele>268</ele>
        <time>2022-04-03T09:25:18.000Z</time>
      </trkpt>
      <trkpt lat="49.66665" lon="4.71306">
        <ele>267</ele>
        <time>2022-04-03T09:25:19.000Z</time>
      </trkpt>
      <trkpt lat="49.6667" lon="4.71303">
        <ele>267</ele>
        <time>2022-04-03T09:25:20.000Z</time>
      </trkpt>
      <trkpt lat="49.66675" lon="4.713">
        <ele>267</ele>
        <time>2022-04-03T09:25:21.000Z</time>
      </trkpt>
      <trkpt lat="49.66679" lon="4.71297">
        <ele>266</ele>
        <time>2022-04-03T09:25:22.000Z</time>
      </trkpt>
      <trkpt lat="49.66684" lon="4.71295">
        <ele>266</ele>
        <time>2022-04-03T09:25:23.000Z</time>
      </trkpt>
      <trkpt lat="49.66688" lon="4.71294">
        <ele>266</ele>
        <time>2022-04-03T09:25:24.000Z</time>
      </trkpt>
      <trkpt lat="49.66693" lon="4.71295">
        <ele>266</ele>
        <time>2022-04-03T09:25:25.000Z</time>
      </trkpt>
      <trkpt lat="49.66698" lon="4.71296">
        <ele>265</ele>
        <time>2022-04-03T09:25:26.000Z</time>
      </trkpt>
      <trkpt lat="49.66703" lon="4.71297">
        <ele>265</ele>
        <time>2022-04-03T09:25:27.000Z</time>
      </trkpt>
      <trkpt lat="49.66708" lon="4.71297">
        <ele>265</ele>
        <time>2022-04-03T09:25:28.000Z</time>
      </trkpt>
      <trkpt lat="49.66713" lon="4.71298">
        <ele>264</ele>
        <time>2022-04-03T09:25:29.000Z</time>
      </trkpt>
      <trkpt lat="49.66718" lon="4.713">
        <ele>264</ele>
        <time>2022-04-03T09:25:30.000Z</time>
      </trkpt>
      <trkpt lat="49.66724" lon="4.71302">
        <ele>264</ele>
        <time>2022-04-03T09:25:31.000Z</time>
      </trkpt>
      <trkpt lat="49.66729" lon="4.71304">
        <ele>264</ele>
        <time>2022-04-03T09:25:32.000Z</time>
      </trkpt>
      <trkpt lat="49.66733" lon="4.71306">
        <ele>263</ele>
        <time>2022-04-03T09:25:33.000Z</time>
      </trkpt>
      <trkpt lat="49.66738" lon="4.71309">
        <ele>263</ele>
        <time>2022-04-03T09:25:34.000Z</time>
      </trkpt>
      <trkpt lat="49.66743" lon="4.71312">
        <ele>263</ele>
        <time>2022-04-03T09:25:35.000Z</time>
      </trkpt>
      <trkpt lat="49.66748" lon="4.71314">
        <ele>262</ele>
        <time>2022-04-03T09:25:36.000Z</time>
      </trkpt>
      <trkpt lat="49.66753" lon="4.71316">
        <ele>262</ele>
        <time>2022-04-03T09:25:37.000Z</time>
      </trkpt>
      <trkpt lat="49.66756" lon="4.71318">
        <ele>261</ele>
        <time>2022-04-03T09:25:38.000Z</time>
      </trkpt>
      <trkpt lat="49.6676" lon="4.71318">
        <ele>261</ele>
        <time>2022-04-03T09:25:39.000Z</time>
      </trkpt>
      <trkpt lat="49.66763" lon="4.71317">
        <ele>261</ele>
        <time>2022-04-03T09:25:40.000Z</time>
      </trkpt>
      <trkpt lat="49.66766" lon="4.71314">
        <ele>260</ele>
        <time>2022-04-03T09:25:41.000Z</time>
      </trkpt>
      <trkpt lat="49.66768" lon="4.71313">
        <ele>260</ele>
        <time>2022-04-03T09:25:42.000Z</time>
      </trkpt>
      <trkpt lat="49.66772" lon="4.71311">
        <ele>260</ele>
        <time>2022-04-03T09:25:43.000Z</time>
      </trkpt>
      <trkpt lat="49.66775" lon="4.71308">
        <ele>259</ele>
        <time>2022-04-03T09:25:44.000Z</time>
      </trkpt>
      <trkpt lat="49.66778" lon="4.71304">
        <ele>259</ele>
        <time>2022-04-03T09:25:45.000Z</time>
      </trkpt>
      <trkpt lat="49.66782" lon="4.71301">
        <ele>258</ele>
        <time>2022-04-03T09:25:46.000Z</time>
      </trkpt>
      <trkpt lat="49.66786" lon="4.71298">
        <ele>258</ele>
        <time>2022-04-03T09:25:47.000Z</time>
      </trkpt>
      <trkpt lat="49.6679" lon="4.71297">
        <ele>258</ele>
        <time>2022-04-03T09:25:48.000Z</time>
      </trkpt>
      <trkpt lat="49.66794" lon="4.71296">
        <ele>257</ele>
        <time>2022-04-03T09:25:49.000Z</time>
      </trkpt>
      <trkpt lat="49.66799" lon="4.71296">
        <ele>257</ele>
        <time>2022-04-03T09:25:50.000Z</time>
      </trkpt>
      <trkpt lat="49.66804" lon="4.71297">
        <ele>257</ele>
        <time>2022-04-03T09:25:51.000Z</time>
      </trkpt>
      <trkpt lat="49.66808" lon="4.71298">
        <ele>256</ele>
        <time>2022-04-03T09:25:52.000Z</time>
      </trkpt>
      <trkpt lat="49.66811" lon="4.713">
        <ele>256</ele>
        <time>2022-04-03T09:25:53.000Z</time>
      </trkpt>
      <trkpt lat="49.66815" lon="4.71303">
        <ele>256</ele>
        <time>2022-04-03T09:25:54.000Z</time>
      </trkpt>
      <trkpt lat="49.66818" lon="4.71306">
        <ele>256</ele>
        <time>2022-04-03T09:25:55.000Z</time>
      </trkpt>
      <trkpt lat="49.66821" lon="4.71308">
        <ele>256</ele>
        <time>2022-04-03T09:25:56.000Z</time>
      </trkpt>
      <trkpt lat="49.66825" lon="4.71311">
        <ele>256</ele>
        <time>2022-04-03T09:25:57.000Z</time>
      </trkpt>
      <trkpt lat="49.66829" lon="4.71314">
        <ele>256</ele>
        <time>2022-04-03T09:25:58.000Z</time>
      </trkpt>
      <trkpt lat="49.66833" lon="4.71318">
        <ele>255</ele>
        <time>2022-04-03T09:25:59.000Z</time>
      </trkpt>
      <trkpt lat="49.66837" lon="4.71322">
        <ele>255</ele>
        <time>2022-04-03T09:26:00.000Z</time>
      </trkpt>
      <trkpt lat="49.66841" lon="4.71326">
        <ele>255</ele>
        <time>2022-04-03T09:26:01.000Z</time>
      </trkpt>
      <trkpt lat="49.66843" lon="4.71329">
        <ele>255</ele>
        <time>2022-04-03T09:26:02.000Z</time>
      </trkpt>
      <trkpt lat="49.66845" lon="4.71332">
        <ele>255</ele>
        <time>2022-04-03T09:26:03.000Z</time>
      </trkpt>
      <trkpt lat="49.66847" lon="4.71335">
        <ele>255</ele>
        <time>2022-04-03T09:26:04.000Z</time>
      </trkpt>
      <trkpt lat="49.6685" lon="4.71338">
        <ele>255</ele>
        <time>2022-04-03T09:26:05.000Z</time>
      </trkpt>
      <trkpt lat="49.66853" lon="4.71341">
        <ele>255</ele>
        <time>2022-04-03T09:26:06.000Z</time>
      </trkpt>
      <trkpt lat="49.66854" lon="4.71345">
        <ele>254</ele>
        <time>2022-04-03T09:26:07.000Z</time>
      </trkpt>
      <trkpt lat="49.66856" lon="4.71347">
        <ele>254</ele>
        <time>2022-04-03T09:26:08.000Z</time>
      </trkpt>
      <trkpt lat="49.66857" lon="4.71351">
        <ele>254</ele>
        <time>2022-04-03T09:26:09.000Z</time>
      </trkpt>
      <trkpt lat="49.6686" lon="4.71355">
        <ele>254</ele>
        <time>2022-04-03T09:26:10.000Z</time>
      </trkpt>
      <trkpt lat="49.66862" lon="4.71358">
        <ele>254</ele>
        <time>2022-04-03T09:26:11.000Z</time>
      </trkpt>
      <trkpt lat="49.66864" lon="4.71362">
        <ele>254</ele>
        <time>2022-04-03T09:26:12.000Z</time>
      </trkpt>
      <trkpt lat="49.66866" lon="4.71366">
        <ele>254</ele>
        <time>2022-04-03T09:26:13.000Z</time>
      </trkpt>
      <trkpt lat="49.66868" lon="4.71371">
        <ele>254</ele>
        <time>2022-04-03T09:26:14.000Z</time>
      </trkpt>
      <trkpt lat="49.6687" lon="4.71375">
        <ele>254</ele>
        <time>2022-04-03T09:26:15.000Z</time>
      </trkpt>
      <trkpt lat="49.66873" lon="4.71379">
        <ele>254</ele>
        <time>2022-04-03T09:26:16.000Z</time>
      </trkpt>
      <trkpt lat="49.66875" lon="4.71383">
        <ele>253</ele>
        <time>2022-04-03T09:26:17.000Z</time>
      </trkpt>
      <trkpt lat="49.66877" lon="4.71387">
        <ele>253</ele>
        <time>2022-04-03T09:26:18.000Z</time>
      </trkpt>
      <trkpt lat="49.66879" lon="4.71391">
        <ele>253</ele>
        <time>2022-04-03T09:26:19.000Z</time>
      </trkpt>
      <trkpt lat="49.66881" lon="4.71395">
        <ele>253</ele>
        <time>2022-04-03T09:26:20.000Z</time>
      </trkpt>
      <trkpt lat="49.66883" lon="4.714">
        <ele>253</ele>
        <time>2022-04-03T09:26:21.000Z</time>
      </trkpt>
      <trkpt lat="49.66885" lon="4.71405">
        <ele>253</ele>
        <time>2022-04-03T09:26:22.000Z</time>
      </trkpt>
      <trkpt lat="49.66888" lon="4.7141">
        <ele>253</ele>
        <time>2022-04-03T09:26:23.000Z</time>
      </trkpt>
      <trkpt lat="49.6689" lon="4.71414">
        <ele>253</ele>
        <time>2022-04-03T09:26:24.000Z</time>
      </trkpt>
      <trkpt lat="49.66892" lon="4.71419">
        <ele>252</ele>
        <time>2022-04-03T09:26:25.000Z</time>
      </trkpt>
      <trkpt lat="49.66894" lon="4.71424">
        <ele>252</ele>
        <time>2022-04-03T09:26:26.000Z</time>
      </trkpt>
      <trkpt lat="49.66896" lon="4.71429">
        <ele>252</ele>
        <time>2022-04-03T09:26:27.000Z</time>
      </trkpt>
      <trkpt lat="49.66898" lon="4.71433">
        <ele>252</ele>
        <time>2022-04-03T09:26:28.000Z</time>
      </trkpt>
      <trkpt lat="49.66899" lon="4.71438">
        <ele>252</ele>
        <time>2022-04-03T09:26:29.000Z</time>
      </trkpt>
      <trkpt lat="49.66901" lon="4.71443">
        <ele>252</ele>
        <time>2022-04-03T09:26:30.000Z</time>
      </trkpt>
      <trkpt lat="49.66902" lon="4.71447">
        <ele>252</ele>
        <time>2022-04-03T09:26:31.000Z</time>
      </trkpt>
      <trkpt lat="49.66904" lon="4.71451">
        <ele>252</ele>
        <time>2022-04-03T09:26:32.000Z</time>
      </trkpt>
      <trkpt lat="49.66906" lon="4.71455">
        <ele>252</ele>
        <time>2022-04-03T09:26:33.000Z</time>
      </trkpt>
      <trkpt lat="49.66908" lon="4.71459">
        <ele>252</ele>
        <time>2022-04-03T09:26:34.000Z</time>
      </trkpt>
      <trkpt lat="49.66909" lon="4.71463">
        <ele>252</ele>
        <time>2022-04-03T09:26:35.000Z</time>
      </trkpt>
      <trkpt lat="49.6691" lon="4.71467">
        <ele>251</ele>
        <time>2022-04-03T09:26:36.000Z</time>
      </trkpt>
      <trkpt lat="49.66911" lon="4.7147">
        <ele>251</ele>
        <time>2022-04-03T09:26:37.000Z</time>
      </trkpt>
      <trkpt lat="49.66913" lon="4.71474">
        <ele>251</ele>
        <time>2022-04-03T09:26:38.000Z</time>
      </trkpt>
      <trkpt lat="49.66914" lon="4.71478">
        <ele>251</ele>
        <time>2022-04-03T09:26:39.000Z</time>
      </trkpt>
      <trkpt lat="49.66916" lon="4.71482">
        <ele>251</ele>
        <time>2022-04-03T09:26:40.000Z</time>
      </trkpt>
      <trkpt lat="49.66918" lon="4.71486">
        <ele>251</ele>
        <time>2022-04-03T09:26:41.000Z</time>
      </trkpt>
      <trkpt lat="49.6692" lon="4.71491">
        <ele>252</ele>
        <time>2022-04-03T09:26:42.000Z</time>
      </trkpt>
      <trkpt lat="49.66922" lon="4.71496">
        <ele>252</ele>
        <time>2022-04-03T09:26:43.000Z</time>
      </trkpt>
      <trkpt lat="49.66925" lon="4.71501">
        <ele>252</ele>
        <time>2022-04-03T09:26:44.000Z</time>
      </trkpt>
      <trkpt lat="49.66927" lon="4.71507">
        <ele>252</ele>
        <time>2022-04-03T09:26:45.000Z</time>
      </trkpt>
      <trkpt lat="49.66929" lon="4.71512">
        <ele>252</ele>
        <time>2022-04-03T09:26:46.000Z</time>
      </trkpt>
      <trkpt lat="49.66932" lon="4.71518">
        <ele>252</ele>
        <time>2022-04-03T09:26:47.000Z</time>
      </trkpt>
      <trkpt lat="49.66934" lon="4.71524">
        <ele>252</ele>
        <time>2022-04-03T09:26:48.000Z</time>
      </trkpt>
      <trkpt lat="49.66937" lon="4.71529">
        <ele>252</ele>
        <time>2022-04-03T09:26:49.000Z</time>
      </trkpt>
      <trkpt lat="49.66939" lon="4.71534">
        <ele>252</ele>
        <time>2022-04-03T09:26:50.000Z</time>
      </trkpt>
      <trkpt lat="49.66941" lon="4.7154">
        <ele>252</ele>
        <time>2022-04-03T09:26:51.000Z</time>
      </trkpt>
      <trkpt lat="49.66943" lon="4.71547">
        <ele>252</ele>
        <time>2022-04-03T09:26:52.000Z</time>
      </trkpt>
      <trkpt lat="49.66945" lon="4.71554">
        <ele>252</ele>
        <time>2022-04-03T09:26:53.000Z</time>
      </trkpt>
      <trkpt lat="49.66947" lon="4.71561">
        <ele>252</ele>
        <time>2022-04-03T09:26:54.000Z</time>
      </trkpt>
      <trkpt lat="49.66949" lon="4.71568">
        <ele>252</ele>
        <time>2022-04-03T09:26:55.000Z</time>
      </trkpt>
      <trkpt lat="49.66951" lon="4.71575">
        <ele>252</ele>
        <time>2022-04-03T09:26:56.000Z</time>
      </trkpt>
      <trkpt lat="49.66953" lon="4.71581">
        <ele>252</ele>
        <time>2022-04-03T09:26:57.000Z</time>
      </trkpt>
      <trkpt lat="49.66955" lon="4.71587">
        <ele>252</ele>
        <time>2022-04-03T09:26:58.000Z</time>
      </trkpt>
      <trkpt lat="49.66958" lon="4.71593">
        <ele>252</ele>
        <time>2022-04-03T09:26:59.000Z</time>
      </trkpt>
      <trkpt lat="49.66961" lon="4.716">
        <ele>252</ele>
        <time>2022-04-03T09:27:00.000Z</time>
      </trkpt>
      <trkpt lat="49.66965" lon="4.71606">
        <ele>251</ele>
        <time>2022-04-03T09:27:01.000Z</time>
      </trkpt>
      <trkpt lat="49.6697" lon="4.71612">
        <ele>251</ele>
        <time>2022-04-03T09:27:02.000Z</time>
      </trkpt>
      <trkpt lat="49.66974" lon="4.71619">
        <ele>251</ele>
        <time>2022-04-03T09:27:03.000Z</time>
      </trkpt>
      <trkpt lat="49.66978" lon="4.71626">
        <ele>250</ele>
        <time>2022-04-03T09:27:04.000Z</time>
      </trkpt>
      <trkpt lat="49.66982" lon="4.71633">
        <ele>250</ele>
        <time>2022-04-03T09:27:05.000Z</time>
      </trkpt>
      <trkpt lat="49.66987" lon="4.71639">
        <ele>250</ele>
        <time>2022-04-03T09:27:06.000Z</time>
      </trkpt>
      <trkpt lat="49.66991" lon="4.71644">
        <ele>249</ele>
        <time>2022-04-03T09:27:07.000Z</time>
      </trkpt>
      <trkpt lat="49.66994" lon="4.71649">
        <ele>249</ele>
        <time>2022-04-03T09:27:08.000Z</time>
      </trkpt>
      <trkpt lat="49.66998" lon="4.71654">
        <ele>249</ele>
        <time>2022-04-03T09:27:09.000Z</time>
      </trkpt>
      <trkpt lat="49.67002" lon="4.71659">
        <ele>248</ele>
        <time>2022-04-03T09:27:10.000Z</time>
      </trkpt>
      <trkpt lat="49.67006" lon="4.71664">
        <ele>248</ele>
        <time>2022-04-03T09:27:11.000Z</time>
      </trkpt>
      <trkpt lat="49.67009" lon="4.7167">
        <ele>247</ele>
        <time>2022-04-03T09:27:12.000Z</time>
      </trkpt>
      <trkpt lat="49.67012" lon="4.71677">
        <ele>247</ele>
        <time>2022-04-03T09:27:13.000Z</time>
      </trkpt>
      <trkpt lat="49.67014" lon="4.71684">
        <ele>246</ele>
        <time>2022-04-03T09:27:14.000Z</time>
      </trkpt>
      <trkpt lat="49.67017" lon="4.71691">
        <ele>246</ele>
        <time>2022-04-03T09:27:15.000Z</time>
      </trkpt>
      <trkpt lat="49.6702" lon="4.71696">
        <ele>245</ele>
        <time>2022-04-03T09:27:16.000Z</time>
      </trkpt>
      <trkpt lat="49.67023" lon="4.71703">
        <ele>244</ele>
        <time>2022-04-03T09:27:17.000Z</time>
      </trkpt>
      <trkpt lat="49.67025" lon="4.71708">
        <ele>244</ele>
        <time>2022-04-03T09:27:18.000Z</time>
      </trkpt>
      <trkpt lat="49.67026" lon="4.71711">
        <ele>243</ele>
        <time>2022-04-03T09:27:19.000Z</time>
      </trkpt>
      <trkpt lat="49.67028" lon="4.71711">
        <ele>243</ele>
        <time>2022-04-03T09:27:20.000Z</time>
      </trkpt>
      <trkpt lat="49.67029" lon="4.71709">
        <ele>242</ele>
        <time>2022-04-03T09:27:21.000Z</time>
      </trkpt>
      <trkpt lat="49.6703" lon="4.71707">
        <ele>242</ele>
        <time>2022-04-03T09:27:22.000Z</time>
      </trkpt>
      <trkpt lat="49.67031" lon="4.71704">
        <ele>242</ele>
        <time>2022-04-03T09:27:23.000Z</time>
      </trkpt>
      <trkpt lat="49.67032" lon="4.71701">
        <ele>241</ele>
        <time>2022-04-03T09:27:24.000Z</time>
      </trkpt>
      <trkpt lat="49.67033" lon="4.71696">
        <ele>241</ele>
        <time>2022-04-03T09:27:25.000Z</time>
      </trkpt>
      <trkpt lat="49.67034" lon="4.71691">
        <ele>240</ele>
        <time>2022-04-03T09:27:26.000Z</time>
      </trkpt>
      <trkpt lat="49.67035" lon="4.71685">
        <ele>240</ele>
        <time>2022-04-03T09:27:27.000Z</time>
      </trkpt>
      <trkpt lat="49.67035" lon="4.71679">
        <ele>239</ele>
        <time>2022-04-03T09:27:28.000Z</time>
      </trkpt>
      <trkpt lat="49.67036" lon="4.71673">
        <ele>239</ele>
        <time>2022-04-03T09:27:29.000Z</time>
      </trkpt>
      <trkpt lat="49.67037" lon="4.71667">
        <ele>238</ele>
        <time>2022-04-03T09:27:30.000Z</time>
      </trkpt>
      <trkpt lat="49.67037" lon="4.7166">
        <ele>238</ele>
        <time>2022-04-03T09:27:31.000Z</time>
      </trkpt>
      <trkpt lat="49.67038" lon="4.71655">
        <ele>237</ele>
        <time>2022-04-03T09:27:32.000Z</time>
      </trkpt>
      <trkpt lat="49.67039" lon="4.71651">
        <ele>237</ele>
        <time>2022-04-03T09:27:33.000Z</time>
      </trkpt>
      <trkpt lat="49.6704" lon="4.71647">
        <ele>237</ele>
        <time>2022-04-03T09:27:34.000Z</time>
      </trkpt>
      <trkpt lat="49.67041" lon="4.71644">
        <ele>236</ele>
        <time>2022-04-03T09:27:35.000Z</time>
      </trkpt>
      <trkpt lat="49.67041" lon="4.7164">
        <ele>236</ele>
        <time>2022-04-03T09:27:36.000Z</time>
      </trkpt>
      <trkpt lat="49.67041" lon="4.71636">
        <ele>236</ele>
        <time>2022-04-03T09:27:37.000Z</time>
      </trkpt>
      <trkpt lat="49.6704" lon="4.71632">
        <ele>236</ele>
        <time>2022-04-03T09:27:38.000Z</time>
      </trkpt>
      <trkpt lat="49.67039" lon="4.71628">
        <ele>235</ele>
        <time>2022-04-03T09:27:39.000Z</time>
      </trkpt>
      <trkpt lat="49.67038" lon="4.71624">
        <ele>235</ele>
        <time>2022-04-03T09:27:40.000Z</time>
      </trkpt>
      <trkpt lat="49.67038" lon="4.71621">
        <ele>235</ele>
        <time>2022-04-03T09:27:41.000Z</time>
      </trkpt>
      <trkpt lat="49.67037" lon="4.71618">
        <ele>235</ele>
        <time>2022-04-03T09:27:42.000Z</time>
      </trkpt>
      <trkpt lat="49.67037" lon="4.71613">
        <ele>235</ele>
        <time>2022-04-03T09:27:43.000Z</time>
      </trkpt>
      <trkpt lat="49.67036" lon="4.71609">
        <ele>234</ele>
        <time>2022-04-03T09:27:44.000Z</time>
      </trkpt>
      <trkpt lat="49.67035" lon="4.71604">
        <ele>234</ele>
        <time>2022-04-03T09:27:45.000Z</time>
      </trkpt>
      <trkpt lat="49.67035" lon="4.71599">
        <ele>234</ele>
        <time>2022-04-03T09:27:46.000Z</time>
      </trkpt>
      <trkpt lat="49.67037" lon="4.71594">
        <ele>234</ele>
        <time>2022-04-03T09:27:47.000Z</time>
      </trkpt>
      <trkpt lat="49.67038" lon="4.71588">
        <ele>234</ele>
        <time>2022-04-03T09:27:48.000Z</time>
      </trkpt>
      <trkpt lat="49.67039" lon="4.71583">
        <ele>233</ele>
        <time>2022-04-03T09:27:49.000Z</time>
      </trkpt>
      <trkpt lat="49.67039" lon="4.71578">
        <ele>233</ele>
        <time>2022-04-03T09:27:50.000Z</time>
      </trkpt>
      <trkpt lat="49.67039" lon="4.71572">
        <ele>233</ele>
        <time>2022-04-03T09:27:51.000Z</time>
      </trkpt>
      <trkpt lat="49.67039" lon="4.71565">
        <ele>233</ele>
        <time>2022-04-03T09:27:52.000Z</time>
      </trkpt>
      <trkpt lat="49.67038" lon="4.71556">
        <ele>233</ele>
        <time>2022-04-03T09:27:53.000Z</time>
      </trkpt>
      <trkpt lat="49.67038" lon="4.71549">
        <ele>232</ele>
        <time>2022-04-03T09:27:54.000Z</time>
      </trkpt>
      <trkpt lat="49.67037" lon="4.71542">
        <ele>232</ele>
        <time>2022-04-03T09:27:55.000Z</time>
      </trkpt>
      <trkpt lat="49.67037" lon="4.71536">
        <ele>232</ele>
        <time>2022-04-03T09:27:56.000Z</time>
      </trkpt>
      <trkpt lat="49.67037" lon="4.71528">
        <ele>232</ele>
        <time>2022-04-03T09:27:57.000Z</time>
      </trkpt>
      <trkpt lat="49.67036" lon="4.71519">
        <ele>232</ele>
        <time>2022-04-03T09:27:58.000Z</time>
      </trkpt>
      <trkpt lat="49.67036" lon="4.71511">
        <ele>231</ele>
        <time>2022-04-03T09:27:59.000Z</time>
      </trkpt>
      <trkpt lat="49.67035" lon="4.71503">
        <ele>231</ele>
        <time>2022-04-03T09:28:00.000Z</time>
      </trkpt>
      <trkpt lat="49.67034" lon="4.71494">
        <ele>231</ele>
        <time>2022-04-03T09:28:01.000Z</time>
      </trkpt>
      <trkpt lat="49.67033" lon="4.71485">
        <ele>230</ele>
        <time>2022-04-03T09:28:02.000Z</time>
      </trkpt>
      <trkpt lat="49.67033" lon="4.71476">
        <ele>230</ele>
        <time>2022-04-03T09:28:03.000Z</time>
      </trkpt>
      <trkpt lat="49.67032" lon="4.71467">
        <ele>230</ele>
        <time>2022-04-03T09:28:04.000Z</time>
      </trkpt>
      <trkpt lat="49.67031" lon="4.71458">
        <ele>229</ele>
        <time>2022-04-03T09:28:05.000Z</time>
      </trkpt>
      <trkpt lat="49.67029" lon="4.71449">
        <ele>229</ele>
        <time>2022-04-03T09:28:06.000Z</time>
      </trkpt>
      <trkpt lat="49.67027" lon="4.71441">
        <ele>228</ele>
        <time>2022-04-03T09:28:07.000Z</time>
      </trkpt>
      <trkpt lat="49.67024" lon="4.71432">
        <ele>228</ele>
        <time>2022-04-03T09:28:08.000Z</time>
      </trkpt>
      <trkpt lat="49.67022" lon="4.71426">
        <ele>228</ele>
        <time>2022-04-03T09:28:09.000Z</time>
      </trkpt>
      <trkpt lat="49.6702" lon="4.7142">
        <ele>227</ele>
        <time>2022-04-03T09:28:10.000Z</time>
      </trkpt>
      <trkpt lat="49.6702" lon="4.71416">
        <ele>227</ele>
        <time>2022-04-03T09:28:11.000Z</time>
      </trkpt>
      <trkpt lat="49.67021" lon="4.71412">
        <ele>226</ele>
        <time>2022-04-03T09:28:12.000Z</time>
      </trkpt>
      <trkpt lat="49.67022" lon="4.71411">
        <ele>226</ele>
        <time>2022-04-03T09:28:13.000Z</time>
      </trkpt>
      <trkpt lat="49.67023" lon="4.71411">
        <ele>226</ele>
        <time>2022-04-03T09:28:14.000Z</time>
      </trkpt>
      <trkpt lat="49.67023" lon="4.7141">
        <ele>225</ele>
        <time>2022-04-03T09:28:15.000Z</time>
      </trkpt>
      <trkpt lat="49.67023" lon="4.7141">
        <ele>225</ele>
        <time>2022-04-03T09:28:16.000Z</time>
      </trkpt>
      <trkpt lat="49.67024" lon="4.71411">
        <ele>225</ele>
        <time>2022-04-03T09:28:17.000Z</time>
      </trkpt>
      <trkpt lat="49.67025" lon="4.71412">
        <ele>225</ele>
        <time>2022-04-03T09:28:18.000Z</time>
      </trkpt>
      <trkpt lat="49.67025" lon="4.71412">
        <ele>225</ele>
        <time>2022-04-03T09:28:19.000Z</time>
      </trkpt>
      <trkpt lat="49.67025" lon="4.71413">
        <ele>225</ele>
        <time>2022-04-03T09:28:20.000Z</time>
      </trkpt>
      <trkpt lat="49.67026" lon="4.71415">
        <ele>224</ele>
        <time>2022-04-03T09:28:21.000Z</time>
      </trkpt>
      <trkpt lat="49.67028" lon="4.71419">
        <ele>224</ele>
        <time>2022-04-03T09:28:22.000Z</time>
      </trkpt>
      <trkpt lat="49.67029" lon="4.71422">
        <ele>224</ele>
        <time>2022-04-03T09:28:23.000Z</time>
      </trkpt>
      <trkpt lat="49.67031" lon="4.71426">
        <ele>224</ele>
        <time>2022-04-03T09:28:24.000Z</time>
      </trkpt>
      <trkpt lat="49.67033" lon="4.71431">
        <ele>224</ele>
        <time>2022-04-03T09:28:25.000Z</time>
      </trkpt>
      <trkpt lat="49.67036" lon="4.71436">
        <ele>224</ele>
        <time>2022-04-03T09:28:26.000Z</time>
      </trkpt>
      <trkpt lat="49.67039" lon="4.71443">
        <ele>224</ele>
        <time>2022-04-03T09:28:27.000Z</time>
      </trkpt>
      <trkpt lat="49.67042" lon="4.7145">
        <ele>223</ele>
        <time>2022-04-03T09:28:28.000Z</time>
      </trkpt>
      <trkpt lat="49.67044" lon="4.71458">
        <ele>223</ele>
        <time>2022-04-03T09:28:29.000Z</time>
      </trkpt>
      <trkpt lat="49.67046" lon="4.71465">
        <ele>223</ele>
        <time>2022-04-03T09:28:30.000Z</time>
      </trkpt>
      <trkpt lat="49.67049" lon="4.71473">
        <ele>222</ele>
        <time>2022-04-03T09:28:31.000Z</time>
      </trkpt>
      <trkpt lat="49.67051" lon="4.71481">
        <ele>222</ele>
        <time>2022-04-03T09:28:32.000Z</time>
      </trkpt>
      <trkpt lat="49.67054" lon="4.71488">
        <ele>221</ele>
        <time>2022-04-03T09:28:33.000Z</time>
      </trkpt>
      <trkpt lat="49.67055" lon="4.71495">
        <ele>221</ele>
        <time>2022-04-03T09:28:34.000Z</time>
      </trkpt>
      <trkpt lat="49.67057" lon="4.71502">
        <ele>220</ele>
        <time>2022-04-03T09:28:35.000Z</time>
      </trkpt>
      <trkpt lat="49.67059" lon="4.71509">
        <ele>220</ele>
        <time>2022-04-03T09:28:36.000Z</time>
      </trkpt>
      <trkpt lat="49.67061" lon="4.71514">
        <ele>219</ele>
        <time>2022-04-03T09:28:37.000Z</time>
      </trkpt>
      <trkpt lat="49.67062" lon="4.7152">
        <ele>219</ele>
        <time>2022-04-03T09:28:38.000Z</time>
      </trkpt>
      <trkpt lat="49.67064" lon="4.71524">
        <ele>219</ele>
        <time>2022-04-03T09:28:39.000Z</time>
      </trkpt>
      <trkpt lat="49.67064" lon="4.71525">
        <ele>218</ele>
        <time>2022-04-03T09:28:40.000Z</time>
      </trkpt>
      <trkpt lat="49.67064" lon="4.71527">
        <ele>218</ele>
        <time>2022-04-03T09:28:41.000Z</time>
      </trkpt>
      <trkpt lat="49.67065" lon="4.71528">
        <ele>218</ele>
        <time>2022-04-03T09:28:42.000Z</time>
      </trkpt>
      <trkpt lat="49.67065" lon="4.7153">
        <ele>218</ele>
        <time>2022-04-03T09:28:43.000Z</time>
      </trkpt>
      <trkpt lat="49.67065" lon="4.71532">
        <ele>217</ele>
        <time>2022-04-03T09:28:44.000Z</time>
      </trkpt>
      <trkpt lat="49.67066" lon="4.71534">
        <ele>217</ele>
        <time>2022-04-03T09:28:45.000Z</time>
      </trkpt>
      <trkpt lat="49.67066" lon="4.71535">
        <ele>217</ele>
        <time>2022-04-03T09:28:46.000Z</time>
      </trkpt>
      <trkpt lat="49.67066" lon="4.71537">
        <ele>217</ele>
        <time>2022-04-03T09:28:47.000Z</time>
      </trkpt>
      <trkpt lat="49.67067" lon="4.7154">
        <ele>216</ele>
        <time>2022-04-03T09:28:48.000Z</time>
      </trkpt>
      <trkpt lat="49.67067" lon="4.71544">
        <ele>216</ele>
        <time>2022-04-03T09:28:49.000Z</time>
      </trkpt>
      <trkpt lat="49.67069" lon="4.71548">
        <ele>216</ele>
        <time>2022-04-03T09:28:50.000Z</time>
      </trkpt>
      <trkpt lat="49.6707" lon="4.71552">
        <ele>216</ele>
        <time>2022-04-03T09:28:51.000Z</time>
      </trkpt>
      <trkpt lat="49.67072" lon="4.71557">
        <ele>215</ele>
        <time>2022-04-03T09:28:52.000Z</time>
      </trkpt>
      <trkpt lat="49.67073" lon="4.71562">
        <ele>215</ele>
        <time>2022-04-03T09:28:53.000Z</time>
      </trkpt>
      <trkpt lat="49.67076" lon="4.71568">
        <ele>215</ele>
        <time>2022-04-03T09:28:54.000Z</time>
      </trkpt>
      <trkpt lat="49.67078" lon="4.71574">
        <ele>215</ele>
        <time>2022-04-03T09:28:55.000Z</time>
      </trkpt>
      <trkpt lat="49.6708" lon="4.7158">
        <ele>214</ele>
        <time>2022-04-03T09:28:56.000Z</time>
      </trkpt>
      <trkpt lat="49.67083" lon="4.71588">
        <ele>214</ele>
        <time>2022-04-03T09:28:57.000Z</time>
      </trkpt>
      <trkpt lat="49.67085" lon="4.71595">
        <ele>214</ele>
        <time>2022-04-03T09:28:58.000Z</time>
      </trkpt>
      <trkpt lat="49.67087" lon="4.71603">
        <ele>213</ele>
        <time>2022-04-03T09:28:59.000Z</time>
      </trkpt>
      <trkpt lat="49.67089" lon="4.71611">
        <ele>213</ele>
        <time>2022-04-03T09:29:00.000Z</time>
      </trkpt>
      <trkpt lat="49.67091" lon="4.71618">
        <ele>213</ele>
        <time>2022-04-03T09:29:01.000Z</time>
      </trkpt>
      <trkpt lat="49.67093" lon="4.71626">
        <ele>212</ele>
        <time>2022-04-03T09:29:02.000Z</time>
      </trkpt>
      <trkpt lat="49.67094" lon="4.71634">
        <ele>212</ele>
        <time>2022-04-03T09:29:03.000Z</time>
      </trkpt>
      <trkpt lat="49.67095" lon="4.71641">
        <ele>212</ele>
        <time>2022-04-03T09:29:04.000Z</time>
      </trkpt>
      <trkpt lat="49.67096" lon="4.71649">
        <ele>211</ele>
        <time>2022-04-03T09:29:05.000Z</time>
      </trkpt>
      <trkpt lat="49.67097" lon="4.71657">
        <ele>211</ele>
        <time>2022-04-03T09:29:06.000Z</time>
      </trkpt>
      <trkpt lat="49.67099" lon="4.71665">
        <ele>211</ele>
        <time>2022-04-03T09:29:07.000Z</time>
      </trkpt>
      <trkpt lat="49.67102" lon="4.71672">
        <ele>210</ele>
        <time>2022-04-03T09:29:08.000Z</time>
      </trkpt>
      <trkpt lat="49.67104" lon="4.71679">
        <ele>210</ele>
        <time>2022-04-03T09:29:09.000Z</time>
      </trkpt>
      <trkpt lat="49.67107" lon="4.71685">
        <ele>209</ele>
        <time>2022-04-03T09:29:10.000Z</time>
      </trkpt>
      <trkpt lat="49.67111" lon="4.71691">
        <ele>209</ele>
        <time>2022-04-03T09:29:11.000Z</time>
      </trkpt>
      <trkpt lat="49.67114" lon="4.71695">
        <ele>209</ele>
        <time>2022-04-03T09:29:12.000Z</time>
      </trkpt>
      <trkpt lat="49.67118" lon="4.717">
        <ele>208</ele>
        <time>2022-04-03T09:29:13.000Z</time>
      </trkpt>
      <trkpt lat="49.67121" lon="4.71706">
        <ele>208</ele>
        <time>2022-04-03T09:29:14.000Z</time>
      </trkpt>
      <trkpt lat="49.67122" lon="4.71712">
        <ele>207</ele>
        <time>2022-04-03T09:29:15.000Z</time>
      </trkpt>
      <trkpt lat="49.67123" lon="4.71718">
        <ele>207</ele>
        <time>2022-04-03T09:29:16.000Z</time>
      </trkpt>
      <trkpt lat="49.67124" lon="4.71723">
        <ele>207</ele>
        <time>2022-04-03T09:29:17.000Z</time>
      </trkpt>
      <trkpt lat="49.67126" lon="4.71728">
        <ele>206</ele>
        <time>2022-04-03T09:29:18.000Z</time>
      </trkpt>
      <trkpt lat="49.67127" lon="4.71731">
        <ele>206</ele>
        <time>2022-04-03T09:29:19.000Z</time>
      </trkpt>
      <trkpt lat="49.6713" lon="4.71733">
        <ele>206</ele>
        <time>2022-04-03T09:29:20.000Z</time>
      </trkpt>
      <trkpt lat="49.67133" lon="4.71732">
        <ele>206</ele>
        <time>2022-04-03T09:29:21.000Z</time>
      </trkpt>
      <trkpt lat="49.67137" lon="4.71731">
        <ele>205</ele>
        <time>2022-04-03T09:29:22.000Z</time>
      </trkpt>
      <trkpt lat="49.67141" lon="4.71728">
        <ele>205</ele>
        <time>2022-04-03T09:29:23.000Z</time>
      </trkpt>
      <trkpt lat="49.67144" lon="4.71725">
        <ele>205</ele>
        <time>2022-04-03T09:29:24.000Z</time>
      </trkpt>
      <trkpt lat="49.67149" lon="4.71723">
        <ele>204</ele>
        <time>2022-04-03T09:29:25.000Z</time>
      </trkpt>
      <trkpt lat="49.67153" lon="4.71722">
        <ele>204</ele>
        <time>2022-04-03T09:29:26.000Z</time>
      </trkpt>
      <trkpt lat="49.67156" lon="4.7172">
        <ele>204</ele>
        <time>2022-04-03T09:29:27.000Z</time>
      </trkpt>
      <trkpt lat="49.6716" lon="4.71719">
        <ele>204</ele>
        <time>2022-04-03T09:29:28.000Z</time>
      </trkpt>
      <trkpt lat="49.67164" lon="4.71717">
        <ele>204</ele>
        <time>2022-04-03T09:29:29.000Z</time>
      </trkpt>
      <trkpt lat="49.67168" lon="4.71715">
        <ele>204</ele>
        <time>2022-04-03T09:29:30.000Z</time>
      </trkpt>
      <trkpt lat="49.6717" lon="4.71713">
        <ele>203</ele>
        <time>2022-04-03T09:29:31.000Z</time>
      </trkpt>
      <trkpt lat="49.67172" lon="4.71709">
        <ele>203</ele>
        <time>2022-04-03T09:29:32.000Z</time>
      </trkpt>
      <trkpt lat="49.67173" lon="4.71704">
        <ele>203</ele>
        <time>2022-04-03T09:29:33.000Z</time>
      </trkpt>
      <trkpt lat="49.67173" lon="4.71699">
        <ele>203</ele>
        <time>2022-04-03T09:29:34.000Z</time>
      </trkpt>
      <trkpt lat="49.67172" lon="4.71694">
        <ele>202</ele>
        <time>2022-04-03T09:29:35.000Z</time>
      </trkpt>
      <trkpt lat="49.6717" lon="4.71688">
        <ele>202</ele>
        <time>2022-04-03T09:29:36.000Z</time>
      </trkpt>
      <trkpt lat="49.67169" lon="4.71682">
        <ele>202</ele>
        <time>2022-04-03T09:29:37.000Z</time>
      </trkpt>
      <trkpt lat="49.67168" lon="4.71676">
        <ele>202</ele>
        <time>2022-04-03T09:29:38.000Z</time>
      </trkpt>
      <trkpt lat="49.67167" lon="4.7167">
        <ele>202</ele>
        <time>2022-04-03T09:29:39.000Z</time>
      </trkpt>
      <trkpt lat="49.67166" lon="4.71665">
        <ele>202</ele>
        <time>2022-04-03T09:29:40.000Z</time>
      </trkpt>
      <trkpt lat="49.67165" lon="4.71659">
        <ele>201</ele>
        <time>2022-04-03T09:29:41.000Z</time>
      </trkpt>
      <trkpt lat="49.67165" lon="4.71653">
        <ele>201</ele>
        <time>2022-04-03T09:29:42.000Z</time>
      </trkpt>
      <trkpt lat="49.67164" lon="4.71648">
        <ele>201</ele>
        <time>2022-04-03T09:29:43.000Z</time>
      </trkpt>
      <trkpt lat="49.67164" lon="4.71643">
        <ele>201</ele>
        <time>2022-04-03T09:29:44.000Z</time>
      </trkpt>
      <trkpt lat="49.67164" lon="4.71638">
        <ele>202</ele>
        <time>2022-04-03T09:29:45.000Z</time>
      </trkpt>
      <trkpt lat="49.67165" lon="4.71633">
        <ele>202</ele>
        <time>2022-04-03T09:29:46.000Z</time>
      </trkpt>
      <trkpt lat="49.67165" lon="4.71628">
        <ele>202</ele>
        <time>2022-04-03T09:29:47.000Z</time>
      </trkpt>
      <trkpt lat="49.67165" lon="4.71623">
        <ele>202</ele>
        <time>2022-04-03T09:29:48.000Z</time>
      </trkpt>
      <trkpt lat="49.67165" lon="4.71618">
        <ele>202</ele>
        <time>2022-04-03T09:29:49.000Z</time>
      </trkpt>
      <trkpt lat="49.67165" lon="4.71614">
        <ele>202</ele>
        <time>2022-04-03T09:29:50.000Z</time>
      </trkpt>
      <trkpt lat="49.67165" lon="4.7161">
        <ele>202</ele>
        <time>2022-04-03T09:29:51.000Z</time>
      </trkpt>
      <trkpt lat="49.67165" lon="4.71606">
        <ele>202</ele>
        <time>2022-04-03T09:29:52.000Z</time>
      </trkpt>
      <trkpt lat="49.67166" lon="4.71603">
        <ele>202</ele>
        <time>2022-04-03T09:29:53.000Z</time>
      </trkpt>
      <trkpt lat="49.67166" lon="4.716">
        <ele>202</ele>
        <time>2022-04-03T09:29:54.000Z</time>
      </trkpt>
      <trkpt lat="49.67167" lon="4.71597">
        <ele>202</ele>
        <time>2022-04-03T09:29:55.000Z</time>
      </trkpt>
      <trkpt lat="49.67168" lon="4.71596">
        <ele>202</ele>
        <time>2022-04-03T09:29:56.000Z</time>
      </trkpt>
      <trkpt lat="49.67167" lon="4.71596">
        <ele>202</ele>
        <time>2022-04-03T09:29:57.000Z</time>
      </trkpt>
      <trkpt lat="49.67167" lon="4.71596">
        <ele>202</ele>
        <time>2022-04-03T09:29:58.000Z</time>
      </trkpt>
      <trkpt lat="49.67168" lon="4.71595">
        <ele>202</ele>
        <time>2022-04-03T09:29:59.000Z</time>
      </trkpt>
      <trkpt lat="49.67168" lon="4.71594">
        <ele>202</ele>
        <time>2022-04-03T09:30:00.000Z</time>
      </trkpt>
      <trkpt lat="49.67168" lon="4.71594">
        <ele>202</ele>
        <time>2022-04-03T09:30:01.000Z</time>
      </trkpt>
      <trkpt lat="49.67168" lon="4.71594">
        <ele>202</ele>
        <time>2022-04-03T09:30:02.000Z</time>
      </trkpt>
      <trkpt lat="49.67168" lon="4.71593">
        <ele>202</ele>
        <time>2022-04-03T09:30:03.000Z</time>
      </trkpt>
      <trkpt lat="49.67168" lon="4.71593">
        <ele>202</ele>
        <time>2022-04-03T09:30:04.000Z</time>
      </trkpt>
      <trkpt lat="49.67168" lon="4.71593">
        <ele>202</ele>
        <time>2022-04-03T09:30:05.000Z</time>
      </trkpt>
      <trkpt lat="49.67168" lon="4.71594">
        <ele>202</ele>
        <time>2022-04-03T09:30:06.000Z</time>
      </trkpt>
      <trkpt lat="49.67168" lon="4.71594">
        <ele>201</ele>
        <time>2022-04-03T09:30:07.000Z</time>
      </trkpt>
      <trkpt lat="49.67167" lon="4.71595">
        <ele>201</ele>
        <time>2022-04-03T09:30:08.000Z</time>
      </trkpt>
      <trkpt lat="49.67167" lon="4.71595">
        <ele>201</ele>
        <time>2022-04-03T09:30:09.000Z</time>
      </trkpt>
      <trkpt lat="49.67166" lon="4.71595">
        <ele>201</ele>
        <time>2022-04-03T09:30:10.000Z</time>
      </trkpt>
      <trkpt lat="49.67166" lon="4.71595">
        <ele>201</ele>
        <time>2022-04-03T09:30:11.000Z</time>
      </trkpt>
      <trkpt lat="49.67165" lon="4.71595">
        <ele>201</ele>
        <time>2022-04-03T09:30:12.000Z</time>
      </trkpt>
      <trkpt lat="49.67165" lon="4.71595">
        <ele>201</ele>
        <time>2022-04-03T09:30:13.000Z</time>
      </trkpt>
      <trkpt lat="49.67165" lon="4.71595">
        <ele>201</ele>
        <time>2022-04-03T09:30:14.000Z</time>
      </trkpt>
      <trkpt lat="49.67165" lon="4.71594">
        <ele>201</ele>
        <time>2022-04-03T09:30:15.000Z</time>
      </trkpt>
      <trkpt lat="49.67165" lon="4.71594">
        <ele>201</ele>
        <time>2022-04-03T09:30:16.000Z</time>
      </trkpt>
      <trkpt lat="49.67165" lon="4.71595">
        <ele>201</ele>
        <time>2022-04-03T09:30:17.000Z</time>
      </trkpt>
      <trkpt lat="49.67165" lon="4.71595">
        <ele>201</ele>
        <time>2022-04-03T09:30:18.000Z</time>
      </trkpt>
      <trkpt lat="49.67165" lon="4.71595">
        <ele>201</ele>
        <time>2022-04-03T09:30:19.000Z</time>
      </trkpt>
      <trkpt lat="49.67166" lon="4.71595">
        <ele>201</ele>
        <time>2022-04-03T09:30:20.000Z</time>
      </trkpt>
      <trkpt lat="49.67166" lon="4.71595">
        <ele>201</ele>
        <time>2022-04-03T09:30:21.000Z</time>
      </trkpt>
      <trkpt lat="49.67166" lon="4.71595">
        <ele>201</ele>
        <time>2022-04-03T09:30:22.000Z</time>
      </trkpt>
      <trkpt lat="49.67165" lon="4.71595">
        <ele>201</ele>
        <time>2022-04-03T09:30:23.000Z</time>
      </trkpt>
      <trkpt lat="49.67165" lon="4.71595">
        <ele>201</ele>
        <time>2022-04-03T09:30:24.000Z</time>
      </trkpt>
      <trkpt lat="49.67165" lon="4.71595">
        <ele>201</ele>
        <time>2022-04-03T09:30:25.000Z</time>
      </trkpt>
      <trkpt lat="49.67165" lon="4.71595">
        <ele>201</ele>
        <time>2022-04-03T09:30:26.000Z</time>
      </trkpt>
      <trkpt lat="49.67165" lon="4.71595">
        <ele>201</ele>
        <time>2022-04-03T09:30:27.000Z</time>
      </trkpt>
      <trkpt lat="49.67165" lon="4.71594">
        <ele>201</ele>
        <time>2022-04-03T09:30:28.000Z</time>
      </trkpt>
      <trkpt lat="49.67165" lon="4.71594">
        <ele>201</ele>
        <time>2022-04-03T09:30:29.000Z</time>
      </trkpt>
      <trkpt lat="49.67165" lon="4.71594">
        <ele>201</ele>
        <time>2022-04-03T09:30:30.000Z</time>
      </trkpt>
      <trkpt lat="49.67165" lon="4.71594">
        <ele>201</ele>
        <time>2022-04-03T09:30:31.000Z</time>
      </trkpt>
      <trkpt lat="49.67165" lon="4.71594">
        <ele>201</ele>
        <time>2022-04-03T09:30:32.000Z</time>
      </trkpt>
      <trkpt lat="49.67165" lon="4.71594">
        <ele>201</ele>
        <time>2022-04-03T09:30:33.000Z</time>
      </trkpt>
      <trkpt lat="49.67165" lon="4.71594">
        <ele>201</ele>
        <time>2022-04-03T09:30:34.000Z</time>
      </trkpt>
      <trkpt lat="49.67165" lon="4.71595">
        <ele>201</ele>
        <time>2022-04-03T09:30:35.000Z</time>
      </trkpt>
      <trkpt lat="49.67165" lon="4.71595">
        <ele>201</ele>
        <time>2022-04-03T09:30:36.000Z</time>
      </trkpt>
      <trkpt lat="49.67165" lon="4.71594">
        <ele>201</ele>
        <time>2022-04-03T09:30:37.000Z</time>
      </trkpt>
      <trkpt lat="49.67165" lon="4.71594">
        <ele>201</ele>
        <time>2022-04-03T09:30:38.000Z</time>
      </trkpt>
      <trkpt lat="49.67165" lon="4.71594">
        <ele>201</ele>
        <time>2022-04-03T09:30:39.000Z</time>
      </trkpt>
      <trkpt lat="49.67165" lon="4.71594">
        <ele>202</ele>
        <time>2022-04-03T09:30:40.000Z</time>
      </trkpt>
      <trkpt lat="49.67165" lon="4.71594">
        <ele>201</ele>
        <time>2022-04-03T09:30:41.000Z</time>
      </trkpt>
      <trkpt lat="49.67165" lon="4.71594">
        <ele>201</ele>
        <time>2022-04-03T09:30:42.000Z</time>
      </trkpt>
      <trkpt lat="49.67165" lon="4.71594">
        <ele>201</ele>
        <time>2022-04-03T09:30:43.000Z</time>
      </trkpt>
      <trkpt lat="49.67165" lon="4.71594">
        <ele>201</ele>
        <time>2022-04-03T09:30:44.000Z</time>
      </trkpt>
      <trkpt lat="49.67165" lon="4.71594">
        <ele>201</ele>
        <time>2022-04-03T09:30:45.000Z</time>
      </trkpt>
      <trkpt lat="49.67165" lon="4.71593">
        <ele>201</ele>
        <time>2022-04-03T09:30:46.000Z</time>
      </trkpt>
      <trkpt lat="49.67165" lon="4.71593">
        <ele>201</ele>
        <time>2022-04-03T09:30:47.000Z</time>
      </trkpt>
      <trkpt lat="49.67165" lon="4.71593">
        <ele>201</ele>
        <time>2022-04-03T09:30:48.000Z</time>
      </trkpt>
      <trkpt lat="49.67165" lon="4.71593">
        <ele>201</ele>
        <time>2022-04-03T09:30:49.000Z</time>
      </trkpt>
      <trkpt lat="49.67165" lon="4.71593">
        <ele>201</ele>
        <time>2022-04-03T09:30:50.000Z</time>
      </trkpt>
      <trkpt lat="49.67165" lon="4.71593">
        <ele>201</ele>
        <time>2022-04-03T09:30:51.000Z</time>
      </trkpt>
      <trkpt lat="49.67165" lon="4.71593">
        <ele>201</ele>
        <time>2022-04-03T09:30:52.000Z</time>
      </trkpt>
      <trkpt lat="49.67165" lon="4.71593">
        <ele>201</ele>
        <time>2022-04-03T09:30:53.000Z</time>
      </trkpt>
      <trkpt lat="49.67165" lon="4.71593">
        <ele>201</ele>
        <time>2022-04-03T09:30:54.000Z</time>
      </trkpt>
      <trkpt lat="49.67165" lon="4.71593">
        <ele>201</ele>
        <time>2022-04-03T09:30:55.000Z</time>
      </trkpt>
      <trkpt lat="49.67165" lon="4.71593">
        <ele>201</ele>
        <time>2022-04-03T09:30:56.000Z</time>
      </trkpt>
      <trkpt lat="49.67165" lon="4.71593">
        <ele>201</ele>
        <time>2022-04-03T09:30:57.000Z</time>
      </trkpt>
      <trkpt lat="49.67165" lon="4.71593">
        <ele>201</ele>
        <time>2022-04-03T09:30:58.000Z</time>
      </trkpt>
      <trkpt lat="49.67165" lon="4.71593">
        <ele>201</ele>
        <time>2022-04-03T09:30:59.000Z</time>
      </trkpt>
      <trkpt lat="49.67165" lon="4.71593">
        <ele>201</ele>
        <time>2022-04-03T09:31:00.000Z</time>
      </trkpt>
      <trkpt lat="49.67165" lon="4.71593">
        <ele>201</ele>
        <time>2022-04-03T09:31:01.000Z</time>
      </trkpt>
      <trkpt lat="49.67165" lon="4.71593">
        <ele>201</ele>
        <time>2022-04-03T09:31:02.000Z</time>
      </trkpt>
      <trkpt lat="49.67165" lon="4.71593">
        <ele>201</ele>
        <time>2022-04-03T09:31:03.000Z</time>
      </trkpt>
      <trkpt lat="49.67165" lon="4.71593">
        <ele>201</ele>
        <time>2022-04-03T09:31:04.000Z</time>
      </trkpt>
      <trkpt lat="49.67166" lon="4.71592">
        <ele>201</ele>
        <time>2022-04-03T09:31:05.000Z</time>
      </trkpt>
      <trkpt lat="49.67166" lon="4.71593">
        <ele>201</ele>
        <time>2022-04-03T09:31:06.000Z</time>
      </trkpt>
      <trkpt lat="49.67167" lon="4.71593">
        <ele>201</ele>
        <time>2022-04-03T09:31:07.000Z</time>
      </trkpt>
      <trkpt lat="49.67167" lon="4.71592">
        <ele>201</ele>
        <time>2022-04-03T09:31:08.000Z</time>
      </trkpt>
      <trkpt lat="49.67168" lon="4.71592">
        <ele>201</ele>
        <time>2022-04-03T09:31:09.000Z</time>
      </trkpt>
      <trkpt lat="49.67168" lon="4.71592">
        <ele>201</ele>
        <time>2022-04-03T09:31:10.000Z</time>
      </trkpt>
      <trkpt lat="49.67168" lon="4.71592">
        <ele>201</ele>
        <time>2022-04-03T09:31:11.000Z</time>
      </trkpt>
      <trkpt lat="49.67168" lon="4.71592">
        <ele>201</ele>
        <time>2022-04-03T09:31:12.000Z</time>
      </trkpt>
      <trkpt lat="49.67168" lon="4.71592">
        <ele>201</ele>
        <time>2022-04-03T09:31:13.000Z</time>
      </trkpt>
      <trkpt lat="49.67168" lon="4.71592">
        <ele>201</ele>
        <time>2022-04-03T09:31:14.000Z</time>
      </trkpt>
      <trkpt lat="49.67168" lon="4.71592">
        <ele>201</ele>
        <time>2022-04-03T09:31:15.000Z</time>
      </trkpt>
      <trkpt lat="49.67168" lon="4.71592">
        <ele>201</ele>
        <time>2022-04-03T09:31:16.000Z</time>
      </trkpt>
      <trkpt lat="49.67168" lon="4.71592">
        <ele>201</ele>
        <time>2022-04-03T09:31:17.000Z</time>
      </trkpt>
      <trkpt lat="49.67168" lon="4.71592">
        <ele>201</ele>
        <time>2022-04-03T09:31:18.000Z</time>
      </trkpt>
      <trkpt lat="49.67168" lon="4.71592">
        <ele>201</ele>
        <time>2022-04-03T09:31:19.000Z</time>
      </trkpt>
      <trkpt lat="49.67168" lon="4.71593">
        <ele>201</ele>
        <time>2022-04-03T09:31:20.000Z</time>
      </trkpt>
      <trkpt lat="49.67168" lon="4.71593">
        <ele>201</ele>
        <time>2022-04-03T09:31:21.000Z</time>
      </trkpt>
      <trkpt lat="49.67168" lon="4.71593">
        <ele>201</ele>
        <time>2022-04-03T09:31:22.000Z</time>
      </trkpt>
      <trkpt lat="49.67168" lon="4.71593">
        <ele>201</ele>
        <time>2022-04-03T09:31:23.000Z</time>
      </trkpt>
      <trkpt lat="49.67168" lon="4.71593">
        <ele>201</ele>
        <time>2022-04-03T09:31:24.000Z</time>
      </trkpt>
      <trkpt lat="49.67168" lon="4.71593">
        <ele>201</ele>
        <time>2022-04-03T09:31:25.000Z</time>
      </trkpt>
      <trkpt lat="49.67169" lon="4.71593">
        <ele>201</ele>
        <time>2022-04-03T09:31:26.000Z</time>
      </trkpt>
      <trkpt lat="49.67169" lon="4.71594">
        <ele>201</ele>
        <time>2022-04-03T09:31:27.000Z</time>
      </trkpt>
      <trkpt lat="49.67169" lon="4.71594">
        <ele>201</ele>
        <time>2022-04-03T09:31:28.000Z</time>
      </trkpt>
      <trkpt lat="49.67169" lon="4.71594">
        <ele>201</ele>
        <time>2022-04-03T09:31:29.000Z</time>
      </trkpt>
      <trkpt lat="49.67169" lon="4.71594">
        <ele>201</ele>
        <time>2022-04-03T09:31:30.000Z</time>
      </trkpt>
      <trkpt lat="49.67169" lon="4.71594">
        <ele>201</ele>
        <time>2022-04-03T09:31:31.000Z</time>
      </trkpt>
      <trkpt lat="49.67169" lon="4.71594">
        <ele>201</ele>
        <time>2022-04-03T09:31:32.000Z</time>
      </trkpt>
      <trkpt lat="49.67169" lon="4.71594">
        <ele>201</ele>
        <time>2022-04-03T09:31:33.000Z</time>
      </trkpt>
      <trkpt lat="49.67169" lon="4.71594">
        <ele>201</ele>
        <time>2022-04-03T09:31:34.000Z</time>
      </trkpt>
      <trkpt lat="49.67169" lon="4.71594">
        <ele>201</ele>
        <time>2022-04-03T09:31:35.000Z</time>
      </trkpt>
      <trkpt lat="49.67169" lon="4.71594">
        <ele>201</ele>
        <time>2022-04-03T09:31:36.000Z</time>
      </trkpt>
      <trkpt lat="49.67169" lon="4.71594">
        <ele>201</ele>
        <time>2022-04-03T09:31:37.000Z</time>
      </trkpt>
      <trkpt lat="49.67169" lon="4.71594">
        <ele>201</ele>
        <time>2022-04-03T09:31:38.000Z</time>
      </trkpt>
      <trkpt lat="49.67169" lon="4.71594">
        <ele>201</ele>
        <time>2022-04-03T09:31:39.000Z</time>
      </trkpt>
      <trkpt lat="49.67169" lon="4.71594">
        <ele>201</ele>
        <time>2022-04-03T09:31:40.000Z</time>
      </trkpt>
      <trkpt lat="49.67169" lon="4.71594">
        <ele>201</ele>
        <time>2022-04-03T09:31:41.000Z</time>
      </trkpt>
      <trkpt lat="49.67169" lon="4.71594">
        <ele>201</ele>
        <time>2022-04-03T09:31:42.000Z</time>
      </trkpt>
      <trkpt lat="49.67169" lon="4.71594">
        <ele>201</ele>
        <time>2022-04-03T09:31:43.000Z</time>
      </trkpt>
      <trkpt lat="49.67169" lon="4.71594">
        <ele>201</ele>
        <time>2022-04-03T09:31:44.000Z</time>
      </trkpt>
      <trkpt lat="49.67169" lon="4.71594">
        <ele>201</ele>
        <time>2022-04-03T09:31:45.000Z</time>
      </trkpt>
      <trkpt lat="49.6717" lon="4.71594">
        <ele>201</ele>
        <time>2022-04-03T09:31:46.000Z</time>
      </trkpt>
      <trkpt lat="49.6717" lon="4.71594">
        <ele>201</ele>
        <time>2022-04-03T09:31:47.000Z</time>
      </trkpt>
      <trkpt lat="49.6717" lon="4.71594">
        <ele>201</ele>
        <time>2022-04-03T09:31:48.000Z</time>
      </trkpt>
      <trkpt lat="49.6717" lon="4.71594">
        <ele>201</ele>
        <time>2022-04-03T09:31:49.000Z</time>
      </trkpt>
      <trkpt lat="49.6717" lon="4.71594">
        <ele>201</ele>
        <time>2022-04-03T09:31:50.000Z</time>
      </trkpt>
      <trkpt lat="49.6717" lon="4.71594">
        <ele>201</ele>
        <time>2022-04-03T09:31:51.000Z</time>
      </trkpt>
      <trkpt lat="49.6717" lon="4.71594">
        <ele>201</ele>
        <time>2022-04-03T09:31:52.000Z</time>
      </trkpt>
      <trkpt lat="49.6717" lon="4.71594">
        <ele>201</ele>
        <time>2022-04-03T09:31:53.000Z</time>
      </trkpt>
      <trkpt lat="49.6717" lon="4.71594">
        <ele>201</ele>
        <time>2022-04-03T09:31:54.000Z</time>
      </trkpt>
      <trkpt lat="49.6717" lon="4.71594">
        <ele>201</ele>
        <time>2022-04-03T09:31:55.000Z</time>
      </trkpt>
      <trkpt lat="49.6717" lon="4.71595">
        <ele>201</ele>
        <time>2022-04-03T09:31:56.000Z</time>
      </trkpt>
      <trkpt lat="49.6717" lon="4.71595">
        <ele>202</ele>
        <time>2022-04-03T09:31:57.000Z</time>
      </trkpt>
      <trkpt lat="49.6717" lon="4.71595">
        <ele>202</ele>
        <time>2022-04-03T09:31:58.000Z</time>
      </trkpt>
      <trkpt lat="49.6717" lon="4.71595">
        <ele>202</ele>
        <time>2022-04-03T09:31:59.000Z</time>
      </trkpt>
      <trkpt lat="49.67171" lon="4.71595">
        <ele>202</ele>
        <time>2022-04-03T09:32:00.000Z</time>
      </trkpt>
      <trkpt lat="49.67171" lon="4.71595">
        <ele>202</ele>
        <time>2022-04-03T09:32:01.000Z</time>
      </trkpt>
      <trkpt lat="49.67171" lon="4.71595">
        <ele>202</ele>
        <time>2022-04-03T09:32:02.000Z</time>
      </trkpt>
      <trkpt lat="49.67171" lon="4.71595">
        <ele>202</ele>
        <time>2022-04-03T09:32:03.000Z</time>
      </trkpt>
      <trkpt lat="49.67171" lon="4.71595">
        <ele>202</ele>
        <time>2022-04-03T09:32:04.000Z</time>
      </trkpt>
      <trkpt lat="49.67171" lon="4.71595">
        <ele>202</ele>
        <time>2022-04-03T09:32:05.000Z</time>
      </trkpt>
      <trkpt lat="49.67171" lon="4.71595">
        <ele>202</ele>
        <time>2022-04-03T09:32:06.000Z</time>
      </trkpt>
      <trkpt lat="49.67171" lon="4.71596">
        <ele>202</ele>
        <time>2022-04-03T09:32:07.000Z</time>
      </trkpt>
      <trkpt lat="49.67171" lon="4.71596">
        <ele>202</ele>
        <time>2022-04-03T09:32:08.000Z</time>
      </trkpt>
      <trkpt lat="49.67171" lon="4.71596">
        <ele>202</ele>
        <time>2022-04-03T09:32:09.000Z</time>
      </trkpt>
      <trkpt lat="49.67171" lon="4.71596">
        <ele>202</ele>
        <time>2022-04-03T09:32:10.000Z</time>
      </trkpt>
      <trkpt lat="49.67171" lon="4.71596">
        <ele>202</ele>
        <time>2022-04-03T09:32:11.000Z</time>
      </trkpt>
      <trkpt lat="49.67171" lon="4.71596">
        <ele>202</ele>
        <time>2022-04-03T09:32:12.000Z</time>
      </trkpt>
      <trkpt lat="49.67171" lon="4.71596">
        <ele>202</ele>
        <time>2022-04-03T09:32:13.000Z</time>
      </trkpt>
      <trkpt lat="49.67171" lon="4.71596">
        <ele>202</ele>
        <time>2022-04-03T09:32:14.000Z</time>
      </trkpt>
      <trkpt lat="49.67171" lon="4.71596">
        <ele>202</ele>
        <time>2022-04-03T09:32:15.000Z</time>
      </trkpt>
      <trkpt lat="49.67171" lon="4.71596">
        <ele>202</ele>
        <time>2022-04-03T09:32:16.000Z</time>
      </trkpt>
      <trkpt lat="49.67171" lon="4.71596">
        <ele>202</ele>
        <time>2022-04-03T09:32:17.000Z</time>
      </trkpt>
      <trkpt lat="49.67171" lon="4.71596">
        <ele>202</ele>
        <time>2022-04-03T09:32:18.000Z</time>
      </trkpt>
      <trkpt lat="49.67171" lon="4.71596">
        <ele>202</ele>
        <time>2022-04-03T09:32:19.000Z</time>
      </trkpt>
      <trkpt lat="49.67171" lon="4.71596">
        <ele>202</ele>
        <time>2022-04-03T09:32:20.000Z</time>
      </trkpt>
      <trkpt lat="49.67171" lon="4.71597">
        <ele>202</ele>
        <time>2022-04-03T09:32:21.000Z</time>
      </trkpt>
      <trkpt lat="49.67171" lon="4.71597">
        <ele>202</ele>
        <time>2022-04-03T09:32:22.000Z</time>
      </trkpt>
      <trkpt lat="49.67171" lon="4.71597">
        <ele>202</ele>
        <time>2022-04-03T09:32:23.000Z</time>
      </trkpt>
      <trkpt lat="49.67171" lon="4.71597">
        <ele>202</ele>
        <time>2022-04-03T09:32:24.000Z</time>
      </trkpt>
      <trkpt lat="49.67171" lon="4.71596">
        <ele>202</ele>
        <time>2022-04-03T09:32:25.000Z</time>
      </trkpt>
      <trkpt lat="49.67171" lon="4.71596">
        <ele>202</ele>
        <time>2022-04-03T09:32:26.000Z</time>
      </trkpt>
      <trkpt lat="49.67171" lon="4.71596">
        <ele>202</ele>
        <time>2022-04-03T09:32:27.000Z</time>
      </trkpt>
      <trkpt lat="49.67171" lon="4.71596">
        <ele>202</ele>
        <time>2022-04-03T09:32:28.000Z</time>
      </trkpt>
      <trkpt lat="49.67171" lon="4.71596">
        <ele>202</ele>
        <time>2022-04-03T09:32:29.000Z</time>
      </trkpt>
      <trkpt lat="49.67172" lon="4.71596">
        <ele>202</ele>
        <time>2022-04-03T09:32:30.000Z</time>
      </trkpt>
      <trkpt lat="49.67172" lon="4.71596">
        <ele>202</ele>
        <time>2022-04-03T09:32:31.000Z</time>
      </trkpt>
      <trkpt lat="49.67172" lon="4.71596">
        <ele>202</ele>
        <time>2022-04-03T09:32:32.000Z</time>
      </trkpt>
      <trkpt lat="49.67172" lon="4.71596">
        <ele>202</ele>
        <time>2022-04-03T09:32:33.000Z</time>
      </trkpt>
      <trkpt lat="49.67172" lon="4.71597">
        <ele>202</ele>
        <time>2022-04-03T09:32:34.000Z</time>
      </trkpt>
      <trkpt lat="49.67171" lon="4.71598">
        <ele>202</ele>
        <time>2022-04-03T09:32:35.000Z</time>
      </trkpt>
      <trkpt lat="49.67171" lon="4.71598">
        <ele>202</ele>
        <time>2022-04-03T09:32:36.000Z</time>
      </trkpt>
      <trkpt lat="49.67171" lon="4.71597">
        <ele>202</ele>
        <time>2022-04-03T09:32:37.000Z</time>
      </trkpt>
      <trkpt lat="49.6717" lon="4.71597">
        <ele>202</ele>
        <time>2022-04-03T09:32:38.000Z</time>
      </trkpt>
      <trkpt lat="49.6717" lon="4.71597">
        <ele>202</ele>
        <time>2022-04-03T09:32:39.000Z</time>
      </trkpt>
      <trkpt lat="49.6717" lon="4.71597">
        <ele>202</ele>
        <time>2022-04-03T09:32:40.000Z</time>
      </trkpt>
      <trkpt lat="49.6717" lon="4.71597">
        <ele>202</ele>
        <time>2022-04-03T09:32:41.000Z</time>
      </trkpt>
      <trkpt lat="49.6717" lon="4.71597">
        <ele>202</ele>
        <time>2022-04-03T09:32:42.000Z</time>
      </trkpt>
      <trkpt lat="49.6717" lon="4.71597">
        <ele>202</ele>
        <time>2022-04-03T09:32:43.000Z</time>
      </trkpt>
      <trkpt lat="49.6717" lon="4.71597">
        <ele>202</ele>
        <time>2022-04-03T09:32:44.000Z</time>
      </trkpt>
      <trkpt lat="49.6717" lon="4.71597">
        <ele>201</ele>
        <time>2022-04-03T09:32:45.000Z</time>
      </trkpt>
      <trkpt lat="49.6717" lon="4.71597">
        <ele>201</ele>
        <time>2022-04-03T09:32:46.000Z</time>
      </trkpt>
      <trkpt lat="49.6717" lon="4.71597">
        <ele>201</ele>
        <time>2022-04-03T09:32:47.000Z</time>
      </trkpt>
      <trkpt lat="49.6717" lon="4.71597">
        <ele>201</ele>
        <time>2022-04-03T09:32:48.000Z</time>
      </trkpt>
      <trkpt lat="49.6717" lon="4.71597">
        <ele>201</ele>
        <time>2022-04-03T09:32:49.000Z</time>
      </trkpt>
      <trkpt lat="49.67171" lon="4.71596">
        <ele>201</ele>
        <time>2022-04-03T09:32:50.000Z</time>
      </trkpt>
      <trkpt lat="49.67171" lon="4.71596">
        <ele>201</ele>
        <time>2022-04-03T09:32:51.000Z</time>
      </trkpt>
      <trkpt lat="49.67171" lon="4.71596">
        <ele>201</ele>
        <time>2022-04-03T09:32:52.000Z</time>
      </trkpt>
      <trkpt lat="49.67171" lon="4.71596">
        <ele>201</ele>
        <time>2022-04-03T09:32:53.000Z</time>
      </trkpt>
      <trkpt lat="49.67171" lon="4.71596">
        <ele>201</ele>
        <time>2022-04-03T09:32:54.000Z</time>
      </trkpt>
      <trkpt lat="49.67171" lon="4.71596">
        <ele>201</ele>
        <time>2022-04-03T09:32:55.000Z</time>
      </trkpt>
      <trkpt lat="49.67171" lon="4.71596">
        <ele>201</ele>
        <time>2022-04-03T09:32:56.000Z</time>
      </trkpt>
      <trkpt lat="49.67171" lon="4.71595">
        <ele>201</ele>
        <time>2022-04-03T09:32:57.000Z</time>
      </trkpt>
      <trkpt lat="49.67171" lon="4.71595">
        <ele>201</ele>
        <time>2022-04-03T09:32:58.000Z</time>
      </trkpt>
      <trkpt lat="49.67171" lon="4.71596">
        <ele>201</ele>
        <time>2022-04-03T09:32:59.000Z</time>
      </trkpt>
      <trkpt lat="49.67171" lon="4.71597">
        <ele>201</ele>
        <time>2022-04-03T09:33:00.000Z</time>
      </trkpt>
      <trkpt lat="49.67171" lon="4.71597">
        <ele>201</ele>
        <time>2022-04-03T09:33:01.000Z</time>
      </trkpt>
      <trkpt lat="49.67171" lon="4.71597">
        <ele>201</ele>
        <time>2022-04-03T09:33:02.000Z</time>
      </trkpt>
      <trkpt lat="49.67171" lon="4.71597">
        <ele>201</ele>
        <time>2022-04-03T09:33:03.000Z</time>
      </trkpt>
      <trkpt lat="49.67171" lon="4.71597">
        <ele>201</ele>
        <time>2022-04-03T09:33:04.000Z</time>
      </trkpt>
      <trkpt lat="49.6717" lon="4.71597">
        <ele>201</ele>
        <time>2022-04-03T09:33:05.000Z</time>
      </trkpt>
      <trkpt lat="49.6717" lon="4.71597">
        <ele>201</ele>
        <time>2022-04-03T09:33:06.000Z</time>
      </trkpt>
      <trkpt lat="49.6717" lon="4.71597">
        <ele>201</ele>
        <time>2022-04-03T09:33:07.000Z</time>
      </trkpt>
      <trkpt lat="49.6717" lon="4.71597">
        <ele>200</ele>
        <time>2022-04-03T09:33:08.000Z</time>
      </trkpt>
      <trkpt lat="49.6717" lon="4.71596">
        <ele>201</ele>
        <time>2022-04-03T09:33:09.000Z</time>
      </trkpt>
      <trkpt lat="49.67171" lon="4.71596">
        <ele>201</ele>
        <time>2022-04-03T09:33:10.000Z</time>
      </trkpt>
      <trkpt lat="49.67171" lon="4.71596">
        <ele>201</ele>
        <time>2022-04-03T09:33:11.000Z</time>
      </trkpt>
      <trkpt lat="49.67171" lon="4.71596">
        <ele>201</ele>
        <time>2022-04-03T09:33:12.000Z</time>
      </trkpt>
      <trkpt lat="49.67172" lon="4.71596">
        <ele>201</ele>
        <time>2022-04-03T09:33:13.000Z</time>
      </trkpt>
      <trkpt lat="49.67172" lon="4.71596">
        <ele>201</ele>
        <time>2022-04-03T09:33:14.000Z</time>
      </trkpt>
      <trkpt lat="49.67172" lon="4.71596">
        <ele>201</ele>
        <time>2022-04-03T09:33:15.000Z</time>
      </trkpt>
      <trkpt lat="49.67172" lon="4.71596">
        <ele>201</ele>
        <time>2022-04-03T09:33:16.000Z</time>
      </trkpt>
      <trkpt lat="49.67172" lon="4.71596">
        <ele>201</ele>
        <time>2022-04-03T09:33:17.000Z</time>
      </trkpt>
      <trkpt lat="49.67172" lon="4.71596">
        <ele>201</ele>
        <time>2022-04-03T09:33:18.000Z</time>
      </trkpt>
      <trkpt lat="49.67172" lon="4.71596">
        <ele>201</ele>
        <time>2022-04-03T09:33:19.000Z</time>
      </trkpt>
      <trkpt lat="49.67172" lon="4.71596">
        <ele>201</ele>
        <time>2022-04-03T09:33:20.000Z</time>
      </trkpt>
      <trkpt lat="49.67172" lon="4.71596">
        <ele>201</ele>
        <time>2022-04-03T09:33:21.000Z</time>
      </trkpt>
      <trkpt lat="49.67172" lon="4.71596">
        <ele>201</ele>
        <time>2022-04-03T09:33:22.000Z</time>
      </trkpt>
      <trkpt lat="49.67172" lon="4.71596">
        <ele>201</ele>
        <time>2022-04-03T09:33:23.000Z</time>
      </trkpt>
      <trkpt lat="49.67172" lon="4.71596">
        <ele>201</ele>
        <time>2022-04-03T09:33:24.000Z</time>
      </trkpt>
      <trkpt lat="49.67172" lon="4.71596">
        <ele>201</ele>
        <time>2022-04-03T09:33:25.000Z</time>
      </trkpt>
      <trkpt lat="49.67172" lon="4.71596">
        <ele>201</ele>
        <time>2022-04-03T09:33:26.000Z</time>
      </trkpt>
      <trkpt lat="49.67172" lon="4.71596">
        <ele>201</ele>
        <time>2022-04-03T09:33:27.000Z</time>
      </trkpt>
      <trkpt lat="49.67172" lon="4.71596">
        <ele>201</ele>
        <time>2022-04-03T09:33:28.000Z</time>
      </trkpt>
      <trkpt lat="49.67172" lon="4.71596">
        <ele>201</ele>
        <time>2022-04-03T09:33:29.000Z</time>
      </trkpt>
      <trkpt lat="49.67172" lon="4.71595">
        <ele>201</ele>
        <time>2022-04-03T09:33:30.000Z</time>
      </trkpt>
      <trkpt lat="49.67172" lon="4.71595">
        <ele>201</ele>
        <time>2022-04-03T09:33:31.000Z</time>
      </trkpt>
      <trkpt lat="49.67173" lon="4.71595">
        <ele>201</ele>
        <time>2022-04-03T09:33:32.000Z</time>
      </trkpt>
      <trkpt lat="49.67174" lon="4.71595">
        <ele>201</ele>
        <time>2022-04-03T09:33:33.000Z</time>
      </trkpt>
      <trkpt lat="49.67174" lon="4.71596">
        <ele>201</ele>
        <time>2022-04-03T09:33:34.000Z</time>
      </trkpt>
      <trkpt lat="49.67174" lon="4.71597">
        <ele>201</ele>
        <time>2022-04-03T09:33:35.000Z</time>
      </trkpt>
      <trkpt lat="49.67173" lon="4.71598">
        <ele>201</ele>
        <time>2022-04-03T09:33:36.000Z</time>
      </trkpt>
      <trkpt lat="49.67172" lon="4.71598">
        <ele>200</ele>
        <time>2022-04-03T09:33:37.000Z</time>
      </trkpt>
      <trkpt lat="49.67172" lon="4.71598">
        <ele>200</ele>
        <time>2022-04-03T09:33:38.000Z</time>
      </trkpt>
      <trkpt lat="49.67172" lon="4.71598">
        <ele>200</ele>
        <time>2022-04-03T09:33:39.000Z</time>
      </trkpt>
      <trkpt lat="49.67172" lon="4.71598">
        <ele>200</ele>
        <time>2022-04-03T09:33:40.000Z</time>
      </trkpt>
      <trkpt lat="49.67172" lon="4.71598">
        <ele>200</ele>
        <time>2022-04-03T09:33:41.000Z</time>
      </trkpt>
      <trkpt lat="49.67172" lon="4.71599">
        <ele>200</ele>
        <time>2022-04-03T09:33:42.000Z</time>
      </trkpt>
      <trkpt lat="49.67172" lon="4.71599">
        <ele>200</ele>
        <time>2022-04-03T09:33:43.000Z</time>
      </trkpt>
      <trkpt lat="49.67172" lon="4.716">
        <ele>200</ele>
        <time>2022-04-03T09:33:44.000Z</time>
      </trkpt>
      <trkpt lat="49.67172" lon="4.716">
        <ele>200</ele>
        <time>2022-04-03T09:33:45.000Z</time>
      </trkpt>
      <trkpt lat="49.67172" lon="4.716">
        <ele>200</ele>
        <time>2022-04-03T09:33:46.000Z</time>
      </trkpt>
      <trkpt lat="49.67172" lon="4.716">
        <ele>200</ele>
        <time>2022-04-03T09:33:47.000Z</time>
      </trkpt>
      <trkpt lat="49.67172" lon="4.716">
        <ele>200</ele>
        <time>2022-04-03T09:33:48.000Z</time>
      </trkpt>
      <trkpt lat="49.67172" lon="4.71601">
        <ele>200</ele>
        <time>2022-04-03T09:33:49.000Z</time>
      </trkpt>
      <trkpt lat="49.67174" lon="4.71602">
        <ele>200</ele>
        <time>2022-04-03T09:33:50.000Z</time>
      </trkpt>
      <trkpt lat="49.67175" lon="4.71602">
        <ele>201</ele>
        <time>2022-04-03T09:33:51.000Z</time>
      </trkpt>
      <trkpt lat="49.67177" lon="4.71601">
        <ele>201</ele>
        <time>2022-04-03T09:33:52.000Z</time>
      </trkpt>
      <trkpt lat="49.67178" lon="4.716">
        <ele>201</ele>
        <time>2022-04-03T09:33:53.000Z</time>
      </trkpt>
      <trkpt lat="49.6718" lon="4.71599">
        <ele>201</ele>
        <time>2022-04-03T09:33:54.000Z</time>
      </trkpt>
      <trkpt lat="49.67182" lon="4.71598">
        <ele>201</ele>
        <time>2022-04-03T09:33:55.000Z</time>
      </trkpt>
      <trkpt lat="49.67184" lon="4.71598">
        <ele>201</ele>
        <time>2022-04-03T09:33:56.000Z</time>
      </trkpt>
      <trkpt lat="49.67186" lon="4.71598">
        <ele>202</ele>
        <time>2022-04-03T09:33:57.000Z</time>
      </trkpt>
      <trkpt lat="49.67188" lon="4.71598">
        <ele>202</ele>
        <time>2022-04-03T09:33:58.000Z</time>
      </trkpt>
      <trkpt lat="49.6719" lon="4.71599">
        <ele>202</ele>
        <time>2022-04-03T09:33:59.000Z</time>
      </trkpt>
      <trkpt lat="49.67192" lon="4.716">
        <ele>202</ele>
        <time>2022-04-03T09:34:00.000Z</time>
      </trkpt>
      <trkpt lat="49.67193" lon="4.71601">
        <ele>202</ele>
        <time>2022-04-03T09:34:01.000Z</time>
      </trkpt>
      <trkpt lat="49.67195" lon="4.71603">
        <ele>202</ele>
        <time>2022-04-03T09:34:02.000Z</time>
      </trkpt>
      <trkpt lat="49.67197" lon="4.71604">
        <ele>203</ele>
        <time>2022-04-03T09:34:03.000Z</time>
      </trkpt>
      <trkpt lat="49.67198" lon="4.71607">
        <ele>203</ele>
        <time>2022-04-03T09:34:04.000Z</time>
      </trkpt>
      <trkpt lat="49.67199" lon="4.71609">
        <ele>203</ele>
        <time>2022-04-03T09:34:05.000Z</time>
      </trkpt>
      <trkpt lat="49.67201" lon="4.71611">
        <ele>203</ele>
        <time>2022-04-03T09:34:06.000Z</time>
      </trkpt>
      <trkpt lat="49.67202" lon="4.71614">
        <ele>203</ele>
        <time>2022-04-03T09:34:07.000Z</time>
      </trkpt>
      <trkpt lat="49.67203" lon="4.71616">
        <ele>204</ele>
        <time>2022-04-03T09:34:08.000Z</time>
      </trkpt>
      <trkpt lat="49.67205" lon="4.71618">
        <ele>204</ele>
        <time>2022-04-03T09:34:09.000Z</time>
      </trkpt>
      <trkpt lat="49.67206" lon="4.7162">
        <ele>204</ele>
        <time>2022-04-03T09:34:10.000Z</time>
      </trkpt>
      <trkpt lat="49.67208" lon="4.71622">
        <ele>204</ele>
        <time>2022-04-03T09:34:11.000Z</time>
      </trkpt>
      <trkpt lat="49.6721" lon="4.71623">
        <ele>205</ele>
        <time>2022-04-03T09:34:12.000Z</time>
      </trkpt>
      <trkpt lat="49.67211" lon="4.71625">
        <ele>205</ele>
        <time>2022-04-03T09:34:13.000Z</time>
      </trkpt>
      <trkpt lat="49.67213" lon="4.71627">
        <ele>205</ele>
        <time>2022-04-03T09:34:14.000Z</time>
      </trkpt>
      <trkpt lat="49.67215" lon="4.71629">
        <ele>205</ele>
        <time>2022-04-03T09:34:15.000Z</time>
      </trkpt>
      <trkpt lat="49.67216" lon="4.71631">
        <ele>206</ele>
        <time>2022-04-03T09:34:16.000Z</time>
      </trkpt>
      <trkpt lat="49.67218" lon="4.71632">
        <ele>206</ele>
        <time>2022-04-03T09:34:17.000Z</time>
      </trkpt>
      <trkpt lat="49.6722" lon="4.71634">
        <ele>206</ele>
        <time>2022-04-03T09:34:18.000Z</time>
      </trkpt>
      <trkpt lat="49.67222" lon="4.71636">
        <ele>206</ele>
        <time>2022-04-03T09:34:19.000Z</time>
      </trkpt>
      <trkpt lat="49.67224" lon="4.71638">
        <ele>207</ele>
        <time>2022-04-03T09:34:20.000Z</time>
      </trkpt>
      <trkpt lat="49.67226" lon="4.71639">
        <ele>207</ele>
        <time>2022-04-03T09:34:21.000Z</time>
      </trkpt>
      <trkpt lat="49.67227" lon="4.71641">
        <ele>207</ele>
        <time>2022-04-03T09:34:22.000Z</time>
      </trkpt>
      <trkpt lat="49.67229" lon="4.71643">
        <ele>208</ele>
        <time>2022-04-03T09:34:23.000Z</time>
      </trkpt>
      <trkpt lat="49.67231" lon="4.71644">
        <ele>208</ele>
        <time>2022-04-03T09:34:24.000Z</time>
      </trkpt>
      <trkpt lat="49.67232" lon="4.71646">
        <ele>208</ele>
        <time>2022-04-03T09:34:25.000Z</time>
      </trkpt>
      <trkpt lat="49.67234" lon="4.71648">
        <ele>209</ele>
        <time>2022-04-03T09:34:26.000Z</time>
      </trkpt>
      <trkpt lat="49.67235" lon="4.7165">
        <ele>209</ele>
        <time>2022-04-03T09:34:27.000Z</time>
      </trkpt>
      <trkpt lat="49.67237" lon="4.71652">
        <ele>209</ele>
        <time>2022-04-03T09:34:28.000Z</time>
      </trkpt>
      <trkpt lat="49.67238" lon="4.71654">
        <ele>209</ele>
        <time>2022-04-03T09:34:29.000Z</time>
      </trkpt>
      <trkpt lat="49.6724" lon="4.71655">
        <ele>210</ele>
        <time>2022-04-03T09:34:30.000Z</time>
      </trkpt>
      <trkpt lat="49.67242" lon="4.71657">
        <ele>210</ele>
        <time>2022-04-03T09:34:31.000Z</time>
      </trkpt>
      <trkpt lat="49.67244" lon="4.71659">
        <ele>210</ele>
        <time>2022-04-03T09:34:32.000Z</time>
      </trkpt>
      <trkpt lat="49.67245" lon="4.71661">
        <ele>210</ele>
        <time>2022-04-03T09:34:33.000Z</time>
      </trkpt>
      <trkpt lat="49.67247" lon="4.71663">
        <ele>211</ele>
        <time>2022-04-03T09:34:34.000Z</time>
      </trkpt>
      <trkpt lat="49.67248" lon="4.71665">
        <ele>211</ele>
        <time>2022-04-03T09:34:35.000Z</time>
      </trkpt>
      <trkpt lat="49.6725" lon="4.71667">
        <ele>211</ele>
        <time>2022-04-03T09:34:36.000Z</time>
      </trkpt>
      <trkpt lat="49.67251" lon="4.71669">
        <ele>212</ele>
        <time>2022-04-03T09:34:37.000Z</time>
      </trkpt>
      <trkpt lat="49.67253" lon="4.71671">
        <ele>212</ele>
        <time>2022-04-03T09:34:38.000Z</time>
      </trkpt>
      <trkpt lat="49.67254" lon="4.71673">
        <ele>212</ele>
        <time>2022-04-03T09:34:39.000Z</time>
      </trkpt>
      <trkpt lat="49.67255" lon="4.71675">
        <ele>212</ele>
        <time>2022-04-03T09:34:40.000Z</time>
      </trkpt>
      <trkpt lat="49.67256" lon="4.71679">
        <ele>213</ele>
        <time>2022-04-03T09:34:41.000Z</time>
      </trkpt>
      <trkpt lat="49.67257" lon="4.71682">
        <ele>213</ele>
        <time>2022-04-03T09:34:42.000Z</time>
      </trkpt>
      <trkpt lat="49.67258" lon="4.71685">
        <ele>213</ele>
        <time>2022-04-03T09:34:43.000Z</time>
      </trkpt>
      <trkpt lat="49.67258" lon="4.71688">
        <ele>213</ele>
        <time>2022-04-03T09:34:44.000Z</time>
      </trkpt>
      <trkpt lat="49.67259" lon="4.71691">
        <ele>213</ele>
        <time>2022-04-03T09:34:45.000Z</time>
      </trkpt>
      <trkpt lat="49.6726" lon="4.71695">
        <ele>213</ele>
        <time>2022-04-03T09:34:46.000Z</time>
      </trkpt>
      <trkpt lat="49.6726" lon="4.71699">
        <ele>213</ele>
        <time>2022-04-03T09:34:47.000Z</time>
      </trkpt>
      <trkpt lat="49.67261" lon="4.71703">
        <ele>213</ele>
        <time>2022-04-03T09:34:48.000Z</time>
      </trkpt>
      <trkpt lat="49.67261" lon="4.71707">
        <ele>213</ele>
        <time>2022-04-03T09:34:49.000Z</time>
      </trkpt>
      <trkpt lat="49.67262" lon="4.71711">
        <ele>214</ele>
        <time>2022-04-03T09:34:50.000Z</time>
      </trkpt>
      <trkpt lat="49.67262" lon="4.71715">
        <ele>214</ele>
        <time>2022-04-03T09:34:51.000Z</time>
      </trkpt>
      <trkpt lat="49.67261" lon="4.71719">
        <ele>214</ele>
        <time>2022-04-03T09:34:52.000Z</time>
      </trkpt>
      <trkpt lat="49.67262" lon="4.71723">
        <ele>214</ele>
        <time>2022-04-03T09:34:53.000Z</time>
      </trkpt>
      <trkpt lat="49.67262" lon="4.71727">
        <ele>214</ele>
        <time>2022-04-03T09:34:54.000Z</time>
      </trkpt>
      <trkpt lat="49.67262" lon="4.71732">
        <ele>214</ele>
        <time>2022-04-03T09:34:55.000Z</time>
      </trkpt>
      <trkpt lat="49.67263" lon="4.71736">
        <ele>214</ele>
        <time>2022-04-03T09:34:56.000Z</time>
      </trkpt>
      <trkpt lat="49.67264" lon="4.71741">
        <ele>214</ele>
        <time>2022-04-03T09:34:57.000Z</time>
      </trkpt>
      <trkpt lat="49.67264" lon="4.71745">
        <ele>214</ele>
        <time>2022-04-03T09:34:58.000Z</time>
      </trkpt>
      <trkpt lat="49.67265" lon="4.71749">
        <ele>214</ele>
        <time>2022-04-03T09:34:59.000Z</time>
      </trkpt>
      <trkpt lat="49.67265" lon="4.71753">
        <ele>214</ele>
        <time>2022-04-03T09:35:00.000Z</time>
      </trkpt>
      <trkpt lat="49.67266" lon="4.71757">
        <ele>214</ele>
        <time>2022-04-03T09:35:01.000Z</time>
      </trkpt>
      <trkpt lat="49.67266" lon="4.71761">
        <ele>214</ele>
        <time>2022-04-03T09:35:02.000Z</time>
      </trkpt>
      <trkpt lat="49.67267" lon="4.71766">
        <ele>214</ele>
        <time>2022-04-03T09:35:03.000Z</time>
      </trkpt>
      <trkpt lat="49.67267" lon="4.71771">
        <ele>214</ele>
        <time>2022-04-03T09:35:04.000Z</time>
      </trkpt>
      <trkpt lat="49.67267" lon="4.71776">
        <ele>214</ele>
        <time>2022-04-03T09:35:05.000Z</time>
      </trkpt>
      <trkpt lat="49.67268" lon="4.7178">
        <ele>214</ele>
        <time>2022-04-03T09:35:06.000Z</time>
      </trkpt>
      <trkpt lat="49.67268" lon="4.71785">
        <ele>214</ele>
        <time>2022-04-03T09:35:07.000Z</time>
      </trkpt>
      <trkpt lat="49.67269" lon="4.7179">
        <ele>214</ele>
        <time>2022-04-03T09:35:08.000Z</time>
      </trkpt>
      <trkpt lat="49.6727" lon="4.71795">
        <ele>214</ele>
        <time>2022-04-03T09:35:09.000Z</time>
      </trkpt>
      <trkpt lat="49.6727" lon="4.718">
        <ele>214</ele>
        <time>2022-04-03T09:35:10.000Z</time>
      </trkpt>
      <trkpt lat="49.67271" lon="4.71805">
        <ele>214</ele>
        <time>2022-04-03T09:35:11.000Z</time>
      </trkpt>
      <trkpt lat="49.67271" lon="4.7181">
        <ele>214</ele>
        <time>2022-04-03T09:35:12.000Z</time>
      </trkpt>
      <trkpt lat="49.67272" lon="4.71817">
        <ele>214</ele>
        <time>2022-04-03T09:35:13.000Z</time>
      </trkpt>
      <trkpt lat="49.67273" lon="4.71823">
        <ele>214</ele>
        <time>2022-04-03T09:35:14.000Z</time>
      </trkpt>
      <trkpt lat="49.67273" lon="4.7183">
        <ele>214</ele>
        <time>2022-04-03T09:35:15.000Z</time>
      </trkpt>
      <trkpt lat="49.67273" lon="4.71838">
        <ele>215</ele>
        <time>2022-04-03T09:35:16.000Z</time>
      </trkpt>
      <trkpt lat="49.67274" lon="4.71845">
        <ele>215</ele>
        <time>2022-04-03T09:35:17.000Z</time>
      </trkpt>
      <trkpt lat="49.67274" lon="4.71852">
        <ele>215</ele>
        <time>2022-04-03T09:35:18.000Z</time>
      </trkpt>
      <trkpt lat="49.67275" lon="4.7186">
        <ele>215</ele>
        <time>2022-04-03T09:35:19.000Z</time>
      </trkpt>
      <trkpt lat="49.67275" lon="4.71867">
        <ele>215</ele>
        <time>2022-04-03T09:35:20.000Z</time>
      </trkpt>
      <trkpt lat="49.67276" lon="4.71874">
        <ele>215</ele>
        <time>2022-04-03T09:35:21.000Z</time>
      </trkpt>
      <trkpt lat="49.67276" lon="4.71881">
        <ele>215</ele>
        <time>2022-04-03T09:35:22.000Z</time>
      </trkpt>
      <trkpt lat="49.67276" lon="4.71887">
        <ele>216</ele>
        <time>2022-04-03T09:35:23.000Z</time>
      </trkpt>
      <trkpt lat="49.67276" lon="4.71893">
        <ele>216</ele>
        <time>2022-04-03T09:35:24.000Z</time>
      </trkpt>
      <trkpt lat="49.67277" lon="4.719">
        <ele>216</ele>
        <time>2022-04-03T09:35:25.000Z</time>
      </trkpt>
      <trkpt lat="49.67277" lon="4.71908">
        <ele>216</ele>
        <time>2022-04-03T09:35:26.000Z</time>
      </trkpt>
      <trkpt lat="49.67279" lon="4.71917">
        <ele>216</ele>
        <time>2022-04-03T09:35:27.000Z</time>
      </trkpt>
      <trkpt lat="49.6728" lon="4.71925">
        <ele>216</ele>
        <time>2022-04-03T09:35:28.000Z</time>
      </trkpt>
      <trkpt lat="49.67281" lon="4.71934">
        <ele>216</ele>
        <time>2022-04-03T09:35:29.000Z</time>
      </trkpt>
      <trkpt lat="49.67282" lon="4.71942">
        <ele>216</ele>
        <time>2022-04-03T09:35:30.000Z</time>
      </trkpt>
      <trkpt lat="49.67283" lon="4.7195">
        <ele>217</ele>
        <time>2022-04-03T09:35:31.000Z</time>
      </trkpt>
      <trkpt lat="49.67284" lon="4.71958">
        <ele>217</ele>
        <time>2022-04-03T09:35:32.000Z</time>
      </trkpt>
      <trkpt lat="49.67285" lon="4.71966">
        <ele>217</ele>
        <time>2022-04-03T09:35:33.000Z</time>
      </trkpt>
      <trkpt lat="49.67285" lon="4.71975">
        <ele>217</ele>
        <time>2022-04-03T09:35:34.000Z</time>
      </trkpt>
      <trkpt lat="49.67286" lon="4.71984">
        <ele>217</ele>
        <time>2022-04-03T09:35:35.000Z</time>
      </trkpt>
      <trkpt lat="49.67287" lon="4.71992">
        <ele>217</ele>
        <time>2022-04-03T09:35:36.000Z</time>
      </trkpt>
      <trkpt lat="49.67289" lon="4.72001">
        <ele>217</ele>
        <time>2022-04-03T09:35:37.000Z</time>
      </trkpt>
      <trkpt lat="49.6729" lon="4.7201">
        <ele>217</ele>
        <time>2022-04-03T09:35:38.000Z</time>
      </trkpt>
      <trkpt lat="49.6729" lon="4.72019">
        <ele>217</ele>
        <time>2022-04-03T09:35:39.000Z</time>
      </trkpt>
      <trkpt lat="49.6729" lon="4.72028">
        <ele>217</ele>
        <time>2022-04-03T09:35:40.000Z</time>
      </trkpt>
      <trkpt lat="49.6729" lon="4.72037">
        <ele>217</ele>
        <time>2022-04-03T09:35:41.000Z</time>
      </trkpt>
      <trkpt lat="49.6729" lon="4.72047">
        <ele>217</ele>
        <time>2022-04-03T09:35:42.000Z</time>
      </trkpt>
      <trkpt lat="49.6729" lon="4.72056">
        <ele>217</ele>
        <time>2022-04-03T09:35:43.000Z</time>
      </trkpt>
      <trkpt lat="49.6729" lon="4.72065">
        <ele>217</ele>
        <time>2022-04-03T09:35:44.000Z</time>
      </trkpt>
      <trkpt lat="49.6729" lon="4.72075">
        <ele>217</ele>
        <time>2022-04-03T09:35:45.000Z</time>
      </trkpt>
      <trkpt lat="49.67289" lon="4.72084">
        <ele>217</ele>
        <time>2022-04-03T09:35:46.000Z</time>
      </trkpt>
      <trkpt lat="49.67289" lon="4.72094">
        <ele>217</ele>
        <time>2022-04-03T09:35:47.000Z</time>
      </trkpt>
      <trkpt lat="49.6729" lon="4.72103">
        <ele>217</ele>
        <time>2022-04-03T09:35:48.000Z</time>
      </trkpt>
      <trkpt lat="49.67291" lon="4.72111">
        <ele>217</ele>
        <time>2022-04-03T09:35:49.000Z</time>
      </trkpt>
      <trkpt lat="49.67293" lon="4.72118">
        <ele>216</ele>
        <time>2022-04-03T09:35:50.000Z</time>
      </trkpt>
      <trkpt lat="49.67295" lon="4.72125">
        <ele>216</ele>
        <time>2022-04-03T09:35:51.000Z</time>
      </trkpt>
      <trkpt lat="49.67298" lon="4.7213">
        <ele>216</ele>
        <time>2022-04-03T09:35:52.000Z</time>
      </trkpt>
      <trkpt lat="49.673" lon="4.72135">
        <ele>216</ele>
        <time>2022-04-03T09:35:53.000Z</time>
      </trkpt>
      <trkpt lat="49.67301" lon="4.72138">
        <ele>216</ele>
        <time>2022-04-03T09:35:54.000Z</time>
      </trkpt>
      <trkpt lat="49.67301" lon="4.72142">
        <ele>216</ele>
        <time>2022-04-03T09:35:55.000Z</time>
      </trkpt>
      <trkpt lat="49.67302" lon="4.72148">
        <ele>216</ele>
        <time>2022-04-03T09:35:56.000Z</time>
      </trkpt>
      <trkpt lat="49.67303" lon="4.72153">
        <ele>216</ele>
        <time>2022-04-03T09:35:57.000Z</time>
      </trkpt>
      <trkpt lat="49.67304" lon="4.7216">
        <ele>216</ele>
        <time>2022-04-03T09:35:58.000Z</time>
      </trkpt>
      <trkpt lat="49.67305" lon="4.72166">
        <ele>216</ele>
        <time>2022-04-03T09:35:59.000Z</time>
      </trkpt>
      <trkpt lat="49.67305" lon="4.72173">
        <ele>216</ele>
        <time>2022-04-03T09:36:00.000Z</time>
      </trkpt>
      <trkpt lat="49.67305" lon="4.72179">
        <ele>217</ele>
        <time>2022-04-03T09:36:01.000Z</time>
      </trkpt>
      <trkpt lat="49.67305" lon="4.72186">
        <ele>217</ele>
        <time>2022-04-03T09:36:02.000Z</time>
      </trkpt>
      <trkpt lat="49.67307" lon="4.72193">
        <ele>217</ele>
        <time>2022-04-03T09:36:03.000Z</time>
      </trkpt>
      <trkpt lat="49.67308" lon="4.722">
        <ele>217</ele>
        <time>2022-04-03T09:36:04.000Z</time>
      </trkpt>
      <trkpt lat="49.6731" lon="4.72207">
        <ele>217</ele>
        <time>2022-04-03T09:36:05.000Z</time>
      </trkpt>
      <trkpt lat="49.67311" lon="4.72215">
        <ele>217</ele>
        <time>2022-04-03T09:36:06.000Z</time>
      </trkpt>
      <trkpt lat="49.67312" lon="4.72222">
        <ele>217</ele>
        <time>2022-04-03T09:36:07.000Z</time>
      </trkpt>
      <trkpt lat="49.67312" lon="4.72228">
        <ele>217</ele>
        <time>2022-04-03T09:36:08.000Z</time>
      </trkpt>
      <trkpt lat="49.67313" lon="4.72235">
        <ele>217</ele>
        <time>2022-04-03T09:36:09.000Z</time>
      </trkpt>
      <trkpt lat="49.67315" lon="4.72241">
        <ele>217</ele>
        <time>2022-04-03T09:36:10.000Z</time>
      </trkpt>
      <trkpt lat="49.67317" lon="4.72248">
        <ele>217</ele>
        <time>2022-04-03T09:36:11.000Z</time>
      </trkpt>
      <trkpt lat="49.67319" lon="4.72254">
        <ele>217</ele>
        <time>2022-04-03T09:36:12.000Z</time>
      </trkpt>
      <trkpt lat="49.67322" lon="4.7226">
        <ele>217</ele>
        <time>2022-04-03T09:36:13.000Z</time>
      </trkpt>
      <trkpt lat="49.67324" lon="4.72266">
        <ele>217</ele>
        <time>2022-04-03T09:36:14.000Z</time>
      </trkpt>
      <trkpt lat="49.67326" lon="4.72272">
        <ele>217</ele>
        <time>2022-04-03T09:36:15.000Z</time>
      </trkpt>
      <trkpt lat="49.67329" lon="4.72278">
        <ele>217</ele>
        <time>2022-04-03T09:36:16.000Z</time>
      </trkpt>
      <trkpt lat="49.67331" lon="4.72284">
        <ele>218</ele>
        <time>2022-04-03T09:36:17.000Z</time>
      </trkpt>
      <trkpt lat="49.67333" lon="4.7229">
        <ele>218</ele>
        <time>2022-04-03T09:36:18.000Z</time>
      </trkpt>
      <trkpt lat="49.67335" lon="4.72295">
        <ele>218</ele>
        <time>2022-04-03T09:36:19.000Z</time>
      </trkpt>
      <trkpt lat="49.67337" lon="4.72301">
        <ele>218</ele>
        <time>2022-04-03T09:36:20.000Z</time>
      </trkpt>
      <trkpt lat="49.67339" lon="4.72308">
        <ele>218</ele>
        <time>2022-04-03T09:36:21.000Z</time>
      </trkpt>
      <trkpt lat="49.67341" lon="4.72314">
        <ele>218</ele>
        <time>2022-04-03T09:36:22.000Z</time>
      </trkpt>
      <trkpt lat="49.67342" lon="4.72321">
        <ele>219</ele>
        <time>2022-04-03T09:36:23.000Z</time>
      </trkpt>
      <trkpt lat="49.67344" lon="4.72328">
        <ele>219</ele>
        <time>2022-04-03T09:36:24.000Z</time>
      </trkpt>
      <trkpt lat="49.67346" lon="4.72335">
        <ele>219</ele>
        <time>2022-04-03T09:36:25.000Z</time>
      </trkpt>
      <trkpt lat="49.67348" lon="4.72342">
        <ele>219</ele>
        <time>2022-04-03T09:36:26.000Z</time>
      </trkpt>
      <trkpt lat="49.6735" lon="4.72349">
        <ele>219</ele>
        <time>2022-04-03T09:36:27.000Z</time>
      </trkpt>
      <trkpt lat="49.67351" lon="4.72356">
        <ele>219</ele>
        <time>2022-04-03T09:36:28.000Z</time>
      </trkpt>
      <trkpt lat="49.67353" lon="4.72362">
        <ele>219</ele>
        <time>2022-04-03T09:36:29.000Z</time>
      </trkpt>
      <trkpt lat="49.67355" lon="4.7237">
        <ele>219</ele>
        <time>2022-04-03T09:36:30.000Z</time>
      </trkpt>
      <trkpt lat="49.67357" lon="4.72377">
        <ele>219</ele>
        <time>2022-04-03T09:36:31.000Z</time>
      </trkpt>
      <trkpt lat="49.67358" lon="4.72384">
        <ele>219</ele>
        <time>2022-04-03T09:36:32.000Z</time>
      </trkpt>
      <trkpt lat="49.6736" lon="4.72391">
        <ele>220</ele>
        <time>2022-04-03T09:36:33.000Z</time>
      </trkpt>
      <trkpt lat="49.67362" lon="4.72399">
        <ele>220</ele>
        <time>2022-04-03T09:36:34.000Z</time>
      </trkpt>
      <trkpt lat="49.67364" lon="4.72406">
        <ele>220</ele>
        <time>2022-04-03T09:36:35.000Z</time>
      </trkpt>
      <trkpt lat="49.67366" lon="4.72413">
        <ele>220</ele>
        <time>2022-04-03T09:36:36.000Z</time>
      </trkpt>
      <trkpt lat="49.67368" lon="4.72421">
        <ele>220</ele>
        <time>2022-04-03T09:36:37.000Z</time>
      </trkpt>
      <trkpt lat="49.6737" lon="4.72428">
        <ele>220</ele>
        <time>2022-04-03T09:36:38.000Z</time>
      </trkpt>
      <trkpt lat="49.67373" lon="4.72436">
        <ele>220</ele>
        <time>2022-04-03T09:36:39.000Z</time>
      </trkpt>
      <trkpt lat="49.67375" lon="4.72444">
        <ele>220</ele>
        <time>2022-04-03T09:36:40.000Z</time>
      </trkpt>
      <trkpt lat="49.67377" lon="4.72452">
        <ele>220</ele>
        <time>2022-04-03T09:36:41.000Z</time>
      </trkpt>
      <trkpt lat="49.67381" lon="4.72461">
        <ele>220</ele>
        <time>2022-04-03T09:36:42.000Z</time>
      </trkpt>
      <trkpt lat="49.67384" lon="4.72469">
        <ele>220</ele>
        <time>2022-04-03T09:36:43.000Z</time>
      </trkpt>
      <trkpt lat="49.67387" lon="4.72477">
        <ele>220</ele>
        <time>2022-04-03T09:36:44.000Z</time>
      </trkpt>
      <trkpt lat="49.6739" lon="4.72485">
        <ele>220</ele>
        <time>2022-04-03T09:36:45.000Z</time>
      </trkpt>
      <trkpt lat="49.67393" lon="4.72493">
        <ele>220</ele>
        <time>2022-04-03T09:36:46.000Z</time>
      </trkpt>
      <trkpt lat="49.67396" lon="4.72501">
        <ele>220</ele>
        <time>2022-04-03T09:36:47.000Z</time>
      </trkpt>
      <trkpt lat="49.67399" lon="4.72508">
        <ele>220</ele>
        <time>2022-04-03T09:36:48.000Z</time>
      </trkpt>
      <trkpt lat="49.67402" lon="4.72515">
        <ele>220</ele>
        <time>2022-04-03T09:36:49.000Z</time>
      </trkpt>
      <trkpt lat="49.67406" lon="4.72522">
        <ele>220</ele>
        <time>2022-04-03T09:36:50.000Z</time>
      </trkpt>
      <trkpt lat="49.67409" lon="4.72529">
        <ele>220</ele>
        <time>2022-04-03T09:36:51.000Z</time>
      </trkpt>
      <trkpt lat="49.67414" lon="4.72535">
        <ele>220</ele>
        <time>2022-04-03T09:36:52.000Z</time>
      </trkpt>
      <trkpt lat="49.67418" lon="4.7254">
        <ele>220</ele>
        <time>2022-04-03T09:36:53.000Z</time>
      </trkpt>
      <trkpt lat="49.67422" lon="4.72546">
        <ele>220</ele>
        <time>2022-04-03T09:36:54.000Z</time>
      </trkpt>
      <trkpt lat="49.67427" lon="4.72551">
        <ele>220</ele>
        <time>2022-04-03T09:36:55.000Z</time>
      </trkpt>
      <trkpt lat="49.67431" lon="4.72556">
        <ele>220</ele>
        <time>2022-04-03T09:36:56.000Z</time>
      </trkpt>
      <trkpt lat="49.67436" lon="4.7256">
        <ele>220</ele>
        <time>2022-04-03T09:36:57.000Z</time>
      </trkpt>
      <trkpt lat="49.67441" lon="4.72564">
        <ele>219</ele>
        <time>2022-04-03T09:36:58.000Z</time>
      </trkpt>
      <trkpt lat="49.67446" lon="4.72568">
        <ele>219</ele>
        <time>2022-04-03T09:36:59.000Z</time>
      </trkpt>
      <trkpt lat="49.67451" lon="4.72572">
        <ele>220</ele>
        <time>2022-04-03T09:37:00.000Z</time>
      </trkpt>
      <trkpt lat="49.67455" lon="4.72575">
        <ele>220</ele>
        <time>2022-04-03T09:37:01.000Z</time>
      </trkpt>
      <trkpt lat="49.6746" lon="4.72579">
        <ele>220</ele>
        <time>2022-04-03T09:37:02.000Z</time>
      </trkpt>
      <trkpt lat="49.67465" lon="4.72581">
        <ele>220</ele>
        <time>2022-04-03T09:37:03.000Z</time>
      </trkpt>
      <trkpt lat="49.6747" lon="4.72583">
        <ele>220</ele>
        <time>2022-04-03T09:37:04.000Z</time>
      </trkpt>
      <trkpt lat="49.67474" lon="4.72585">
        <ele>220</ele>
        <time>2022-04-03T09:37:05.000Z</time>
      </trkpt>
      <trkpt lat="49.67479" lon="4.72587">
        <ele>220</ele>
        <time>2022-04-03T09:37:06.000Z</time>
      </trkpt>
      <trkpt lat="49.67483" lon="4.72588">
        <ele>220</ele>
        <time>2022-04-03T09:37:07.000Z</time>
      </trkpt>
      <trkpt lat="49.67487" lon="4.72589">
        <ele>220</ele>
        <time>2022-04-03T09:37:08.000Z</time>
      </trkpt>
      <trkpt lat="49.6749" lon="4.7259">
        <ele>220</ele>
        <time>2022-04-03T09:37:09.000Z</time>
      </trkpt>
      <trkpt lat="49.67494" lon="4.72591">
        <ele>220</ele>
        <time>2022-04-03T09:37:10.000Z</time>
      </trkpt>
      <trkpt lat="49.67498" lon="4.72592">
        <ele>221</ele>
        <time>2022-04-03T09:37:11.000Z</time>
      </trkpt>
      <trkpt lat="49.67501" lon="4.72593">
        <ele>221</ele>
        <time>2022-04-03T09:37:12.000Z</time>
      </trkpt>
      <trkpt lat="49.67505" lon="4.72594">
        <ele>221</ele>
        <time>2022-04-03T09:37:13.000Z</time>
      </trkpt>
      <trkpt lat="49.67508" lon="4.72595">
        <ele>221</ele>
        <time>2022-04-03T09:37:14.000Z</time>
      </trkpt>
      <trkpt lat="49.67512" lon="4.72596">
        <ele>221</ele>
        <time>2022-04-03T09:37:15.000Z</time>
      </trkpt>
      <trkpt lat="49.67516" lon="4.72597">
        <ele>221</ele>
        <time>2022-04-03T09:37:16.000Z</time>
      </trkpt>
      <trkpt lat="49.67519" lon="4.72598">
        <ele>221</ele>
        <time>2022-04-03T09:37:17.000Z</time>
      </trkpt>
      <trkpt lat="49.67521" lon="4.72599">
        <ele>221</ele>
        <time>2022-04-03T09:37:18.000Z</time>
      </trkpt>
      <trkpt lat="49.67524" lon="4.72601">
        <ele>221</ele>
        <time>2022-04-03T09:37:19.000Z</time>
      </trkpt>
      <trkpt lat="49.67527" lon="4.72602">
        <ele>222</ele>
        <time>2022-04-03T09:37:20.000Z</time>
      </trkpt>
      <trkpt lat="49.67531" lon="4.72602">
        <ele>222</ele>
        <time>2022-04-03T09:37:21.000Z</time>
      </trkpt>
      <trkpt lat="49.67535" lon="4.72603">
        <ele>222</ele>
        <time>2022-04-03T09:37:22.000Z</time>
      </trkpt>
      <trkpt lat="49.67538" lon="4.72603">
        <ele>222</ele>
        <time>2022-04-03T09:37:23.000Z</time>
      </trkpt>
      <trkpt lat="49.67543" lon="4.72603">
        <ele>222</ele>
        <time>2022-04-03T09:37:24.000Z</time>
      </trkpt>
      <trkpt lat="49.67546" lon="4.72603">
        <ele>222</ele>
        <time>2022-04-03T09:37:25.000Z</time>
      </trkpt>
      <trkpt lat="49.6755" lon="4.72603">
        <ele>222</ele>
        <time>2022-04-03T09:37:26.000Z</time>
      </trkpt>
      <trkpt lat="49.67554" lon="4.72603">
        <ele>222</ele>
        <time>2022-04-03T09:37:27.000Z</time>
      </trkpt>
      <trkpt lat="49.67558" lon="4.72603">
        <ele>223</ele>
        <time>2022-04-03T09:37:28.000Z</time>
      </trkpt>
      <trkpt lat="49.67561" lon="4.72602">
        <ele>223</ele>
        <time>2022-04-03T09:37:29.000Z</time>
      </trkpt>
      <trkpt lat="49.67565" lon="4.72602">
        <ele>223</ele>
        <time>2022-04-03T09:37:30.000Z</time>
      </trkpt>
      <trkpt lat="49.67569" lon="4.72601">
        <ele>223</ele>
        <time>2022-04-03T09:37:31.000Z</time>
      </trkpt>
      <trkpt lat="49.67573" lon="4.726">
        <ele>224</ele>
        <time>2022-04-03T09:37:32.000Z</time>
      </trkpt>
      <trkpt lat="49.67577" lon="4.72598">
        <ele>224</ele>
        <time>2022-04-03T09:37:33.000Z</time>
      </trkpt>
      <trkpt lat="49.67581" lon="4.72597">
        <ele>224</ele>
        <time>2022-04-03T09:37:34.000Z</time>
      </trkpt>
      <trkpt lat="49.67586" lon="4.72596">
        <ele>224</ele>
        <time>2022-04-03T09:37:35.000Z</time>
      </trkpt>
      <trkpt lat="49.67591" lon="4.72594">
        <ele>224</ele>
        <time>2022-04-03T09:37:36.000Z</time>
      </trkpt>
      <trkpt lat="49.67595" lon="4.72593">
        <ele>224</ele>
        <time>2022-04-03T09:37:37.000Z</time>
      </trkpt>
      <trkpt lat="49.67599" lon="4.72591">
        <ele>224</ele>
        <time>2022-04-03T09:37:38.000Z</time>
      </trkpt>
      <trkpt lat="49.67603" lon="4.7259">
        <ele>225</ele>
        <time>2022-04-03T09:37:39.000Z</time>
      </trkpt>
      <trkpt lat="49.67606" lon="4.72589">
        <ele>225</ele>
        <time>2022-04-03T09:37:40.000Z</time>
      </trkpt>
      <trkpt lat="49.6761" lon="4.72588">
        <ele>225</ele>
        <time>2022-04-03T09:37:41.000Z</time>
      </trkpt>
      <trkpt lat="49.67614" lon="4.72586">
        <ele>225</ele>
        <time>2022-04-03T09:37:42.000Z</time>
      </trkpt>
      <trkpt lat="49.67618" lon="4.72585">
        <ele>225</ele>
        <time>2022-04-03T09:37:43.000Z</time>
      </trkpt>
      <trkpt lat="49.67622" lon="4.72583">
        <ele>226</ele>
        <time>2022-04-03T09:37:44.000Z</time>
      </trkpt>
      <trkpt lat="49.67625" lon="4.72581">
        <ele>226</ele>
        <time>2022-04-03T09:37:45.000Z</time>
      </trkpt>
      <trkpt lat="49.67629" lon="4.72579">
        <ele>226</ele>
        <time>2022-04-03T09:37:46.000Z</time>
      </trkpt>
      <trkpt lat="49.67633" lon="4.72576">
        <ele>226</ele>
        <time>2022-04-03T09:37:47.000Z</time>
      </trkpt>
      <trkpt lat="49.67637" lon="4.72573">
        <ele>226</ele>
        <time>2022-04-03T09:37:48.000Z</time>
      </trkpt>
      <trkpt lat="49.67641" lon="4.72571">
        <ele>226</ele>
        <time>2022-04-03T09:37:49.000Z</time>
      </trkpt>
      <trkpt lat="49.67645" lon="4.72569">
        <ele>226</ele>
        <time>2022-04-03T09:37:50.000Z</time>
      </trkpt>
      <trkpt lat="49.67648" lon="4.72566">
        <ele>226</ele>
        <time>2022-04-03T09:37:51.000Z</time>
      </trkpt>
      <trkpt lat="49.67652" lon="4.72563">
        <ele>226</ele>
        <time>2022-04-03T09:37:52.000Z</time>
      </trkpt>
      <trkpt lat="49.67655" lon="4.7256">
        <ele>227</ele>
        <time>2022-04-03T09:37:53.000Z</time>
      </trkpt>
      <trkpt lat="49.67659" lon="4.72558">
        <ele>227</ele>
        <time>2022-04-03T09:37:54.000Z</time>
      </trkpt>
      <trkpt lat="49.67662" lon="4.72556">
        <ele>227</ele>
        <time>2022-04-03T09:37:55.000Z</time>
      </trkpt>
      <trkpt lat="49.67666" lon="4.72553">
        <ele>227</ele>
        <time>2022-04-03T09:37:56.000Z</time>
      </trkpt>
      <trkpt lat="49.67668" lon="4.72551">
        <ele>227</ele>
        <time>2022-04-03T09:37:57.000Z</time>
      </trkpt>
      <trkpt lat="49.67671" lon="4.72549">
        <ele>227</ele>
        <time>2022-04-03T09:37:58.000Z</time>
      </trkpt>
      <trkpt lat="49.67674" lon="4.72546">
        <ele>227</ele>
        <time>2022-04-03T09:37:59.000Z</time>
      </trkpt>
      <trkpt lat="49.67678" lon="4.72544">
        <ele>227</ele>
        <time>2022-04-03T09:38:00.000Z</time>
      </trkpt>
      <trkpt lat="49.67681" lon="4.72541">
        <ele>227</ele>
        <time>2022-04-03T09:38:01.000Z</time>
      </trkpt>
      <trkpt lat="49.67685" lon="4.72539">
        <ele>227</ele>
        <time>2022-04-03T09:38:02.000Z</time>
      </trkpt>
      <trkpt lat="49.67687" lon="4.72536">
        <ele>227</ele>
        <time>2022-04-03T09:38:03.000Z</time>
      </trkpt>
      <trkpt lat="49.6769" lon="4.72534">
        <ele>227</ele>
        <time>2022-04-03T09:38:04.000Z</time>
      </trkpt>
      <trkpt lat="49.67692" lon="4.72532">
        <ele>227</ele>
        <time>2022-04-03T09:38:05.000Z</time>
      </trkpt>
      <trkpt lat="49.67694" lon="4.72529">
        <ele>227</ele>
        <time>2022-04-03T09:38:06.000Z</time>
      </trkpt>
      <trkpt lat="49.67697" lon="4.72526">
        <ele>227</ele>
        <time>2022-04-03T09:38:07.000Z</time>
      </trkpt>
      <trkpt lat="49.67701" lon="4.72524">
        <ele>228</ele>
        <time>2022-04-03T09:38:08.000Z</time>
      </trkpt>
      <trkpt lat="49.67704" lon="4.72522">
        <ele>228</ele>
        <time>2022-04-03T09:38:09.000Z</time>
      </trkpt>
      <trkpt lat="49.67707" lon="4.72518">
        <ele>228</ele>
        <time>2022-04-03T09:38:10.000Z</time>
      </trkpt>
      <trkpt lat="49.6771" lon="4.72516">
        <ele>228</ele>
        <time>2022-04-03T09:38:11.000Z</time>
      </trkpt>
      <trkpt lat="49.67712" lon="4.72514">
        <ele>228</ele>
        <time>2022-04-03T09:38:12.000Z</time>
      </trkpt>
      <trkpt lat="49.67715" lon="4.72511">
        <ele>228</ele>
        <time>2022-04-03T09:38:13.000Z</time>
      </trkpt>
      <trkpt lat="49.67718" lon="4.72508">
        <ele>229</ele>
        <time>2022-04-03T09:38:14.000Z</time>
      </trkpt>
      <trkpt lat="49.67721" lon="4.72504">
        <ele>229</ele>
        <time>2022-04-03T09:38:15.000Z</time>
      </trkpt>
      <trkpt lat="49.67724" lon="4.725">
        <ele>229</ele>
        <time>2022-04-03T09:38:16.000Z</time>
      </trkpt>
      <trkpt lat="49.67727" lon="4.72496">
        <ele>229</ele>
        <time>2022-04-03T09:38:17.000Z</time>
      </trkpt>
      <trkpt lat="49.6773" lon="4.72493">
        <ele>229</ele>
        <time>2022-04-03T09:38:18.000Z</time>
      </trkpt>
      <trkpt lat="49.67733" lon="4.72489">
        <ele>229</ele>
        <time>2022-04-03T09:38:19.000Z</time>
      </trkpt>
      <trkpt lat="49.67737" lon="4.72485">
        <ele>229</ele>
        <time>2022-04-03T09:38:20.000Z</time>
      </trkpt>
      <trkpt lat="49.6774" lon="4.72481">
        <ele>229</ele>
        <time>2022-04-03T09:38:21.000Z</time>
      </trkpt>
      <trkpt lat="49.67744" lon="4.72477">
        <ele>230</ele>
        <time>2022-04-03T09:38:22.000Z</time>
      </trkpt>
      <trkpt lat="49.67747" lon="4.72472">
        <ele>230</ele>
        <time>2022-04-03T09:38:23.000Z</time>
      </trkpt>
      <trkpt lat="49.67751" lon="4.72468">
        <ele>230</ele>
        <time>2022-04-03T09:38:24.000Z</time>
      </trkpt>
      <trkpt lat="49.67755" lon="4.72463">
        <ele>230</ele>
        <time>2022-04-03T09:38:25.000Z</time>
      </trkpt>
      <trkpt lat="49.67759" lon="4.72458">
        <ele>230</ele>
        <time>2022-04-03T09:38:26.000Z</time>
      </trkpt>
      <trkpt lat="49.67763" lon="4.72453">
        <ele>230</ele>
        <time>2022-04-03T09:38:27.000Z</time>
      </trkpt>
      <trkpt lat="49.67767" lon="4.72448">
        <ele>230</ele>
        <time>2022-04-03T09:38:28.000Z</time>
      </trkpt>
      <trkpt lat="49.67771" lon="4.72444">
        <ele>231</ele>
        <time>2022-04-03T09:38:29.000Z</time>
      </trkpt>
      <trkpt lat="49.67775" lon="4.72439">
        <ele>231</ele>
        <time>2022-04-03T09:38:30.000Z</time>
      </trkpt>
      <trkpt lat="49.67779" lon="4.72434">
        <ele>231</ele>
        <time>2022-04-03T09:38:31.000Z</time>
      </trkpt>
      <trkpt lat="49.67782" lon="4.72429">
        <ele>231</ele>
        <time>2022-04-03T09:38:32.000Z</time>
      </trkpt>
      <trkpt lat="49.67786" lon="4.72426">
        <ele>231</ele>
        <time>2022-04-03T09:38:33.000Z</time>
      </trkpt>
      <trkpt lat="49.67789" lon="4.72422">
        <ele>231</ele>
        <time>2022-04-03T09:38:34.000Z</time>
      </trkpt>
      <trkpt lat="49.67793" lon="4.72418">
        <ele>231</ele>
        <time>2022-04-03T09:38:35.000Z</time>
      </trkpt>
      <trkpt lat="49.67796" lon="4.72414">
        <ele>232</ele>
        <time>2022-04-03T09:38:36.000Z</time>
      </trkpt>
      <trkpt lat="49.678" lon="4.72411">
        <ele>232</ele>
        <time>2022-04-03T09:38:37.000Z</time>
      </trkpt>
      <trkpt lat="49.67803" lon="4.72407">
        <ele>232</ele>
        <time>2022-04-03T09:38:38.000Z</time>
      </trkpt>
      <trkpt lat="49.67807" lon="4.72404">
        <ele>232</ele>
        <time>2022-04-03T09:38:39.000Z</time>
      </trkpt>
      <trkpt lat="49.67811" lon="4.72399">
        <ele>232</ele>
        <time>2022-04-03T09:38:40.000Z</time>
      </trkpt>
      <trkpt lat="49.67816" lon="4.72395">
        <ele>232</ele>
        <time>2022-04-03T09:38:41.000Z</time>
      </trkpt>
      <trkpt lat="49.6782" lon="4.72391">
        <ele>232</ele>
        <time>2022-04-03T09:38:42.000Z</time>
      </trkpt>
      <trkpt lat="49.67824" lon="4.72387">
        <ele>232</ele>
        <time>2022-04-03T09:38:43.000Z</time>
      </trkpt>
      <trkpt lat="49.67828" lon="4.72382">
        <ele>232</ele>
        <time>2022-04-03T09:38:44.000Z</time>
      </trkpt>
      <trkpt lat="49.67831" lon="4.72378">
        <ele>232</ele>
        <time>2022-04-03T09:38:45.000Z</time>
      </trkpt>
      <trkpt lat="49.67834" lon="4.72374">
        <ele>232</ele>
        <time>2022-04-03T09:38:46.000Z</time>
      </trkpt>
      <trkpt lat="49.67838" lon="4.72371">
        <ele>232</ele>
        <time>2022-04-03T09:38:47.000Z</time>
      </trkpt>
      <trkpt lat="49.67842" lon="4.72368">
        <ele>232</ele>
        <time>2022-04-03T09:38:48.000Z</time>
      </trkpt>
      <trkpt lat="49.67847" lon="4.72365">
        <ele>232</ele>
        <time>2022-04-03T09:38:49.000Z</time>
      </trkpt>
      <trkpt lat="49.67851" lon="4.72362">
        <ele>233</ele>
        <time>2022-04-03T09:38:50.000Z</time>
      </trkpt>
      <trkpt lat="49.67854" lon="4.72358">
        <ele>233</ele>
        <time>2022-04-03T09:38:51.000Z</time>
      </trkpt>
      <trkpt lat="49.67858" lon="4.72356">
        <ele>233</ele>
        <time>2022-04-03T09:38:52.000Z</time>
      </trkpt>
      <trkpt lat="49.6786" lon="4.72353">
        <ele>233</ele>
        <time>2022-04-03T09:38:53.000Z</time>
      </trkpt>
      <trkpt lat="49.67863" lon="4.7235">
        <ele>233</ele>
        <time>2022-04-03T09:38:54.000Z</time>
      </trkpt>
      <trkpt lat="49.67864" lon="4.72347">
        <ele>233</ele>
        <time>2022-04-03T09:38:55.000Z</time>
      </trkpt>
      <trkpt lat="49.67866" lon="4.72343">
        <ele>233</ele>
        <time>2022-04-03T09:38:56.000Z</time>
      </trkpt>
      <trkpt lat="49.67868" lon="4.72338">
        <ele>233</ele>
        <time>2022-04-03T09:38:57.000Z</time>
      </trkpt>
      <trkpt lat="49.6787" lon="4.72335">
        <ele>233</ele>
        <time>2022-04-03T09:38:58.000Z</time>
      </trkpt>
      <trkpt lat="49.67872" lon="4.72332">
        <ele>233</ele>
        <time>2022-04-03T09:38:59.000Z</time>
      </trkpt>
      <trkpt lat="49.67873" lon="4.72328">
        <ele>233</ele>
        <time>2022-04-03T09:39:00.000Z</time>
      </trkpt>
      <trkpt lat="49.67874" lon="4.72326">
        <ele>233</ele>
        <time>2022-04-03T09:39:01.000Z</time>
      </trkpt>
      <trkpt lat="49.67875" lon="4.72324">
        <ele>233</ele>
        <time>2022-04-03T09:39:02.000Z</time>
      </trkpt>
      <trkpt lat="49.67877" lon="4.7232">
        <ele>232</ele>
        <time>2022-04-03T09:39:03.000Z</time>
      </trkpt>
      <trkpt lat="49.67878" lon="4.72316">
        <ele>232</ele>
        <time>2022-04-03T09:39:04.000Z</time>
      </trkpt>
      <trkpt lat="49.67879" lon="4.72312">
        <ele>232</ele>
        <time>2022-04-03T09:39:05.000Z</time>
      </trkpt>
      <trkpt lat="49.6788" lon="4.72307">
        <ele>232</ele>
        <time>2022-04-03T09:39:06.000Z</time>
      </trkpt>
      <trkpt lat="49.67883" lon="4.72303">
        <ele>232</ele>
        <time>2022-04-03T09:39:07.000Z</time>
      </trkpt>
      <trkpt lat="49.67885" lon="4.72298">
        <ele>232</ele>
        <time>2022-04-03T09:39:08.000Z</time>
      </trkpt>
      <trkpt lat="49.67887" lon="4.72293">
        <ele>232</ele>
        <time>2022-04-03T09:39:09.000Z</time>
      </trkpt>
      <trkpt lat="49.67888" lon="4.72288">
        <ele>232</ele>
        <time>2022-04-03T09:39:10.000Z</time>
      </trkpt>
      <trkpt lat="49.6789" lon="4.72284">
        <ele>232</ele>
        <time>2022-04-03T09:39:11.000Z</time>
      </trkpt>
      <trkpt lat="49.67892" lon="4.7228">
        <ele>231</ele>
        <time>2022-04-03T09:39:12.000Z</time>
      </trkpt>
      <trkpt lat="49.67893" lon="4.72276">
        <ele>231</ele>
        <time>2022-04-03T09:39:13.000Z</time>
      </trkpt>
      <trkpt lat="49.67894" lon="4.72272">
        <ele>231</ele>
        <time>2022-04-03T09:39:14.000Z</time>
      </trkpt>
      <trkpt lat="49.67895" lon="4.72269">
        <ele>231</ele>
        <time>2022-04-03T09:39:15.000Z</time>
      </trkpt>
      <trkpt lat="49.67895" lon="4.72266">
        <ele>231</ele>
        <time>2022-04-03T09:39:16.000Z</time>
      </trkpt>
      <trkpt lat="49.67895" lon="4.72263">
        <ele>230</ele>
        <time>2022-04-03T09:39:17.000Z</time>
      </trkpt>
      <trkpt lat="49.67895" lon="4.7226">
        <ele>230</ele>
        <time>2022-04-03T09:39:18.000Z</time>
      </trkpt>
      <trkpt lat="49.67896" lon="4.72257">
        <ele>230</ele>
        <time>2022-04-03T09:39:19.000Z</time>
      </trkpt>
      <trkpt lat="49.67896" lon="4.72253">
        <ele>230</ele>
        <time>2022-04-03T09:39:20.000Z</time>
      </trkpt>
      <trkpt lat="49.67896" lon="4.7225">
        <ele>230</ele>
        <time>2022-04-03T09:39:21.000Z</time>
      </trkpt>
      <trkpt lat="49.67896" lon="4.72248">
        <ele>230</ele>
        <time>2022-04-03T09:39:22.000Z</time>
      </trkpt>
      <trkpt lat="49.67895" lon="4.72245">
        <ele>230</ele>
        <time>2022-04-03T09:39:23.000Z</time>
      </trkpt>
      <trkpt lat="49.67894" lon="4.72243">
        <ele>230</ele>
        <time>2022-04-03T09:39:24.000Z</time>
      </trkpt>
      <trkpt lat="49.67894" lon="4.7224">
        <ele>230</ele>
        <time>2022-04-03T09:39:25.000Z</time>
      </trkpt>
      <trkpt lat="49.67893" lon="4.72237">
        <ele>230</ele>
        <time>2022-04-03T09:39:26.000Z</time>
      </trkpt>
      <trkpt lat="49.67891" lon="4.72235">
        <ele>230</ele>
        <time>2022-04-03T09:39:27.000Z</time>
      </trkpt>
      <trkpt lat="49.6789" lon="4.72233">
        <ele>231</ele>
        <time>2022-04-03T09:39:28.000Z</time>
      </trkpt>
      <trkpt lat="49.67889" lon="4.72231">
        <ele>231</ele>
        <time>2022-04-03T09:39:29.000Z</time>
      </trkpt>
      <trkpt lat="49.67888" lon="4.7223">
        <ele>231</ele>
        <time>2022-04-03T09:39:30.000Z</time>
      </trkpt>
      <trkpt lat="49.67888" lon="4.72228">
        <ele>231</ele>
        <time>2022-04-03T09:39:31.000Z</time>
      </trkpt>
      <trkpt lat="49.67887" lon="4.72226">
        <ele>231</ele>
        <time>2022-04-03T09:39:32.000Z</time>
      </trkpt>
      <trkpt lat="49.67886" lon="4.72224">
        <ele>232</ele>
        <time>2022-04-03T09:39:33.000Z</time>
      </trkpt>
      <trkpt lat="49.67885" lon="4.72222">
        <ele>232</ele>
        <time>2022-04-03T09:39:34.000Z</time>
      </trkpt>
      <trkpt lat="49.67885" lon="4.72221">
        <ele>232</ele>
        <time>2022-04-03T09:39:35.000Z</time>
      </trkpt>
      <trkpt lat="49.67885" lon="4.72218">
        <ele>233</ele>
        <time>2022-04-03T09:39:36.000Z</time>
      </trkpt>
      <trkpt lat="49.67884" lon="4.72217">
        <ele>233</ele>
        <time>2022-04-03T09:39:37.000Z</time>
      </trkpt>
      <trkpt lat="49.67884" lon="4.72215">
        <ele>233</ele>
        <time>2022-04-03T09:39:38.000Z</time>
      </trkpt>
      <trkpt lat="49.67883" lon="4.72214">
        <ele>234</ele>
        <time>2022-04-03T09:39:39.000Z</time>
      </trkpt>
      <trkpt lat="49.67882" lon="4.72213">
        <ele>234</ele>
        <time>2022-04-03T09:39:40.000Z</time>
      </trkpt>
      <trkpt lat="49.67882" lon="4.72211">
        <ele>234</ele>
        <time>2022-04-03T09:39:41.000Z</time>
      </trkpt>
      <trkpt lat="49.67881" lon="4.72209">
        <ele>234</ele>
        <time>2022-04-03T09:39:42.000Z</time>
      </trkpt>
      <trkpt lat="49.67881" lon="4.72208">
        <ele>235</ele>
        <time>2022-04-03T09:39:43.000Z</time>
      </trkpt>
      <trkpt lat="49.6788" lon="4.72206">
        <ele>235</ele>
        <time>2022-04-03T09:39:44.000Z</time>
      </trkpt>
      <trkpt lat="49.67879" lon="4.72204">
        <ele>235</ele>
        <time>2022-04-03T09:39:45.000Z</time>
      </trkpt>
      <trkpt lat="49.67879" lon="4.72202">
        <ele>236</ele>
        <time>2022-04-03T09:39:46.000Z</time>
      </trkpt>
      <trkpt lat="49.67879" lon="4.722">
        <ele>236</ele>
        <time>2022-04-03T09:39:47.000Z</time>
      </trkpt>
      <trkpt lat="49.67878" lon="4.72199">
        <ele>236</ele>
        <time>2022-04-03T09:39:48.000Z</time>
      </trkpt>
      <trkpt lat="49.67877" lon="4.72197">
        <ele>237</ele>
        <time>2022-04-03T09:39:49.000Z</time>
      </trkpt>
      <trkpt lat="49.67876" lon="4.72195">
        <ele>237</ele>
        <time>2022-04-03T09:39:50.000Z</time>
      </trkpt>
      <trkpt lat="49.67876" lon="4.72194">
        <ele>238</ele>
        <time>2022-04-03T09:39:51.000Z</time>
      </trkpt>
      <trkpt lat="49.67875" lon="4.72193">
        <ele>238</ele>
        <time>2022-04-03T09:39:52.000Z</time>
      </trkpt>
      <trkpt lat="49.67875" lon="4.72191">
        <ele>238</ele>
        <time>2022-04-03T09:39:53.000Z</time>
      </trkpt>
      <trkpt lat="49.67875" lon="4.72189">
        <ele>239</ele>
        <time>2022-04-03T09:39:54.000Z</time>
      </trkpt>
      <trkpt lat="49.67875" lon="4.72187">
        <ele>239</ele>
        <time>2022-04-03T09:39:55.000Z</time>
      </trkpt>
      <trkpt lat="49.67874" lon="4.72186">
        <ele>239</ele>
        <time>2022-04-03T09:39:56.000Z</time>
      </trkpt>
      <trkpt lat="49.67874" lon="4.72184">
        <ele>240</ele>
        <time>2022-04-03T09:39:57.000Z</time>
      </trkpt>
      <trkpt lat="49.67874" lon="4.72182">
        <ele>240</ele>
        <time>2022-04-03T09:39:58.000Z</time>
      </trkpt>
      <trkpt lat="49.67874" lon="4.7218">
        <ele>240</ele>
        <time>2022-04-03T09:39:59.000Z</time>
      </trkpt>
      <trkpt lat="49.67873" lon="4.72178">
        <ele>240</ele>
        <time>2022-04-03T09:40:00.000Z</time>
      </trkpt>
      <trkpt lat="49.67873" lon="4.72177">
        <ele>240</ele>
        <time>2022-04-03T09:40:01.000Z</time>
      </trkpt>
      <trkpt lat="49.67872" lon="4.72175">
        <ele>240</ele>
        <time>2022-04-03T09:40:02.000Z</time>
      </trkpt>
      <trkpt lat="49.67871" lon="4.72173">
        <ele>241</ele>
        <time>2022-04-03T09:40:03.000Z</time>
      </trkpt>
      <trkpt lat="49.67871" lon="4.72171">
        <ele>241</ele>
        <time>2022-04-03T09:40:04.000Z</time>
      </trkpt>
      <trkpt lat="49.6787" lon="4.72169">
        <ele>241</ele>
        <time>2022-04-03T09:40:05.000Z</time>
      </trkpt>
      <trkpt lat="49.67869" lon="4.72167">
        <ele>241</ele>
        <time>2022-04-03T09:40:06.000Z</time>
      </trkpt>
      <trkpt lat="49.67868" lon="4.72165">
        <ele>241</ele>
        <time>2022-04-03T09:40:07.000Z</time>
      </trkpt>
      <trkpt lat="49.67867" lon="4.72162">
        <ele>242</ele>
        <time>2022-04-03T09:40:08.000Z</time>
      </trkpt>
      <trkpt lat="49.67866" lon="4.7216">
        <ele>242</ele>
        <time>2022-04-03T09:40:09.000Z</time>
      </trkpt>
      <trkpt lat="49.67864" lon="4.72157">
        <ele>242</ele>
        <time>2022-04-03T09:40:10.000Z</time>
      </trkpt>
      <trkpt lat="49.67863" lon="4.72153">
        <ele>242</ele>
        <time>2022-04-03T09:40:11.000Z</time>
      </trkpt>
      <trkpt lat="49.67862" lon="4.72151">
        <ele>242</ele>
        <time>2022-04-03T09:40:12.000Z</time>
      </trkpt>
      <trkpt lat="49.67862" lon="4.7215">
        <ele>243</ele>
        <time>2022-04-03T09:40:13.000Z</time>
      </trkpt>
      <trkpt lat="49.67862" lon="4.72148">
        <ele>243</ele>
        <time>2022-04-03T09:40:14.000Z</time>
      </trkpt>
      <trkpt lat="49.6786" lon="4.72146">
        <ele>243</ele>
        <time>2022-04-03T09:40:15.000Z</time>
      </trkpt>
      <trkpt lat="49.67859" lon="4.72144">
        <ele>243</ele>
        <time>2022-04-03T09:40:16.000Z</time>
      </trkpt>
      <trkpt lat="49.67858" lon="4.72142">
        <ele>243</ele>
        <time>2022-04-03T09:40:17.000Z</time>
      </trkpt>
      <trkpt lat="49.67857" lon="4.72139">
        <ele>244</ele>
        <time>2022-04-03T09:40:18.000Z</time>
      </trkpt>
      <trkpt lat="49.67856" lon="4.72137">
        <ele>244</ele>
        <time>2022-04-03T09:40:19.000Z</time>
      </trkpt>
      <trkpt lat="49.67855" lon="4.72135">
        <ele>244</ele>
        <time>2022-04-03T09:40:20.000Z</time>
      </trkpt>
      <trkpt lat="49.67855" lon="4.72133">
        <ele>245</ele>
        <time>2022-04-03T09:40:21.000Z</time>
      </trkpt>
      <trkpt lat="49.67854" lon="4.72132">
        <ele>245</ele>
        <time>2022-04-03T09:40:22.000Z</time>
      </trkpt>
      <trkpt lat="49.67853" lon="4.72129">
        <ele>245</ele>
        <time>2022-04-03T09:40:23.000Z</time>
      </trkpt>
      <trkpt lat="49.67852" lon="4.72128">
        <ele>245</ele>
        <time>2022-04-03T09:40:24.000Z</time>
      </trkpt>
      <trkpt lat="49.67852" lon="4.72127">
        <ele>245</ele>
        <time>2022-04-03T09:40:25.000Z</time>
      </trkpt>
      <trkpt lat="49.67852" lon="4.72125">
        <ele>246</ele>
        <time>2022-04-03T09:40:26.000Z</time>
      </trkpt>
      <trkpt lat="49.67851" lon="4.72124">
        <ele>246</ele>
        <time>2022-04-03T09:40:27.000Z</time>
      </trkpt>
      <trkpt lat="49.67851" lon="4.72123">
        <ele>246</ele>
        <time>2022-04-03T09:40:28.000Z</time>
      </trkpt>
      <trkpt lat="49.6785" lon="4.72121">
        <ele>246</ele>
        <time>2022-04-03T09:40:29.000Z</time>
      </trkpt>
      <trkpt lat="49.6785" lon="4.72119">
        <ele>246</ele>
        <time>2022-04-03T09:40:30.000Z</time>
      </trkpt>
      <trkpt lat="49.67849" lon="4.72117">
        <ele>246</ele>
        <time>2022-04-03T09:40:31.000Z</time>
      </trkpt>
      <trkpt lat="49.67848" lon="4.72115">
        <ele>246</ele>
        <time>2022-04-03T09:40:32.000Z</time>
      </trkpt>
      <trkpt lat="49.67847" lon="4.72114">
        <ele>247</ele>
        <time>2022-04-03T09:40:33.000Z</time>
      </trkpt>
      <trkpt lat="49.67847" lon="4.72112">
        <ele>247</ele>
        <time>2022-04-03T09:40:34.000Z</time>
      </trkpt>
      <trkpt lat="49.67847" lon="4.72111">
        <ele>247</ele>
        <time>2022-04-03T09:40:35.000Z</time>
      </trkpt>
      <trkpt lat="49.67846" lon="4.72109">
        <ele>247</ele>
        <time>2022-04-03T09:40:36.000Z</time>
      </trkpt>
      <trkpt lat="49.67846" lon="4.72107">
        <ele>247</ele>
        <time>2022-04-03T09:40:37.000Z</time>
      </trkpt>
      <trkpt lat="49.67845" lon="4.72105">
        <ele>248</ele>
        <time>2022-04-03T09:40:38.000Z</time>
      </trkpt>
      <trkpt lat="49.67845" lon="4.72104">
        <ele>248</ele>
        <time>2022-04-03T09:40:39.000Z</time>
      </trkpt>
      <trkpt lat="49.67844" lon="4.72103">
        <ele>248</ele>
        <time>2022-04-03T09:40:40.000Z</time>
      </trkpt>
      <trkpt lat="49.67843" lon="4.721">
        <ele>248</ele>
        <time>2022-04-03T09:40:41.000Z</time>
      </trkpt>
      <trkpt lat="49.67843" lon="4.72098">
        <ele>248</ele>
        <time>2022-04-03T09:40:42.000Z</time>
      </trkpt>
      <trkpt lat="49.67842" lon="4.72096">
        <ele>249</ele>
        <time>2022-04-03T09:40:43.000Z</time>
      </trkpt>
      <trkpt lat="49.67841" lon="4.72094">
        <ele>249</ele>
        <time>2022-04-03T09:40:44.000Z</time>
      </trkpt>
      <trkpt lat="49.67841" lon="4.72092">
        <ele>249</ele>
        <time>2022-04-03T09:40:45.000Z</time>
      </trkpt>
      <trkpt lat="49.6784" lon="4.7209">
        <ele>250</ele>
        <time>2022-04-03T09:40:46.000Z</time>
      </trkpt>
      <trkpt lat="49.6784" lon="4.72088">
        <ele>250</ele>
        <time>2022-04-03T09:40:47.000Z</time>
      </trkpt>
      <trkpt lat="49.67839" lon="4.72085">
        <ele>250</ele>
        <time>2022-04-03T09:40:48.000Z</time>
      </trkpt>
      <trkpt lat="49.67839" lon="4.72084">
        <ele>251</ele>
        <time>2022-04-03T09:40:49.000Z</time>
      </trkpt>
      <trkpt lat="49.67838" lon="4.72082">
        <ele>251</ele>
        <time>2022-04-03T09:40:50.000Z</time>
      </trkpt>
      <trkpt lat="49.67837" lon="4.7208">
        <ele>251</ele>
        <time>2022-04-03T09:40:51.000Z</time>
      </trkpt>
      <trkpt lat="49.67836" lon="4.72077">
        <ele>252</ele>
        <time>2022-04-03T09:40:52.000Z</time>
      </trkpt>
      <trkpt lat="49.67836" lon="4.72075">
        <ele>252</ele>
        <time>2022-04-03T09:40:53.000Z</time>
      </trkpt>
      <trkpt lat="49.67835" lon="4.72073">
        <ele>252</ele>
        <time>2022-04-03T09:40:54.000Z</time>
      </trkpt>
      <trkpt lat="49.67834" lon="4.72071">
        <ele>252</ele>
        <time>2022-04-03T09:40:55.000Z</time>
      </trkpt>
      <trkpt lat="49.67833" lon="4.72068">
        <ele>253</ele>
        <time>2022-04-03T09:40:56.000Z</time>
      </trkpt>
      <trkpt lat="49.67832" lon="4.72066">
        <ele>253</ele>
        <time>2022-04-03T09:40:57.000Z</time>
      </trkpt>
      <trkpt lat="49.67831" lon="4.72063">
        <ele>253</ele>
        <time>2022-04-03T09:40:58.000Z</time>
      </trkpt>
      <trkpt lat="49.6783" lon="4.72061">
        <ele>253</ele>
        <time>2022-04-03T09:40:59.000Z</time>
      </trkpt>
      <trkpt lat="49.67829" lon="4.72058">
        <ele>254</ele>
        <time>2022-04-03T09:41:00.000Z</time>
      </trkpt>
      <trkpt lat="49.67829" lon="4.72055">
        <ele>254</ele>
        <time>2022-04-03T09:41:01.000Z</time>
      </trkpt>
      <trkpt lat="49.67827" lon="4.72052">
        <ele>254</ele>
        <time>2022-04-03T09:41:02.000Z</time>
      </trkpt>
      <trkpt lat="49.67827" lon="4.72048">
        <ele>254</ele>
        <time>2022-04-03T09:41:03.000Z</time>
      </trkpt>
      <trkpt lat="49.67826" lon="4.72046">
        <ele>254</ele>
        <time>2022-04-03T09:41:04.000Z</time>
      </trkpt>
      <trkpt lat="49.67826" lon="4.72043">
        <ele>254</ele>
        <time>2022-04-03T09:41:05.000Z</time>
      </trkpt>
      <trkpt lat="49.67826" lon="4.72041">
        <ele>254</ele>
        <time>2022-04-03T09:41:06.000Z</time>
      </trkpt>
      <trkpt lat="49.67825" lon="4.72038">
        <ele>254</ele>
        <time>2022-04-03T09:41:07.000Z</time>
      </trkpt>
      <trkpt lat="49.67824" lon="4.72034">
        <ele>254</ele>
        <time>2022-04-03T09:41:08.000Z</time>
      </trkpt>
      <trkpt lat="49.67823" lon="4.72032">
        <ele>255</ele>
        <time>2022-04-03T09:41:09.000Z</time>
      </trkpt>
      <trkpt lat="49.67822" lon="4.7203">
        <ele>255</ele>
        <time>2022-04-03T09:41:10.000Z</time>
      </trkpt>
      <trkpt lat="49.67822" lon="4.72028">
        <ele>255</ele>
        <time>2022-04-03T09:41:11.000Z</time>
      </trkpt>
      <trkpt lat="49.67821" lon="4.72025">
        <ele>256</ele>
        <time>2022-04-03T09:41:12.000Z</time>
      </trkpt>
      <trkpt lat="49.6782" lon="4.72022">
        <ele>256</ele>
        <time>2022-04-03T09:41:13.000Z</time>
      </trkpt>
      <trkpt lat="49.67819" lon="4.72017">
        <ele>256</ele>
        <time>2022-04-03T09:41:14.000Z</time>
      </trkpt>
      <trkpt lat="49.67818" lon="4.72013">
        <ele>256</ele>
        <time>2022-04-03T09:41:15.000Z</time>
      </trkpt>
      <trkpt lat="49.67817" lon="4.7201">
        <ele>257</ele>
        <time>2022-04-03T09:41:16.000Z</time>
      </trkpt>
      <trkpt lat="49.67816" lon="4.72006">
        <ele>257</ele>
        <time>2022-04-03T09:41:17.000Z</time>
      </trkpt>
      <trkpt lat="49.67815" lon="4.72001">
        <ele>257</ele>
        <time>2022-04-03T09:41:18.000Z</time>
      </trkpt>
      <trkpt lat="49.67814" lon="4.71996">
        <ele>257</ele>
        <time>2022-04-03T09:41:19.000Z</time>
      </trkpt>
      <trkpt lat="49.67812" lon="4.71991">
        <ele>257</ele>
        <time>2022-04-03T09:41:20.000Z</time>
      </trkpt>
      <trkpt lat="49.67811" lon="4.71987">
        <ele>257</ele>
        <time>2022-04-03T09:41:21.000Z</time>
      </trkpt>
      <trkpt lat="49.6781" lon="4.71983">
        <ele>257</ele>
        <time>2022-04-03T09:41:22.000Z</time>
      </trkpt>
      <trkpt lat="49.67809" lon="4.71979">
        <ele>257</ele>
        <time>2022-04-03T09:41:23.000Z</time>
      </trkpt>
      <trkpt lat="49.67808" lon="4.71975">
        <ele>258</ele>
        <time>2022-04-03T09:41:24.000Z</time>
      </trkpt>
      <trkpt lat="49.67805" lon="4.71971">
        <ele>258</ele>
        <time>2022-04-03T09:41:25.000Z</time>
      </trkpt>
      <trkpt lat="49.67804" lon="4.71966">
        <ele>258</ele>
        <time>2022-04-03T09:41:26.000Z</time>
      </trkpt>
      <trkpt lat="49.67802" lon="4.71962">
        <ele>258</ele>
        <time>2022-04-03T09:41:27.000Z</time>
      </trkpt>
      <trkpt lat="49.67801" lon="4.71958">
        <ele>258</ele>
        <time>2022-04-03T09:41:28.000Z</time>
      </trkpt>
      <trkpt lat="49.67801" lon="4.71955">
        <ele>258</ele>
        <time>2022-04-03T09:41:29.000Z</time>
      </trkpt>
      <trkpt lat="49.678" lon="4.7195">
        <ele>258</ele>
        <time>2022-04-03T09:41:30.000Z</time>
      </trkpt>
      <trkpt lat="49.67798" lon="4.71945">
        <ele>258</ele>
        <time>2022-04-03T09:41:31.000Z</time>
      </trkpt>
      <trkpt lat="49.67797" lon="4.71941">
        <ele>259</ele>
        <time>2022-04-03T09:41:32.000Z</time>
      </trkpt>
      <trkpt lat="49.67795" lon="4.71936">
        <ele>259</ele>
        <time>2022-04-03T09:41:33.000Z</time>
      </trkpt>
      <trkpt lat="49.67794" lon="4.71931">
        <ele>259</ele>
        <time>2022-04-03T09:41:34.000Z</time>
      </trkpt>
      <trkpt lat="49.67792" lon="4.71926">
        <ele>259</ele>
        <time>2022-04-03T09:41:35.000Z</time>
      </trkpt>
      <trkpt lat="49.67791" lon="4.71922">
        <ele>260</ele>
        <time>2022-04-03T09:41:36.000Z</time>
      </trkpt>
      <trkpt lat="49.67789" lon="4.71918">
        <ele>260</ele>
        <time>2022-04-03T09:41:37.000Z</time>
      </trkpt>
      <trkpt lat="49.67787" lon="4.71913">
        <ele>260</ele>
        <time>2022-04-03T09:41:38.000Z</time>
      </trkpt>
      <trkpt lat="49.67785" lon="4.71908">
        <ele>260</ele>
        <time>2022-04-03T09:41:39.000Z</time>
      </trkpt>
      <trkpt lat="49.67784" lon="4.71903">
        <ele>260</ele>
        <time>2022-04-03T09:41:40.000Z</time>
      </trkpt>
      <trkpt lat="49.67783" lon="4.71899">
        <ele>260</ele>
        <time>2022-04-03T09:41:41.000Z</time>
      </trkpt>
      <trkpt lat="49.67781" lon="4.71894">
        <ele>260</ele>
        <time>2022-04-03T09:41:42.000Z</time>
      </trkpt>
      <trkpt lat="49.6778" lon="4.7189">
        <ele>261</ele>
        <time>2022-04-03T09:41:43.000Z</time>
      </trkpt>
      <trkpt lat="49.67778" lon="4.71885">
        <ele>261</ele>
        <time>2022-04-03T09:41:44.000Z</time>
      </trkpt>
      <trkpt lat="49.67777" lon="4.71881">
        <ele>261</ele>
        <time>2022-04-03T09:41:45.000Z</time>
      </trkpt>
      <trkpt lat="49.67776" lon="4.71877">
        <ele>261</ele>
        <time>2022-04-03T09:41:46.000Z</time>
      </trkpt>
      <trkpt lat="49.67775" lon="4.71873">
        <ele>262</ele>
        <time>2022-04-03T09:41:47.000Z</time>
      </trkpt>
      <trkpt lat="49.67773" lon="4.71868">
        <ele>262</ele>
        <time>2022-04-03T09:41:48.000Z</time>
      </trkpt>
      <trkpt lat="49.67772" lon="4.71865">
        <ele>262</ele>
        <time>2022-04-03T09:41:49.000Z</time>
      </trkpt>
      <trkpt lat="49.67771" lon="4.71861">
        <ele>262</ele>
        <time>2022-04-03T09:41:50.000Z</time>
      </trkpt>
      <trkpt lat="49.6777" lon="4.71858">
        <ele>263</ele>
        <time>2022-04-03T09:41:51.000Z</time>
      </trkpt>
      <trkpt lat="49.67769" lon="4.71855">
        <ele>263</ele>
        <time>2022-04-03T09:41:52.000Z</time>
      </trkpt>
      <trkpt lat="49.67768" lon="4.71852">
        <ele>263</ele>
        <time>2022-04-03T09:41:53.000Z</time>
      </trkpt>
      <trkpt lat="49.67767" lon="4.71849">
        <ele>263</ele>
        <time>2022-04-03T09:41:54.000Z</time>
      </trkpt>
      <trkpt lat="49.67766" lon="4.71845">
        <ele>264</ele>
        <time>2022-04-03T09:41:55.000Z</time>
      </trkpt>
      <trkpt lat="49.67764" lon="4.71842">
        <ele>264</ele>
        <time>2022-04-03T09:41:56.000Z</time>
      </trkpt>
      <trkpt lat="49.67763" lon="4.71838">
        <ele>264</ele>
        <time>2022-04-03T09:41:57.000Z</time>
      </trkpt>
      <trkpt lat="49.67762" lon="4.71835">
        <ele>264</ele>
        <time>2022-04-03T09:41:58.000Z</time>
      </trkpt>
      <trkpt lat="49.67761" lon="4.71832">
        <ele>264</ele>
        <time>2022-04-03T09:41:59.000Z</time>
      </trkpt>
      <trkpt lat="49.67759" lon="4.71828">
        <ele>265</ele>
        <time>2022-04-03T09:42:00.000Z</time>
      </trkpt>
      <trkpt lat="49.67759" lon="4.71825">
        <ele>265</ele>
        <time>2022-04-03T09:42:01.000Z</time>
      </trkpt>
      <trkpt lat="49.67758" lon="4.71822">
        <ele>265</ele>
        <time>2022-04-03T09:42:02.000Z</time>
      </trkpt>
      <trkpt lat="49.67758" lon="4.71819">
        <ele>265</ele>
        <time>2022-04-03T09:42:03.000Z</time>
      </trkpt>
      <trkpt lat="49.67757" lon="4.71817">
        <ele>266</ele>
        <time>2022-04-03T09:42:04.000Z</time>
      </trkpt>
      <trkpt lat="49.67756" lon="4.71814">
        <ele>266</ele>
        <time>2022-04-03T09:42:05.000Z</time>
      </trkpt>
      <trkpt lat="49.67755" lon="4.71811">
        <ele>266</ele>
        <time>2022-04-03T09:42:06.000Z</time>
      </trkpt>
      <trkpt lat="49.67754" lon="4.71807">
        <ele>267</ele>
        <time>2022-04-03T09:42:07.000Z</time>
      </trkpt>
      <trkpt lat="49.67753" lon="4.71804">
        <ele>267</ele>
        <time>2022-04-03T09:42:08.000Z</time>
      </trkpt>
      <trkpt lat="49.67751" lon="4.718">
        <ele>267</ele>
        <time>2022-04-03T09:42:09.000Z</time>
      </trkpt>
      <trkpt lat="49.6775" lon="4.71797">
        <ele>267</ele>
        <time>2022-04-03T09:42:10.000Z</time>
      </trkpt>
      <trkpt lat="49.67749" lon="4.71793">
        <ele>267</ele>
        <time>2022-04-03T09:42:11.000Z</time>
      </trkpt>
      <trkpt lat="49.67748" lon="4.71789">
        <ele>267</ele>
        <time>2022-04-03T09:42:12.000Z</time>
      </trkpt>
      <trkpt lat="49.67746" lon="4.71786">
        <ele>268</ele>
        <time>2022-04-03T09:42:13.000Z</time>
      </trkpt>
      <trkpt lat="49.67745" lon="4.71783">
        <ele>268</ele>
        <time>2022-04-03T09:42:14.000Z</time>
      </trkpt>
      <trkpt lat="49.67744" lon="4.7178">
        <ele>268</ele>
        <time>2022-04-03T09:42:15.000Z</time>
      </trkpt>
      <trkpt lat="49.67743" lon="4.71777">
        <ele>268</ele>
        <time>2022-04-03T09:42:16.000Z</time>
      </trkpt>
      <trkpt lat="49.67742" lon="4.71774">
        <ele>268</ele>
        <time>2022-04-03T09:42:17.000Z</time>
      </trkpt>
      <trkpt lat="49.67742" lon="4.7177">
        <ele>268</ele>
        <time>2022-04-03T09:42:18.000Z</time>
      </trkpt>
      <trkpt lat="49.67741" lon="4.71766">
        <ele>269</ele>
        <time>2022-04-03T09:42:19.000Z</time>
      </trkpt>
      <trkpt lat="49.6774" lon="4.71763">
        <ele>269</ele>
        <time>2022-04-03T09:42:20.000Z</time>
      </trkpt>
      <trkpt lat="49.67739" lon="4.71759">
        <ele>269</ele>
        <time>2022-04-03T09:42:21.000Z</time>
      </trkpt>
      <trkpt lat="49.67738" lon="4.71756">
        <ele>269</ele>
        <time>2022-04-03T09:42:22.000Z</time>
      </trkpt>
      <trkpt lat="49.67737" lon="4.71754">
        <ele>269</ele>
        <time>2022-04-03T09:42:23.000Z</time>
      </trkpt>
      <trkpt lat="49.67737" lon="4.71752">
        <ele>269</ele>
        <time>2022-04-03T09:42:24.000Z</time>
      </trkpt>
      <trkpt lat="49.67736" lon="4.71749">
        <ele>269</ele>
        <time>2022-04-03T09:42:25.000Z</time>
      </trkpt>
      <trkpt lat="49.67735" lon="4.71746">
        <ele>269</ele>
        <time>2022-04-03T09:42:26.000Z</time>
      </trkpt>
      <trkpt lat="49.67734" lon="4.71743">
        <ele>269</ele>
        <time>2022-04-03T09:42:27.000Z</time>
      </trkpt>
      <trkpt lat="49.67732" lon="4.71741">
        <ele>270</ele>
        <time>2022-04-03T09:42:28.000Z</time>
      </trkpt>
      <trkpt lat="49.67731" lon="4.71738">
        <ele>270</ele>
        <time>2022-04-03T09:42:29.000Z</time>
      </trkpt>
      <trkpt lat="49.67729" lon="4.71736">
        <ele>271</ele>
        <time>2022-04-03T09:42:30.000Z</time>
      </trkpt>
      <trkpt lat="49.67728" lon="4.71733">
        <ele>271</ele>
        <time>2022-04-03T09:42:31.000Z</time>
      </trkpt>
      <trkpt lat="49.67727" lon="4.7173">
        <ele>271</ele>
        <time>2022-04-03T09:42:32.000Z</time>
      </trkpt>
      <trkpt lat="49.67725" lon="4.71726">
        <ele>271</ele>
        <time>2022-04-03T09:42:33.000Z</time>
      </trkpt>
      <trkpt lat="49.67724" lon="4.71723">
        <ele>272</ele>
        <time>2022-04-03T09:42:34.000Z</time>
      </trkpt>
      <trkpt lat="49.67723" lon="4.7172">
        <ele>272</ele>
        <time>2022-04-03T09:42:35.000Z</time>
      </trkpt>
      <trkpt lat="49.67723" lon="4.71717">
        <ele>272</ele>
        <time>2022-04-03T09:42:36.000Z</time>
      </trkpt>
      <trkpt lat="49.67722" lon="4.71715">
        <ele>272</ele>
        <time>2022-04-03T09:42:37.000Z</time>
      </trkpt>
      <trkpt lat="49.67722" lon="4.71713">
        <ele>272</ele>
        <time>2022-04-03T09:42:38.000Z</time>
      </trkpt>
      <trkpt lat="49.67721" lon="4.71711">
        <ele>273</ele>
        <time>2022-04-03T09:42:39.000Z</time>
      </trkpt>
      <trkpt lat="49.6772" lon="4.71709">
        <ele>273</ele>
        <time>2022-04-03T09:42:40.000Z</time>
      </trkpt>
      <trkpt lat="49.67719" lon="4.71706">
        <ele>273</ele>
        <time>2022-04-03T09:42:41.000Z</time>
      </trkpt>
      <trkpt lat="49.67718" lon="4.71703">
        <ele>273</ele>
        <time>2022-04-03T09:42:42.000Z</time>
      </trkpt>
      <trkpt lat="49.67717" lon="4.717">
        <ele>273</ele>
        <time>2022-04-03T09:42:43.000Z</time>
      </trkpt>
      <trkpt lat="49.67715" lon="4.71697">
        <ele>273</ele>
        <time>2022-04-03T09:42:44.000Z</time>
      </trkpt>
      <trkpt lat="49.67714" lon="4.71695">
        <ele>273</ele>
        <time>2022-04-03T09:42:45.000Z</time>
      </trkpt>
      <trkpt lat="49.67713" lon="4.71692">
        <ele>274</ele>
        <time>2022-04-03T09:42:46.000Z</time>
      </trkpt>
      <trkpt lat="49.67712" lon="4.71688">
        <ele>274</ele>
        <time>2022-04-03T09:42:47.000Z</time>
      </trkpt>
      <trkpt lat="49.67711" lon="4.71684">
        <ele>274</ele>
        <time>2022-04-03T09:42:48.000Z</time>
      </trkpt>
      <trkpt lat="49.6771" lon="4.71681">
        <ele>274</ele>
        <time>2022-04-03T09:42:49.000Z</time>
      </trkpt>
      <trkpt lat="49.6771" lon="4.71678">
        <ele>274</ele>
        <time>2022-04-03T09:42:50.000Z</time>
      </trkpt>
      <trkpt lat="49.67709" lon="4.71674">
        <ele>275</ele>
        <time>2022-04-03T09:42:51.000Z</time>
      </trkpt>
      <trkpt lat="49.67708" lon="4.71671">
        <ele>275</ele>
        <time>2022-04-03T09:42:52.000Z</time>
      </trkpt>
      <trkpt lat="49.67707" lon="4.71667">
        <ele>275</ele>
        <time>2022-04-03T09:42:53.000Z</time>
      </trkpt>
      <trkpt lat="49.67706" lon="4.71664">
        <ele>276</ele>
        <time>2022-04-03T09:42:54.000Z</time>
      </trkpt>
      <trkpt lat="49.67705" lon="4.7166">
        <ele>276</ele>
        <time>2022-04-03T09:42:55.000Z</time>
      </trkpt>
      <trkpt lat="49.67705" lon="4.71658">
        <ele>276</ele>
        <time>2022-04-03T09:42:56.000Z</time>
      </trkpt>
      <trkpt lat="49.67704" lon="4.71656">
        <ele>277</ele>
        <time>2022-04-03T09:42:57.000Z</time>
      </trkpt>
      <trkpt lat="49.67704" lon="4.71654">
        <ele>277</ele>
        <time>2022-04-03T09:42:58.000Z</time>
      </trkpt>
      <trkpt lat="49.67703" lon="4.71652">
        <ele>277</ele>
        <time>2022-04-03T09:42:59.000Z</time>
      </trkpt>
      <trkpt lat="49.67702" lon="4.7165">
        <ele>278</ele>
        <time>2022-04-03T09:43:00.000Z</time>
      </trkpt>
      <trkpt lat="49.67702" lon="4.71647">
        <ele>278</ele>
        <time>2022-04-03T09:43:01.000Z</time>
      </trkpt>
      <trkpt lat="49.67701" lon="4.71646">
        <ele>278</ele>
        <time>2022-04-03T09:43:02.000Z</time>
      </trkpt>
      <trkpt lat="49.677" lon="4.71643">
        <ele>279</ele>
        <time>2022-04-03T09:43:03.000Z</time>
      </trkpt>
      <trkpt lat="49.677" lon="4.71641">
        <ele>279</ele>
        <time>2022-04-03T09:43:04.000Z</time>
      </trkpt>
      <trkpt lat="49.67699" lon="4.7164">
        <ele>279</ele>
        <time>2022-04-03T09:43:05.000Z</time>
      </trkpt>
      <trkpt lat="49.67698" lon="4.71637">
        <ele>279</ele>
        <time>2022-04-03T09:43:06.000Z</time>
      </trkpt>
      <trkpt lat="49.67698" lon="4.71635">
        <ele>280</ele>
        <time>2022-04-03T09:43:07.000Z</time>
      </trkpt>
      <trkpt lat="49.67698" lon="4.71634">
        <ele>280</ele>
        <time>2022-04-03T09:43:08.000Z</time>
      </trkpt>
      <trkpt lat="49.67697" lon="4.71633">
        <ele>280</ele>
        <time>2022-04-03T09:43:09.000Z</time>
      </trkpt>
      <trkpt lat="49.67696" lon="4.71631">
        <ele>280</ele>
        <time>2022-04-03T09:43:10.000Z</time>
      </trkpt>
      <trkpt lat="49.67695" lon="4.71629">
        <ele>280</ele>
        <time>2022-04-03T09:43:11.000Z</time>
      </trkpt>
      <trkpt lat="49.67695" lon="4.71627">
        <ele>280</ele>
        <time>2022-04-03T09:43:12.000Z</time>
      </trkpt>
      <trkpt lat="49.67694" lon="4.71625">
        <ele>280</ele>
        <time>2022-04-03T09:43:13.000Z</time>
      </trkpt>
      <trkpt lat="49.67693" lon="4.71623">
        <ele>281</ele>
        <time>2022-04-03T09:43:14.000Z</time>
      </trkpt>
      <trkpt lat="49.67692" lon="4.7162">
        <ele>281</ele>
        <time>2022-04-03T09:43:15.000Z</time>
      </trkpt>
      <trkpt lat="49.67692" lon="4.71618">
        <ele>281</ele>
        <time>2022-04-03T09:43:16.000Z</time>
      </trkpt>
      <trkpt lat="49.67692" lon="4.71616">
        <ele>281</ele>
        <time>2022-04-03T09:43:17.000Z</time>
      </trkpt>
      <trkpt lat="49.67691" lon="4.71614">
        <ele>281</ele>
        <time>2022-04-03T09:43:18.000Z</time>
      </trkpt>
      <trkpt lat="49.67689" lon="4.71611">
        <ele>281</ele>
        <time>2022-04-03T09:43:19.000Z</time>
      </trkpt>
      <trkpt lat="49.67688" lon="4.71608">
        <ele>281</ele>
        <time>2022-04-03T09:43:20.000Z</time>
      </trkpt>
      <trkpt lat="49.67687" lon="4.71605">
        <ele>281</ele>
        <time>2022-04-03T09:43:21.000Z</time>
      </trkpt>
      <trkpt lat="49.67686" lon="4.71603">
        <ele>281</ele>
        <time>2022-04-03T09:43:22.000Z</time>
      </trkpt>
      <trkpt lat="49.67685" lon="4.71601">
        <ele>281</ele>
        <time>2022-04-03T09:43:23.000Z</time>
      </trkpt>
      <trkpt lat="49.67685" lon="4.716">
        <ele>281</ele>
        <time>2022-04-03T09:43:24.000Z</time>
      </trkpt>
      <trkpt lat="49.67684" lon="4.71598">
        <ele>281</ele>
        <time>2022-04-03T09:43:25.000Z</time>
      </trkpt>
      <trkpt lat="49.67683" lon="4.71596">
        <ele>281</ele>
        <time>2022-04-03T09:43:26.000Z</time>
      </trkpt>
      <trkpt lat="49.67683" lon="4.71594">
        <ele>281</ele>
        <time>2022-04-03T09:43:27.000Z</time>
      </trkpt>
      <trkpt lat="49.67682" lon="4.71592">
        <ele>281</ele>
        <time>2022-04-03T09:43:28.000Z</time>
      </trkpt>
      <trkpt lat="49.67681" lon="4.71591">
        <ele>282</ele>
        <time>2022-04-03T09:43:29.000Z</time>
      </trkpt>
      <trkpt lat="49.67681" lon="4.7159">
        <ele>282</ele>
        <time>2022-04-03T09:43:30.000Z</time>
      </trkpt>
      <trkpt lat="49.67681" lon="4.7159">
        <ele>282</ele>
        <time>2022-04-03T09:43:31.000Z</time>
      </trkpt>
      <trkpt lat="49.67681" lon="4.71589">
        <ele>282</ele>
        <time>2022-04-03T09:43:32.000Z</time>
      </trkpt>
      <trkpt lat="49.6768" lon="4.71587">
        <ele>282</ele>
        <time>2022-04-03T09:43:33.000Z</time>
      </trkpt>
      <trkpt lat="49.67679" lon="4.71586">
        <ele>282</ele>
        <time>2022-04-03T09:43:34.000Z</time>
      </trkpt>
      <trkpt lat="49.67678" lon="4.71583">
        <ele>282</ele>
        <time>2022-04-03T09:43:35.000Z</time>
      </trkpt>
      <trkpt lat="49.67678" lon="4.71581">
        <ele>283</ele>
        <time>2022-04-03T09:43:36.000Z</time>
      </trkpt>
      <trkpt lat="49.67677" lon="4.7158">
        <ele>283</ele>
        <time>2022-04-03T09:43:37.000Z</time>
      </trkpt>
      <trkpt lat="49.67676" lon="4.71577">
        <ele>283</ele>
        <time>2022-04-03T09:43:38.000Z</time>
      </trkpt>
      <trkpt lat="49.67675" lon="4.71576">
        <ele>283</ele>
        <time>2022-04-03T09:43:39.000Z</time>
      </trkpt>
      <trkpt lat="49.67675" lon="4.71574">
        <ele>283</ele>
        <time>2022-04-03T09:43:40.000Z</time>
      </trkpt>
      <trkpt lat="49.67675" lon="4.71573">
        <ele>284</ele>
        <time>2022-04-03T09:43:41.000Z</time>
      </trkpt>
      <trkpt lat="49.67674" lon="4.71571">
        <ele>284</ele>
        <time>2022-04-03T09:43:42.000Z</time>
      </trkpt>
      <trkpt lat="49.67673" lon="4.71568">
        <ele>284</ele>
        <time>2022-04-03T09:43:43.000Z</time>
      </trkpt>
      <trkpt lat="49.67673" lon="4.71567">
        <ele>284</ele>
        <time>2022-04-03T09:43:44.000Z</time>
      </trkpt>
      <trkpt lat="49.67673" lon="4.71565">
        <ele>285</ele>
        <time>2022-04-03T09:43:45.000Z</time>
      </trkpt>
      <trkpt lat="49.67672" lon="4.71564">
        <ele>285</ele>
        <time>2022-04-03T09:43:46.000Z</time>
      </trkpt>
      <trkpt lat="49.67672" lon="4.71562">
        <ele>285</ele>
        <time>2022-04-03T09:43:47.000Z</time>
      </trkpt>
      <trkpt lat="49.67672" lon="4.7156">
        <ele>286</ele>
        <time>2022-04-03T09:43:48.000Z</time>
      </trkpt>
      <trkpt lat="49.67671" lon="4.71558">
        <ele>286</ele>
        <time>2022-04-03T09:43:49.000Z</time>
      </trkpt>
      <trkpt lat="49.67671" lon="4.71556">
        <ele>286</ele>
        <time>2022-04-03T09:43:50.000Z</time>
      </trkpt>
      <trkpt lat="49.67671" lon="4.71554">
        <ele>287</ele>
        <time>2022-04-03T09:43:51.000Z</time>
      </trkpt>
      <trkpt lat="49.67671" lon="4.71552">
        <ele>287</ele>
        <time>2022-04-03T09:43:52.000Z</time>
      </trkpt>
      <trkpt lat="49.67669" lon="4.71549">
        <ele>287</ele>
        <time>2022-04-03T09:43:53.000Z</time>
      </trkpt>
      <trkpt lat="49.67669" lon="4.71546">
        <ele>287</ele>
        <time>2022-04-03T09:43:54.000Z</time>
      </trkpt>
      <trkpt lat="49.67668" lon="4.71545">
        <ele>288</ele>
        <time>2022-04-03T09:43:55.000Z</time>
      </trkpt>
      <trkpt lat="49.67668" lon="4.71542">
        <ele>288</ele>
        <time>2022-04-03T09:43:56.000Z</time>
      </trkpt>
      <trkpt lat="49.67667" lon="4.7154">
        <ele>288</ele>
        <time>2022-04-03T09:43:57.000Z</time>
      </trkpt>
      <trkpt lat="49.67666" lon="4.71538">
        <ele>289</ele>
        <time>2022-04-03T09:43:58.000Z</time>
      </trkpt>
      <trkpt lat="49.67665" lon="4.71536">
        <ele>289</ele>
        <time>2022-04-03T09:43:59.000Z</time>
      </trkpt>
      <trkpt lat="49.67664" lon="4.71534">
        <ele>289</ele>
        <time>2022-04-03T09:44:00.000Z</time>
      </trkpt>
      <trkpt lat="49.67663" lon="4.71532">
        <ele>290</ele>
        <time>2022-04-03T09:44:01.000Z</time>
      </trkpt>
      <trkpt lat="49.67662" lon="4.71529">
        <ele>290</ele>
        <time>2022-04-03T09:44:02.000Z</time>
      </trkpt>
      <trkpt lat="49.67661" lon="4.71528">
        <ele>290</ele>
        <time>2022-04-03T09:44:03.000Z</time>
      </trkpt>
      <trkpt lat="49.6766" lon="4.71526">
        <ele>291</ele>
        <time>2022-04-03T09:44:04.000Z</time>
      </trkpt>
      <trkpt lat="49.6766" lon="4.71524">
        <ele>291</ele>
        <time>2022-04-03T09:44:05.000Z</time>
      </trkpt>
      <trkpt lat="49.67659" lon="4.71523">
        <ele>292</ele>
        <time>2022-04-03T09:44:06.000Z</time>
      </trkpt>
      <trkpt lat="49.67659" lon="4.71521">
        <ele>292</ele>
        <time>2022-04-03T09:44:07.000Z</time>
      </trkpt>
      <trkpt lat="49.67658" lon="4.7152">
        <ele>293</ele>
        <time>2022-04-03T09:44:08.000Z</time>
      </trkpt>
      <trkpt lat="49.67658" lon="4.71518">
        <ele>293</ele>
        <time>2022-04-03T09:44:09.000Z</time>
      </trkpt>
      <trkpt lat="49.67657" lon="4.71517">
        <ele>293</ele>
        <time>2022-04-03T09:44:10.000Z</time>
      </trkpt>
      <trkpt lat="49.67657" lon="4.71516">
        <ele>294</ele>
        <time>2022-04-03T09:44:11.000Z</time>
      </trkpt>
      <trkpt lat="49.67656" lon="4.71514">
        <ele>294</ele>
        <time>2022-04-03T09:44:12.000Z</time>
      </trkpt>
      <trkpt lat="49.67656" lon="4.71513">
        <ele>294</ele>
        <time>2022-04-03T09:44:13.000Z</time>
      </trkpt>
      <trkpt lat="49.67655" lon="4.71511">
        <ele>295</ele>
        <time>2022-04-03T09:44:14.000Z</time>
      </trkpt>
      <trkpt lat="49.67655" lon="4.7151">
        <ele>295</ele>
        <time>2022-04-03T09:44:15.000Z</time>
      </trkpt>
      <trkpt lat="49.67655" lon="4.71509">
        <ele>295</ele>
        <time>2022-04-03T09:44:16.000Z</time>
      </trkpt>
      <trkpt lat="49.67655" lon="4.71507">
        <ele>295</ele>
        <time>2022-04-03T09:44:17.000Z</time>
      </trkpt>
      <trkpt lat="49.67654" lon="4.71505">
        <ele>295</ele>
        <time>2022-04-03T09:44:18.000Z</time>
      </trkpt>
      <trkpt lat="49.67654" lon="4.71503">
        <ele>295</ele>
        <time>2022-04-03T09:44:19.000Z</time>
      </trkpt>
      <trkpt lat="49.67654" lon="4.71502">
        <ele>295</ele>
        <time>2022-04-03T09:44:20.000Z</time>
      </trkpt>
      <trkpt lat="49.67653" lon="4.715">
        <ele>296</ele>
        <time>2022-04-03T09:44:21.000Z</time>
      </trkpt>
      <trkpt lat="49.67652" lon="4.71498">
        <ele>296</ele>
        <time>2022-04-03T09:44:22.000Z</time>
      </trkpt>
      <trkpt lat="49.67651" lon="4.71496">
        <ele>296</ele>
        <time>2022-04-03T09:44:23.000Z</time>
      </trkpt>
      <trkpt lat="49.67651" lon="4.71494">
        <ele>296</ele>
        <time>2022-04-03T09:44:24.000Z</time>
      </trkpt>
      <trkpt lat="49.67651" lon="4.71493">
        <ele>296</ele>
        <time>2022-04-03T09:44:25.000Z</time>
      </trkpt>
      <trkpt lat="49.6765" lon="4.71491">
        <ele>296</ele>
        <time>2022-04-03T09:44:26.000Z</time>
      </trkpt>
      <trkpt lat="49.67649" lon="4.71489">
        <ele>296</ele>
        <time>2022-04-03T09:44:27.000Z</time>
      </trkpt>
      <trkpt lat="49.67649" lon="4.71487">
        <ele>296</ele>
        <time>2022-04-03T09:44:28.000Z</time>
      </trkpt>
      <trkpt lat="49.67648" lon="4.71485">
        <ele>296</ele>
        <time>2022-04-03T09:44:29.000Z</time>
      </trkpt>
      <trkpt lat="49.67647" lon="4.71482">
        <ele>296</ele>
        <time>2022-04-03T09:44:30.000Z</time>
      </trkpt>
      <trkpt lat="49.67646" lon="4.7148">
        <ele>296</ele>
        <time>2022-04-03T09:44:31.000Z</time>
      </trkpt>
      <trkpt lat="49.67646" lon="4.71478">
        <ele>296</ele>
        <time>2022-04-03T09:44:32.000Z</time>
      </trkpt>
      <trkpt lat="49.67646" lon="4.71476">
        <ele>296</ele>
        <time>2022-04-03T09:44:33.000Z</time>
      </trkpt>
      <trkpt lat="49.67645" lon="4.71474">
        <ele>296</ele>
        <time>2022-04-03T09:44:34.000Z</time>
      </trkpt>
      <trkpt lat="49.67644" lon="4.71471">
        <ele>297</ele>
        <time>2022-04-03T09:44:35.000Z</time>
      </trkpt>
      <trkpt lat="49.67644" lon="4.71469">
        <ele>297</ele>
        <time>2022-04-03T09:44:36.000Z</time>
      </trkpt>
      <trkpt lat="49.67643" lon="4.71467">
        <ele>297</ele>
        <time>2022-04-03T09:44:37.000Z</time>
      </trkpt>
      <trkpt lat="49.67642" lon="4.71465">
        <ele>297</ele>
        <time>2022-04-03T09:44:38.000Z</time>
      </trkpt>
      <trkpt lat="49.67642" lon="4.71463">
        <ele>297</ele>
        <time>2022-04-03T09:44:39.000Z</time>
      </trkpt>
      <trkpt lat="49.67641" lon="4.71461">
        <ele>297</ele>
        <time>2022-04-03T09:44:40.000Z</time>
      </trkpt>
      <trkpt lat="49.6764" lon="4.71458">
        <ele>297</ele>
        <time>2022-04-03T09:44:41.000Z</time>
      </trkpt>
      <trkpt lat="49.67639" lon="4.71456">
        <ele>297</ele>
        <time>2022-04-03T09:44:42.000Z</time>
      </trkpt>
      <trkpt lat="49.67638" lon="4.71453">
        <ele>297</ele>
        <time>2022-04-03T09:44:43.000Z</time>
      </trkpt>
      <trkpt lat="49.67638" lon="4.7145">
        <ele>297</ele>
        <time>2022-04-03T09:44:44.000Z</time>
      </trkpt>
      <trkpt lat="49.67637" lon="4.71447">
        <ele>297</ele>
        <time>2022-04-03T09:44:45.000Z</time>
      </trkpt>
      <trkpt lat="49.67637" lon="4.71445">
        <ele>297</ele>
        <time>2022-04-03T09:44:46.000Z</time>
      </trkpt>
      <trkpt lat="49.67636" lon="4.71443">
        <ele>297</ele>
        <time>2022-04-03T09:44:47.000Z</time>
      </trkpt>
      <trkpt lat="49.67635" lon="4.71441">
        <ele>297</ele>
        <time>2022-04-03T09:44:48.000Z</time>
      </trkpt>
      <trkpt lat="49.67634" lon="4.71439">
        <ele>297</ele>
        <time>2022-04-03T09:44:49.000Z</time>
      </trkpt>
      <trkpt lat="49.67634" lon="4.71437">
        <ele>297</ele>
        <time>2022-04-03T09:44:50.000Z</time>
      </trkpt>
      <trkpt lat="49.67633" lon="4.71433">
        <ele>298</ele>
        <time>2022-04-03T09:44:51.000Z</time>
      </trkpt>
      <trkpt lat="49.67632" lon="4.7143">
        <ele>298</ele>
        <time>2022-04-03T09:44:52.000Z</time>
      </trkpt>
      <trkpt lat="49.67631" lon="4.71427">
        <ele>298</ele>
        <time>2022-04-03T09:44:53.000Z</time>
      </trkpt>
      <trkpt lat="49.6763" lon="4.71424">
        <ele>298</ele>
        <time>2022-04-03T09:44:54.000Z</time>
      </trkpt>
      <trkpt lat="49.67628" lon="4.71421">
        <ele>298</ele>
        <time>2022-04-03T09:44:55.000Z</time>
      </trkpt>
      <trkpt lat="49.67627" lon="4.71417">
        <ele>298</ele>
        <time>2022-04-03T09:44:56.000Z</time>
      </trkpt>
      <trkpt lat="49.67626" lon="4.71414">
        <ele>298</ele>
        <time>2022-04-03T09:44:57.000Z</time>
      </trkpt>
      <trkpt lat="49.67625" lon="4.71412">
        <ele>298</ele>
        <time>2022-04-03T09:44:58.000Z</time>
      </trkpt>
      <trkpt lat="49.67624" lon="4.71409">
        <ele>298</ele>
        <time>2022-04-03T09:44:59.000Z</time>
      </trkpt>
      <trkpt lat="49.67623" lon="4.71407">
        <ele>298</ele>
        <time>2022-04-03T09:45:00.000Z</time>
      </trkpt>
      <trkpt lat="49.67622" lon="4.71404">
        <ele>299</ele>
        <time>2022-04-03T09:45:01.000Z</time>
      </trkpt>
      <trkpt lat="49.67622" lon="4.71401">
        <ele>299</ele>
        <time>2022-04-03T09:45:02.000Z</time>
      </trkpt>
      <trkpt lat="49.67621" lon="4.71399">
        <ele>299</ele>
        <time>2022-04-03T09:45:03.000Z</time>
      </trkpt>
      <trkpt lat="49.67621" lon="4.71396">
        <ele>299</ele>
        <time>2022-04-03T09:45:04.000Z</time>
      </trkpt>
      <trkpt lat="49.6762" lon="4.71393">
        <ele>299</ele>
        <time>2022-04-03T09:45:05.000Z</time>
      </trkpt>
      <trkpt lat="49.67619" lon="4.7139">
        <ele>299</ele>
        <time>2022-04-03T09:45:06.000Z</time>
      </trkpt>
      <trkpt lat="49.67619" lon="4.71387">
        <ele>299</ele>
        <time>2022-04-03T09:45:07.000Z</time>
      </trkpt>
      <trkpt lat="49.67617" lon="4.71384">
        <ele>299</ele>
        <time>2022-04-03T09:45:08.000Z</time>
      </trkpt>
      <trkpt lat="49.67616" lon="4.71381">
        <ele>299</ele>
        <time>2022-04-03T09:45:09.000Z</time>
      </trkpt>
      <trkpt lat="49.67614" lon="4.71378">
        <ele>299</ele>
        <time>2022-04-03T09:45:10.000Z</time>
      </trkpt>
      <trkpt lat="49.67613" lon="4.71376">
        <ele>299</ele>
        <time>2022-04-03T09:45:11.000Z</time>
      </trkpt>
      <trkpt lat="49.67612" lon="4.71374">
        <ele>299</ele>
        <time>2022-04-03T09:45:12.000Z</time>
      </trkpt>
      <trkpt lat="49.67611" lon="4.71371">
        <ele>299</ele>
        <time>2022-04-03T09:45:13.000Z</time>
      </trkpt>
      <trkpt lat="49.6761" lon="4.71368">
        <ele>299</ele>
        <time>2022-04-03T09:45:14.000Z</time>
      </trkpt>
      <trkpt lat="49.67609" lon="4.71365">
        <ele>299</ele>
        <time>2022-04-03T09:45:15.000Z</time>
      </trkpt>
      <trkpt lat="49.67609" lon="4.71361">
        <ele>299</ele>
        <time>2022-04-03T09:45:16.000Z</time>
      </trkpt>
      <trkpt lat="49.67608" lon="4.71357">
        <ele>300</ele>
        <time>2022-04-03T09:45:17.000Z</time>
      </trkpt>
      <trkpt lat="49.67607" lon="4.71353">
        <ele>300</ele>
        <time>2022-04-03T09:45:18.000Z</time>
      </trkpt>
      <trkpt lat="49.67606" lon="4.71348">
        <ele>300</ele>
        <time>2022-04-03T09:45:19.000Z</time>
      </trkpt>
      <trkpt lat="49.67604" lon="4.71343">
        <ele>300</ele>
        <time>2022-04-03T09:45:20.000Z</time>
      </trkpt>
      <trkpt lat="49.67603" lon="4.71338">
        <ele>300</ele>
        <time>2022-04-03T09:45:21.000Z</time>
      </trkpt>
      <trkpt lat="49.67602" lon="4.71334">
        <ele>300</ele>
        <time>2022-04-03T09:45:22.000Z</time>
      </trkpt>
      <trkpt lat="49.67601" lon="4.71329">
        <ele>300</ele>
        <time>2022-04-03T09:45:23.000Z</time>
      </trkpt>
      <trkpt lat="49.676" lon="4.71325">
        <ele>300</ele>
        <time>2022-04-03T09:45:24.000Z</time>
      </trkpt>
      <trkpt lat="49.67599" lon="4.7132">
        <ele>301</ele>
        <time>2022-04-03T09:45:25.000Z</time>
      </trkpt>
      <trkpt lat="49.67598" lon="4.71315">
        <ele>301</ele>
        <time>2022-04-03T09:45:26.000Z</time>
      </trkpt>
      <trkpt lat="49.67595" lon="4.71311">
        <ele>301</ele>
        <time>2022-04-03T09:45:27.000Z</time>
      </trkpt>
      <trkpt lat="49.67593" lon="4.71307">
        <ele>301</ele>
        <time>2022-04-03T09:45:28.000Z</time>
      </trkpt>
      <trkpt lat="49.67591" lon="4.71302">
        <ele>301</ele>
        <time>2022-04-03T09:45:29.000Z</time>
      </trkpt>
      <trkpt lat="49.67589" lon="4.71298">
        <ele>302</ele>
        <time>2022-04-03T09:45:30.000Z</time>
      </trkpt>
      <trkpt lat="49.67587" lon="4.71293">
        <ele>302</ele>
        <time>2022-04-03T09:45:31.000Z</time>
      </trkpt>
      <trkpt lat="49.67585" lon="4.71287">
        <ele>302</ele>
        <time>2022-04-03T09:45:32.000Z</time>
      </trkpt>
      <trkpt lat="49.67582" lon="4.71282">
        <ele>302</ele>
        <time>2022-04-03T09:45:33.000Z</time>
      </trkpt>
      <trkpt lat="49.6758" lon="4.71276">
        <ele>303</ele>
        <time>2022-04-03T09:45:34.000Z</time>
      </trkpt>
      <trkpt lat="49.67578" lon="4.71272">
        <ele>303</ele>
        <time>2022-04-03T09:45:35.000Z</time>
      </trkpt>
      <trkpt lat="49.67577" lon="4.71266">
        <ele>303</ele>
        <time>2022-04-03T09:45:36.000Z</time>
      </trkpt>
      <trkpt lat="49.67576" lon="4.7126">
        <ele>303</ele>
        <time>2022-04-03T09:45:37.000Z</time>
      </trkpt>
      <trkpt lat="49.67575" lon="4.71255">
        <ele>303</ele>
        <time>2022-04-03T09:45:38.000Z</time>
      </trkpt>
      <trkpt lat="49.67574" lon="4.71249">
        <ele>303</ele>
        <time>2022-04-03T09:45:39.000Z</time>
      </trkpt>
      <trkpt lat="49.67573" lon="4.71243">
        <ele>303</ele>
        <time>2022-04-03T09:45:40.000Z</time>
      </trkpt>
      <trkpt lat="49.67571" lon="4.71238">
        <ele>303</ele>
        <time>2022-04-03T09:45:41.000Z</time>
      </trkpt>
      <trkpt lat="49.67569" lon="4.71233">
        <ele>303</ele>
        <time>2022-04-03T09:45:42.000Z</time>
      </trkpt>
      <trkpt lat="49.67568" lon="4.71227">
        <ele>303</ele>
        <time>2022-04-03T09:45:43.000Z</time>
      </trkpt>
      <trkpt lat="49.67566" lon="4.71222">
        <ele>303</ele>
        <time>2022-04-03T09:45:44.000Z</time>
      </trkpt>
      <trkpt lat="49.67564" lon="4.71216">
        <ele>303</ele>
        <time>2022-04-03T09:45:45.000Z</time>
      </trkpt>
      <trkpt lat="49.67563" lon="4.71211">
        <ele>303</ele>
        <time>2022-04-03T09:45:46.000Z</time>
      </trkpt>
      <trkpt lat="49.67562" lon="4.71205">
        <ele>302</ele>
        <time>2022-04-03T09:45:47.000Z</time>
      </trkpt>
      <trkpt lat="49.67562" lon="4.71198">
        <ele>302</ele>
        <time>2022-04-03T09:45:48.000Z</time>
      </trkpt>
      <trkpt lat="49.67563" lon="4.71191">
        <ele>302</ele>
        <time>2022-04-03T09:45:49.000Z</time>
      </trkpt>
      <trkpt lat="49.67565" lon="4.71184">
        <ele>302</ele>
        <time>2022-04-03T09:45:50.000Z</time>
      </trkpt>
      <trkpt lat="49.67568" lon="4.71179">
        <ele>302</ele>
        <time>2022-04-03T09:45:51.000Z</time>
      </trkpt>
      <trkpt lat="49.6757" lon="4.71174">
        <ele>302</ele>
        <time>2022-04-03T09:45:52.000Z</time>
      </trkpt>
      <trkpt lat="49.67572" lon="4.71169">
        <ele>301</ele>
        <time>2022-04-03T09:45:53.000Z</time>
      </trkpt>
      <trkpt lat="49.67574" lon="4.71164">
        <ele>301</ele>
        <time>2022-04-03T09:45:54.000Z</time>
      </trkpt>
      <trkpt lat="49.67576" lon="4.7116">
        <ele>301</ele>
        <time>2022-04-03T09:45:55.000Z</time>
      </trkpt>
      <trkpt lat="49.67578" lon="4.71156">
        <ele>301</ele>
        <time>2022-04-03T09:45:56.000Z</time>
      </trkpt>
      <trkpt lat="49.6758" lon="4.71151">
        <ele>301</ele>
        <time>2022-04-03T09:45:57.000Z</time>
      </trkpt>
      <trkpt lat="49.67581" lon="4.71147">
        <ele>301</ele>
        <time>2022-04-03T09:45:58.000Z</time>
      </trkpt>
      <trkpt lat="49.67583" lon="4.71144">
        <ele>301</ele>
        <time>2022-04-03T09:45:59.000Z</time>
      </trkpt>
      <trkpt lat="49.67584" lon="4.7114">
        <ele>301</ele>
        <time>2022-04-03T09:46:00.000Z</time>
      </trkpt>
      <trkpt lat="49.67586" lon="4.71136">
        <ele>301</ele>
        <time>2022-04-03T09:46:01.000Z</time>
      </trkpt>
      <trkpt lat="49.67588" lon="4.71132">
        <ele>301</ele>
        <time>2022-04-03T09:46:02.000Z</time>
      </trkpt>
      <trkpt lat="49.67589" lon="4.71127">
        <ele>301</ele>
        <time>2022-04-03T09:46:03.000Z</time>
      </trkpt>
      <trkpt lat="49.6759" lon="4.71123">
        <ele>301</ele>
        <time>2022-04-03T09:46:04.000Z</time>
      </trkpt>
      <trkpt lat="49.67592" lon="4.7112">
        <ele>301</ele>
        <time>2022-04-03T09:46:05.000Z</time>
      </trkpt>
      <trkpt lat="49.67594" lon="4.71116">
        <ele>301</ele>
        <time>2022-04-03T09:46:06.000Z</time>
      </trkpt>
      <trkpt lat="49.67595" lon="4.71112">
        <ele>301</ele>
        <time>2022-04-03T09:46:07.000Z</time>
      </trkpt>
      <trkpt lat="49.67596" lon="4.71107">
        <ele>301</ele>
        <time>2022-04-03T09:46:08.000Z</time>
      </trkpt>
      <trkpt lat="49.67598" lon="4.71103">
        <ele>301</ele>
        <time>2022-04-03T09:46:09.000Z</time>
      </trkpt>
      <trkpt lat="49.67599" lon="4.71098">
        <ele>301</ele>
        <time>2022-04-03T09:46:10.000Z</time>
      </trkpt>
      <trkpt lat="49.67601" lon="4.71094">
        <ele>301</ele>
        <time>2022-04-03T09:46:11.000Z</time>
      </trkpt>
      <trkpt lat="49.67602" lon="4.7109">
        <ele>301</ele>
        <time>2022-04-03T09:46:12.000Z</time>
      </trkpt>
      <trkpt lat="49.67604" lon="4.71086">
        <ele>301</ele>
        <time>2022-04-03T09:46:13.000Z</time>
      </trkpt>
      <trkpt lat="49.67605" lon="4.71082">
        <ele>301</ele>
        <time>2022-04-03T09:46:14.000Z</time>
      </trkpt>
      <trkpt lat="49.67606" lon="4.71078">
        <ele>301</ele>
        <time>2022-04-03T09:46:15.000Z</time>
      </trkpt>
      <trkpt lat="49.67608" lon="4.71074">
        <ele>301</ele>
        <time>2022-04-03T09:46:16.000Z</time>
      </trkpt>
      <trkpt lat="49.6761" lon="4.7107">
        <ele>301</ele>
        <time>2022-04-03T09:46:17.000Z</time>
      </trkpt>
      <trkpt lat="49.67612" lon="4.71067">
        <ele>301</ele>
        <time>2022-04-03T09:46:18.000Z</time>
      </trkpt>
      <trkpt lat="49.67615" lon="4.71064">
        <ele>301</ele>
        <time>2022-04-03T09:46:19.000Z</time>
      </trkpt>
      <trkpt lat="49.67617" lon="4.71062">
        <ele>301</ele>
        <time>2022-04-03T09:46:20.000Z</time>
      </trkpt>
      <trkpt lat="49.6762" lon="4.71061">
        <ele>302</ele>
        <time>2022-04-03T09:46:21.000Z</time>
      </trkpt>
      <trkpt lat="49.67623" lon="4.7106">
        <ele>302</ele>
        <time>2022-04-03T09:46:22.000Z</time>
      </trkpt>
      <trkpt lat="49.67626" lon="4.7106">
        <ele>302</ele>
        <time>2022-04-03T09:46:23.000Z</time>
      </trkpt>
      <trkpt lat="49.67629" lon="4.71059">
        <ele>302</ele>
        <time>2022-04-03T09:46:24.000Z</time>
      </trkpt>
      <trkpt lat="49.67631" lon="4.7106">
        <ele>302</ele>
        <time>2022-04-03T09:46:25.000Z</time>
      </trkpt>
      <trkpt lat="49.67634" lon="4.7106">
        <ele>302</ele>
        <time>2022-04-03T09:46:26.000Z</time>
      </trkpt>
      <trkpt lat="49.67637" lon="4.7106">
        <ele>301</ele>
        <time>2022-04-03T09:46:27.000Z</time>
      </trkpt>
      <trkpt lat="49.67641" lon="4.7106">
        <ele>301</ele>
        <time>2022-04-03T09:46:28.000Z</time>
      </trkpt>
      <trkpt lat="49.67645" lon="4.7106">
        <ele>301</ele>
        <time>2022-04-03T09:46:29.000Z</time>
      </trkpt>
      <trkpt lat="49.67649" lon="4.71059">
        <ele>301</ele>
        <time>2022-04-03T09:46:30.000Z</time>
      </trkpt>
      <trkpt lat="49.67654" lon="4.71058">
        <ele>301</ele>
        <time>2022-04-03T09:46:31.000Z</time>
      </trkpt>
      <trkpt lat="49.67659" lon="4.71056">
        <ele>301</ele>
        <time>2022-04-03T09:46:32.000Z</time>
      </trkpt>
      <trkpt lat="49.67664" lon="4.71054">
        <ele>301</ele>
        <time>2022-04-03T09:46:33.000Z</time>
      </trkpt>
      <trkpt lat="49.67668" lon="4.71051">
        <ele>301</ele>
        <time>2022-04-03T09:46:34.000Z</time>
      </trkpt>
      <trkpt lat="49.67673" lon="4.71047">
        <ele>301</ele>
        <time>2022-04-03T09:46:35.000Z</time>
      </trkpt>
      <trkpt lat="49.67679" lon="4.71042">
        <ele>301</ele>
        <time>2022-04-03T09:46:36.000Z</time>
      </trkpt>
      <trkpt lat="49.67686" lon="4.71037">
        <ele>300</ele>
        <time>2022-04-03T09:46:37.000Z</time>
      </trkpt>
      <trkpt lat="49.67694" lon="4.71031">
        <ele>300</ele>
        <time>2022-04-03T09:46:38.000Z</time>
      </trkpt>
      <trkpt lat="49.67702" lon="4.71023">
        <ele>300</ele>
        <time>2022-04-03T09:46:39.000Z</time>
      </trkpt>
      <trkpt lat="49.67709" lon="4.71016">
        <ele>300</ele>
        <time>2022-04-03T09:46:40.000Z</time>
      </trkpt>
      <trkpt lat="49.67717" lon="4.71009">
        <ele>300</ele>
        <time>2022-04-03T09:46:41.000Z</time>
      </trkpt>
      <trkpt lat="49.67726" lon="4.71004">
        <ele>300</ele>
        <time>2022-04-03T09:46:42.000Z</time>
      </trkpt>
      <trkpt lat="49.67736" lon="4.70998">
        <ele>300</ele>
        <time>2022-04-03T09:46:43.000Z</time>
      </trkpt>
      <trkpt lat="49.67744" lon="4.70992">
        <ele>300</ele>
        <time>2022-04-03T09:46:44.000Z</time>
      </trkpt>
      <trkpt lat="49.67753" lon="4.70986">
        <ele>299</ele>
        <time>2022-04-03T09:46:45.000Z</time>
      </trkpt>
      <trkpt lat="49.67761" lon="4.7098">
        <ele>299</ele>
        <time>2022-04-03T09:46:46.000Z</time>
      </trkpt>
      <trkpt lat="49.6777" lon="4.70975">
        <ele>298</ele>
        <time>2022-04-03T09:46:47.000Z</time>
      </trkpt>
      <trkpt lat="49.67779" lon="4.7097">
        <ele>298</ele>
        <time>2022-04-03T09:46:48.000Z</time>
      </trkpt>
      <trkpt lat="49.67788" lon="4.70967">
        <ele>297</ele>
        <time>2022-04-03T09:46:49.000Z</time>
      </trkpt>
      <trkpt lat="49.67797" lon="4.70965">
        <ele>297</ele>
        <time>2022-04-03T09:46:50.000Z</time>
      </trkpt>
      <trkpt lat="49.67807" lon="4.70965">
        <ele>296</ele>
        <time>2022-04-03T09:46:51.000Z</time>
      </trkpt>
      <trkpt lat="49.67815" lon="4.70965">
        <ele>296</ele>
        <time>2022-04-03T09:46:52.000Z</time>
      </trkpt>
      <trkpt lat="49.67824" lon="4.70965">
        <ele>295</ele>
        <time>2022-04-03T09:46:53.000Z</time>
      </trkpt>
      <trkpt lat="49.67832" lon="4.70965">
        <ele>294</ele>
        <time>2022-04-03T09:46:54.000Z</time>
      </trkpt>
      <trkpt lat="49.67841" lon="4.70964">
        <ele>293</ele>
        <time>2022-04-03T09:46:55.000Z</time>
      </trkpt>
      <trkpt lat="49.67849" lon="4.70964">
        <ele>293</ele>
        <time>2022-04-03T09:46:56.000Z</time>
      </trkpt>
      <trkpt lat="49.67858" lon="4.70963">
        <ele>292</ele>
        <time>2022-04-03T09:46:57.000Z</time>
      </trkpt>
      <trkpt lat="49.67866" lon="4.70961">
        <ele>291</ele>
        <time>2022-04-03T09:46:58.000Z</time>
      </trkpt>
      <trkpt lat="49.67875" lon="4.7096">
        <ele>290</ele>
        <time>2022-04-03T09:46:59.000Z</time>
      </trkpt>
      <trkpt lat="49.67883" lon="4.70958">
        <ele>289</ele>
        <time>2022-04-03T09:47:00.000Z</time>
      </trkpt>
      <trkpt lat="49.67891" lon="4.70958">
        <ele>288</ele>
        <time>2022-04-03T09:47:01.000Z</time>
      </trkpt>
      <trkpt lat="49.679" lon="4.70957">
        <ele>288</ele>
        <time>2022-04-03T09:47:02.000Z</time>
      </trkpt>
      <trkpt lat="49.67908" lon="4.70956">
        <ele>287</ele>
        <time>2022-04-03T09:47:03.000Z</time>
      </trkpt>
      <trkpt lat="49.67915" lon="4.70954">
        <ele>286</ele>
        <time>2022-04-03T09:47:04.000Z</time>
      </trkpt>
      <trkpt lat="49.67922" lon="4.70953">
        <ele>286</ele>
        <time>2022-04-03T09:47:05.000Z</time>
      </trkpt>
      <trkpt lat="49.67927" lon="4.70953">
        <ele>285</ele>
        <time>2022-04-03T09:47:06.000Z</time>
      </trkpt>
      <trkpt lat="49.67934" lon="4.70953">
        <ele>285</ele>
        <time>2022-04-03T09:47:07.000Z</time>
      </trkpt>
      <trkpt lat="49.67939" lon="4.70952">
        <ele>284</ele>
        <time>2022-04-03T09:47:08.000Z</time>
      </trkpt>
      <trkpt lat="49.67944" lon="4.70952">
        <ele>284</ele>
        <time>2022-04-03T09:47:09.000Z</time>
      </trkpt>
      <trkpt lat="49.67949" lon="4.70952">
        <ele>284</ele>
        <time>2022-04-03T09:47:10.000Z</time>
      </trkpt>
      <trkpt lat="49.67954" lon="4.70952">
        <ele>284</ele>
        <time>2022-04-03T09:47:11.000Z</time>
      </trkpt>
      <trkpt lat="49.67958" lon="4.70951">
        <ele>284</ele>
        <time>2022-04-03T09:47:12.000Z</time>
      </trkpt>
      <trkpt lat="49.67962" lon="4.70951">
        <ele>284</ele>
        <time>2022-04-03T09:47:13.000Z</time>
      </trkpt>
      <trkpt lat="49.67965" lon="4.70952">
        <ele>284</ele>
        <time>2022-04-03T09:47:14.000Z</time>
      </trkpt>
      <trkpt lat="49.67967" lon="4.70952">
        <ele>284</ele>
        <time>2022-04-03T09:47:15.000Z</time>
      </trkpt>
      <trkpt lat="49.6797" lon="4.70952">
        <ele>284</ele>
        <time>2022-04-03T09:47:16.000Z</time>
      </trkpt>
      <trkpt lat="49.67973" lon="4.70953">
        <ele>284</ele>
        <time>2022-04-03T09:47:17.000Z</time>
      </trkpt>
      <trkpt lat="49.67976" lon="4.70954">
        <ele>284</ele>
        <time>2022-04-03T09:47:18.000Z</time>
      </trkpt>
      <trkpt lat="49.67978" lon="4.70955">
        <ele>284</ele>
        <time>2022-04-03T09:47:19.000Z</time>
      </trkpt>
      <trkpt lat="49.67981" lon="4.70956">
        <ele>284</ele>
        <time>2022-04-03T09:47:20.000Z</time>
      </trkpt>
      <trkpt lat="49.67983" lon="4.70956">
        <ele>285</ele>
        <time>2022-04-03T09:47:21.000Z</time>
      </trkpt>
      <trkpt lat="49.67985" lon="4.70957">
        <ele>285</ele>
        <time>2022-04-03T09:47:22.000Z</time>
      </trkpt>
      <trkpt lat="49.67988" lon="4.70958">
        <ele>285</ele>
        <time>2022-04-03T09:47:23.000Z</time>
      </trkpt>
      <trkpt lat="49.67991" lon="4.70959">
        <ele>285</ele>
        <time>2022-04-03T09:47:24.000Z</time>
      </trkpt>
      <trkpt lat="49.67994" lon="4.70961">
        <ele>285</ele>
        <time>2022-04-03T09:47:25.000Z</time>
      </trkpt>
      <trkpt lat="49.67997" lon="4.70962">
        <ele>285</ele>
        <time>2022-04-03T09:47:26.000Z</time>
      </trkpt>
      <trkpt lat="49.68" lon="4.70964">
        <ele>285</ele>
        <time>2022-04-03T09:47:27.000Z</time>
      </trkpt>
      <trkpt lat="49.68004" lon="4.70965">
        <ele>285</ele>
        <time>2022-04-03T09:47:28.000Z</time>
      </trkpt>
      <trkpt lat="49.68007" lon="4.70966">
        <ele>286</ele>
        <time>2022-04-03T09:47:29.000Z</time>
      </trkpt>
      <trkpt lat="49.6801" lon="4.70967">
        <ele>286</ele>
        <time>2022-04-03T09:47:30.000Z</time>
      </trkpt>
      <trkpt lat="49.68013" lon="4.70968">
        <ele>286</ele>
        <time>2022-04-03T09:47:31.000Z</time>
      </trkpt>
      <trkpt lat="49.68016" lon="4.70969">
        <ele>286</ele>
        <time>2022-04-03T09:47:32.000Z</time>
      </trkpt>
      <trkpt lat="49.68019" lon="4.7097">
        <ele>287</ele>
        <time>2022-04-03T09:47:33.000Z</time>
      </trkpt>
      <trkpt lat="49.68022" lon="4.70971">
        <ele>287</ele>
        <time>2022-04-03T09:47:34.000Z</time>
      </trkpt>
      <trkpt lat="49.68025" lon="4.70972">
        <ele>288</ele>
        <time>2022-04-03T09:47:35.000Z</time>
      </trkpt>
      <trkpt lat="49.68028" lon="4.70974">
        <ele>288</ele>
        <time>2022-04-03T09:47:36.000Z</time>
      </trkpt>
      <trkpt lat="49.68031" lon="4.70975">
        <ele>289</ele>
        <time>2022-04-03T09:47:37.000Z</time>
      </trkpt>
      <trkpt lat="49.68034" lon="4.70975">
        <ele>289</ele>
        <time>2022-04-03T09:47:38.000Z</time>
      </trkpt>
      <trkpt lat="49.68037" lon="4.70976">
        <ele>289</ele>
        <time>2022-04-03T09:47:39.000Z</time>
      </trkpt>
      <trkpt lat="49.6804" lon="4.70977">
        <ele>290</ele>
        <time>2022-04-03T09:47:40.000Z</time>
      </trkpt>
      <trkpt lat="49.68043" lon="4.70978">
        <ele>290</ele>
        <time>2022-04-03T09:47:41.000Z</time>
      </trkpt>
      <trkpt lat="49.68046" lon="4.70979">
        <ele>290</ele>
        <time>2022-04-03T09:47:42.000Z</time>
      </trkpt>
      <trkpt lat="49.68049" lon="4.7098">
        <ele>291</ele>
        <time>2022-04-03T09:47:43.000Z</time>
      </trkpt>
      <trkpt lat="49.68051" lon="4.7098">
        <ele>291</ele>
        <time>2022-04-03T09:47:44.000Z</time>
      </trkpt>
      <trkpt lat="49.68054" lon="4.7098">
        <ele>291</ele>
        <time>2022-04-03T09:47:45.000Z</time>
      </trkpt>
      <trkpt lat="49.68057" lon="4.70981">
        <ele>292</ele>
        <time>2022-04-03T09:47:46.000Z</time>
      </trkpt>
      <trkpt lat="49.6806" lon="4.70981">
        <ele>292</ele>
        <time>2022-04-03T09:47:47.000Z</time>
      </trkpt>
      <trkpt lat="49.68062" lon="4.70982">
        <ele>292</ele>
        <time>2022-04-03T09:47:48.000Z</time>
      </trkpt>
      <trkpt lat="49.68065" lon="4.70982">
        <ele>293</ele>
        <time>2022-04-03T09:47:49.000Z</time>
      </trkpt>
      <trkpt lat="49.68068" lon="4.70983">
        <ele>293</ele>
        <time>2022-04-03T09:47:50.000Z</time>
      </trkpt>
      <trkpt lat="49.68071" lon="4.70983">
        <ele>294</ele>
        <time>2022-04-03T09:47:51.000Z</time>
      </trkpt>
      <trkpt lat="49.68073" lon="4.70983">
        <ele>294</ele>
        <time>2022-04-03T09:47:52.000Z</time>
      </trkpt>
      <trkpt lat="49.68076" lon="4.70983">
        <ele>294</ele>
        <time>2022-04-03T09:47:53.000Z</time>
      </trkpt>
      <trkpt lat="49.68078" lon="4.70983">
        <ele>295</ele>
        <time>2022-04-03T09:47:54.000Z</time>
      </trkpt>
      <trkpt lat="49.6808" lon="4.70983">
        <ele>295</ele>
        <time>2022-04-03T09:47:55.000Z</time>
      </trkpt>
      <trkpt lat="49.68083" lon="4.70983">
        <ele>296</ele>
        <time>2022-04-03T09:47:56.000Z</time>
      </trkpt>
      <trkpt lat="49.68086" lon="4.70984">
        <ele>296</ele>
        <time>2022-04-03T09:47:57.000Z</time>
      </trkpt>
      <trkpt lat="49.68089" lon="4.70984">
        <ele>296</ele>
        <time>2022-04-03T09:47:58.000Z</time>
      </trkpt>
      <trkpt lat="49.68092" lon="4.70985">
        <ele>297</ele>
        <time>2022-04-03T09:47:59.000Z</time>
      </trkpt>
      <trkpt lat="49.68095" lon="4.70987">
        <ele>297</ele>
        <time>2022-04-03T09:48:00.000Z</time>
      </trkpt>
      <trkpt lat="49.68097" lon="4.70988">
        <ele>297</ele>
        <time>2022-04-03T09:48:01.000Z</time>
      </trkpt>
      <trkpt lat="49.68101" lon="4.70988">
        <ele>297</ele>
        <time>2022-04-03T09:48:02.000Z</time>
      </trkpt>
      <trkpt lat="49.68105" lon="4.70988">
        <ele>297</ele>
        <time>2022-04-03T09:48:03.000Z</time>
      </trkpt>
      <trkpt lat="49.68107" lon="4.70988">
        <ele>297</ele>
        <time>2022-04-03T09:48:04.000Z</time>
      </trkpt>
      <trkpt lat="49.68111" lon="4.70988">
        <ele>298</ele>
        <time>2022-04-03T09:48:05.000Z</time>
      </trkpt>
      <trkpt lat="49.68115" lon="4.70987">
        <ele>298</ele>
        <time>2022-04-03T09:48:06.000Z</time>
      </trkpt>
      <trkpt lat="49.68119" lon="4.70986">
        <ele>298</ele>
        <time>2022-04-03T09:48:07.000Z</time>
      </trkpt>
      <trkpt lat="49.68123" lon="4.70986">
        <ele>298</ele>
        <time>2022-04-03T09:48:08.000Z</time>
      </trkpt>
      <trkpt lat="49.68128" lon="4.70985">
        <ele>298</ele>
        <time>2022-04-03T09:48:09.000Z</time>
      </trkpt>
      <trkpt lat="49.68135" lon="4.70983">
        <ele>298</ele>
        <time>2022-04-03T09:48:10.000Z</time>
      </trkpt>
      <trkpt lat="49.6814" lon="4.7098">
        <ele>298</ele>
        <time>2022-04-03T09:48:11.000Z</time>
      </trkpt>
      <trkpt lat="49.68147" lon="4.70977">
        <ele>297</ele>
        <time>2022-04-03T09:48:12.000Z</time>
      </trkpt>
      <trkpt lat="49.68154" lon="4.70974">
        <ele>297</ele>
        <time>2022-04-03T09:48:13.000Z</time>
      </trkpt>
      <trkpt lat="49.68162" lon="4.7097">
        <ele>297</ele>
        <time>2022-04-03T09:48:14.000Z</time>
      </trkpt>
      <trkpt lat="49.6817" lon="4.70965">
        <ele>297</ele>
        <time>2022-04-03T09:48:15.000Z</time>
      </trkpt>
      <trkpt lat="49.68179" lon="4.7096">
        <ele>297</ele>
        <time>2022-04-03T09:48:16.000Z</time>
      </trkpt>
      <trkpt lat="49.68188" lon="4.70956">
        <ele>296</ele>
        <time>2022-04-03T09:48:17.000Z</time>
      </trkpt>
      <trkpt lat="49.68197" lon="4.70951">
        <ele>296</ele>
        <time>2022-04-03T09:48:18.000Z</time>
      </trkpt>
      <trkpt lat="49.68206" lon="4.70946">
        <ele>296</ele>
        <time>2022-04-03T09:48:19.000Z</time>
      </trkpt>
      <trkpt lat="49.68216" lon="4.7094">
        <ele>295</ele>
        <time>2022-04-03T09:48:20.000Z</time>
      </trkpt>
      <trkpt lat="49.68226" lon="4.70933">
        <ele>295</ele>
        <time>2022-04-03T09:48:21.000Z</time>
      </trkpt>
      <trkpt lat="49.68236" lon="4.70928">
        <ele>294</ele>
        <time>2022-04-03T09:48:22.000Z</time>
      </trkpt>
      <trkpt lat="49.68247" lon="4.70923">
        <ele>294</ele>
        <time>2022-04-03T09:48:23.000Z</time>
      </trkpt>
      <trkpt lat="49.68257" lon="4.70918">
        <ele>293</ele>
        <time>2022-04-03T09:48:24.000Z</time>
      </trkpt>
      <trkpt lat="49.68266" lon="4.70912">
        <ele>292</ele>
        <time>2022-04-03T09:48:25.000Z</time>
      </trkpt>
      <trkpt lat="49.68275" lon="4.70906">
        <ele>292</ele>
        <time>2022-04-03T09:48:26.000Z</time>
      </trkpt>
      <trkpt lat="49.68285" lon="4.70901">
        <ele>291</ele>
        <time>2022-04-03T09:48:27.000Z</time>
      </trkpt>
      <trkpt lat="49.68294" lon="4.70896">
        <ele>290</ele>
        <time>2022-04-03T09:48:28.000Z</time>
      </trkpt>
      <trkpt lat="49.68303" lon="4.70892">
        <ele>289</ele>
        <time>2022-04-03T09:48:29.000Z</time>
      </trkpt>
      <trkpt lat="49.68313" lon="4.70889">
        <ele>288</ele>
        <time>2022-04-03T09:48:30.000Z</time>
      </trkpt>
      <trkpt lat="49.68322" lon="4.70886">
        <ele>287</ele>
        <time>2022-04-03T09:48:31.000Z</time>
      </trkpt>
      <trkpt lat="49.6833" lon="4.70886">
        <ele>286</ele>
        <time>2022-04-03T09:48:32.000Z</time>
      </trkpt>
      <trkpt lat="49.68338" lon="4.70887">
        <ele>285</ele>
        <time>2022-04-03T09:48:33.000Z</time>
      </trkpt>
      <trkpt lat="49.68346" lon="4.7089">
        <ele>284</ele>
        <time>2022-04-03T09:48:34.000Z</time>
      </trkpt>
      <trkpt lat="49.68352" lon="4.70893">
        <ele>284</ele>
        <time>2022-04-03T09:48:35.000Z</time>
      </trkpt>
      <trkpt lat="49.68358" lon="4.70896">
        <ele>283</ele>
        <time>2022-04-03T09:48:36.000Z</time>
      </trkpt>
      <trkpt lat="49.68364" lon="4.709">
        <ele>282</ele>
        <time>2022-04-03T09:48:37.000Z</time>
      </trkpt>
      <trkpt lat="49.68369" lon="4.70903">
        <ele>282</ele>
        <time>2022-04-03T09:48:38.000Z</time>
      </trkpt>
      <trkpt lat="49.68373" lon="4.70907">
        <ele>281</ele>
        <time>2022-04-03T09:48:39.000Z</time>
      </trkpt>
      <trkpt lat="49.68377" lon="4.70911">
        <ele>281</ele>
        <time>2022-04-03T09:48:40.000Z</time>
      </trkpt>
      <trkpt lat="49.68382" lon="4.70915">
        <ele>280</ele>
        <time>2022-04-03T09:48:41.000Z</time>
      </trkpt>
      <trkpt lat="49.68387" lon="4.70919">
        <ele>280</ele>
        <time>2022-04-03T09:48:42.000Z</time>
      </trkpt>
      <trkpt lat="49.68391" lon="4.70923">
        <ele>279</ele>
        <time>2022-04-03T09:48:43.000Z</time>
      </trkpt>
      <trkpt lat="49.68395" lon="4.70927">
        <ele>279</ele>
        <time>2022-04-03T09:48:44.000Z</time>
      </trkpt>
      <trkpt lat="49.684" lon="4.70932">
        <ele>279</ele>
        <time>2022-04-03T09:48:45.000Z</time>
      </trkpt>
      <trkpt lat="49.68404" lon="4.70936">
        <ele>278</ele>
        <time>2022-04-03T09:48:46.000Z</time>
      </trkpt>
      <trkpt lat="49.68408" lon="4.70939">
        <ele>278</ele>
        <time>2022-04-03T09:48:47.000Z</time>
      </trkpt>
      <trkpt lat="49.68411" lon="4.70943">
        <ele>278</ele>
        <time>2022-04-03T09:48:48.000Z</time>
      </trkpt>
      <trkpt lat="49.68414" lon="4.70947">
        <ele>278</ele>
        <time>2022-04-03T09:48:49.000Z</time>
      </trkpt>
      <trkpt lat="49.68418" lon="4.70951">
        <ele>278</ele>
        <time>2022-04-03T09:48:50.000Z</time>
      </trkpt>
      <trkpt lat="49.68421" lon="4.70955">
        <ele>277</ele>
        <time>2022-04-03T09:48:51.000Z</time>
      </trkpt>
      <trkpt lat="49.68424" lon="4.70958">
        <ele>277</ele>
        <time>2022-04-03T09:48:52.000Z</time>
      </trkpt>
      <trkpt lat="49.68428" lon="4.70963">
        <ele>277</ele>
        <time>2022-04-03T09:48:53.000Z</time>
      </trkpt>
      <trkpt lat="49.68431" lon="4.70967">
        <ele>277</ele>
        <time>2022-04-03T09:48:54.000Z</time>
      </trkpt>
      <trkpt lat="49.68435" lon="4.70972">
        <ele>277</ele>
        <time>2022-04-03T09:48:55.000Z</time>
      </trkpt>
      <trkpt lat="49.68439" lon="4.70977">
        <ele>277</ele>
        <time>2022-04-03T09:48:56.000Z</time>
      </trkpt>
      <trkpt lat="49.68443" lon="4.70981">
        <ele>277</ele>
        <time>2022-04-03T09:48:57.000Z</time>
      </trkpt>
      <trkpt lat="49.68447" lon="4.70986">
        <ele>277</ele>
        <time>2022-04-03T09:48:58.000Z</time>
      </trkpt>
      <trkpt lat="49.68451" lon="4.70991">
        <ele>277</ele>
        <time>2022-04-03T09:48:59.000Z</time>
      </trkpt>
      <trkpt lat="49.68455" lon="4.70997">
        <ele>277</ele>
        <time>2022-04-03T09:49:00.000Z</time>
      </trkpt>
      <trkpt lat="49.68458" lon="4.71002">
        <ele>277</ele>
        <time>2022-04-03T09:49:01.000Z</time>
      </trkpt>
      <trkpt lat="49.68461" lon="4.71007">
        <ele>278</ele>
        <time>2022-04-03T09:49:02.000Z</time>
      </trkpt>
      <trkpt lat="49.68464" lon="4.71011">
        <ele>278</ele>
        <time>2022-04-03T09:49:03.000Z</time>
      </trkpt>
      <trkpt lat="49.68468" lon="4.71015">
        <ele>278</ele>
        <time>2022-04-03T09:49:04.000Z</time>
      </trkpt>
      <trkpt lat="49.68471" lon="4.71019">
        <ele>279</ele>
        <time>2022-04-03T09:49:05.000Z</time>
      </trkpt>
      <trkpt lat="49.68474" lon="4.71024">
        <ele>279</ele>
        <time>2022-04-03T09:49:06.000Z</time>
      </trkpt>
      <trkpt lat="49.68476" lon="4.71028">
        <ele>279</ele>
        <time>2022-04-03T09:49:07.000Z</time>
      </trkpt>
      <trkpt lat="49.68478" lon="4.71032">
        <ele>280</ele>
        <time>2022-04-03T09:49:08.000Z</time>
      </trkpt>
      <trkpt lat="49.6848" lon="4.71035">
        <ele>280</ele>
        <time>2022-04-03T09:49:09.000Z</time>
      </trkpt>
      <trkpt lat="49.68483" lon="4.71038">
        <ele>280</ele>
        <time>2022-04-03T09:49:10.000Z</time>
      </trkpt>
      <trkpt lat="49.68485" lon="4.71041">
        <ele>281</ele>
        <time>2022-04-03T09:49:11.000Z</time>
      </trkpt>
      <trkpt lat="49.68488" lon="4.71044">
        <ele>281</ele>
        <time>2022-04-03T09:49:12.000Z</time>
      </trkpt>
      <trkpt lat="49.6849" lon="4.71046">
        <ele>281</ele>
        <time>2022-04-03T09:49:13.000Z</time>
      </trkpt>
      <trkpt lat="49.68492" lon="4.71049">
        <ele>281</ele>
        <time>2022-04-03T09:49:14.000Z</time>
      </trkpt>
      <trkpt lat="49.68494" lon="4.71053">
        <ele>281</ele>
        <time>2022-04-03T09:49:15.000Z</time>
      </trkpt>
      <trkpt lat="49.68496" lon="4.71056">
        <ele>282</ele>
        <time>2022-04-03T09:49:16.000Z</time>
      </trkpt>
      <trkpt lat="49.68498" lon="4.7106">
        <ele>282</ele>
        <time>2022-04-03T09:49:17.000Z</time>
      </trkpt>
      <trkpt lat="49.68499" lon="4.71065">
        <ele>282</ele>
        <time>2022-04-03T09:49:18.000Z</time>
      </trkpt>
      <trkpt lat="49.68501" lon="4.7107">
        <ele>282</ele>
        <time>2022-04-03T09:49:19.000Z</time>
      </trkpt>
      <trkpt lat="49.68502" lon="4.71076">
        <ele>282</ele>
        <time>2022-04-03T09:49:20.000Z</time>
      </trkpt>
      <trkpt lat="49.68504" lon="4.71081">
        <ele>282</ele>
        <time>2022-04-03T09:49:21.000Z</time>
      </trkpt>
      <trkpt lat="49.68505" lon="4.71088">
        <ele>282</ele>
        <time>2022-04-03T09:49:22.000Z</time>
      </trkpt>
      <trkpt lat="49.68506" lon="4.71095">
        <ele>282</ele>
        <time>2022-04-03T09:49:23.000Z</time>
      </trkpt>
      <trkpt lat="49.68508" lon="4.71102">
        <ele>282</ele>
        <time>2022-04-03T09:49:24.000Z</time>
      </trkpt>
      <trkpt lat="49.68509" lon="4.71108">
        <ele>282</ele>
        <time>2022-04-03T09:49:25.000Z</time>
      </trkpt>
      <trkpt lat="49.68509" lon="4.71115">
        <ele>282</ele>
        <time>2022-04-03T09:49:26.000Z</time>
      </trkpt>
      <trkpt lat="49.6851" lon="4.71122">
        <ele>282</ele>
        <time>2022-04-03T09:49:27.000Z</time>
      </trkpt>
      <trkpt lat="49.68511" lon="4.71129">
        <ele>282</ele>
        <time>2022-04-03T09:49:28.000Z</time>
      </trkpt>
      <trkpt lat="49.68512" lon="4.71135">
        <ele>282</ele>
        <time>2022-04-03T09:49:29.000Z</time>
      </trkpt>
      <trkpt lat="49.68512" lon="4.71142">
        <ele>282</ele>
        <time>2022-04-03T09:49:30.000Z</time>
      </trkpt>
      <trkpt lat="49.68513" lon="4.71149">
        <ele>282</ele>
        <time>2022-04-03T09:49:31.000Z</time>
      </trkpt>
      <trkpt lat="49.68515" lon="4.71156">
        <ele>282</ele>
        <time>2022-04-03T09:49:32.000Z</time>
      </trkpt>
      <trkpt lat="49.68517" lon="4.71163">
        <ele>282</ele>
        <time>2022-04-03T09:49:33.000Z</time>
      </trkpt>
      <trkpt lat="49.68518" lon="4.7117">
        <ele>282</ele>
        <time>2022-04-03T09:49:34.000Z</time>
      </trkpt>
      <trkpt lat="49.68519" lon="4.71177">
        <ele>282</ele>
        <time>2022-04-03T09:49:35.000Z</time>
      </trkpt>
      <trkpt lat="49.6852" lon="4.71185">
        <ele>282</ele>
        <time>2022-04-03T09:49:36.000Z</time>
      </trkpt>
      <trkpt lat="49.68521" lon="4.71192">
        <ele>282</ele>
        <time>2022-04-03T09:49:37.000Z</time>
      </trkpt>
      <trkpt lat="49.68522" lon="4.71199">
        <ele>282</ele>
        <time>2022-04-03T09:49:38.000Z</time>
      </trkpt>
      <trkpt lat="49.68522" lon="4.71206">
        <ele>282</ele>
        <time>2022-04-03T09:49:39.000Z</time>
      </trkpt>
      <trkpt lat="49.68523" lon="4.71211">
        <ele>282</ele>
        <time>2022-04-03T09:49:40.000Z</time>
      </trkpt>
      <trkpt lat="49.68523" lon="4.71216">
        <ele>282</ele>
        <time>2022-04-03T09:49:41.000Z</time>
      </trkpt>
      <trkpt lat="49.68523" lon="4.71222">
        <ele>282</ele>
        <time>2022-04-03T09:49:42.000Z</time>
      </trkpt>
      <trkpt lat="49.68522" lon="4.71229">
        <ele>282</ele>
        <time>2022-04-03T09:49:43.000Z</time>
      </trkpt>
      <trkpt lat="49.6852" lon="4.71235">
        <ele>282</ele>
        <time>2022-04-03T09:49:44.000Z</time>
      </trkpt>
      <trkpt lat="49.68517" lon="4.71241">
        <ele>282</ele>
        <time>2022-04-03T09:49:45.000Z</time>
      </trkpt>
      <trkpt lat="49.68515" lon="4.71248">
        <ele>282</ele>
        <time>2022-04-03T09:49:46.000Z</time>
      </trkpt>
      <trkpt lat="49.68513" lon="4.71255">
        <ele>282</ele>
        <time>2022-04-03T09:49:47.000Z</time>
      </trkpt>
      <trkpt lat="49.6851" lon="4.71261">
        <ele>282</ele>
        <time>2022-04-03T09:49:48.000Z</time>
      </trkpt>
      <trkpt lat="49.68508" lon="4.71267">
        <ele>282</ele>
        <time>2022-04-03T09:49:49.000Z</time>
      </trkpt>
      <trkpt lat="49.68505" lon="4.71273">
        <ele>282</ele>
        <time>2022-04-03T09:49:50.000Z</time>
      </trkpt>
      <trkpt lat="49.68503" lon="4.7128">
        <ele>282</ele>
        <time>2022-04-03T09:49:51.000Z</time>
      </trkpt>
      <trkpt lat="49.68501" lon="4.71286">
        <ele>282</ele>
        <time>2022-04-03T09:49:52.000Z</time>
      </trkpt>
      <trkpt lat="49.68498" lon="4.71294">
        <ele>282</ele>
        <time>2022-04-03T09:49:53.000Z</time>
      </trkpt>
      <trkpt lat="49.68495" lon="4.71301">
        <ele>282</ele>
        <time>2022-04-03T09:49:54.000Z</time>
      </trkpt>
      <trkpt lat="49.68492" lon="4.71309">
        <ele>282</ele>
        <time>2022-04-03T09:49:55.000Z</time>
      </trkpt>
      <trkpt lat="49.68489" lon="4.71318">
        <ele>282</ele>
        <time>2022-04-03T09:49:56.000Z</time>
      </trkpt>
      <trkpt lat="49.68487" lon="4.71327">
        <ele>282</ele>
        <time>2022-04-03T09:49:57.000Z</time>
      </trkpt>
      <trkpt lat="49.68484" lon="4.71335">
        <ele>282</ele>
        <time>2022-04-03T09:49:58.000Z</time>
      </trkpt>
      <trkpt lat="49.68481" lon="4.71345">
        <ele>282</ele>
        <time>2022-04-03T09:49:59.000Z</time>
      </trkpt>
      <trkpt lat="49.68479" lon="4.71353">
        <ele>281</ele>
        <time>2022-04-03T09:50:00.000Z</time>
      </trkpt>
      <trkpt lat="49.68477" lon="4.71361">
        <ele>281</ele>
        <time>2022-04-03T09:50:01.000Z</time>
      </trkpt>
      <trkpt lat="49.68473" lon="4.71369">
        <ele>281</ele>
        <time>2022-04-03T09:50:02.000Z</time>
      </trkpt>
      <trkpt lat="49.6847" lon="4.71376">
        <ele>281</ele>
        <time>2022-04-03T09:50:03.000Z</time>
      </trkpt>
      <trkpt lat="49.68467" lon="4.71383">
        <ele>281</ele>
        <time>2022-04-03T09:50:04.000Z</time>
      </trkpt>
      <trkpt lat="49.68465" lon="4.71391">
        <ele>281</ele>
        <time>2022-04-03T09:50:05.000Z</time>
      </trkpt>
      <trkpt lat="49.68462" lon="4.71399">
        <ele>281</ele>
        <time>2022-04-03T09:50:06.000Z</time>
      </trkpt>
      <trkpt lat="49.6846" lon="4.71407">
        <ele>281</ele>
        <time>2022-04-03T09:50:07.000Z</time>
      </trkpt>
      <trkpt lat="49.68457" lon="4.71414">
        <ele>280</ele>
        <time>2022-04-03T09:50:08.000Z</time>
      </trkpt>
      <trkpt lat="49.68455" lon="4.71422">
        <ele>280</ele>
        <time>2022-04-03T09:50:09.000Z</time>
      </trkpt>
      <trkpt lat="49.68454" lon="4.7143">
        <ele>280</ele>
        <time>2022-04-03T09:50:10.000Z</time>
      </trkpt>
      <trkpt lat="49.68452" lon="4.71436">
        <ele>280</ele>
        <time>2022-04-03T09:50:11.000Z</time>
      </trkpt>
      <trkpt lat="49.68451" lon="4.71441">
        <ele>280</ele>
        <time>2022-04-03T09:50:12.000Z</time>
      </trkpt>
      <trkpt lat="49.68449" lon="4.71447">
        <ele>279</ele>
        <time>2022-04-03T09:50:13.000Z</time>
      </trkpt>
      <trkpt lat="49.68447" lon="4.71454">
        <ele>279</ele>
        <time>2022-04-03T09:50:14.000Z</time>
      </trkpt>
      <trkpt lat="49.68445" lon="4.71461">
        <ele>279</ele>
        <time>2022-04-03T09:50:15.000Z</time>
      </trkpt>
      <trkpt lat="49.68443" lon="4.71469">
        <ele>278</ele>
        <time>2022-04-03T09:50:16.000Z</time>
      </trkpt>
      <trkpt lat="49.68441" lon="4.71476">
        <ele>278</ele>
        <time>2022-04-03T09:50:17.000Z</time>
      </trkpt>
      <trkpt lat="49.68438" lon="4.71483">
        <ele>278</ele>
        <time>2022-04-03T09:50:18.000Z</time>
      </trkpt>
      <trkpt lat="49.68436" lon="4.71491">
        <ele>277</ele>
        <time>2022-04-03T09:50:19.000Z</time>
      </trkpt>
      <trkpt lat="49.68435" lon="4.715">
        <ele>277</ele>
        <time>2022-04-03T09:50:20.000Z</time>
      </trkpt>
      <trkpt lat="49.68433" lon="4.71507">
        <ele>277</ele>
        <time>2022-04-03T09:50:21.000Z</time>
      </trkpt>
      <trkpt lat="49.68431" lon="4.71515">
        <ele>276</ele>
        <time>2022-04-03T09:50:22.000Z</time>
      </trkpt>
      <trkpt lat="49.6843" lon="4.71522">
        <ele>276</ele>
        <time>2022-04-03T09:50:23.000Z</time>
      </trkpt>
      <trkpt lat="49.68428" lon="4.7153">
        <ele>275</ele>
        <time>2022-04-03T09:50:24.000Z</time>
      </trkpt>
      <trkpt lat="49.68426" lon="4.71536">
        <ele>275</ele>
        <time>2022-04-03T09:50:25.000Z</time>
      </trkpt>
      <trkpt lat="49.68424" lon="4.71541">
        <ele>275</ele>
        <time>2022-04-03T09:50:26.000Z</time>
      </trkpt>
      <trkpt lat="49.68421" lon="4.71545">
        <ele>275</ele>
        <time>2022-04-03T09:50:27.000Z</time>
      </trkpt>
      <trkpt lat="49.68419" lon="4.71548">
        <ele>274</ele>
        <time>2022-04-03T09:50:28.000Z</time>
      </trkpt>
      <trkpt lat="49.68417" lon="4.7155">
        <ele>274</ele>
        <time>2022-04-03T09:50:29.000Z</time>
      </trkpt>
      <trkpt lat="49.68415" lon="4.71553">
        <ele>274</ele>
        <time>2022-04-03T09:50:30.000Z</time>
      </trkpt>
      <trkpt lat="49.68413" lon="4.71556">
        <ele>274</ele>
        <time>2022-04-03T09:50:31.000Z</time>
      </trkpt>
      <trkpt lat="49.68411" lon="4.71561">
        <ele>273</ele>
        <time>2022-04-03T09:50:32.000Z</time>
      </trkpt>
      <trkpt lat="49.68409" lon="4.71565">
        <ele>273</ele>
        <time>2022-04-03T09:50:33.000Z</time>
      </trkpt>
      <trkpt lat="49.68406" lon="4.71569">
        <ele>273</ele>
        <time>2022-04-03T09:50:34.000Z</time>
      </trkpt>
      <trkpt lat="49.68402" lon="4.71574">
        <ele>272</ele>
        <time>2022-04-03T09:50:35.000Z</time>
      </trkpt>
      <trkpt lat="49.68398" lon="4.71578">
        <ele>272</ele>
        <time>2022-04-03T09:50:36.000Z</time>
      </trkpt>
      <trkpt lat="49.68395" lon="4.71581">
        <ele>272</ele>
        <time>2022-04-03T09:50:37.000Z</time>
      </trkpt>
      <trkpt lat="49.68392" lon="4.71583">
        <ele>271</ele>
        <time>2022-04-03T09:50:38.000Z</time>
      </trkpt>
      <trkpt lat="49.68389" lon="4.71583">
        <ele>271</ele>
        <time>2022-04-03T09:50:39.000Z</time>
      </trkpt>
      <trkpt lat="49.68386" lon="4.71584">
        <ele>271</ele>
        <time>2022-04-03T09:50:40.000Z</time>
      </trkpt>
      <trkpt lat="49.68384" lon="4.71583">
        <ele>270</ele>
        <time>2022-04-03T09:50:41.000Z</time>
      </trkpt>
      <trkpt lat="49.68381" lon="4.71582">
        <ele>270</ele>
        <time>2022-04-03T09:50:42.000Z</time>
      </trkpt>
      <trkpt lat="49.68379" lon="4.71581">
        <ele>269</ele>
        <time>2022-04-03T09:50:43.000Z</time>
      </trkpt>
      <trkpt lat="49.68376" lon="4.71579">
        <ele>269</ele>
        <time>2022-04-03T09:50:44.000Z</time>
      </trkpt>
      <trkpt lat="49.68373" lon="4.71578">
        <ele>269</ele>
        <time>2022-04-03T09:50:45.000Z</time>
      </trkpt>
      <trkpt lat="49.6837" lon="4.71576">
        <ele>268</ele>
        <time>2022-04-03T09:50:46.000Z</time>
      </trkpt>
      <trkpt lat="49.68367" lon="4.71576">
        <ele>268</ele>
        <time>2022-04-03T09:50:47.000Z</time>
      </trkpt>
      <trkpt lat="49.68364" lon="4.71579">
        <ele>267</ele>
        <time>2022-04-03T09:50:48.000Z</time>
      </trkpt>
      <trkpt lat="49.68363" lon="4.71583">
        <ele>266</ele>
        <time>2022-04-03T09:50:49.000Z</time>
      </trkpt>
      <trkpt lat="49.68361" lon="4.71588">
        <ele>266</ele>
        <time>2022-04-03T09:50:50.000Z</time>
      </trkpt>
      <trkpt lat="49.68359" lon="4.71594">
        <ele>265</ele>
        <time>2022-04-03T09:50:51.000Z</time>
      </trkpt>
      <trkpt lat="49.68358" lon="4.71599">
        <ele>265</ele>
        <time>2022-04-03T09:50:52.000Z</time>
      </trkpt>
      <trkpt lat="49.68357" lon="4.71603">
        <ele>264</ele>
        <time>2022-04-03T09:50:53.000Z</time>
      </trkpt>
      <trkpt lat="49.68356" lon="4.71607">
        <ele>263</ele>
        <time>2022-04-03T09:50:54.000Z</time>
      </trkpt>
      <trkpt lat="49.68354" lon="4.71611">
        <ele>263</ele>
        <time>2022-04-03T09:50:55.000Z</time>
      </trkpt>
      <trkpt lat="49.68353" lon="4.71617">
        <ele>262</ele>
        <time>2022-04-03T09:50:56.000Z</time>
      </trkpt>
      <trkpt lat="49.68352" lon="4.71623">
        <ele>261</ele>
        <time>2022-04-03T09:50:57.000Z</time>
      </trkpt>
      <trkpt lat="49.68352" lon="4.71628">
        <ele>261</ele>
        <time>2022-04-03T09:50:58.000Z</time>
      </trkpt>
      <trkpt lat="49.68351" lon="4.71633">
        <ele>260</ele>
        <time>2022-04-03T09:50:59.000Z</time>
      </trkpt>
      <trkpt lat="49.68351" lon="4.71639">
        <ele>259</ele>
        <time>2022-04-03T09:51:00.000Z</time>
      </trkpt>
      <trkpt lat="49.6835" lon="4.71645">
        <ele>259</ele>
        <time>2022-04-03T09:51:01.000Z</time>
      </trkpt>
      <trkpt lat="49.68349" lon="4.7165">
        <ele>258</ele>
        <time>2022-04-03T09:51:02.000Z</time>
      </trkpt>
      <trkpt lat="49.68349" lon="4.71655">
        <ele>258</ele>
        <time>2022-04-03T09:51:03.000Z</time>
      </trkpt>
      <trkpt lat="49.68347" lon="4.7166">
        <ele>257</ele>
        <time>2022-04-03T09:51:04.000Z</time>
      </trkpt>
      <trkpt lat="49.68346" lon="4.71664">
        <ele>256</ele>
        <time>2022-04-03T09:51:05.000Z</time>
      </trkpt>
      <trkpt lat="49.68346" lon="4.71668">
        <ele>256</ele>
        <time>2022-04-03T09:51:06.000Z</time>
      </trkpt>
      <trkpt lat="49.68346" lon="4.71673">
        <ele>255</ele>
        <time>2022-04-03T09:51:07.000Z</time>
      </trkpt>
      <trkpt lat="49.68345" lon="4.71677">
        <ele>255</ele>
        <time>2022-04-03T09:51:08.000Z</time>
      </trkpt>
      <trkpt lat="49.68345" lon="4.71682">
        <ele>255</ele>
        <time>2022-04-03T09:51:09.000Z</time>
      </trkpt>
      <trkpt lat="49.68344" lon="4.71686">
        <ele>254</ele>
        <time>2022-04-03T09:51:10.000Z</time>
      </trkpt>
      <trkpt lat="49.68344" lon="4.71691">
        <ele>254</ele>
        <time>2022-04-03T09:51:11.000Z</time>
      </trkpt>
      <trkpt lat="49.68343" lon="4.71695">
        <ele>254</ele>
        <time>2022-04-03T09:51:12.000Z</time>
      </trkpt>
      <trkpt lat="49.68342" lon="4.717">
        <ele>253</ele>
        <time>2022-04-03T09:51:13.000Z</time>
      </trkpt>
      <trkpt lat="49.68342" lon="4.71705">
        <ele>253</ele>
        <time>2022-04-03T09:51:14.000Z</time>
      </trkpt>
      <trkpt lat="49.68343" lon="4.71709">
        <ele>253</ele>
        <time>2022-04-03T09:51:15.000Z</time>
      </trkpt>
      <trkpt lat="49.68343" lon="4.71712">
        <ele>253</ele>
        <time>2022-04-03T09:51:16.000Z</time>
      </trkpt>
      <trkpt lat="49.68343" lon="4.71716">
        <ele>253</ele>
        <time>2022-04-03T09:51:17.000Z</time>
      </trkpt>
      <trkpt lat="49.68343" lon="4.71719">
        <ele>252</ele>
        <time>2022-04-03T09:51:18.000Z</time>
      </trkpt>
      <trkpt lat="49.68342" lon="4.71722">
        <ele>252</ele>
        <time>2022-04-03T09:51:19.000Z</time>
      </trkpt>
      <trkpt lat="49.68342" lon="4.71726">
        <ele>252</ele>
        <time>2022-04-03T09:51:20.000Z</time>
      </trkpt>
      <trkpt lat="49.68342" lon="4.71729">
        <ele>252</ele>
        <time>2022-04-03T09:51:21.000Z</time>
      </trkpt>
      <trkpt lat="49.68342" lon="4.71733">
        <ele>252</ele>
        <time>2022-04-03T09:51:22.000Z</time>
      </trkpt>
      <trkpt lat="49.68342" lon="4.71737">
        <ele>252</ele>
        <time>2022-04-03T09:51:23.000Z</time>
      </trkpt>
      <trkpt lat="49.68342" lon="4.71741">
        <ele>252</ele>
        <time>2022-04-03T09:51:24.000Z</time>
      </trkpt>
      <trkpt lat="49.68342" lon="4.71745">
        <ele>252</ele>
        <time>2022-04-03T09:51:25.000Z</time>
      </trkpt>
      <trkpt lat="49.68342" lon="4.71749">
        <ele>252</ele>
        <time>2022-04-03T09:51:26.000Z</time>
      </trkpt>
      <trkpt lat="49.68343" lon="4.71752">
        <ele>252</ele>
        <time>2022-04-03T09:51:27.000Z</time>
      </trkpt>
      <trkpt lat="49.68343" lon="4.71756">
        <ele>252</ele>
        <time>2022-04-03T09:51:28.000Z</time>
      </trkpt>
      <trkpt lat="49.68343" lon="4.71759">
        <ele>252</ele>
        <time>2022-04-03T09:51:29.000Z</time>
      </trkpt>
      <trkpt lat="49.68343" lon="4.71763">
        <ele>252</ele>
        <time>2022-04-03T09:51:30.000Z</time>
      </trkpt>
      <trkpt lat="49.68343" lon="4.71766">
        <ele>252</ele>
        <time>2022-04-03T09:51:31.000Z</time>
      </trkpt>
      <trkpt lat="49.68342" lon="4.7177">
        <ele>253</ele>
        <time>2022-04-03T09:51:32.000Z</time>
      </trkpt>
      <trkpt lat="49.68342" lon="4.71773">
        <ele>253</ele>
        <time>2022-04-03T09:51:33.000Z</time>
      </trkpt>
      <trkpt lat="49.68341" lon="4.71777">
        <ele>253</ele>
        <time>2022-04-03T09:51:34.000Z</time>
      </trkpt>
      <trkpt lat="49.68341" lon="4.7178">
        <ele>253</ele>
        <time>2022-04-03T09:51:35.000Z</time>
      </trkpt>
      <trkpt lat="49.68341" lon="4.71783">
        <ele>253</ele>
        <time>2022-04-03T09:51:36.000Z</time>
      </trkpt>
      <trkpt lat="49.68341" lon="4.71786">
        <ele>253</ele>
        <time>2022-04-03T09:51:37.000Z</time>
      </trkpt>
      <trkpt lat="49.6834" lon="4.71789">
        <ele>253</ele>
        <time>2022-04-03T09:51:38.000Z</time>
      </trkpt>
      <trkpt lat="49.6834" lon="4.71793">
        <ele>254</ele>
        <time>2022-04-03T09:51:39.000Z</time>
      </trkpt>
      <trkpt lat="49.6834" lon="4.71796">
        <ele>254</ele>
        <time>2022-04-03T09:51:40.000Z</time>
      </trkpt>
      <trkpt lat="49.6834" lon="4.71799">
        <ele>254</ele>
        <time>2022-04-03T09:51:41.000Z</time>
      </trkpt>
      <trkpt lat="49.6834" lon="4.71801">
        <ele>254</ele>
        <time>2022-04-03T09:51:42.000Z</time>
      </trkpt>
      <trkpt lat="49.6834" lon="4.71804">
        <ele>255</ele>
        <time>2022-04-03T09:51:43.000Z</time>
      </trkpt>
      <trkpt lat="49.6834" lon="4.71808">
        <ele>255</ele>
        <time>2022-04-03T09:51:44.000Z</time>
      </trkpt>
      <trkpt lat="49.6834" lon="4.71809">
        <ele>255</ele>
        <time>2022-04-03T09:51:45.000Z</time>
      </trkpt>
      <trkpt lat="49.6834" lon="4.71811">
        <ele>255</ele>
        <time>2022-04-03T09:51:46.000Z</time>
      </trkpt>
      <trkpt lat="49.68339" lon="4.71813">
        <ele>256</ele>
        <time>2022-04-03T09:51:47.000Z</time>
      </trkpt>
      <trkpt lat="49.68339" lon="4.71816">
        <ele>256</ele>
        <time>2022-04-03T09:51:48.000Z</time>
      </trkpt>
      <trkpt lat="49.68338" lon="4.71819">
        <ele>256</ele>
        <time>2022-04-03T09:51:49.000Z</time>
      </trkpt>
      <trkpt lat="49.68338" lon="4.7182">
        <ele>256</ele>
        <time>2022-04-03T09:51:50.000Z</time>
      </trkpt>
      <trkpt lat="49.68338" lon="4.71822">
        <ele>257</ele>
        <time>2022-04-03T09:51:51.000Z</time>
      </trkpt>
      <trkpt lat="49.68337" lon="4.71825">
        <ele>257</ele>
        <time>2022-04-03T09:51:52.000Z</time>
      </trkpt>
      <trkpt lat="49.68338" lon="4.71828">
        <ele>257</ele>
        <time>2022-04-03T09:51:53.000Z</time>
      </trkpt>
      <trkpt lat="49.68338" lon="4.71831">
        <ele>257</ele>
        <time>2022-04-03T09:51:54.000Z</time>
      </trkpt>
      <trkpt lat="49.68338" lon="4.71833">
        <ele>258</ele>
        <time>2022-04-03T09:51:55.000Z</time>
      </trkpt>
      <trkpt lat="49.68338" lon="4.71836">
        <ele>258</ele>
        <time>2022-04-03T09:51:56.000Z</time>
      </trkpt>
      <trkpt lat="49.68337" lon="4.71838">
        <ele>258</ele>
        <time>2022-04-03T09:51:57.000Z</time>
      </trkpt>
      <trkpt lat="49.68336" lon="4.71841">
        <ele>258</ele>
        <time>2022-04-03T09:51:58.000Z</time>
      </trkpt>
      <trkpt lat="49.68334" lon="4.71844">
        <ele>258</ele>
        <time>2022-04-03T09:51:59.000Z</time>
      </trkpt>
      <trkpt lat="49.68334" lon="4.71847">
        <ele>258</ele>
        <time>2022-04-03T09:52:00.000Z</time>
      </trkpt>
      <trkpt lat="49.68333" lon="4.7185">
        <ele>259</ele>
        <time>2022-04-03T09:52:01.000Z</time>
      </trkpt>
      <trkpt lat="49.68333" lon="4.71853">
        <ele>259</ele>
        <time>2022-04-03T09:52:02.000Z</time>
      </trkpt>
      <trkpt lat="49.68333" lon="4.71857">
        <ele>259</ele>
        <time>2022-04-03T09:52:03.000Z</time>
      </trkpt>
      <trkpt lat="49.68333" lon="4.71859">
        <ele>259</ele>
        <time>2022-04-03T09:52:04.000Z</time>
      </trkpt>
      <trkpt lat="49.68332" lon="4.71862">
        <ele>259</ele>
        <time>2022-04-03T09:52:05.000Z</time>
      </trkpt>
      <trkpt lat="49.68332" lon="4.71864">
        <ele>259</ele>
        <time>2022-04-03T09:52:06.000Z</time>
      </trkpt>
      <trkpt lat="49.68332" lon="4.71867">
        <ele>259</ele>
        <time>2022-04-03T09:52:07.000Z</time>
      </trkpt>
      <trkpt lat="49.68332" lon="4.71869">
        <ele>259</ele>
        <time>2022-04-03T09:52:08.000Z</time>
      </trkpt>
      <trkpt lat="49.68332" lon="4.71872">
        <ele>259</ele>
        <time>2022-04-03T09:52:09.000Z</time>
      </trkpt>
      <trkpt lat="49.68331" lon="4.71875">
        <ele>259</ele>
        <time>2022-04-03T09:52:10.000Z</time>
      </trkpt>
      <trkpt lat="49.68331" lon="4.71878">
        <ele>259</ele>
        <time>2022-04-03T09:52:11.000Z</time>
      </trkpt>
      <trkpt lat="49.68331" lon="4.71881">
        <ele>259</ele>
        <time>2022-04-03T09:52:12.000Z</time>
      </trkpt>
      <trkpt lat="49.6833" lon="4.71884">
        <ele>259</ele>
        <time>2022-04-03T09:52:13.000Z</time>
      </trkpt>
      <trkpt lat="49.6833" lon="4.71887">
        <ele>259</ele>
        <time>2022-04-03T09:52:14.000Z</time>
      </trkpt>
      <trkpt lat="49.6833" lon="4.71889">
        <ele>259</ele>
        <time>2022-04-03T09:52:15.000Z</time>
      </trkpt>
      <trkpt lat="49.68329" lon="4.71891">
        <ele>259</ele>
        <time>2022-04-03T09:52:16.000Z</time>
      </trkpt>
      <trkpt lat="49.68329" lon="4.71893">
        <ele>259</ele>
        <time>2022-04-03T09:52:17.000Z</time>
      </trkpt>
      <trkpt lat="49.68328" lon="4.71895">
        <ele>260</ele>
        <time>2022-04-03T09:52:18.000Z</time>
      </trkpt>
      <trkpt lat="49.68328" lon="4.71899">
        <ele>260</ele>
        <time>2022-04-03T09:52:19.000Z</time>
      </trkpt>
      <trkpt lat="49.68327" lon="4.71902">
        <ele>260</ele>
        <time>2022-04-03T09:52:20.000Z</time>
      </trkpt>
      <trkpt lat="49.68327" lon="4.71905">
        <ele>260</ele>
        <time>2022-04-03T09:52:21.000Z</time>
      </trkpt>
      <trkpt lat="49.68328" lon="4.71908">
        <ele>260</ele>
        <time>2022-04-03T09:52:22.000Z</time>
      </trkpt>
      <trkpt lat="49.68327" lon="4.7191">
        <ele>260</ele>
        <time>2022-04-03T09:52:23.000Z</time>
      </trkpt>
      <trkpt lat="49.68327" lon="4.71913">
        <ele>260</ele>
        <time>2022-04-03T09:52:24.000Z</time>
      </trkpt>
      <trkpt lat="49.68327" lon="4.71917">
        <ele>261</ele>
        <time>2022-04-03T09:52:25.000Z</time>
      </trkpt>
      <trkpt lat="49.68327" lon="4.7192">
        <ele>261</ele>
        <time>2022-04-03T09:52:26.000Z</time>
      </trkpt>
      <trkpt lat="49.68326" lon="4.71922">
        <ele>261</ele>
        <time>2022-04-03T09:52:27.000Z</time>
      </trkpt>
      <trkpt lat="49.68326" lon="4.71925">
        <ele>262</ele>
        <time>2022-04-03T09:52:28.000Z</time>
      </trkpt>
      <trkpt lat="49.68325" lon="4.71928">
        <ele>262</ele>
        <time>2022-04-03T09:52:29.000Z</time>
      </trkpt>
      <trkpt lat="49.68325" lon="4.71931">
        <ele>262</ele>
        <time>2022-04-03T09:52:30.000Z</time>
      </trkpt>
      <trkpt lat="49.68324" lon="4.71934">
        <ele>262</ele>
        <time>2022-04-03T09:52:31.000Z</time>
      </trkpt>
      <trkpt lat="49.68323" lon="4.71937">
        <ele>263</ele>
        <time>2022-04-03T09:52:32.000Z</time>
      </trkpt>
      <trkpt lat="49.68322" lon="4.7194">
        <ele>263</ele>
        <time>2022-04-03T09:52:33.000Z</time>
      </trkpt>
      <trkpt lat="49.68321" lon="4.71942">
        <ele>263</ele>
        <time>2022-04-03T09:52:34.000Z</time>
      </trkpt>
      <trkpt lat="49.68321" lon="4.71944">
        <ele>263</ele>
        <time>2022-04-03T09:52:35.000Z</time>
      </trkpt>
      <trkpt lat="49.6832" lon="4.71947">
        <ele>263</ele>
        <time>2022-04-03T09:52:36.000Z</time>
      </trkpt>
      <trkpt lat="49.6832" lon="4.71949">
        <ele>264</ele>
        <time>2022-04-03T09:52:37.000Z</time>
      </trkpt>
      <trkpt lat="49.6832" lon="4.71953">
        <ele>264</ele>
        <time>2022-04-03T09:52:38.000Z</time>
      </trkpt>
      <trkpt lat="49.68319" lon="4.71956">
        <ele>264</ele>
        <time>2022-04-03T09:52:39.000Z</time>
      </trkpt>
      <trkpt lat="49.68319" lon="4.71958">
        <ele>264</ele>
        <time>2022-04-03T09:52:40.000Z</time>
      </trkpt>
      <trkpt lat="49.68318" lon="4.71961">
        <ele>264</ele>
        <time>2022-04-03T09:52:41.000Z</time>
      </trkpt>
      <trkpt lat="49.68318" lon="4.71964">
        <ele>264</ele>
        <time>2022-04-03T09:52:42.000Z</time>
      </trkpt>
      <trkpt lat="49.68318" lon="4.71967">
        <ele>265</ele>
        <time>2022-04-03T09:52:43.000Z</time>
      </trkpt>
      <trkpt lat="49.68317" lon="4.71969">
        <ele>265</ele>
        <time>2022-04-03T09:52:44.000Z</time>
      </trkpt>
      <trkpt lat="49.68317" lon="4.71972">
        <ele>265</ele>
        <time>2022-04-03T09:52:45.000Z</time>
      </trkpt>
      <trkpt lat="49.68317" lon="4.71975">
        <ele>265</ele>
        <time>2022-04-03T09:52:46.000Z</time>
      </trkpt>
      <trkpt lat="49.68317" lon="4.71977">
        <ele>265</ele>
        <time>2022-04-03T09:52:47.000Z</time>
      </trkpt>
      <trkpt lat="49.68317" lon="4.71979">
        <ele>266</ele>
        <time>2022-04-03T09:52:48.000Z</time>
      </trkpt>
      <trkpt lat="49.68316" lon="4.71982">
        <ele>266</ele>
        <time>2022-04-03T09:52:49.000Z</time>
      </trkpt>
      <trkpt lat="49.68316" lon="4.71986">
        <ele>266</ele>
        <time>2022-04-03T09:52:50.000Z</time>
      </trkpt>
      <trkpt lat="49.68316" lon="4.7199">
        <ele>266</ele>
        <time>2022-04-03T09:52:51.000Z</time>
      </trkpt>
      <trkpt lat="49.68315" lon="4.71995">
        <ele>266</ele>
        <time>2022-04-03T09:52:52.000Z</time>
      </trkpt>
      <trkpt lat="49.68315" lon="4.71999">
        <ele>267</ele>
        <time>2022-04-03T09:52:53.000Z</time>
      </trkpt>
      <trkpt lat="49.68314" lon="4.72002">
        <ele>267</ele>
        <time>2022-04-03T09:52:54.000Z</time>
      </trkpt>
      <trkpt lat="49.68314" lon="4.72006">
        <ele>267</ele>
        <time>2022-04-03T09:52:55.000Z</time>
      </trkpt>
      <trkpt lat="49.68313" lon="4.72009">
        <ele>267</ele>
        <time>2022-04-03T09:52:56.000Z</time>
      </trkpt>
      <trkpt lat="49.68312" lon="4.72012">
        <ele>267</ele>
        <time>2022-04-03T09:52:57.000Z</time>
      </trkpt>
      <trkpt lat="49.68312" lon="4.72016">
        <ele>267</ele>
        <time>2022-04-03T09:52:58.000Z</time>
      </trkpt>
      <trkpt lat="49.68311" lon="4.7202">
        <ele>267</ele>
        <time>2022-04-03T09:52:59.000Z</time>
      </trkpt>
      <trkpt lat="49.6831" lon="4.72024">
        <ele>267</ele>
        <time>2022-04-03T09:53:00.000Z</time>
      </trkpt>
      <trkpt lat="49.68309" lon="4.72027">
        <ele>268</ele>
        <time>2022-04-03T09:53:01.000Z</time>
      </trkpt>
      <trkpt lat="49.68309" lon="4.72031">
        <ele>268</ele>
        <time>2022-04-03T09:53:02.000Z</time>
      </trkpt>
      <trkpt lat="49.68308" lon="4.72034">
        <ele>268</ele>
        <time>2022-04-03T09:53:03.000Z</time>
      </trkpt>
      <trkpt lat="49.68307" lon="4.72038">
        <ele>268</ele>
        <time>2022-04-03T09:53:04.000Z</time>
      </trkpt>
      <trkpt lat="49.68306" lon="4.72042">
        <ele>268</ele>
        <time>2022-04-03T09:53:05.000Z</time>
      </trkpt>
      <trkpt lat="49.68306" lon="4.72046">
        <ele>268</ele>
        <time>2022-04-03T09:53:06.000Z</time>
      </trkpt>
      <trkpt lat="49.68306" lon="4.72051">
        <ele>268</ele>
        <time>2022-04-03T09:53:07.000Z</time>
      </trkpt>
      <trkpt lat="49.68306" lon="4.72055">
        <ele>269</ele>
        <time>2022-04-03T09:53:08.000Z</time>
      </trkpt>
      <trkpt lat="49.68305" lon="4.72059">
        <ele>269</ele>
        <time>2022-04-03T09:53:09.000Z</time>
      </trkpt>
      <trkpt lat="49.68304" lon="4.72063">
        <ele>269</ele>
        <time>2022-04-03T09:53:10.000Z</time>
      </trkpt>
      <trkpt lat="49.68304" lon="4.72067">
        <ele>269</ele>
        <time>2022-04-03T09:53:11.000Z</time>
      </trkpt>
      <trkpt lat="49.68303" lon="4.72072">
        <ele>269</ele>
        <time>2022-04-03T09:53:12.000Z</time>
      </trkpt>
      <trkpt lat="49.68303" lon="4.72077">
        <ele>269</ele>
        <time>2022-04-03T09:53:13.000Z</time>
      </trkpt>
      <trkpt lat="49.68302" lon="4.72081">
        <ele>269</ele>
        <time>2022-04-03T09:53:14.000Z</time>
      </trkpt>
      <trkpt lat="49.68302" lon="4.72085">
        <ele>269</ele>
        <time>2022-04-03T09:53:15.000Z</time>
      </trkpt>
      <trkpt lat="49.68301" lon="4.72089">
        <ele>269</ele>
        <time>2022-04-03T09:53:16.000Z</time>
      </trkpt>
      <trkpt lat="49.68301" lon="4.72094">
        <ele>269</ele>
        <time>2022-04-03T09:53:17.000Z</time>
      </trkpt>
      <trkpt lat="49.683" lon="4.72099">
        <ele>269</ele>
        <time>2022-04-03T09:53:18.000Z</time>
      </trkpt>
      <trkpt lat="49.683" lon="4.72103">
        <ele>269</ele>
        <time>2022-04-03T09:53:19.000Z</time>
      </trkpt>
      <trkpt lat="49.683" lon="4.72108">
        <ele>269</ele>
        <time>2022-04-03T09:53:20.000Z</time>
      </trkpt>
      <trkpt lat="49.68301" lon="4.72112">
        <ele>269</ele>
        <time>2022-04-03T09:53:21.000Z</time>
      </trkpt>
      <trkpt lat="49.68301" lon="4.72116">
        <ele>269</ele>
        <time>2022-04-03T09:53:22.000Z</time>
      </trkpt>
      <trkpt lat="49.683" lon="4.7212">
        <ele>270</ele>
        <time>2022-04-03T09:53:23.000Z</time>
      </trkpt>
      <trkpt lat="49.68301" lon="4.72123">
        <ele>270</ele>
        <time>2022-04-03T09:53:24.000Z</time>
      </trkpt>
      <trkpt lat="49.68301" lon="4.72127">
        <ele>270</ele>
        <time>2022-04-03T09:53:25.000Z</time>
      </trkpt>
      <trkpt lat="49.683" lon="4.72131">
        <ele>270</ele>
        <time>2022-04-03T09:53:26.000Z</time>
      </trkpt>
      <trkpt lat="49.683" lon="4.72135">
        <ele>270</ele>
        <time>2022-04-03T09:53:27.000Z</time>
      </trkpt>
      <trkpt lat="49.68299" lon="4.72138">
        <ele>270</ele>
        <time>2022-04-03T09:53:28.000Z</time>
      </trkpt>
      <trkpt lat="49.68299" lon="4.72143">
        <ele>271</ele>
        <time>2022-04-03T09:53:29.000Z</time>
      </trkpt>
      <trkpt lat="49.68299" lon="4.72146">
        <ele>271</ele>
        <time>2022-04-03T09:53:30.000Z</time>
      </trkpt>
      <trkpt lat="49.68299" lon="4.7215">
        <ele>271</ele>
        <time>2022-04-03T09:53:31.000Z</time>
      </trkpt>
      <trkpt lat="49.683" lon="4.72154">
        <ele>271</ele>
        <time>2022-04-03T09:53:32.000Z</time>
      </trkpt>
      <trkpt lat="49.68301" lon="4.72157">
        <ele>272</ele>
        <time>2022-04-03T09:53:33.000Z</time>
      </trkpt>
      <trkpt lat="49.68301" lon="4.72161">
        <ele>272</ele>
        <time>2022-04-03T09:53:34.000Z</time>
      </trkpt>
      <trkpt lat="49.68301" lon="4.72165">
        <ele>272</ele>
        <time>2022-04-03T09:53:35.000Z</time>
      </trkpt>
      <trkpt lat="49.68301" lon="4.72169">
        <ele>272</ele>
        <time>2022-04-03T09:53:36.000Z</time>
      </trkpt>
      <trkpt lat="49.68301" lon="4.72174">
        <ele>272</ele>
        <time>2022-04-03T09:53:37.000Z</time>
      </trkpt>
      <trkpt lat="49.68301" lon="4.72178">
        <ele>273</ele>
        <time>2022-04-03T09:53:38.000Z</time>
      </trkpt>
      <trkpt lat="49.68302" lon="4.72183">
        <ele>273</ele>
        <time>2022-04-03T09:53:39.000Z</time>
      </trkpt>
      <trkpt lat="49.68303" lon="4.72188">
        <ele>273</ele>
        <time>2022-04-03T09:53:40.000Z</time>
      </trkpt>
      <trkpt lat="49.68303" lon="4.72193">
        <ele>274</ele>
        <time>2022-04-03T09:53:41.000Z</time>
      </trkpt>
      <trkpt lat="49.68304" lon="4.72198">
        <ele>274</ele>
        <time>2022-04-03T09:53:42.000Z</time>
      </trkpt>
      <trkpt lat="49.68305" lon="4.72203">
        <ele>275</ele>
        <time>2022-04-03T09:53:43.000Z</time>
      </trkpt>
      <trkpt lat="49.68306" lon="4.72208">
        <ele>275</ele>
        <time>2022-04-03T09:53:44.000Z</time>
      </trkpt>
      <trkpt lat="49.68306" lon="4.72212">
        <ele>275</ele>
        <time>2022-04-03T09:53:45.000Z</time>
      </trkpt>
      <trkpt lat="49.68307" lon="4.72217">
        <ele>276</ele>
        <time>2022-04-03T09:53:46.000Z</time>
      </trkpt>
      <trkpt lat="49.68309" lon="4.72221">
        <ele>276</ele>
        <time>2022-04-03T09:53:47.000Z</time>
      </trkpt>
      <trkpt lat="49.6831" lon="4.72225">
        <ele>277</ele>
        <time>2022-04-03T09:53:48.000Z</time>
      </trkpt>
      <trkpt lat="49.68312" lon="4.72229">
        <ele>277</ele>
        <time>2022-04-03T09:53:49.000Z</time>
      </trkpt>
      <trkpt lat="49.68313" lon="4.72232">
        <ele>278</ele>
        <time>2022-04-03T09:53:50.000Z</time>
      </trkpt>
      <trkpt lat="49.68315" lon="4.72235">
        <ele>278</ele>
        <time>2022-04-03T09:53:51.000Z</time>
      </trkpt>
      <trkpt lat="49.68316" lon="4.72238">
        <ele>279</ele>
        <time>2022-04-03T09:53:52.000Z</time>
      </trkpt>
      <trkpt lat="49.68317" lon="4.72242">
        <ele>279</ele>
        <time>2022-04-03T09:53:53.000Z</time>
      </trkpt>
      <trkpt lat="49.68318" lon="4.72245">
        <ele>279</ele>
        <time>2022-04-03T09:53:54.000Z</time>
      </trkpt>
      <trkpt lat="49.68319" lon="4.72249">
        <ele>280</ele>
        <time>2022-04-03T09:53:55.000Z</time>
      </trkpt>
      <trkpt lat="49.68321" lon="4.72252">
        <ele>280</ele>
        <time>2022-04-03T09:53:56.000Z</time>
      </trkpt>
      <trkpt lat="49.68321" lon="4.72255">
        <ele>281</ele>
        <time>2022-04-03T09:53:57.000Z</time>
      </trkpt>
      <trkpt lat="49.68322" lon="4.72259">
        <ele>281</ele>
        <time>2022-04-03T09:53:58.000Z</time>
      </trkpt>
      <trkpt lat="49.68324" lon="4.72263">
        <ele>281</ele>
        <time>2022-04-03T09:53:59.000Z</time>
      </trkpt>
      <trkpt lat="49.68325" lon="4.72267">
        <ele>281</ele>
        <time>2022-04-03T09:54:00.000Z</time>
      </trkpt>
      <trkpt lat="49.68327" lon="4.72271">
        <ele>282</ele>
        <time>2022-04-03T09:54:01.000Z</time>
      </trkpt>
      <trkpt lat="49.68328" lon="4.72275">
        <ele>282</ele>
        <time>2022-04-03T09:54:02.000Z</time>
      </trkpt>
      <trkpt lat="49.6833" lon="4.72279">
        <ele>282</ele>
        <time>2022-04-03T09:54:03.000Z</time>
      </trkpt>
      <trkpt lat="49.68331" lon="4.72283">
        <ele>283</ele>
        <time>2022-04-03T09:54:04.000Z</time>
      </trkpt>
      <trkpt lat="49.68331" lon="4.72286">
        <ele>283</ele>
        <time>2022-04-03T09:54:05.000Z</time>
      </trkpt>
      <trkpt lat="49.68333" lon="4.72289">
        <ele>283</ele>
        <time>2022-04-03T09:54:06.000Z</time>
      </trkpt>
      <trkpt lat="49.68333" lon="4.72293">
        <ele>284</ele>
        <time>2022-04-03T09:54:07.000Z</time>
      </trkpt>
      <trkpt lat="49.68334" lon="4.72296">
        <ele>284</ele>
        <time>2022-04-03T09:54:08.000Z</time>
      </trkpt>
      <trkpt lat="49.68335" lon="4.72299">
        <ele>284</ele>
        <time>2022-04-03T09:54:09.000Z</time>
      </trkpt>
      <trkpt lat="49.68336" lon="4.72302">
        <ele>284</ele>
        <time>2022-04-03T09:54:10.000Z</time>
      </trkpt>
      <trkpt lat="49.68337" lon="4.72306">
        <ele>285</ele>
        <time>2022-04-03T09:54:11.000Z</time>
      </trkpt>
      <trkpt lat="49.68339" lon="4.72309">
        <ele>285</ele>
        <time>2022-04-03T09:54:12.000Z</time>
      </trkpt>
      <trkpt lat="49.68339" lon="4.72312">
        <ele>285</ele>
        <time>2022-04-03T09:54:13.000Z</time>
      </trkpt>
      <trkpt lat="49.6834" lon="4.72314">
        <ele>285</ele>
        <time>2022-04-03T09:54:14.000Z</time>
      </trkpt>
      <trkpt lat="49.68342" lon="4.72316">
        <ele>286</ele>
        <time>2022-04-03T09:54:15.000Z</time>
      </trkpt>
      <trkpt lat="49.68342" lon="4.72319">
        <ele>286</ele>
        <time>2022-04-03T09:54:16.000Z</time>
      </trkpt>
      <trkpt lat="49.68342" lon="4.72321">
        <ele>286</ele>
        <time>2022-04-03T09:54:17.000Z</time>
      </trkpt>
      <trkpt lat="49.68342" lon="4.72324">
        <ele>287</ele>
        <time>2022-04-03T09:54:18.000Z</time>
      </trkpt>
      <trkpt lat="49.68341" lon="4.72327">
        <ele>287</ele>
        <time>2022-04-03T09:54:19.000Z</time>
      </trkpt>
      <trkpt lat="49.68342" lon="4.7233">
        <ele>287</ele>
        <time>2022-04-03T09:54:20.000Z</time>
      </trkpt>
      <trkpt lat="49.68343" lon="4.72332">
        <ele>288</ele>
        <time>2022-04-03T09:54:21.000Z</time>
      </trkpt>
      <trkpt lat="49.68344" lon="4.72334">
        <ele>288</ele>
        <time>2022-04-03T09:54:22.000Z</time>
      </trkpt>
      <trkpt lat="49.68346" lon="4.72335">
        <ele>288</ele>
        <time>2022-04-03T09:54:23.000Z</time>
      </trkpt>
      <trkpt lat="49.68347" lon="4.72335">
        <ele>289</ele>
        <time>2022-04-03T09:54:24.000Z</time>
      </trkpt>
      <trkpt lat="49.68348" lon="4.72336">
        <ele>289</ele>
        <time>2022-04-03T09:54:25.000Z</time>
      </trkpt>
      <trkpt lat="49.68348" lon="4.72336">
        <ele>289</ele>
        <time>2022-04-03T09:54:26.000Z</time>
      </trkpt>
      <trkpt lat="49.68348" lon="4.72337">
        <ele>289</ele>
        <time>2022-04-03T09:54:27.000Z</time>
      </trkpt>
      <trkpt lat="49.68348" lon="4.72338">
        <ele>290</ele>
        <time>2022-04-03T09:54:28.000Z</time>
      </trkpt>
      <trkpt lat="49.68348" lon="4.72339">
        <ele>290</ele>
        <time>2022-04-03T09:54:29.000Z</time>
      </trkpt>
      <trkpt lat="49.68349" lon="4.72338">
        <ele>290</ele>
        <time>2022-04-03T09:54:30.000Z</time>
      </trkpt>
      <trkpt lat="49.6835" lon="4.72336">
        <ele>290</ele>
        <time>2022-04-03T09:54:31.000Z</time>
      </trkpt>
      <trkpt lat="49.68351" lon="4.72333">
        <ele>290</ele>
        <time>2022-04-03T09:54:32.000Z</time>
      </trkpt>
      <trkpt lat="49.68351" lon="4.72331">
        <ele>290</ele>
        <time>2022-04-03T09:54:33.000Z</time>
      </trkpt>
      <trkpt lat="49.68351" lon="4.72328">
        <ele>291</ele>
        <time>2022-04-03T09:54:34.000Z</time>
      </trkpt>
      <trkpt lat="49.68352" lon="4.72323">
        <ele>291</ele>
        <time>2022-04-03T09:54:35.000Z</time>
      </trkpt>
      <trkpt lat="49.68352" lon="4.72318">
        <ele>291</ele>
        <time>2022-04-03T09:54:36.000Z</time>
      </trkpt>
      <trkpt lat="49.68353" lon="4.72314">
        <ele>291</ele>
        <time>2022-04-03T09:54:37.000Z</time>
      </trkpt>
      <trkpt lat="49.68354" lon="4.72308">
        <ele>291</ele>
        <time>2022-04-03T09:54:38.000Z</time>
      </trkpt>
      <trkpt lat="49.68354" lon="4.72302">
        <ele>291</ele>
        <time>2022-04-03T09:54:39.000Z</time>
      </trkpt>
      <trkpt lat="49.68355" lon="4.72295">
        <ele>291</ele>
        <time>2022-04-03T09:54:40.000Z</time>
      </trkpt>
      <trkpt lat="49.68355" lon="4.72289">
        <ele>291</ele>
        <time>2022-04-03T09:54:41.000Z</time>
      </trkpt>
      <trkpt lat="49.68356" lon="4.72283">
        <ele>291</ele>
        <time>2022-04-03T09:54:42.000Z</time>
      </trkpt>
      <trkpt lat="49.68356" lon="4.72276">
        <ele>291</ele>
        <time>2022-04-03T09:54:43.000Z</time>
      </trkpt>
      <trkpt lat="49.68356" lon="4.72268">
        <ele>291</ele>
        <time>2022-04-03T09:54:44.000Z</time>
      </trkpt>
      <trkpt lat="49.68357" lon="4.72261">
        <ele>291</ele>
        <time>2022-04-03T09:54:45.000Z</time>
      </trkpt>
      <trkpt lat="49.68359" lon="4.72254">
        <ele>291</ele>
        <time>2022-04-03T09:54:46.000Z</time>
      </trkpt>
      <trkpt lat="49.6836" lon="4.72247">
        <ele>291</ele>
        <time>2022-04-03T09:54:47.000Z</time>
      </trkpt>
      <trkpt lat="49.68362" lon="4.7224">
        <ele>290</ele>
        <time>2022-04-03T09:54:48.000Z</time>
      </trkpt>
      <trkpt lat="49.68363" lon="4.72232">
        <ele>290</ele>
        <time>2022-04-03T09:54:49.000Z</time>
      </trkpt>
      <trkpt lat="49.68365" lon="4.72225">
        <ele>290</ele>
        <time>2022-04-03T09:54:50.000Z</time>
      </trkpt>
      <trkpt lat="49.68366" lon="4.72217">
        <ele>290</ele>
        <time>2022-04-03T09:54:51.000Z</time>
      </trkpt>
      <trkpt lat="49.68367" lon="4.72209">
        <ele>290</ele>
        <time>2022-04-03T09:54:52.000Z</time>
      </trkpt>
      <trkpt lat="49.68369" lon="4.72201">
        <ele>290</ele>
        <time>2022-04-03T09:54:53.000Z</time>
      </trkpt>
      <trkpt lat="49.6837" lon="4.72193">
        <ele>290</ele>
        <time>2022-04-03T09:54:54.000Z</time>
      </trkpt>
      <trkpt lat="49.68372" lon="4.72186">
        <ele>289</ele>
        <time>2022-04-03T09:54:55.000Z</time>
      </trkpt>
      <trkpt lat="49.68373" lon="4.72177">
        <ele>289</ele>
        <time>2022-04-03T09:54:56.000Z</time>
      </trkpt>
      <trkpt lat="49.68375" lon="4.72169">
        <ele>289</ele>
        <time>2022-04-03T09:54:57.000Z</time>
      </trkpt>
      <trkpt lat="49.68377" lon="4.72162">
        <ele>289</ele>
        <time>2022-04-03T09:54:58.000Z</time>
      </trkpt>
      <trkpt lat="49.6838" lon="4.72154">
        <ele>289</ele>
        <time>2022-04-03T09:54:59.000Z</time>
      </trkpt>
      <trkpt lat="49.68383" lon="4.72146">
        <ele>288</ele>
        <time>2022-04-03T09:55:00.000Z</time>
      </trkpt>
      <trkpt lat="49.68385" lon="4.72137">
        <ele>288</ele>
        <time>2022-04-03T09:55:01.000Z</time>
      </trkpt>
      <trkpt lat="49.68387" lon="4.72128">
        <ele>288</ele>
        <time>2022-04-03T09:55:02.000Z</time>
      </trkpt>
      <trkpt lat="49.6839" lon="4.72119">
        <ele>288</ele>
        <time>2022-04-03T09:55:03.000Z</time>
      </trkpt>
      <trkpt lat="49.68393" lon="4.7211">
        <ele>288</ele>
        <time>2022-04-03T09:55:04.000Z</time>
      </trkpt>
      <trkpt lat="49.68396" lon="4.72101">
        <ele>287</ele>
        <time>2022-04-03T09:55:05.000Z</time>
      </trkpt>
      <trkpt lat="49.68398" lon="4.72091">
        <ele>287</ele>
        <time>2022-04-03T09:55:06.000Z</time>
      </trkpt>
      <trkpt lat="49.68401" lon="4.72082">
        <ele>287</ele>
        <time>2022-04-03T09:55:07.000Z</time>
      </trkpt>
      <trkpt lat="49.68404" lon="4.72072">
        <ele>287</ele>
        <time>2022-04-03T09:55:08.000Z</time>
      </trkpt>
      <trkpt lat="49.68407" lon="4.72063">
        <ele>287</ele>
        <time>2022-04-03T09:55:09.000Z</time>
      </trkpt>
      <trkpt lat="49.68411" lon="4.72054">
        <ele>287</ele>
        <time>2022-04-03T09:55:10.000Z</time>
      </trkpt>
      <trkpt lat="49.68414" lon="4.72045">
        <ele>286</ele>
        <time>2022-04-03T09:55:11.000Z</time>
      </trkpt>
      <trkpt lat="49.68417" lon="4.72036">
        <ele>286</ele>
        <time>2022-04-03T09:55:12.000Z</time>
      </trkpt>
      <trkpt lat="49.6842" lon="4.72027">
        <ele>286</ele>
        <time>2022-04-03T09:55:13.000Z</time>
      </trkpt>
      <trkpt lat="49.68423" lon="4.72018">
        <ele>286</ele>
        <time>2022-04-03T09:55:14.000Z</time>
      </trkpt>
      <trkpt lat="49.68426" lon="4.72009">
        <ele>286</ele>
        <time>2022-04-03T09:55:15.000Z</time>
      </trkpt>
      <trkpt lat="49.6843" lon="4.72">
        <ele>286</ele>
        <time>2022-04-03T09:55:16.000Z</time>
      </trkpt>
      <trkpt lat="49.68434" lon="4.71992">
        <ele>286</ele>
        <time>2022-04-03T09:55:17.000Z</time>
      </trkpt>
      <trkpt lat="49.68437" lon="4.71983">
        <ele>286</ele>
        <time>2022-04-03T09:55:18.000Z</time>
      </trkpt>
      <trkpt lat="49.6844" lon="4.71976">
        <ele>286</ele>
        <time>2022-04-03T09:55:19.000Z</time>
      </trkpt>
      <trkpt lat="49.68442" lon="4.7197">
        <ele>286</ele>
        <time>2022-04-03T09:55:20.000Z</time>
      </trkpt>
      <trkpt lat="49.68442" lon="4.71965">
        <ele>286</ele>
        <time>2022-04-03T09:55:21.000Z</time>
      </trkpt>
      <trkpt lat="49.68443" lon="4.7196">
        <ele>286</ele>
        <time>2022-04-03T09:55:22.000Z</time>
      </trkpt>
      <trkpt lat="49.68444" lon="4.71956">
        <ele>286</ele>
        <time>2022-04-03T09:55:23.000Z</time>
      </trkpt>
      <trkpt lat="49.68446" lon="4.71951">
        <ele>285</ele>
        <time>2022-04-03T09:55:24.000Z</time>
      </trkpt>
      <trkpt lat="49.68448" lon="4.71946">
        <ele>285</ele>
        <time>2022-04-03T09:55:25.000Z</time>
      </trkpt>
      <trkpt lat="49.68451" lon="4.71941">
        <ele>285</ele>
        <time>2022-04-03T09:55:26.000Z</time>
      </trkpt>
      <trkpt lat="49.68453" lon="4.71937">
        <ele>285</ele>
        <time>2022-04-03T09:55:27.000Z</time>
      </trkpt>
      <trkpt lat="49.68455" lon="4.71934">
        <ele>285</ele>
        <time>2022-04-03T09:55:28.000Z</time>
      </trkpt>
      <trkpt lat="49.68456" lon="4.7193">
        <ele>285</ele>
        <time>2022-04-03T09:55:29.000Z</time>
      </trkpt>
      <trkpt lat="49.68457" lon="4.71926">
        <ele>285</ele>
        <time>2022-04-03T09:55:30.000Z</time>
      </trkpt>
      <trkpt lat="49.68459" lon="4.71922">
        <ele>285</ele>
        <time>2022-04-03T09:55:31.000Z</time>
      </trkpt>
      <trkpt lat="49.6846" lon="4.71919">
        <ele>285</ele>
        <time>2022-04-03T09:55:32.000Z</time>
      </trkpt>
      <trkpt lat="49.68462" lon="4.71916">
        <ele>285</ele>
        <time>2022-04-03T09:55:33.000Z</time>
      </trkpt>
      <trkpt lat="49.68463" lon="4.71912">
        <ele>285</ele>
        <time>2022-04-03T09:55:34.000Z</time>
      </trkpt>
      <trkpt lat="49.68465" lon="4.71908">
        <ele>285</ele>
        <time>2022-04-03T09:55:35.000Z</time>
      </trkpt>
      <trkpt lat="49.68466" lon="4.71904">
        <ele>285</ele>
        <time>2022-04-03T09:55:36.000Z</time>
      </trkpt>
      <trkpt lat="49.68468" lon="4.719">
        <ele>285</ele>
        <time>2022-04-03T09:55:37.000Z</time>
      </trkpt>
      <trkpt lat="49.6847" lon="4.71896">
        <ele>284</ele>
        <time>2022-04-03T09:55:38.000Z</time>
      </trkpt>
      <trkpt lat="49.68472" lon="4.71891">
        <ele>284</ele>
        <time>2022-04-03T09:55:39.000Z</time>
      </trkpt>
      <trkpt lat="49.68474" lon="4.71886">
        <ele>284</ele>
        <time>2022-04-03T09:55:40.000Z</time>
      </trkpt>
      <trkpt lat="49.68477" lon="4.71881">
        <ele>284</ele>
        <time>2022-04-03T09:55:41.000Z</time>
      </trkpt>
      <trkpt lat="49.68479" lon="4.71876">
        <ele>285</ele>
        <time>2022-04-03T09:55:42.000Z</time>
      </trkpt>
      <trkpt lat="49.68483" lon="4.7187">
        <ele>285</ele>
        <time>2022-04-03T09:55:43.000Z</time>
      </trkpt>
      <trkpt lat="49.68486" lon="4.71865">
        <ele>285</ele>
        <time>2022-04-03T09:55:44.000Z</time>
      </trkpt>
      <trkpt lat="49.68489" lon="4.71859">
        <ele>285</ele>
        <time>2022-04-03T09:55:45.000Z</time>
      </trkpt>
      <trkpt lat="49.68493" lon="4.71853">
        <ele>285</ele>
        <time>2022-04-03T09:55:46.000Z</time>
      </trkpt>
      <trkpt lat="49.68496" lon="4.71847">
        <ele>285</ele>
        <time>2022-04-03T09:55:47.000Z</time>
      </trkpt>
      <trkpt lat="49.68499" lon="4.7184">
        <ele>285</ele>
        <time>2022-04-03T09:55:48.000Z</time>
      </trkpt>
      <trkpt lat="49.68502" lon="4.71835">
        <ele>285</ele>
        <time>2022-04-03T09:55:49.000Z</time>
      </trkpt>
      <trkpt lat="49.68504" lon="4.71829">
        <ele>285</ele>
        <time>2022-04-03T09:55:50.000Z</time>
      </trkpt>
      <trkpt lat="49.68507" lon="4.71824">
        <ele>285</ele>
        <time>2022-04-03T09:55:51.000Z</time>
      </trkpt>
      <trkpt lat="49.6851" lon="4.71818">
        <ele>285</ele>
        <time>2022-04-03T09:55:52.000Z</time>
      </trkpt>
      <trkpt lat="49.68512" lon="4.71812">
        <ele>285</ele>
        <time>2022-04-03T09:55:53.000Z</time>
      </trkpt>
      <trkpt lat="49.68515" lon="4.71806">
        <ele>285</ele>
        <time>2022-04-03T09:55:54.000Z</time>
      </trkpt>
      <trkpt lat="49.68517" lon="4.71801">
        <ele>285</ele>
        <time>2022-04-03T09:55:55.000Z</time>
      </trkpt>
      <trkpt lat="49.68519" lon="4.71795">
        <ele>285</ele>
        <time>2022-04-03T09:55:56.000Z</time>
      </trkpt>
      <trkpt lat="49.6852" lon="4.7179">
        <ele>285</ele>
        <time>2022-04-03T09:55:57.000Z</time>
      </trkpt>
      <trkpt lat="49.68521" lon="4.71784">
        <ele>285</ele>
        <time>2022-04-03T09:55:58.000Z</time>
      </trkpt>
      <trkpt lat="49.68523" lon="4.71779">
        <ele>285</ele>
        <time>2022-04-03T09:55:59.000Z</time>
      </trkpt>
      <trkpt lat="49.68524" lon="4.71773">
        <ele>285</ele>
        <time>2022-04-03T09:56:00.000Z</time>
      </trkpt>
      <trkpt lat="49.68526" lon="4.71767">
        <ele>285</ele>
        <time>2022-04-03T09:56:01.000Z</time>
      </trkpt>
      <trkpt lat="49.68528" lon="4.71761">
        <ele>285</ele>
        <time>2022-04-03T09:56:02.000Z</time>
      </trkpt>
      <trkpt lat="49.6853" lon="4.71755">
        <ele>284</ele>
        <time>2022-04-03T09:56:03.000Z</time>
      </trkpt>
      <trkpt lat="49.68531" lon="4.71751">
        <ele>284</ele>
        <time>2022-04-03T09:56:04.000Z</time>
      </trkpt>
      <trkpt lat="49.68533" lon="4.71747">
        <ele>284</ele>
        <time>2022-04-03T09:56:05.000Z</time>
      </trkpt>
      <trkpt lat="49.68536" lon="4.71745">
        <ele>284</ele>
        <time>2022-04-03T09:56:06.000Z</time>
      </trkpt>
      <trkpt lat="49.68538" lon="4.71746">
        <ele>284</ele>
        <time>2022-04-03T09:56:07.000Z</time>
      </trkpt>
      <trkpt lat="49.6854" lon="4.71747">
        <ele>284</ele>
        <time>2022-04-03T09:56:08.000Z</time>
      </trkpt>
      <trkpt lat="49.68543" lon="4.7175">
        <ele>285</ele>
        <time>2022-04-03T09:56:09.000Z</time>
      </trkpt>
      <trkpt lat="49.68546" lon="4.71754">
        <ele>285</ele>
        <time>2022-04-03T09:56:10.000Z</time>
      </trkpt>
      <trkpt lat="49.68548" lon="4.71757">
        <ele>285</ele>
        <time>2022-04-03T09:56:11.000Z</time>
      </trkpt>
      <trkpt lat="49.6855" lon="4.71761">
        <ele>285</ele>
        <time>2022-04-03T09:56:12.000Z</time>
      </trkpt>
      <trkpt lat="49.68552" lon="4.71766">
        <ele>285</ele>
        <time>2022-04-03T09:56:13.000Z</time>
      </trkpt>
      <trkpt lat="49.68553" lon="4.71772">
        <ele>285</ele>
        <time>2022-04-03T09:56:14.000Z</time>
      </trkpt>
      <trkpt lat="49.68554" lon="4.71777">
        <ele>285</ele>
        <time>2022-04-03T09:56:15.000Z</time>
      </trkpt>
      <trkpt lat="49.68554" lon="4.71783">
        <ele>285</ele>
        <time>2022-04-03T09:56:16.000Z</time>
      </trkpt>
      <trkpt lat="49.68555" lon="4.7179">
        <ele>285</ele>
        <time>2022-04-03T09:56:17.000Z</time>
      </trkpt>
      <trkpt lat="49.68557" lon="4.71797">
        <ele>285</ele>
        <time>2022-04-03T09:56:18.000Z</time>
      </trkpt>
      <trkpt lat="49.68558" lon="4.71803">
        <ele>285</ele>
        <time>2022-04-03T09:56:19.000Z</time>
      </trkpt>
      <trkpt lat="49.6856" lon="4.71809">
        <ele>285</ele>
        <time>2022-04-03T09:56:20.000Z</time>
      </trkpt>
      <trkpt lat="49.68561" lon="4.71814">
        <ele>286</ele>
        <time>2022-04-03T09:56:21.000Z</time>
      </trkpt>
      <trkpt lat="49.68563" lon="4.7182">
        <ele>286</ele>
        <time>2022-04-03T09:56:22.000Z</time>
      </trkpt>
      <trkpt lat="49.68564" lon="4.71825">
        <ele>286</ele>
        <time>2022-04-03T09:56:23.000Z</time>
      </trkpt>
      <trkpt lat="49.68565" lon="4.71831">
        <ele>286</ele>
        <time>2022-04-03T09:56:24.000Z</time>
      </trkpt>
      <trkpt lat="49.68567" lon="4.71836">
        <ele>286</ele>
        <time>2022-04-03T09:56:25.000Z</time>
      </trkpt>
      <trkpt lat="49.68568" lon="4.71842">
        <ele>286</ele>
        <time>2022-04-03T09:56:26.000Z</time>
      </trkpt>
      <trkpt lat="49.6857" lon="4.71847">
        <ele>287</ele>
        <time>2022-04-03T09:56:27.000Z</time>
      </trkpt>
      <trkpt lat="49.68572" lon="4.71853">
        <ele>287</ele>
        <time>2022-04-03T09:56:28.000Z</time>
      </trkpt>
      <trkpt lat="49.68572" lon="4.71858">
        <ele>287</ele>
        <time>2022-04-03T09:56:29.000Z</time>
      </trkpt>
      <trkpt lat="49.68573" lon="4.71864">
        <ele>287</ele>
        <time>2022-04-03T09:56:30.000Z</time>
      </trkpt>
      <trkpt lat="49.68573" lon="4.71868">
        <ele>288</ele>
        <time>2022-04-03T09:56:31.000Z</time>
      </trkpt>
      <trkpt lat="49.68574" lon="4.71872">
        <ele>288</ele>
        <time>2022-04-03T09:56:32.000Z</time>
      </trkpt>
      <trkpt lat="49.68575" lon="4.71876">
        <ele>288</ele>
        <time>2022-04-03T09:56:33.000Z</time>
      </trkpt>
      <trkpt lat="49.68575" lon="4.7188">
        <ele>288</ele>
        <time>2022-04-03T09:56:34.000Z</time>
      </trkpt>
      <trkpt lat="49.68575" lon="4.71884">
        <ele>289</ele>
        <time>2022-04-03T09:56:35.000Z</time>
      </trkpt>
      <trkpt lat="49.68574" lon="4.71887">
        <ele>289</ele>
        <time>2022-04-03T09:56:36.000Z</time>
      </trkpt>
      <trkpt lat="49.68575" lon="4.7189">
        <ele>289</ele>
        <time>2022-04-03T09:56:37.000Z</time>
      </trkpt>
      <trkpt lat="49.68576" lon="4.71892">
        <ele>290</ele>
        <time>2022-04-03T09:56:38.000Z</time>
      </trkpt>
      <trkpt lat="49.68577" lon="4.71894">
        <ele>290</ele>
        <time>2022-04-03T09:56:39.000Z</time>
      </trkpt>
      <trkpt lat="49.68578" lon="4.71898">
        <ele>290</ele>
        <time>2022-04-03T09:56:40.000Z</time>
      </trkpt>
      <trkpt lat="49.68579" lon="4.71903">
        <ele>291</ele>
        <time>2022-04-03T09:56:41.000Z</time>
      </trkpt>
      <trkpt lat="49.6858" lon="4.71907">
        <ele>291</ele>
        <time>2022-04-03T09:56:42.000Z</time>
      </trkpt>
      <trkpt lat="49.68582" lon="4.71911">
        <ele>291</ele>
        <time>2022-04-03T09:56:43.000Z</time>
      </trkpt>
      <trkpt lat="49.68585" lon="4.71915">
        <ele>291</ele>
        <time>2022-04-03T09:56:44.000Z</time>
      </trkpt>
      <trkpt lat="49.68587" lon="4.71918">
        <ele>292</ele>
        <time>2022-04-03T09:56:45.000Z</time>
      </trkpt>
      <trkpt lat="49.6859" lon="4.71921">
        <ele>292</ele>
        <time>2022-04-03T09:56:46.000Z</time>
      </trkpt>
      <trkpt lat="49.68592" lon="4.71923">
        <ele>292</ele>
        <time>2022-04-03T09:56:47.000Z</time>
      </trkpt>
      <trkpt lat="49.68593" lon="4.71924">
        <ele>292</ele>
        <time>2022-04-03T09:56:48.000Z</time>
      </trkpt>
      <trkpt lat="49.68596" lon="4.71927">
        <ele>292</ele>
        <time>2022-04-03T09:56:49.000Z</time>
      </trkpt>
      <trkpt lat="49.68599" lon="4.7193">
        <ele>292</ele>
        <time>2022-04-03T09:56:50.000Z</time>
      </trkpt>
      <trkpt lat="49.68603" lon="4.71934">
        <ele>292</ele>
        <time>2022-04-03T09:56:51.000Z</time>
      </trkpt>
      <trkpt lat="49.68606" lon="4.71939">
        <ele>292</ele>
        <time>2022-04-03T09:56:52.000Z</time>
      </trkpt>
      <trkpt lat="49.68609" lon="4.71943">
        <ele>292</ele>
        <time>2022-04-03T09:56:53.000Z</time>
      </trkpt>
      <trkpt lat="49.68612" lon="4.71948">
        <ele>292</ele>
        <time>2022-04-03T09:56:54.000Z</time>
      </trkpt>
      <trkpt lat="49.68614" lon="4.71953">
        <ele>292</ele>
        <time>2022-04-03T09:56:55.000Z</time>
      </trkpt>
      <trkpt lat="49.68617" lon="4.71957">
        <ele>291</ele>
        <time>2022-04-03T09:56:56.000Z</time>
      </trkpt>
      <trkpt lat="49.6862" lon="4.71963">
        <ele>291</ele>
        <time>2022-04-03T09:56:57.000Z</time>
      </trkpt>
      <trkpt lat="49.68624" lon="4.71968">
        <ele>291</ele>
        <time>2022-04-03T09:56:58.000Z</time>
      </trkpt>
      <trkpt lat="49.68627" lon="4.71974">
        <ele>291</ele>
        <time>2022-04-03T09:56:59.000Z</time>
      </trkpt>
      <trkpt lat="49.68631" lon="4.7198">
        <ele>291</ele>
        <time>2022-04-03T09:57:00.000Z</time>
      </trkpt>
      <trkpt lat="49.68635" lon="4.71985">
        <ele>291</ele>
        <time>2022-04-03T09:57:01.000Z</time>
      </trkpt>
      <trkpt lat="49.68639" lon="4.71991">
        <ele>291</ele>
        <time>2022-04-03T09:57:02.000Z</time>
      </trkpt>
      <trkpt lat="49.68642" lon="4.71996">
        <ele>291</ele>
        <time>2022-04-03T09:57:03.000Z</time>
      </trkpt>
      <trkpt lat="49.68646" lon="4.72002">
        <ele>291</ele>
        <time>2022-04-03T09:57:04.000Z</time>
      </trkpt>
      <trkpt lat="49.6865" lon="4.72008">
        <ele>291</ele>
        <time>2022-04-03T09:57:05.000Z</time>
      </trkpt>
      <trkpt lat="49.68655" lon="4.72012">
        <ele>290</ele>
        <time>2022-04-03T09:57:06.000Z</time>
      </trkpt>
      <trkpt lat="49.68659" lon="4.72018">
        <ele>290</ele>
        <time>2022-04-03T09:57:07.000Z</time>
      </trkpt>
      <trkpt lat="49.68663" lon="4.72024">
        <ele>290</ele>
        <time>2022-04-03T09:57:08.000Z</time>
      </trkpt>
      <trkpt lat="49.68668" lon="4.7203">
        <ele>290</ele>
        <time>2022-04-03T09:57:09.000Z</time>
      </trkpt>
      <trkpt lat="49.68672" lon="4.72035">
        <ele>290</ele>
        <time>2022-04-03T09:57:10.000Z</time>
      </trkpt>
      <trkpt lat="49.68677" lon="4.72042">
        <ele>291</ele>
        <time>2022-04-03T09:57:11.000Z</time>
      </trkpt>
      <trkpt lat="49.68681" lon="4.72048">
        <ele>290</ele>
        <time>2022-04-03T09:57:12.000Z</time>
      </trkpt>
      <trkpt lat="49.68685" lon="4.72056">
        <ele>290</ele>
        <time>2022-04-03T09:57:13.000Z</time>
      </trkpt>
      <trkpt lat="49.68689" lon="4.72063">
        <ele>290</ele>
        <time>2022-04-03T09:57:14.000Z</time>
      </trkpt>
      <trkpt lat="49.68693" lon="4.72069">
        <ele>290</ele>
        <time>2022-04-03T09:57:15.000Z</time>
      </trkpt>
      <trkpt lat="49.68697" lon="4.72077">
        <ele>290</ele>
        <time>2022-04-03T09:57:16.000Z</time>
      </trkpt>
      <trkpt lat="49.68701" lon="4.72085">
        <ele>290</ele>
        <time>2022-04-03T09:57:17.000Z</time>
      </trkpt>
      <trkpt lat="49.68704" lon="4.72093">
        <ele>290</ele>
        <time>2022-04-03T09:57:18.000Z</time>
      </trkpt>
      <trkpt lat="49.68708" lon="4.72102">
        <ele>290</ele>
        <time>2022-04-03T09:57:19.000Z</time>
      </trkpt>
      <trkpt lat="49.68712" lon="4.7211">
        <ele>289</ele>
        <time>2022-04-03T09:57:20.000Z</time>
      </trkpt>
      <trkpt lat="49.68716" lon="4.72117">
        <ele>289</ele>
        <time>2022-04-03T09:57:21.000Z</time>
      </trkpt>
      <trkpt lat="49.6872" lon="4.72124">
        <ele>289</ele>
        <time>2022-04-03T09:57:22.000Z</time>
      </trkpt>
      <trkpt lat="49.68724" lon="4.72131">
        <ele>289</ele>
        <time>2022-04-03T09:57:23.000Z</time>
      </trkpt>
      <trkpt lat="49.68727" lon="4.72138">
        <ele>289</ele>
        <time>2022-04-03T09:57:24.000Z</time>
      </trkpt>
      <trkpt lat="49.68731" lon="4.72144">
        <ele>288</ele>
        <time>2022-04-03T09:57:25.000Z</time>
      </trkpt>
      <trkpt lat="49.68735" lon="4.72152">
        <ele>288</ele>
        <time>2022-04-03T09:57:26.000Z</time>
      </trkpt>
      <trkpt lat="49.68739" lon="4.72159">
        <ele>288</ele>
        <time>2022-04-03T09:57:27.000Z</time>
      </trkpt>
      <trkpt lat="49.68744" lon="4.72168">
        <ele>288</ele>
        <time>2022-04-03T09:57:28.000Z</time>
      </trkpt>
      <trkpt lat="49.68749" lon="4.72177">
        <ele>287</ele>
        <time>2022-04-03T09:57:29.000Z</time>
      </trkpt>
      <trkpt lat="49.68755" lon="4.72185">
        <ele>287</ele>
        <time>2022-04-03T09:57:30.000Z</time>
      </trkpt>
      <trkpt lat="49.68761" lon="4.72192">
        <ele>287</ele>
        <time>2022-04-03T09:57:31.000Z</time>
      </trkpt>
      <trkpt lat="49.68767" lon="4.72197">
        <ele>286</ele>
        <time>2022-04-03T09:57:32.000Z</time>
      </trkpt>
      <trkpt lat="49.68772" lon="4.72202">
        <ele>286</ele>
        <time>2022-04-03T09:57:33.000Z</time>
      </trkpt>
      <trkpt lat="49.68778" lon="4.72206">
        <ele>285</ele>
        <time>2022-04-03T09:57:34.000Z</time>
      </trkpt>
      <trkpt lat="49.68783" lon="4.72209">
        <ele>285</ele>
        <time>2022-04-03T09:57:35.000Z</time>
      </trkpt>
      <trkpt lat="49.68788" lon="4.72214">
        <ele>284</ele>
        <time>2022-04-03T09:57:36.000Z</time>
      </trkpt>
      <trkpt lat="49.68794" lon="4.72218">
        <ele>284</ele>
        <time>2022-04-03T09:57:37.000Z</time>
      </trkpt>
      <trkpt lat="49.68801" lon="4.72223">
        <ele>283</ele>
        <time>2022-04-03T09:57:38.000Z</time>
      </trkpt>
      <trkpt lat="49.68808" lon="4.72228">
        <ele>283</ele>
        <time>2022-04-03T09:57:39.000Z</time>
      </trkpt>
      <trkpt lat="49.68815" lon="4.72233">
        <ele>282</ele>
        <time>2022-04-03T09:57:40.000Z</time>
      </trkpt>
      <trkpt lat="49.68823" lon="4.72237">
        <ele>281</ele>
        <time>2022-04-03T09:57:41.000Z</time>
      </trkpt>
      <trkpt lat="49.68831" lon="4.7224">
        <ele>281</ele>
        <time>2022-04-03T09:57:42.000Z</time>
      </trkpt>
      <trkpt lat="49.68838" lon="4.72243">
        <ele>280</ele>
        <time>2022-04-03T09:57:43.000Z</time>
      </trkpt>
      <trkpt lat="49.68846" lon="4.72247">
        <ele>279</ele>
        <time>2022-04-03T09:57:44.000Z</time>
      </trkpt>
      <trkpt lat="49.68852" lon="4.72251">
        <ele>279</ele>
        <time>2022-04-03T09:57:45.000Z</time>
      </trkpt>
      <trkpt lat="49.68858" lon="4.72255">
        <ele>278</ele>
        <time>2022-04-03T09:57:46.000Z</time>
      </trkpt>
      <trkpt lat="49.68864" lon="4.72259">
        <ele>277</ele>
        <time>2022-04-03T09:57:47.000Z</time>
      </trkpt>
      <trkpt lat="49.68869" lon="4.72264">
        <ele>277</ele>
        <time>2022-04-03T09:57:48.000Z</time>
      </trkpt>
      <trkpt lat="49.68874" lon="4.72269">
        <ele>276</ele>
        <time>2022-04-03T09:57:49.000Z</time>
      </trkpt>
      <trkpt lat="49.68879" lon="4.72276">
        <ele>275</ele>
        <time>2022-04-03T09:57:50.000Z</time>
      </trkpt>
      <trkpt lat="49.68883" lon="4.72284">
        <ele>274</ele>
        <time>2022-04-03T09:57:51.000Z</time>
      </trkpt>
      <trkpt lat="49.68889" lon="4.72292">
        <ele>273</ele>
        <time>2022-04-03T09:57:52.000Z</time>
      </trkpt>
      <trkpt lat="49.68893" lon="4.723">
        <ele>272</ele>
        <time>2022-04-03T09:57:53.000Z</time>
      </trkpt>
      <trkpt lat="49.68898" lon="4.72307">
        <ele>272</ele>
        <time>2022-04-03T09:57:54.000Z</time>
      </trkpt>
      <trkpt lat="49.68902" lon="4.72314">
        <ele>271</ele>
        <time>2022-04-03T09:57:55.000Z</time>
      </trkpt>
      <trkpt lat="49.68906" lon="4.72321">
        <ele>270</ele>
        <time>2022-04-03T09:57:56.000Z</time>
      </trkpt>
      <trkpt lat="49.6891" lon="4.72326">
        <ele>269</ele>
        <time>2022-04-03T09:57:57.000Z</time>
      </trkpt>
      <trkpt lat="49.68914" lon="4.72331">
        <ele>268</ele>
        <time>2022-04-03T09:57:58.000Z</time>
      </trkpt>
      <trkpt lat="49.68918" lon="4.72336">
        <ele>268</ele>
        <time>2022-04-03T09:57:59.000Z</time>
      </trkpt>
      <trkpt lat="49.68921" lon="4.7234">
        <ele>267</ele>
        <time>2022-04-03T09:58:00.000Z</time>
      </trkpt>
      <trkpt lat="49.68925" lon="4.72344">
        <ele>266</ele>
        <time>2022-04-03T09:58:01.000Z</time>
      </trkpt>
      <trkpt lat="49.68929" lon="4.72346">
        <ele>266</ele>
        <time>2022-04-03T09:58:02.000Z</time>
      </trkpt>
      <trkpt lat="49.68934" lon="4.72349">
        <ele>265</ele>
        <time>2022-04-03T09:58:03.000Z</time>
      </trkpt>
      <trkpt lat="49.68938" lon="4.72354">
        <ele>264</ele>
        <time>2022-04-03T09:58:04.000Z</time>
      </trkpt>
      <trkpt lat="49.68943" lon="4.72359">
        <ele>264</ele>
        <time>2022-04-03T09:58:05.000Z</time>
      </trkpt>
      <trkpt lat="49.68949" lon="4.72363">
        <ele>263</ele>
        <time>2022-04-03T09:58:06.000Z</time>
      </trkpt>
      <trkpt lat="49.68954" lon="4.72368">
        <ele>262</ele>
        <time>2022-04-03T09:58:07.000Z</time>
      </trkpt>
      <trkpt lat="49.68959" lon="4.72373">
        <ele>261</ele>
        <time>2022-04-03T09:58:08.000Z</time>
      </trkpt>
      <trkpt lat="49.68964" lon="4.7238">
        <ele>261</ele>
        <time>2022-04-03T09:58:09.000Z</time>
      </trkpt>
      <trkpt lat="49.68969" lon="4.72386">
        <ele>260</ele>
        <time>2022-04-03T09:58:10.000Z</time>
      </trkpt>
      <trkpt lat="49.68974" lon="4.72392">
        <ele>259</ele>
        <time>2022-04-03T09:58:11.000Z</time>
      </trkpt>
      <trkpt lat="49.68979" lon="4.72398">
        <ele>258</ele>
        <time>2022-04-03T09:58:12.000Z</time>
      </trkpt>
      <trkpt lat="49.68984" lon="4.72405">
        <ele>258</ele>
        <time>2022-04-03T09:58:13.000Z</time>
      </trkpt>
      <trkpt lat="49.68988" lon="4.72412">
        <ele>257</ele>
        <time>2022-04-03T09:58:14.000Z</time>
      </trkpt>
      <trkpt lat="49.68992" lon="4.72419">
        <ele>256</ele>
        <time>2022-04-03T09:58:15.000Z</time>
      </trkpt>
      <trkpt lat="49.68995" lon="4.72426">
        <ele>256</ele>
        <time>2022-04-03T09:58:16.000Z</time>
      </trkpt>
      <trkpt lat="49.69" lon="4.72433">
        <ele>255</ele>
        <time>2022-04-03T09:58:17.000Z</time>
      </trkpt>
      <trkpt lat="49.69004" lon="4.72439">
        <ele>255</ele>
        <time>2022-04-03T09:58:18.000Z</time>
      </trkpt>
      <trkpt lat="49.69008" lon="4.72445">
        <ele>254</ele>
        <time>2022-04-03T09:58:19.000Z</time>
      </trkpt>
      <trkpt lat="49.69013" lon="4.72449">
        <ele>253</ele>
        <time>2022-04-03T09:58:20.000Z</time>
      </trkpt>
      <trkpt lat="49.69018" lon="4.72453">
        <ele>253</ele>
        <time>2022-04-03T09:58:21.000Z</time>
      </trkpt>
      <trkpt lat="49.69023" lon="4.72457">
        <ele>252</ele>
        <time>2022-04-03T09:58:22.000Z</time>
      </trkpt>
      <trkpt lat="49.69027" lon="4.72462">
        <ele>251</ele>
        <time>2022-04-03T09:58:23.000Z</time>
      </trkpt>
      <trkpt lat="49.69031" lon="4.72467">
        <ele>251</ele>
        <time>2022-04-03T09:58:24.000Z</time>
      </trkpt>
      <trkpt lat="49.69035" lon="4.72471">
        <ele>250</ele>
        <time>2022-04-03T09:58:25.000Z</time>
      </trkpt>
      <trkpt lat="49.69039" lon="4.72474">
        <ele>250</ele>
        <time>2022-04-03T09:58:26.000Z</time>
      </trkpt>
      <trkpt lat="49.69043" lon="4.72477">
        <ele>249</ele>
        <time>2022-04-03T09:58:27.000Z</time>
      </trkpt>
      <trkpt lat="49.69047" lon="4.72481">
        <ele>249</ele>
        <time>2022-04-03T09:58:28.000Z</time>
      </trkpt>
      <trkpt lat="49.69051" lon="4.72485">
        <ele>248</ele>
        <time>2022-04-03T09:58:29.000Z</time>
      </trkpt>
      <trkpt lat="49.69056" lon="4.7249">
        <ele>248</ele>
        <time>2022-04-03T09:58:30.000Z</time>
      </trkpt>
      <trkpt lat="49.69061" lon="4.72494">
        <ele>247</ele>
        <time>2022-04-03T09:58:31.000Z</time>
      </trkpt>
      <trkpt lat="49.69066" lon="4.72499">
        <ele>247</ele>
        <time>2022-04-03T09:58:32.000Z</time>
      </trkpt>
      <trkpt lat="49.69073" lon="4.72503">
        <ele>247</ele>
        <time>2022-04-03T09:58:33.000Z</time>
      </trkpt>
      <trkpt lat="49.69078" lon="4.72507">
        <ele>246</ele>
        <time>2022-04-03T09:58:34.000Z</time>
      </trkpt>
      <trkpt lat="49.69084" lon="4.72511">
        <ele>246</ele>
        <time>2022-04-03T09:58:35.000Z</time>
      </trkpt>
      <trkpt lat="49.69089" lon="4.72515">
        <ele>245</ele>
        <time>2022-04-03T09:58:36.000Z</time>
      </trkpt>
      <trkpt lat="49.69094" lon="4.72518">
        <ele>245</ele>
        <time>2022-04-03T09:58:37.000Z</time>
      </trkpt>
      <trkpt lat="49.691" lon="4.72522">
        <ele>244</ele>
        <time>2022-04-03T09:58:38.000Z</time>
      </trkpt>
      <trkpt lat="49.69105" lon="4.72526">
        <ele>244</ele>
        <time>2022-04-03T09:58:39.000Z</time>
      </trkpt>
      <trkpt lat="49.69111" lon="4.72531">
        <ele>244</ele>
        <time>2022-04-03T09:58:40.000Z</time>
      </trkpt>
      <trkpt lat="49.69116" lon="4.72535">
        <ele>243</ele>
        <time>2022-04-03T09:58:41.000Z</time>
      </trkpt>
      <trkpt lat="49.69122" lon="4.7254">
        <ele>243</ele>
        <time>2022-04-03T09:58:42.000Z</time>
      </trkpt>
      <trkpt lat="49.69128" lon="4.72546">
        <ele>242</ele>
        <time>2022-04-03T09:58:43.000Z</time>
      </trkpt>
      <trkpt lat="49.69134" lon="4.72551">
        <ele>242</ele>
        <time>2022-04-03T09:58:44.000Z</time>
      </trkpt>
      <trkpt lat="49.6914" lon="4.72554">
        <ele>241</ele>
        <time>2022-04-03T09:58:45.000Z</time>
      </trkpt>
      <trkpt lat="49.69146" lon="4.72558">
        <ele>241</ele>
        <time>2022-04-03T09:58:46.000Z</time>
      </trkpt>
      <trkpt lat="49.69152" lon="4.72564">
        <ele>240</ele>
        <time>2022-04-03T09:58:47.000Z</time>
      </trkpt>
      <trkpt lat="49.69157" lon="4.72569">
        <ele>240</ele>
        <time>2022-04-03T09:58:48.000Z</time>
      </trkpt>
      <trkpt lat="49.69162" lon="4.72573">
        <ele>239</ele>
        <time>2022-04-03T09:58:49.000Z</time>
      </trkpt>
      <trkpt lat="49.69168" lon="4.72578">
        <ele>239</ele>
        <time>2022-04-03T09:58:50.000Z</time>
      </trkpt>
      <trkpt lat="49.69174" lon="4.72581">
        <ele>238</ele>
        <time>2022-04-03T09:58:51.000Z</time>
      </trkpt>
      <trkpt lat="49.69181" lon="4.72585">
        <ele>237</ele>
        <time>2022-04-03T09:58:52.000Z</time>
      </trkpt>
      <trkpt lat="49.69187" lon="4.72589">
        <ele>237</ele>
        <time>2022-04-03T09:58:53.000Z</time>
      </trkpt>
      <trkpt lat="49.69194" lon="4.72592">
        <ele>236</ele>
        <time>2022-04-03T09:58:54.000Z</time>
      </trkpt>
      <trkpt lat="49.69201" lon="4.72595">
        <ele>235</ele>
        <time>2022-04-03T09:58:55.000Z</time>
      </trkpt>
      <trkpt lat="49.69207" lon="4.72598">
        <ele>235</ele>
        <time>2022-04-03T09:58:56.000Z</time>
      </trkpt>
      <trkpt lat="49.69214" lon="4.726">
        <ele>234</ele>
        <time>2022-04-03T09:58:57.000Z</time>
      </trkpt>
      <trkpt lat="49.69221" lon="4.72603">
        <ele>233</ele>
        <time>2022-04-03T09:58:58.000Z</time>
      </trkpt>
      <trkpt lat="49.69228" lon="4.72606">
        <ele>233</ele>
        <time>2022-04-03T09:58:59.000Z</time>
      </trkpt>
      <trkpt lat="49.69234" lon="4.7261">
        <ele>232</ele>
        <time>2022-04-03T09:59:00.000Z</time>
      </trkpt>
      <trkpt lat="49.69241" lon="4.72613">
        <ele>231</ele>
        <time>2022-04-03T09:59:01.000Z</time>
      </trkpt>
      <trkpt lat="49.69249" lon="4.72617">
        <ele>230</ele>
        <time>2022-04-03T09:59:02.000Z</time>
      </trkpt>
      <trkpt lat="49.69257" lon="4.72621">
        <ele>229</ele>
        <time>2022-04-03T09:59:03.000Z</time>
      </trkpt>
      <trkpt lat="49.69265" lon="4.72624">
        <ele>228</ele>
        <time>2022-04-03T09:59:04.000Z</time>
      </trkpt>
      <trkpt lat="49.69272" lon="4.72628">
        <ele>228</ele>
        <time>2022-04-03T09:59:05.000Z</time>
      </trkpt>
      <trkpt lat="49.69279" lon="4.72633">
        <ele>227</ele>
        <time>2022-04-03T09:59:06.000Z</time>
      </trkpt>
      <trkpt lat="49.69286" lon="4.72639">
        <ele>226</ele>
        <time>2022-04-03T09:59:07.000Z</time>
      </trkpt>
      <trkpt lat="49.69293" lon="4.72644">
        <ele>225</ele>
        <time>2022-04-03T09:59:08.000Z</time>
      </trkpt>
      <trkpt lat="49.693" lon="4.7265">
        <ele>224</ele>
        <time>2022-04-03T09:59:09.000Z</time>
      </trkpt>
      <trkpt lat="49.69306" lon="4.72656">
        <ele>223</ele>
        <time>2022-04-03T09:59:10.000Z</time>
      </trkpt>
      <trkpt lat="49.69312" lon="4.72663">
        <ele>222</ele>
        <time>2022-04-03T09:59:11.000Z</time>
      </trkpt>
      <trkpt lat="49.69318" lon="4.7267">
        <ele>221</ele>
        <time>2022-04-03T09:59:12.000Z</time>
      </trkpt>
      <trkpt lat="49.69323" lon="4.72678">
        <ele>219</ele>
        <time>2022-04-03T09:59:13.000Z</time>
      </trkpt>
      <trkpt lat="49.69328" lon="4.72686">
        <ele>218</ele>
        <time>2022-04-03T09:59:14.000Z</time>
      </trkpt>
      <trkpt lat="49.69334" lon="4.72694">
        <ele>217</ele>
        <time>2022-04-03T09:59:15.000Z</time>
      </trkpt>
      <trkpt lat="49.6934" lon="4.72703">
        <ele>216</ele>
        <time>2022-04-03T09:59:16.000Z</time>
      </trkpt>
      <trkpt lat="49.69345" lon="4.72712">
        <ele>215</ele>
        <time>2022-04-03T09:59:17.000Z</time>
      </trkpt>
      <trkpt lat="49.69351" lon="4.7272">
        <ele>214</ele>
        <time>2022-04-03T09:59:18.000Z</time>
      </trkpt>
      <trkpt lat="49.69356" lon="4.72729">
        <ele>213</ele>
        <time>2022-04-03T09:59:19.000Z</time>
      </trkpt>
      <trkpt lat="49.69361" lon="4.72738">
        <ele>212</ele>
        <time>2022-04-03T09:59:20.000Z</time>
      </trkpt>
      <trkpt lat="49.69366" lon="4.72746">
        <ele>211</ele>
        <time>2022-04-03T09:59:21.000Z</time>
      </trkpt>
      <trkpt lat="49.69372" lon="4.72754">
        <ele>210</ele>
        <time>2022-04-03T09:59:22.000Z</time>
      </trkpt>
      <trkpt lat="49.69376" lon="4.72762">
        <ele>210</ele>
        <time>2022-04-03T09:59:23.000Z</time>
      </trkpt>
      <trkpt lat="49.69381" lon="4.7277">
        <ele>209</ele>
        <time>2022-04-03T09:59:24.000Z</time>
      </trkpt>
      <trkpt lat="49.69385" lon="4.72777">
        <ele>208</ele>
        <time>2022-04-03T09:59:25.000Z</time>
      </trkpt>
      <trkpt lat="49.6939" lon="4.72784">
        <ele>208</ele>
        <time>2022-04-03T09:59:26.000Z</time>
      </trkpt>
      <trkpt lat="49.69395" lon="4.72791">
        <ele>207</ele>
        <time>2022-04-03T09:59:27.000Z</time>
      </trkpt>
      <trkpt lat="49.694" lon="4.72799">
        <ele>207</ele>
        <time>2022-04-03T09:59:28.000Z</time>
      </trkpt>
      <trkpt lat="49.69405" lon="4.72806">
        <ele>206</ele>
        <time>2022-04-03T09:59:29.000Z</time>
      </trkpt>
      <trkpt lat="49.69409" lon="4.72813">
        <ele>206</ele>
        <time>2022-04-03T09:59:30.000Z</time>
      </trkpt>
      <trkpt lat="49.69414" lon="4.72819">
        <ele>206</ele>
        <time>2022-04-03T09:59:31.000Z</time>
      </trkpt>
      <trkpt lat="49.6942" lon="4.72824">
        <ele>205</ele>
        <time>2022-04-03T09:59:32.000Z</time>
      </trkpt>
      <trkpt lat="49.69426" lon="4.72828">
        <ele>205</ele>
        <time>2022-04-03T09:59:33.000Z</time>
      </trkpt>
      <trkpt lat="49.69432" lon="4.72832">
        <ele>204</ele>
        <time>2022-04-03T09:59:34.000Z</time>
      </trkpt>
      <trkpt lat="49.69437" lon="4.72835">
        <ele>204</ele>
        <time>2022-04-03T09:59:35.000Z</time>
      </trkpt>
      <trkpt lat="49.69441" lon="4.72838">
        <ele>204</ele>
        <time>2022-04-03T09:59:36.000Z</time>
      </trkpt>
      <trkpt lat="49.69446" lon="4.72841">
        <ele>204</ele>
        <time>2022-04-03T09:59:37.000Z</time>
      </trkpt>
      <trkpt lat="49.69449" lon="4.72844">
        <ele>203</ele>
        <time>2022-04-03T09:59:38.000Z</time>
      </trkpt>
      <trkpt lat="49.69453" lon="4.72846">
        <ele>203</ele>
        <time>2022-04-03T09:59:39.000Z</time>
      </trkpt>
      <trkpt lat="49.69455" lon="4.72848">
        <ele>203</ele>
        <time>2022-04-03T09:59:40.000Z</time>
      </trkpt>
      <trkpt lat="49.69456" lon="4.72852">
        <ele>203</ele>
        <time>2022-04-03T09:59:41.000Z</time>
      </trkpt>
      <trkpt lat="49.69456" lon="4.72855">
        <ele>203</ele>
        <time>2022-04-03T09:59:42.000Z</time>
      </trkpt>
      <trkpt lat="49.69455" lon="4.72856">
        <ele>203</ele>
        <time>2022-04-03T09:59:43.000Z</time>
      </trkpt>
      <trkpt lat="49.69453" lon="4.72857">
        <ele>203</ele>
        <time>2022-04-03T09:59:44.000Z</time>
      </trkpt>
      <trkpt lat="49.6945" lon="4.72857">
        <ele>202</ele>
        <time>2022-04-03T09:59:45.000Z</time>
      </trkpt>
      <trkpt lat="49.69447" lon="4.72858">
        <ele>202</ele>
        <time>2022-04-03T09:59:46.000Z</time>
      </trkpt>
      <trkpt lat="49.69443" lon="4.7286">
        <ele>202</ele>
        <time>2022-04-03T09:59:47.000Z</time>
      </trkpt>
      <trkpt lat="49.69438" lon="4.72863">
        <ele>202</ele>
        <time>2022-04-03T09:59:48.000Z</time>
      </trkpt>
      <trkpt lat="49.69434" lon="4.72865">
        <ele>202</ele>
        <time>2022-04-03T09:59:49.000Z</time>
      </trkpt>
      <trkpt lat="49.6943" lon="4.72869">
        <ele>201</ele>
        <time>2022-04-03T09:59:50.000Z</time>
      </trkpt>
      <trkpt lat="49.69426" lon="4.72874">
        <ele>201</ele>
        <time>2022-04-03T09:59:51.000Z</time>
      </trkpt>
      <trkpt lat="49.69424" lon="4.72881">
        <ele>201</ele>
        <time>2022-04-03T09:59:52.000Z</time>
      </trkpt>
      <trkpt lat="49.69423" lon="4.72888">
        <ele>201</ele>
        <time>2022-04-03T09:59:53.000Z</time>
      </trkpt>
      <trkpt lat="49.69423" lon="4.72896">
        <ele>201</ele>
        <time>2022-04-03T09:59:54.000Z</time>
      </trkpt>
      <trkpt lat="49.69424" lon="4.72906">
        <ele>201</ele>
        <time>2022-04-03T09:59:55.000Z</time>
      </trkpt>
      <trkpt lat="49.69426" lon="4.72916">
        <ele>201</ele>
        <time>2022-04-03T09:59:56.000Z</time>
      </trkpt>
      <trkpt lat="49.69428" lon="4.72926">
        <ele>200</ele>
        <time>2022-04-03T09:59:57.000Z</time>
      </trkpt>
      <trkpt lat="49.69431" lon="4.72935">
        <ele>200</ele>
        <time>2022-04-03T09:59:58.000Z</time>
      </trkpt>
      <trkpt lat="49.69434" lon="4.72945">
        <ele>200</ele>
        <time>2022-04-03T09:59:59.000Z</time>
      </trkpt>
      <trkpt lat="49.69437" lon="4.72955">
        <ele>200</ele>
        <time>2022-04-03T10:00:00.000Z</time>
      </trkpt>
      <trkpt lat="49.69439" lon="4.72965">
        <ele>199</ele>
        <time>2022-04-03T10:00:01.000Z</time>
      </trkpt>
      <trkpt lat="49.69443" lon="4.72976">
        <ele>199</ele>
        <time>2022-04-03T10:00:02.000Z</time>
      </trkpt>
      <trkpt lat="49.69445" lon="4.72987">
        <ele>199</ele>
        <time>2022-04-03T10:00:03.000Z</time>
      </trkpt>
      <trkpt lat="49.69448" lon="4.72998">
        <ele>198</ele>
        <time>2022-04-03T10:00:04.000Z</time>
      </trkpt>
      <trkpt lat="49.6945" lon="4.73009">
        <ele>198</ele>
        <time>2022-04-03T10:00:05.000Z</time>
      </trkpt>
      <trkpt lat="49.69453" lon="4.73021">
        <ele>198</ele>
        <time>2022-04-03T10:00:06.000Z</time>
      </trkpt>
      <trkpt lat="49.69455" lon="4.73033">
        <ele>197</ele>
        <time>2022-04-03T10:00:07.000Z</time>
      </trkpt>
      <trkpt lat="49.69456" lon="4.73045">
        <ele>196</ele>
        <time>2022-04-03T10:00:08.000Z</time>
      </trkpt>
      <trkpt lat="49.69456" lon="4.73057">
        <ele>196</ele>
        <time>2022-04-03T10:00:09.000Z</time>
      </trkpt>
      <trkpt lat="49.69456" lon="4.73068">
        <ele>195</ele>
        <time>2022-04-03T10:00:10.000Z</time>
      </trkpt>
      <trkpt lat="49.69456" lon="4.7308">
        <ele>195</ele>
        <time>2022-04-03T10:00:11.000Z</time>
      </trkpt>
      <trkpt lat="49.69456" lon="4.7309">
        <ele>194</ele>
        <time>2022-04-03T10:00:12.000Z</time>
      </trkpt>
      <trkpt lat="49.69457" lon="4.731">
        <ele>194</ele>
        <time>2022-04-03T10:00:13.000Z</time>
      </trkpt>
      <trkpt lat="49.69457" lon="4.73109">
        <ele>193</ele>
        <time>2022-04-03T10:00:14.000Z</time>
      </trkpt>
      <trkpt lat="49.69457" lon="4.73117">
        <ele>193</ele>
        <time>2022-04-03T10:00:15.000Z</time>
      </trkpt>
      <trkpt lat="49.69457" lon="4.73126">
        <ele>193</ele>
        <time>2022-04-03T10:00:16.000Z</time>
      </trkpt>
      <trkpt lat="49.69458" lon="4.73134">
        <ele>192</ele>
        <time>2022-04-03T10:00:17.000Z</time>
      </trkpt>
      <trkpt lat="49.69459" lon="4.73141">
        <ele>192</ele>
        <time>2022-04-03T10:00:18.000Z</time>
      </trkpt>
      <trkpt lat="49.6946" lon="4.73148">
        <ele>192</ele>
        <time>2022-04-03T10:00:19.000Z</time>
      </trkpt>
      <trkpt lat="49.69461" lon="4.73155">
        <ele>192</ele>
        <time>2022-04-03T10:00:20.000Z</time>
      </trkpt>
      <trkpt lat="49.69462" lon="4.73162">
        <ele>192</ele>
        <time>2022-04-03T10:00:21.000Z</time>
      </trkpt>
      <trkpt lat="49.69463" lon="4.73168">
        <ele>191</ele>
        <time>2022-04-03T10:00:22.000Z</time>
      </trkpt>
      <trkpt lat="49.69464" lon="4.73174">
        <ele>191</ele>
        <time>2022-04-03T10:00:23.000Z</time>
      </trkpt>
      <trkpt lat="49.69465" lon="4.7318">
        <ele>191</ele>
        <time>2022-04-03T10:00:24.000Z</time>
      </trkpt>
      <trkpt lat="49.69466" lon="4.73186">
        <ele>191</ele>
        <time>2022-04-03T10:00:25.000Z</time>
      </trkpt>
      <trkpt lat="49.69467" lon="4.73191">
        <ele>191</ele>
        <time>2022-04-03T10:00:26.000Z</time>
      </trkpt>
      <trkpt lat="49.69468" lon="4.73197">
        <ele>190</ele>
        <time>2022-04-03T10:00:27.000Z</time>
      </trkpt>
      <trkpt lat="49.69469" lon="4.73204">
        <ele>190</ele>
        <time>2022-04-03T10:00:28.000Z</time>
      </trkpt>
      <trkpt lat="49.69471" lon="4.73209">
        <ele>190</ele>
        <time>2022-04-03T10:00:29.000Z</time>
      </trkpt>
      <trkpt lat="49.69473" lon="4.73215">
        <ele>189</ele>
        <time>2022-04-03T10:00:30.000Z</time>
      </trkpt>
      <trkpt lat="49.69474" lon="4.7322">
        <ele>189</ele>
        <time>2022-04-03T10:00:31.000Z</time>
      </trkpt>
      <trkpt lat="49.69476" lon="4.73226">
        <ele>189</ele>
        <time>2022-04-03T10:00:32.000Z</time>
      </trkpt>
      <trkpt lat="49.69477" lon="4.73232">
        <ele>189</ele>
        <time>2022-04-03T10:00:33.000Z</time>
      </trkpt>
      <trkpt lat="49.69479" lon="4.73237">
        <ele>189</ele>
        <time>2022-04-03T10:00:34.000Z</time>
      </trkpt>
      <trkpt lat="49.69482" lon="4.73241">
        <ele>188</ele>
        <time>2022-04-03T10:00:35.000Z</time>
      </trkpt>
      <trkpt lat="49.69485" lon="4.73246">
        <ele>188</ele>
        <time>2022-04-03T10:00:36.000Z</time>
      </trkpt>
      <trkpt lat="49.69487" lon="4.73251">
        <ele>188</ele>
        <time>2022-04-03T10:00:37.000Z</time>
      </trkpt>
      <trkpt lat="49.6949" lon="4.73257">
        <ele>188</ele>
        <time>2022-04-03T10:00:38.000Z</time>
      </trkpt>
      <trkpt lat="49.69493" lon="4.73262">
        <ele>188</ele>
        <time>2022-04-03T10:00:39.000Z</time>
      </trkpt>
      <trkpt lat="49.69496" lon="4.73266">
        <ele>188</ele>
        <time>2022-04-03T10:00:40.000Z</time>
      </trkpt>
      <trkpt lat="49.69499" lon="4.73271">
        <ele>188</ele>
        <time>2022-04-03T10:00:41.000Z</time>
      </trkpt>
      <trkpt lat="49.69501" lon="4.73276">
        <ele>188</ele>
        <time>2022-04-03T10:00:42.000Z</time>
      </trkpt>
      <trkpt lat="49.69504" lon="4.73281">
        <ele>188</ele>
        <time>2022-04-03T10:00:43.000Z</time>
      </trkpt>
      <trkpt lat="49.69507" lon="4.73287">
        <ele>188</ele>
        <time>2022-04-03T10:00:44.000Z</time>
      </trkpt>
      <trkpt lat="49.6951" lon="4.73293">
        <ele>188</ele>
        <time>2022-04-03T10:00:45.000Z</time>
      </trkpt>
      <trkpt lat="49.69512" lon="4.733">
        <ele>188</ele>
        <time>2022-04-03T10:00:46.000Z</time>
      </trkpt>
      <trkpt lat="49.69515" lon="4.73306">
        <ele>188</ele>
        <time>2022-04-03T10:00:47.000Z</time>
      </trkpt>
      <trkpt lat="49.69517" lon="4.73313">
        <ele>188</ele>
        <time>2022-04-03T10:00:48.000Z</time>
      </trkpt>
      <trkpt lat="49.69519" lon="4.73319">
        <ele>188</ele>
        <time>2022-04-03T10:00:49.000Z</time>
      </trkpt>
      <trkpt lat="49.6952" lon="4.73326">
        <ele>188</ele>
        <time>2022-04-03T10:00:50.000Z</time>
      </trkpt>
      <trkpt lat="49.69522" lon="4.73333">
        <ele>188</ele>
        <time>2022-04-03T10:00:51.000Z</time>
      </trkpt>
      <trkpt lat="49.69524" lon="4.7334">
        <ele>188</ele>
        <time>2022-04-03T10:00:52.000Z</time>
      </trkpt>
      <trkpt lat="49.69525" lon="4.73348">
        <ele>188</ele>
        <time>2022-04-03T10:00:53.000Z</time>
      </trkpt>
      <trkpt lat="49.69526" lon="4.73355">
        <ele>188</ele>
        <time>2022-04-03T10:00:54.000Z</time>
      </trkpt>
      <trkpt lat="49.69527" lon="4.73361">
        <ele>188</ele>
        <time>2022-04-03T10:00:55.000Z</time>
      </trkpt>
      <trkpt lat="49.69528" lon="4.73368">
        <ele>188</ele>
        <time>2022-04-03T10:00:56.000Z</time>
      </trkpt>
      <trkpt lat="49.69529" lon="4.73374">
        <ele>188</ele>
        <time>2022-04-03T10:00:57.000Z</time>
      </trkpt>
      <trkpt lat="49.69529" lon="4.7338">
        <ele>188</ele>
        <time>2022-04-03T10:00:58.000Z</time>
      </trkpt>
      <trkpt lat="49.6953" lon="4.73386">
        <ele>188</ele>
        <time>2022-04-03T10:00:59.000Z</time>
      </trkpt>
      <trkpt lat="49.69531" lon="4.73393">
        <ele>188</ele>
        <time>2022-04-03T10:01:00.000Z</time>
      </trkpt>
      <trkpt lat="49.69531" lon="4.73399">
        <ele>188</ele>
        <time>2022-04-03T10:01:01.000Z</time>
      </trkpt>
      <trkpt lat="49.69532" lon="4.73405">
        <ele>187</ele>
        <time>2022-04-03T10:01:02.000Z</time>
      </trkpt>
      <trkpt lat="49.69533" lon="4.73411">
        <ele>187</ele>
        <time>2022-04-03T10:01:03.000Z</time>
      </trkpt>
      <trkpt lat="49.69533" lon="4.73418">
        <ele>188</ele>
        <time>2022-04-03T10:01:04.000Z</time>
      </trkpt>
      <trkpt lat="49.69534" lon="4.73424">
        <ele>188</ele>
        <time>2022-04-03T10:01:05.000Z</time>
      </trkpt>
      <trkpt lat="49.69534" lon="4.73431">
        <ele>188</ele>
        <time>2022-04-03T10:01:06.000Z</time>
      </trkpt>
      <trkpt lat="49.69534" lon="4.73437">
        <ele>188</ele>
        <time>2022-04-03T10:01:07.000Z</time>
      </trkpt>
      <trkpt lat="49.69535" lon="4.73444">
        <ele>188</ele>
        <time>2022-04-03T10:01:08.000Z</time>
      </trkpt>
      <trkpt lat="49.69535" lon="4.7345">
        <ele>188</ele>
        <time>2022-04-03T10:01:09.000Z</time>
      </trkpt>
      <trkpt lat="49.69535" lon="4.73456">
        <ele>188</ele>
        <time>2022-04-03T10:01:10.000Z</time>
      </trkpt>
      <trkpt lat="49.69535" lon="4.73462">
        <ele>188</ele>
        <time>2022-04-03T10:01:11.000Z</time>
      </trkpt>
      <trkpt lat="49.69535" lon="4.73467">
        <ele>188</ele>
        <time>2022-04-03T10:01:12.000Z</time>
      </trkpt>
      <trkpt lat="49.69536" lon="4.73473">
        <ele>188</ele>
        <time>2022-04-03T10:01:13.000Z</time>
      </trkpt>
      <trkpt lat="49.69536" lon="4.73478">
        <ele>189</ele>
        <time>2022-04-03T10:01:14.000Z</time>
      </trkpt>
      <trkpt lat="49.69536" lon="4.73483">
        <ele>189</ele>
        <time>2022-04-03T10:01:15.000Z</time>
      </trkpt>
      <trkpt lat="49.69536" lon="4.73488">
        <ele>189</ele>
        <time>2022-04-03T10:01:16.000Z</time>
      </trkpt>
      <trkpt lat="49.69537" lon="4.73493">
        <ele>189</ele>
        <time>2022-04-03T10:01:17.000Z</time>
      </trkpt>
      <trkpt lat="49.69537" lon="4.73499">
        <ele>189</ele>
        <time>2022-04-03T10:01:18.000Z</time>
      </trkpt>
      <trkpt lat="49.69537" lon="4.73505">
        <ele>189</ele>
        <time>2022-04-03T10:01:19.000Z</time>
      </trkpt>
      <trkpt lat="49.69537" lon="4.7351">
        <ele>189</ele>
        <time>2022-04-03T10:01:20.000Z</time>
      </trkpt>
      <trkpt lat="49.69538" lon="4.73515">
        <ele>189</ele>
        <time>2022-04-03T10:01:21.000Z</time>
      </trkpt>
      <trkpt lat="49.69538" lon="4.73519">
        <ele>189</ele>
        <time>2022-04-03T10:01:22.000Z</time>
      </trkpt>
      <trkpt lat="49.69539" lon="4.73523">
        <ele>189</ele>
        <time>2022-04-03T10:01:23.000Z</time>
      </trkpt>
      <trkpt lat="49.69539" lon="4.73527">
        <ele>189</ele>
        <time>2022-04-03T10:01:24.000Z</time>
      </trkpt>
      <trkpt lat="49.6954" lon="4.7353">
        <ele>189</ele>
        <time>2022-04-03T10:01:25.000Z</time>
      </trkpt>
      <trkpt lat="49.69541" lon="4.73533">
        <ele>190</ele>
        <time>2022-04-03T10:01:26.000Z</time>
      </trkpt>
      <trkpt lat="49.69542" lon="4.73536">
        <ele>190</ele>
        <time>2022-04-03T10:01:27.000Z</time>
      </trkpt>
      <trkpt lat="49.69542" lon="4.73539">
        <ele>190</ele>
        <time>2022-04-03T10:01:28.000Z</time>
      </trkpt>
      <trkpt lat="49.69542" lon="4.73541">
        <ele>190</ele>
        <time>2022-04-03T10:01:29.000Z</time>
      </trkpt>
      <trkpt lat="49.69542" lon="4.73543">
        <ele>190</ele>
        <time>2022-04-03T10:01:30.000Z</time>
      </trkpt>
      <trkpt lat="49.69541" lon="4.73544">
        <ele>190</ele>
        <time>2022-04-03T10:01:31.000Z</time>
      </trkpt>
      <trkpt lat="49.6954" lon="4.73543">
        <ele>190</ele>
        <time>2022-04-03T10:01:32.000Z</time>
      </trkpt>
      <trkpt lat="49.69539" lon="4.73542">
        <ele>190</ele>
        <time>2022-04-03T10:01:33.000Z</time>
      </trkpt>
      <trkpt lat="49.69537" lon="4.73541">
        <ele>190</ele>
        <time>2022-04-03T10:01:34.000Z</time>
      </trkpt>
      <trkpt lat="49.69535" lon="4.7354">
        <ele>190</ele>
        <time>2022-04-03T10:01:35.000Z</time>
      </trkpt>
      <trkpt lat="49.69532" lon="4.73539">
        <ele>190</ele>
        <time>2022-04-03T10:01:36.000Z</time>
      </trkpt>
      <trkpt lat="49.69529" lon="4.73539">
        <ele>190</ele>
        <time>2022-04-03T10:01:37.000Z</time>
      </trkpt>
      <trkpt lat="49.69525" lon="4.73539">
        <ele>190</ele>
        <time>2022-04-03T10:01:38.000Z</time>
      </trkpt>
      <trkpt lat="49.69522" lon="4.73539">
        <ele>190</ele>
        <time>2022-04-03T10:01:39.000Z</time>
      </trkpt>
      <trkpt lat="49.69518" lon="4.73539">
        <ele>191</ele>
        <time>2022-04-03T10:01:40.000Z</time>
      </trkpt>
      <trkpt lat="49.69515" lon="4.7354">
        <ele>191</ele>
        <time>2022-04-03T10:01:41.000Z</time>
      </trkpt>
      <trkpt lat="49.69512" lon="4.73541">
        <ele>191</ele>
        <time>2022-04-03T10:01:42.000Z</time>
      </trkpt>
      <trkpt lat="49.6951" lon="4.73542">
        <ele>191</ele>
        <time>2022-04-03T10:01:43.000Z</time>
      </trkpt>
      <trkpt lat="49.69507" lon="4.73542">
        <ele>192</ele>
        <time>2022-04-03T10:01:44.000Z</time>
      </trkpt>
      <trkpt lat="49.69505" lon="4.73544">
        <ele>192</ele>
        <time>2022-04-03T10:01:45.000Z</time>
      </trkpt>
      <trkpt lat="49.69502" lon="4.73545">
        <ele>192</ele>
        <time>2022-04-03T10:01:46.000Z</time>
      </trkpt>
      <trkpt lat="49.695" lon="4.73546">
        <ele>192</ele>
        <time>2022-04-03T10:01:47.000Z</time>
      </trkpt>
      <trkpt lat="49.69498" lon="4.73547">
        <ele>193</ele>
        <time>2022-04-03T10:01:48.000Z</time>
      </trkpt>
      <trkpt lat="49.69496" lon="4.73549">
        <ele>193</ele>
        <time>2022-04-03T10:01:49.000Z</time>
      </trkpt>
      <trkpt lat="49.69493" lon="4.73549">
        <ele>193</ele>
        <time>2022-04-03T10:01:50.000Z</time>
      </trkpt>
      <trkpt lat="49.69491" lon="4.7355">
        <ele>193</ele>
        <time>2022-04-03T10:01:51.000Z</time>
      </trkpt>
      <trkpt lat="49.69488" lon="4.73551">
        <ele>194</ele>
        <time>2022-04-03T10:01:52.000Z</time>
      </trkpt>
      <trkpt lat="49.69485" lon="4.73551">
        <ele>194</ele>
        <time>2022-04-03T10:01:53.000Z</time>
      </trkpt>
      <trkpt lat="49.69483" lon="4.73551">
        <ele>194</ele>
        <time>2022-04-03T10:01:54.000Z</time>
      </trkpt>
      <trkpt lat="49.69481" lon="4.73551">
        <ele>194</ele>
        <time>2022-04-03T10:01:55.000Z</time>
      </trkpt>
      <trkpt lat="49.69478" lon="4.7355">
        <ele>194</ele>
        <time>2022-04-03T10:01:56.000Z</time>
      </trkpt>
      <trkpt lat="49.69476" lon="4.7355">
        <ele>195</ele>
        <time>2022-04-03T10:01:57.000Z</time>
      </trkpt>
      <trkpt lat="49.69473" lon="4.7355">
        <ele>195</ele>
        <time>2022-04-03T10:01:58.000Z</time>
      </trkpt>
      <trkpt lat="49.6947" lon="4.73551">
        <ele>195</ele>
        <time>2022-04-03T10:01:59.000Z</time>
      </trkpt>
      <trkpt lat="49.69468" lon="4.73551">
        <ele>195</ele>
        <time>2022-04-03T10:02:00.000Z</time>
      </trkpt>
      <trkpt lat="49.69465" lon="4.7355">
        <ele>195</ele>
        <time>2022-04-03T10:02:01.000Z</time>
      </trkpt>
      <trkpt lat="49.69462" lon="4.7355">
        <ele>195</ele>
        <time>2022-04-03T10:02:02.000Z</time>
      </trkpt>
      <trkpt lat="49.6946" lon="4.7355">
        <ele>195</ele>
        <time>2022-04-03T10:02:03.000Z</time>
      </trkpt>
      <trkpt lat="49.69457" lon="4.7355">
        <ele>195</ele>
        <time>2022-04-03T10:02:04.000Z</time>
      </trkpt>
      <trkpt lat="49.69455" lon="4.7355">
        <ele>196</ele>
        <time>2022-04-03T10:02:05.000Z</time>
      </trkpt>
      <trkpt lat="49.69452" lon="4.7355">
        <ele>196</ele>
        <time>2022-04-03T10:02:06.000Z</time>
      </trkpt>
      <trkpt lat="49.6945" lon="4.7355">
        <ele>196</ele>
        <time>2022-04-03T10:02:07.000Z</time>
      </trkpt>
      <trkpt lat="49.69447" lon="4.73551">
        <ele>196</ele>
        <time>2022-04-03T10:02:08.000Z</time>
      </trkpt>
      <trkpt lat="49.69445" lon="4.7355">
        <ele>196</ele>
        <time>2022-04-03T10:02:09.000Z</time>
      </trkpt>
      <trkpt lat="49.69443" lon="4.7355">
        <ele>196</ele>
        <time>2022-04-03T10:02:10.000Z</time>
      </trkpt>
      <trkpt lat="49.69441" lon="4.7355">
        <ele>197</ele>
        <time>2022-04-03T10:02:11.000Z</time>
      </trkpt>
      <trkpt lat="49.69438" lon="4.73549">
        <ele>197</ele>
        <time>2022-04-03T10:02:12.000Z</time>
      </trkpt>
      <trkpt lat="49.69436" lon="4.73549">
        <ele>197</ele>
        <time>2022-04-03T10:02:13.000Z</time>
      </trkpt>
      <trkpt lat="49.69433" lon="4.73548">
        <ele>197</ele>
        <time>2022-04-03T10:02:14.000Z</time>
      </trkpt>
      <trkpt lat="49.69431" lon="4.73548">
        <ele>198</ele>
        <time>2022-04-03T10:02:15.000Z</time>
      </trkpt>
      <trkpt lat="49.69429" lon="4.73547">
        <ele>198</ele>
        <time>2022-04-03T10:02:16.000Z</time>
      </trkpt>
      <trkpt lat="49.69427" lon="4.73546">
        <ele>198</ele>
        <time>2022-04-03T10:02:17.000Z</time>
      </trkpt>
      <trkpt lat="49.69424" lon="4.73546">
        <ele>198</ele>
        <time>2022-04-03T10:02:18.000Z</time>
      </trkpt>
      <trkpt lat="49.69422" lon="4.73544">
        <ele>199</ele>
        <time>2022-04-03T10:02:19.000Z</time>
      </trkpt>
      <trkpt lat="49.69419" lon="4.73543">
        <ele>199</ele>
        <time>2022-04-03T10:02:20.000Z</time>
      </trkpt>
      <trkpt lat="49.69416" lon="4.73542">
        <ele>199</ele>
        <time>2022-04-03T10:02:21.000Z</time>
      </trkpt>
      <trkpt lat="49.69413" lon="4.73542">
        <ele>199</ele>
        <time>2022-04-03T10:02:22.000Z</time>
      </trkpt>
      <trkpt lat="49.69411" lon="4.73541">
        <ele>199</ele>
        <time>2022-04-03T10:02:23.000Z</time>
      </trkpt>
      <trkpt lat="49.69408" lon="4.73541">
        <ele>199</ele>
        <time>2022-04-03T10:02:24.000Z</time>
      </trkpt>
      <trkpt lat="49.69405" lon="4.7354">
        <ele>199</ele>
        <time>2022-04-03T10:02:25.000Z</time>
      </trkpt>
      <trkpt lat="49.69403" lon="4.7354">
        <ele>200</ele>
        <time>2022-04-03T10:02:26.000Z</time>
      </trkpt>
      <trkpt lat="49.69401" lon="4.7354">
        <ele>200</ele>
        <time>2022-04-03T10:02:27.000Z</time>
      </trkpt>
      <trkpt lat="49.694" lon="4.73539">
        <ele>200</ele>
        <time>2022-04-03T10:02:28.000Z</time>
      </trkpt>
      <trkpt lat="49.69398" lon="4.73538">
        <ele>200</ele>
        <time>2022-04-03T10:02:29.000Z</time>
      </trkpt>
      <trkpt lat="49.69396" lon="4.73538">
        <ele>200</ele>
        <time>2022-04-03T10:02:30.000Z</time>
      </trkpt>
      <trkpt lat="49.69394" lon="4.73537">
        <ele>201</ele>
        <time>2022-04-03T10:02:31.000Z</time>
      </trkpt>
      <trkpt lat="49.69392" lon="4.73535">
        <ele>201</ele>
        <time>2022-04-03T10:02:32.000Z</time>
      </trkpt>
      <trkpt lat="49.6939" lon="4.73534">
        <ele>201</ele>
        <time>2022-04-03T10:02:33.000Z</time>
      </trkpt>
      <trkpt lat="49.69387" lon="4.73532">
        <ele>201</ele>
        <time>2022-04-03T10:02:34.000Z</time>
      </trkpt>
      <trkpt lat="49.69385" lon="4.73531">
        <ele>201</ele>
        <time>2022-04-03T10:02:35.000Z</time>
      </trkpt>
      <trkpt lat="49.69382" lon="4.73529">
        <ele>201</ele>
        <time>2022-04-03T10:02:36.000Z</time>
      </trkpt>
      <trkpt lat="49.6938" lon="4.73528">
        <ele>201</ele>
        <time>2022-04-03T10:02:37.000Z</time>
      </trkpt>
      <trkpt lat="49.69378" lon="4.73526">
        <ele>201</ele>
        <time>2022-04-03T10:02:38.000Z</time>
      </trkpt>
      <trkpt lat="49.69375" lon="4.73525">
        <ele>202</ele>
        <time>2022-04-03T10:02:39.000Z</time>
      </trkpt>
      <trkpt lat="49.69372" lon="4.73524">
        <ele>202</ele>
        <time>2022-04-03T10:02:40.000Z</time>
      </trkpt>
      <trkpt lat="49.6937" lon="4.73523">
        <ele>202</ele>
        <time>2022-04-03T10:02:41.000Z</time>
      </trkpt>
      <trkpt lat="49.69367" lon="4.73522">
        <ele>202</ele>
        <time>2022-04-03T10:02:42.000Z</time>
      </trkpt>
      <trkpt lat="49.69365" lon="4.73521">
        <ele>202</ele>
        <time>2022-04-03T10:02:43.000Z</time>
      </trkpt>
      <trkpt lat="49.69362" lon="4.7352">
        <ele>202</ele>
        <time>2022-04-03T10:02:44.000Z</time>
      </trkpt>
      <trkpt lat="49.69359" lon="4.73519">
        <ele>202</ele>
        <time>2022-04-03T10:02:45.000Z</time>
      </trkpt>
      <trkpt lat="49.69357" lon="4.73518">
        <ele>202</ele>
        <time>2022-04-03T10:02:46.000Z</time>
      </trkpt>
      <trkpt lat="49.69354" lon="4.73518">
        <ele>202</ele>
        <time>2022-04-03T10:02:47.000Z</time>
      </trkpt>
      <trkpt lat="49.69352" lon="4.73518">
        <ele>203</ele>
        <time>2022-04-03T10:02:48.000Z</time>
      </trkpt>
      <trkpt lat="49.6935" lon="4.73517">
        <ele>203</ele>
        <time>2022-04-03T10:02:49.000Z</time>
      </trkpt>
      <trkpt lat="49.69348" lon="4.73517">
        <ele>203</ele>
        <time>2022-04-03T10:02:50.000Z</time>
      </trkpt>
      <trkpt lat="49.69346" lon="4.73516">
        <ele>203</ele>
        <time>2022-04-03T10:02:51.000Z</time>
      </trkpt>
      <trkpt lat="49.69343" lon="4.73516">
        <ele>203</ele>
        <time>2022-04-03T10:02:52.000Z</time>
      </trkpt>
      <trkpt lat="49.69341" lon="4.73516">
        <ele>203</ele>
        <time>2022-04-03T10:02:53.000Z</time>
      </trkpt>
      <trkpt lat="49.69338" lon="4.73516">
        <ele>203</ele>
        <time>2022-04-03T10:02:54.000Z</time>
      </trkpt>
      <trkpt lat="49.69335" lon="4.73516">
        <ele>203</ele>
        <time>2022-04-03T10:02:55.000Z</time>
      </trkpt>
      <trkpt lat="49.69333" lon="4.73515">
        <ele>203</ele>
        <time>2022-04-03T10:02:56.000Z</time>
      </trkpt>
      <trkpt lat="49.6933" lon="4.73516">
        <ele>203</ele>
        <time>2022-04-03T10:02:57.000Z</time>
      </trkpt>
      <trkpt lat="49.69327" lon="4.73516">
        <ele>203</ele>
        <time>2022-04-03T10:02:58.000Z</time>
      </trkpt>
      <trkpt lat="49.69325" lon="4.73516">
        <ele>203</ele>
        <time>2022-04-03T10:02:59.000Z</time>
      </trkpt>
      <trkpt lat="49.69322" lon="4.73516">
        <ele>203</ele>
        <time>2022-04-03T10:03:00.000Z</time>
      </trkpt>
      <trkpt lat="49.69319" lon="4.73516">
        <ele>204</ele>
        <time>2022-04-03T10:03:01.000Z</time>
      </trkpt>
      <trkpt lat="49.69317" lon="4.73517">
        <ele>204</ele>
        <time>2022-04-03T10:03:02.000Z</time>
      </trkpt>
      <trkpt lat="49.69315" lon="4.73516">
        <ele>204</ele>
        <time>2022-04-03T10:03:03.000Z</time>
      </trkpt>
      <trkpt lat="49.69312" lon="4.73515">
        <ele>204</ele>
        <time>2022-04-03T10:03:04.000Z</time>
      </trkpt>
      <trkpt lat="49.69309" lon="4.73514">
        <ele>204</ele>
        <time>2022-04-03T10:03:05.000Z</time>
      </trkpt>
      <trkpt lat="49.69307" lon="4.73513">
        <ele>204</ele>
        <time>2022-04-03T10:03:06.000Z</time>
      </trkpt>
      <trkpt lat="49.69304" lon="4.73511">
        <ele>204</ele>
        <time>2022-04-03T10:03:07.000Z</time>
      </trkpt>
      <trkpt lat="49.69302" lon="4.73508">
        <ele>205</ele>
        <time>2022-04-03T10:03:08.000Z</time>
      </trkpt>
      <trkpt lat="49.69298" lon="4.73506">
        <ele>205</ele>
        <time>2022-04-03T10:03:09.000Z</time>
      </trkpt>
      <trkpt lat="49.69296" lon="4.73504">
        <ele>205</ele>
        <time>2022-04-03T10:03:10.000Z</time>
      </trkpt>
      <trkpt lat="49.69292" lon="4.73502">
        <ele>205</ele>
        <time>2022-04-03T10:03:11.000Z</time>
      </trkpt>
      <trkpt lat="49.6929" lon="4.73499">
        <ele>206</ele>
        <time>2022-04-03T10:03:12.000Z</time>
      </trkpt>
      <trkpt lat="49.69287" lon="4.73497">
        <ele>206</ele>
        <time>2022-04-03T10:03:13.000Z</time>
      </trkpt>
      <trkpt lat="49.69285" lon="4.73494">
        <ele>206</ele>
        <time>2022-04-03T10:03:14.000Z</time>
      </trkpt>
      <trkpt lat="49.69283" lon="4.73492">
        <ele>206</ele>
        <time>2022-04-03T10:03:15.000Z</time>
      </trkpt>
      <trkpt lat="49.69281" lon="4.7349">
        <ele>207</ele>
        <time>2022-04-03T10:03:16.000Z</time>
      </trkpt>
      <trkpt lat="49.69279" lon="4.73488">
        <ele>207</ele>
        <time>2022-04-03T10:03:17.000Z</time>
      </trkpt>
      <trkpt lat="49.69276" lon="4.73486">
        <ele>207</ele>
        <time>2022-04-03T10:03:18.000Z</time>
      </trkpt>
      <trkpt lat="49.69274" lon="4.73484">
        <ele>207</ele>
        <time>2022-04-03T10:03:19.000Z</time>
      </trkpt>
      <trkpt lat="49.69272" lon="4.73482">
        <ele>208</ele>
        <time>2022-04-03T10:03:20.000Z</time>
      </trkpt>
      <trkpt lat="49.69269" lon="4.7348">
        <ele>208</ele>
        <time>2022-04-03T10:03:21.000Z</time>
      </trkpt>
      <trkpt lat="49.69267" lon="4.73478">
        <ele>208</ele>
        <time>2022-04-03T10:03:22.000Z</time>
      </trkpt>
      <trkpt lat="49.69264" lon="4.73476">
        <ele>208</ele>
        <time>2022-04-03T10:03:23.000Z</time>
      </trkpt>
      <trkpt lat="49.69262" lon="4.73475">
        <ele>208</ele>
        <time>2022-04-03T10:03:24.000Z</time>
      </trkpt>
      <trkpt lat="49.69259" lon="4.73473">
        <ele>208</ele>
        <time>2022-04-03T10:03:25.000Z</time>
      </trkpt>
      <trkpt lat="49.69257" lon="4.7347">
        <ele>209</ele>
        <time>2022-04-03T10:03:26.000Z</time>
      </trkpt>
      <trkpt lat="49.69255" lon="4.73469">
        <ele>209</ele>
        <time>2022-04-03T10:03:27.000Z</time>
      </trkpt>
      <trkpt lat="49.69253" lon="4.73468">
        <ele>209</ele>
        <time>2022-04-03T10:03:28.000Z</time>
      </trkpt>
      <trkpt lat="49.69251" lon="4.73467">
        <ele>210</ele>
        <time>2022-04-03T10:03:29.000Z</time>
      </trkpt>
      <trkpt lat="49.69249" lon="4.73466">
        <ele>210</ele>
        <time>2022-04-03T10:03:30.000Z</time>
      </trkpt>
      <trkpt lat="49.69247" lon="4.73464">
        <ele>210</ele>
        <time>2022-04-03T10:03:31.000Z</time>
      </trkpt>
      <trkpt lat="49.69245" lon="4.73462">
        <ele>210</ele>
        <time>2022-04-03T10:03:32.000Z</time>
      </trkpt>
      <trkpt lat="49.69243" lon="4.73461">
        <ele>210</ele>
        <time>2022-04-03T10:03:33.000Z</time>
      </trkpt>
      <trkpt lat="49.69241" lon="4.73459">
        <ele>210</ele>
        <time>2022-04-03T10:03:34.000Z</time>
      </trkpt>
      <trkpt lat="49.69239" lon="4.73457">
        <ele>211</ele>
        <time>2022-04-03T10:03:35.000Z</time>
      </trkpt>
      <trkpt lat="49.69237" lon="4.73455">
        <ele>211</ele>
        <time>2022-04-03T10:03:36.000Z</time>
      </trkpt>
      <trkpt lat="49.69234" lon="4.73453">
        <ele>211</ele>
        <time>2022-04-03T10:03:37.000Z</time>
      </trkpt>
      <trkpt lat="49.69232" lon="4.73451">
        <ele>211</ele>
        <time>2022-04-03T10:03:38.000Z</time>
      </trkpt>
      <trkpt lat="49.69229" lon="4.73449">
        <ele>211</ele>
        <time>2022-04-03T10:03:39.000Z</time>
      </trkpt>
      <trkpt lat="49.69226" lon="4.73446">
        <ele>212</ele>
        <time>2022-04-03T10:03:40.000Z</time>
      </trkpt>
      <trkpt lat="49.69224" lon="4.73444">
        <ele>212</ele>
        <time>2022-04-03T10:03:41.000Z</time>
      </trkpt>
      <trkpt lat="49.69222" lon="4.73442">
        <ele>212</ele>
        <time>2022-04-03T10:03:42.000Z</time>
      </trkpt>
      <trkpt lat="49.69219" lon="4.73441">
        <ele>212</ele>
        <time>2022-04-03T10:03:43.000Z</time>
      </trkpt>
      <trkpt lat="49.69218" lon="4.73439">
        <ele>212</ele>
        <time>2022-04-03T10:03:44.000Z</time>
      </trkpt>
      <trkpt lat="49.69216" lon="4.73436">
        <ele>213</ele>
        <time>2022-04-03T10:03:45.000Z</time>
      </trkpt>
      <trkpt lat="49.69213" lon="4.73435">
        <ele>213</ele>
        <time>2022-04-03T10:03:46.000Z</time>
      </trkpt>
      <trkpt lat="49.69211" lon="4.73433">
        <ele>213</ele>
        <time>2022-04-03T10:03:47.000Z</time>
      </trkpt>
      <trkpt lat="49.69208" lon="4.73431">
        <ele>213</ele>
        <time>2022-04-03T10:03:48.000Z</time>
      </trkpt>
      <trkpt lat="49.69206" lon="4.73429">
        <ele>213</ele>
        <time>2022-04-03T10:03:49.000Z</time>
      </trkpt>
      <trkpt lat="49.69203" lon="4.73428">
        <ele>214</ele>
        <time>2022-04-03T10:03:50.000Z</time>
      </trkpt>
      <trkpt lat="49.69201" lon="4.73427">
        <ele>214</ele>
        <time>2022-04-03T10:03:51.000Z</time>
      </trkpt>
      <trkpt lat="49.69199" lon="4.73425">
        <ele>214</ele>
        <time>2022-04-03T10:03:52.000Z</time>
      </trkpt>
      <trkpt lat="49.69196" lon="4.73424">
        <ele>215</ele>
        <time>2022-04-03T10:03:53.000Z</time>
      </trkpt>
      <trkpt lat="49.69194" lon="4.73423">
        <ele>215</ele>
        <time>2022-04-03T10:03:54.000Z</time>
      </trkpt>
      <trkpt lat="49.69191" lon="4.73422">
        <ele>215</ele>
        <time>2022-04-03T10:03:55.000Z</time>
      </trkpt>
      <trkpt lat="49.69189" lon="4.73422">
        <ele>215</ele>
        <time>2022-04-03T10:03:56.000Z</time>
      </trkpt>
      <trkpt lat="49.69187" lon="4.73422">
        <ele>215</ele>
        <time>2022-04-03T10:03:57.000Z</time>
      </trkpt>
      <trkpt lat="49.69186" lon="4.73422">
        <ele>215</ele>
        <time>2022-04-03T10:03:58.000Z</time>
      </trkpt>
      <trkpt lat="49.69184" lon="4.73423">
        <ele>216</ele>
        <time>2022-04-03T10:03:59.000Z</time>
      </trkpt>
      <trkpt lat="49.69183" lon="4.73423">
        <ele>216</ele>
        <time>2022-04-03T10:04:00.000Z</time>
      </trkpt>
      <trkpt lat="49.69182" lon="4.73424">
        <ele>216</ele>
        <time>2022-04-03T10:04:01.000Z</time>
      </trkpt>
      <trkpt lat="49.6918" lon="4.73423">
        <ele>216</ele>
        <time>2022-04-03T10:04:02.000Z</time>
      </trkpt>
      <trkpt lat="49.69178" lon="4.73423">
        <ele>216</ele>
        <time>2022-04-03T10:04:03.000Z</time>
      </trkpt>
      <trkpt lat="49.69176" lon="4.73423">
        <ele>216</ele>
        <time>2022-04-03T10:04:04.000Z</time>
      </trkpt>
      <trkpt lat="49.69174" lon="4.73424">
        <ele>217</ele>
        <time>2022-04-03T10:04:05.000Z</time>
      </trkpt>
      <trkpt lat="49.69173" lon="4.73424">
        <ele>217</ele>
        <time>2022-04-03T10:04:06.000Z</time>
      </trkpt>
      <trkpt lat="49.69171" lon="4.73424">
        <ele>217</ele>
        <time>2022-04-03T10:04:07.000Z</time>
      </trkpt>
      <trkpt lat="49.69169" lon="4.73424">
        <ele>217</ele>
        <time>2022-04-03T10:04:08.000Z</time>
      </trkpt>
      <trkpt lat="49.69168" lon="4.73425">
        <ele>217</ele>
        <time>2022-04-03T10:04:09.000Z</time>
      </trkpt>
      <trkpt lat="49.69166" lon="4.73426">
        <ele>217</ele>
        <time>2022-04-03T10:04:10.000Z</time>
      </trkpt>
      <trkpt lat="49.69165" lon="4.73426">
        <ele>218</ele>
        <time>2022-04-03T10:04:11.000Z</time>
      </trkpt>
      <trkpt lat="49.69163" lon="4.73426">
        <ele>218</ele>
        <time>2022-04-03T10:04:12.000Z</time>
      </trkpt>
      <trkpt lat="49.69162" lon="4.73426">
        <ele>218</ele>
        <time>2022-04-03T10:04:13.000Z</time>
      </trkpt>
      <trkpt lat="49.6916" lon="4.73427">
        <ele>218</ele>
        <time>2022-04-03T10:04:14.000Z</time>
      </trkpt>
      <trkpt lat="49.69159" lon="4.73427">
        <ele>218</ele>
        <time>2022-04-03T10:04:15.000Z</time>
      </trkpt>
      <trkpt lat="49.69158" lon="4.73427">
        <ele>218</ele>
        <time>2022-04-03T10:04:16.000Z</time>
      </trkpt>
      <trkpt lat="49.69157" lon="4.73427">
        <ele>218</ele>
        <time>2022-04-03T10:04:17.000Z</time>
      </trkpt>
      <trkpt lat="49.69156" lon="4.73427">
        <ele>218</ele>
        <time>2022-04-03T10:04:18.000Z</time>
      </trkpt>
      <trkpt lat="49.69155" lon="4.73428">
        <ele>218</ele>
        <time>2022-04-03T10:04:19.000Z</time>
      </trkpt>
      <trkpt lat="49.69154" lon="4.73428">
        <ele>219</ele>
        <time>2022-04-03T10:04:20.000Z</time>
      </trkpt>
      <trkpt lat="49.69152" lon="4.73429">
        <ele>219</ele>
        <time>2022-04-03T10:04:21.000Z</time>
      </trkpt>
      <trkpt lat="49.6915" lon="4.7343">
        <ele>219</ele>
        <time>2022-04-03T10:04:22.000Z</time>
      </trkpt>
      <trkpt lat="49.69148" lon="4.7343">
        <ele>219</ele>
        <time>2022-04-03T10:04:23.000Z</time>
      </trkpt>
      <trkpt lat="49.69146" lon="4.73431">
        <ele>219</ele>
        <time>2022-04-03T10:04:24.000Z</time>
      </trkpt>
      <trkpt lat="49.69145" lon="4.73432">
        <ele>220</ele>
        <time>2022-04-03T10:04:25.000Z</time>
      </trkpt>
      <trkpt lat="49.69144" lon="4.73433">
        <ele>220</ele>
        <time>2022-04-03T10:04:26.000Z</time>
      </trkpt>
      <trkpt lat="49.69143" lon="4.73434">
        <ele>220</ele>
        <time>2022-04-03T10:04:27.000Z</time>
      </trkpt>
      <trkpt lat="49.69141" lon="4.73436">
        <ele>221</ele>
        <time>2022-04-03T10:04:28.000Z</time>
      </trkpt>
      <trkpt lat="49.69139" lon="4.73437">
        <ele>221</ele>
        <time>2022-04-03T10:04:29.000Z</time>
      </trkpt>
      <trkpt lat="49.69136" lon="4.73437">
        <ele>221</ele>
        <time>2022-04-03T10:04:30.000Z</time>
      </trkpt>
      <trkpt lat="49.69134" lon="4.73438">
        <ele>222</ele>
        <time>2022-04-03T10:04:31.000Z</time>
      </trkpt>
      <trkpt lat="49.69132" lon="4.73439">
        <ele>222</ele>
        <time>2022-04-03T10:04:32.000Z</time>
      </trkpt>
      <trkpt lat="49.6913" lon="4.73439">
        <ele>222</ele>
        <time>2022-04-03T10:04:33.000Z</time>
      </trkpt>
      <trkpt lat="49.69129" lon="4.73441">
        <ele>222</ele>
        <time>2022-04-03T10:04:34.000Z</time>
      </trkpt>
      <trkpt lat="49.69127" lon="4.73442">
        <ele>223</ele>
        <time>2022-04-03T10:04:35.000Z</time>
      </trkpt>
      <trkpt lat="49.69125" lon="4.73442">
        <ele>223</ele>
        <time>2022-04-03T10:04:36.000Z</time>
      </trkpt>
      <trkpt lat="49.69122" lon="4.73443">
        <ele>223</ele>
        <time>2022-04-03T10:04:37.000Z</time>
      </trkpt>
      <trkpt lat="49.6912" lon="4.73443">
        <ele>223</ele>
        <time>2022-04-03T10:04:38.000Z</time>
      </trkpt>
      <trkpt lat="49.69118" lon="4.73444">
        <ele>224</ele>
        <time>2022-04-03T10:04:39.000Z</time>
      </trkpt>
      <trkpt lat="49.69115" lon="4.73444">
        <ele>224</ele>
        <time>2022-04-03T10:04:40.000Z</time>
      </trkpt>
      <trkpt lat="49.69112" lon="4.73445">
        <ele>224</ele>
        <time>2022-04-03T10:04:41.000Z</time>
      </trkpt>
      <trkpt lat="49.69109" lon="4.73445">
        <ele>225</ele>
        <time>2022-04-03T10:04:42.000Z</time>
      </trkpt>
      <trkpt lat="49.69107" lon="4.73445">
        <ele>225</ele>
        <time>2022-04-03T10:04:43.000Z</time>
      </trkpt>
      <trkpt lat="49.69105" lon="4.73446">
        <ele>225</ele>
        <time>2022-04-03T10:04:44.000Z</time>
      </trkpt>
      <trkpt lat="49.69102" lon="4.73446">
        <ele>226</ele>
        <time>2022-04-03T10:04:45.000Z</time>
      </trkpt>
      <trkpt lat="49.691" lon="4.73447">
        <ele>226</ele>
        <time>2022-04-03T10:04:46.000Z</time>
      </trkpt>
      <trkpt lat="49.69098" lon="4.73448">
        <ele>226</ele>
        <time>2022-04-03T10:04:47.000Z</time>
      </trkpt>
      <trkpt lat="49.69096" lon="4.73448">
        <ele>227</ele>
        <time>2022-04-03T10:04:48.000Z</time>
      </trkpt>
      <trkpt lat="49.69094" lon="4.73449">
        <ele>227</ele>
        <time>2022-04-03T10:04:49.000Z</time>
      </trkpt>
      <trkpt lat="49.69092" lon="4.73449">
        <ele>227</ele>
        <time>2022-04-03T10:04:50.000Z</time>
      </trkpt>
      <trkpt lat="49.6909" lon="4.7345">
        <ele>227</ele>
        <time>2022-04-03T10:04:51.000Z</time>
      </trkpt>
      <trkpt lat="49.69087" lon="4.7345">
        <ele>227</ele>
        <time>2022-04-03T10:04:52.000Z</time>
      </trkpt>
      <trkpt lat="49.69085" lon="4.73451">
        <ele>228</ele>
        <time>2022-04-03T10:04:53.000Z</time>
      </trkpt>
      <trkpt lat="49.69082" lon="4.73451">
        <ele>228</ele>
        <time>2022-04-03T10:04:54.000Z</time>
      </trkpt>
      <trkpt lat="49.6908" lon="4.73452">
        <ele>228</ele>
        <time>2022-04-03T10:04:55.000Z</time>
      </trkpt>
      <trkpt lat="49.69077" lon="4.73452">
        <ele>228</ele>
        <time>2022-04-03T10:04:56.000Z</time>
      </trkpt>
      <trkpt lat="49.69075" lon="4.73453">
        <ele>229</ele>
        <time>2022-04-03T10:04:57.000Z</time>
      </trkpt>
      <trkpt lat="49.69073" lon="4.73453">
        <ele>229</ele>
        <time>2022-04-03T10:04:58.000Z</time>
      </trkpt>
      <trkpt lat="49.69071" lon="4.73454">
        <ele>229</ele>
        <time>2022-04-03T10:04:59.000Z</time>
      </trkpt>
      <trkpt lat="49.6907" lon="4.73454">
        <ele>229</ele>
        <time>2022-04-03T10:05:00.000Z</time>
      </trkpt>
      <trkpt lat="49.69068" lon="4.73454">
        <ele>230</ele>
        <time>2022-04-03T10:05:01.000Z</time>
      </trkpt>
      <trkpt lat="49.69066" lon="4.73455">
        <ele>230</ele>
        <time>2022-04-03T10:05:02.000Z</time>
      </trkpt>
      <trkpt lat="49.69063" lon="4.73455">
        <ele>230</ele>
        <time>2022-04-03T10:05:03.000Z</time>
      </trkpt>
      <trkpt lat="49.69061" lon="4.73455">
        <ele>230</ele>
        <time>2022-04-03T10:05:04.000Z</time>
      </trkpt>
      <trkpt lat="49.69058" lon="4.73456">
        <ele>230</ele>
        <time>2022-04-03T10:05:05.000Z</time>
      </trkpt>
      <trkpt lat="49.69057" lon="4.73456">
        <ele>231</ele>
        <time>2022-04-03T10:05:06.000Z</time>
      </trkpt>
      <trkpt lat="49.69055" lon="4.73457">
        <ele>231</ele>
        <time>2022-04-03T10:05:07.000Z</time>
      </trkpt>
      <trkpt lat="49.69053" lon="4.73457">
        <ele>231</ele>
        <time>2022-04-03T10:05:08.000Z</time>
      </trkpt>
      <trkpt lat="49.6905" lon="4.73458">
        <ele>231</ele>
        <time>2022-04-03T10:05:09.000Z</time>
      </trkpt>
      <trkpt lat="49.69048" lon="4.73459">
        <ele>231</ele>
        <time>2022-04-03T10:05:10.000Z</time>
      </trkpt>
      <trkpt lat="49.69046" lon="4.7346">
        <ele>232</ele>
        <time>2022-04-03T10:05:11.000Z</time>
      </trkpt>
      <trkpt lat="49.69044" lon="4.73461">
        <ele>232</ele>
        <time>2022-04-03T10:05:12.000Z</time>
      </trkpt>
      <trkpt lat="49.69043" lon="4.73462">
        <ele>232</ele>
        <time>2022-04-03T10:05:13.000Z</time>
      </trkpt>
      <trkpt lat="49.69041" lon="4.73462">
        <ele>232</ele>
        <time>2022-04-03T10:05:14.000Z</time>
      </trkpt>
      <trkpt lat="49.6904" lon="4.73463">
        <ele>232</ele>
        <time>2022-04-03T10:05:15.000Z</time>
      </trkpt>
      <trkpt lat="49.69038" lon="4.73464">
        <ele>232</ele>
        <time>2022-04-03T10:05:16.000Z</time>
      </trkpt>
      <trkpt lat="49.69036" lon="4.73465">
        <ele>233</ele>
        <time>2022-04-03T10:05:17.000Z</time>
      </trkpt>
      <trkpt lat="49.69034" lon="4.73466">
        <ele>233</ele>
        <time>2022-04-03T10:05:18.000Z</time>
      </trkpt>
      <trkpt lat="49.69032" lon="4.73466">
        <ele>233</ele>
        <time>2022-04-03T10:05:19.000Z</time>
      </trkpt>
      <trkpt lat="49.6903" lon="4.73467">
        <ele>233</ele>
        <time>2022-04-03T10:05:20.000Z</time>
      </trkpt>
      <trkpt lat="49.69028" lon="4.73468">
        <ele>233</ele>
        <time>2022-04-03T10:05:21.000Z</time>
      </trkpt>
      <trkpt lat="49.69026" lon="4.73469">
        <ele>233</ele>
        <time>2022-04-03T10:05:22.000Z</time>
      </trkpt>
      <trkpt lat="49.69023" lon="4.7347">
        <ele>234</ele>
        <time>2022-04-03T10:05:23.000Z</time>
      </trkpt>
      <trkpt lat="49.69021" lon="4.73471">
        <ele>234</ele>
        <time>2022-04-03T10:05:24.000Z</time>
      </trkpt>
      <trkpt lat="49.69019" lon="4.73473">
        <ele>234</ele>
        <time>2022-04-03T10:05:25.000Z</time>
      </trkpt>
      <trkpt lat="49.69017" lon="4.73475">
        <ele>234</ele>
        <time>2022-04-03T10:05:26.000Z</time>
      </trkpt>
      <trkpt lat="49.69015" lon="4.73476">
        <ele>235</ele>
        <time>2022-04-03T10:05:27.000Z</time>
      </trkpt>
      <trkpt lat="49.69014" lon="4.73477">
        <ele>235</ele>
        <time>2022-04-03T10:05:28.000Z</time>
      </trkpt>
      <trkpt lat="49.69012" lon="4.73478">
        <ele>235</ele>
        <time>2022-04-03T10:05:29.000Z</time>
      </trkpt>
      <trkpt lat="49.69011" lon="4.73479">
        <ele>236</ele>
        <time>2022-04-03T10:05:30.000Z</time>
      </trkpt>
      <trkpt lat="49.69009" lon="4.73481">
        <ele>236</ele>
        <time>2022-04-03T10:05:31.000Z</time>
      </trkpt>
      <trkpt lat="49.69007" lon="4.73482">
        <ele>236</ele>
        <time>2022-04-03T10:05:32.000Z</time>
      </trkpt>
      <trkpt lat="49.69005" lon="4.73483">
        <ele>237</ele>
        <time>2022-04-03T10:05:33.000Z</time>
      </trkpt>
      <trkpt lat="49.69003" lon="4.73483">
        <ele>237</ele>
        <time>2022-04-03T10:05:34.000Z</time>
      </trkpt>
      <trkpt lat="49.69001" lon="4.73484">
        <ele>237</ele>
        <time>2022-04-03T10:05:35.000Z</time>
      </trkpt>
      <trkpt lat="49.68998" lon="4.73486">
        <ele>237</ele>
        <time>2022-04-03T10:05:36.000Z</time>
      </trkpt>
      <trkpt lat="49.68995" lon="4.73488">
        <ele>238</ele>
        <time>2022-04-03T10:05:37.000Z</time>
      </trkpt>
      <trkpt lat="49.68993" lon="4.73489">
        <ele>238</ele>
        <time>2022-04-03T10:05:38.000Z</time>
      </trkpt>
      <trkpt lat="49.68991" lon="4.7349">
        <ele>238</ele>
        <time>2022-04-03T10:05:39.000Z</time>
      </trkpt>
      <trkpt lat="49.68988" lon="4.7349">
        <ele>238</ele>
        <time>2022-04-03T10:05:40.000Z</time>
      </trkpt>
      <trkpt lat="49.68986" lon="4.73492">
        <ele>239</ele>
        <time>2022-04-03T10:05:41.000Z</time>
      </trkpt>
      <trkpt lat="49.68984" lon="4.73492">
        <ele>239</ele>
        <time>2022-04-03T10:05:42.000Z</time>
      </trkpt>
      <trkpt lat="49.68983" lon="4.73493">
        <ele>239</ele>
        <time>2022-04-03T10:05:43.000Z</time>
      </trkpt>
      <trkpt lat="49.6898" lon="4.73494">
        <ele>239</ele>
        <time>2022-04-03T10:05:44.000Z</time>
      </trkpt>
      <trkpt lat="49.68978" lon="4.73495">
        <ele>240</ele>
        <time>2022-04-03T10:05:45.000Z</time>
      </trkpt>
      <trkpt lat="49.68976" lon="4.73495">
        <ele>240</ele>
        <time>2022-04-03T10:05:46.000Z</time>
      </trkpt>
      <trkpt lat="49.68975" lon="4.73496">
        <ele>240</ele>
        <time>2022-04-03T10:05:47.000Z</time>
      </trkpt>
      <trkpt lat="49.68974" lon="4.73497">
        <ele>240</ele>
        <time>2022-04-03T10:05:48.000Z</time>
      </trkpt>
      <trkpt lat="49.68973" lon="4.73499">
        <ele>241</ele>
        <time>2022-04-03T10:05:49.000Z</time>
      </trkpt>
      <trkpt lat="49.68973" lon="4.735">
        <ele>241</ele>
        <time>2022-04-03T10:05:50.000Z</time>
      </trkpt>
      <trkpt lat="49.68971" lon="4.73502">
        <ele>241</ele>
        <time>2022-04-03T10:05:51.000Z</time>
      </trkpt>
      <trkpt lat="49.6897" lon="4.73504">
        <ele>241</ele>
        <time>2022-04-03T10:05:52.000Z</time>
      </trkpt>
      <trkpt lat="49.68968" lon="4.73506">
        <ele>241</ele>
        <time>2022-04-03T10:05:53.000Z</time>
      </trkpt>
      <trkpt lat="49.68966" lon="4.73508">
        <ele>242</ele>
        <time>2022-04-03T10:05:54.000Z</time>
      </trkpt>
      <trkpt lat="49.68963" lon="4.7351">
        <ele>242</ele>
        <time>2022-04-03T10:05:55.000Z</time>
      </trkpt>
      <trkpt lat="49.68961" lon="4.73512">
        <ele>242</ele>
        <time>2022-04-03T10:05:56.000Z</time>
      </trkpt>
      <trkpt lat="49.68958" lon="4.73513">
        <ele>242</ele>
        <time>2022-04-03T10:05:57.000Z</time>
      </trkpt>
      <trkpt lat="49.68956" lon="4.73514">
        <ele>242</ele>
        <time>2022-04-03T10:05:58.000Z</time>
      </trkpt>
      <trkpt lat="49.68953" lon="4.73515">
        <ele>242</ele>
        <time>2022-04-03T10:05:59.000Z</time>
      </trkpt>
      <trkpt lat="49.68951" lon="4.73517">
        <ele>242</ele>
        <time>2022-04-03T10:06:00.000Z</time>
      </trkpt>
      <trkpt lat="49.68949" lon="4.73518">
        <ele>242</ele>
        <time>2022-04-03T10:06:01.000Z</time>
      </trkpt>
      <trkpt lat="49.68947" lon="4.73521">
        <ele>242</ele>
        <time>2022-04-03T10:06:02.000Z</time>
      </trkpt>
      <trkpt lat="49.68945" lon="4.73523">
        <ele>243</ele>
        <time>2022-04-03T10:06:03.000Z</time>
      </trkpt>
      <trkpt lat="49.68942" lon="4.73525">
        <ele>243</ele>
        <time>2022-04-03T10:06:04.000Z</time>
      </trkpt>
      <trkpt lat="49.68939" lon="4.73526">
        <ele>243</ele>
        <time>2022-04-03T10:06:05.000Z</time>
      </trkpt>
      <trkpt lat="49.68937" lon="4.73526">
        <ele>243</ele>
        <time>2022-04-03T10:06:06.000Z</time>
      </trkpt>
      <trkpt lat="49.68935" lon="4.73527">
        <ele>243</ele>
        <time>2022-04-03T10:06:07.000Z</time>
      </trkpt>
      <trkpt lat="49.68934" lon="4.73527">
        <ele>244</ele>
        <time>2022-04-03T10:06:08.000Z</time>
      </trkpt>
      <trkpt lat="49.68933" lon="4.73529">
        <ele>244</ele>
        <time>2022-04-03T10:06:09.000Z</time>
      </trkpt>
      <trkpt lat="49.68931" lon="4.73531">
        <ele>244</ele>
        <time>2022-04-03T10:06:10.000Z</time>
      </trkpt>
      <trkpt lat="49.6893" lon="4.73533">
        <ele>244</ele>
        <time>2022-04-03T10:06:11.000Z</time>
      </trkpt>
      <trkpt lat="49.68928" lon="4.73535">
        <ele>244</ele>
        <time>2022-04-03T10:06:12.000Z</time>
      </trkpt>
      <trkpt lat="49.68927" lon="4.73537">
        <ele>244</ele>
        <time>2022-04-03T10:06:13.000Z</time>
      </trkpt>
      <trkpt lat="49.68925" lon="4.7354">
        <ele>244</ele>
        <time>2022-04-03T10:06:14.000Z</time>
      </trkpt>
      <trkpt lat="49.68922" lon="4.73542">
        <ele>244</ele>
        <time>2022-04-03T10:06:15.000Z</time>
      </trkpt>
      <trkpt lat="49.6892" lon="4.73545">
        <ele>244</ele>
        <time>2022-04-03T10:06:16.000Z</time>
      </trkpt>
      <trkpt lat="49.68917" lon="4.73548">
        <ele>245</ele>
        <time>2022-04-03T10:06:17.000Z</time>
      </trkpt>
      <trkpt lat="49.68914" lon="4.7355">
        <ele>245</ele>
        <time>2022-04-03T10:06:18.000Z</time>
      </trkpt>
      <trkpt lat="49.6891" lon="4.73553">
        <ele>245</ele>
        <time>2022-04-03T10:06:19.000Z</time>
      </trkpt>
      <trkpt lat="49.68907" lon="4.73555">
        <ele>245</ele>
        <time>2022-04-03T10:06:20.000Z</time>
      </trkpt>
      <trkpt lat="49.68904" lon="4.73555">
        <ele>245</ele>
        <time>2022-04-03T10:06:21.000Z</time>
      </trkpt>
      <trkpt lat="49.68901" lon="4.73554">
        <ele>245</ele>
        <time>2022-04-03T10:06:22.000Z</time>
      </trkpt>
      <trkpt lat="49.68898" lon="4.73553">
        <ele>245</ele>
        <time>2022-04-03T10:06:23.000Z</time>
      </trkpt>
      <trkpt lat="49.68894" lon="4.73552">
        <ele>245</ele>
        <time>2022-04-03T10:06:24.000Z</time>
      </trkpt>
      <trkpt lat="49.68891" lon="4.73551">
        <ele>246</ele>
        <time>2022-04-03T10:06:25.000Z</time>
      </trkpt>
      <trkpt lat="49.68888" lon="4.73551">
        <ele>246</ele>
        <time>2022-04-03T10:06:26.000Z</time>
      </trkpt>
      <trkpt lat="49.68885" lon="4.73552">
        <ele>246</ele>
        <time>2022-04-03T10:06:27.000Z</time>
      </trkpt>
      <trkpt lat="49.68882" lon="4.73553">
        <ele>246</ele>
        <time>2022-04-03T10:06:28.000Z</time>
      </trkpt>
      <trkpt lat="49.68879" lon="4.73555">
        <ele>246</ele>
        <time>2022-04-03T10:06:29.000Z</time>
      </trkpt>
      <trkpt lat="49.68875" lon="4.73556">
        <ele>247</ele>
        <time>2022-04-03T10:06:30.000Z</time>
      </trkpt>
      <trkpt lat="49.68872" lon="4.73557">
        <ele>247</ele>
        <time>2022-04-03T10:06:31.000Z</time>
      </trkpt>
      <trkpt lat="49.68869" lon="4.73557">
        <ele>247</ele>
        <time>2022-04-03T10:06:32.000Z</time>
      </trkpt>
      <trkpt lat="49.68866" lon="4.73559">
        <ele>247</ele>
        <time>2022-04-03T10:06:33.000Z</time>
      </trkpt>
      <trkpt lat="49.68863" lon="4.73561">
        <ele>247</ele>
        <time>2022-04-03T10:06:34.000Z</time>
      </trkpt>
      <trkpt lat="49.6886" lon="4.73562">
        <ele>247</ele>
        <time>2022-04-03T10:06:35.000Z</time>
      </trkpt>
      <trkpt lat="49.68857" lon="4.73563">
        <ele>247</ele>
        <time>2022-04-03T10:06:36.000Z</time>
      </trkpt>
      <trkpt lat="49.68853" lon="4.73564">
        <ele>247</ele>
        <time>2022-04-03T10:06:37.000Z</time>
      </trkpt>
      <trkpt lat="49.6885" lon="4.73565">
        <ele>247</ele>
        <time>2022-04-03T10:06:38.000Z</time>
      </trkpt>
      <trkpt lat="49.68847" lon="4.73566">
        <ele>247</ele>
        <time>2022-04-03T10:06:39.000Z</time>
      </trkpt>
      <trkpt lat="49.68844" lon="4.73566">
        <ele>248</ele>
        <time>2022-04-03T10:06:40.000Z</time>
      </trkpt>
      <trkpt lat="49.68841" lon="4.73566">
        <ele>248</ele>
        <time>2022-04-03T10:06:41.000Z</time>
      </trkpt>
      <trkpt lat="49.68838" lon="4.73566">
        <ele>248</ele>
        <time>2022-04-03T10:06:42.000Z</time>
      </trkpt>
      <trkpt lat="49.68835" lon="4.73566">
        <ele>248</ele>
        <time>2022-04-03T10:06:43.000Z</time>
      </trkpt>
      <trkpt lat="49.68833" lon="4.73566">
        <ele>248</ele>
        <time>2022-04-03T10:06:44.000Z</time>
      </trkpt>
      <trkpt lat="49.68831" lon="4.73567">
        <ele>249</ele>
        <time>2022-04-03T10:06:45.000Z</time>
      </trkpt>
      <trkpt lat="49.68828" lon="4.73568">
        <ele>249</ele>
        <time>2022-04-03T10:06:46.000Z</time>
      </trkpt>
      <trkpt lat="49.68825" lon="4.73569">
        <ele>249</ele>
        <time>2022-04-03T10:06:47.000Z</time>
      </trkpt>
      <trkpt lat="49.68823" lon="4.7357">
        <ele>249</ele>
        <time>2022-04-03T10:06:48.000Z</time>
      </trkpt>
      <trkpt lat="49.6882" lon="4.73571">
        <ele>249</ele>
        <time>2022-04-03T10:06:49.000Z</time>
      </trkpt>
      <trkpt lat="49.68817" lon="4.73572">
        <ele>249</ele>
        <time>2022-04-03T10:06:50.000Z</time>
      </trkpt>
      <trkpt lat="49.68815" lon="4.73573">
        <ele>249</ele>
        <time>2022-04-03T10:06:51.000Z</time>
      </trkpt>
      <trkpt lat="49.68812" lon="4.73573">
        <ele>249</ele>
        <time>2022-04-03T10:06:52.000Z</time>
      </trkpt>
      <trkpt lat="49.6881" lon="4.73574">
        <ele>249</ele>
        <time>2022-04-03T10:06:53.000Z</time>
      </trkpt>
      <trkpt lat="49.68807" lon="4.73574">
        <ele>249</ele>
        <time>2022-04-03T10:06:54.000Z</time>
      </trkpt>
      <trkpt lat="49.68805" lon="4.73575">
        <ele>249</ele>
        <time>2022-04-03T10:06:55.000Z</time>
      </trkpt>
      <trkpt lat="49.68802" lon="4.73575">
        <ele>249</ele>
        <time>2022-04-03T10:06:56.000Z</time>
      </trkpt>
      <trkpt lat="49.68799" lon="4.73575">
        <ele>249</ele>
        <time>2022-04-03T10:06:57.000Z</time>
      </trkpt>
      <trkpt lat="49.68797" lon="4.73576">
        <ele>249</ele>
        <time>2022-04-03T10:06:58.000Z</time>
      </trkpt>
      <trkpt lat="49.68794" lon="4.73576">
        <ele>249</ele>
        <time>2022-04-03T10:06:59.000Z</time>
      </trkpt>
      <trkpt lat="49.68792" lon="4.73577">
        <ele>249</ele>
        <time>2022-04-03T10:07:00.000Z</time>
      </trkpt>
      <trkpt lat="49.68789" lon="4.73577">
        <ele>249</ele>
        <time>2022-04-03T10:07:01.000Z</time>
      </trkpt>
      <trkpt lat="49.68786" lon="4.73578">
        <ele>249</ele>
        <time>2022-04-03T10:07:02.000Z</time>
      </trkpt>
      <trkpt lat="49.68784" lon="4.73578">
        <ele>249</ele>
        <time>2022-04-03T10:07:03.000Z</time>
      </trkpt>
      <trkpt lat="49.68782" lon="4.73578">
        <ele>250</ele>
        <time>2022-04-03T10:07:04.000Z</time>
      </trkpt>
      <trkpt lat="49.6878" lon="4.73579">
        <ele>250</ele>
        <time>2022-04-03T10:07:05.000Z</time>
      </trkpt>
      <trkpt lat="49.68778" lon="4.73579">
        <ele>250</ele>
        <time>2022-04-03T10:07:06.000Z</time>
      </trkpt>
      <trkpt lat="49.68775" lon="4.73579">
        <ele>250</ele>
        <time>2022-04-03T10:07:07.000Z</time>
      </trkpt>
      <trkpt lat="49.68773" lon="4.73579">
        <ele>250</ele>
        <time>2022-04-03T10:07:08.000Z</time>
      </trkpt>
      <trkpt lat="49.68771" lon="4.73579">
        <ele>250</ele>
        <time>2022-04-03T10:07:09.000Z</time>
      </trkpt>
      <trkpt lat="49.68769" lon="4.73579">
        <ele>250</ele>
        <time>2022-04-03T10:07:10.000Z</time>
      </trkpt>
      <trkpt lat="49.68767" lon="4.73579">
        <ele>250</ele>
        <time>2022-04-03T10:07:11.000Z</time>
      </trkpt>
      <trkpt lat="49.68765" lon="4.7358">
        <ele>250</ele>
        <time>2022-04-03T10:07:12.000Z</time>
      </trkpt>
      <trkpt lat="49.68763" lon="4.73581">
        <ele>251</ele>
        <time>2022-04-03T10:07:13.000Z</time>
      </trkpt>
      <trkpt lat="49.68762" lon="4.73582">
        <ele>251</ele>
        <time>2022-04-03T10:07:14.000Z</time>
      </trkpt>
      <trkpt lat="49.68761" lon="4.73582">
        <ele>251</ele>
        <time>2022-04-03T10:07:15.000Z</time>
      </trkpt>
      <trkpt lat="49.68761" lon="4.73583">
        <ele>251</ele>
        <time>2022-04-03T10:07:16.000Z</time>
      </trkpt>
      <trkpt lat="49.6876" lon="4.73583">
        <ele>251</ele>
        <time>2022-04-03T10:07:17.000Z</time>
      </trkpt>
      <trkpt lat="49.68759" lon="4.73586">
        <ele>251</ele>
        <time>2022-04-03T10:07:18.000Z</time>
      </trkpt>
      <trkpt lat="49.68757" lon="4.73586">
        <ele>251</ele>
        <time>2022-04-03T10:07:19.000Z</time>
      </trkpt>
      <trkpt lat="49.68755" lon="4.73586">
        <ele>251</ele>
        <time>2022-04-03T10:07:20.000Z</time>
      </trkpt>
      <trkpt lat="49.68754" lon="4.73586">
        <ele>251</ele>
        <time>2022-04-03T10:07:21.000Z</time>
      </trkpt>
      <trkpt lat="49.68752" lon="4.73587">
        <ele>251</ele>
        <time>2022-04-03T10:07:22.000Z</time>
      </trkpt>
      <trkpt lat="49.6875" lon="4.73587">
        <ele>251</ele>
        <time>2022-04-03T10:07:23.000Z</time>
      </trkpt>
      <trkpt lat="49.68748" lon="4.73586">
        <ele>251</ele>
        <time>2022-04-03T10:07:24.000Z</time>
      </trkpt>
      <trkpt lat="49.68746" lon="4.73586">
        <ele>251</ele>
        <time>2022-04-03T10:07:25.000Z</time>
      </trkpt>
      <trkpt lat="49.68744" lon="4.73585">
        <ele>251</ele>
        <time>2022-04-03T10:07:26.000Z</time>
      </trkpt>
      <trkpt lat="49.68743" lon="4.73583">
        <ele>251</ele>
        <time>2022-04-03T10:07:27.000Z</time>
      </trkpt>
      <trkpt lat="49.68742" lon="4.73583">
        <ele>251</ele>
        <time>2022-04-03T10:07:28.000Z</time>
      </trkpt>
      <trkpt lat="49.6874" lon="4.73584">
        <ele>251</ele>
        <time>2022-04-03T10:07:29.000Z</time>
      </trkpt>
      <trkpt lat="49.68739" lon="4.73585">
        <ele>251</ele>
        <time>2022-04-03T10:07:30.000Z</time>
      </trkpt>
      <trkpt lat="49.68737" lon="4.73585">
        <ele>252</ele>
        <time>2022-04-03T10:07:31.000Z</time>
      </trkpt>
      <trkpt lat="49.68735" lon="4.73586">
        <ele>252</ele>
        <time>2022-04-03T10:07:32.000Z</time>
      </trkpt>
      <trkpt lat="49.68734" lon="4.73586">
        <ele>252</ele>
        <time>2022-04-03T10:07:33.000Z</time>
      </trkpt>
      <trkpt lat="49.68732" lon="4.73587">
        <ele>252</ele>
        <time>2022-04-03T10:07:34.000Z</time>
      </trkpt>
      <trkpt lat="49.6873" lon="4.73588">
        <ele>252</ele>
        <time>2022-04-03T10:07:35.000Z</time>
      </trkpt>
      <trkpt lat="49.68728" lon="4.73588">
        <ele>252</ele>
        <time>2022-04-03T10:07:36.000Z</time>
      </trkpt>
      <trkpt lat="49.68726" lon="4.73587">
        <ele>252</ele>
        <time>2022-04-03T10:07:37.000Z</time>
      </trkpt>
      <trkpt lat="49.68724" lon="4.73586">
        <ele>252</ele>
        <time>2022-04-03T10:07:38.000Z</time>
      </trkpt>
      <trkpt lat="49.68722" lon="4.73586">
        <ele>253</ele>
        <time>2022-04-03T10:07:39.000Z</time>
      </trkpt>
      <trkpt lat="49.6872" lon="4.73585">
        <ele>253</ele>
        <time>2022-04-03T10:07:40.000Z</time>
      </trkpt>
      <trkpt lat="49.68718" lon="4.73583">
        <ele>253</ele>
        <time>2022-04-03T10:07:41.000Z</time>
      </trkpt>
      <trkpt lat="49.68717" lon="4.73582">
        <ele>253</ele>
        <time>2022-04-03T10:07:42.000Z</time>
      </trkpt>
      <trkpt lat="49.68715" lon="4.73581">
        <ele>254</ele>
        <time>2022-04-03T10:07:43.000Z</time>
      </trkpt>
      <trkpt lat="49.68714" lon="4.73581">
        <ele>254</ele>
        <time>2022-04-03T10:07:44.000Z</time>
      </trkpt>
      <trkpt lat="49.68713" lon="4.7358">
        <ele>254</ele>
        <time>2022-04-03T10:07:45.000Z</time>
      </trkpt>
      <trkpt lat="49.68711" lon="4.7358">
        <ele>255</ele>
        <time>2022-04-03T10:07:46.000Z</time>
      </trkpt>
      <trkpt lat="49.68709" lon="4.7358">
        <ele>255</ele>
        <time>2022-04-03T10:07:47.000Z</time>
      </trkpt>
      <trkpt lat="49.68708" lon="4.73579">
        <ele>255</ele>
        <time>2022-04-03T10:07:48.000Z</time>
      </trkpt>
      <trkpt lat="49.68706" lon="4.73578">
        <ele>255</ele>
        <time>2022-04-03T10:07:49.000Z</time>
      </trkpt>
      <trkpt lat="49.68705" lon="4.73577">
        <ele>255</ele>
        <time>2022-04-03T10:07:50.000Z</time>
      </trkpt>
      <trkpt lat="49.68703" lon="4.73577">
        <ele>256</ele>
        <time>2022-04-03T10:07:51.000Z</time>
      </trkpt>
      <trkpt lat="49.68701" lon="4.73577">
        <ele>256</ele>
        <time>2022-04-03T10:07:52.000Z</time>
      </trkpt>
      <trkpt lat="49.68699" lon="4.73577">
        <ele>256</ele>
        <time>2022-04-03T10:07:53.000Z</time>
      </trkpt>
      <trkpt lat="49.68698" lon="4.73576">
        <ele>256</ele>
        <time>2022-04-03T10:07:54.000Z</time>
      </trkpt>
      <trkpt lat="49.68696" lon="4.73576">
        <ele>257</ele>
        <time>2022-04-03T10:07:55.000Z</time>
      </trkpt>
      <trkpt lat="49.68693" lon="4.73577">
        <ele>257</ele>
        <time>2022-04-03T10:07:56.000Z</time>
      </trkpt>
      <trkpt lat="49.68691" lon="4.73577">
        <ele>257</ele>
        <time>2022-04-03T10:07:57.000Z</time>
      </trkpt>
      <trkpt lat="49.68689" lon="4.73578">
        <ele>257</ele>
        <time>2022-04-03T10:07:58.000Z</time>
      </trkpt>
      <trkpt lat="49.68688" lon="4.73579">
        <ele>257</ele>
        <time>2022-04-03T10:07:59.000Z</time>
      </trkpt>
      <trkpt lat="49.68686" lon="4.7358">
        <ele>257</ele>
        <time>2022-04-03T10:08:00.000Z</time>
      </trkpt>
      <trkpt lat="49.68684" lon="4.7358">
        <ele>257</ele>
        <time>2022-04-03T10:08:01.000Z</time>
      </trkpt>
      <trkpt lat="49.68682" lon="4.73581">
        <ele>258</ele>
        <time>2022-04-03T10:08:02.000Z</time>
      </trkpt>
      <trkpt lat="49.6868" lon="4.73583">
        <ele>258</ele>
        <time>2022-04-03T10:08:03.000Z</time>
      </trkpt>
      <trkpt lat="49.68678" lon="4.73584">
        <ele>258</ele>
        <time>2022-04-03T10:08:04.000Z</time>
      </trkpt>
      <trkpt lat="49.68676" lon="4.73585">
        <ele>258</ele>
        <time>2022-04-03T10:08:05.000Z</time>
      </trkpt>
      <trkpt lat="49.68674" lon="4.73586">
        <ele>258</ele>
        <time>2022-04-03T10:08:06.000Z</time>
      </trkpt>
      <trkpt lat="49.68672" lon="4.73587">
        <ele>258</ele>
        <time>2022-04-03T10:08:07.000Z</time>
      </trkpt>
      <trkpt lat="49.6867" lon="4.73588">
        <ele>259</ele>
        <time>2022-04-03T10:08:08.000Z</time>
      </trkpt>
      <trkpt lat="49.68668" lon="4.73589">
        <ele>259</ele>
        <time>2022-04-03T10:08:09.000Z</time>
      </trkpt>
      <trkpt lat="49.68667" lon="4.7359">
        <ele>259</ele>
        <time>2022-04-03T10:08:10.000Z</time>
      </trkpt>
      <trkpt lat="49.68665" lon="4.7359">
        <ele>259</ele>
        <time>2022-04-03T10:08:11.000Z</time>
      </trkpt>
      <trkpt lat="49.68663" lon="4.73591">
        <ele>259</ele>
        <time>2022-04-03T10:08:12.000Z</time>
      </trkpt>
      <trkpt lat="49.68662" lon="4.73593">
        <ele>260</ele>
        <time>2022-04-03T10:08:13.000Z</time>
      </trkpt>
      <trkpt lat="49.68661" lon="4.73595">
        <ele>260</ele>
        <time>2022-04-03T10:08:14.000Z</time>
      </trkpt>
      <trkpt lat="49.6866" lon="4.73596">
        <ele>261</ele>
        <time>2022-04-03T10:08:15.000Z</time>
      </trkpt>
      <trkpt lat="49.68658" lon="4.73597">
        <ele>261</ele>
        <time>2022-04-03T10:08:16.000Z</time>
      </trkpt>
      <trkpt lat="49.68656" lon="4.73598">
        <ele>261</ele>
        <time>2022-04-03T10:08:17.000Z</time>
      </trkpt>
      <trkpt lat="49.68654" lon="4.73599">
        <ele>262</ele>
        <time>2022-04-03T10:08:18.000Z</time>
      </trkpt>
      <trkpt lat="49.68652" lon="4.736">
        <ele>262</ele>
        <time>2022-04-03T10:08:19.000Z</time>
      </trkpt>
      <trkpt lat="49.6865" lon="4.73601">
        <ele>262</ele>
        <time>2022-04-03T10:08:20.000Z</time>
      </trkpt>
      <trkpt lat="49.68648" lon="4.73602">
        <ele>262</ele>
        <time>2022-04-03T10:08:21.000Z</time>
      </trkpt>
      <trkpt lat="49.68645" lon="4.73603">
        <ele>263</ele>
        <time>2022-04-03T10:08:22.000Z</time>
      </trkpt>
      <trkpt lat="49.68643" lon="4.73605">
        <ele>263</ele>
        <time>2022-04-03T10:08:23.000Z</time>
      </trkpt>
      <trkpt lat="49.68641" lon="4.73606">
        <ele>263</ele>
        <time>2022-04-03T10:08:24.000Z</time>
      </trkpt>
      <trkpt lat="49.68639" lon="4.73607">
        <ele>264</ele>
        <time>2022-04-03T10:08:25.000Z</time>
      </trkpt>
      <trkpt lat="49.68636" lon="4.73608">
        <ele>264</ele>
        <time>2022-04-03T10:08:26.000Z</time>
      </trkpt>
      <trkpt lat="49.68633" lon="4.73609">
        <ele>264</ele>
        <time>2022-04-03T10:08:27.000Z</time>
      </trkpt>
      <trkpt lat="49.6863" lon="4.73611">
        <ele>264</ele>
        <time>2022-04-03T10:08:28.000Z</time>
      </trkpt>
      <trkpt lat="49.68627" lon="4.73612">
        <ele>265</ele>
        <time>2022-04-03T10:08:29.000Z</time>
      </trkpt>
      <trkpt lat="49.68624" lon="4.73614">
        <ele>265</ele>
        <time>2022-04-03T10:08:30.000Z</time>
      </trkpt>
      <trkpt lat="49.68622" lon="4.73616">
        <ele>265</ele>
        <time>2022-04-03T10:08:31.000Z</time>
      </trkpt>
      <trkpt lat="49.6862" lon="4.73617">
        <ele>265</ele>
        <time>2022-04-03T10:08:32.000Z</time>
      </trkpt>
      <trkpt lat="49.68618" lon="4.73618">
        <ele>265</ele>
        <time>2022-04-03T10:08:33.000Z</time>
      </trkpt>
      <trkpt lat="49.68616" lon="4.73619">
        <ele>265</ele>
        <time>2022-04-03T10:08:34.000Z</time>
      </trkpt>
      <trkpt lat="49.68614" lon="4.73621">
        <ele>266</ele>
        <time>2022-04-03T10:08:35.000Z</time>
      </trkpt>
      <trkpt lat="49.68612" lon="4.73622">
        <ele>266</ele>
        <time>2022-04-03T10:08:36.000Z</time>
      </trkpt>
      <trkpt lat="49.6861" lon="4.73623">
        <ele>266</ele>
        <time>2022-04-03T10:08:37.000Z</time>
      </trkpt>
      <trkpt lat="49.68608" lon="4.73624">
        <ele>267</ele>
        <time>2022-04-03T10:08:38.000Z</time>
      </trkpt>
      <trkpt lat="49.68606" lon="4.73625">
        <ele>267</ele>
        <time>2022-04-03T10:08:39.000Z</time>
      </trkpt>
      <trkpt lat="49.68604" lon="4.73627">
        <ele>267</ele>
        <time>2022-04-03T10:08:40.000Z</time>
      </trkpt>
      <trkpt lat="49.68601" lon="4.73628">
        <ele>268</ele>
        <time>2022-04-03T10:08:41.000Z</time>
      </trkpt>
      <trkpt lat="49.68599" lon="4.73628">
        <ele>268</ele>
        <time>2022-04-03T10:08:42.000Z</time>
      </trkpt>
      <trkpt lat="49.68597" lon="4.7363">
        <ele>268</ele>
        <time>2022-04-03T10:08:43.000Z</time>
      </trkpt>
      <trkpt lat="49.68594" lon="4.7363">
        <ele>269</ele>
        <time>2022-04-03T10:08:44.000Z</time>
      </trkpt>
      <trkpt lat="49.68592" lon="4.73631">
        <ele>269</ele>
        <time>2022-04-03T10:08:45.000Z</time>
      </trkpt>
      <trkpt lat="49.6859" lon="4.73632">
        <ele>269</ele>
        <time>2022-04-03T10:08:46.000Z</time>
      </trkpt>
      <trkpt lat="49.68587" lon="4.73634">
        <ele>269</ele>
        <time>2022-04-03T10:08:47.000Z</time>
      </trkpt>
      <trkpt lat="49.68585" lon="4.73635">
        <ele>269</ele>
        <time>2022-04-03T10:08:48.000Z</time>
      </trkpt>
      <trkpt lat="49.68582" lon="4.73636">
        <ele>270</ele>
        <time>2022-04-03T10:08:49.000Z</time>
      </trkpt>
      <trkpt lat="49.6858" lon="4.73636">
        <ele>270</ele>
        <time>2022-04-03T10:08:50.000Z</time>
      </trkpt>
      <trkpt lat="49.68579" lon="4.73637">
        <ele>270</ele>
        <time>2022-04-03T10:08:51.000Z</time>
      </trkpt>
      <trkpt lat="49.68577" lon="4.73638">
        <ele>271</ele>
        <time>2022-04-03T10:08:52.000Z</time>
      </trkpt>
      <trkpt lat="49.68574" lon="4.73639">
        <ele>271</ele>
        <time>2022-04-03T10:08:53.000Z</time>
      </trkpt>
      <trkpt lat="49.68571" lon="4.7364">
        <ele>271</ele>
        <time>2022-04-03T10:08:54.000Z</time>
      </trkpt>
      <trkpt lat="49.68568" lon="4.73641">
        <ele>272</ele>
        <time>2022-04-03T10:08:55.000Z</time>
      </trkpt>
      <trkpt lat="49.68566" lon="4.73642">
        <ele>272</ele>
        <time>2022-04-03T10:08:56.000Z</time>
      </trkpt>
      <trkpt lat="49.68563" lon="4.73643">
        <ele>272</ele>
        <time>2022-04-03T10:08:57.000Z</time>
      </trkpt>
      <trkpt lat="49.68561" lon="4.73644">
        <ele>272</ele>
        <time>2022-04-03T10:08:58.000Z</time>
      </trkpt>
      <trkpt lat="49.68559" lon="4.73644">
        <ele>273</ele>
        <time>2022-04-03T10:08:59.000Z</time>
      </trkpt>
      <trkpt lat="49.68556" lon="4.73645">
        <ele>273</ele>
        <time>2022-04-03T10:09:00.000Z</time>
      </trkpt>
      <trkpt lat="49.68553" lon="4.73646">
        <ele>273</ele>
        <time>2022-04-03T10:09:01.000Z</time>
      </trkpt>
      <trkpt lat="49.6855" lon="4.73648">
        <ele>273</ele>
        <time>2022-04-03T10:09:02.000Z</time>
      </trkpt>
      <trkpt lat="49.68547" lon="4.73649">
        <ele>273</ele>
        <time>2022-04-03T10:09:03.000Z</time>
      </trkpt>
      <trkpt lat="49.68544" lon="4.73651">
        <ele>274</ele>
        <time>2022-04-03T10:09:04.000Z</time>
      </trkpt>
      <trkpt lat="49.68542" lon="4.73652">
        <ele>274</ele>
        <time>2022-04-03T10:09:05.000Z</time>
      </trkpt>
      <trkpt lat="49.68539" lon="4.73654">
        <ele>274</ele>
        <time>2022-04-03T10:09:06.000Z</time>
      </trkpt>
      <trkpt lat="49.68536" lon="4.73656">
        <ele>274</ele>
        <time>2022-04-03T10:09:07.000Z</time>
      </trkpt>
      <trkpt lat="49.68533" lon="4.73658">
        <ele>275</ele>
        <time>2022-04-03T10:09:08.000Z</time>
      </trkpt>
      <trkpt lat="49.68531" lon="4.73659">
        <ele>275</ele>
        <time>2022-04-03T10:09:09.000Z</time>
      </trkpt>
      <trkpt lat="49.68528" lon="4.73662">
        <ele>275</ele>
        <time>2022-04-03T10:09:10.000Z</time>
      </trkpt>
      <trkpt lat="49.68525" lon="4.73663">
        <ele>275</ele>
        <time>2022-04-03T10:09:11.000Z</time>
      </trkpt>
      <trkpt lat="49.68522" lon="4.73666">
        <ele>275</ele>
        <time>2022-04-03T10:09:12.000Z</time>
      </trkpt>
      <trkpt lat="49.68519" lon="4.73667">
        <ele>275</ele>
        <time>2022-04-03T10:09:13.000Z</time>
      </trkpt>
      <trkpt lat="49.68517" lon="4.73668">
        <ele>276</ele>
        <time>2022-04-03T10:09:14.000Z</time>
      </trkpt>
      <trkpt lat="49.68514" lon="4.7367">
        <ele>276</ele>
        <time>2022-04-03T10:09:15.000Z</time>
      </trkpt>
      <trkpt lat="49.68511" lon="4.73672">
        <ele>276</ele>
        <time>2022-04-03T10:09:16.000Z</time>
      </trkpt>
      <trkpt lat="49.68508" lon="4.73675">
        <ele>276</ele>
        <time>2022-04-03T10:09:17.000Z</time>
      </trkpt>
      <trkpt lat="49.68505" lon="4.73677">
        <ele>276</ele>
        <time>2022-04-03T10:09:18.000Z</time>
      </trkpt>
      <trkpt lat="49.68502" lon="4.73678">
        <ele>276</ele>
        <time>2022-04-03T10:09:19.000Z</time>
      </trkpt>
      <trkpt lat="49.68499" lon="4.7368">
        <ele>277</ele>
        <time>2022-04-03T10:09:20.000Z</time>
      </trkpt>
      <trkpt lat="49.68496" lon="4.73682">
        <ele>277</ele>
        <time>2022-04-03T10:09:21.000Z</time>
      </trkpt>
      <trkpt lat="49.68493" lon="4.73684">
        <ele>277</ele>
        <time>2022-04-03T10:09:22.000Z</time>
      </trkpt>
      <trkpt lat="49.68489" lon="4.73685">
        <ele>277</ele>
        <time>2022-04-03T10:09:23.000Z</time>
      </trkpt>
      <trkpt lat="49.68486" lon="4.73687">
        <ele>277</ele>
        <time>2022-04-03T10:09:24.000Z</time>
      </trkpt>
      <trkpt lat="49.68484" lon="4.73689">
        <ele>277</ele>
        <time>2022-04-03T10:09:25.000Z</time>
      </trkpt>
      <trkpt lat="49.68481" lon="4.7369">
        <ele>277</ele>
        <time>2022-04-03T10:09:26.000Z</time>
      </trkpt>
      <trkpt lat="49.68478" lon="4.73691">
        <ele>277</ele>
        <time>2022-04-03T10:09:27.000Z</time>
      </trkpt>
      <trkpt lat="49.68476" lon="4.73691">
        <ele>277</ele>
        <time>2022-04-03T10:09:28.000Z</time>
      </trkpt>
      <trkpt lat="49.68474" lon="4.73693">
        <ele>277</ele>
        <time>2022-04-03T10:09:29.000Z</time>
      </trkpt>
      <trkpt lat="49.68473" lon="4.73695">
        <ele>277</ele>
        <time>2022-04-03T10:09:30.000Z</time>
      </trkpt>
      <trkpt lat="49.68471" lon="4.73698">
        <ele>278</ele>
        <time>2022-04-03T10:09:31.000Z</time>
      </trkpt>
      <trkpt lat="49.68468" lon="4.73702">
        <ele>278</ele>
        <time>2022-04-03T10:09:32.000Z</time>
      </trkpt>
      <trkpt lat="49.68466" lon="4.73705">
        <ele>278</ele>
        <time>2022-04-03T10:09:33.000Z</time>
      </trkpt>
      <trkpt lat="49.68463" lon="4.73709">
        <ele>278</ele>
        <time>2022-04-03T10:09:34.000Z</time>
      </trkpt>
      <trkpt lat="49.6846" lon="4.73712">
        <ele>278</ele>
        <time>2022-04-03T10:09:35.000Z</time>
      </trkpt>
      <trkpt lat="49.68457" lon="4.73715">
        <ele>278</ele>
        <time>2022-04-03T10:09:36.000Z</time>
      </trkpt>
      <trkpt lat="49.68454" lon="4.73719">
        <ele>278</ele>
        <time>2022-04-03T10:09:37.000Z</time>
      </trkpt>
      <trkpt lat="49.68451" lon="4.73723">
        <ele>278</ele>
        <time>2022-04-03T10:09:38.000Z</time>
      </trkpt>
      <trkpt lat="49.68448" lon="4.73728">
        <ele>279</ele>
        <time>2022-04-03T10:09:39.000Z</time>
      </trkpt>
      <trkpt lat="49.68445" lon="4.73733">
        <ele>279</ele>
        <time>2022-04-03T10:09:40.000Z</time>
      </trkpt>
      <trkpt lat="49.68443" lon="4.73737">
        <ele>279</ele>
        <time>2022-04-03T10:09:41.000Z</time>
      </trkpt>
      <trkpt lat="49.6844" lon="4.73742">
        <ele>279</ele>
        <time>2022-04-03T10:09:42.000Z</time>
      </trkpt>
      <trkpt lat="49.68437" lon="4.73747">
        <ele>279</ele>
        <time>2022-04-03T10:09:43.000Z</time>
      </trkpt>
      <trkpt lat="49.68434" lon="4.73752">
        <ele>280</ele>
        <time>2022-04-03T10:09:44.000Z</time>
      </trkpt>
      <trkpt lat="49.6843" lon="4.73756">
        <ele>280</ele>
        <time>2022-04-03T10:09:45.000Z</time>
      </trkpt>
      <trkpt lat="49.68427" lon="4.73761">
        <ele>280</ele>
        <time>2022-04-03T10:09:46.000Z</time>
      </trkpt>
      <trkpt lat="49.68423" lon="4.73768">
        <ele>280</ele>
        <time>2022-04-03T10:09:47.000Z</time>
      </trkpt>
      <trkpt lat="49.68419" lon="4.73773">
        <ele>280</ele>
        <time>2022-04-03T10:09:48.000Z</time>
      </trkpt>
      <trkpt lat="49.68415" lon="4.73779">
        <ele>280</ele>
        <time>2022-04-03T10:09:49.000Z</time>
      </trkpt>
      <trkpt lat="49.68412" lon="4.73784">
        <ele>280</ele>
        <time>2022-04-03T10:09:50.000Z</time>
      </trkpt>
      <trkpt lat="49.68408" lon="4.73789">
        <ele>280</ele>
        <time>2022-04-03T10:09:51.000Z</time>
      </trkpt>
      <trkpt lat="49.68404" lon="4.73795">
        <ele>280</ele>
        <time>2022-04-03T10:09:52.000Z</time>
      </trkpt>
      <trkpt lat="49.68399" lon="4.73802">
        <ele>280</ele>
        <time>2022-04-03T10:09:53.000Z</time>
      </trkpt>
      <trkpt lat="49.68395" lon="4.73809">
        <ele>280</ele>
        <time>2022-04-03T10:09:54.000Z</time>
      </trkpt>
      <trkpt lat="49.6839" lon="4.73815">
        <ele>280</ele>
        <time>2022-04-03T10:09:55.000Z</time>
      </trkpt>
      <trkpt lat="49.68386" lon="4.73821">
        <ele>280</ele>
        <time>2022-04-03T10:09:56.000Z</time>
      </trkpt>
      <trkpt lat="49.68382" lon="4.73827">
        <ele>280</ele>
        <time>2022-04-03T10:09:57.000Z</time>
      </trkpt>
      <trkpt lat="49.68377" lon="4.73834">
        <ele>280</ele>
        <time>2022-04-03T10:09:58.000Z</time>
      </trkpt>
      <trkpt lat="49.68373" lon="4.7384">
        <ele>280</ele>
        <time>2022-04-03T10:09:59.000Z</time>
      </trkpt>
      <trkpt lat="49.68368" lon="4.73847">
        <ele>281</ele>
        <time>2022-04-03T10:10:00.000Z</time>
      </trkpt>
      <trkpt lat="49.68364" lon="4.73853">
        <ele>281</ele>
        <time>2022-04-03T10:10:01.000Z</time>
      </trkpt>
      <trkpt lat="49.68359" lon="4.73859">
        <ele>281</ele>
        <time>2022-04-03T10:10:02.000Z</time>
      </trkpt>
      <trkpt lat="49.68355" lon="4.73866">
        <ele>281</ele>
        <time>2022-04-03T10:10:03.000Z</time>
      </trkpt>
      <trkpt lat="49.68351" lon="4.73871">
        <ele>280</ele>
        <time>2022-04-03T10:10:04.000Z</time>
      </trkpt>
      <trkpt lat="49.68347" lon="4.73876">
        <ele>280</ele>
        <time>2022-04-03T10:10:05.000Z</time>
      </trkpt>
      <trkpt lat="49.68344" lon="4.7388">
        <ele>280</ele>
        <time>2022-04-03T10:10:06.000Z</time>
      </trkpt>
      <trkpt lat="49.68342" lon="4.73884">
        <ele>280</ele>
        <time>2022-04-03T10:10:07.000Z</time>
      </trkpt>
      <trkpt lat="49.6834" lon="4.7389">
        <ele>280</ele>
        <time>2022-04-03T10:10:08.000Z</time>
      </trkpt>
      <trkpt lat="49.68338" lon="4.73897">
        <ele>280</ele>
        <time>2022-04-03T10:10:09.000Z</time>
      </trkpt>
      <trkpt lat="49.68337" lon="4.73904">
        <ele>280</ele>
        <time>2022-04-03T10:10:10.000Z</time>
      </trkpt>
      <trkpt lat="49.68335" lon="4.7391">
        <ele>280</ele>
        <time>2022-04-03T10:10:11.000Z</time>
      </trkpt>
      <trkpt lat="49.68333" lon="4.73918">
        <ele>279</ele>
        <time>2022-04-03T10:10:12.000Z</time>
      </trkpt>
      <trkpt lat="49.68332" lon="4.73926">
        <ele>279</ele>
        <time>2022-04-03T10:10:13.000Z</time>
      </trkpt>
      <trkpt lat="49.68331" lon="4.73934">
        <ele>279</ele>
        <time>2022-04-03T10:10:14.000Z</time>
      </trkpt>
      <trkpt lat="49.6833" lon="4.73942">
        <ele>279</ele>
        <time>2022-04-03T10:10:15.000Z</time>
      </trkpt>
      <trkpt lat="49.68329" lon="4.7395">
        <ele>279</ele>
        <time>2022-04-03T10:10:16.000Z</time>
      </trkpt>
      <trkpt lat="49.68327" lon="4.73958">
        <ele>278</ele>
        <time>2022-04-03T10:10:17.000Z</time>
      </trkpt>
      <trkpt lat="49.68326" lon="4.73967">
        <ele>278</ele>
        <time>2022-04-03T10:10:18.000Z</time>
      </trkpt>
      <trkpt lat="49.68324" lon="4.73975">
        <ele>277</ele>
        <time>2022-04-03T10:10:19.000Z</time>
      </trkpt>
      <trkpt lat="49.68322" lon="4.73982">
        <ele>277</ele>
        <time>2022-04-03T10:10:20.000Z</time>
      </trkpt>
      <trkpt lat="49.6832" lon="4.7399">
        <ele>276</ele>
        <time>2022-04-03T10:10:21.000Z</time>
      </trkpt>
      <trkpt lat="49.68318" lon="4.73998">
        <ele>276</ele>
        <time>2022-04-03T10:10:22.000Z</time>
      </trkpt>
      <trkpt lat="49.68316" lon="4.74007">
        <ele>275</ele>
        <time>2022-04-03T10:10:23.000Z</time>
      </trkpt>
      <trkpt lat="49.68314" lon="4.74016">
        <ele>275</ele>
        <time>2022-04-03T10:10:24.000Z</time>
      </trkpt>
      <trkpt lat="49.68311" lon="4.74024">
        <ele>275</ele>
        <time>2022-04-03T10:10:25.000Z</time>
      </trkpt>
      <trkpt lat="49.68309" lon="4.74033">
        <ele>274</ele>
        <time>2022-04-03T10:10:26.000Z</time>
      </trkpt>
      <trkpt lat="49.68306" lon="4.74042">
        <ele>274</ele>
        <time>2022-04-03T10:10:27.000Z</time>
      </trkpt>
      <trkpt lat="49.68304" lon="4.74052">
        <ele>273</ele>
        <time>2022-04-03T10:10:28.000Z</time>
      </trkpt>
      <trkpt lat="49.68301" lon="4.74061">
        <ele>273</ele>
        <time>2022-04-03T10:10:29.000Z</time>
      </trkpt>
      <trkpt lat="49.68299" lon="4.74071">
        <ele>272</ele>
        <time>2022-04-03T10:10:30.000Z</time>
      </trkpt>
      <trkpt lat="49.68297" lon="4.7408">
        <ele>272</ele>
        <time>2022-04-03T10:10:31.000Z</time>
      </trkpt>
      <trkpt lat="49.68295" lon="4.74088">
        <ele>272</ele>
        <time>2022-04-03T10:10:32.000Z</time>
      </trkpt>
      <trkpt lat="49.68294" lon="4.74095">
        <ele>271</ele>
        <time>2022-04-03T10:10:33.000Z</time>
      </trkpt>
      <trkpt lat="49.68292" lon="4.74101">
        <ele>271</ele>
        <time>2022-04-03T10:10:34.000Z</time>
      </trkpt>
      <trkpt lat="49.6829" lon="4.74108">
        <ele>271</ele>
        <time>2022-04-03T10:10:35.000Z</time>
      </trkpt>
      <trkpt lat="49.68289" lon="4.74116">
        <ele>270</ele>
        <time>2022-04-03T10:10:36.000Z</time>
      </trkpt>
      <trkpt lat="49.68287" lon="4.74124">
        <ele>270</ele>
        <time>2022-04-03T10:10:37.000Z</time>
      </trkpt>
      <trkpt lat="49.68285" lon="4.74133">
        <ele>270</ele>
        <time>2022-04-03T10:10:38.000Z</time>
      </trkpt>
      <trkpt lat="49.68284" lon="4.74141">
        <ele>269</ele>
        <time>2022-04-03T10:10:39.000Z</time>
      </trkpt>
      <trkpt lat="49.68283" lon="4.74151">
        <ele>269</ele>
        <time>2022-04-03T10:10:40.000Z</time>
      </trkpt>
      <trkpt lat="49.68283" lon="4.7416">
        <ele>269</ele>
        <time>2022-04-03T10:10:41.000Z</time>
      </trkpt>
      <trkpt lat="49.68282" lon="4.7417">
        <ele>268</ele>
        <time>2022-04-03T10:10:42.000Z</time>
      </trkpt>
      <trkpt lat="49.68282" lon="4.7418">
        <ele>268</ele>
        <time>2022-04-03T10:10:43.000Z</time>
      </trkpt>
      <trkpt lat="49.68281" lon="4.74192">
        <ele>267</ele>
        <time>2022-04-03T10:10:44.000Z</time>
      </trkpt>
      <trkpt lat="49.6828" lon="4.74204">
        <ele>267</ele>
        <time>2022-04-03T10:10:45.000Z</time>
      </trkpt>
      <trkpt lat="49.6828" lon="4.74215">
        <ele>266</ele>
        <time>2022-04-03T10:10:46.000Z</time>
      </trkpt>
      <trkpt lat="49.6828" lon="4.74225">
        <ele>266</ele>
        <time>2022-04-03T10:10:47.000Z</time>
      </trkpt>
      <trkpt lat="49.68279" lon="4.74235">
        <ele>265</ele>
        <time>2022-04-03T10:10:48.000Z</time>
      </trkpt>
      <trkpt lat="49.68279" lon="4.74245">
        <ele>265</ele>
        <time>2022-04-03T10:10:49.000Z</time>
      </trkpt>
      <trkpt lat="49.68279" lon="4.74255">
        <ele>264</ele>
        <time>2022-04-03T10:10:50.000Z</time>
      </trkpt>
      <trkpt lat="49.68278" lon="4.74266">
        <ele>264</ele>
        <time>2022-04-03T10:10:51.000Z</time>
      </trkpt>
      <trkpt lat="49.68278" lon="4.74277">
        <ele>263</ele>
        <time>2022-04-03T10:10:52.000Z</time>
      </trkpt>
      <trkpt lat="49.68279" lon="4.74288">
        <ele>263</ele>
        <time>2022-04-03T10:10:53.000Z</time>
      </trkpt>
      <trkpt lat="49.68278" lon="4.74299">
        <ele>262</ele>
        <time>2022-04-03T10:10:54.000Z</time>
      </trkpt>
      <trkpt lat="49.68278" lon="4.74309">
        <ele>262</ele>
        <time>2022-04-03T10:10:55.000Z</time>
      </trkpt>
      <trkpt lat="49.68277" lon="4.7432">
        <ele>261</ele>
        <time>2022-04-03T10:10:56.000Z</time>
      </trkpt>
      <trkpt lat="49.68276" lon="4.74329">
        <ele>260</ele>
        <time>2022-04-03T10:10:57.000Z</time>
      </trkpt>
      <trkpt lat="49.68274" lon="4.74339">
        <ele>260</ele>
        <time>2022-04-03T10:10:58.000Z</time>
      </trkpt>
      <trkpt lat="49.68273" lon="4.74348">
        <ele>259</ele>
        <time>2022-04-03T10:10:59.000Z</time>
      </trkpt>
      <trkpt lat="49.68272" lon="4.74358">
        <ele>259</ele>
        <time>2022-04-03T10:11:00.000Z</time>
      </trkpt>
      <trkpt lat="49.6827" lon="4.74369">
        <ele>258</ele>
        <time>2022-04-03T10:11:01.000Z</time>
      </trkpt>
      <trkpt lat="49.68268" lon="4.74379">
        <ele>257</ele>
        <time>2022-04-03T10:11:02.000Z</time>
      </trkpt>
      <trkpt lat="49.68266" lon="4.7439">
        <ele>257</ele>
        <time>2022-04-03T10:11:03.000Z</time>
      </trkpt>
      <trkpt lat="49.68264" lon="4.74401">
        <ele>256</ele>
        <time>2022-04-03T10:11:04.000Z</time>
      </trkpt>
      <trkpt lat="49.68262" lon="4.74411">
        <ele>255</ele>
        <time>2022-04-03T10:11:05.000Z</time>
      </trkpt>
      <trkpt lat="49.68259" lon="4.74421">
        <ele>255</ele>
        <time>2022-04-03T10:11:06.000Z</time>
      </trkpt>
      <trkpt lat="49.68257" lon="4.7443">
        <ele>254</ele>
        <time>2022-04-03T10:11:07.000Z</time>
      </trkpt>
      <trkpt lat="49.68255" lon="4.74438">
        <ele>254</ele>
        <time>2022-04-03T10:11:08.000Z</time>
      </trkpt>
      <trkpt lat="49.68253" lon="4.74447">
        <ele>253</ele>
        <time>2022-04-03T10:11:09.000Z</time>
      </trkpt>
      <trkpt lat="49.68251" lon="4.74457">
        <ele>252</ele>
        <time>2022-04-03T10:11:10.000Z</time>
      </trkpt>
      <trkpt lat="49.68249" lon="4.74466">
        <ele>252</ele>
        <time>2022-04-03T10:11:11.000Z</time>
      </trkpt>
      <trkpt lat="49.68247" lon="4.74475">
        <ele>251</ele>
        <time>2022-04-03T10:11:12.000Z</time>
      </trkpt>
      <trkpt lat="49.68245" lon="4.74485">
        <ele>251</ele>
        <time>2022-04-03T10:11:13.000Z</time>
      </trkpt>
      <trkpt lat="49.68243" lon="4.74493">
        <ele>250</ele>
        <time>2022-04-03T10:11:14.000Z</time>
      </trkpt>
      <trkpt lat="49.68242" lon="4.74501">
        <ele>250</ele>
        <time>2022-04-03T10:11:15.000Z</time>
      </trkpt>
      <trkpt lat="49.6824" lon="4.74507">
        <ele>250</ele>
        <time>2022-04-03T10:11:16.000Z</time>
      </trkpt>
      <trkpt lat="49.6824" lon="4.74511">
        <ele>250</ele>
        <time>2022-04-03T10:11:17.000Z</time>
      </trkpt>
      <trkpt lat="49.68239" lon="4.74513">
        <ele>249</ele>
        <time>2022-04-03T10:11:18.000Z</time>
      </trkpt>
      <trkpt lat="49.68238" lon="4.74515">
        <ele>249</ele>
        <time>2022-04-03T10:11:19.000Z</time>
      </trkpt>
      <trkpt lat="49.68237" lon="4.74516">
        <ele>249</ele>
        <time>2022-04-03T10:11:20.000Z</time>
      </trkpt>
      <trkpt lat="49.68237" lon="4.74517">
        <ele>249</ele>
        <time>2022-04-03T10:11:21.000Z</time>
      </trkpt>
      <trkpt lat="49.68237" lon="4.74518">
        <ele>249</ele>
        <time>2022-04-03T10:11:22.000Z</time>
      </trkpt>
      <trkpt lat="49.68236" lon="4.74519">
        <ele>249</ele>
        <time>2022-04-03T10:11:23.000Z</time>
      </trkpt>
      <trkpt lat="49.68236" lon="4.74521">
        <ele>249</ele>
        <time>2022-04-03T10:11:24.000Z</time>
      </trkpt>
      <trkpt lat="49.68235" lon="4.74523">
        <ele>248</ele>
        <time>2022-04-03T10:11:25.000Z</time>
      </trkpt>
      <trkpt lat="49.68234" lon="4.74525">
        <ele>248</ele>
        <time>2022-04-03T10:11:26.000Z</time>
      </trkpt>
      <trkpt lat="49.68233" lon="4.74529">
        <ele>248</ele>
        <time>2022-04-03T10:11:27.000Z</time>
      </trkpt>
      <trkpt lat="49.68232" lon="4.74534">
        <ele>248</ele>
        <time>2022-04-03T10:11:28.000Z</time>
      </trkpt>
      <trkpt lat="49.68231" lon="4.74537">
        <ele>248</ele>
        <time>2022-04-03T10:11:29.000Z</time>
      </trkpt>
      <trkpt lat="49.68231" lon="4.74542">
        <ele>247</ele>
        <time>2022-04-03T10:11:30.000Z</time>
      </trkpt>
      <trkpt lat="49.68231" lon="4.74546">
        <ele>247</ele>
        <time>2022-04-03T10:11:31.000Z</time>
      </trkpt>
      <trkpt lat="49.68231" lon="4.7455">
        <ele>247</ele>
        <time>2022-04-03T10:11:32.000Z</time>
      </trkpt>
      <trkpt lat="49.6823" lon="4.74553">
        <ele>247</ele>
        <time>2022-04-03T10:11:33.000Z</time>
      </trkpt>
      <trkpt lat="49.68229" lon="4.74555">
        <ele>247</ele>
        <time>2022-04-03T10:11:34.000Z</time>
      </trkpt>
      <trkpt lat="49.68228" lon="4.74559">
        <ele>247</ele>
        <time>2022-04-03T10:11:35.000Z</time>
      </trkpt>
      <trkpt lat="49.68227" lon="4.74563">
        <ele>247</ele>
        <time>2022-04-03T10:11:36.000Z</time>
      </trkpt>
      <trkpt lat="49.68225" lon="4.74568">
        <ele>247</ele>
        <time>2022-04-03T10:11:37.000Z</time>
      </trkpt>
      <trkpt lat="49.68223" lon="4.74572">
        <ele>246</ele>
        <time>2022-04-03T10:11:38.000Z</time>
      </trkpt>
      <trkpt lat="49.68221" lon="4.74574">
        <ele>246</ele>
        <time>2022-04-03T10:11:39.000Z</time>
      </trkpt>
      <trkpt lat="49.68219" lon="4.74577">
        <ele>246</ele>
        <time>2022-04-03T10:11:40.000Z</time>
      </trkpt>
      <trkpt lat="49.68218" lon="4.7458">
        <ele>246</ele>
        <time>2022-04-03T10:11:41.000Z</time>
      </trkpt>
      <trkpt lat="49.68216" lon="4.74582">
        <ele>246</ele>
        <time>2022-04-03T10:11:42.000Z</time>
      </trkpt>
      <trkpt lat="49.68214" lon="4.74583">
        <ele>246</ele>
        <time>2022-04-03T10:11:43.000Z</time>
      </trkpt>
      <trkpt lat="49.68212" lon="4.74584">
        <ele>246</ele>
        <time>2022-04-03T10:11:44.000Z</time>
      </trkpt>
      <trkpt lat="49.68212" lon="4.74587">
        <ele>245</ele>
        <time>2022-04-03T10:11:45.000Z</time>
      </trkpt>
      <trkpt lat="49.6821" lon="4.7459">
        <ele>245</ele>
        <time>2022-04-03T10:11:46.000Z</time>
      </trkpt>
      <trkpt lat="49.68209" lon="4.74595">
        <ele>245</ele>
        <time>2022-04-03T10:11:47.000Z</time>
      </trkpt>
      <trkpt lat="49.68207" lon="4.74599">
        <ele>245</ele>
        <time>2022-04-03T10:11:48.000Z</time>
      </trkpt>
      <trkpt lat="49.68206" lon="4.74603">
        <ele>245</ele>
        <time>2022-04-03T10:11:49.000Z</time>
      </trkpt>
      <trkpt lat="49.68204" lon="4.74606">
        <ele>245</ele>
        <time>2022-04-03T10:11:50.000Z</time>
      </trkpt>
      <trkpt lat="49.68203" lon="4.74608">
        <ele>245</ele>
        <time>2022-04-03T10:11:51.000Z</time>
      </trkpt>
      <trkpt lat="49.68202" lon="4.7461">
        <ele>245</ele>
        <time>2022-04-03T10:11:52.000Z</time>
      </trkpt>
      <trkpt lat="49.68201" lon="4.74613">
        <ele>245</ele>
        <time>2022-04-03T10:11:53.000Z</time>
      </trkpt>
      <trkpt lat="49.68201" lon="4.74617">
        <ele>245</ele>
        <time>2022-04-03T10:11:54.000Z</time>
      </trkpt>
      <trkpt lat="49.68202" lon="4.74623">
        <ele>245</ele>
        <time>2022-04-03T10:11:55.000Z</time>
      </trkpt>
      <trkpt lat="49.68204" lon="4.7463">
        <ele>245</ele>
        <time>2022-04-03T10:11:56.000Z</time>
      </trkpt>
      <trkpt lat="49.68206" lon="4.74638">
        <ele>244</ele>
        <time>2022-04-03T10:11:57.000Z</time>
      </trkpt>
      <trkpt lat="49.68208" lon="4.74647">
        <ele>244</ele>
        <time>2022-04-03T10:11:58.000Z</time>
      </trkpt>
      <trkpt lat="49.68209" lon="4.74658">
        <ele>244</ele>
        <time>2022-04-03T10:11:59.000Z</time>
      </trkpt>
      <trkpt lat="49.68212" lon="4.74668">
        <ele>244</ele>
        <time>2022-04-03T10:12:00.000Z</time>
      </trkpt>
      <trkpt lat="49.68215" lon="4.7468">
        <ele>243</ele>
        <time>2022-04-03T10:12:01.000Z</time>
      </trkpt>
      <trkpt lat="49.68218" lon="4.74691">
        <ele>243</ele>
        <time>2022-04-03T10:12:02.000Z</time>
      </trkpt>
      <trkpt lat="49.68221" lon="4.74703">
        <ele>242</ele>
        <time>2022-04-03T10:12:03.000Z</time>
      </trkpt>
      <trkpt lat="49.68224" lon="4.74716">
        <ele>241</ele>
        <time>2022-04-03T10:12:04.000Z</time>
      </trkpt>
      <trkpt lat="49.68226" lon="4.74728">
        <ele>240</ele>
        <time>2022-04-03T10:12:05.000Z</time>
      </trkpt>
      <trkpt lat="49.68229" lon="4.74741">
        <ele>239</ele>
        <time>2022-04-03T10:12:06.000Z</time>
      </trkpt>
      <trkpt lat="49.68232" lon="4.74755">
        <ele>238</ele>
        <time>2022-04-03T10:12:07.000Z</time>
      </trkpt>
      <trkpt lat="49.68235" lon="4.74769">
        <ele>237</ele>
        <time>2022-04-03T10:12:08.000Z</time>
      </trkpt>
      <trkpt lat="49.68239" lon="4.74782">
        <ele>236</ele>
        <time>2022-04-03T10:12:09.000Z</time>
      </trkpt>
      <trkpt lat="49.68243" lon="4.74796">
        <ele>235</ele>
        <time>2022-04-03T10:12:10.000Z</time>
      </trkpt>
      <trkpt lat="49.68248" lon="4.74809">
        <ele>234</ele>
        <time>2022-04-03T10:12:11.000Z</time>
      </trkpt>
      <trkpt lat="49.68252" lon="4.74823">
        <ele>233</ele>
        <time>2022-04-03T10:12:12.000Z</time>
      </trkpt>
      <trkpt lat="49.68256" lon="4.74837">
        <ele>232</ele>
        <time>2022-04-03T10:12:13.000Z</time>
      </trkpt>
      <trkpt lat="49.6826" lon="4.74851">
        <ele>231</ele>
        <time>2022-04-03T10:12:14.000Z</time>
      </trkpt>
      <trkpt lat="49.68263" lon="4.74864">
        <ele>229</ele>
        <time>2022-04-03T10:12:15.000Z</time>
      </trkpt>
      <trkpt lat="49.68266" lon="4.74877">
        <ele>228</ele>
        <time>2022-04-03T10:12:16.000Z</time>
      </trkpt>
      <trkpt lat="49.6827" lon="4.7489">
        <ele>227</ele>
        <time>2022-04-03T10:12:17.000Z</time>
      </trkpt>
      <trkpt lat="49.68275" lon="4.74902">
        <ele>227</ele>
        <time>2022-04-03T10:12:18.000Z</time>
      </trkpt>
      <trkpt lat="49.68279" lon="4.74914">
        <ele>226</ele>
        <time>2022-04-03T10:12:19.000Z</time>
      </trkpt>
      <trkpt lat="49.68283" lon="4.74926">
        <ele>225</ele>
        <time>2022-04-03T10:12:20.000Z</time>
      </trkpt>
      <trkpt lat="49.68288" lon="4.74938">
        <ele>224</ele>
        <time>2022-04-03T10:12:21.000Z</time>
      </trkpt>
      <trkpt lat="49.68292" lon="4.7495">
        <ele>223</ele>
        <time>2022-04-03T10:12:22.000Z</time>
      </trkpt>
      <trkpt lat="49.68295" lon="4.74963">
        <ele>223</ele>
        <time>2022-04-03T10:12:23.000Z</time>
      </trkpt>
      <trkpt lat="49.68297" lon="4.74976">
        <ele>222</ele>
        <time>2022-04-03T10:12:24.000Z</time>
      </trkpt>
      <trkpt lat="49.68299" lon="4.74988">
        <ele>221</ele>
        <time>2022-04-03T10:12:25.000Z</time>
      </trkpt>
      <trkpt lat="49.68301" lon="4.75001">
        <ele>221</ele>
        <time>2022-04-03T10:12:26.000Z</time>
      </trkpt>
      <trkpt lat="49.68302" lon="4.75014">
        <ele>220</ele>
        <time>2022-04-03T10:12:27.000Z</time>
      </trkpt>
      <trkpt lat="49.68303" lon="4.75027">
        <ele>219</ele>
        <time>2022-04-03T10:12:28.000Z</time>
      </trkpt>
      <trkpt lat="49.68304" lon="4.75041">
        <ele>218</ele>
        <time>2022-04-03T10:12:29.000Z</time>
      </trkpt>
      <trkpt lat="49.68305" lon="4.75054">
        <ele>218</ele>
        <time>2022-04-03T10:12:30.000Z</time>
      </trkpt>
      <trkpt lat="49.68307" lon="4.75068">
        <ele>217</ele>
        <time>2022-04-03T10:12:31.000Z</time>
      </trkpt>
      <trkpt lat="49.68309" lon="4.75082">
        <ele>216</ele>
        <time>2022-04-03T10:12:32.000Z</time>
      </trkpt>
      <trkpt lat="49.68312" lon="4.75095">
        <ele>216</ele>
        <time>2022-04-03T10:12:33.000Z</time>
      </trkpt>
      <trkpt lat="49.68315" lon="4.75108">
        <ele>215</ele>
        <time>2022-04-03T10:12:34.000Z</time>
      </trkpt>
      <trkpt lat="49.68319" lon="4.7512">
        <ele>214</ele>
        <time>2022-04-03T10:12:35.000Z</time>
      </trkpt>
      <trkpt lat="49.68323" lon="4.75133">
        <ele>213</ele>
        <time>2022-04-03T10:12:36.000Z</time>
      </trkpt>
      <trkpt lat="49.68327" lon="4.75145">
        <ele>213</ele>
        <time>2022-04-03T10:12:37.000Z</time>
      </trkpt>
      <trkpt lat="49.68331" lon="4.75158">
        <ele>212</ele>
        <time>2022-04-03T10:12:38.000Z</time>
      </trkpt>
      <trkpt lat="49.68335" lon="4.7517">
        <ele>211</ele>
        <time>2022-04-03T10:12:39.000Z</time>
      </trkpt>
      <trkpt lat="49.68338" lon="4.7518">
        <ele>210</ele>
        <time>2022-04-03T10:12:40.000Z</time>
      </trkpt>
      <trkpt lat="49.68341" lon="4.75188">
        <ele>209</ele>
        <time>2022-04-03T10:12:41.000Z</time>
      </trkpt>
      <trkpt lat="49.68343" lon="4.75195">
        <ele>208</ele>
        <time>2022-04-03T10:12:42.000Z</time>
      </trkpt>
      <trkpt lat="49.68345" lon="4.75202">
        <ele>207</ele>
        <time>2022-04-03T10:12:43.000Z</time>
      </trkpt>
      <trkpt lat="49.68347" lon="4.75211">
        <ele>206</ele>
        <time>2022-04-03T10:12:44.000Z</time>
      </trkpt>
      <trkpt lat="49.68349" lon="4.75221">
        <ele>206</ele>
        <time>2022-04-03T10:12:45.000Z</time>
      </trkpt>
      <trkpt lat="49.68352" lon="4.75231">
        <ele>205</ele>
        <time>2022-04-03T10:12:46.000Z</time>
      </trkpt>
      <trkpt lat="49.68355" lon="4.75243">
        <ele>204</ele>
        <time>2022-04-03T10:12:47.000Z</time>
      </trkpt>
      <trkpt lat="49.68358" lon="4.75255">
        <ele>204</ele>
        <time>2022-04-03T10:12:48.000Z</time>
      </trkpt>
      <trkpt lat="49.68361" lon="4.75267">
        <ele>203</ele>
        <time>2022-04-03T10:12:49.000Z</time>
      </trkpt>
      <trkpt lat="49.68364" lon="4.75278">
        <ele>202</ele>
        <time>2022-04-03T10:12:50.000Z</time>
      </trkpt>
      <trkpt lat="49.68366" lon="4.75287">
        <ele>201</ele>
        <time>2022-04-03T10:12:51.000Z</time>
      </trkpt>
      <trkpt lat="49.68366" lon="4.75296">
        <ele>200</ele>
        <time>2022-04-03T10:12:52.000Z</time>
      </trkpt>
      <trkpt lat="49.68365" lon="4.75305">
        <ele>200</ele>
        <time>2022-04-03T10:12:53.000Z</time>
      </trkpt>
      <trkpt lat="49.68364" lon="4.75312">
        <ele>199</ele>
        <time>2022-04-03T10:12:54.000Z</time>
      </trkpt>
      <trkpt lat="49.68362" lon="4.75317">
        <ele>199</ele>
        <time>2022-04-03T10:12:55.000Z</time>
      </trkpt>
      <trkpt lat="49.6836" lon="4.75323">
        <ele>199</ele>
        <time>2022-04-03T10:12:56.000Z</time>
      </trkpt>
      <trkpt lat="49.68359" lon="4.75327">
        <ele>199</ele>
        <time>2022-04-03T10:12:57.000Z</time>
      </trkpt>
      <trkpt lat="49.68357" lon="4.7533">
        <ele>199</ele>
        <time>2022-04-03T10:12:58.000Z</time>
      </trkpt>
      <trkpt lat="49.68356" lon="4.75334">
        <ele>199</ele>
        <time>2022-04-03T10:12:59.000Z</time>
      </trkpt>
      <trkpt lat="49.68355" lon="4.75336">
        <ele>199</ele>
        <time>2022-04-03T10:13:00.000Z</time>
      </trkpt>
      <trkpt lat="49.68355" lon="4.75339">
        <ele>199</ele>
        <time>2022-04-03T10:13:01.000Z</time>
      </trkpt>
      <trkpt lat="49.68354" lon="4.75343">
        <ele>198</ele>
        <time>2022-04-03T10:13:02.000Z</time>
      </trkpt>
      <trkpt lat="49.68352" lon="4.75345">
        <ele>198</ele>
        <time>2022-04-03T10:13:03.000Z</time>
      </trkpt>
      <trkpt lat="49.68352" lon="4.75348">
        <ele>198</ele>
        <time>2022-04-03T10:13:04.000Z</time>
      </trkpt>
      <trkpt lat="49.68351" lon="4.75351">
        <ele>198</ele>
        <time>2022-04-03T10:13:05.000Z</time>
      </trkpt>
      <trkpt lat="49.68351" lon="4.75354">
        <ele>198</ele>
        <time>2022-04-03T10:13:06.000Z</time>
      </trkpt>
      <trkpt lat="49.6835" lon="4.75357">
        <ele>199</ele>
        <time>2022-04-03T10:13:07.000Z</time>
      </trkpt>
      <trkpt lat="49.6835" lon="4.75359">
        <ele>199</ele>
        <time>2022-04-03T10:13:08.000Z</time>
      </trkpt>
      <trkpt lat="49.68349" lon="4.75362">
        <ele>199</ele>
        <time>2022-04-03T10:13:09.000Z</time>
      </trkpt>
      <trkpt lat="49.68348" lon="4.75364">
        <ele>199</ele>
        <time>2022-04-03T10:13:10.000Z</time>
      </trkpt>
      <trkpt lat="49.68348" lon="4.75367">
        <ele>199</ele>
        <time>2022-04-03T10:13:11.000Z</time>
      </trkpt>
      <trkpt lat="49.68347" lon="4.7537">
        <ele>199</ele>
        <time>2022-04-03T10:13:12.000Z</time>
      </trkpt>
      <trkpt lat="49.68346" lon="4.75373">
        <ele>199</ele>
        <time>2022-04-03T10:13:13.000Z</time>
      </trkpt>
      <trkpt lat="49.68346" lon="4.75376">
        <ele>199</ele>
        <time>2022-04-03T10:13:14.000Z</time>
      </trkpt>
      <trkpt lat="49.68345" lon="4.75379">
        <ele>200</ele>
        <time>2022-04-03T10:13:15.000Z</time>
      </trkpt>
      <trkpt lat="49.68344" lon="4.75383">
        <ele>200</ele>
        <time>2022-04-03T10:13:16.000Z</time>
      </trkpt>
      <trkpt lat="49.68343" lon="4.75387">
        <ele>200</ele>
        <time>2022-04-03T10:13:17.000Z</time>
      </trkpt>
      <trkpt lat="49.68341" lon="4.7539">
        <ele>200</ele>
        <time>2022-04-03T10:13:18.000Z</time>
      </trkpt>
      <trkpt lat="49.6834" lon="4.75393">
        <ele>201</ele>
        <time>2022-04-03T10:13:19.000Z</time>
      </trkpt>
      <trkpt lat="49.68339" lon="4.75397">
        <ele>201</ele>
        <time>2022-04-03T10:13:20.000Z</time>
      </trkpt>
      <trkpt lat="49.68338" lon="4.75401">
        <ele>201</ele>
        <time>2022-04-03T10:13:21.000Z</time>
      </trkpt>
      <trkpt lat="49.68337" lon="4.75404">
        <ele>201</ele>
        <time>2022-04-03T10:13:22.000Z</time>
      </trkpt>
      <trkpt lat="49.68336" lon="4.75408">
        <ele>201</ele>
        <time>2022-04-03T10:13:23.000Z</time>
      </trkpt>
      <trkpt lat="49.68336" lon="4.75411">
        <ele>202</ele>
        <time>2022-04-03T10:13:24.000Z</time>
      </trkpt>
      <trkpt lat="49.68335" lon="4.75415">
        <ele>202</ele>
        <time>2022-04-03T10:13:25.000Z</time>
      </trkpt>
      <trkpt lat="49.68334" lon="4.75418">
        <ele>202</ele>
        <time>2022-04-03T10:13:26.000Z</time>
      </trkpt>
      <trkpt lat="49.68334" lon="4.75422">
        <ele>202</ele>
        <time>2022-04-03T10:13:27.000Z</time>
      </trkpt>
      <trkpt lat="49.68333" lon="4.75425">
        <ele>203</ele>
        <time>2022-04-03T10:13:28.000Z</time>
      </trkpt>
      <trkpt lat="49.68332" lon="4.75429">
        <ele>203</ele>
        <time>2022-04-03T10:13:29.000Z</time>
      </trkpt>
      <trkpt lat="49.68331" lon="4.75432">
        <ele>203</ele>
        <time>2022-04-03T10:13:30.000Z</time>
      </trkpt>
      <trkpt lat="49.6833" lon="4.75436">
        <ele>203</ele>
        <time>2022-04-03T10:13:31.000Z</time>
      </trkpt>
      <trkpt lat="49.6833" lon="4.75439">
        <ele>204</ele>
        <time>2022-04-03T10:13:32.000Z</time>
      </trkpt>
      <trkpt lat="49.68329" lon="4.75443">
        <ele>204</ele>
        <time>2022-04-03T10:13:33.000Z</time>
      </trkpt>
      <trkpt lat="49.68328" lon="4.75447">
        <ele>204</ele>
        <time>2022-04-03T10:13:34.000Z</time>
      </trkpt>
      <trkpt lat="49.68328" lon="4.75451">
        <ele>205</ele>
        <time>2022-04-03T10:13:35.000Z</time>
      </trkpt>
      <trkpt lat="49.68327" lon="4.75454">
        <ele>205</ele>
        <time>2022-04-03T10:13:36.000Z</time>
      </trkpt>
      <trkpt lat="49.68327" lon="4.75457">
        <ele>205</ele>
        <time>2022-04-03T10:13:37.000Z</time>
      </trkpt>
      <trkpt lat="49.68327" lon="4.7546">
        <ele>205</ele>
        <time>2022-04-03T10:13:38.000Z</time>
      </trkpt>
      <trkpt lat="49.68328" lon="4.75463">
        <ele>206</ele>
        <time>2022-04-03T10:13:39.000Z</time>
      </trkpt>
      <trkpt lat="49.68329" lon="4.75465">
        <ele>206</ele>
        <time>2022-04-03T10:13:40.000Z</time>
      </trkpt>
      <trkpt lat="49.6833" lon="4.75469">
        <ele>206</ele>
        <time>2022-04-03T10:13:41.000Z</time>
      </trkpt>
      <trkpt lat="49.68331" lon="4.75473">
        <ele>207</ele>
        <time>2022-04-03T10:13:42.000Z</time>
      </trkpt>
      <trkpt lat="49.68331" lon="4.7548">
        <ele>207</ele>
        <time>2022-04-03T10:13:43.000Z</time>
      </trkpt>
      <trkpt lat="49.68331" lon="4.75486">
        <ele>207</ele>
        <time>2022-04-03T10:13:44.000Z</time>
      </trkpt>
      <trkpt lat="49.68332" lon="4.75493">
        <ele>207</ele>
        <time>2022-04-03T10:13:45.000Z</time>
      </trkpt>
      <trkpt lat="49.68334" lon="4.75501">
        <ele>207</ele>
        <time>2022-04-03T10:13:46.000Z</time>
      </trkpt>
      <trkpt lat="49.68336" lon="4.75509">
        <ele>207</ele>
        <time>2022-04-03T10:13:47.000Z</time>
      </trkpt>
      <trkpt lat="49.68338" lon="4.75517">
        <ele>208</ele>
        <time>2022-04-03T10:13:48.000Z</time>
      </trkpt>
      <trkpt lat="49.6834" lon="4.75525">
        <ele>208</ele>
        <time>2022-04-03T10:13:49.000Z</time>
      </trkpt>
      <trkpt lat="49.68343" lon="4.75533">
        <ele>208</ele>
        <time>2022-04-03T10:13:50.000Z</time>
      </trkpt>
      <trkpt lat="49.68345" lon="4.75541">
        <ele>208</ele>
        <time>2022-04-03T10:13:51.000Z</time>
      </trkpt>
      <trkpt lat="49.68348" lon="4.75549">
        <ele>208</ele>
        <time>2022-04-03T10:13:52.000Z</time>
      </trkpt>
      <trkpt lat="49.68351" lon="4.75558">
        <ele>208</ele>
        <time>2022-04-03T10:13:53.000Z</time>
      </trkpt>
      <trkpt lat="49.68353" lon="4.75567">
        <ele>208</ele>
        <time>2022-04-03T10:13:54.000Z</time>
      </trkpt>
      <trkpt lat="49.68355" lon="4.75576">
        <ele>208</ele>
        <time>2022-04-03T10:13:55.000Z</time>
      </trkpt>
      <trkpt lat="49.68357" lon="4.75585">
        <ele>208</ele>
        <time>2022-04-03T10:13:56.000Z</time>
      </trkpt>
      <trkpt lat="49.68359" lon="4.75594">
        <ele>208</ele>
        <time>2022-04-03T10:13:57.000Z</time>
      </trkpt>
      <trkpt lat="49.68361" lon="4.75602">
        <ele>208</ele>
        <time>2022-04-03T10:13:58.000Z</time>
      </trkpt>
      <trkpt lat="49.68364" lon="4.7561">
        <ele>208</ele>
        <time>2022-04-03T10:13:59.000Z</time>
      </trkpt>
      <trkpt lat="49.68365" lon="4.75617">
        <ele>208</ele>
        <time>2022-04-03T10:14:00.000Z</time>
      </trkpt>
      <trkpt lat="49.68368" lon="4.75625">
        <ele>208</ele>
        <time>2022-04-03T10:14:01.000Z</time>
      </trkpt>
      <trkpt lat="49.68371" lon="4.75633">
        <ele>208</ele>
        <time>2022-04-03T10:14:02.000Z</time>
      </trkpt>
      <trkpt lat="49.68373" lon="4.75641">
        <ele>208</ele>
        <time>2022-04-03T10:14:03.000Z</time>
      </trkpt>
      <trkpt lat="49.68376" lon="4.75649">
        <ele>208</ele>
        <time>2022-04-03T10:14:04.000Z</time>
      </trkpt>
      <trkpt lat="49.68379" lon="4.75657">
        <ele>208</ele>
        <time>2022-04-03T10:14:05.000Z</time>
      </trkpt>
      <trkpt lat="49.68381" lon="4.75665">
        <ele>208</ele>
        <time>2022-04-03T10:14:06.000Z</time>
      </trkpt>
      <trkpt lat="49.68384" lon="4.75674">
        <ele>208</ele>
        <time>2022-04-03T10:14:07.000Z</time>
      </trkpt>
      <trkpt lat="49.68386" lon="4.75682">
        <ele>208</ele>
        <time>2022-04-03T10:14:08.000Z</time>
      </trkpt>
      <trkpt lat="49.68388" lon="4.75691">
        <ele>208</ele>
        <time>2022-04-03T10:14:09.000Z</time>
      </trkpt>
      <trkpt lat="49.68389" lon="4.757">
        <ele>208</ele>
        <time>2022-04-03T10:14:10.000Z</time>
      </trkpt>
      <trkpt lat="49.68391" lon="4.75709">
        <ele>208</ele>
        <time>2022-04-03T10:14:11.000Z</time>
      </trkpt>
      <trkpt lat="49.68393" lon="4.75717">
        <ele>208</ele>
        <time>2022-04-03T10:14:12.000Z</time>
      </trkpt>
      <trkpt lat="49.68395" lon="4.75726">
        <ele>208</ele>
        <time>2022-04-03T10:14:13.000Z</time>
      </trkpt>
      <trkpt lat="49.68397" lon="4.75735">
        <ele>208</ele>
        <time>2022-04-03T10:14:14.000Z</time>
      </trkpt>
      <trkpt lat="49.68398" lon="4.75744">
        <ele>208</ele>
        <time>2022-04-03T10:14:15.000Z</time>
      </trkpt>
      <trkpt lat="49.684" lon="4.75752">
        <ele>208</ele>
        <time>2022-04-03T10:14:16.000Z</time>
      </trkpt>
      <trkpt lat="49.68402" lon="4.7576">
        <ele>207</ele>
        <time>2022-04-03T10:14:17.000Z</time>
      </trkpt>
      <trkpt lat="49.68404" lon="4.75767">
        <ele>207</ele>
        <time>2022-04-03T10:14:18.000Z</time>
      </trkpt>
      <trkpt lat="49.68406" lon="4.75774">
        <ele>207</ele>
        <time>2022-04-03T10:14:19.000Z</time>
      </trkpt>
      <trkpt lat="49.68408" lon="4.75782">
        <ele>207</ele>
        <time>2022-04-03T10:14:20.000Z</time>
      </trkpt>
      <trkpt lat="49.6841" lon="4.7579">
        <ele>207</ele>
        <time>2022-04-03T10:14:21.000Z</time>
      </trkpt>
      <trkpt lat="49.68411" lon="4.75798">
        <ele>207</ele>
        <time>2022-04-03T10:14:22.000Z</time>
      </trkpt>
      <trkpt lat="49.68413" lon="4.75806">
        <ele>207</ele>
        <time>2022-04-03T10:14:23.000Z</time>
      </trkpt>
      <trkpt lat="49.68414" lon="4.75814">
        <ele>207</ele>
        <time>2022-04-03T10:14:24.000Z</time>
      </trkpt>
      <trkpt lat="49.68416" lon="4.75822">
        <ele>207</ele>
        <time>2022-04-03T10:14:25.000Z</time>
      </trkpt>
      <trkpt lat="49.68418" lon="4.75829">
        <ele>207</ele>
        <time>2022-04-03T10:14:26.000Z</time>
      </trkpt>
      <trkpt lat="49.6842" lon="4.75834">
        <ele>207</ele>
        <time>2022-04-03T10:14:27.000Z</time>
      </trkpt>
      <trkpt lat="49.68421" lon="4.75837">
        <ele>207</ele>
        <time>2022-04-03T10:14:28.000Z</time>
      </trkpt>
      <trkpt lat="49.68422" lon="4.75841">
        <ele>207</ele>
        <time>2022-04-03T10:14:29.000Z</time>
      </trkpt>
      <trkpt lat="49.68423" lon="4.75844">
        <ele>207</ele>
        <time>2022-04-03T10:14:30.000Z</time>
      </trkpt>
      <trkpt lat="49.68423" lon="4.75847">
        <ele>207</ele>
        <time>2022-04-03T10:14:31.000Z</time>
      </trkpt>
      <trkpt lat="49.68424" lon="4.7585">
        <ele>207</ele>
        <time>2022-04-03T10:14:32.000Z</time>
      </trkpt>
      <trkpt lat="49.68424" lon="4.75853">
        <ele>207</ele>
        <time>2022-04-03T10:14:33.000Z</time>
      </trkpt>
      <trkpt lat="49.68426" lon="4.75858">
        <ele>207</ele>
        <time>2022-04-03T10:14:34.000Z</time>
      </trkpt>
      <trkpt lat="49.68428" lon="4.75862">
        <ele>208</ele>
        <time>2022-04-03T10:14:35.000Z</time>
      </trkpt>
      <trkpt lat="49.6843" lon="4.75868">
        <ele>208</ele>
        <time>2022-04-03T10:14:36.000Z</time>
      </trkpt>
      <trkpt lat="49.68432" lon="4.75874">
        <ele>208</ele>
        <time>2022-04-03T10:14:37.000Z</time>
      </trkpt>
      <trkpt lat="49.68433" lon="4.7588">
        <ele>208</ele>
        <time>2022-04-03T10:14:38.000Z</time>
      </trkpt>
      <trkpt lat="49.68435" lon="4.75886">
        <ele>208</ele>
        <time>2022-04-03T10:14:39.000Z</time>
      </trkpt>
      <trkpt lat="49.68436" lon="4.75893">
        <ele>207</ele>
        <time>2022-04-03T10:14:40.000Z</time>
      </trkpt>
      <trkpt lat="49.68437" lon="4.75899">
        <ele>207</ele>
        <time>2022-04-03T10:14:41.000Z</time>
      </trkpt>
      <trkpt lat="49.68439" lon="4.75905">
        <ele>207</ele>
        <time>2022-04-03T10:14:42.000Z</time>
      </trkpt>
      <trkpt lat="49.68439" lon="4.75912">
        <ele>207</ele>
        <time>2022-04-03T10:14:43.000Z</time>
      </trkpt>
      <trkpt lat="49.68441" lon="4.75918">
        <ele>207</ele>
        <time>2022-04-03T10:14:44.000Z</time>
      </trkpt>
      <trkpt lat="49.68443" lon="4.75925">
        <ele>207</ele>
        <time>2022-04-03T10:14:45.000Z</time>
      </trkpt>
      <trkpt lat="49.68445" lon="4.75933">
        <ele>207</ele>
        <time>2022-04-03T10:14:46.000Z</time>
      </trkpt>
      <trkpt lat="49.68446" lon="4.7594">
        <ele>207</ele>
        <time>2022-04-03T10:14:47.000Z</time>
      </trkpt>
      <trkpt lat="49.68448" lon="4.75947">
        <ele>207</ele>
        <time>2022-04-03T10:14:48.000Z</time>
      </trkpt>
      <trkpt lat="49.6845" lon="4.75953">
        <ele>206</ele>
        <time>2022-04-03T10:14:49.000Z</time>
      </trkpt>
      <trkpt lat="49.68452" lon="4.75961">
        <ele>206</ele>
        <time>2022-04-03T10:14:50.000Z</time>
      </trkpt>
      <trkpt lat="49.68454" lon="4.75968">
        <ele>206</ele>
        <time>2022-04-03T10:14:51.000Z</time>
      </trkpt>
      <trkpt lat="49.68455" lon="4.75975">
        <ele>206</ele>
        <time>2022-04-03T10:14:52.000Z</time>
      </trkpt>
      <trkpt lat="49.68457" lon="4.75981">
        <ele>206</ele>
        <time>2022-04-03T10:14:53.000Z</time>
      </trkpt>
      <trkpt lat="49.68458" lon="4.75986">
        <ele>206</ele>
        <time>2022-04-03T10:14:54.000Z</time>
      </trkpt>
      <trkpt lat="49.6846" lon="4.75991">
        <ele>206</ele>
        <time>2022-04-03T10:14:55.000Z</time>
      </trkpt>
      <trkpt lat="49.68461" lon="4.75997">
        <ele>206</ele>
        <time>2022-04-03T10:14:56.000Z</time>
      </trkpt>
      <trkpt lat="49.68463" lon="4.76001">
        <ele>207</ele>
        <time>2022-04-03T10:14:57.000Z</time>
      </trkpt>
      <trkpt lat="49.68465" lon="4.76005">
        <ele>207</ele>
        <time>2022-04-03T10:14:58.000Z</time>
      </trkpt>
      <trkpt lat="49.68468" lon="4.76009">
        <ele>207</ele>
        <time>2022-04-03T10:14:59.000Z</time>
      </trkpt>
      <trkpt lat="49.68471" lon="4.76014">
        <ele>206</ele>
        <time>2022-04-03T10:15:00.000Z</time>
      </trkpt>
      <trkpt lat="49.68474" lon="4.76019">
        <ele>206</ele>
        <time>2022-04-03T10:15:01.000Z</time>
      </trkpt>
      <trkpt lat="49.68476" lon="4.76026">
        <ele>206</ele>
        <time>2022-04-03T10:15:02.000Z</time>
      </trkpt>
      <trkpt lat="49.68477" lon="4.76032">
        <ele>206</ele>
        <time>2022-04-03T10:15:03.000Z</time>
      </trkpt>
      <trkpt lat="49.68479" lon="4.76038">
        <ele>207</ele>
        <time>2022-04-03T10:15:04.000Z</time>
      </trkpt>
      <trkpt lat="49.68481" lon="4.76042">
        <ele>207</ele>
        <time>2022-04-03T10:15:05.000Z</time>
      </trkpt>
      <trkpt lat="49.68483" lon="4.76048">
        <ele>207</ele>
        <time>2022-04-03T10:15:06.000Z</time>
      </trkpt>
      <trkpt lat="49.68486" lon="4.76053">
        <ele>207</ele>
        <time>2022-04-03T10:15:07.000Z</time>
      </trkpt>
      <trkpt lat="49.6849" lon="4.76059">
        <ele>207</ele>
        <time>2022-04-03T10:15:08.000Z</time>
      </trkpt>
      <trkpt lat="49.68495" lon="4.76065">
        <ele>207</ele>
        <time>2022-04-03T10:15:09.000Z</time>
      </trkpt>
      <trkpt lat="49.68499" lon="4.76071">
        <ele>207</ele>
        <time>2022-04-03T10:15:10.000Z</time>
      </trkpt>
      <trkpt lat="49.68503" lon="4.76078">
        <ele>206</ele>
        <time>2022-04-03T10:15:11.000Z</time>
      </trkpt>
      <trkpt lat="49.68506" lon="4.76085">
        <ele>206</ele>
        <time>2022-04-03T10:15:12.000Z</time>
      </trkpt>
      <trkpt lat="49.68509" lon="4.7609">
        <ele>206</ele>
        <time>2022-04-03T10:15:13.000Z</time>
      </trkpt>
      <trkpt lat="49.68511" lon="4.76094">
        <ele>206</ele>
        <time>2022-04-03T10:15:14.000Z</time>
      </trkpt>
      <trkpt lat="49.68514" lon="4.76099">
        <ele>205</ele>
        <time>2022-04-03T10:15:15.000Z</time>
      </trkpt>
      <trkpt lat="49.68517" lon="4.76103">
        <ele>205</ele>
        <time>2022-04-03T10:15:16.000Z</time>
      </trkpt>
      <trkpt lat="49.68518" lon="4.76108">
        <ele>205</ele>
        <time>2022-04-03T10:15:17.000Z</time>
      </trkpt>
      <trkpt lat="49.68519" lon="4.76113">
        <ele>204</ele>
        <time>2022-04-03T10:15:18.000Z</time>
      </trkpt>
      <trkpt lat="49.6852" lon="4.76118">
        <ele>204</ele>
        <time>2022-04-03T10:15:19.000Z</time>
      </trkpt>
      <trkpt lat="49.6852" lon="4.76123">
        <ele>204</ele>
        <time>2022-04-03T10:15:20.000Z</time>
      </trkpt>
      <trkpt lat="49.68522" lon="4.76129">
        <ele>204</ele>
        <time>2022-04-03T10:15:21.000Z</time>
      </trkpt>
      <trkpt lat="49.68524" lon="4.76135">
        <ele>203</ele>
        <time>2022-04-03T10:15:22.000Z</time>
      </trkpt>
      <trkpt lat="49.68526" lon="4.76142">
        <ele>203</ele>
        <time>2022-04-03T10:15:23.000Z</time>
      </trkpt>
      <trkpt lat="49.68528" lon="4.76149">
        <ele>203</ele>
        <time>2022-04-03T10:15:24.000Z</time>
      </trkpt>
      <trkpt lat="49.6853" lon="4.76156">
        <ele>203</ele>
        <time>2022-04-03T10:15:25.000Z</time>
      </trkpt>
      <trkpt lat="49.68532" lon="4.76163">
        <ele>203</ele>
        <time>2022-04-03T10:15:26.000Z</time>
      </trkpt>
      <trkpt lat="49.68535" lon="4.76171">
        <ele>203</ele>
        <time>2022-04-03T10:15:27.000Z</time>
      </trkpt>
      <trkpt lat="49.68538" lon="4.76179">
        <ele>202</ele>
        <time>2022-04-03T10:15:28.000Z</time>
      </trkpt>
      <trkpt lat="49.68541" lon="4.76187">
        <ele>202</ele>
        <time>2022-04-03T10:15:29.000Z</time>
      </trkpt>
      <trkpt lat="49.68544" lon="4.76195">
        <ele>202</ele>
        <time>2022-04-03T10:15:30.000Z</time>
      </trkpt>
      <trkpt lat="49.68546" lon="4.76202">
        <ele>202</ele>
        <time>2022-04-03T10:15:31.000Z</time>
      </trkpt>
      <trkpt lat="49.68547" lon="4.76209">
        <ele>202</ele>
        <time>2022-04-03T10:15:32.000Z</time>
      </trkpt>
      <trkpt lat="49.68548" lon="4.76216">
        <ele>202</ele>
        <time>2022-04-03T10:15:33.000Z</time>
      </trkpt>
      <trkpt lat="49.68549" lon="4.76224">
        <ele>202</ele>
        <time>2022-04-03T10:15:34.000Z</time>
      </trkpt>
      <trkpt lat="49.68549" lon="4.7623">
        <ele>202</ele>
        <time>2022-04-03T10:15:35.000Z</time>
      </trkpt>
      <trkpt lat="49.68548" lon="4.76236">
        <ele>202</ele>
        <time>2022-04-03T10:15:36.000Z</time>
      </trkpt>
      <trkpt lat="49.68548" lon="4.76241">
        <ele>202</ele>
        <time>2022-04-03T10:15:37.000Z</time>
      </trkpt>
      <trkpt lat="49.68547" lon="4.76245">
        <ele>202</ele>
        <time>2022-04-03T10:15:38.000Z</time>
      </trkpt>
      <trkpt lat="49.68547" lon="4.76249">
        <ele>201</ele>
        <time>2022-04-03T10:15:39.000Z</time>
      </trkpt>
      <trkpt lat="49.68546" lon="4.76253">
        <ele>201</ele>
        <time>2022-04-03T10:15:40.000Z</time>
      </trkpt>
      <trkpt lat="49.68546" lon="4.76256">
        <ele>201</ele>
        <time>2022-04-03T10:15:41.000Z</time>
      </trkpt>
      <trkpt lat="49.68545" lon="4.7626">
        <ele>201</ele>
        <time>2022-04-03T10:15:42.000Z</time>
      </trkpt>
      <trkpt lat="49.68544" lon="4.76264">
        <ele>201</ele>
        <time>2022-04-03T10:15:43.000Z</time>
      </trkpt>
      <trkpt lat="49.68543" lon="4.76267">
        <ele>201</ele>
        <time>2022-04-03T10:15:44.000Z</time>
      </trkpt>
      <trkpt lat="49.68544" lon="4.76271">
        <ele>201</ele>
        <time>2022-04-03T10:15:45.000Z</time>
      </trkpt>
      <trkpt lat="49.68544" lon="4.76274">
        <ele>201</ele>
        <time>2022-04-03T10:15:46.000Z</time>
      </trkpt>
      <trkpt lat="49.68546" lon="4.76277">
        <ele>200</ele>
        <time>2022-04-03T10:15:47.000Z</time>
      </trkpt>
      <trkpt lat="49.68548" lon="4.7628">
        <ele>200</ele>
        <time>2022-04-03T10:15:48.000Z</time>
      </trkpt>
      <trkpt lat="49.68551" lon="4.76285">
        <ele>200</ele>
        <time>2022-04-03T10:15:49.000Z</time>
      </trkpt>
      <trkpt lat="49.68554" lon="4.76291">
        <ele>200</ele>
        <time>2022-04-03T10:15:50.000Z</time>
      </trkpt>
      <trkpt lat="49.68555" lon="4.76296">
        <ele>200</ele>
        <time>2022-04-03T10:15:51.000Z</time>
      </trkpt>
      <trkpt lat="49.68556" lon="4.76302">
        <ele>200</ele>
        <time>2022-04-03T10:15:52.000Z</time>
      </trkpt>
      <trkpt lat="49.68556" lon="4.76308">
        <ele>200</ele>
        <time>2022-04-03T10:15:53.000Z</time>
      </trkpt>
      <trkpt lat="49.68556" lon="4.76313">
        <ele>199</ele>
        <time>2022-04-03T10:15:54.000Z</time>
      </trkpt>
      <trkpt lat="49.68556" lon="4.76316">
        <ele>199</ele>
        <time>2022-04-03T10:15:55.000Z</time>
      </trkpt>
      <trkpt lat="49.68555" lon="4.76318">
        <ele>199</ele>
        <time>2022-04-03T10:15:56.000Z</time>
      </trkpt>
      <trkpt lat="49.68554" lon="4.76322">
        <ele>199</ele>
        <time>2022-04-03T10:15:57.000Z</time>
      </trkpt>
      <trkpt lat="49.68554" lon="4.76325">
        <ele>199</ele>
        <time>2022-04-03T10:15:58.000Z</time>
      </trkpt>
      <trkpt lat="49.68554" lon="4.76329">
        <ele>199</ele>
        <time>2022-04-03T10:15:59.000Z</time>
      </trkpt>
      <trkpt lat="49.68554" lon="4.76333">
        <ele>199</ele>
        <time>2022-04-03T10:16:00.000Z</time>
      </trkpt>
      <trkpt lat="49.68555" lon="4.76337">
        <ele>199</ele>
        <time>2022-04-03T10:16:01.000Z</time>
      </trkpt>
      <trkpt lat="49.68555" lon="4.76342">
        <ele>199</ele>
        <time>2022-04-03T10:16:02.000Z</time>
      </trkpt>
      <trkpt lat="49.68556" lon="4.76348">
        <ele>199</ele>
        <time>2022-04-03T10:16:03.000Z</time>
      </trkpt>
      <trkpt lat="49.68557" lon="4.76354">
        <ele>199</ele>
        <time>2022-04-03T10:16:04.000Z</time>
      </trkpt>
      <trkpt lat="49.68557" lon="4.7636">
        <ele>199</ele>
        <time>2022-04-03T10:16:05.000Z</time>
      </trkpt>
      <trkpt lat="49.68557" lon="4.76366">
        <ele>199</ele>
        <time>2022-04-03T10:16:06.000Z</time>
      </trkpt>
      <trkpt lat="49.68556" lon="4.76371">
        <ele>199</ele>
        <time>2022-04-03T10:16:07.000Z</time>
      </trkpt>
      <trkpt lat="49.68556" lon="4.76378">
        <ele>199</ele>
        <time>2022-04-03T10:16:08.000Z</time>
      </trkpt>
      <trkpt lat="49.68554" lon="4.76383">
        <ele>199</ele>
        <time>2022-04-03T10:16:09.000Z</time>
      </trkpt>
      <trkpt lat="49.68553" lon="4.76388">
        <ele>199</ele>
        <time>2022-04-03T10:16:10.000Z</time>
      </trkpt>
      <trkpt lat="49.68552" lon="4.76392">
        <ele>199</ele>
        <time>2022-04-03T10:16:11.000Z</time>
      </trkpt>
      <trkpt lat="49.68551" lon="4.76397">
        <ele>199</ele>
        <time>2022-04-03T10:16:12.000Z</time>
      </trkpt>
      <trkpt lat="49.6855" lon="4.76402">
        <ele>199</ele>
        <time>2022-04-03T10:16:13.000Z</time>
      </trkpt>
      <trkpt lat="49.68549" lon="4.76406">
        <ele>199</ele>
        <time>2022-04-03T10:16:14.000Z</time>
      </trkpt>
      <trkpt lat="49.68548" lon="4.76411">
        <ele>199</ele>
        <time>2022-04-03T10:16:15.000Z</time>
      </trkpt>
      <trkpt lat="49.68547" lon="4.76415">
        <ele>199</ele>
        <time>2022-04-03T10:16:16.000Z</time>
      </trkpt>
      <trkpt lat="49.68545" lon="4.76419">
        <ele>199</ele>
        <time>2022-04-03T10:16:17.000Z</time>
      </trkpt>
      <trkpt lat="49.68542" lon="4.76422">
        <ele>198</ele>
        <time>2022-04-03T10:16:18.000Z</time>
      </trkpt>
      <trkpt lat="49.6854" lon="4.76426">
        <ele>198</ele>
        <time>2022-04-03T10:16:19.000Z</time>
      </trkpt>
      <trkpt lat="49.68538" lon="4.76429">
        <ele>198</ele>
        <time>2022-04-03T10:16:20.000Z</time>
      </trkpt>
      <trkpt lat="49.68536" lon="4.76433">
        <ele>198</ele>
        <time>2022-04-03T10:16:21.000Z</time>
      </trkpt>
      <trkpt lat="49.68533" lon="4.76438">
        <ele>198</ele>
        <time>2022-04-03T10:16:22.000Z</time>
      </trkpt>
      <trkpt lat="49.6853" lon="4.76442">
        <ele>197</ele>
        <time>2022-04-03T10:16:23.000Z</time>
      </trkpt>
      <trkpt lat="49.68526" lon="4.76446">
        <ele>197</ele>
        <time>2022-04-03T10:16:24.000Z</time>
      </trkpt>
      <trkpt lat="49.6852" lon="4.76449">
        <ele>197</ele>
        <time>2022-04-03T10:16:25.000Z</time>
      </trkpt>
      <trkpt lat="49.68513" lon="4.76451">
        <ele>197</ele>
        <time>2022-04-03T10:16:26.000Z</time>
      </trkpt>
      <trkpt lat="49.68508" lon="4.76451">
        <ele>196</ele>
        <time>2022-04-03T10:16:27.000Z</time>
      </trkpt>
      <trkpt lat="49.68504" lon="4.76452">
        <ele>196</ele>
        <time>2022-04-03T10:16:28.000Z</time>
      </trkpt>
      <trkpt lat="49.68498" lon="4.76454">
        <ele>196</ele>
        <time>2022-04-03T10:16:29.000Z</time>
      </trkpt>
      <trkpt lat="49.68492" lon="4.76455">
        <ele>196</ele>
        <time>2022-04-03T10:16:30.000Z</time>
      </trkpt>
      <trkpt lat="49.68484" lon="4.76456">
        <ele>195</ele>
        <time>2022-04-03T10:16:31.000Z</time>
      </trkpt>
      <trkpt lat="49.68477" lon="4.76456">
        <ele>195</ele>
        <time>2022-04-03T10:16:32.000Z</time>
      </trkpt>
      <trkpt lat="49.68469" lon="4.76457">
        <ele>194</ele>
        <time>2022-04-03T10:16:33.000Z</time>
      </trkpt>
      <trkpt lat="49.68461" lon="4.76457">
        <ele>194</ele>
        <time>2022-04-03T10:16:34.000Z</time>
      </trkpt>
      <trkpt lat="49.68453" lon="4.76457">
        <ele>193</ele>
        <time>2022-04-03T10:16:35.000Z</time>
      </trkpt>
      <trkpt lat="49.68446" lon="4.76456">
        <ele>193</ele>
        <time>2022-04-03T10:16:36.000Z</time>
      </trkpt>
      <trkpt lat="49.68439" lon="4.76454">
        <ele>192</ele>
        <time>2022-04-03T10:16:37.000Z</time>
      </trkpt>
      <trkpt lat="49.68432" lon="4.76454">
        <ele>192</ele>
        <time>2022-04-03T10:16:38.000Z</time>
      </trkpt>
      <trkpt lat="49.68425" lon="4.76455">
        <ele>191</ele>
        <time>2022-04-03T10:16:39.000Z</time>
      </trkpt>
      <trkpt lat="49.68419" lon="4.76457">
        <ele>191</ele>
        <time>2022-04-03T10:16:40.000Z</time>
      </trkpt>
      <trkpt lat="49.68414" lon="4.76461">
        <ele>190</ele>
        <time>2022-04-03T10:16:41.000Z</time>
      </trkpt>
      <trkpt lat="49.6841" lon="4.76467">
        <ele>190</ele>
        <time>2022-04-03T10:16:42.000Z</time>
      </trkpt>
      <trkpt lat="49.68407" lon="4.76474">
        <ele>189</ele>
        <time>2022-04-03T10:16:43.000Z</time>
      </trkpt>
      <trkpt lat="49.68406" lon="4.76483">
        <ele>188</ele>
        <time>2022-04-03T10:16:44.000Z</time>
      </trkpt>
      <trkpt lat="49.68404" lon="4.76494">
        <ele>188</ele>
        <time>2022-04-03T10:16:45.000Z</time>
      </trkpt>
      <trkpt lat="49.68402" lon="4.76505">
        <ele>187</ele>
        <time>2022-04-03T10:16:46.000Z</time>
      </trkpt>
      <trkpt lat="49.68399" lon="4.76517">
        <ele>186</ele>
        <time>2022-04-03T10:16:47.000Z</time>
      </trkpt>
      <trkpt lat="49.68397" lon="4.76528">
        <ele>185</ele>
        <time>2022-04-03T10:16:48.000Z</time>
      </trkpt>
      <trkpt lat="49.68397" lon="4.76537">
        <ele>184</ele>
        <time>2022-04-03T10:16:49.000Z</time>
      </trkpt>
      <trkpt lat="49.68396" lon="4.76545">
        <ele>183</ele>
        <time>2022-04-03T10:16:50.000Z</time>
      </trkpt>
      <trkpt lat="49.68394" lon="4.76553">
        <ele>183</ele>
        <time>2022-04-03T10:16:51.000Z</time>
      </trkpt>
      <trkpt lat="49.68392" lon="4.76562">
        <ele>182</ele>
        <time>2022-04-03T10:16:52.000Z</time>
      </trkpt>
      <trkpt lat="49.68389" lon="4.76571">
        <ele>181</ele>
        <time>2022-04-03T10:16:53.000Z</time>
      </trkpt>
      <trkpt lat="49.68386" lon="4.76582">
        <ele>180</ele>
        <time>2022-04-03T10:16:54.000Z</time>
      </trkpt>
      <trkpt lat="49.68383" lon="4.76593">
        <ele>179</ele>
        <time>2022-04-03T10:16:55.000Z</time>
      </trkpt>
      <trkpt lat="49.68379" lon="4.76605">
        <ele>178</ele>
        <time>2022-04-03T10:16:56.000Z</time>
      </trkpt>
      <trkpt lat="49.68376" lon="4.76617">
        <ele>177</ele>
        <time>2022-04-03T10:16:57.000Z</time>
      </trkpt>
      <trkpt lat="49.68372" lon="4.76629">
        <ele>176</ele>
        <time>2022-04-03T10:16:58.000Z</time>
      </trkpt>
      <trkpt lat="49.68368" lon="4.76642">
        <ele>174</ele>
        <time>2022-04-03T10:16:59.000Z</time>
      </trkpt>
      <trkpt lat="49.68364" lon="4.76655">
        <ele>173</ele>
        <time>2022-04-03T10:17:00.000Z</time>
      </trkpt>
      <trkpt lat="49.68361" lon="4.76667">
        <ele>172</ele>
        <time>2022-04-03T10:17:01.000Z</time>
      </trkpt>
      <trkpt lat="49.68358" lon="4.76677">
        <ele>171</ele>
        <time>2022-04-03T10:17:02.000Z</time>
      </trkpt>
      <trkpt lat="49.68356" lon="4.76685">
        <ele>170</ele>
        <time>2022-04-03T10:17:03.000Z</time>
      </trkpt>
      <trkpt lat="49.68355" lon="4.76691">
        <ele>169</ele>
        <time>2022-04-03T10:17:04.000Z</time>
      </trkpt>
      <trkpt lat="49.68355" lon="4.76696">
        <ele>168</ele>
        <time>2022-04-03T10:17:05.000Z</time>
      </trkpt>
      <trkpt lat="49.68356" lon="4.76701">
        <ele>167</ele>
        <time>2022-04-03T10:17:06.000Z</time>
      </trkpt>
      <trkpt lat="49.68358" lon="4.76708">
        <ele>167</ele>
        <time>2022-04-03T10:17:07.000Z</time>
      </trkpt>
      <trkpt lat="49.68361" lon="4.76714">
        <ele>166</ele>
        <time>2022-04-03T10:17:08.000Z</time>
      </trkpt>
      <trkpt lat="49.68364" lon="4.76721">
        <ele>166</ele>
        <time>2022-04-03T10:17:09.000Z</time>
      </trkpt>
      <trkpt lat="49.68368" lon="4.76727">
        <ele>165</ele>
        <time>2022-04-03T10:17:10.000Z</time>
      </trkpt>
      <trkpt lat="49.68371" lon="4.76734">
        <ele>165</ele>
        <time>2022-04-03T10:17:11.000Z</time>
      </trkpt>
      <trkpt lat="49.68374" lon="4.76741">
        <ele>164</ele>
        <time>2022-04-03T10:17:12.000Z</time>
      </trkpt>
      <trkpt lat="49.68378" lon="4.76748">
        <ele>164</ele>
        <time>2022-04-03T10:17:13.000Z</time>
      </trkpt>
      <trkpt lat="49.68382" lon="4.76755">
        <ele>163</ele>
        <time>2022-04-03T10:17:14.000Z</time>
      </trkpt>
      <trkpt lat="49.68385" lon="4.76762">
        <ele>163</ele>
        <time>2022-04-03T10:17:15.000Z</time>
      </trkpt>
      <trkpt lat="49.68388" lon="4.76768">
        <ele>162</ele>
        <time>2022-04-03T10:17:16.000Z</time>
      </trkpt>
      <trkpt lat="49.68391" lon="4.76774">
        <ele>162</ele>
        <time>2022-04-03T10:17:17.000Z</time>
      </trkpt>
      <trkpt lat="49.68395" lon="4.76781">
        <ele>162</ele>
        <time>2022-04-03T10:17:18.000Z</time>
      </trkpt>
      <trkpt lat="49.68397" lon="4.76787">
        <ele>161</ele>
        <time>2022-04-03T10:17:19.000Z</time>
      </trkpt>
      <trkpt lat="49.684" lon="4.76793">
        <ele>161</ele>
        <time>2022-04-03T10:17:20.000Z</time>
      </trkpt>
      <trkpt lat="49.68403" lon="4.768">
        <ele>161</ele>
        <time>2022-04-03T10:17:21.000Z</time>
      </trkpt>
      <trkpt lat="49.68407" lon="4.76805">
        <ele>160</ele>
        <time>2022-04-03T10:17:22.000Z</time>
      </trkpt>
      <trkpt lat="49.68412" lon="4.7681">
        <ele>160</ele>
        <time>2022-04-03T10:17:23.000Z</time>
      </trkpt>
      <trkpt lat="49.68417" lon="4.76815">
        <ele>160</ele>
        <time>2022-04-03T10:17:24.000Z</time>
      </trkpt>
      <trkpt lat="49.68422" lon="4.76818">
        <ele>159</ele>
        <time>2022-04-03T10:17:25.000Z</time>
      </trkpt>
      <trkpt lat="49.68427" lon="4.76822">
        <ele>159</ele>
        <time>2022-04-03T10:17:26.000Z</time>
      </trkpt>
      <trkpt lat="49.68433" lon="4.76827">
        <ele>159</ele>
        <time>2022-04-03T10:17:27.000Z</time>
      </trkpt>
      <trkpt lat="49.68438" lon="4.7683">
        <ele>159</ele>
        <time>2022-04-03T10:17:28.000Z</time>
      </trkpt>
      <trkpt lat="49.68443" lon="4.76834">
        <ele>158</ele>
        <time>2022-04-03T10:17:29.000Z</time>
      </trkpt>
      <trkpt lat="49.68448" lon="4.76837">
        <ele>158</ele>
        <time>2022-04-03T10:17:30.000Z</time>
      </trkpt>
      <trkpt lat="49.68453" lon="4.76842">
        <ele>158</ele>
        <time>2022-04-03T10:17:31.000Z</time>
      </trkpt>
      <trkpt lat="49.68458" lon="4.76845">
        <ele>158</ele>
        <time>2022-04-03T10:17:32.000Z</time>
      </trkpt>
      <trkpt lat="49.68461" lon="4.76849">
        <ele>158</ele>
        <time>2022-04-03T10:17:33.000Z</time>
      </trkpt>
      <trkpt lat="49.68463" lon="4.76853">
        <ele>157</ele>
        <time>2022-04-03T10:17:34.000Z</time>
      </trkpt>
      <trkpt lat="49.68463" lon="4.76858">
        <ele>157</ele>
        <time>2022-04-03T10:17:35.000Z</time>
      </trkpt>
      <trkpt lat="49.68462" lon="4.76862">
        <ele>157</ele>
        <time>2022-04-03T10:17:36.000Z</time>
      </trkpt>
      <trkpt lat="49.6846" lon="4.76867">
        <ele>157</ele>
        <time>2022-04-03T10:17:37.000Z</time>
      </trkpt>
      <trkpt lat="49.68459" lon="4.76872">
        <ele>157</ele>
        <time>2022-04-03T10:17:38.000Z</time>
      </trkpt>
      <trkpt lat="49.68459" lon="4.76878">
        <ele>156</ele>
        <time>2022-04-03T10:17:39.000Z</time>
      </trkpt>
      <trkpt lat="49.68459" lon="4.76885">
        <ele>156</ele>
        <time>2022-04-03T10:17:40.000Z</time>
      </trkpt>
      <trkpt lat="49.6846" lon="4.76891">
        <ele>156</ele>
        <time>2022-04-03T10:17:41.000Z</time>
      </trkpt>
      <trkpt lat="49.68462" lon="4.76896">
        <ele>156</ele>
        <time>2022-04-03T10:17:42.000Z</time>
      </trkpt>
      <trkpt lat="49.68465" lon="4.76901">
        <ele>156</ele>
        <time>2022-04-03T10:17:43.000Z</time>
      </trkpt>
      <trkpt lat="49.68468" lon="4.76907">
        <ele>157</ele>
        <time>2022-04-03T10:17:44.000Z</time>
      </trkpt>
      <trkpt lat="49.68471" lon="4.76912">
        <ele>157</ele>
        <time>2022-04-03T10:17:45.000Z</time>
      </trkpt>
      <trkpt lat="49.68474" lon="4.76918">
        <ele>157</ele>
        <time>2022-04-03T10:17:46.000Z</time>
      </trkpt>
      <trkpt lat="49.68477" lon="4.76923">
        <ele>157</ele>
        <time>2022-04-03T10:17:47.000Z</time>
      </trkpt>
      <trkpt lat="49.6848" lon="4.76928">
        <ele>157</ele>
        <time>2022-04-03T10:17:48.000Z</time>
      </trkpt>
      <trkpt lat="49.68483" lon="4.76931">
        <ele>157</ele>
        <time>2022-04-03T10:17:49.000Z</time>
      </trkpt>
      <trkpt lat="49.68485" lon="4.76935">
        <ele>157</ele>
        <time>2022-04-03T10:17:50.000Z</time>
      </trkpt>
      <trkpt lat="49.68488" lon="4.76939">
        <ele>157</ele>
        <time>2022-04-03T10:17:51.000Z</time>
      </trkpt>
      <trkpt lat="49.6849" lon="4.76943">
        <ele>158</ele>
        <time>2022-04-03T10:17:52.000Z</time>
      </trkpt>
      <trkpt lat="49.68493" lon="4.76947">
        <ele>158</ele>
        <time>2022-04-03T10:17:53.000Z</time>
      </trkpt>
      <trkpt lat="49.68495" lon="4.7695">
        <ele>158</ele>
        <time>2022-04-03T10:17:54.000Z</time>
      </trkpt>
      <trkpt lat="49.68498" lon="4.76955">
        <ele>158</ele>
        <time>2022-04-03T10:17:55.000Z</time>
      </trkpt>
      <trkpt lat="49.685" lon="4.76959">
        <ele>158</ele>
        <time>2022-04-03T10:17:56.000Z</time>
      </trkpt>
      <trkpt lat="49.68503" lon="4.76963">
        <ele>158</ele>
        <time>2022-04-03T10:17:57.000Z</time>
      </trkpt>
      <trkpt lat="49.68506" lon="4.76967">
        <ele>158</ele>
        <time>2022-04-03T10:17:58.000Z</time>
      </trkpt>
      <trkpt lat="49.6851" lon="4.7697">
        <ele>158</ele>
        <time>2022-04-03T10:17:59.000Z</time>
      </trkpt>
      <trkpt lat="49.68514" lon="4.76973">
        <ele>158</ele>
        <time>2022-04-03T10:18:00.000Z</time>
      </trkpt>
      <trkpt lat="49.68518" lon="4.76976">
        <ele>158</ele>
        <time>2022-04-03T10:18:01.000Z</time>
      </trkpt>
      <trkpt lat="49.68522" lon="4.76979">
        <ele>159</ele>
        <time>2022-04-03T10:18:02.000Z</time>
      </trkpt>
      <trkpt lat="49.68527" lon="4.76981">
        <ele>159</ele>
        <time>2022-04-03T10:18:03.000Z</time>
      </trkpt>
      <trkpt lat="49.68531" lon="4.76984">
        <ele>159</ele>
        <time>2022-04-03T10:18:04.000Z</time>
      </trkpt>
      <trkpt lat="49.68535" lon="4.76986">
        <ele>159</ele>
        <time>2022-04-03T10:18:05.000Z</time>
      </trkpt>
      <trkpt lat="49.6854" lon="4.7699">
        <ele>159</ele>
        <time>2022-04-03T10:18:06.000Z</time>
      </trkpt>
      <trkpt lat="49.68544" lon="4.76993">
        <ele>159</ele>
        <time>2022-04-03T10:18:07.000Z</time>
      </trkpt>
      <trkpt lat="49.68548" lon="4.76996">
        <ele>160</ele>
        <time>2022-04-03T10:18:08.000Z</time>
      </trkpt>
      <trkpt lat="49.68553" lon="4.76999">
        <ele>160</ele>
        <time>2022-04-03T10:18:09.000Z</time>
      </trkpt>
      <trkpt lat="49.68557" lon="4.77003">
        <ele>160</ele>
        <time>2022-04-03T10:18:10.000Z</time>
      </trkpt>
      <trkpt lat="49.68562" lon="4.77007">
        <ele>160</ele>
        <time>2022-04-03T10:18:11.000Z</time>
      </trkpt>
      <trkpt lat="49.68566" lon="4.7701">
        <ele>160</ele>
        <time>2022-04-03T10:18:12.000Z</time>
      </trkpt>
      <trkpt lat="49.6857" lon="4.77014">
        <ele>160</ele>
        <time>2022-04-03T10:18:13.000Z</time>
      </trkpt>
      <trkpt lat="49.68574" lon="4.77018">
        <ele>160</ele>
        <time>2022-04-03T10:18:14.000Z</time>
      </trkpt>
      <trkpt lat="49.68579" lon="4.77022">
        <ele>160</ele>
        <time>2022-04-03T10:18:15.000Z</time>
      </trkpt>
      <trkpt lat="49.68583" lon="4.77025">
        <ele>160</ele>
        <time>2022-04-03T10:18:16.000Z</time>
      </trkpt>
      <trkpt lat="49.68588" lon="4.77029">
        <ele>160</ele>
        <time>2022-04-03T10:18:17.000Z</time>
      </trkpt>
      <trkpt lat="49.68592" lon="4.77032">
        <ele>160</ele>
        <time>2022-04-03T10:18:18.000Z</time>
      </trkpt>
      <trkpt lat="49.68597" lon="4.77036">
        <ele>160</ele>
        <time>2022-04-03T10:18:19.000Z</time>
      </trkpt>
      <trkpt lat="49.68601" lon="4.7704">
        <ele>160</ele>
        <time>2022-04-03T10:18:20.000Z</time>
      </trkpt>
      <trkpt lat="49.68606" lon="4.77044">
        <ele>160</ele>
        <time>2022-04-03T10:18:21.000Z</time>
      </trkpt>
      <trkpt lat="49.6861" lon="4.7705">
        <ele>160</ele>
        <time>2022-04-03T10:18:22.000Z</time>
      </trkpt>
      <trkpt lat="49.68614" lon="4.77055">
        <ele>160</ele>
        <time>2022-04-03T10:18:23.000Z</time>
      </trkpt>
      <trkpt lat="49.68618" lon="4.7706">
        <ele>159</ele>
        <time>2022-04-03T10:18:24.000Z</time>
      </trkpt>
      <trkpt lat="49.68622" lon="4.77066">
        <ele>159</ele>
        <time>2022-04-03T10:18:25.000Z</time>
      </trkpt>
      <trkpt lat="49.68626" lon="4.77073">
        <ele>159</ele>
        <time>2022-04-03T10:18:26.000Z</time>
      </trkpt>
      <trkpt lat="49.6863" lon="4.7708">
        <ele>159</ele>
        <time>2022-04-03T10:18:27.000Z</time>
      </trkpt>
      <trkpt lat="49.68635" lon="4.77086">
        <ele>158</ele>
        <time>2022-04-03T10:18:28.000Z</time>
      </trkpt>
      <trkpt lat="49.6864" lon="4.77093">
        <ele>158</ele>
        <time>2022-04-03T10:18:29.000Z</time>
      </trkpt>
      <trkpt lat="49.68645" lon="4.77101">
        <ele>158</ele>
        <time>2022-04-03T10:18:30.000Z</time>
      </trkpt>
      <trkpt lat="49.6865" lon="4.77109">
        <ele>158</ele>
        <time>2022-04-03T10:18:31.000Z</time>
      </trkpt>
      <trkpt lat="49.68654" lon="4.77116">
        <ele>158</ele>
        <time>2022-04-03T10:18:32.000Z</time>
      </trkpt>
      <trkpt lat="49.6866" lon="4.77122">
        <ele>158</ele>
        <time>2022-04-03T10:18:33.000Z</time>
      </trkpt>
      <trkpt lat="49.68667" lon="4.77127">
        <ele>158</ele>
        <time>2022-04-03T10:18:34.000Z</time>
      </trkpt>
      <trkpt lat="49.68674" lon="4.77131">
        <ele>158</ele>
        <time>2022-04-03T10:18:35.000Z</time>
      </trkpt>
      <trkpt lat="49.68681" lon="4.77131">
        <ele>158</ele>
        <time>2022-04-03T10:18:36.000Z</time>
      </trkpt>
      <trkpt lat="49.68687" lon="4.77129">
        <ele>158</ele>
        <time>2022-04-03T10:18:37.000Z</time>
      </trkpt>
      <trkpt lat="49.68691" lon="4.77124">
        <ele>157</ele>
        <time>2022-04-03T10:18:38.000Z</time>
      </trkpt>
      <trkpt lat="49.68696" lon="4.77119">
        <ele>157</ele>
        <time>2022-04-03T10:18:39.000Z</time>
      </trkpt>
      <trkpt lat="49.68699" lon="4.77113">
        <ele>157</ele>
        <time>2022-04-03T10:18:40.000Z</time>
      </trkpt>
      <trkpt lat="49.68703" lon="4.77106">
        <ele>156</ele>
        <time>2022-04-03T10:18:41.000Z</time>
      </trkpt>
      <trkpt lat="49.68707" lon="4.771">
        <ele>156</ele>
        <time>2022-04-03T10:18:42.000Z</time>
      </trkpt>
      <trkpt lat="49.68712" lon="4.77093">
        <ele>156</ele>
        <time>2022-04-03T10:18:43.000Z</time>
      </trkpt>
      <trkpt lat="49.68716" lon="4.77087">
        <ele>156</ele>
        <time>2022-04-03T10:18:44.000Z</time>
      </trkpt>
      <trkpt lat="49.68721" lon="4.7708">
        <ele>156</ele>
        <time>2022-04-03T10:18:45.000Z</time>
      </trkpt>
      <trkpt lat="49.68726" lon="4.77073">
        <ele>155</ele>
        <time>2022-04-03T10:18:46.000Z</time>
      </trkpt>
      <trkpt lat="49.6873" lon="4.77067">
        <ele>155</ele>
        <time>2022-04-03T10:18:47.000Z</time>
      </trkpt>
      <trkpt lat="49.68735" lon="4.7706">
        <ele>155</ele>
        <time>2022-04-03T10:18:48.000Z</time>
      </trkpt>
      <trkpt lat="49.68739" lon="4.77053">
        <ele>155</ele>
        <time>2022-04-03T10:18:49.000Z</time>
      </trkpt>
      <trkpt lat="49.68742" lon="4.77047">
        <ele>155</ele>
        <time>2022-04-03T10:18:50.000Z</time>
      </trkpt>
      <trkpt lat="49.68746" lon="4.77041">
        <ele>155</ele>
        <time>2022-04-03T10:18:51.000Z</time>
      </trkpt>
      <trkpt lat="49.6875" lon="4.77036">
        <ele>155</ele>
        <time>2022-04-03T10:18:52.000Z</time>
      </trkpt>
      <trkpt lat="49.68754" lon="4.77035">
        <ele>155</ele>
        <time>2022-04-03T10:18:53.000Z</time>
      </trkpt>
      <trkpt lat="49.68759" lon="4.77036">
        <ele>155</ele>
        <time>2022-04-03T10:18:54.000Z</time>
      </trkpt>
      <trkpt lat="49.68764" lon="4.77038">
        <ele>155</ele>
        <time>2022-04-03T10:18:55.000Z</time>
      </trkpt>
      <trkpt lat="49.68769" lon="4.77039">
        <ele>155</ele>
        <time>2022-04-03T10:18:56.000Z</time>
      </trkpt>
      <trkpt lat="49.68775" lon="4.77041">
        <ele>155</ele>
        <time>2022-04-03T10:18:57.000Z</time>
      </trkpt>
      <trkpt lat="49.6878" lon="4.77042">
        <ele>155</ele>
        <time>2022-04-03T10:18:58.000Z</time>
      </trkpt>
      <trkpt lat="49.68785" lon="4.77043">
        <ele>155</ele>
        <time>2022-04-03T10:18:59.000Z</time>
      </trkpt>
      <trkpt lat="49.6879" lon="4.77045">
        <ele>155</ele>
        <time>2022-04-03T10:19:00.000Z</time>
      </trkpt>
      <trkpt lat="49.68795" lon="4.77048">
        <ele>155</ele>
        <time>2022-04-03T10:19:01.000Z</time>
      </trkpt>
      <trkpt lat="49.688" lon="4.77049">
        <ele>155</ele>
        <time>2022-04-03T10:19:02.000Z</time>
      </trkpt>
      <trkpt lat="49.68805" lon="4.7705">
        <ele>155</ele>
        <time>2022-04-03T10:19:03.000Z</time>
      </trkpt>
      <trkpt lat="49.6881" lon="4.77051">
        <ele>155</ele>
        <time>2022-04-03T10:19:04.000Z</time>
      </trkpt>
      <trkpt lat="49.68816" lon="4.77052">
        <ele>155</ele>
        <time>2022-04-03T10:19:05.000Z</time>
      </trkpt>
      <trkpt lat="49.68821" lon="4.77054">
        <ele>155</ele>
        <time>2022-04-03T10:19:06.000Z</time>
      </trkpt>
      <trkpt lat="49.68826" lon="4.77055">
        <ele>155</ele>
        <time>2022-04-03T10:19:07.000Z</time>
      </trkpt>
      <trkpt lat="49.68831" lon="4.77057">
        <ele>155</ele>
        <time>2022-04-03T10:19:08.000Z</time>
      </trkpt>
      <trkpt lat="49.68835" lon="4.77059">
        <ele>155</ele>
        <time>2022-04-03T10:19:09.000Z</time>
      </trkpt>
      <trkpt lat="49.6884" lon="4.77061">
        <ele>155</ele>
        <time>2022-04-03T10:19:10.000Z</time>
      </trkpt>
      <trkpt lat="49.68844" lon="4.77062">
        <ele>155</ele>
        <time>2022-04-03T10:19:11.000Z</time>
      </trkpt>
      <trkpt lat="49.68849" lon="4.77063">
        <ele>154</ele>
        <time>2022-04-03T10:19:12.000Z</time>
      </trkpt>
      <trkpt lat="49.68854" lon="4.77065">
        <ele>154</ele>
        <time>2022-04-03T10:19:13.000Z</time>
      </trkpt>
      <trkpt lat="49.68859" lon="4.77066">
        <ele>154</ele>
        <time>2022-04-03T10:19:14.000Z</time>
      </trkpt>
      <trkpt lat="49.68864" lon="4.77068">
        <ele>154</ele>
        <time>2022-04-03T10:19:15.000Z</time>
      </trkpt>
      <trkpt lat="49.68869" lon="4.7707">
        <ele>154</ele>
        <time>2022-04-03T10:19:16.000Z</time>
      </trkpt>
      <trkpt lat="49.68874" lon="4.77072">
        <ele>154</ele>
        <time>2022-04-03T10:19:17.000Z</time>
      </trkpt>
      <trkpt lat="49.68878" lon="4.77074">
        <ele>154</ele>
        <time>2022-04-03T10:19:18.000Z</time>
      </trkpt>
      <trkpt lat="49.68883" lon="4.77076">
        <ele>154</ele>
        <time>2022-04-03T10:19:19.000Z</time>
      </trkpt>
      <trkpt lat="49.68887" lon="4.77078">
        <ele>154</ele>
        <time>2022-04-03T10:19:20.000Z</time>
      </trkpt>
      <trkpt lat="49.68892" lon="4.7708">
        <ele>154</ele>
        <time>2022-04-03T10:19:21.000Z</time>
      </trkpt>
      <trkpt lat="49.68897" lon="4.77082">
        <ele>154</ele>
        <time>2022-04-03T10:19:22.000Z</time>
      </trkpt>
      <trkpt lat="49.68902" lon="4.77083">
        <ele>154</ele>
        <time>2022-04-03T10:19:23.000Z</time>
      </trkpt>
      <trkpt lat="49.68907" lon="4.77085">
        <ele>154</ele>
        <time>2022-04-03T10:19:24.000Z</time>
      </trkpt>
      <trkpt lat="49.68912" lon="4.77086">
        <ele>154</ele>
        <time>2022-04-03T10:19:25.000Z</time>
      </trkpt>
      <trkpt lat="49.68917" lon="4.77087">
        <ele>154</ele>
        <time>2022-04-03T10:19:26.000Z</time>
      </trkpt>
      <trkpt lat="49.68921" lon="4.77089">
        <ele>154</ele>
        <time>2022-04-03T10:19:27.000Z</time>
      </trkpt>
      <trkpt lat="49.68926" lon="4.77091">
        <ele>154</ele>
        <time>2022-04-03T10:19:28.000Z</time>
      </trkpt>
      <trkpt lat="49.68931" lon="4.77092">
        <ele>154</ele>
        <time>2022-04-03T10:19:29.000Z</time>
      </trkpt>
      <trkpt lat="49.68936" lon="4.77093">
        <ele>154</ele>
        <time>2022-04-03T10:19:30.000Z</time>
      </trkpt>
      <trkpt lat="49.68941" lon="4.77095">
        <ele>154</ele>
        <time>2022-04-03T10:19:31.000Z</time>
      </trkpt>
      <trkpt lat="49.68947" lon="4.77096">
        <ele>154</ele>
        <time>2022-04-03T10:19:32.000Z</time>
      </trkpt>
      <trkpt lat="49.68952" lon="4.77098">
        <ele>154</ele>
        <time>2022-04-03T10:19:33.000Z</time>
      </trkpt>
      <trkpt lat="49.68957" lon="4.771">
        <ele>154</ele>
        <time>2022-04-03T10:19:34.000Z</time>
      </trkpt>
      <trkpt lat="49.68963" lon="4.77102">
        <ele>154</ele>
        <time>2022-04-03T10:19:35.000Z</time>
      </trkpt>
      <trkpt lat="49.68968" lon="4.77104">
        <ele>154</ele>
        <time>2022-04-03T10:19:36.000Z</time>
      </trkpt>
      <trkpt lat="49.68973" lon="4.77106">
        <ele>154</ele>
        <time>2022-04-03T10:19:37.000Z</time>
      </trkpt>
      <trkpt lat="49.68978" lon="4.77108">
        <ele>154</ele>
        <time>2022-04-03T10:19:38.000Z</time>
      </trkpt>
      <trkpt lat="49.68983" lon="4.77109">
        <ele>154</ele>
        <time>2022-04-03T10:19:39.000Z</time>
      </trkpt>
      <trkpt lat="49.68989" lon="4.77111">
        <ele>154</ele>
        <time>2022-04-03T10:19:40.000Z</time>
      </trkpt>
      <trkpt lat="49.68994" lon="4.77113">
        <ele>154</ele>
        <time>2022-04-03T10:19:41.000Z</time>
      </trkpt>
      <trkpt lat="49.68999" lon="4.77114">
        <ele>154</ele>
        <time>2022-04-03T10:19:42.000Z</time>
      </trkpt>
      <trkpt lat="49.69005" lon="4.77116">
        <ele>154</ele>
        <time>2022-04-03T10:19:43.000Z</time>
      </trkpt>
      <trkpt lat="49.6901" lon="4.77118">
        <ele>154</ele>
        <time>2022-04-03T10:19:44.000Z</time>
      </trkpt>
      <trkpt lat="49.69015" lon="4.77119">
        <ele>154</ele>
        <time>2022-04-03T10:19:45.000Z</time>
      </trkpt>
      <trkpt lat="49.6902" lon="4.77121">
        <ele>154</ele>
        <time>2022-04-03T10:19:46.000Z</time>
      </trkpt>
      <trkpt lat="49.69025" lon="4.77123">
        <ele>154</ele>
        <time>2022-04-03T10:19:47.000Z</time>
      </trkpt>
      <trkpt lat="49.69031" lon="4.77125">
        <ele>153</ele>
        <time>2022-04-03T10:19:48.000Z</time>
      </trkpt>
      <trkpt lat="49.69036" lon="4.77127">
        <ele>153</ele>
        <time>2022-04-03T10:19:49.000Z</time>
      </trkpt>
      <trkpt lat="49.69042" lon="4.77128">
        <ele>153</ele>
        <time>2022-04-03T10:19:50.000Z</time>
      </trkpt>
      <trkpt lat="49.69047" lon="4.7713">
        <ele>153</ele>
        <time>2022-04-03T10:19:51.000Z</time>
      </trkpt>
      <trkpt lat="49.69052" lon="4.77132">
        <ele>153</ele>
        <time>2022-04-03T10:19:52.000Z</time>
      </trkpt>
      <trkpt lat="49.69058" lon="4.77134">
        <ele>153</ele>
        <time>2022-04-03T10:19:53.000Z</time>
      </trkpt>
      <trkpt lat="49.69063" lon="4.77136">
        <ele>153</ele>
        <time>2022-04-03T10:19:54.000Z</time>
      </trkpt>
      <trkpt lat="49.69068" lon="4.77138">
        <ele>153</ele>
        <time>2022-04-03T10:19:55.000Z</time>
      </trkpt>
      <trkpt lat="49.69073" lon="4.7714">
        <ele>153</ele>
        <time>2022-04-03T10:19:56.000Z</time>
      </trkpt>
      <trkpt lat="49.69078" lon="4.77142">
        <ele>153</ele>
        <time>2022-04-03T10:19:57.000Z</time>
      </trkpt>
      <trkpt lat="49.69083" lon="4.77143">
        <ele>153</ele>
        <time>2022-04-03T10:19:58.000Z</time>
      </trkpt>
      <trkpt lat="49.69088" lon="4.77145">
        <ele>153</ele>
        <time>2022-04-03T10:19:59.000Z</time>
      </trkpt>
      <trkpt lat="49.69094" lon="4.77146">
        <ele>153</ele>
        <time>2022-04-03T10:20:00.000Z</time>
      </trkpt>
      <trkpt lat="49.69099" lon="4.77148">
        <ele>153</ele>
        <time>2022-04-03T10:20:01.000Z</time>
      </trkpt>
      <trkpt lat="49.69104" lon="4.77149">
        <ele>152</ele>
        <time>2022-04-03T10:20:02.000Z</time>
      </trkpt>
      <trkpt lat="49.6911" lon="4.7715">
        <ele>152</ele>
        <time>2022-04-03T10:20:03.000Z</time>
      </trkpt>
      <trkpt lat="49.69116" lon="4.77151">
        <ele>152</ele>
        <time>2022-04-03T10:20:04.000Z</time>
      </trkpt>
      <trkpt lat="49.69121" lon="4.77153">
        <ele>152</ele>
        <time>2022-04-03T10:20:05.000Z</time>
      </trkpt>
      <trkpt lat="49.69126" lon="4.77154">
        <ele>152</ele>
        <time>2022-04-03T10:20:06.000Z</time>
      </trkpt>
      <trkpt lat="49.69131" lon="4.77155">
        <ele>152</ele>
        <time>2022-04-03T10:20:07.000Z</time>
      </trkpt>
      <trkpt lat="49.69136" lon="4.77157">
        <ele>152</ele>
        <time>2022-04-03T10:20:08.000Z</time>
      </trkpt>
      <trkpt lat="49.69141" lon="4.77158">
        <ele>152</ele>
        <time>2022-04-03T10:20:09.000Z</time>
      </trkpt>
      <trkpt lat="49.69146" lon="4.7716">
        <ele>153</ele>
        <time>2022-04-03T10:20:10.000Z</time>
      </trkpt>
      <trkpt lat="49.69152" lon="4.77161">
        <ele>153</ele>
        <time>2022-04-03T10:20:11.000Z</time>
      </trkpt>
      <trkpt lat="49.69157" lon="4.77162">
        <ele>153</ele>
        <time>2022-04-03T10:20:12.000Z</time>
      </trkpt>
      <trkpt lat="49.69163" lon="4.77164">
        <ele>153</ele>
        <time>2022-04-03T10:20:13.000Z</time>
      </trkpt>
      <trkpt lat="49.69168" lon="4.77166">
        <ele>153</ele>
        <time>2022-04-03T10:20:14.000Z</time>
      </trkpt>
      <trkpt lat="49.69174" lon="4.77167">
        <ele>153</ele>
        <time>2022-04-03T10:20:15.000Z</time>
      </trkpt>
      <trkpt lat="49.69179" lon="4.77169">
        <ele>153</ele>
        <time>2022-04-03T10:20:16.000Z</time>
      </trkpt>
      <trkpt lat="49.69184" lon="4.77171">
        <ele>153</ele>
        <time>2022-04-03T10:20:17.000Z</time>
      </trkpt>
      <trkpt lat="49.6919" lon="4.77173">
        <ele>153</ele>
        <time>2022-04-03T10:20:18.000Z</time>
      </trkpt>
      <trkpt lat="49.69195" lon="4.77175">
        <ele>153</ele>
        <time>2022-04-03T10:20:19.000Z</time>
      </trkpt>
      <trkpt lat="49.69201" lon="4.77176">
        <ele>153</ele>
        <time>2022-04-03T10:20:20.000Z</time>
      </trkpt>
      <trkpt lat="49.69207" lon="4.77178">
        <ele>153</ele>
        <time>2022-04-03T10:20:21.000Z</time>
      </trkpt>
      <trkpt lat="49.69212" lon="4.77179">
        <ele>153</ele>
        <time>2022-04-03T10:20:22.000Z</time>
      </trkpt>
      <trkpt lat="49.69218" lon="4.77181">
        <ele>153</ele>
        <time>2022-04-03T10:20:23.000Z</time>
      </trkpt>
      <trkpt lat="49.69223" lon="4.77183">
        <ele>153</ele>
        <time>2022-04-03T10:20:24.000Z</time>
      </trkpt>
      <trkpt lat="49.69228" lon="4.77185">
        <ele>153</ele>
        <time>2022-04-03T10:20:25.000Z</time>
      </trkpt>
      <trkpt lat="49.69234" lon="4.77187">
        <ele>153</ele>
        <time>2022-04-03T10:20:26.000Z</time>
      </trkpt>
      <trkpt lat="49.69239" lon="4.77188">
        <ele>153</ele>
        <time>2022-04-03T10:20:27.000Z</time>
      </trkpt>
      <trkpt lat="49.69245" lon="4.7719">
        <ele>153</ele>
        <time>2022-04-03T10:20:28.000Z</time>
      </trkpt>
      <trkpt lat="49.6925" lon="4.77192">
        <ele>153</ele>
        <time>2022-04-03T10:20:29.000Z</time>
      </trkpt>
      <trkpt lat="49.69256" lon="4.77194">
        <ele>153</ele>
        <time>2022-04-03T10:20:30.000Z</time>
      </trkpt>
      <trkpt lat="49.69261" lon="4.77196">
        <ele>154</ele>
        <time>2022-04-03T10:20:31.000Z</time>
      </trkpt>
      <trkpt lat="49.69266" lon="4.77198">
        <ele>154</ele>
        <time>2022-04-03T10:20:32.000Z</time>
      </trkpt>
      <trkpt lat="49.69272" lon="4.77201">
        <ele>154</ele>
        <time>2022-04-03T10:20:33.000Z</time>
      </trkpt>
      <trkpt lat="49.69277" lon="4.77203">
        <ele>154</ele>
        <time>2022-04-03T10:20:34.000Z</time>
      </trkpt>
      <trkpt lat="49.69282" lon="4.77205">
        <ele>154</ele>
        <time>2022-04-03T10:20:35.000Z</time>
      </trkpt>
      <trkpt lat="49.69287" lon="4.77207">
        <ele>154</ele>
        <time>2022-04-03T10:20:36.000Z</time>
      </trkpt>
      <trkpt lat="49.69291" lon="4.77209">
        <ele>154</ele>
        <time>2022-04-03T10:20:37.000Z</time>
      </trkpt>
      <trkpt lat="49.69296" lon="4.77212">
        <ele>154</ele>
        <time>2022-04-03T10:20:38.000Z</time>
      </trkpt>
      <trkpt lat="49.69301" lon="4.77215">
        <ele>154</ele>
        <time>2022-04-03T10:20:39.000Z</time>
      </trkpt>
      <trkpt lat="49.69306" lon="4.77218">
        <ele>154</ele>
        <time>2022-04-03T10:20:40.000Z</time>
      </trkpt>
      <trkpt lat="49.69311" lon="4.77221">
        <ele>154</ele>
        <time>2022-04-03T10:20:41.000Z</time>
      </trkpt>
      <trkpt lat="49.69316" lon="4.77225">
        <ele>154</ele>
        <time>2022-04-03T10:20:42.000Z</time>
      </trkpt>
      <trkpt lat="49.69321" lon="4.7723">
        <ele>154</ele>
        <time>2022-04-03T10:20:43.000Z</time>
      </trkpt>
      <trkpt lat="49.69325" lon="4.77235">
        <ele>153</ele>
        <time>2022-04-03T10:20:44.000Z</time>
      </trkpt>
      <trkpt lat="49.6933" lon="4.77241">
        <ele>153</ele>
        <time>2022-04-03T10:20:45.000Z</time>
      </trkpt>
      <trkpt lat="49.69334" lon="4.77247">
        <ele>153</ele>
        <time>2022-04-03T10:20:46.000Z</time>
      </trkpt>
      <trkpt lat="49.69338" lon="4.77253">
        <ele>153</ele>
        <time>2022-04-03T10:20:47.000Z</time>
      </trkpt>
      <trkpt lat="49.69342" lon="4.77259">
        <ele>153</ele>
        <time>2022-04-03T10:20:48.000Z</time>
      </trkpt>
      <trkpt lat="49.69346" lon="4.77266">
        <ele>153</ele>
        <time>2022-04-03T10:20:49.000Z</time>
      </trkpt>
      <trkpt lat="49.69349" lon="4.77272">
        <ele>153</ele>
        <time>2022-04-03T10:20:50.000Z</time>
      </trkpt>
      <trkpt lat="49.69353" lon="4.77279">
        <ele>153</ele>
        <time>2022-04-03T10:20:51.000Z</time>
      </trkpt>
      <trkpt lat="49.69356" lon="4.77286">
        <ele>153</ele>
        <time>2022-04-03T10:20:52.000Z</time>
      </trkpt>
      <trkpt lat="49.6936" lon="4.77293">
        <ele>153</ele>
        <time>2022-04-03T10:20:53.000Z</time>
      </trkpt>
      <trkpt lat="49.69364" lon="4.773">
        <ele>154</ele>
        <time>2022-04-03T10:20:54.000Z</time>
      </trkpt>
      <trkpt lat="49.69368" lon="4.77307">
        <ele>154</ele>
        <time>2022-04-03T10:20:55.000Z</time>
      </trkpt>
      <trkpt lat="49.69373" lon="4.77313">
        <ele>153</ele>
        <time>2022-04-03T10:20:56.000Z</time>
      </trkpt>
      <trkpt lat="49.69377" lon="4.77319">
        <ele>153</ele>
        <time>2022-04-03T10:20:57.000Z</time>
      </trkpt>
      <trkpt lat="49.69382" lon="4.77326">
        <ele>153</ele>
        <time>2022-04-03T10:20:58.000Z</time>
      </trkpt>
      <trkpt lat="49.69386" lon="4.77331">
        <ele>153</ele>
        <time>2022-04-03T10:20:59.000Z</time>
      </trkpt>
      <trkpt lat="49.6939" lon="4.77337">
        <ele>153</ele>
        <time>2022-04-03T10:21:00.000Z</time>
      </trkpt>
      <trkpt lat="49.69394" lon="4.77342">
        <ele>153</ele>
        <time>2022-04-03T10:21:01.000Z</time>
      </trkpt>
      <trkpt lat="49.69399" lon="4.77347">
        <ele>153</ele>
        <time>2022-04-03T10:21:02.000Z</time>
      </trkpt>
      <trkpt lat="49.69403" lon="4.77352">
        <ele>153</ele>
        <time>2022-04-03T10:21:03.000Z</time>
      </trkpt>
      <trkpt lat="49.69408" lon="4.77357">
        <ele>154</ele>
        <time>2022-04-03T10:21:04.000Z</time>
      </trkpt>
      <trkpt lat="49.69412" lon="4.77362">
        <ele>154</ele>
        <time>2022-04-03T10:21:05.000Z</time>
      </trkpt>
      <trkpt lat="49.69416" lon="4.77367">
        <ele>154</ele>
        <time>2022-04-03T10:21:06.000Z</time>
      </trkpt>
      <trkpt lat="49.69421" lon="4.77372">
        <ele>154</ele>
        <time>2022-04-03T10:21:07.000Z</time>
      </trkpt>
      <trkpt lat="49.69426" lon="4.77376">
        <ele>154</ele>
        <time>2022-04-03T10:21:08.000Z</time>
      </trkpt>
      <trkpt lat="49.69431" lon="4.77381">
        <ele>154</ele>
        <time>2022-04-03T10:21:09.000Z</time>
      </trkpt>
      <trkpt lat="49.69435" lon="4.77385">
        <ele>154</ele>
        <time>2022-04-03T10:21:10.000Z</time>
      </trkpt>
      <trkpt lat="49.6944" lon="4.7739">
        <ele>154</ele>
        <time>2022-04-03T10:21:11.000Z</time>
      </trkpt>
      <trkpt lat="49.69445" lon="4.77395">
        <ele>154</ele>
        <time>2022-04-03T10:21:12.000Z</time>
      </trkpt>
      <trkpt lat="49.6945" lon="4.77399">
        <ele>154</ele>
        <time>2022-04-03T10:21:13.000Z</time>
      </trkpt>
      <trkpt lat="49.69455" lon="4.77404">
        <ele>154</ele>
        <time>2022-04-03T10:21:14.000Z</time>
      </trkpt>
      <trkpt lat="49.6946" lon="4.77409">
        <ele>154</ele>
        <time>2022-04-03T10:21:15.000Z</time>
      </trkpt>
      <trkpt lat="49.69465" lon="4.77414">
        <ele>154</ele>
        <time>2022-04-03T10:21:16.000Z</time>
      </trkpt>
      <trkpt lat="49.6947" lon="4.77418">
        <ele>154</ele>
        <time>2022-04-03T10:21:17.000Z</time>
      </trkpt>
      <trkpt lat="49.69475" lon="4.77423">
        <ele>154</ele>
        <time>2022-04-03T10:21:18.000Z</time>
      </trkpt>
      <trkpt lat="49.6948" lon="4.77427">
        <ele>154</ele>
        <time>2022-04-03T10:21:19.000Z</time>
      </trkpt>
      <trkpt lat="49.69485" lon="4.77431">
        <ele>154</ele>
        <time>2022-04-03T10:21:20.000Z</time>
      </trkpt>
      <trkpt lat="49.6949" lon="4.77436">
        <ele>154</ele>
        <time>2022-04-03T10:21:21.000Z</time>
      </trkpt>
      <trkpt lat="49.69495" lon="4.7744">
        <ele>154</ele>
        <time>2022-04-03T10:21:22.000Z</time>
      </trkpt>
      <trkpt lat="49.69499" lon="4.77444">
        <ele>154</ele>
        <time>2022-04-03T10:21:23.000Z</time>
      </trkpt>
      <trkpt lat="49.69504" lon="4.77449">
        <ele>154</ele>
        <time>2022-04-03T10:21:24.000Z</time>
      </trkpt>
      <trkpt lat="49.69509" lon="4.77453">
        <ele>154</ele>
        <time>2022-04-03T10:21:25.000Z</time>
      </trkpt>
      <trkpt lat="49.69513" lon="4.77456">
        <ele>154</ele>
        <time>2022-04-03T10:21:26.000Z</time>
      </trkpt>
      <trkpt lat="49.69518" lon="4.7746">
        <ele>154</ele>
        <time>2022-04-03T10:21:27.000Z</time>
      </trkpt>
      <trkpt lat="49.69524" lon="4.77465">
        <ele>153</ele>
        <time>2022-04-03T10:21:28.000Z</time>
      </trkpt>
      <trkpt lat="49.6953" lon="4.77469">
        <ele>153</ele>
        <time>2022-04-03T10:21:29.000Z</time>
      </trkpt>
      <trkpt lat="49.69537" lon="4.77475">
        <ele>153</ele>
        <time>2022-04-03T10:21:30.000Z</time>
      </trkpt>
      <trkpt lat="49.69543" lon="4.7748">
        <ele>153</ele>
        <time>2022-04-03T10:21:31.000Z</time>
      </trkpt>
      <trkpt lat="49.69551" lon="4.77484">
        <ele>153</ele>
        <time>2022-04-03T10:21:32.000Z</time>
      </trkpt>
      <trkpt lat="49.69559" lon="4.77489">
        <ele>152</ele>
        <time>2022-04-03T10:21:33.000Z</time>
      </trkpt>
      <trkpt lat="49.69566" lon="4.77494">
        <ele>152</ele>
        <time>2022-04-03T10:21:34.000Z</time>
      </trkpt>
      <trkpt lat="49.69574" lon="4.77499">
        <ele>152</ele>
        <time>2022-04-03T10:21:35.000Z</time>
      </trkpt>
      <trkpt lat="49.69581" lon="4.77503">
        <ele>151</ele>
        <time>2022-04-03T10:21:36.000Z</time>
      </trkpt>
      <trkpt lat="49.69588" lon="4.77507">
        <ele>151</ele>
        <time>2022-04-03T10:21:37.000Z</time>
      </trkpt>
      <trkpt lat="49.69595" lon="4.77511">
        <ele>151</ele>
        <time>2022-04-03T10:21:38.000Z</time>
      </trkpt>
      <trkpt lat="49.69602" lon="4.77514">
        <ele>151</ele>
        <time>2022-04-03T10:21:39.000Z</time>
      </trkpt>
      <trkpt lat="49.69609" lon="4.77518">
        <ele>150</ele>
        <time>2022-04-03T10:21:40.000Z</time>
      </trkpt>
      <trkpt lat="49.69615" lon="4.77521">
        <ele>150</ele>
        <time>2022-04-03T10:21:41.000Z</time>
      </trkpt>
      <trkpt lat="49.69621" lon="4.77525">
        <ele>150</ele>
        <time>2022-04-03T10:21:42.000Z</time>
      </trkpt>
      <trkpt lat="49.69627" lon="4.77528">
        <ele>150</ele>
        <time>2022-04-03T10:21:43.000Z</time>
      </trkpt>
      <trkpt lat="49.69632" lon="4.7753">
        <ele>150</ele>
        <time>2022-04-03T10:21:44.000Z</time>
      </trkpt>
      <trkpt lat="49.69637" lon="4.77532">
        <ele>150</ele>
        <time>2022-04-03T10:21:45.000Z</time>
      </trkpt>
      <trkpt lat="49.69642" lon="4.77535">
        <ele>150</ele>
        <time>2022-04-03T10:21:46.000Z</time>
      </trkpt>
      <trkpt lat="49.69644" lon="4.77541">
        <ele>150</ele>
        <time>2022-04-03T10:21:47.000Z</time>
      </trkpt>
      <trkpt lat="49.69645" lon="4.77548">
        <ele>150</ele>
        <time>2022-04-03T10:21:48.000Z</time>
      </trkpt>
      <trkpt lat="49.69645" lon="4.77553">
        <ele>151</ele>
        <time>2022-04-03T10:21:49.000Z</time>
      </trkpt>
      <trkpt lat="49.69644" lon="4.77559">
        <ele>151</ele>
        <time>2022-04-03T10:21:50.000Z</time>
      </trkpt>
      <trkpt lat="49.69642" lon="4.77564">
        <ele>151</ele>
        <time>2022-04-03T10:21:51.000Z</time>
      </trkpt>
      <trkpt lat="49.69641" lon="4.7757">
        <ele>151</ele>
        <time>2022-04-03T10:21:52.000Z</time>
      </trkpt>
      <trkpt lat="49.69639" lon="4.77576">
        <ele>151</ele>
        <time>2022-04-03T10:21:53.000Z</time>
      </trkpt>
      <trkpt lat="49.69638" lon="4.77582">
        <ele>151</ele>
        <time>2022-04-03T10:21:54.000Z</time>
      </trkpt>
      <trkpt lat="49.69636" lon="4.77588">
        <ele>151</ele>
        <time>2022-04-03T10:21:55.000Z</time>
      </trkpt>
      <trkpt lat="49.69635" lon="4.77594">
        <ele>151</ele>
        <time>2022-04-03T10:21:56.000Z</time>
      </trkpt>
      <trkpt lat="49.69633" lon="4.776">
        <ele>151</ele>
        <time>2022-04-03T10:21:57.000Z</time>
      </trkpt>
      <trkpt lat="49.69632" lon="4.77605">
        <ele>151</ele>
        <time>2022-04-03T10:21:58.000Z</time>
      </trkpt>
      <trkpt lat="49.69631" lon="4.77611">
        <ele>151</ele>
        <time>2022-04-03T10:21:59.000Z</time>
      </trkpt>
      <trkpt lat="49.69629" lon="4.77617">
        <ele>151</ele>
        <time>2022-04-03T10:22:00.000Z</time>
      </trkpt>
      <trkpt lat="49.69628" lon="4.77622">
        <ele>151</ele>
        <time>2022-04-03T10:22:01.000Z</time>
      </trkpt>
      <trkpt lat="49.69627" lon="4.77627">
        <ele>151</ele>
        <time>2022-04-03T10:22:02.000Z</time>
      </trkpt>
      <trkpt lat="49.69627" lon="4.77633">
        <ele>151</ele>
        <time>2022-04-03T10:22:03.000Z</time>
      </trkpt>
      <trkpt lat="49.69628" lon="4.77637">
        <ele>152</ele>
        <time>2022-04-03T10:22:04.000Z</time>
      </trkpt>
      <trkpt lat="49.69631" lon="4.77642">
        <ele>152</ele>
        <time>2022-04-03T10:22:05.000Z</time>
      </trkpt>
      <trkpt lat="49.69634" lon="4.77646">
        <ele>152</ele>
        <time>2022-04-03T10:22:06.000Z</time>
      </trkpt>
      <trkpt lat="49.69638" lon="4.7765">
        <ele>152</ele>
        <time>2022-04-03T10:22:07.000Z</time>
      </trkpt>
      <trkpt lat="49.69642" lon="4.77653">
        <ele>152</ele>
        <time>2022-04-03T10:22:08.000Z</time>
      </trkpt>
      <trkpt lat="49.69646" lon="4.77658">
        <ele>152</ele>
        <time>2022-04-03T10:22:09.000Z</time>
      </trkpt>
      <trkpt lat="49.6965" lon="4.77662">
        <ele>152</ele>
        <time>2022-04-03T10:22:10.000Z</time>
      </trkpt>
      <trkpt lat="49.69654" lon="4.77666">
        <ele>152</ele>
        <time>2022-04-03T10:22:11.000Z</time>
      </trkpt>
      <trkpt lat="49.69659" lon="4.7767">
        <ele>152</ele>
        <time>2022-04-03T10:22:12.000Z</time>
      </trkpt>
      <trkpt lat="49.69664" lon="4.77673">
        <ele>152</ele>
        <time>2022-04-03T10:22:13.000Z</time>
      </trkpt>
      <trkpt lat="49.69669" lon="4.77676">
        <ele>152</ele>
        <time>2022-04-03T10:22:14.000Z</time>
      </trkpt>
      <trkpt lat="49.69673" lon="4.77679">
        <ele>152</ele>
        <time>2022-04-03T10:22:15.000Z</time>
      </trkpt>
      <trkpt lat="49.69677" lon="4.77683">
        <ele>152</ele>
        <time>2022-04-03T10:22:16.000Z</time>
      </trkpt>
      <trkpt lat="49.69681" lon="4.77688">
        <ele>152</ele>
        <time>2022-04-03T10:22:17.000Z</time>
      </trkpt>
      <trkpt lat="49.69683" lon="4.77693">
        <ele>152</ele>
        <time>2022-04-03T10:22:18.000Z</time>
      </trkpt>
      <trkpt lat="49.69684" lon="4.77698">
        <ele>152</ele>
        <time>2022-04-03T10:22:19.000Z</time>
      </trkpt>
      <trkpt lat="49.69684" lon="4.77703">
        <ele>152</ele>
        <time>2022-04-03T10:22:20.000Z</time>
      </trkpt>
      <trkpt lat="49.69683" lon="4.77709">
        <ele>152</ele>
        <time>2022-04-03T10:22:21.000Z</time>
      </trkpt>
      <trkpt lat="49.69681" lon="4.77715">
        <ele>152</ele>
        <time>2022-04-03T10:22:22.000Z</time>
      </trkpt>
      <trkpt lat="49.69678" lon="4.7772">
        <ele>152</ele>
        <time>2022-04-03T10:22:23.000Z</time>
      </trkpt>
      <trkpt lat="49.69675" lon="4.77725">
        <ele>152</ele>
        <time>2022-04-03T10:22:24.000Z</time>
      </trkpt>
      <trkpt lat="49.69673" lon="4.7773">
        <ele>152</ele>
        <time>2022-04-03T10:22:25.000Z</time>
      </trkpt>
      <trkpt lat="49.69672" lon="4.77734">
        <ele>152</ele>
        <time>2022-04-03T10:22:26.000Z</time>
      </trkpt>
      <trkpt lat="49.69672" lon="4.77739">
        <ele>152</ele>
        <time>2022-04-03T10:22:27.000Z</time>
      </trkpt>
      <trkpt lat="49.69673" lon="4.77743">
        <ele>152</ele>
        <time>2022-04-03T10:22:28.000Z</time>
      </trkpt>
      <trkpt lat="49.69676" lon="4.77745">
        <ele>153</ele>
        <time>2022-04-03T10:22:29.000Z</time>
      </trkpt>
      <trkpt lat="49.69679" lon="4.77745">
        <ele>153</ele>
        <time>2022-04-03T10:22:30.000Z</time>
      </trkpt>
      <trkpt lat="49.69681" lon="4.77745">
        <ele>153</ele>
        <time>2022-04-03T10:22:31.000Z</time>
      </trkpt>
      <trkpt lat="49.69683" lon="4.77746">
        <ele>154</ele>
        <time>2022-04-03T10:22:32.000Z</time>
      </trkpt>
      <trkpt lat="49.69685" lon="4.77748">
        <ele>154</ele>
        <time>2022-04-03T10:22:33.000Z</time>
      </trkpt>
      <trkpt lat="49.69686" lon="4.7775">
        <ele>154</ele>
        <time>2022-04-03T10:22:34.000Z</time>
      </trkpt>
      <trkpt lat="49.69688" lon="4.77751">
        <ele>154</ele>
        <time>2022-04-03T10:22:35.000Z</time>
      </trkpt>
      <trkpt lat="49.69688" lon="4.77751">
        <ele>154</ele>
        <time>2022-04-03T10:22:36.000Z</time>
      </trkpt>
      <trkpt lat="49.69688" lon="4.77752">
        <ele>154</ele>
        <time>2022-04-03T10:22:37.000Z</time>
      </trkpt>
      <trkpt lat="49.69688" lon="4.77752">
        <ele>154</ele>
        <time>2022-04-03T10:22:38.000Z</time>
      </trkpt>
      <trkpt lat="49.69688" lon="4.77752">
        <ele>153</ele>
        <time>2022-04-03T10:22:39.000Z</time>
      </trkpt>
      <trkpt lat="49.69687" lon="4.77752">
        <ele>153</ele>
        <time>2022-04-03T10:22:40.000Z</time>
      </trkpt>
      <trkpt lat="49.69688" lon="4.77753">
        <ele>153</ele>
        <time>2022-04-03T10:22:41.000Z</time>
      </trkpt>
      <trkpt lat="49.69688" lon="4.77752">
        <ele>153</ele>
        <time>2022-04-03T10:22:42.000Z</time>
      </trkpt>
      <trkpt lat="49.69688" lon="4.77752">
        <ele>153</ele>
        <time>2022-04-03T10:22:43.000Z</time>
      </trkpt>
      <trkpt lat="49.69687" lon="4.77752">
        <ele>153</ele>
        <time>2022-04-03T10:22:44.000Z</time>
      </trkpt>
      <trkpt lat="49.69687" lon="4.77752">
        <ele>153</ele>
        <time>2022-04-03T10:22:45.000Z</time>
      </trkpt>
      <trkpt lat="49.69687" lon="4.77751">
        <ele>153</ele>
        <time>2022-04-03T10:22:46.000Z</time>
      </trkpt>
      <trkpt lat="49.69687" lon="4.77751">
        <ele>153</ele>
        <time>2022-04-03T10:22:47.000Z</time>
      </trkpt>
      <trkpt lat="49.69687" lon="4.77751">
        <ele>153</ele>
        <time>2022-04-03T10:22:48.000Z</time>
      </trkpt>
      <trkpt lat="49.69686" lon="4.77751">
        <ele>153</ele>
        <time>2022-04-03T10:22:49.000Z</time>
      </trkpt>
      <trkpt lat="49.69686" lon="4.77752">
        <ele>153</ele>
        <time>2022-04-03T10:22:50.000Z</time>
      </trkpt>
      <trkpt lat="49.69686" lon="4.77752">
        <ele>153</ele>
        <time>2022-04-03T10:22:51.000Z</time>
      </trkpt>
      <trkpt lat="49.69686" lon="4.77752">
        <ele>153</ele>
        <time>2022-04-03T10:22:52.000Z</time>
      </trkpt>
      <trkpt lat="49.69686" lon="4.77751">
        <ele>153</ele>
        <time>2022-04-03T10:22:53.000Z</time>
      </trkpt>
      <trkpt lat="49.69686" lon="4.77751">
        <ele>153</ele>
        <time>2022-04-03T10:22:54.000Z</time>
      </trkpt>
      <trkpt lat="49.69686" lon="4.77752">
        <ele>153</ele>
        <time>2022-04-03T10:22:55.000Z</time>
      </trkpt>
      <trkpt lat="49.69686" lon="4.77751">
        <ele>153</ele>
        <time>2022-04-03T10:22:56.000Z</time>
      </trkpt>
      <trkpt lat="49.69686" lon="4.77751">
        <ele>153</ele>
        <time>2022-04-03T10:22:57.000Z</time>
      </trkpt>
      <trkpt lat="49.69686" lon="4.77751">
        <ele>153</ele>
        <time>2022-04-03T10:22:58.000Z</time>
      </trkpt>
      <trkpt lat="49.69686" lon="4.77751">
        <ele>153</ele>
        <time>2022-04-03T10:22:59.000Z</time>
      </trkpt>
      <trkpt lat="49.69686" lon="4.77751">
        <ele>153</ele>
        <time>2022-04-03T10:23:00.000Z</time>
      </trkpt>
      <trkpt lat="49.69686" lon="4.7775">
        <ele>153</ele>
        <time>2022-04-03T10:23:01.000Z</time>
      </trkpt>
      <trkpt lat="49.69685" lon="4.77749">
        <ele>153</ele>
        <time>2022-04-03T10:23:02.000Z</time>
      </trkpt>
      <trkpt lat="49.69686" lon="4.77749">
        <ele>153</ele>
        <time>2022-04-03T10:23:03.000Z</time>
      </trkpt>
      <trkpt lat="49.69686" lon="4.77749">
        <ele>153</ele>
        <time>2022-04-03T10:23:04.000Z</time>
      </trkpt>
      <trkpt lat="49.69686" lon="4.77749">
        <ele>153</ele>
        <time>2022-04-03T10:23:05.000Z</time>
      </trkpt>
      <trkpt lat="49.69686" lon="4.77749">
        <ele>153</ele>
        <time>2022-04-03T10:23:06.000Z</time>
      </trkpt>
    </trkseg>
  </trk>
</gpx>